<?xml version="1.0" encoding="UTF-8" standalone="no" ?>
<gpx xmlns="http://www.topografix.com/GPX/1/1" xmlns:xsi="http://www.w3.org/2001/XMLSchema-instance" xsi:schemaLocation="http://www.topografix.com/GPX/1/1 http://www.topografix.com/GPX/1/1/gpx.xsd" version="1.1" creator="VisuGPX - https://www.visugpx.com">
  <metadata>
    <name>Retour 3/10/2015 Par Clerval </name>
    <desc><![CDATA[[img][/img]]]></desc>
  </metadata>
  <trk>
    <name><![CDATA[Retour]]></name>
    <desc><![CDATA[3/10]]></desc>
    <trkseg>
      <trkpt lat="47.32337" lon="6.36118">
        <ele>287.881</ele>
        <time>2015-10-03T07:53:56Z</time>
      </trkpt>
      <trkpt lat="47.3234" lon="6.36119">
        <ele>287.644</ele>
        <time>2015-10-03T07:54:19Z</time>
      </trkpt>
      <trkpt lat="47.32341" lon="6.36119">
        <ele>287.513</ele>
        <time>2015-10-03T07:54:23Z</time>
      </trkpt>
      <trkpt lat="47.32341" lon="6.36123">
        <ele>287.026</ele>
        <time>2015-10-03T07:54:43Z</time>
      </trkpt>
      <trkpt lat="47.32342" lon="6.36124">
        <ele>286.575</ele>
        <time>2015-10-03T07:54:44Z</time>
      </trkpt>
      <trkpt lat="47.32346" lon="6.36125">
        <ele>286.726</ele>
        <time>2015-10-03T07:54:50Z</time>
      </trkpt>
      <trkpt lat="47.32347" lon="6.36127">
        <ele>286.546</ele>
        <time>2015-10-03T07:54:55Z</time>
      </trkpt>
      <trkpt lat="47.32347" lon="6.36128">
        <ele>286.042</ele>
        <time>2015-10-03T07:54:57Z</time>
      </trkpt>
      <trkpt lat="47.32348" lon="6.3613">
        <ele>285.693</ele>
        <time>2015-10-03T07:54:59Z</time>
      </trkpt>
      <trkpt lat="47.32349" lon="6.36131">
        <ele>285.947</ele>
        <time>2015-10-03T07:55:00Z</time>
      </trkpt>
      <trkpt lat="47.3235" lon="6.36132">
        <ele>285.905</ele>
        <time>2015-10-03T07:55:01Z</time>
      </trkpt>
      <trkpt lat="47.32351" lon="6.36135">
        <ele>285.147</ele>
        <time>2015-10-03T07:55:05Z</time>
      </trkpt>
      <trkpt lat="47.32351" lon="6.36135">
        <ele>285.216</ele>
        <time>2015-10-03T07:55:12Z</time>
      </trkpt>
      <trkpt lat="47.32353" lon="6.36137">
        <ele>286.018</ele>
        <time>2015-10-03T07:56:54Z</time>
      </trkpt>
      <trkpt lat="47.32353" lon="6.36139">
        <ele>287.324</ele>
        <time>2015-10-03T07:58:11Z</time>
      </trkpt>
      <trkpt lat="47.32352" lon="6.36141">
        <ele>285.434</ele>
        <time>2015-10-03T07:58:13Z</time>
      </trkpt>
      <trkpt lat="47.32353" lon="6.36141">
        <ele>285.602</ele>
        <time>2015-10-03T07:58:15Z</time>
      </trkpt>
      <trkpt lat="47.32354" lon="6.36141">
        <ele>284.844</ele>
        <time>2015-10-03T07:58:16Z</time>
      </trkpt>
      <trkpt lat="47.32355" lon="6.36142">
        <ele>284.684</ele>
        <time>2015-10-03T07:58:18Z</time>
      </trkpt>
      <trkpt lat="47.32355" lon="6.36144">
        <ele>284.351</ele>
        <time>2015-10-03T07:58:21Z</time>
      </trkpt>
      <trkpt lat="47.32355" lon="6.36146">
        <ele>284.176</ele>
        <time>2015-10-03T07:58:23Z</time>
      </trkpt>
      <trkpt lat="47.32356" lon="6.36147">
        <ele>284.003</ele>
        <time>2015-10-03T07:58:25Z</time>
      </trkpt>
      <trkpt lat="47.32358" lon="6.36147">
        <ele>284.159</ele>
        <time>2015-10-03T07:58:27Z</time>
      </trkpt>
      <trkpt lat="47.32358" lon="6.36148">
        <ele>283.003</ele>
        <time>2015-10-03T07:58:34Z</time>
      </trkpt>
      <trkpt lat="47.32358" lon="6.36146">
        <ele>283.839</ele>
        <time>2015-10-03T07:58:54Z</time>
      </trkpt>
      <trkpt lat="47.32359" lon="6.36148">
        <ele>282.965</ele>
        <time>2015-10-03T07:59:57Z</time>
      </trkpt>
      <trkpt lat="47.32359" lon="6.36149">
        <ele>283.677</ele>
        <time>2015-10-03T08:00:25Z</time>
      </trkpt>
      <trkpt lat="47.32361" lon="6.36153">
        <ele>284.598</ele>
        <time>2015-10-03T08:01:07Z</time>
      </trkpt>
      <trkpt lat="47.32361" lon="6.36155">
        <ele>284.546</ele>
        <time>2015-10-03T08:01:09Z</time>
      </trkpt>
      <trkpt lat="47.32361" lon="6.36158">
        <ele>283.481</ele>
        <time>2015-10-03T08:01:11Z</time>
      </trkpt>
      <trkpt lat="47.32361" lon="6.36159">
        <ele>283.41</ele>
        <time>2015-10-03T08:01:13Z</time>
      </trkpt>
      <trkpt lat="47.32363" lon="6.36159">
        <ele>282.961</ele>
        <time>2015-10-03T08:01:17Z</time>
      </trkpt>
      <trkpt lat="47.32362" lon="6.36162">
        <ele>284.386</ele>
        <time>2015-10-03T08:03:09Z</time>
      </trkpt>
      <trkpt lat="47.32362" lon="6.36164">
        <ele>283.247</ele>
        <time>2015-10-03T08:03:14Z</time>
      </trkpt>
      <trkpt lat="47.32361" lon="6.36165">
        <ele>282.602</ele>
        <time>2015-10-03T08:03:16Z</time>
      </trkpt>
      <trkpt lat="47.32361" lon="6.36163">
        <ele>282.673</ele>
        <time>2015-10-03T08:03:19Z</time>
      </trkpt>
      <trkpt lat="47.32358" lon="6.36165">
        <ele>283.005</ele>
        <time>2015-10-03T08:03:27Z</time>
      </trkpt>
      <trkpt lat="47.32356" lon="6.36167">
        <ele>282.61</ele>
        <time>2015-10-03T08:03:28Z</time>
      </trkpt>
      <trkpt lat="47.32355" lon="6.36168">
        <ele>282.665</ele>
        <time>2015-10-03T08:03:29Z</time>
      </trkpt>
      <trkpt lat="47.32353" lon="6.3617">
        <ele>282.606</ele>
        <time>2015-10-03T08:03:30Z</time>
      </trkpt>
      <trkpt lat="47.32351" lon="6.36172">
        <ele>282.478</ele>
        <time>2015-10-03T08:03:31Z</time>
      </trkpt>
      <trkpt lat="47.32349" lon="6.36175">
        <ele>282.304</ele>
        <time>2015-10-03T08:03:32Z</time>
      </trkpt>
      <trkpt lat="47.32348" lon="6.36178">
        <ele>282.326</ele>
        <time>2015-10-03T08:03:33Z</time>
      </trkpt>
      <trkpt lat="47.32347" lon="6.36182">
        <ele>282.402</ele>
        <time>2015-10-03T08:03:34Z</time>
      </trkpt>
      <trkpt lat="47.32346" lon="6.36186">
        <ele>282.17</ele>
        <time>2015-10-03T08:03:35Z</time>
      </trkpt>
      <trkpt lat="47.32345" lon="6.36191">
        <ele>282.118</ele>
        <time>2015-10-03T08:03:36Z</time>
      </trkpt>
      <trkpt lat="47.32344" lon="6.36196">
        <ele>281.799</ele>
        <time>2015-10-03T08:03:37Z</time>
      </trkpt>
      <trkpt lat="47.32344" lon="6.36201">
        <ele>281.923</ele>
        <time>2015-10-03T08:03:38Z</time>
      </trkpt>
      <trkpt lat="47.32344" lon="6.36206">
        <ele>281.954</ele>
        <time>2015-10-03T08:03:39Z</time>
      </trkpt>
      <trkpt lat="47.32345" lon="6.36211">
        <ele>282.089</ele>
        <time>2015-10-03T08:03:40Z</time>
      </trkpt>
      <trkpt lat="47.32345" lon="6.36215">
        <ele>282.421</ele>
        <time>2015-10-03T08:03:41Z</time>
      </trkpt>
      <trkpt lat="47.32344" lon="6.36219">
        <ele>282.688</ele>
        <time>2015-10-03T08:03:42Z</time>
      </trkpt>
      <trkpt lat="47.32344" lon="6.36224">
        <ele>283.133</ele>
        <time>2015-10-03T08:03:43Z</time>
      </trkpt>
      <trkpt lat="47.32345" lon="6.3623">
        <ele>283.455</ele>
        <time>2015-10-03T08:03:44Z</time>
      </trkpt>
      <trkpt lat="47.32345" lon="6.36235">
        <ele>283.78</ele>
        <time>2015-10-03T08:03:45Z</time>
      </trkpt>
      <trkpt lat="47.32346" lon="6.3624">
        <ele>284.111</ele>
        <time>2015-10-03T08:03:46Z</time>
      </trkpt>
      <trkpt lat="47.32346" lon="6.36244">
        <ele>283.962</ele>
        <time>2015-10-03T08:03:47Z</time>
      </trkpt>
      <trkpt lat="47.32346" lon="6.36248">
        <ele>284.11</ele>
        <time>2015-10-03T08:03:48Z</time>
      </trkpt>
      <trkpt lat="47.32346" lon="6.36251">
        <ele>284.252</ele>
        <time>2015-10-03T08:03:49Z</time>
      </trkpt>
      <trkpt lat="47.32346" lon="6.36253">
        <ele>285.028</ele>
        <time>2015-10-03T08:03:50Z</time>
      </trkpt>
      <trkpt lat="47.32346" lon="6.36256">
        <ele>284.594</ele>
        <time>2015-10-03T08:03:52Z</time>
      </trkpt>
      <trkpt lat="47.32346" lon="6.3626">
        <ele>284.612</ele>
        <time>2015-10-03T08:03:53Z</time>
      </trkpt>
      <trkpt lat="47.32347" lon="6.36265">
        <ele>284.35</ele>
        <time>2015-10-03T08:03:54Z</time>
      </trkpt>
      <trkpt lat="47.32347" lon="6.36271">
        <ele>284.256</ele>
        <time>2015-10-03T08:03:55Z</time>
      </trkpt>
      <trkpt lat="47.32347" lon="6.36278">
        <ele>285.115</ele>
        <time>2015-10-03T08:03:56Z</time>
      </trkpt>
      <trkpt lat="47.32347" lon="6.36283">
        <ele>285.165</ele>
        <time>2015-10-03T08:03:57Z</time>
      </trkpt>
      <trkpt lat="47.32347" lon="6.36286">
        <ele>285.093</ele>
        <time>2015-10-03T08:03:58Z</time>
      </trkpt>
      <trkpt lat="47.32347" lon="6.36291">
        <ele>285.055</ele>
        <time>2015-10-03T08:03:59Z</time>
      </trkpt>
      <trkpt lat="47.32346" lon="6.36297">
        <ele>285.081</ele>
        <time>2015-10-03T08:04:00Z</time>
      </trkpt>
      <trkpt lat="47.32346" lon="6.36304">
        <ele>284.988</ele>
        <time>2015-10-03T08:04:01Z</time>
      </trkpt>
      <trkpt lat="47.32345" lon="6.3631">
        <ele>285.013</ele>
        <time>2015-10-03T08:04:02Z</time>
      </trkpt>
      <trkpt lat="47.32345" lon="6.36317">
        <ele>284.96</ele>
        <time>2015-10-03T08:04:03Z</time>
      </trkpt>
      <trkpt lat="47.32344" lon="6.36323">
        <ele>284.946</ele>
        <time>2015-10-03T08:04:04Z</time>
      </trkpt>
      <trkpt lat="47.32343" lon="6.36329">
        <ele>284.983</ele>
        <time>2015-10-03T08:04:05Z</time>
      </trkpt>
      <trkpt lat="47.32342" lon="6.36336">
        <ele>284.954</ele>
        <time>2015-10-03T08:04:06Z</time>
      </trkpt>
      <trkpt lat="47.32341" lon="6.36342">
        <ele>285.159</ele>
        <time>2015-10-03T08:04:07Z</time>
      </trkpt>
      <trkpt lat="47.32341" lon="6.36349">
        <ele>285.653</ele>
        <time>2015-10-03T08:04:08Z</time>
      </trkpt>
      <trkpt lat="47.3234" lon="6.36356">
        <ele>286.185</ele>
        <time>2015-10-03T08:04:09Z</time>
      </trkpt>
      <trkpt lat="47.32339" lon="6.36362">
        <ele>286.125</ele>
        <time>2015-10-03T08:04:10Z</time>
      </trkpt>
      <trkpt lat="47.32339" lon="6.36368">
        <ele>285.905</ele>
        <time>2015-10-03T08:04:11Z</time>
      </trkpt>
      <trkpt lat="47.32339" lon="6.36374">
        <ele>285.718</ele>
        <time>2015-10-03T08:04:12Z</time>
      </trkpt>
      <trkpt lat="47.32339" lon="6.36381">
        <ele>285.356</ele>
        <time>2015-10-03T08:04:13Z</time>
      </trkpt>
      <trkpt lat="47.3234" lon="6.36388">
        <ele>284.91</ele>
        <time>2015-10-03T08:04:14Z</time>
      </trkpt>
      <trkpt lat="47.3234" lon="6.36395">
        <ele>284.594</ele>
        <time>2015-10-03T08:04:15Z</time>
      </trkpt>
      <trkpt lat="47.32341" lon="6.36402">
        <ele>284.489</ele>
        <time>2015-10-03T08:04:16Z</time>
      </trkpt>
      <trkpt lat="47.32341" lon="6.36409">
        <ele>283.957</ele>
        <time>2015-10-03T08:04:17Z</time>
      </trkpt>
      <trkpt lat="47.32342" lon="6.36416">
        <ele>283.277</ele>
        <time>2015-10-03T08:04:18Z</time>
      </trkpt>
      <trkpt lat="47.32343" lon="6.36422">
        <ele>282.792</ele>
        <time>2015-10-03T08:04:19Z</time>
      </trkpt>
      <trkpt lat="47.32344" lon="6.36429">
        <ele>282.132</ele>
        <time>2015-10-03T08:04:20Z</time>
      </trkpt>
      <trkpt lat="47.32346" lon="6.36435">
        <ele>282.042</ele>
        <time>2015-10-03T08:04:21Z</time>
      </trkpt>
      <trkpt lat="47.32347" lon="6.36441">
        <ele>281.616</ele>
        <time>2015-10-03T08:04:22Z</time>
      </trkpt>
      <trkpt lat="47.32348" lon="6.36447">
        <ele>281.533</ele>
        <time>2015-10-03T08:04:23Z</time>
      </trkpt>
      <trkpt lat="47.3235" lon="6.36453">
        <ele>281.37</ele>
        <time>2015-10-03T08:04:24Z</time>
      </trkpt>
      <trkpt lat="47.32351" lon="6.36458">
        <ele>280.896</ele>
        <time>2015-10-03T08:04:25Z</time>
      </trkpt>
      <trkpt lat="47.32352" lon="6.36463">
        <ele>280.969</ele>
        <time>2015-10-03T08:04:26Z</time>
      </trkpt>
      <trkpt lat="47.32353" lon="6.36468">
        <ele>280.812</ele>
        <time>2015-10-03T08:04:27Z</time>
      </trkpt>
      <trkpt lat="47.32354" lon="6.36472">
        <ele>280.889</ele>
        <time>2015-10-03T08:04:28Z</time>
      </trkpt>
      <trkpt lat="47.32355" lon="6.36477">
        <ele>281.191</ele>
        <time>2015-10-03T08:04:29Z</time>
      </trkpt>
      <trkpt lat="47.32356" lon="6.36482">
        <ele>281.484</ele>
        <time>2015-10-03T08:04:30Z</time>
      </trkpt>
      <trkpt lat="47.32357" lon="6.36487">
        <ele>281.519</ele>
        <time>2015-10-03T08:04:31Z</time>
      </trkpt>
      <trkpt lat="47.32358" lon="6.36492">
        <ele>281.392</ele>
        <time>2015-10-03T08:04:32Z</time>
      </trkpt>
      <trkpt lat="47.32359" lon="6.36498">
        <ele>281.378</ele>
        <time>2015-10-03T08:04:33Z</time>
      </trkpt>
      <trkpt lat="47.3236" lon="6.36503">
        <ele>281.484</ele>
        <time>2015-10-03T08:04:34Z</time>
      </trkpt>
      <trkpt lat="47.32361" lon="6.36508">
        <ele>281.464</ele>
        <time>2015-10-03T08:04:35Z</time>
      </trkpt>
      <trkpt lat="47.32363" lon="6.36513">
        <ele>281.278</ele>
        <time>2015-10-03T08:04:36Z</time>
      </trkpt>
      <trkpt lat="47.32365" lon="6.36517">
        <ele>281.107</ele>
        <time>2015-10-03T08:04:37Z</time>
      </trkpt>
      <trkpt lat="47.32371" lon="6.36519">
        <ele>280.965</ele>
        <time>2015-10-03T08:04:38Z</time>
      </trkpt>
      <trkpt lat="47.32376" lon="6.36524">
        <ele>280.702</ele>
        <time>2015-10-03T08:04:39Z</time>
      </trkpt>
      <trkpt lat="47.32379" lon="6.36528">
        <ele>280.265</ele>
        <time>2015-10-03T08:04:40Z</time>
      </trkpt>
      <trkpt lat="47.32383" lon="6.36533">
        <ele>280.322</ele>
        <time>2015-10-03T08:04:41Z</time>
      </trkpt>
      <trkpt lat="47.32386" lon="6.36538">
        <ele>279.725</ele>
        <time>2015-10-03T08:04:42Z</time>
      </trkpt>
      <trkpt lat="47.3239" lon="6.36543">
        <ele>279.588</ele>
        <time>2015-10-03T08:04:43Z</time>
      </trkpt>
      <trkpt lat="47.32394" lon="6.36547">
        <ele>279.254</ele>
        <time>2015-10-03T08:04:44Z</time>
      </trkpt>
      <trkpt lat="47.32396" lon="6.36552">
        <ele>278.807</ele>
        <time>2015-10-03T08:04:45Z</time>
      </trkpt>
      <trkpt lat="47.324" lon="6.36556">
        <ele>278.481</ele>
        <time>2015-10-03T08:04:46Z</time>
      </trkpt>
      <trkpt lat="47.32404" lon="6.36559">
        <ele>278.673</ele>
        <time>2015-10-03T08:04:47Z</time>
      </trkpt>
      <trkpt lat="47.32408" lon="6.36564">
        <ele>278.104</ele>
        <time>2015-10-03T08:04:48Z</time>
      </trkpt>
      <trkpt lat="47.32411" lon="6.36568">
        <ele>278.731</ele>
        <time>2015-10-03T08:04:49Z</time>
      </trkpt>
      <trkpt lat="47.32415" lon="6.36573">
        <ele>278.358</ele>
        <time>2015-10-03T08:04:50Z</time>
      </trkpt>
      <trkpt lat="47.32418" lon="6.36577">
        <ele>277.893</ele>
        <time>2015-10-03T08:04:51Z</time>
      </trkpt>
      <trkpt lat="47.32423" lon="6.36582">
        <ele>277.938</ele>
        <time>2015-10-03T08:04:52Z</time>
      </trkpt>
      <trkpt lat="47.32426" lon="6.36586">
        <ele>277.863</ele>
        <time>2015-10-03T08:04:53Z</time>
      </trkpt>
      <trkpt lat="47.32429" lon="6.3659">
        <ele>277.621</ele>
        <time>2015-10-03T08:04:54Z</time>
      </trkpt>
      <trkpt lat="47.32433" lon="6.36595">
        <ele>277.586</ele>
        <time>2015-10-03T08:04:55Z</time>
      </trkpt>
      <trkpt lat="47.32436" lon="6.36598">
        <ele>277.426</ele>
        <time>2015-10-03T08:04:56Z</time>
      </trkpt>
      <trkpt lat="47.32439" lon="6.36602">
        <ele>277.098</ele>
        <time>2015-10-03T08:04:57Z</time>
      </trkpt>
      <trkpt lat="47.32443" lon="6.36607">
        <ele>277.734</ele>
        <time>2015-10-03T08:04:58Z</time>
      </trkpt>
      <trkpt lat="47.32445" lon="6.36609">
        <ele>277.985</ele>
        <time>2015-10-03T08:04:59Z</time>
      </trkpt>
      <trkpt lat="47.32448" lon="6.36612">
        <ele>278.041</ele>
        <time>2015-10-03T08:05:00Z</time>
      </trkpt>
      <trkpt lat="47.3245" lon="6.36615">
        <ele>278.11</ele>
        <time>2015-10-03T08:05:01Z</time>
      </trkpt>
      <trkpt lat="47.32453" lon="6.36619">
        <ele>277.558</ele>
        <time>2015-10-03T08:05:02Z</time>
      </trkpt>
      <trkpt lat="47.32456" lon="6.36622">
        <ele>277.546</ele>
        <time>2015-10-03T08:05:03Z</time>
      </trkpt>
      <trkpt lat="47.32459" lon="6.36626">
        <ele>277.477</ele>
        <time>2015-10-03T08:05:04Z</time>
      </trkpt>
      <trkpt lat="47.32462" lon="6.3663">
        <ele>277.401</ele>
        <time>2015-10-03T08:05:05Z</time>
      </trkpt>
      <trkpt lat="47.32465" lon="6.36634">
        <ele>277.166</ele>
        <time>2015-10-03T08:05:06Z</time>
      </trkpt>
      <trkpt lat="47.32469" lon="6.36638">
        <ele>277.102</ele>
        <time>2015-10-03T08:05:07Z</time>
      </trkpt>
      <trkpt lat="47.32471" lon="6.36641">
        <ele>276.619</ele>
        <time>2015-10-03T08:05:08Z</time>
      </trkpt>
      <trkpt lat="47.32474" lon="6.36645">
        <ele>276.357</ele>
        <time>2015-10-03T08:05:09Z</time>
      </trkpt>
      <trkpt lat="47.32477" lon="6.36649">
        <ele>276.155</ele>
        <time>2015-10-03T08:05:10Z</time>
      </trkpt>
      <trkpt lat="47.3248" lon="6.36652">
        <ele>276.21</ele>
        <time>2015-10-03T08:05:11Z</time>
      </trkpt>
      <trkpt lat="47.32483" lon="6.36656">
        <ele>275.995</ele>
        <time>2015-10-03T08:05:12Z</time>
      </trkpt>
      <trkpt lat="47.32486" lon="6.36659">
        <ele>276.007</ele>
        <time>2015-10-03T08:05:13Z</time>
      </trkpt>
      <trkpt lat="47.32489" lon="6.36663">
        <ele>275.811</ele>
        <time>2015-10-03T08:05:14Z</time>
      </trkpt>
      <trkpt lat="47.32491" lon="6.36666">
        <ele>276.228</ele>
        <time>2015-10-03T08:05:15Z</time>
      </trkpt>
      <trkpt lat="47.32495" lon="6.36668">
        <ele>274.999</ele>
        <time>2015-10-03T08:05:16Z</time>
      </trkpt>
      <trkpt lat="47.32498" lon="6.36668">
        <ele>276.8</ele>
        <time>2015-10-03T08:05:17Z</time>
      </trkpt>
      <trkpt lat="47.32501" lon="6.36667">
        <ele>276.717</ele>
        <time>2015-10-03T08:05:18Z</time>
      </trkpt>
      <trkpt lat="47.32503" lon="6.36665">
        <ele>276.908</ele>
        <time>2015-10-03T08:05:19Z</time>
      </trkpt>
      <trkpt lat="47.32506" lon="6.36663">
        <ele>276.792</ele>
        <time>2015-10-03T08:05:20Z</time>
      </trkpt>
      <trkpt lat="47.32507" lon="6.36661">
        <ele>277.219</ele>
        <time>2015-10-03T08:05:21Z</time>
      </trkpt>
      <trkpt lat="47.32509" lon="6.36658">
        <ele>277.457</ele>
        <time>2015-10-03T08:05:22Z</time>
      </trkpt>
      <trkpt lat="47.32511" lon="6.36656">
        <ele>278.219</ele>
        <time>2015-10-03T08:05:23Z</time>
      </trkpt>
      <trkpt lat="47.32513" lon="6.36653">
        <ele>278.681</ele>
        <time>2015-10-03T08:05:24Z</time>
      </trkpt>
      <trkpt lat="47.32515" lon="6.36651">
        <ele>278.995</ele>
        <time>2015-10-03T08:05:25Z</time>
      </trkpt>
      <trkpt lat="47.32517" lon="6.36648">
        <ele>279.059</ele>
        <time>2015-10-03T08:05:26Z</time>
      </trkpt>
      <trkpt lat="47.32519" lon="6.36644">
        <ele>279.503</ele>
        <time>2015-10-03T08:05:27Z</time>
      </trkpt>
      <trkpt lat="47.32522" lon="6.36641">
        <ele>279.959</ele>
        <time>2015-10-03T08:05:28Z</time>
      </trkpt>
      <trkpt lat="47.32524" lon="6.36638">
        <ele>280.422</ele>
        <time>2015-10-03T08:05:29Z</time>
      </trkpt>
      <trkpt lat="47.32527" lon="6.36637">
        <ele>280.775</ele>
        <time>2015-10-03T08:05:30Z</time>
      </trkpt>
      <trkpt lat="47.3253" lon="6.36636">
        <ele>281.008</ele>
        <time>2015-10-03T08:05:31Z</time>
      </trkpt>
      <trkpt lat="47.32533" lon="6.36635">
        <ele>281.487</ele>
        <time>2015-10-03T08:05:32Z</time>
      </trkpt>
      <trkpt lat="47.32536" lon="6.36635">
        <ele>281.709</ele>
        <time>2015-10-03T08:05:33Z</time>
      </trkpt>
      <trkpt lat="47.32539" lon="6.36635">
        <ele>281.822</ele>
        <time>2015-10-03T08:05:34Z</time>
      </trkpt>
      <trkpt lat="47.32541" lon="6.36636">
        <ele>282.14</ele>
        <time>2015-10-03T08:05:35Z</time>
      </trkpt>
      <trkpt lat="47.32544" lon="6.36637">
        <ele>282.322</ele>
        <time>2015-10-03T08:05:36Z</time>
      </trkpt>
      <trkpt lat="47.32546" lon="6.36638">
        <ele>282.474</ele>
        <time>2015-10-03T08:05:37Z</time>
      </trkpt>
      <trkpt lat="47.32548" lon="6.3664">
        <ele>282.347</ele>
        <time>2015-10-03T08:05:38Z</time>
      </trkpt>
      <trkpt lat="47.32551" lon="6.36642">
        <ele>282.486</ele>
        <time>2015-10-03T08:05:39Z</time>
      </trkpt>
      <trkpt lat="47.32553" lon="6.36645">
        <ele>282.7</ele>
        <time>2015-10-03T08:05:40Z</time>
      </trkpt>
      <trkpt lat="47.32555" lon="6.36648">
        <ele>282.875</ele>
        <time>2015-10-03T08:05:41Z</time>
      </trkpt>
      <trkpt lat="47.32557" lon="6.36652">
        <ele>283</ele>
        <time>2015-10-03T08:05:42Z</time>
      </trkpt>
      <trkpt lat="47.32559" lon="6.36656">
        <ele>282.983</ele>
        <time>2015-10-03T08:05:43Z</time>
      </trkpt>
      <trkpt lat="47.32561" lon="6.36661">
        <ele>282.726</ele>
        <time>2015-10-03T08:05:44Z</time>
      </trkpt>
      <trkpt lat="47.32563" lon="6.36665">
        <ele>283.154</ele>
        <time>2015-10-03T08:05:45Z</time>
      </trkpt>
      <trkpt lat="47.32564" lon="6.3667">
        <ele>283.233</ele>
        <time>2015-10-03T08:05:46Z</time>
      </trkpt>
      <trkpt lat="47.32565" lon="6.36674">
        <ele>283.126</ele>
        <time>2015-10-03T08:05:47Z</time>
      </trkpt>
      <trkpt lat="47.32566" lon="6.3668">
        <ele>283.031</ele>
        <time>2015-10-03T08:05:48Z</time>
      </trkpt>
      <trkpt lat="47.32568" lon="6.36685">
        <ele>283.138</ele>
        <time>2015-10-03T08:05:49Z</time>
      </trkpt>
      <trkpt lat="47.32569" lon="6.36691">
        <ele>283.515</ele>
        <time>2015-10-03T08:05:50Z</time>
      </trkpt>
      <trkpt lat="47.3257" lon="6.36696">
        <ele>283.276</ele>
        <time>2015-10-03T08:05:51Z</time>
      </trkpt>
      <trkpt lat="47.32571" lon="6.36701">
        <ele>283.288</ele>
        <time>2015-10-03T08:05:52Z</time>
      </trkpt>
      <trkpt lat="47.32573" lon="6.36706">
        <ele>283.452</ele>
        <time>2015-10-03T08:05:53Z</time>
      </trkpt>
      <trkpt lat="47.32574" lon="6.3671">
        <ele>283.51</ele>
        <time>2015-10-03T08:05:54Z</time>
      </trkpt>
      <trkpt lat="47.32574" lon="6.36714">
        <ele>283.578</ele>
        <time>2015-10-03T08:05:55Z</time>
      </trkpt>
      <trkpt lat="47.32575" lon="6.36719">
        <ele>283.583</ele>
        <time>2015-10-03T08:05:56Z</time>
      </trkpt>
      <trkpt lat="47.32575" lon="6.36724">
        <ele>283.616</ele>
        <time>2015-10-03T08:05:57Z</time>
      </trkpt>
      <trkpt lat="47.32575" lon="6.36729">
        <ele>283.633</ele>
        <time>2015-10-03T08:05:58Z</time>
      </trkpt>
      <trkpt lat="47.32575" lon="6.36734">
        <ele>283.745</ele>
        <time>2015-10-03T08:05:59Z</time>
      </trkpt>
      <trkpt lat="47.32576" lon="6.36739">
        <ele>283.762</ele>
        <time>2015-10-03T08:06:00Z</time>
      </trkpt>
      <trkpt lat="47.32576" lon="6.36744">
        <ele>283.551</ele>
        <time>2015-10-03T08:06:01Z</time>
      </trkpt>
      <trkpt lat="47.32577" lon="6.36749">
        <ele>283.566</ele>
        <time>2015-10-03T08:06:02Z</time>
      </trkpt>
      <trkpt lat="47.32577" lon="6.36755">
        <ele>283.787</ele>
        <time>2015-10-03T08:06:03Z</time>
      </trkpt>
      <trkpt lat="47.32577" lon="6.3676">
        <ele>283.825</ele>
        <time>2015-10-03T08:06:04Z</time>
      </trkpt>
      <trkpt lat="47.32577" lon="6.36766">
        <ele>284.467</ele>
        <time>2015-10-03T08:06:05Z</time>
      </trkpt>
      <trkpt lat="47.32577" lon="6.36771">
        <ele>285.036</ele>
        <time>2015-10-03T08:06:06Z</time>
      </trkpt>
      <trkpt lat="47.32577" lon="6.36777">
        <ele>285.078</ele>
        <time>2015-10-03T08:06:07Z</time>
      </trkpt>
      <trkpt lat="47.32577" lon="6.36781">
        <ele>285.118</ele>
        <time>2015-10-03T08:06:08Z</time>
      </trkpt>
      <trkpt lat="47.32577" lon="6.36786">
        <ele>284.852</ele>
        <time>2015-10-03T08:06:09Z</time>
      </trkpt>
      <trkpt lat="47.32577" lon="6.36791">
        <ele>284.768</ele>
        <time>2015-10-03T08:06:10Z</time>
      </trkpt>
      <trkpt lat="47.32576" lon="6.36795">
        <ele>285.831</ele>
        <time>2015-10-03T08:06:11Z</time>
      </trkpt>
      <trkpt lat="47.32575" lon="6.368">
        <ele>285.907</ele>
        <time>2015-10-03T08:06:12Z</time>
      </trkpt>
      <trkpt lat="47.32574" lon="6.36805">
        <ele>285.324</ele>
        <time>2015-10-03T08:06:13Z</time>
      </trkpt>
      <trkpt lat="47.32574" lon="6.3681">
        <ele>285.408</ele>
        <time>2015-10-03T08:06:14Z</time>
      </trkpt>
      <trkpt lat="47.32573" lon="6.36814">
        <ele>285.399</ele>
        <time>2015-10-03T08:06:15Z</time>
      </trkpt>
      <trkpt lat="47.32572" lon="6.36818">
        <ele>285.384</ele>
        <time>2015-10-03T08:06:16Z</time>
      </trkpt>
      <trkpt lat="47.3257" lon="6.36822">
        <ele>285.321</ele>
        <time>2015-10-03T08:06:17Z</time>
      </trkpt>
      <trkpt lat="47.32569" lon="6.36825">
        <ele>285.44</ele>
        <time>2015-10-03T08:06:18Z</time>
      </trkpt>
      <trkpt lat="47.32568" lon="6.3683">
        <ele>285.769</ele>
        <time>2015-10-03T08:06:19Z</time>
      </trkpt>
      <trkpt lat="47.32567" lon="6.36834">
        <ele>285.416</ele>
        <time>2015-10-03T08:06:20Z</time>
      </trkpt>
      <trkpt lat="47.32566" lon="6.36838">
        <ele>286.142</ele>
        <time>2015-10-03T08:06:21Z</time>
      </trkpt>
      <trkpt lat="47.32565" lon="6.36842">
        <ele>285.482</ele>
        <time>2015-10-03T08:06:22Z</time>
      </trkpt>
      <trkpt lat="47.32564" lon="6.36846">
        <ele>285.417</ele>
        <time>2015-10-03T08:06:23Z</time>
      </trkpt>
      <trkpt lat="47.32563" lon="6.3685">
        <ele>285.89</ele>
        <time>2015-10-03T08:06:24Z</time>
      </trkpt>
      <trkpt lat="47.32563" lon="6.36854">
        <ele>285.694</ele>
        <time>2015-10-03T08:06:25Z</time>
      </trkpt>
      <trkpt lat="47.32563" lon="6.36859">
        <ele>285.964</ele>
        <time>2015-10-03T08:06:26Z</time>
      </trkpt>
      <trkpt lat="47.32564" lon="6.36863">
        <ele>285.898</ele>
        <time>2015-10-03T08:06:27Z</time>
      </trkpt>
      <trkpt lat="47.32564" lon="6.36868">
        <ele>286.213</ele>
        <time>2015-10-03T08:06:28Z</time>
      </trkpt>
      <trkpt lat="47.32565" lon="6.36873">
        <ele>286.649</ele>
        <time>2015-10-03T08:06:29Z</time>
      </trkpt>
      <trkpt lat="47.32566" lon="6.36877">
        <ele>286.785</ele>
        <time>2015-10-03T08:06:30Z</time>
      </trkpt>
      <trkpt lat="47.32567" lon="6.36882">
        <ele>287.824</ele>
        <time>2015-10-03T08:06:31Z</time>
      </trkpt>
      <trkpt lat="47.32568" lon="6.36886">
        <ele>288.121</ele>
        <time>2015-10-03T08:06:32Z</time>
      </trkpt>
      <trkpt lat="47.3257" lon="6.36891">
        <ele>288.384</ele>
        <time>2015-10-03T08:06:33Z</time>
      </trkpt>
      <trkpt lat="47.32571" lon="6.36895">
        <ele>288.654</ele>
        <time>2015-10-03T08:06:34Z</time>
      </trkpt>
      <trkpt lat="47.32573" lon="6.36899">
        <ele>288.388</ele>
        <time>2015-10-03T08:06:35Z</time>
      </trkpt>
      <trkpt lat="47.32574" lon="6.36903">
        <ele>288.621</ele>
        <time>2015-10-03T08:06:36Z</time>
      </trkpt>
      <trkpt lat="47.32576" lon="6.36907">
        <ele>289.035</ele>
        <time>2015-10-03T08:06:37Z</time>
      </trkpt>
      <trkpt lat="47.32577" lon="6.3691">
        <ele>289.215</ele>
        <time>2015-10-03T08:06:38Z</time>
      </trkpt>
      <trkpt lat="47.32579" lon="6.36914">
        <ele>288.802</ele>
        <time>2015-10-03T08:06:39Z</time>
      </trkpt>
      <trkpt lat="47.32581" lon="6.36917">
        <ele>288.427</ele>
        <time>2015-10-03T08:06:40Z</time>
      </trkpt>
      <trkpt lat="47.32583" lon="6.36921">
        <ele>288.728</ele>
        <time>2015-10-03T08:06:41Z</time>
      </trkpt>
      <trkpt lat="47.32584" lon="6.36925">
        <ele>288.486</ele>
        <time>2015-10-03T08:06:42Z</time>
      </trkpt>
      <trkpt lat="47.32586" lon="6.36928">
        <ele>288.576</ele>
        <time>2015-10-03T08:06:43Z</time>
      </trkpt>
      <trkpt lat="47.32587" lon="6.36932">
        <ele>288.563</ele>
        <time>2015-10-03T08:06:44Z</time>
      </trkpt>
      <trkpt lat="47.32589" lon="6.36936">
        <ele>288.433</ele>
        <time>2015-10-03T08:06:45Z</time>
      </trkpt>
      <trkpt lat="47.3259" lon="6.36939">
        <ele>288.391</ele>
        <time>2015-10-03T08:06:46Z</time>
      </trkpt>
      <trkpt lat="47.32592" lon="6.36943">
        <ele>288.017</ele>
        <time>2015-10-03T08:06:47Z</time>
      </trkpt>
      <trkpt lat="47.32593" lon="6.36948">
        <ele>287.383</ele>
        <time>2015-10-03T08:06:48Z</time>
      </trkpt>
      <trkpt lat="47.32595" lon="6.36952">
        <ele>286.765</ele>
        <time>2015-10-03T08:06:49Z</time>
      </trkpt>
      <trkpt lat="47.32596" lon="6.36956">
        <ele>287.01</ele>
        <time>2015-10-03T08:06:50Z</time>
      </trkpt>
      <trkpt lat="47.32598" lon="6.36959">
        <ele>286.996</ele>
        <time>2015-10-03T08:06:51Z</time>
      </trkpt>
      <trkpt lat="47.326" lon="6.36963">
        <ele>288.312</ele>
        <time>2015-10-03T08:06:52Z</time>
      </trkpt>
      <trkpt lat="47.32601" lon="6.36966">
        <ele>288.019</ele>
        <time>2015-10-03T08:06:53Z</time>
      </trkpt>
      <trkpt lat="47.32603" lon="6.3697">
        <ele>288.584</ele>
        <time>2015-10-03T08:06:54Z</time>
      </trkpt>
      <trkpt lat="47.32604" lon="6.36974">
        <ele>288.633</ele>
        <time>2015-10-03T08:06:55Z</time>
      </trkpt>
      <trkpt lat="47.32605" lon="6.36978">
        <ele>287.913</ele>
        <time>2015-10-03T08:06:56Z</time>
      </trkpt>
      <trkpt lat="47.32607" lon="6.36982">
        <ele>288.146</ele>
        <time>2015-10-03T08:06:57Z</time>
      </trkpt>
      <trkpt lat="47.32608" lon="6.36986">
        <ele>287.812</ele>
        <time>2015-10-03T08:06:58Z</time>
      </trkpt>
      <trkpt lat="47.32609" lon="6.36989">
        <ele>288.709</ele>
        <time>2015-10-03T08:06:59Z</time>
      </trkpt>
      <trkpt lat="47.3261" lon="6.36992">
        <ele>289.003</ele>
        <time>2015-10-03T08:07:00Z</time>
      </trkpt>
      <trkpt lat="47.32611" lon="6.36995">
        <ele>288.996</ele>
        <time>2015-10-03T08:07:01Z</time>
      </trkpt>
      <trkpt lat="47.32612" lon="6.36998">
        <ele>289.705</ele>
        <time>2015-10-03T08:07:02Z</time>
      </trkpt>
      <trkpt lat="47.32613" lon="6.37001">
        <ele>289.916</ele>
        <time>2015-10-03T08:07:03Z</time>
      </trkpt>
      <trkpt lat="47.32614" lon="6.37004">
        <ele>290.056</ele>
        <time>2015-10-03T08:07:04Z</time>
      </trkpt>
      <trkpt lat="47.32615" lon="6.37007">
        <ele>289.902</ele>
        <time>2015-10-03T08:07:05Z</time>
      </trkpt>
      <trkpt lat="47.32616" lon="6.3701">
        <ele>290.005</ele>
        <time>2015-10-03T08:07:06Z</time>
      </trkpt>
      <trkpt lat="47.32617" lon="6.37013">
        <ele>290.264</ele>
        <time>2015-10-03T08:07:07Z</time>
      </trkpt>
      <trkpt lat="47.32618" lon="6.37016">
        <ele>289.72</ele>
        <time>2015-10-03T08:07:08Z</time>
      </trkpt>
      <trkpt lat="47.32619" lon="6.3702">
        <ele>290.285</ele>
        <time>2015-10-03T08:07:09Z</time>
      </trkpt>
      <trkpt lat="47.32621" lon="6.37023">
        <ele>290.337</ele>
        <time>2015-10-03T08:07:10Z</time>
      </trkpt>
      <trkpt lat="47.32622" lon="6.37026">
        <ele>289.916</ele>
        <time>2015-10-03T08:07:11Z</time>
      </trkpt>
      <trkpt lat="47.32624" lon="6.3703">
        <ele>289.801</ele>
        <time>2015-10-03T08:07:12Z</time>
      </trkpt>
      <trkpt lat="47.32625" lon="6.37032">
        <ele>289.029</ele>
        <time>2015-10-03T08:07:13Z</time>
      </trkpt>
      <trkpt lat="47.32626" lon="6.37035">
        <ele>289.368</ele>
        <time>2015-10-03T08:07:14Z</time>
      </trkpt>
      <trkpt lat="47.32627" lon="6.37038">
        <ele>289.176</ele>
        <time>2015-10-03T08:07:15Z</time>
      </trkpt>
      <trkpt lat="47.32628" lon="6.37041">
        <ele>289.976</ele>
        <time>2015-10-03T08:07:16Z</time>
      </trkpt>
      <trkpt lat="47.32629" lon="6.37044">
        <ele>289.332</ele>
        <time>2015-10-03T08:07:17Z</time>
      </trkpt>
      <trkpt lat="47.3263" lon="6.37047">
        <ele>290.435</ele>
        <time>2015-10-03T08:07:18Z</time>
      </trkpt>
      <trkpt lat="47.32631" lon="6.3705">
        <ele>290.563</ele>
        <time>2015-10-03T08:07:19Z</time>
      </trkpt>
      <trkpt lat="47.32633" lon="6.37053">
        <ele>288.779</ele>
        <time>2015-10-03T08:07:20Z</time>
      </trkpt>
      <trkpt lat="47.32634" lon="6.37057">
        <ele>289.279</ele>
        <time>2015-10-03T08:07:21Z</time>
      </trkpt>
      <trkpt lat="47.32636" lon="6.3706">
        <ele>289.676</ele>
        <time>2015-10-03T08:07:22Z</time>
      </trkpt>
      <trkpt lat="47.32637" lon="6.37063">
        <ele>289.887</ele>
        <time>2015-10-03T08:07:23Z</time>
      </trkpt>
      <trkpt lat="47.32638" lon="6.37067">
        <ele>290.374</ele>
        <time>2015-10-03T08:07:24Z</time>
      </trkpt>
      <trkpt lat="47.32638" lon="6.3707">
        <ele>291.061</ele>
        <time>2015-10-03T08:07:25Z</time>
      </trkpt>
      <trkpt lat="47.32639" lon="6.37073">
        <ele>290.659</ele>
        <time>2015-10-03T08:07:26Z</time>
      </trkpt>
      <trkpt lat="47.3264" lon="6.37076">
        <ele>290.395</ele>
        <time>2015-10-03T08:07:27Z</time>
      </trkpt>
      <trkpt lat="47.32641" lon="6.37079">
        <ele>291.065</ele>
        <time>2015-10-03T08:07:28Z</time>
      </trkpt>
      <trkpt lat="47.32642" lon="6.37082">
        <ele>291.463</ele>
        <time>2015-10-03T08:07:29Z</time>
      </trkpt>
      <trkpt lat="47.32643" lon="6.37086">
        <ele>291.682</ele>
        <time>2015-10-03T08:07:30Z</time>
      </trkpt>
      <trkpt lat="47.32644" lon="6.37089">
        <ele>291.793</ele>
        <time>2015-10-03T08:07:31Z</time>
      </trkpt>
      <trkpt lat="47.32645" lon="6.37092">
        <ele>292.118</ele>
        <time>2015-10-03T08:07:32Z</time>
      </trkpt>
      <trkpt lat="47.32646" lon="6.37096">
        <ele>292.331</ele>
        <time>2015-10-03T08:07:33Z</time>
      </trkpt>
      <trkpt lat="47.32647" lon="6.37099">
        <ele>292.72</ele>
        <time>2015-10-03T08:07:34Z</time>
      </trkpt>
      <trkpt lat="47.32648" lon="6.37103">
        <ele>293.684</ele>
        <time>2015-10-03T08:07:35Z</time>
      </trkpt>
      <trkpt lat="47.32649" lon="6.37106">
        <ele>294.335</ele>
        <time>2015-10-03T08:07:36Z</time>
      </trkpt>
      <trkpt lat="47.3265" lon="6.37109">
        <ele>294.748</ele>
        <time>2015-10-03T08:07:37Z</time>
      </trkpt>
      <trkpt lat="47.32651" lon="6.37113">
        <ele>295.053</ele>
        <time>2015-10-03T08:07:38Z</time>
      </trkpt>
      <trkpt lat="47.32653" lon="6.37116">
        <ele>295.186</ele>
        <time>2015-10-03T08:07:39Z</time>
      </trkpt>
      <trkpt lat="47.32655" lon="6.37119">
        <ele>295.927</ele>
        <time>2015-10-03T08:07:40Z</time>
      </trkpt>
      <trkpt lat="47.32656" lon="6.37121">
        <ele>296.262</ele>
        <time>2015-10-03T08:07:41Z</time>
      </trkpt>
      <trkpt lat="47.32657" lon="6.37123">
        <ele>296.699</ele>
        <time>2015-10-03T08:07:42Z</time>
      </trkpt>
      <trkpt lat="47.32659" lon="6.37126">
        <ele>296.917</ele>
        <time>2015-10-03T08:07:43Z</time>
      </trkpt>
      <trkpt lat="47.3266" lon="6.37129">
        <ele>296.947</ele>
        <time>2015-10-03T08:07:44Z</time>
      </trkpt>
      <trkpt lat="47.32662" lon="6.37131">
        <ele>296.802</ele>
        <time>2015-10-03T08:07:45Z</time>
      </trkpt>
      <trkpt lat="47.32664" lon="6.37134">
        <ele>296.807</ele>
        <time>2015-10-03T08:07:46Z</time>
      </trkpt>
      <trkpt lat="47.32665" lon="6.37137">
        <ele>297.488</ele>
        <time>2015-10-03T08:07:47Z</time>
      </trkpt>
      <trkpt lat="47.32667" lon="6.3714">
        <ele>298.022</ele>
        <time>2015-10-03T08:07:48Z</time>
      </trkpt>
      <trkpt lat="47.32668" lon="6.37143">
        <ele>297.868</ele>
        <time>2015-10-03T08:07:49Z</time>
      </trkpt>
      <trkpt lat="47.3267" lon="6.37146">
        <ele>298.33</ele>
        <time>2015-10-03T08:07:50Z</time>
      </trkpt>
      <trkpt lat="47.32672" lon="6.37148">
        <ele>298.562</ele>
        <time>2015-10-03T08:07:51Z</time>
      </trkpt>
      <trkpt lat="47.32674" lon="6.3715">
        <ele>298.725</ele>
        <time>2015-10-03T08:07:52Z</time>
      </trkpt>
      <trkpt lat="47.32676" lon="6.37152">
        <ele>298.919</ele>
        <time>2015-10-03T08:07:53Z</time>
      </trkpt>
      <trkpt lat="47.32678" lon="6.37154">
        <ele>298.767</ele>
        <time>2015-10-03T08:07:54Z</time>
      </trkpt>
      <trkpt lat="47.3268" lon="6.37155">
        <ele>298.858</ele>
        <time>2015-10-03T08:07:55Z</time>
      </trkpt>
      <trkpt lat="47.32681" lon="6.37157">
        <ele>298.838</ele>
        <time>2015-10-03T08:07:56Z</time>
      </trkpt>
      <trkpt lat="47.32683" lon="6.37159">
        <ele>299.059</ele>
        <time>2015-10-03T08:07:57Z</time>
      </trkpt>
      <trkpt lat="47.32684" lon="6.3716">
        <ele>299.498</ele>
        <time>2015-10-03T08:07:58Z</time>
      </trkpt>
      <trkpt lat="47.32685" lon="6.37161">
        <ele>299.453</ele>
        <time>2015-10-03T08:07:59Z</time>
      </trkpt>
      <trkpt lat="47.32686" lon="6.37161">
        <ele>299.378</ele>
        <time>2015-10-03T08:08:00Z</time>
      </trkpt>
      <trkpt lat="47.32687" lon="6.37162">
        <ele>299.526</ele>
        <time>2015-10-03T08:08:02Z</time>
      </trkpt>
      <trkpt lat="47.32686" lon="6.37163">
        <ele>300.394</ele>
        <time>2015-10-03T08:08:10Z</time>
      </trkpt>
      <trkpt lat="47.32686" lon="6.37164">
        <ele>299.654</ele>
        <time>2015-10-03T08:08:16Z</time>
      </trkpt>
      <trkpt lat="47.32686" lon="6.37167">
        <ele>298.787</ele>
        <time>2015-10-03T08:08:23Z</time>
      </trkpt>
      <trkpt lat="47.32687" lon="6.3717">
        <ele>297.831</ele>
        <time>2015-10-03T08:08:31Z</time>
      </trkpt>
      <trkpt lat="47.32688" lon="6.3717">
        <ele>297.269</ele>
        <time>2015-10-03T08:08:35Z</time>
      </trkpt>
      <trkpt lat="47.32688" lon="6.37168">
        <ele>299.589</ele>
        <time>2015-10-03T08:08:43Z</time>
      </trkpt>
      <trkpt lat="47.32687" lon="6.37166">
        <ele>299.883</ele>
        <time>2015-10-03T08:08:44Z</time>
      </trkpt>
      <trkpt lat="47.32686" lon="6.37165">
        <ele>299.587</ele>
        <time>2015-10-03T08:08:45Z</time>
      </trkpt>
      <trkpt lat="47.32686" lon="6.37164">
        <ele>299.72</ele>
        <time>2015-10-03T08:08:47Z</time>
      </trkpt>
      <trkpt lat="47.32684" lon="6.37161">
        <ele>298.44</ele>
        <time>2015-10-03T08:08:53Z</time>
      </trkpt>
      <trkpt lat="47.32686" lon="6.37163">
        <ele>298.007</ele>
        <time>2015-10-03T08:08:59Z</time>
      </trkpt>
      <trkpt lat="47.32689" lon="6.37165">
        <ele>299.008</ele>
        <time>2015-10-03T08:09:10Z</time>
      </trkpt>
      <trkpt lat="47.3269" lon="6.37166">
        <ele>299.591</ele>
        <time>2015-10-03T08:09:12Z</time>
      </trkpt>
      <trkpt lat="47.32691" lon="6.37167">
        <ele>299.267</ele>
        <time>2015-10-03T08:09:13Z</time>
      </trkpt>
      <trkpt lat="47.32693" lon="6.37167">
        <ele>299.502</ele>
        <time>2015-10-03T08:09:14Z</time>
      </trkpt>
      <trkpt lat="47.32694" lon="6.37168">
        <ele>299.643</ele>
        <time>2015-10-03T08:09:15Z</time>
      </trkpt>
      <trkpt lat="47.32696" lon="6.37169">
        <ele>299.793</ele>
        <time>2015-10-03T08:09:16Z</time>
      </trkpt>
      <trkpt lat="47.32697" lon="6.3717">
        <ele>299.647</ele>
        <time>2015-10-03T08:09:17Z</time>
      </trkpt>
      <trkpt lat="47.32699" lon="6.3717">
        <ele>300.269</ele>
        <time>2015-10-03T08:09:18Z</time>
      </trkpt>
      <trkpt lat="47.32701" lon="6.37172">
        <ele>300.352</ele>
        <time>2015-10-03T08:09:19Z</time>
      </trkpt>
      <trkpt lat="47.32704" lon="6.37173">
        <ele>300.419</ele>
        <time>2015-10-03T08:09:20Z</time>
      </trkpt>
      <trkpt lat="47.32706" lon="6.37174">
        <ele>299.571</ele>
        <time>2015-10-03T08:09:21Z</time>
      </trkpt>
      <trkpt lat="47.32709" lon="6.37176">
        <ele>299.534</ele>
        <time>2015-10-03T08:09:22Z</time>
      </trkpt>
      <trkpt lat="47.32712" lon="6.37177">
        <ele>298.959</ele>
        <time>2015-10-03T08:09:23Z</time>
      </trkpt>
      <trkpt lat="47.32715" lon="6.3718">
        <ele>299.391</ele>
        <time>2015-10-03T08:09:24Z</time>
      </trkpt>
      <trkpt lat="47.32719" lon="6.37182">
        <ele>299.625</ele>
        <time>2015-10-03T08:09:25Z</time>
      </trkpt>
      <trkpt lat="47.32723" lon="6.37184">
        <ele>298.808</ele>
        <time>2015-10-03T08:09:26Z</time>
      </trkpt>
      <trkpt lat="47.32727" lon="6.37186">
        <ele>298.43</ele>
        <time>2015-10-03T08:09:27Z</time>
      </trkpt>
      <trkpt lat="47.32732" lon="6.37189">
        <ele>298.543</ele>
        <time>2015-10-03T08:09:28Z</time>
      </trkpt>
      <trkpt lat="47.32737" lon="6.37191">
        <ele>298.795</ele>
        <time>2015-10-03T08:09:29Z</time>
      </trkpt>
      <trkpt lat="47.32741" lon="6.37193">
        <ele>297.839</ele>
        <time>2015-10-03T08:09:30Z</time>
      </trkpt>
      <trkpt lat="47.32744" lon="6.37195">
        <ele>296.775</ele>
        <time>2015-10-03T08:09:31Z</time>
      </trkpt>
      <trkpt lat="47.32747" lon="6.37199">
        <ele>297.379</ele>
        <time>2015-10-03T08:09:32Z</time>
      </trkpt>
      <trkpt lat="47.3275" lon="6.37202">
        <ele>297.682</ele>
        <time>2015-10-03T08:09:33Z</time>
      </trkpt>
      <trkpt lat="47.32754" lon="6.37205">
        <ele>298.507</ele>
        <time>2015-10-03T08:09:34Z</time>
      </trkpt>
      <trkpt lat="47.32756" lon="6.37208">
        <ele>298.205</ele>
        <time>2015-10-03T08:09:35Z</time>
      </trkpt>
      <trkpt lat="47.32759" lon="6.3721">
        <ele>297.584</ele>
        <time>2015-10-03T08:09:36Z</time>
      </trkpt>
      <trkpt lat="47.32763" lon="6.37214">
        <ele>297.708</ele>
        <time>2015-10-03T08:09:37Z</time>
      </trkpt>
      <trkpt lat="47.32766" lon="6.37217">
        <ele>297.775</ele>
        <time>2015-10-03T08:09:38Z</time>
      </trkpt>
      <trkpt lat="47.3277" lon="6.3722">
        <ele>297.709</ele>
        <time>2015-10-03T08:09:39Z</time>
      </trkpt>
      <trkpt lat="47.32772" lon="6.37222">
        <ele>296.79</ele>
        <time>2015-10-03T08:09:40Z</time>
      </trkpt>
      <trkpt lat="47.32775" lon="6.37226">
        <ele>296.83</ele>
        <time>2015-10-03T08:09:41Z</time>
      </trkpt>
      <trkpt lat="47.32779" lon="6.37229">
        <ele>297.36</ele>
        <time>2015-10-03T08:09:42Z</time>
      </trkpt>
      <trkpt lat="47.32782" lon="6.37233">
        <ele>300.008</ele>
        <time>2015-10-03T08:09:43Z</time>
      </trkpt>
      <trkpt lat="47.32784" lon="6.37237">
        <ele>300.973</ele>
        <time>2015-10-03T08:09:44Z</time>
      </trkpt>
      <trkpt lat="47.32786" lon="6.3724">
        <ele>300.98</ele>
        <time>2015-10-03T08:09:45Z</time>
      </trkpt>
      <trkpt lat="47.32789" lon="6.37244">
        <ele>300.945</ele>
        <time>2015-10-03T08:09:46Z</time>
      </trkpt>
      <trkpt lat="47.32791" lon="6.37247">
        <ele>300.715</ele>
        <time>2015-10-03T08:09:47Z</time>
      </trkpt>
      <trkpt lat="47.32794" lon="6.3725">
        <ele>300.346</ele>
        <time>2015-10-03T08:09:48Z</time>
      </trkpt>
      <trkpt lat="47.32797" lon="6.37254">
        <ele>301</ele>
        <time>2015-10-03T08:09:49Z</time>
      </trkpt>
      <trkpt lat="47.32799" lon="6.37258">
        <ele>298.305</ele>
        <time>2015-10-03T08:09:50Z</time>
      </trkpt>
      <trkpt lat="47.32802" lon="6.37262">
        <ele>299.314</ele>
        <time>2015-10-03T08:09:51Z</time>
      </trkpt>
      <trkpt lat="47.32804" lon="6.37266">
        <ele>300.342</ele>
        <time>2015-10-03T08:09:52Z</time>
      </trkpt>
      <trkpt lat="47.32807" lon="6.37271">
        <ele>300.373</ele>
        <time>2015-10-03T08:09:53Z</time>
      </trkpt>
      <trkpt lat="47.3281" lon="6.37275">
        <ele>300.687</ele>
        <time>2015-10-03T08:09:54Z</time>
      </trkpt>
      <trkpt lat="47.32813" lon="6.37279">
        <ele>300.468</ele>
        <time>2015-10-03T08:09:55Z</time>
      </trkpt>
      <trkpt lat="47.32816" lon="6.37283">
        <ele>300.615</ele>
        <time>2015-10-03T08:09:56Z</time>
      </trkpt>
      <trkpt lat="47.32819" lon="6.37287">
        <ele>300.615</ele>
        <time>2015-10-03T08:09:57Z</time>
      </trkpt>
      <trkpt lat="47.32822" lon="6.37291">
        <ele>300.374</ele>
        <time>2015-10-03T08:09:58Z</time>
      </trkpt>
      <trkpt lat="47.32827" lon="6.37292">
        <ele>300.615</ele>
        <time>2015-10-03T08:09:59Z</time>
      </trkpt>
      <trkpt lat="47.32832" lon="6.37295">
        <ele>299.804</ele>
        <time>2015-10-03T08:10:00Z</time>
      </trkpt>
      <trkpt lat="47.32837" lon="6.37297">
        <ele>299.639</ele>
        <time>2015-10-03T08:10:01Z</time>
      </trkpt>
      <trkpt lat="47.32841" lon="6.373">
        <ele>299.197</ele>
        <time>2015-10-03T08:10:02Z</time>
      </trkpt>
      <trkpt lat="47.32845" lon="6.37301">
        <ele>299.954</ele>
        <time>2015-10-03T08:10:03Z</time>
      </trkpt>
      <trkpt lat="47.32849" lon="6.37302">
        <ele>300.072</ele>
        <time>2015-10-03T08:10:04Z</time>
      </trkpt>
      <trkpt lat="47.32854" lon="6.37303">
        <ele>299.468</ele>
        <time>2015-10-03T08:10:05Z</time>
      </trkpt>
      <trkpt lat="47.32858" lon="6.37304">
        <ele>299.821</ele>
        <time>2015-10-03T08:10:06Z</time>
      </trkpt>
      <trkpt lat="47.32863" lon="6.37305">
        <ele>299.882</ele>
        <time>2015-10-03T08:10:07Z</time>
      </trkpt>
      <trkpt lat="47.32867" lon="6.37304">
        <ele>298.458</ele>
        <time>2015-10-03T08:10:08Z</time>
      </trkpt>
      <trkpt lat="47.32872" lon="6.37305">
        <ele>298.936</ele>
        <time>2015-10-03T08:10:09Z</time>
      </trkpt>
      <trkpt lat="47.32877" lon="6.37307">
        <ele>298.255</ele>
        <time>2015-10-03T08:10:10Z</time>
      </trkpt>
      <trkpt lat="47.32881" lon="6.37308">
        <ele>298.055</ele>
        <time>2015-10-03T08:10:11Z</time>
      </trkpt>
      <trkpt lat="47.32885" lon="6.37309">
        <ele>297.669</ele>
        <time>2015-10-03T08:10:12Z</time>
      </trkpt>
      <trkpt lat="47.32889" lon="6.37311">
        <ele>297.644</ele>
        <time>2015-10-03T08:10:13Z</time>
      </trkpt>
      <trkpt lat="47.32894" lon="6.37311">
        <ele>297.402</ele>
        <time>2015-10-03T08:10:14Z</time>
      </trkpt>
      <trkpt lat="47.32898" lon="6.37313">
        <ele>297.315</ele>
        <time>2015-10-03T08:10:15Z</time>
      </trkpt>
      <trkpt lat="47.32902" lon="6.37315">
        <ele>296.071</ele>
        <time>2015-10-03T08:10:16Z</time>
      </trkpt>
      <trkpt lat="47.32907" lon="6.37316">
        <ele>296.16</ele>
        <time>2015-10-03T08:10:17Z</time>
      </trkpt>
      <trkpt lat="47.32911" lon="6.37316">
        <ele>295.496</ele>
        <time>2015-10-03T08:10:18Z</time>
      </trkpt>
      <trkpt lat="47.32916" lon="6.37317">
        <ele>295.546</ele>
        <time>2015-10-03T08:10:19Z</time>
      </trkpt>
      <trkpt lat="47.32921" lon="6.37318">
        <ele>296.048</ele>
        <time>2015-10-03T08:10:20Z</time>
      </trkpt>
      <trkpt lat="47.32927" lon="6.37318">
        <ele>296.396</ele>
        <time>2015-10-03T08:10:21Z</time>
      </trkpt>
      <trkpt lat="47.32931" lon="6.37317">
        <ele>296.57</ele>
        <time>2015-10-03T08:10:22Z</time>
      </trkpt>
      <trkpt lat="47.32936" lon="6.37317">
        <ele>297.005</ele>
        <time>2015-10-03T08:10:23Z</time>
      </trkpt>
      <trkpt lat="47.3294" lon="6.37316">
        <ele>297.013</ele>
        <time>2015-10-03T08:10:24Z</time>
      </trkpt>
      <trkpt lat="47.32944" lon="6.37315">
        <ele>298.058</ele>
        <time>2015-10-03T08:10:25Z</time>
      </trkpt>
      <trkpt lat="47.32949" lon="6.37313">
        <ele>298.05</ele>
        <time>2015-10-03T08:10:26Z</time>
      </trkpt>
      <trkpt lat="47.32954" lon="6.37311">
        <ele>298.52</ele>
        <time>2015-10-03T08:10:27Z</time>
      </trkpt>
      <trkpt lat="47.32957" lon="6.3731">
        <ele>297.105</ele>
        <time>2015-10-03T08:10:28Z</time>
      </trkpt>
      <trkpt lat="47.32961" lon="6.37309">
        <ele>297.32</ele>
        <time>2015-10-03T08:10:29Z</time>
      </trkpt>
      <trkpt lat="47.32965" lon="6.37308">
        <ele>298.113</ele>
        <time>2015-10-03T08:10:30Z</time>
      </trkpt>
      <trkpt lat="47.32969" lon="6.37306">
        <ele>297.742</ele>
        <time>2015-10-03T08:10:31Z</time>
      </trkpt>
      <trkpt lat="47.32973" lon="6.37305">
        <ele>298.169</ele>
        <time>2015-10-03T08:10:32Z</time>
      </trkpt>
      <trkpt lat="47.32976" lon="6.37304">
        <ele>297.817</ele>
        <time>2015-10-03T08:10:33Z</time>
      </trkpt>
      <trkpt lat="47.32979" lon="6.37303">
        <ele>297.881</ele>
        <time>2015-10-03T08:10:34Z</time>
      </trkpt>
      <trkpt lat="47.32983" lon="6.37302">
        <ele>297.08</ele>
        <time>2015-10-03T08:10:35Z</time>
      </trkpt>
      <trkpt lat="47.32987" lon="6.373">
        <ele>297.144</ele>
        <time>2015-10-03T08:10:36Z</time>
      </trkpt>
      <trkpt lat="47.32991" lon="6.37299">
        <ele>296.295</ele>
        <time>2015-10-03T08:10:37Z</time>
      </trkpt>
      <trkpt lat="47.32995" lon="6.37298">
        <ele>296.85</ele>
        <time>2015-10-03T08:10:38Z</time>
      </trkpt>
      <trkpt lat="47.32999" lon="6.37297">
        <ele>297.323</ele>
        <time>2015-10-03T08:10:39Z</time>
      </trkpt>
      <trkpt lat="47.33003" lon="6.37295">
        <ele>297.262</ele>
        <time>2015-10-03T08:10:40Z</time>
      </trkpt>
      <trkpt lat="47.33007" lon="6.37294">
        <ele>297.191</ele>
        <time>2015-10-03T08:10:41Z</time>
      </trkpt>
      <trkpt lat="47.33011" lon="6.37292">
        <ele>297.341</ele>
        <time>2015-10-03T08:10:42Z</time>
      </trkpt>
      <trkpt lat="47.33015" lon="6.3729">
        <ele>298.055</ele>
        <time>2015-10-03T08:10:43Z</time>
      </trkpt>
      <trkpt lat="47.33019" lon="6.37289">
        <ele>298.07</ele>
        <time>2015-10-03T08:10:44Z</time>
      </trkpt>
      <trkpt lat="47.33023" lon="6.37287">
        <ele>298.129</ele>
        <time>2015-10-03T08:10:45Z</time>
      </trkpt>
      <trkpt lat="47.33028" lon="6.37285">
        <ele>298.372</ele>
        <time>2015-10-03T08:10:46Z</time>
      </trkpt>
      <trkpt lat="47.33032" lon="6.37284">
        <ele>297.559</ele>
        <time>2015-10-03T08:10:47Z</time>
      </trkpt>
      <trkpt lat="47.33036" lon="6.37284">
        <ele>297.379</ele>
        <time>2015-10-03T08:10:48Z</time>
      </trkpt>
      <trkpt lat="47.3304" lon="6.37285">
        <ele>297.334</ele>
        <time>2015-10-03T08:10:49Z</time>
      </trkpt>
      <trkpt lat="47.33044" lon="6.37286">
        <ele>297.252</ele>
        <time>2015-10-03T08:10:50Z</time>
      </trkpt>
      <trkpt lat="47.33049" lon="6.37287">
        <ele>297.545</ele>
        <time>2015-10-03T08:10:51Z</time>
      </trkpt>
      <trkpt lat="47.33053" lon="6.37289">
        <ele>297.627</ele>
        <time>2015-10-03T08:10:52Z</time>
      </trkpt>
      <trkpt lat="47.33056" lon="6.37292">
        <ele>297.558</ele>
        <time>2015-10-03T08:10:53Z</time>
      </trkpt>
      <trkpt lat="47.3306" lon="6.37295">
        <ele>296.911</ele>
        <time>2015-10-03T08:10:54Z</time>
      </trkpt>
      <trkpt lat="47.33063" lon="6.37298">
        <ele>297.231</ele>
        <time>2015-10-03T08:10:55Z</time>
      </trkpt>
      <trkpt lat="47.33066" lon="6.37301">
        <ele>297.315</ele>
        <time>2015-10-03T08:10:56Z</time>
      </trkpt>
      <trkpt lat="47.33069" lon="6.37305">
        <ele>297.478</ele>
        <time>2015-10-03T08:10:57Z</time>
      </trkpt>
      <trkpt lat="47.33072" lon="6.37309">
        <ele>297.894</ele>
        <time>2015-10-03T08:10:58Z</time>
      </trkpt>
      <trkpt lat="47.33075" lon="6.37312">
        <ele>297.974</ele>
        <time>2015-10-03T08:10:59Z</time>
      </trkpt>
      <trkpt lat="47.33078" lon="6.37316">
        <ele>297.956</ele>
        <time>2015-10-03T08:11:00Z</time>
      </trkpt>
      <trkpt lat="47.33081" lon="6.37319">
        <ele>298.168</ele>
        <time>2015-10-03T08:11:01Z</time>
      </trkpt>
      <trkpt lat="47.33084" lon="6.37322">
        <ele>298.872</ele>
        <time>2015-10-03T08:11:02Z</time>
      </trkpt>
      <trkpt lat="47.33087" lon="6.37324">
        <ele>299.23</ele>
        <time>2015-10-03T08:11:03Z</time>
      </trkpt>
      <trkpt lat="47.3309" lon="6.37327">
        <ele>299.226</ele>
        <time>2015-10-03T08:11:04Z</time>
      </trkpt>
      <trkpt lat="47.33092" lon="6.37329">
        <ele>299.36</ele>
        <time>2015-10-03T08:11:05Z</time>
      </trkpt>
      <trkpt lat="47.33095" lon="6.37331">
        <ele>299.749</ele>
        <time>2015-10-03T08:11:06Z</time>
      </trkpt>
      <trkpt lat="47.33098" lon="6.37333">
        <ele>299.885</ele>
        <time>2015-10-03T08:11:07Z</time>
      </trkpt>
      <trkpt lat="47.33101" lon="6.37335">
        <ele>300.058</ele>
        <time>2015-10-03T08:11:08Z</time>
      </trkpt>
      <trkpt lat="47.33104" lon="6.37337">
        <ele>301.122</ele>
        <time>2015-10-03T08:11:09Z</time>
      </trkpt>
      <trkpt lat="47.33107" lon="6.37339">
        <ele>301.276</ele>
        <time>2015-10-03T08:11:10Z</time>
      </trkpt>
      <trkpt lat="47.3311" lon="6.37341">
        <ele>301.594</ele>
        <time>2015-10-03T08:11:11Z</time>
      </trkpt>
      <trkpt lat="47.33112" lon="6.37342">
        <ele>302.612</ele>
        <time>2015-10-03T08:11:12Z</time>
      </trkpt>
      <trkpt lat="47.33115" lon="6.37343">
        <ele>303.02</ele>
        <time>2015-10-03T08:11:13Z</time>
      </trkpt>
      <trkpt lat="47.33117" lon="6.37345">
        <ele>303.529</ele>
        <time>2015-10-03T08:11:14Z</time>
      </trkpt>
      <trkpt lat="47.3312" lon="6.37345">
        <ele>303.301</ele>
        <time>2015-10-03T08:11:15Z</time>
      </trkpt>
      <trkpt lat="47.33122" lon="6.37346">
        <ele>303.676</ele>
        <time>2015-10-03T08:11:16Z</time>
      </trkpt>
      <trkpt lat="47.33125" lon="6.37347">
        <ele>303.854</ele>
        <time>2015-10-03T08:11:17Z</time>
      </trkpt>
      <trkpt lat="47.33128" lon="6.37348">
        <ele>303.58</ele>
        <time>2015-10-03T08:11:18Z</time>
      </trkpt>
      <trkpt lat="47.3313" lon="6.37349">
        <ele>303.825</ele>
        <time>2015-10-03T08:11:19Z</time>
      </trkpt>
      <trkpt lat="47.33133" lon="6.37349">
        <ele>303.837</ele>
        <time>2015-10-03T08:11:20Z</time>
      </trkpt>
      <trkpt lat="47.33135" lon="6.3735">
        <ele>304.007</ele>
        <time>2015-10-03T08:11:21Z</time>
      </trkpt>
      <trkpt lat="47.33138" lon="6.37351">
        <ele>304.163</ele>
        <time>2015-10-03T08:11:22Z</time>
      </trkpt>
      <trkpt lat="47.3314" lon="6.37353">
        <ele>304.562</ele>
        <time>2015-10-03T08:11:23Z</time>
      </trkpt>
      <trkpt lat="47.33142" lon="6.37354">
        <ele>304.698</ele>
        <time>2015-10-03T08:11:24Z</time>
      </trkpt>
      <trkpt lat="47.33145" lon="6.37355">
        <ele>304.733</ele>
        <time>2015-10-03T08:11:25Z</time>
      </trkpt>
      <trkpt lat="47.33148" lon="6.37357">
        <ele>304.954</ele>
        <time>2015-10-03T08:11:26Z</time>
      </trkpt>
      <trkpt lat="47.33152" lon="6.37358">
        <ele>305.477</ele>
        <time>2015-10-03T08:11:27Z</time>
      </trkpt>
      <trkpt lat="47.33155" lon="6.3736">
        <ele>305.385</ele>
        <time>2015-10-03T08:11:28Z</time>
      </trkpt>
      <trkpt lat="47.33157" lon="6.37361">
        <ele>305.397</ele>
        <time>2015-10-03T08:11:29Z</time>
      </trkpt>
      <trkpt lat="47.33158" lon="6.37361">
        <ele>305.541</ele>
        <time>2015-10-03T08:11:30Z</time>
      </trkpt>
      <trkpt lat="47.3316" lon="6.37362">
        <ele>305.548</ele>
        <time>2015-10-03T08:11:31Z</time>
      </trkpt>
      <trkpt lat="47.33162" lon="6.37363">
        <ele>305.376</ele>
        <time>2015-10-03T08:11:32Z</time>
      </trkpt>
      <trkpt lat="47.33163" lon="6.37364">
        <ele>305.488</ele>
        <time>2015-10-03T08:11:33Z</time>
      </trkpt>
      <trkpt lat="47.33165" lon="6.37365">
        <ele>306.079</ele>
        <time>2015-10-03T08:11:34Z</time>
      </trkpt>
      <trkpt lat="47.33167" lon="6.37366">
        <ele>306.264</ele>
        <time>2015-10-03T08:11:35Z</time>
      </trkpt>
      <trkpt lat="47.3317" lon="6.37366">
        <ele>307.075</ele>
        <time>2015-10-03T08:11:36Z</time>
      </trkpt>
      <trkpt lat="47.33172" lon="6.37367">
        <ele>307.16</ele>
        <time>2015-10-03T08:11:37Z</time>
      </trkpt>
      <trkpt lat="47.33175" lon="6.37367">
        <ele>306.869</ele>
        <time>2015-10-03T08:11:38Z</time>
      </trkpt>
      <trkpt lat="47.33177" lon="6.37368">
        <ele>307.329</ele>
        <time>2015-10-03T08:11:39Z</time>
      </trkpt>
      <trkpt lat="47.33179" lon="6.37368">
        <ele>307.387</ele>
        <time>2015-10-03T08:11:40Z</time>
      </trkpt>
      <trkpt lat="47.33182" lon="6.37369">
        <ele>307.648</ele>
        <time>2015-10-03T08:11:41Z</time>
      </trkpt>
      <trkpt lat="47.33184" lon="6.37369">
        <ele>307.73</ele>
        <time>2015-10-03T08:11:42Z</time>
      </trkpt>
      <trkpt lat="47.33187" lon="6.3737">
        <ele>308.126</ele>
        <time>2015-10-03T08:11:43Z</time>
      </trkpt>
      <trkpt lat="47.33191" lon="6.3737">
        <ele>308.108</ele>
        <time>2015-10-03T08:11:44Z</time>
      </trkpt>
      <trkpt lat="47.33194" lon="6.37371">
        <ele>308.297</ele>
        <time>2015-10-03T08:11:45Z</time>
      </trkpt>
      <trkpt lat="47.33197" lon="6.37372">
        <ele>308.528</ele>
        <time>2015-10-03T08:11:46Z</time>
      </trkpt>
      <trkpt lat="47.33199" lon="6.37373">
        <ele>308.605</ele>
        <time>2015-10-03T08:11:47Z</time>
      </trkpt>
      <trkpt lat="47.33201" lon="6.37373">
        <ele>308.315</ele>
        <time>2015-10-03T08:11:48Z</time>
      </trkpt>
      <trkpt lat="47.33202" lon="6.37374">
        <ele>308.268</ele>
        <time>2015-10-03T08:11:49Z</time>
      </trkpt>
      <trkpt lat="47.33203" lon="6.37374">
        <ele>308.361</ele>
        <time>2015-10-03T08:11:50Z</time>
      </trkpt>
      <trkpt lat="47.33206" lon="6.37375">
        <ele>308.588</ele>
        <time>2015-10-03T08:11:51Z</time>
      </trkpt>
      <trkpt lat="47.33208" lon="6.37375">
        <ele>308.705</ele>
        <time>2015-10-03T08:11:52Z</time>
      </trkpt>
      <trkpt lat="47.3321" lon="6.37376">
        <ele>309.041</ele>
        <time>2015-10-03T08:11:53Z</time>
      </trkpt>
      <trkpt lat="47.33213" lon="6.37376">
        <ele>309.312</ele>
        <time>2015-10-03T08:11:54Z</time>
      </trkpt>
      <trkpt lat="47.33215" lon="6.37376">
        <ele>309.492</ele>
        <time>2015-10-03T08:11:55Z</time>
      </trkpt>
      <trkpt lat="47.33217" lon="6.37376">
        <ele>309.467</ele>
        <time>2015-10-03T08:11:56Z</time>
      </trkpt>
      <trkpt lat="47.3322" lon="6.37377">
        <ele>309.715</ele>
        <time>2015-10-03T08:11:57Z</time>
      </trkpt>
      <trkpt lat="47.33223" lon="6.37377">
        <ele>309.858</ele>
        <time>2015-10-03T08:11:58Z</time>
      </trkpt>
      <trkpt lat="47.33226" lon="6.37378">
        <ele>309.758</ele>
        <time>2015-10-03T08:11:59Z</time>
      </trkpt>
      <trkpt lat="47.33228" lon="6.37379">
        <ele>309.912</ele>
        <time>2015-10-03T08:12:00Z</time>
      </trkpt>
      <trkpt lat="47.33231" lon="6.3738">
        <ele>310.43</ele>
        <time>2015-10-03T08:12:01Z</time>
      </trkpt>
      <trkpt lat="47.33234" lon="6.37381">
        <ele>310.365</ele>
        <time>2015-10-03T08:12:02Z</time>
      </trkpt>
      <trkpt lat="47.33236" lon="6.37383">
        <ele>310.296</ele>
        <time>2015-10-03T08:12:03Z</time>
      </trkpt>
      <trkpt lat="47.33239" lon="6.37385">
        <ele>310.652</ele>
        <time>2015-10-03T08:12:04Z</time>
      </trkpt>
      <trkpt lat="47.33241" lon="6.37386">
        <ele>310.689</ele>
        <time>2015-10-03T08:12:05Z</time>
      </trkpt>
      <trkpt lat="47.33243" lon="6.37387">
        <ele>310.596</ele>
        <time>2015-10-03T08:12:06Z</time>
      </trkpt>
      <trkpt lat="47.33246" lon="6.37388">
        <ele>310.674</ele>
        <time>2015-10-03T08:12:07Z</time>
      </trkpt>
      <trkpt lat="47.33248" lon="6.37389">
        <ele>310.784</ele>
        <time>2015-10-03T08:12:08Z</time>
      </trkpt>
      <trkpt lat="47.33251" lon="6.3739">
        <ele>310.985</ele>
        <time>2015-10-03T08:12:09Z</time>
      </trkpt>
      <trkpt lat="47.33254" lon="6.3739">
        <ele>311.254</ele>
        <time>2015-10-03T08:12:10Z</time>
      </trkpt>
      <trkpt lat="47.33256" lon="6.37391">
        <ele>311.173</ele>
        <time>2015-10-03T08:12:11Z</time>
      </trkpt>
      <trkpt lat="47.33258" lon="6.37392">
        <ele>311.421</ele>
        <time>2015-10-03T08:12:12Z</time>
      </trkpt>
      <trkpt lat="47.33261" lon="6.37393">
        <ele>311.561</ele>
        <time>2015-10-03T08:12:13Z</time>
      </trkpt>
      <trkpt lat="47.33264" lon="6.37395">
        <ele>311.616</ele>
        <time>2015-10-03T08:12:14Z</time>
      </trkpt>
      <trkpt lat="47.33267" lon="6.37396">
        <ele>311.767</ele>
        <time>2015-10-03T08:12:15Z</time>
      </trkpt>
      <trkpt lat="47.3327" lon="6.37398">
        <ele>312.001</ele>
        <time>2015-10-03T08:12:16Z</time>
      </trkpt>
      <trkpt lat="47.33273" lon="6.374">
        <ele>311.906</ele>
        <time>2015-10-03T08:12:17Z</time>
      </trkpt>
      <trkpt lat="47.33277" lon="6.37401">
        <ele>312.279</ele>
        <time>2015-10-03T08:12:18Z</time>
      </trkpt>
      <trkpt lat="47.3328" lon="6.37403">
        <ele>312.769</ele>
        <time>2015-10-03T08:12:19Z</time>
      </trkpt>
      <trkpt lat="47.33283" lon="6.37404">
        <ele>312.77</ele>
        <time>2015-10-03T08:12:20Z</time>
      </trkpt>
      <trkpt lat="47.33286" lon="6.37406">
        <ele>312.963</ele>
        <time>2015-10-03T08:12:21Z</time>
      </trkpt>
      <trkpt lat="47.33289" lon="6.37408">
        <ele>313.233</ele>
        <time>2015-10-03T08:12:22Z</time>
      </trkpt>
      <trkpt lat="47.33292" lon="6.37409">
        <ele>313.419</ele>
        <time>2015-10-03T08:12:23Z</time>
      </trkpt>
      <trkpt lat="47.33295" lon="6.3741">
        <ele>314.007</ele>
        <time>2015-10-03T08:12:24Z</time>
      </trkpt>
      <trkpt lat="47.33298" lon="6.37412">
        <ele>314.241</ele>
        <time>2015-10-03T08:12:25Z</time>
      </trkpt>
      <trkpt lat="47.33301" lon="6.37413">
        <ele>314.69</ele>
        <time>2015-10-03T08:12:26Z</time>
      </trkpt>
      <trkpt lat="47.33304" lon="6.37414">
        <ele>314.764</ele>
        <time>2015-10-03T08:12:27Z</time>
      </trkpt>
      <trkpt lat="47.33306" lon="6.37415">
        <ele>315.11</ele>
        <time>2015-10-03T08:12:28Z</time>
      </trkpt>
      <trkpt lat="47.3331" lon="6.37416">
        <ele>315.096</ele>
        <time>2015-10-03T08:12:29Z</time>
      </trkpt>
      <trkpt lat="47.33313" lon="6.37418">
        <ele>314.9</ele>
        <time>2015-10-03T08:12:30Z</time>
      </trkpt>
      <trkpt lat="47.33316" lon="6.37419">
        <ele>314.971</ele>
        <time>2015-10-03T08:12:31Z</time>
      </trkpt>
      <trkpt lat="47.33318" lon="6.3742">
        <ele>315.354</ele>
        <time>2015-10-03T08:12:32Z</time>
      </trkpt>
      <trkpt lat="47.33321" lon="6.37421">
        <ele>315.474</ele>
        <time>2015-10-03T08:12:33Z</time>
      </trkpt>
      <trkpt lat="47.33324" lon="6.37422">
        <ele>315.922</ele>
        <time>2015-10-03T08:12:34Z</time>
      </trkpt>
      <trkpt lat="47.33326" lon="6.37424">
        <ele>316.526</ele>
        <time>2015-10-03T08:12:35Z</time>
      </trkpt>
      <trkpt lat="47.33329" lon="6.37425">
        <ele>316.623</ele>
        <time>2015-10-03T08:12:36Z</time>
      </trkpt>
      <trkpt lat="47.33331" lon="6.37426">
        <ele>316.614</ele>
        <time>2015-10-03T08:12:37Z</time>
      </trkpt>
      <trkpt lat="47.33333" lon="6.37428">
        <ele>316.816</ele>
        <time>2015-10-03T08:12:38Z</time>
      </trkpt>
      <trkpt lat="47.33335" lon="6.3743">
        <ele>317.376</ele>
        <time>2015-10-03T08:12:39Z</time>
      </trkpt>
      <trkpt lat="47.33338" lon="6.37432">
        <ele>318.385</ele>
        <time>2015-10-03T08:12:40Z</time>
      </trkpt>
      <trkpt lat="47.3334" lon="6.37434">
        <ele>318.387</ele>
        <time>2015-10-03T08:12:41Z</time>
      </trkpt>
      <trkpt lat="47.33343" lon="6.37436">
        <ele>318.424</ele>
        <time>2015-10-03T08:12:42Z</time>
      </trkpt>
      <trkpt lat="47.33345" lon="6.37438">
        <ele>318.938</ele>
        <time>2015-10-03T08:12:43Z</time>
      </trkpt>
      <trkpt lat="47.33348" lon="6.3744">
        <ele>318.766</ele>
        <time>2015-10-03T08:12:44Z</time>
      </trkpt>
      <trkpt lat="47.3335" lon="6.37443">
        <ele>319.21</ele>
        <time>2015-10-03T08:12:45Z</time>
      </trkpt>
      <trkpt lat="47.33353" lon="6.37445">
        <ele>318.797</ele>
        <time>2015-10-03T08:12:46Z</time>
      </trkpt>
      <trkpt lat="47.33355" lon="6.37448">
        <ele>319.008</ele>
        <time>2015-10-03T08:12:47Z</time>
      </trkpt>
      <trkpt lat="47.33358" lon="6.3745">
        <ele>318.599</ele>
        <time>2015-10-03T08:12:48Z</time>
      </trkpt>
      <trkpt lat="47.3336" lon="6.37453">
        <ele>319.013</ele>
        <time>2015-10-03T08:12:49Z</time>
      </trkpt>
      <trkpt lat="47.33362" lon="6.37456">
        <ele>319.675</ele>
        <time>2015-10-03T08:12:50Z</time>
      </trkpt>
      <trkpt lat="47.33364" lon="6.37459">
        <ele>319.169</ele>
        <time>2015-10-03T08:12:51Z</time>
      </trkpt>
      <trkpt lat="47.33366" lon="6.37462">
        <ele>319.202</ele>
        <time>2015-10-03T08:12:52Z</time>
      </trkpt>
      <trkpt lat="47.33368" lon="6.37465">
        <ele>318.69</ele>
        <time>2015-10-03T08:12:53Z</time>
      </trkpt>
      <trkpt lat="47.33371" lon="6.37468">
        <ele>318.756</ele>
        <time>2015-10-03T08:12:54Z</time>
      </trkpt>
      <trkpt lat="47.33374" lon="6.37472">
        <ele>318.614</ele>
        <time>2015-10-03T08:12:55Z</time>
      </trkpt>
      <trkpt lat="47.33376" lon="6.37477">
        <ele>318.633</ele>
        <time>2015-10-03T08:12:56Z</time>
      </trkpt>
      <trkpt lat="47.33379" lon="6.37481">
        <ele>317.88</ele>
        <time>2015-10-03T08:12:57Z</time>
      </trkpt>
      <trkpt lat="47.33381" lon="6.37486">
        <ele>317.703</ele>
        <time>2015-10-03T08:12:58Z</time>
      </trkpt>
      <trkpt lat="47.33384" lon="6.3749">
        <ele>317.481</ele>
        <time>2015-10-03T08:12:59Z</time>
      </trkpt>
      <trkpt lat="47.33386" lon="6.37495">
        <ele>317.395</ele>
        <time>2015-10-03T08:13:00Z</time>
      </trkpt>
      <trkpt lat="47.33389" lon="6.375">
        <ele>316.639</ele>
        <time>2015-10-03T08:13:01Z</time>
      </trkpt>
      <trkpt lat="47.33392" lon="6.37504">
        <ele>316.147</ele>
        <time>2015-10-03T08:13:02Z</time>
      </trkpt>
      <trkpt lat="47.33395" lon="6.37509">
        <ele>316.491</ele>
        <time>2015-10-03T08:13:03Z</time>
      </trkpt>
      <trkpt lat="47.33398" lon="6.37513">
        <ele>316.049</ele>
        <time>2015-10-03T08:13:04Z</time>
      </trkpt>
      <trkpt lat="47.33401" lon="6.37518">
        <ele>315.675</ele>
        <time>2015-10-03T08:13:05Z</time>
      </trkpt>
      <trkpt lat="47.33403" lon="6.37522">
        <ele>315.614</ele>
        <time>2015-10-03T08:13:06Z</time>
      </trkpt>
      <trkpt lat="47.33406" lon="6.37527">
        <ele>315.775</ele>
        <time>2015-10-03T08:13:07Z</time>
      </trkpt>
      <trkpt lat="47.33408" lon="6.37531">
        <ele>315.656</ele>
        <time>2015-10-03T08:13:08Z</time>
      </trkpt>
      <trkpt lat="47.33411" lon="6.37536">
        <ele>314.216</ele>
        <time>2015-10-03T08:13:09Z</time>
      </trkpt>
      <trkpt lat="47.33414" lon="6.3754">
        <ele>313.694</ele>
        <time>2015-10-03T08:13:10Z</time>
      </trkpt>
      <trkpt lat="47.33417" lon="6.37545">
        <ele>314.086</ele>
        <time>2015-10-03T08:13:11Z</time>
      </trkpt>
      <trkpt lat="47.3342" lon="6.37549">
        <ele>314.215</ele>
        <time>2015-10-03T08:13:12Z</time>
      </trkpt>
      <trkpt lat="47.33426" lon="6.37555">
        <ele>313.108</ele>
        <time>2015-10-03T08:13:13Z</time>
      </trkpt>
      <trkpt lat="47.33429" lon="6.3756">
        <ele>314.079</ele>
        <time>2015-10-03T08:13:14Z</time>
      </trkpt>
      <trkpt lat="47.33433" lon="6.37563">
        <ele>313.627</ele>
        <time>2015-10-03T08:13:15Z</time>
      </trkpt>
      <trkpt lat="47.33438" lon="6.37566">
        <ele>313.617</ele>
        <time>2015-10-03T08:13:16Z</time>
      </trkpt>
      <trkpt lat="47.33441" lon="6.3757">
        <ele>314.311</ele>
        <time>2015-10-03T08:13:17Z</time>
      </trkpt>
      <trkpt lat="47.33445" lon="6.37574">
        <ele>314.54</ele>
        <time>2015-10-03T08:13:18Z</time>
      </trkpt>
      <trkpt lat="47.33448" lon="6.37576">
        <ele>314.319</ele>
        <time>2015-10-03T08:13:19Z</time>
      </trkpt>
      <trkpt lat="47.33452" lon="6.37579">
        <ele>314.473</ele>
        <time>2015-10-03T08:13:20Z</time>
      </trkpt>
      <trkpt lat="47.33455" lon="6.37582">
        <ele>314.207</ele>
        <time>2015-10-03T08:13:21Z</time>
      </trkpt>
      <trkpt lat="47.33459" lon="6.37585">
        <ele>314.351</ele>
        <time>2015-10-03T08:13:22Z</time>
      </trkpt>
      <trkpt lat="47.33462" lon="6.37588">
        <ele>314.485</ele>
        <time>2015-10-03T08:13:23Z</time>
      </trkpt>
      <trkpt lat="47.33467" lon="6.37591">
        <ele>314.136</ele>
        <time>2015-10-03T08:13:24Z</time>
      </trkpt>
      <trkpt lat="47.33471" lon="6.37593">
        <ele>313.993</ele>
        <time>2015-10-03T08:13:25Z</time>
      </trkpt>
      <trkpt lat="47.33475" lon="6.37595">
        <ele>313.7</ele>
        <time>2015-10-03T08:13:26Z</time>
      </trkpt>
      <trkpt lat="47.3348" lon="6.37598">
        <ele>313.546</ele>
        <time>2015-10-03T08:13:27Z</time>
      </trkpt>
      <trkpt lat="47.33484" lon="6.37602">
        <ele>312.95</ele>
        <time>2015-10-03T08:13:28Z</time>
      </trkpt>
      <trkpt lat="47.33488" lon="6.37604">
        <ele>312.428</ele>
        <time>2015-10-03T08:13:29Z</time>
      </trkpt>
      <trkpt lat="47.33492" lon="6.37607">
        <ele>312.431</ele>
        <time>2015-10-03T08:13:30Z</time>
      </trkpt>
      <trkpt lat="47.33495" lon="6.3761">
        <ele>313.149</ele>
        <time>2015-10-03T08:13:31Z</time>
      </trkpt>
      <trkpt lat="47.33499" lon="6.37612">
        <ele>313.679</ele>
        <time>2015-10-03T08:13:32Z</time>
      </trkpt>
      <trkpt lat="47.33503" lon="6.37613">
        <ele>313.602</ele>
        <time>2015-10-03T08:13:33Z</time>
      </trkpt>
      <trkpt lat="47.33508" lon="6.37614">
        <ele>313.448</ele>
        <time>2015-10-03T08:13:34Z</time>
      </trkpt>
      <trkpt lat="47.33512" lon="6.37615">
        <ele>313.317</ele>
        <time>2015-10-03T08:13:35Z</time>
      </trkpt>
      <trkpt lat="47.33517" lon="6.37615">
        <ele>313.09</ele>
        <time>2015-10-03T08:13:36Z</time>
      </trkpt>
      <trkpt lat="47.33521" lon="6.37612">
        <ele>313.006</ele>
        <time>2015-10-03T08:13:37Z</time>
      </trkpt>
      <trkpt lat="47.33525" lon="6.37612">
        <ele>312.85</ele>
        <time>2015-10-03T08:13:38Z</time>
      </trkpt>
      <trkpt lat="47.33531" lon="6.37611">
        <ele>313.113</ele>
        <time>2015-10-03T08:13:39Z</time>
      </trkpt>
      <trkpt lat="47.33535" lon="6.37609">
        <ele>313.365</ele>
        <time>2015-10-03T08:13:40Z</time>
      </trkpt>
      <trkpt lat="47.3354" lon="6.37606">
        <ele>313.43</ele>
        <time>2015-10-03T08:13:41Z</time>
      </trkpt>
      <trkpt lat="47.33544" lon="6.37604">
        <ele>313.398</ele>
        <time>2015-10-03T08:13:42Z</time>
      </trkpt>
      <trkpt lat="47.33549" lon="6.37603">
        <ele>313.255</ele>
        <time>2015-10-03T08:13:43Z</time>
      </trkpt>
      <trkpt lat="47.33553" lon="6.376">
        <ele>313.219</ele>
        <time>2015-10-03T08:13:44Z</time>
      </trkpt>
      <trkpt lat="47.33557" lon="6.37599">
        <ele>313.318</ele>
        <time>2015-10-03T08:13:45Z</time>
      </trkpt>
      <trkpt lat="47.33561" lon="6.37597">
        <ele>312.792</ele>
        <time>2015-10-03T08:13:46Z</time>
      </trkpt>
      <trkpt lat="47.33564" lon="6.37597">
        <ele>312.828</ele>
        <time>2015-10-03T08:13:47Z</time>
      </trkpt>
      <trkpt lat="47.33566" lon="6.37597">
        <ele>312.697</ele>
        <time>2015-10-03T08:13:48Z</time>
      </trkpt>
      <trkpt lat="47.33568" lon="6.37599">
        <ele>312.665</ele>
        <time>2015-10-03T08:13:49Z</time>
      </trkpt>
      <trkpt lat="47.33572" lon="6.37599">
        <ele>312.661</ele>
        <time>2015-10-03T08:13:50Z</time>
      </trkpt>
      <trkpt lat="47.33576" lon="6.37599">
        <ele>313.01</ele>
        <time>2015-10-03T08:13:51Z</time>
      </trkpt>
      <trkpt lat="47.3358" lon="6.37598">
        <ele>313.204</ele>
        <time>2015-10-03T08:13:52Z</time>
      </trkpt>
      <trkpt lat="47.33583" lon="6.37598">
        <ele>313.179</ele>
        <time>2015-10-03T08:13:53Z</time>
      </trkpt>
      <trkpt lat="47.33587" lon="6.37597">
        <ele>313.014</ele>
        <time>2015-10-03T08:13:54Z</time>
      </trkpt>
      <trkpt lat="47.3359" lon="6.37598">
        <ele>313.214</ele>
        <time>2015-10-03T08:13:55Z</time>
      </trkpt>
      <trkpt lat="47.33592" lon="6.37598">
        <ele>313.577</ele>
        <time>2015-10-03T08:13:56Z</time>
      </trkpt>
      <trkpt lat="47.33595" lon="6.37599">
        <ele>313.759</ele>
        <time>2015-10-03T08:13:57Z</time>
      </trkpt>
      <trkpt lat="47.33598" lon="6.376">
        <ele>314.004</ele>
        <time>2015-10-03T08:13:58Z</time>
      </trkpt>
      <trkpt lat="47.33602" lon="6.376">
        <ele>314.112</ele>
        <time>2015-10-03T08:13:59Z</time>
      </trkpt>
      <trkpt lat="47.33605" lon="6.376">
        <ele>313.587</ele>
        <time>2015-10-03T08:14:00Z</time>
      </trkpt>
      <trkpt lat="47.33609" lon="6.37601">
        <ele>313.669</ele>
        <time>2015-10-03T08:14:01Z</time>
      </trkpt>
      <trkpt lat="47.33612" lon="6.37601">
        <ele>314.656</ele>
        <time>2015-10-03T08:14:02Z</time>
      </trkpt>
      <trkpt lat="47.33616" lon="6.37602">
        <ele>314.98</ele>
        <time>2015-10-03T08:14:03Z</time>
      </trkpt>
      <trkpt lat="47.3362" lon="6.37602">
        <ele>315.475</ele>
        <time>2015-10-03T08:14:04Z</time>
      </trkpt>
      <trkpt lat="47.33623" lon="6.37602">
        <ele>315.491</ele>
        <time>2015-10-03T08:14:05Z</time>
      </trkpt>
      <trkpt lat="47.33627" lon="6.37602">
        <ele>315.528</ele>
        <time>2015-10-03T08:14:06Z</time>
      </trkpt>
      <trkpt lat="47.33631" lon="6.37601">
        <ele>315.779</ele>
        <time>2015-10-03T08:14:07Z</time>
      </trkpt>
      <trkpt lat="47.33634" lon="6.37601">
        <ele>315.675</ele>
        <time>2015-10-03T08:14:08Z</time>
      </trkpt>
      <trkpt lat="47.33638" lon="6.376">
        <ele>315.98</ele>
        <time>2015-10-03T08:14:09Z</time>
      </trkpt>
      <trkpt lat="47.33642" lon="6.37598">
        <ele>315.37</ele>
        <time>2015-10-03T08:14:10Z</time>
      </trkpt>
      <trkpt lat="47.33645" lon="6.37597">
        <ele>315.132</ele>
        <time>2015-10-03T08:14:11Z</time>
      </trkpt>
      <trkpt lat="47.33649" lon="6.37595">
        <ele>315.325</ele>
        <time>2015-10-03T08:14:12Z</time>
      </trkpt>
      <trkpt lat="47.33652" lon="6.37593">
        <ele>315.697</ele>
        <time>2015-10-03T08:14:13Z</time>
      </trkpt>
      <trkpt lat="47.33656" lon="6.3759">
        <ele>315.418</ele>
        <time>2015-10-03T08:14:14Z</time>
      </trkpt>
      <trkpt lat="47.3366" lon="6.37587">
        <ele>316.064</ele>
        <time>2015-10-03T08:14:15Z</time>
      </trkpt>
      <trkpt lat="47.33664" lon="6.37584">
        <ele>316.23</ele>
        <time>2015-10-03T08:14:16Z</time>
      </trkpt>
      <trkpt lat="47.33669" lon="6.37583">
        <ele>315.915</ele>
        <time>2015-10-03T08:14:17Z</time>
      </trkpt>
      <trkpt lat="47.33675" lon="6.37581">
        <ele>316.639</ele>
        <time>2015-10-03T08:14:18Z</time>
      </trkpt>
      <trkpt lat="47.3368" lon="6.37581">
        <ele>316.589</ele>
        <time>2015-10-03T08:14:19Z</time>
      </trkpt>
      <trkpt lat="47.33685" lon="6.37582">
        <ele>316.662</ele>
        <time>2015-10-03T08:14:20Z</time>
      </trkpt>
      <trkpt lat="47.33689" lon="6.37584">
        <ele>316.488</ele>
        <time>2015-10-03T08:14:21Z</time>
      </trkpt>
      <trkpt lat="47.33693" lon="6.37586">
        <ele>316.336</ele>
        <time>2015-10-03T08:14:22Z</time>
      </trkpt>
      <trkpt lat="47.33696" lon="6.37588">
        <ele>316.248</ele>
        <time>2015-10-03T08:14:23Z</time>
      </trkpt>
      <trkpt lat="47.337" lon="6.37589">
        <ele>315.99</ele>
        <time>2015-10-03T08:14:24Z</time>
      </trkpt>
      <trkpt lat="47.33704" lon="6.37591">
        <ele>315.756</ele>
        <time>2015-10-03T08:14:25Z</time>
      </trkpt>
      <trkpt lat="47.33707" lon="6.37593">
        <ele>315.537</ele>
        <time>2015-10-03T08:14:26Z</time>
      </trkpt>
      <trkpt lat="47.3371" lon="6.37594">
        <ele>315.287</ele>
        <time>2015-10-03T08:14:27Z</time>
      </trkpt>
      <trkpt lat="47.33714" lon="6.37597">
        <ele>314.602</ele>
        <time>2015-10-03T08:14:28Z</time>
      </trkpt>
      <trkpt lat="47.33718" lon="6.376">
        <ele>314.564</ele>
        <time>2015-10-03T08:14:29Z</time>
      </trkpt>
      <trkpt lat="47.33721" lon="6.37602">
        <ele>314.67</ele>
        <time>2015-10-03T08:14:30Z</time>
      </trkpt>
      <trkpt lat="47.33724" lon="6.37604">
        <ele>314.728</ele>
        <time>2015-10-03T08:14:31Z</time>
      </trkpt>
      <trkpt lat="47.33727" lon="6.37606">
        <ele>313.967</ele>
        <time>2015-10-03T08:14:32Z</time>
      </trkpt>
      <trkpt lat="47.3373" lon="6.37609">
        <ele>313.86</ele>
        <time>2015-10-03T08:14:33Z</time>
      </trkpt>
      <trkpt lat="47.33733" lon="6.37613">
        <ele>314.885</ele>
        <time>2015-10-03T08:14:34Z</time>
      </trkpt>
      <trkpt lat="47.33735" lon="6.37618">
        <ele>314.916</ele>
        <time>2015-10-03T08:14:35Z</time>
      </trkpt>
      <trkpt lat="47.33737" lon="6.37623">
        <ele>315.006</ele>
        <time>2015-10-03T08:14:36Z</time>
      </trkpt>
      <trkpt lat="47.33739" lon="6.37628">
        <ele>315.053</ele>
        <time>2015-10-03T08:14:37Z</time>
      </trkpt>
      <trkpt lat="47.33741" lon="6.37634">
        <ele>315.036</ele>
        <time>2015-10-03T08:14:38Z</time>
      </trkpt>
      <trkpt lat="47.33742" lon="6.37641">
        <ele>315.735</ele>
        <time>2015-10-03T08:14:39Z</time>
      </trkpt>
      <trkpt lat="47.33745" lon="6.37646">
        <ele>315.923</ele>
        <time>2015-10-03T08:14:40Z</time>
      </trkpt>
      <trkpt lat="47.33748" lon="6.37651">
        <ele>316.075</ele>
        <time>2015-10-03T08:14:41Z</time>
      </trkpt>
      <trkpt lat="47.33752" lon="6.37656">
        <ele>316.99</ele>
        <time>2015-10-03T08:14:42Z</time>
      </trkpt>
      <trkpt lat="47.33756" lon="6.37664">
        <ele>316.262</ele>
        <time>2015-10-03T08:14:43Z</time>
      </trkpt>
      <trkpt lat="47.3376" lon="6.3767">
        <ele>315.022</ele>
        <time>2015-10-03T08:14:44Z</time>
      </trkpt>
      <trkpt lat="47.33763" lon="6.37677">
        <ele>314.66</ele>
        <time>2015-10-03T08:14:45Z</time>
      </trkpt>
      <trkpt lat="47.33765" lon="6.37686">
        <ele>313.477</ele>
        <time>2015-10-03T08:14:46Z</time>
      </trkpt>
      <trkpt lat="47.33765" lon="6.37694">
        <ele>313.894</ele>
        <time>2015-10-03T08:14:47Z</time>
      </trkpt>
      <trkpt lat="47.33767" lon="6.377">
        <ele>313.59</ele>
        <time>2015-10-03T08:14:48Z</time>
      </trkpt>
      <trkpt lat="47.33768" lon="6.37707">
        <ele>313.496</ele>
        <time>2015-10-03T08:14:49Z</time>
      </trkpt>
      <trkpt lat="47.33768" lon="6.37713">
        <ele>313.923</ele>
        <time>2015-10-03T08:14:50Z</time>
      </trkpt>
      <trkpt lat="47.3377" lon="6.37721">
        <ele>313.166</ele>
        <time>2015-10-03T08:14:51Z</time>
      </trkpt>
      <trkpt lat="47.3377" lon="6.37726">
        <ele>313.837</ele>
        <time>2015-10-03T08:14:52Z</time>
      </trkpt>
      <trkpt lat="47.3377" lon="6.37731">
        <ele>313.225</ele>
        <time>2015-10-03T08:14:53Z</time>
      </trkpt>
      <trkpt lat="47.33769" lon="6.37736">
        <ele>313.202</ele>
        <time>2015-10-03T08:14:54Z</time>
      </trkpt>
      <trkpt lat="47.33769" lon="6.37741">
        <ele>313.77</ele>
        <time>2015-10-03T08:14:55Z</time>
      </trkpt>
      <trkpt lat="47.33769" lon="6.37747">
        <ele>313.591</ele>
        <time>2015-10-03T08:14:56Z</time>
      </trkpt>
      <trkpt lat="47.33766" lon="6.37749">
        <ele>312.991</ele>
        <time>2015-10-03T08:14:57Z</time>
      </trkpt>
      <trkpt lat="47.33765" lon="6.37752">
        <ele>312.982</ele>
        <time>2015-10-03T08:14:58Z</time>
      </trkpt>
      <trkpt lat="47.33765" lon="6.37756">
        <ele>312.705</ele>
        <time>2015-10-03T08:14:59Z</time>
      </trkpt>
      <trkpt lat="47.33764" lon="6.37758">
        <ele>312.813</ele>
        <time>2015-10-03T08:15:00Z</time>
      </trkpt>
      <trkpt lat="47.33763" lon="6.37758">
        <ele>314.483</ele>
        <time>2015-10-03T08:15:03Z</time>
      </trkpt>
      <trkpt lat="47.33762" lon="6.37756">
        <ele>314.54</ele>
        <time>2015-10-03T08:15:15Z</time>
      </trkpt>
      <trkpt lat="47.33762" lon="6.37754">
        <ele>315.063</ele>
        <time>2015-10-03T08:15:23Z</time>
      </trkpt>
      <trkpt lat="47.33763" lon="6.37755">
        <ele>314.449</ele>
        <time>2015-10-03T08:15:35Z</time>
      </trkpt>
      <trkpt lat="47.33763" lon="6.37756">
        <ele>314.443</ele>
        <time>2015-10-03T08:15:36Z</time>
      </trkpt>
      <trkpt lat="47.33763" lon="6.37758">
        <ele>314.596</ele>
        <time>2015-10-03T08:15:37Z</time>
      </trkpt>
      <trkpt lat="47.33763" lon="6.3776">
        <ele>314.573</ele>
        <time>2015-10-03T08:15:38Z</time>
      </trkpt>
      <trkpt lat="47.33763" lon="6.37763">
        <ele>314.554</ele>
        <time>2015-10-03T08:15:39Z</time>
      </trkpt>
      <trkpt lat="47.33763" lon="6.37767">
        <ele>314.634</ele>
        <time>2015-10-03T08:15:40Z</time>
      </trkpt>
      <trkpt lat="47.33762" lon="6.3777">
        <ele>314.213</ele>
        <time>2015-10-03T08:15:41Z</time>
      </trkpt>
      <trkpt lat="47.33761" lon="6.37773">
        <ele>314.3</ele>
        <time>2015-10-03T08:15:42Z</time>
      </trkpt>
      <trkpt lat="47.3376" lon="6.37776">
        <ele>314.195</ele>
        <time>2015-10-03T08:15:43Z</time>
      </trkpt>
      <trkpt lat="47.33759" lon="6.37779">
        <ele>314.677</ele>
        <time>2015-10-03T08:15:44Z</time>
      </trkpt>
      <trkpt lat="47.33759" lon="6.37783">
        <ele>315.096</ele>
        <time>2015-10-03T08:15:45Z</time>
      </trkpt>
      <trkpt lat="47.33758" lon="6.37786">
        <ele>315.291</ele>
        <time>2015-10-03T08:15:46Z</time>
      </trkpt>
      <trkpt lat="47.33758" lon="6.3779">
        <ele>314.628</ele>
        <time>2015-10-03T08:15:47Z</time>
      </trkpt>
      <trkpt lat="47.33757" lon="6.37794">
        <ele>314.937</ele>
        <time>2015-10-03T08:15:48Z</time>
      </trkpt>
      <trkpt lat="47.33757" lon="6.37798">
        <ele>315.319</ele>
        <time>2015-10-03T08:15:49Z</time>
      </trkpt>
      <trkpt lat="47.33757" lon="6.37802">
        <ele>314.939</ele>
        <time>2015-10-03T08:15:50Z</time>
      </trkpt>
      <trkpt lat="47.33756" lon="6.37806">
        <ele>314.989</ele>
        <time>2015-10-03T08:15:51Z</time>
      </trkpt>
      <trkpt lat="47.33756" lon="6.3781">
        <ele>315.413</ele>
        <time>2015-10-03T08:15:52Z</time>
      </trkpt>
      <trkpt lat="47.33756" lon="6.37813">
        <ele>315.617</ele>
        <time>2015-10-03T08:15:53Z</time>
      </trkpt>
      <trkpt lat="47.33757" lon="6.37817">
        <ele>316.007</ele>
        <time>2015-10-03T08:15:54Z</time>
      </trkpt>
      <trkpt lat="47.33757" lon="6.37822">
        <ele>317.371</ele>
        <time>2015-10-03T08:15:55Z</time>
      </trkpt>
      <trkpt lat="47.33757" lon="6.37826">
        <ele>318.347</ele>
        <time>2015-10-03T08:15:56Z</time>
      </trkpt>
      <trkpt lat="47.33757" lon="6.3783">
        <ele>318.386</ele>
        <time>2015-10-03T08:15:57Z</time>
      </trkpt>
      <trkpt lat="47.33758" lon="6.37833">
        <ele>318.31</ele>
        <time>2015-10-03T08:15:58Z</time>
      </trkpt>
      <trkpt lat="47.33758" lon="6.37838">
        <ele>318.981</ele>
        <time>2015-10-03T08:15:59Z</time>
      </trkpt>
      <trkpt lat="47.33758" lon="6.37842">
        <ele>319.368</ele>
        <time>2015-10-03T08:16:00Z</time>
      </trkpt>
      <trkpt lat="47.33759" lon="6.37847">
        <ele>319.737</ele>
        <time>2015-10-03T08:16:01Z</time>
      </trkpt>
      <trkpt lat="47.3376" lon="6.3785">
        <ele>318.978</ele>
        <time>2015-10-03T08:16:02Z</time>
      </trkpt>
      <trkpt lat="47.33762" lon="6.37854">
        <ele>319.422</ele>
        <time>2015-10-03T08:16:03Z</time>
      </trkpt>
      <trkpt lat="47.33763" lon="6.37857">
        <ele>319.595</ele>
        <time>2015-10-03T08:16:04Z</time>
      </trkpt>
      <trkpt lat="47.33764" lon="6.3786">
        <ele>319.533</ele>
        <time>2015-10-03T08:16:05Z</time>
      </trkpt>
      <trkpt lat="47.33766" lon="6.37864">
        <ele>319.338</ele>
        <time>2015-10-03T08:16:06Z</time>
      </trkpt>
      <trkpt lat="47.33767" lon="6.37868">
        <ele>319.347</ele>
        <time>2015-10-03T08:16:07Z</time>
      </trkpt>
      <trkpt lat="47.33768" lon="6.37872">
        <ele>320.039</ele>
        <time>2015-10-03T08:16:08Z</time>
      </trkpt>
      <trkpt lat="47.33769" lon="6.37875">
        <ele>320.097</ele>
        <time>2015-10-03T08:16:09Z</time>
      </trkpt>
      <trkpt lat="47.3377" lon="6.37878">
        <ele>320.287</ele>
        <time>2015-10-03T08:16:10Z</time>
      </trkpt>
      <trkpt lat="47.33771" lon="6.37881">
        <ele>320.343</ele>
        <time>2015-10-03T08:16:11Z</time>
      </trkpt>
      <trkpt lat="47.33772" lon="6.37884">
        <ele>321.469</ele>
        <time>2015-10-03T08:16:12Z</time>
      </trkpt>
      <trkpt lat="47.33772" lon="6.37887">
        <ele>321.166</ele>
        <time>2015-10-03T08:16:13Z</time>
      </trkpt>
      <trkpt lat="47.33773" lon="6.37889">
        <ele>320.872</ele>
        <time>2015-10-03T08:16:14Z</time>
      </trkpt>
      <trkpt lat="47.33773" lon="6.37892">
        <ele>321.012</ele>
        <time>2015-10-03T08:16:15Z</time>
      </trkpt>
      <trkpt lat="47.33774" lon="6.37895">
        <ele>320.973</ele>
        <time>2015-10-03T08:16:16Z</time>
      </trkpt>
      <trkpt lat="47.33775" lon="6.37898">
        <ele>321.192</ele>
        <time>2015-10-03T08:16:17Z</time>
      </trkpt>
      <trkpt lat="47.33776" lon="6.37902">
        <ele>321.196</ele>
        <time>2015-10-03T08:16:18Z</time>
      </trkpt>
      <trkpt lat="47.33778" lon="6.37906">
        <ele>320.997</ele>
        <time>2015-10-03T08:16:19Z</time>
      </trkpt>
      <trkpt lat="47.33779" lon="6.3791">
        <ele>320.779</ele>
        <time>2015-10-03T08:16:20Z</time>
      </trkpt>
      <trkpt lat="47.3378" lon="6.37914">
        <ele>320.664</ele>
        <time>2015-10-03T08:16:21Z</time>
      </trkpt>
      <trkpt lat="47.3378" lon="6.37918">
        <ele>320.514</ele>
        <time>2015-10-03T08:16:22Z</time>
      </trkpt>
      <trkpt lat="47.33781" lon="6.37922">
        <ele>320.62</ele>
        <time>2015-10-03T08:16:23Z</time>
      </trkpt>
      <trkpt lat="47.33783" lon="6.37926">
        <ele>320.787</ele>
        <time>2015-10-03T08:16:24Z</time>
      </trkpt>
      <trkpt lat="47.33784" lon="6.37929">
        <ele>319.373</ele>
        <time>2015-10-03T08:16:25Z</time>
      </trkpt>
      <trkpt lat="47.33785" lon="6.37933">
        <ele>319.624</ele>
        <time>2015-10-03T08:16:26Z</time>
      </trkpt>
      <trkpt lat="47.33786" lon="6.37936">
        <ele>319.655</ele>
        <time>2015-10-03T08:16:27Z</time>
      </trkpt>
      <trkpt lat="47.33787" lon="6.37939">
        <ele>319.65</ele>
        <time>2015-10-03T08:16:28Z</time>
      </trkpt>
      <trkpt lat="47.33788" lon="6.37942">
        <ele>319.16</ele>
        <time>2015-10-03T08:16:29Z</time>
      </trkpt>
      <trkpt lat="47.33789" lon="6.37946">
        <ele>319.069</ele>
        <time>2015-10-03T08:16:30Z</time>
      </trkpt>
      <trkpt lat="47.3379" lon="6.3795">
        <ele>318.696</ele>
        <time>2015-10-03T08:16:31Z</time>
      </trkpt>
      <trkpt lat="47.33791" lon="6.37954">
        <ele>318.047</ele>
        <time>2015-10-03T08:16:32Z</time>
      </trkpt>
      <trkpt lat="47.33793" lon="6.37957">
        <ele>317.648</ele>
        <time>2015-10-03T08:16:33Z</time>
      </trkpt>
      <trkpt lat="47.33794" lon="6.37961">
        <ele>317.635</ele>
        <time>2015-10-03T08:16:34Z</time>
      </trkpt>
      <trkpt lat="47.33795" lon="6.37965">
        <ele>317.936</ele>
        <time>2015-10-03T08:16:35Z</time>
      </trkpt>
      <trkpt lat="47.33796" lon="6.37969">
        <ele>318.161</ele>
        <time>2015-10-03T08:16:36Z</time>
      </trkpt>
      <trkpt lat="47.33797" lon="6.37973">
        <ele>318.016</ele>
        <time>2015-10-03T08:16:37Z</time>
      </trkpt>
      <trkpt lat="47.33799" lon="6.37977">
        <ele>318.383</ele>
        <time>2015-10-03T08:16:38Z</time>
      </trkpt>
      <trkpt lat="47.338" lon="6.37981">
        <ele>318.873</ele>
        <time>2015-10-03T08:16:39Z</time>
      </trkpt>
      <trkpt lat="47.33801" lon="6.37984">
        <ele>317.99</ele>
        <time>2015-10-03T08:16:40Z</time>
      </trkpt>
      <trkpt lat="47.33802" lon="6.37987">
        <ele>318.175</ele>
        <time>2015-10-03T08:16:41Z</time>
      </trkpt>
      <trkpt lat="47.33802" lon="6.3799">
        <ele>318.357</ele>
        <time>2015-10-03T08:16:42Z</time>
      </trkpt>
      <trkpt lat="47.33804" lon="6.37993">
        <ele>318.419</ele>
        <time>2015-10-03T08:16:43Z</time>
      </trkpt>
      <trkpt lat="47.33805" lon="6.37996">
        <ele>318.471</ele>
        <time>2015-10-03T08:16:44Z</time>
      </trkpt>
      <trkpt lat="47.33806" lon="6.38">
        <ele>317.632</ele>
        <time>2015-10-03T08:16:45Z</time>
      </trkpt>
      <trkpt lat="47.33808" lon="6.38003">
        <ele>317.388</ele>
        <time>2015-10-03T08:16:46Z</time>
      </trkpt>
      <trkpt lat="47.33809" lon="6.38007">
        <ele>317.203</ele>
        <time>2015-10-03T08:16:47Z</time>
      </trkpt>
      <trkpt lat="47.3381" lon="6.3801">
        <ele>316.811</ele>
        <time>2015-10-03T08:16:48Z</time>
      </trkpt>
      <trkpt lat="47.33811" lon="6.38013">
        <ele>316.662</ele>
        <time>2015-10-03T08:16:49Z</time>
      </trkpt>
      <trkpt lat="47.33812" lon="6.38016">
        <ele>316.706</ele>
        <time>2015-10-03T08:16:50Z</time>
      </trkpt>
      <trkpt lat="47.33813" lon="6.38019">
        <ele>317.268</ele>
        <time>2015-10-03T08:16:51Z</time>
      </trkpt>
      <trkpt lat="47.33814" lon="6.38022">
        <ele>317.15</ele>
        <time>2015-10-03T08:16:52Z</time>
      </trkpt>
      <trkpt lat="47.33815" lon="6.38026">
        <ele>317.903</ele>
        <time>2015-10-03T08:16:53Z</time>
      </trkpt>
      <trkpt lat="47.33816" lon="6.38029">
        <ele>318.275</ele>
        <time>2015-10-03T08:16:54Z</time>
      </trkpt>
      <trkpt lat="47.33817" lon="6.38033">
        <ele>318.951</ele>
        <time>2015-10-03T08:16:55Z</time>
      </trkpt>
      <trkpt lat="47.33818" lon="6.38036">
        <ele>319.361</ele>
        <time>2015-10-03T08:16:56Z</time>
      </trkpt>
      <trkpt lat="47.33819" lon="6.3804">
        <ele>319.66</ele>
        <time>2015-10-03T08:16:57Z</time>
      </trkpt>
      <trkpt lat="47.3382" lon="6.38043">
        <ele>319.822</ele>
        <time>2015-10-03T08:16:58Z</time>
      </trkpt>
      <trkpt lat="47.33821" lon="6.38046">
        <ele>320.207</ele>
        <time>2015-10-03T08:16:59Z</time>
      </trkpt>
      <trkpt lat="47.33822" lon="6.38049">
        <ele>320.636</ele>
        <time>2015-10-03T08:17:00Z</time>
      </trkpt>
      <trkpt lat="47.33823" lon="6.38052">
        <ele>320.749</ele>
        <time>2015-10-03T08:17:01Z</time>
      </trkpt>
      <trkpt lat="47.33825" lon="6.38055">
        <ele>321.138</ele>
        <time>2015-10-03T08:17:02Z</time>
      </trkpt>
      <trkpt lat="47.33826" lon="6.38057">
        <ele>321.249</ele>
        <time>2015-10-03T08:17:03Z</time>
      </trkpt>
      <trkpt lat="47.33827" lon="6.3806">
        <ele>321.65</ele>
        <time>2015-10-03T08:17:04Z</time>
      </trkpt>
      <trkpt lat="47.33828" lon="6.38063">
        <ele>322.62</ele>
        <time>2015-10-03T08:17:05Z</time>
      </trkpt>
      <trkpt lat="47.33829" lon="6.38066">
        <ele>323.499</ele>
        <time>2015-10-03T08:17:06Z</time>
      </trkpt>
      <trkpt lat="47.3383" lon="6.38069">
        <ele>322.972</ele>
        <time>2015-10-03T08:17:07Z</time>
      </trkpt>
      <trkpt lat="47.33831" lon="6.38072">
        <ele>323.079</ele>
        <time>2015-10-03T08:17:08Z</time>
      </trkpt>
      <trkpt lat="47.33832" lon="6.38075">
        <ele>323.931</ele>
        <time>2015-10-03T08:17:09Z</time>
      </trkpt>
      <trkpt lat="47.33833" lon="6.38078">
        <ele>324.173</ele>
        <time>2015-10-03T08:17:10Z</time>
      </trkpt>
      <trkpt lat="47.33834" lon="6.38081">
        <ele>325.015</ele>
        <time>2015-10-03T08:17:11Z</time>
      </trkpt>
      <trkpt lat="47.33834" lon="6.38083">
        <ele>325.509</ele>
        <time>2015-10-03T08:17:12Z</time>
      </trkpt>
      <trkpt lat="47.33835" lon="6.38086">
        <ele>325.396</ele>
        <time>2015-10-03T08:17:13Z</time>
      </trkpt>
      <trkpt lat="47.33836" lon="6.38089">
        <ele>325.565</ele>
        <time>2015-10-03T08:17:14Z</time>
      </trkpt>
      <trkpt lat="47.33837" lon="6.38091">
        <ele>325.611</ele>
        <time>2015-10-03T08:17:15Z</time>
      </trkpt>
      <trkpt lat="47.33838" lon="6.38094">
        <ele>326.124</ele>
        <time>2015-10-03T08:17:16Z</time>
      </trkpt>
      <trkpt lat="47.33839" lon="6.38097">
        <ele>326.423</ele>
        <time>2015-10-03T08:17:17Z</time>
      </trkpt>
      <trkpt lat="47.3384" lon="6.38099">
        <ele>327.677</ele>
        <time>2015-10-03T08:17:18Z</time>
      </trkpt>
      <trkpt lat="47.3384" lon="6.38102">
        <ele>328.465</ele>
        <time>2015-10-03T08:17:19Z</time>
      </trkpt>
      <trkpt lat="47.33841" lon="6.38104">
        <ele>329.608</ele>
        <time>2015-10-03T08:17:20Z</time>
      </trkpt>
      <trkpt lat="47.33841" lon="6.38107">
        <ele>329.857</ele>
        <time>2015-10-03T08:17:21Z</time>
      </trkpt>
      <trkpt lat="47.33841" lon="6.3811">
        <ele>329.521</ele>
        <time>2015-10-03T08:17:22Z</time>
      </trkpt>
      <trkpt lat="47.33842" lon="6.38113">
        <ele>329.378</ele>
        <time>2015-10-03T08:17:23Z</time>
      </trkpt>
      <trkpt lat="47.33842" lon="6.38116">
        <ele>328.948</ele>
        <time>2015-10-03T08:17:24Z</time>
      </trkpt>
      <trkpt lat="47.33842" lon="6.38118">
        <ele>330.099</ele>
        <time>2015-10-03T08:17:25Z</time>
      </trkpt>
      <trkpt lat="47.33843" lon="6.38121">
        <ele>330.606</ele>
        <time>2015-10-03T08:17:26Z</time>
      </trkpt>
      <trkpt lat="47.33843" lon="6.38124">
        <ele>330.027</ele>
        <time>2015-10-03T08:17:27Z</time>
      </trkpt>
      <trkpt lat="47.33844" lon="6.38126">
        <ele>329.787</ele>
        <time>2015-10-03T08:17:28Z</time>
      </trkpt>
      <trkpt lat="47.33845" lon="6.38129">
        <ele>330.733</ele>
        <time>2015-10-03T08:17:29Z</time>
      </trkpt>
      <trkpt lat="47.33845" lon="6.38131">
        <ele>330.779</ele>
        <time>2015-10-03T08:17:30Z</time>
      </trkpt>
      <trkpt lat="47.33846" lon="6.38133">
        <ele>329.998</ele>
        <time>2015-10-03T08:17:31Z</time>
      </trkpt>
      <trkpt lat="47.33847" lon="6.38135">
        <ele>330.257</ele>
        <time>2015-10-03T08:17:32Z</time>
      </trkpt>
      <trkpt lat="47.33849" lon="6.38138">
        <ele>330.132</ele>
        <time>2015-10-03T08:17:33Z</time>
      </trkpt>
      <trkpt lat="47.33849" lon="6.3814">
        <ele>330.853</ele>
        <time>2015-10-03T08:17:34Z</time>
      </trkpt>
      <trkpt lat="47.3385" lon="6.38143">
        <ele>330.574</ele>
        <time>2015-10-03T08:17:35Z</time>
      </trkpt>
      <trkpt lat="47.33851" lon="6.38146">
        <ele>330.827</ele>
        <time>2015-10-03T08:17:36Z</time>
      </trkpt>
      <trkpt lat="47.33852" lon="6.38148">
        <ele>329.776</ele>
        <time>2015-10-03T08:17:37Z</time>
      </trkpt>
      <trkpt lat="47.33853" lon="6.3815">
        <ele>329.469</ele>
        <time>2015-10-03T08:17:38Z</time>
      </trkpt>
      <trkpt lat="47.33854" lon="6.38153">
        <ele>329.507</ele>
        <time>2015-10-03T08:17:39Z</time>
      </trkpt>
      <trkpt lat="47.33854" lon="6.38156">
        <ele>330.636</ele>
        <time>2015-10-03T08:17:40Z</time>
      </trkpt>
      <trkpt lat="47.33853" lon="6.38159">
        <ele>332.196</ele>
        <time>2015-10-03T08:17:41Z</time>
      </trkpt>
      <trkpt lat="47.33853" lon="6.38162">
        <ele>333.184</ele>
        <time>2015-10-03T08:17:42Z</time>
      </trkpt>
      <trkpt lat="47.33853" lon="6.38165">
        <ele>333.165</ele>
        <time>2015-10-03T08:17:43Z</time>
      </trkpt>
      <trkpt lat="47.33853" lon="6.38169">
        <ele>332.687</ele>
        <time>2015-10-03T08:17:44Z</time>
      </trkpt>
      <trkpt lat="47.33853" lon="6.38173">
        <ele>334.18</ele>
        <time>2015-10-03T08:17:45Z</time>
      </trkpt>
      <trkpt lat="47.33852" lon="6.38175">
        <ele>334.497</ele>
        <time>2015-10-03T08:17:46Z</time>
      </trkpt>
      <trkpt lat="47.33852" lon="6.38178">
        <ele>335.091</ele>
        <time>2015-10-03T08:17:47Z</time>
      </trkpt>
      <trkpt lat="47.33851" lon="6.3818">
        <ele>335.752</ele>
        <time>2015-10-03T08:17:48Z</time>
      </trkpt>
      <trkpt lat="47.3385" lon="6.38183">
        <ele>336.242</ele>
        <time>2015-10-03T08:17:49Z</time>
      </trkpt>
      <trkpt lat="47.3385" lon="6.38185">
        <ele>335.875</ele>
        <time>2015-10-03T08:17:50Z</time>
      </trkpt>
      <trkpt lat="47.33849" lon="6.38188">
        <ele>336.02</ele>
        <time>2015-10-03T08:17:51Z</time>
      </trkpt>
      <trkpt lat="47.33849" lon="6.38191">
        <ele>336.122</ele>
        <time>2015-10-03T08:17:52Z</time>
      </trkpt>
      <trkpt lat="47.33848" lon="6.38193">
        <ele>335.795</ele>
        <time>2015-10-03T08:17:53Z</time>
      </trkpt>
      <trkpt lat="47.33848" lon="6.38196">
        <ele>336.253</ele>
        <time>2015-10-03T08:17:54Z</time>
      </trkpt>
      <trkpt lat="47.33848" lon="6.38199">
        <ele>336.074</ele>
        <time>2015-10-03T08:17:55Z</time>
      </trkpt>
      <trkpt lat="47.33848" lon="6.38203">
        <ele>336.171</ele>
        <time>2015-10-03T08:17:56Z</time>
      </trkpt>
      <trkpt lat="47.33847" lon="6.38206">
        <ele>336.591</ele>
        <time>2015-10-03T08:17:57Z</time>
      </trkpt>
      <trkpt lat="47.33847" lon="6.38209">
        <ele>336.525</ele>
        <time>2015-10-03T08:17:58Z</time>
      </trkpt>
      <trkpt lat="47.33846" lon="6.38212">
        <ele>336.45</ele>
        <time>2015-10-03T08:17:59Z</time>
      </trkpt>
      <trkpt lat="47.33845" lon="6.38216">
        <ele>336.557</ele>
        <time>2015-10-03T08:18:00Z</time>
      </trkpt>
      <trkpt lat="47.33845" lon="6.38219">
        <ele>336.448</ele>
        <time>2015-10-03T08:18:01Z</time>
      </trkpt>
      <trkpt lat="47.33844" lon="6.38222">
        <ele>336.519</ele>
        <time>2015-10-03T08:18:02Z</time>
      </trkpt>
      <trkpt lat="47.33843" lon="6.38226">
        <ele>336.689</ele>
        <time>2015-10-03T08:18:03Z</time>
      </trkpt>
      <trkpt lat="47.33842" lon="6.3823">
        <ele>336.071</ele>
        <time>2015-10-03T08:18:04Z</time>
      </trkpt>
      <trkpt lat="47.33841" lon="6.38233">
        <ele>336.303</ele>
        <time>2015-10-03T08:18:05Z</time>
      </trkpt>
      <trkpt lat="47.33841" lon="6.38237">
        <ele>336.246</ele>
        <time>2015-10-03T08:18:06Z</time>
      </trkpt>
      <trkpt lat="47.3384" lon="6.38241">
        <ele>336.041</ele>
        <time>2015-10-03T08:18:07Z</time>
      </trkpt>
      <trkpt lat="47.33839" lon="6.38244">
        <ele>335.982</ele>
        <time>2015-10-03T08:18:08Z</time>
      </trkpt>
      <trkpt lat="47.33838" lon="6.38247">
        <ele>335.907</ele>
        <time>2015-10-03T08:18:09Z</time>
      </trkpt>
      <trkpt lat="47.33837" lon="6.38251">
        <ele>336.68</ele>
        <time>2015-10-03T08:18:10Z</time>
      </trkpt>
      <trkpt lat="47.33836" lon="6.38255">
        <ele>335.961</ele>
        <time>2015-10-03T08:18:11Z</time>
      </trkpt>
      <trkpt lat="47.33835" lon="6.38259">
        <ele>335.313</ele>
        <time>2015-10-03T08:18:12Z</time>
      </trkpt>
      <trkpt lat="47.33835" lon="6.38263">
        <ele>334.932</ele>
        <time>2015-10-03T08:18:13Z</time>
      </trkpt>
      <trkpt lat="47.33834" lon="6.38267">
        <ele>334.977</ele>
        <time>2015-10-03T08:18:14Z</time>
      </trkpt>
      <trkpt lat="47.33833" lon="6.3827">
        <ele>335.341</ele>
        <time>2015-10-03T08:18:15Z</time>
      </trkpt>
      <trkpt lat="47.33833" lon="6.38274">
        <ele>334.449</ele>
        <time>2015-10-03T08:18:16Z</time>
      </trkpt>
      <trkpt lat="47.33832" lon="6.38277">
        <ele>333.729</ele>
        <time>2015-10-03T08:18:17Z</time>
      </trkpt>
      <trkpt lat="47.33831" lon="6.38281">
        <ele>333.399</ele>
        <time>2015-10-03T08:18:18Z</time>
      </trkpt>
      <trkpt lat="47.33831" lon="6.38285">
        <ele>333.616</ele>
        <time>2015-10-03T08:18:19Z</time>
      </trkpt>
      <trkpt lat="47.3383" lon="6.38289">
        <ele>333.867</ele>
        <time>2015-10-03T08:18:20Z</time>
      </trkpt>
      <trkpt lat="47.3383" lon="6.38292">
        <ele>334.592</ele>
        <time>2015-10-03T08:18:21Z</time>
      </trkpt>
      <trkpt lat="47.33829" lon="6.38296">
        <ele>335.019</ele>
        <time>2015-10-03T08:18:22Z</time>
      </trkpt>
      <trkpt lat="47.33828" lon="6.383">
        <ele>334.817</ele>
        <time>2015-10-03T08:18:23Z</time>
      </trkpt>
      <trkpt lat="47.33828" lon="6.38305">
        <ele>334.783</ele>
        <time>2015-10-03T08:18:24Z</time>
      </trkpt>
      <trkpt lat="47.33827" lon="6.38309">
        <ele>335.373</ele>
        <time>2015-10-03T08:18:25Z</time>
      </trkpt>
      <trkpt lat="47.33826" lon="6.38313">
        <ele>335.627</ele>
        <time>2015-10-03T08:18:26Z</time>
      </trkpt>
      <trkpt lat="47.33826" lon="6.38318">
        <ele>335.246</ele>
        <time>2015-10-03T08:18:27Z</time>
      </trkpt>
      <trkpt lat="47.33826" lon="6.38322">
        <ele>335.613</ele>
        <time>2015-10-03T08:18:28Z</time>
      </trkpt>
      <trkpt lat="47.33825" lon="6.38326">
        <ele>336.289</ele>
        <time>2015-10-03T08:18:29Z</time>
      </trkpt>
      <trkpt lat="47.33825" lon="6.38331">
        <ele>336.61</ele>
        <time>2015-10-03T08:18:30Z</time>
      </trkpt>
      <trkpt lat="47.33825" lon="6.38335">
        <ele>336.716</ele>
        <time>2015-10-03T08:18:31Z</time>
      </trkpt>
      <trkpt lat="47.33825" lon="6.3834">
        <ele>336.768</ele>
        <time>2015-10-03T08:18:32Z</time>
      </trkpt>
      <trkpt lat="47.33825" lon="6.38344">
        <ele>336.696</ele>
        <time>2015-10-03T08:18:33Z</time>
      </trkpt>
      <trkpt lat="47.33825" lon="6.38349">
        <ele>335.867</ele>
        <time>2015-10-03T08:18:34Z</time>
      </trkpt>
      <trkpt lat="47.33825" lon="6.38353">
        <ele>336.008</ele>
        <time>2015-10-03T08:18:35Z</time>
      </trkpt>
      <trkpt lat="47.33826" lon="6.38358">
        <ele>335.727</ele>
        <time>2015-10-03T08:18:36Z</time>
      </trkpt>
      <trkpt lat="47.33826" lon="6.38362">
        <ele>335.891</ele>
        <time>2015-10-03T08:18:37Z</time>
      </trkpt>
      <trkpt lat="47.33826" lon="6.38367">
        <ele>336.531</ele>
        <time>2015-10-03T08:18:38Z</time>
      </trkpt>
      <trkpt lat="47.33827" lon="6.38371">
        <ele>336.158</ele>
        <time>2015-10-03T08:18:39Z</time>
      </trkpt>
      <trkpt lat="47.33827" lon="6.38376">
        <ele>336.337</ele>
        <time>2015-10-03T08:18:40Z</time>
      </trkpt>
      <trkpt lat="47.33827" lon="6.3838">
        <ele>336.199</ele>
        <time>2015-10-03T08:18:41Z</time>
      </trkpt>
      <trkpt lat="47.33827" lon="6.38385">
        <ele>335.804</ele>
        <time>2015-10-03T08:18:42Z</time>
      </trkpt>
      <trkpt lat="47.33826" lon="6.38389">
        <ele>336.642</ele>
        <time>2015-10-03T08:18:43Z</time>
      </trkpt>
      <trkpt lat="47.33826" lon="6.38393">
        <ele>336.707</ele>
        <time>2015-10-03T08:18:44Z</time>
      </trkpt>
      <trkpt lat="47.33825" lon="6.38398">
        <ele>336.302</ele>
        <time>2015-10-03T08:18:45Z</time>
      </trkpt>
      <trkpt lat="47.33825" lon="6.38402">
        <ele>337.163</ele>
        <time>2015-10-03T08:18:46Z</time>
      </trkpt>
      <trkpt lat="47.33824" lon="6.38406">
        <ele>337.53</ele>
        <time>2015-10-03T08:18:47Z</time>
      </trkpt>
      <trkpt lat="47.33824" lon="6.38411">
        <ele>337.247</ele>
        <time>2015-10-03T08:18:48Z</time>
      </trkpt>
      <trkpt lat="47.33824" lon="6.38415">
        <ele>337.628</ele>
        <time>2015-10-03T08:18:49Z</time>
      </trkpt>
      <trkpt lat="47.33823" lon="6.38419">
        <ele>337.829</ele>
        <time>2015-10-03T08:18:50Z</time>
      </trkpt>
      <trkpt lat="47.33823" lon="6.38423">
        <ele>338.46</ele>
        <time>2015-10-03T08:18:51Z</time>
      </trkpt>
      <trkpt lat="47.33823" lon="6.38427">
        <ele>338.455</ele>
        <time>2015-10-03T08:18:52Z</time>
      </trkpt>
      <trkpt lat="47.33824" lon="6.38431">
        <ele>338.867</ele>
        <time>2015-10-03T08:18:53Z</time>
      </trkpt>
      <trkpt lat="47.33824" lon="6.38435">
        <ele>339.15</ele>
        <time>2015-10-03T08:18:54Z</time>
      </trkpt>
      <trkpt lat="47.33825" lon="6.38439">
        <ele>339.534</ele>
        <time>2015-10-03T08:18:55Z</time>
      </trkpt>
      <trkpt lat="47.33825" lon="6.38443">
        <ele>339.604</ele>
        <time>2015-10-03T08:18:56Z</time>
      </trkpt>
      <trkpt lat="47.33825" lon="6.38447">
        <ele>339.945</ele>
        <time>2015-10-03T08:18:57Z</time>
      </trkpt>
      <trkpt lat="47.33826" lon="6.38451">
        <ele>339.739</ele>
        <time>2015-10-03T08:18:58Z</time>
      </trkpt>
      <trkpt lat="47.33826" lon="6.38455">
        <ele>339.568</ele>
        <time>2015-10-03T08:18:59Z</time>
      </trkpt>
      <trkpt lat="47.33826" lon="6.38458">
        <ele>340.297</ele>
        <time>2015-10-03T08:19:00Z</time>
      </trkpt>
      <trkpt lat="47.33827" lon="6.38462">
        <ele>340.39</ele>
        <time>2015-10-03T08:19:01Z</time>
      </trkpt>
      <trkpt lat="47.33827" lon="6.38465">
        <ele>340.496</ele>
        <time>2015-10-03T08:19:02Z</time>
      </trkpt>
      <trkpt lat="47.33828" lon="6.38469">
        <ele>340.694</ele>
        <time>2015-10-03T08:19:03Z</time>
      </trkpt>
      <trkpt lat="47.33828" lon="6.38472">
        <ele>340.738</ele>
        <time>2015-10-03T08:19:04Z</time>
      </trkpt>
      <trkpt lat="47.33828" lon="6.38475">
        <ele>340.859</ele>
        <time>2015-10-03T08:19:05Z</time>
      </trkpt>
      <trkpt lat="47.33829" lon="6.38478">
        <ele>341.417</ele>
        <time>2015-10-03T08:19:06Z</time>
      </trkpt>
      <trkpt lat="47.33829" lon="6.38481">
        <ele>341.025</ele>
        <time>2015-10-03T08:19:07Z</time>
      </trkpt>
      <trkpt lat="47.33829" lon="6.38484">
        <ele>340.775</ele>
        <time>2015-10-03T08:19:08Z</time>
      </trkpt>
      <trkpt lat="47.3383" lon="6.38487">
        <ele>340.971</ele>
        <time>2015-10-03T08:19:09Z</time>
      </trkpt>
      <trkpt lat="47.3383" lon="6.3849">
        <ele>341.337</ele>
        <time>2015-10-03T08:19:10Z</time>
      </trkpt>
      <trkpt lat="47.33831" lon="6.38493">
        <ele>341.596</ele>
        <time>2015-10-03T08:19:11Z</time>
      </trkpt>
      <trkpt lat="47.33831" lon="6.38496">
        <ele>341.775</ele>
        <time>2015-10-03T08:19:12Z</time>
      </trkpt>
      <trkpt lat="47.33832" lon="6.38499">
        <ele>342.164</ele>
        <time>2015-10-03T08:19:13Z</time>
      </trkpt>
      <trkpt lat="47.33833" lon="6.38502">
        <ele>341.624</ele>
        <time>2015-10-03T08:19:14Z</time>
      </trkpt>
      <trkpt lat="47.33833" lon="6.38505">
        <ele>342.257</ele>
        <time>2015-10-03T08:19:15Z</time>
      </trkpt>
      <trkpt lat="47.33834" lon="6.38508">
        <ele>341.999</ele>
        <time>2015-10-03T08:19:16Z</time>
      </trkpt>
      <trkpt lat="47.33835" lon="6.38511">
        <ele>342.124</ele>
        <time>2015-10-03T08:19:17Z</time>
      </trkpt>
      <trkpt lat="47.33836" lon="6.38515">
        <ele>342.247</ele>
        <time>2015-10-03T08:19:18Z</time>
      </trkpt>
      <trkpt lat="47.33836" lon="6.38518">
        <ele>342.227</ele>
        <time>2015-10-03T08:19:19Z</time>
      </trkpt>
      <trkpt lat="47.33837" lon="6.38521">
        <ele>342.323</ele>
        <time>2015-10-03T08:19:20Z</time>
      </trkpt>
      <trkpt lat="47.33838" lon="6.38525">
        <ele>342.508</ele>
        <time>2015-10-03T08:19:21Z</time>
      </trkpt>
      <trkpt lat="47.33839" lon="6.38528">
        <ele>342.606</ele>
        <time>2015-10-03T08:19:22Z</time>
      </trkpt>
      <trkpt lat="47.3384" lon="6.38532">
        <ele>342.975</ele>
        <time>2015-10-03T08:19:23Z</time>
      </trkpt>
      <trkpt lat="47.3384" lon="6.38535">
        <ele>343.084</ele>
        <time>2015-10-03T08:19:24Z</time>
      </trkpt>
      <trkpt lat="47.33841" lon="6.38538">
        <ele>343.15</ele>
        <time>2015-10-03T08:19:25Z</time>
      </trkpt>
      <trkpt lat="47.33842" lon="6.38542">
        <ele>343.268</ele>
        <time>2015-10-03T08:19:26Z</time>
      </trkpt>
      <trkpt lat="47.33843" lon="6.38545">
        <ele>344.484</ele>
        <time>2015-10-03T08:19:27Z</time>
      </trkpt>
      <trkpt lat="47.33844" lon="6.38548">
        <ele>344.532</ele>
        <time>2015-10-03T08:19:28Z</time>
      </trkpt>
      <trkpt lat="47.33845" lon="6.3855">
        <ele>344.205</ele>
        <time>2015-10-03T08:19:29Z</time>
      </trkpt>
      <trkpt lat="47.33846" lon="6.38553">
        <ele>344.305</ele>
        <time>2015-10-03T08:19:30Z</time>
      </trkpt>
      <trkpt lat="47.33846" lon="6.38555">
        <ele>344.726</ele>
        <time>2015-10-03T08:19:31Z</time>
      </trkpt>
      <trkpt lat="47.33847" lon="6.38557">
        <ele>344.491</ele>
        <time>2015-10-03T08:19:32Z</time>
      </trkpt>
      <trkpt lat="47.33847" lon="6.38558">
        <ele>344.574</ele>
        <time>2015-10-03T08:19:33Z</time>
      </trkpt>
      <trkpt lat="47.33848" lon="6.38559">
        <ele>345.177</ele>
        <time>2015-10-03T08:19:36Z</time>
      </trkpt>
      <trkpt lat="47.33848" lon="6.38562">
        <ele>345.354</ele>
        <time>2015-10-03T08:19:47Z</time>
      </trkpt>
      <trkpt lat="47.33848" lon="6.38559">
        <ele>345.187</ele>
        <time>2015-10-03T08:19:52Z</time>
      </trkpt>
      <trkpt lat="47.33849" lon="6.38561">
        <ele>345.243</ele>
        <time>2015-10-03T08:19:54Z</time>
      </trkpt>
      <trkpt lat="47.3385" lon="6.38563">
        <ele>345.164</ele>
        <time>2015-10-03T08:19:55Z</time>
      </trkpt>
      <trkpt lat="47.3385" lon="6.38566">
        <ele>345.31</ele>
        <time>2015-10-03T08:19:56Z</time>
      </trkpt>
      <trkpt lat="47.33851" lon="6.38569">
        <ele>345.027</ele>
        <time>2015-10-03T08:19:57Z</time>
      </trkpt>
      <trkpt lat="47.33851" lon="6.38572">
        <ele>345.358</ele>
        <time>2015-10-03T08:19:58Z</time>
      </trkpt>
      <trkpt lat="47.33852" lon="6.38575">
        <ele>345.131</ele>
        <time>2015-10-03T08:19:59Z</time>
      </trkpt>
      <trkpt lat="47.33853" lon="6.38579">
        <ele>345.08</ele>
        <time>2015-10-03T08:20:00Z</time>
      </trkpt>
      <trkpt lat="47.33854" lon="6.38582">
        <ele>345.236</ele>
        <time>2015-10-03T08:20:01Z</time>
      </trkpt>
      <trkpt lat="47.33855" lon="6.38586">
        <ele>345.843</ele>
        <time>2015-10-03T08:20:02Z</time>
      </trkpt>
      <trkpt lat="47.33856" lon="6.38589">
        <ele>346.564</ele>
        <time>2015-10-03T08:20:03Z</time>
      </trkpt>
      <trkpt lat="47.33857" lon="6.38593">
        <ele>346.482</ele>
        <time>2015-10-03T08:20:04Z</time>
      </trkpt>
      <trkpt lat="47.33858" lon="6.38597">
        <ele>346.982</ele>
        <time>2015-10-03T08:20:05Z</time>
      </trkpt>
      <trkpt lat="47.33858" lon="6.386">
        <ele>346.789</ele>
        <time>2015-10-03T08:20:06Z</time>
      </trkpt>
      <trkpt lat="47.33859" lon="6.38604">
        <ele>347.216</ele>
        <time>2015-10-03T08:20:07Z</time>
      </trkpt>
      <trkpt lat="47.3386" lon="6.38607">
        <ele>347.344</ele>
        <time>2015-10-03T08:20:08Z</time>
      </trkpt>
      <trkpt lat="47.33861" lon="6.38611">
        <ele>347.478</ele>
        <time>2015-10-03T08:20:09Z</time>
      </trkpt>
      <trkpt lat="47.33862" lon="6.38614">
        <ele>347.542</ele>
        <time>2015-10-03T08:20:10Z</time>
      </trkpt>
      <trkpt lat="47.33863" lon="6.38618">
        <ele>346.009</ele>
        <time>2015-10-03T08:20:11Z</time>
      </trkpt>
      <trkpt lat="47.33863" lon="6.38621">
        <ele>346.09</ele>
        <time>2015-10-03T08:20:12Z</time>
      </trkpt>
      <trkpt lat="47.33864" lon="6.38625">
        <ele>346.446</ele>
        <time>2015-10-03T08:20:13Z</time>
      </trkpt>
      <trkpt lat="47.33865" lon="6.38628">
        <ele>346.578</ele>
        <time>2015-10-03T08:20:14Z</time>
      </trkpt>
      <trkpt lat="47.33866" lon="6.38632">
        <ele>346.971</ele>
        <time>2015-10-03T08:20:15Z</time>
      </trkpt>
      <trkpt lat="47.33867" lon="6.38636">
        <ele>347.223</ele>
        <time>2015-10-03T08:20:16Z</time>
      </trkpt>
      <trkpt lat="47.33867" lon="6.3864">
        <ele>346.982</ele>
        <time>2015-10-03T08:20:17Z</time>
      </trkpt>
      <trkpt lat="47.33868" lon="6.38644">
        <ele>347.438</ele>
        <time>2015-10-03T08:20:18Z</time>
      </trkpt>
      <trkpt lat="47.33869" lon="6.38648">
        <ele>347.347</ele>
        <time>2015-10-03T08:20:19Z</time>
      </trkpt>
      <trkpt lat="47.3387" lon="6.38652">
        <ele>347.279</ele>
        <time>2015-10-03T08:20:20Z</time>
      </trkpt>
      <trkpt lat="47.33871" lon="6.38656">
        <ele>346.848</ele>
        <time>2015-10-03T08:20:21Z</time>
      </trkpt>
      <trkpt lat="47.33872" lon="6.3866">
        <ele>346.65</ele>
        <time>2015-10-03T08:20:22Z</time>
      </trkpt>
      <trkpt lat="47.33873" lon="6.38664">
        <ele>346.557</ele>
        <time>2015-10-03T08:20:23Z</time>
      </trkpt>
      <trkpt lat="47.33875" lon="6.38668">
        <ele>346.507</ele>
        <time>2015-10-03T08:20:24Z</time>
      </trkpt>
      <trkpt lat="47.33876" lon="6.38671">
        <ele>346.313</ele>
        <time>2015-10-03T08:20:25Z</time>
      </trkpt>
      <trkpt lat="47.33877" lon="6.38675">
        <ele>346.059</ele>
        <time>2015-10-03T08:20:26Z</time>
      </trkpt>
      <trkpt lat="47.33877" lon="6.38679">
        <ele>345.862</ele>
        <time>2015-10-03T08:20:27Z</time>
      </trkpt>
      <trkpt lat="47.33878" lon="6.38683">
        <ele>346.08</ele>
        <time>2015-10-03T08:20:28Z</time>
      </trkpt>
      <trkpt lat="47.33878" lon="6.38687">
        <ele>346.178</ele>
        <time>2015-10-03T08:20:29Z</time>
      </trkpt>
      <trkpt lat="47.33879" lon="6.38691">
        <ele>346.221</ele>
        <time>2015-10-03T08:20:30Z</time>
      </trkpt>
      <trkpt lat="47.3388" lon="6.38695">
        <ele>346.174</ele>
        <time>2015-10-03T08:20:31Z</time>
      </trkpt>
      <trkpt lat="47.33881" lon="6.38699">
        <ele>346.267</ele>
        <time>2015-10-03T08:20:32Z</time>
      </trkpt>
      <trkpt lat="47.33882" lon="6.38703">
        <ele>346.399</ele>
        <time>2015-10-03T08:20:33Z</time>
      </trkpt>
      <trkpt lat="47.33883" lon="6.38706">
        <ele>346.284</ele>
        <time>2015-10-03T08:20:34Z</time>
      </trkpt>
      <trkpt lat="47.33884" lon="6.3871">
        <ele>346.573</ele>
        <time>2015-10-03T08:20:35Z</time>
      </trkpt>
      <trkpt lat="47.33885" lon="6.38713">
        <ele>346.275</ele>
        <time>2015-10-03T08:20:36Z</time>
      </trkpt>
      <trkpt lat="47.33886" lon="6.38717">
        <ele>346.286</ele>
        <time>2015-10-03T08:20:37Z</time>
      </trkpt>
      <trkpt lat="47.33887" lon="6.38721">
        <ele>346.046</ele>
        <time>2015-10-03T08:20:38Z</time>
      </trkpt>
      <trkpt lat="47.33888" lon="6.38725">
        <ele>346.621</ele>
        <time>2015-10-03T08:20:39Z</time>
      </trkpt>
      <trkpt lat="47.33888" lon="6.38729">
        <ele>347.259</ele>
        <time>2015-10-03T08:20:40Z</time>
      </trkpt>
      <trkpt lat="47.33889" lon="6.38733">
        <ele>347.246</ele>
        <time>2015-10-03T08:20:41Z</time>
      </trkpt>
      <trkpt lat="47.33889" lon="6.38737">
        <ele>346.436</ele>
        <time>2015-10-03T08:20:42Z</time>
      </trkpt>
      <trkpt lat="47.3389" lon="6.38741">
        <ele>346.837</ele>
        <time>2015-10-03T08:20:43Z</time>
      </trkpt>
      <trkpt lat="47.3389" lon="6.38744">
        <ele>345.839</ele>
        <time>2015-10-03T08:20:44Z</time>
      </trkpt>
      <trkpt lat="47.33891" lon="6.38749">
        <ele>345.944</ele>
        <time>2015-10-03T08:20:45Z</time>
      </trkpt>
      <trkpt lat="47.33892" lon="6.38754">
        <ele>345.734</ele>
        <time>2015-10-03T08:20:46Z</time>
      </trkpt>
      <trkpt lat="47.33894" lon="6.38759">
        <ele>345.7</ele>
        <time>2015-10-03T08:20:47Z</time>
      </trkpt>
      <trkpt lat="47.33895" lon="6.38764">
        <ele>345.632</ele>
        <time>2015-10-03T08:20:48Z</time>
      </trkpt>
      <trkpt lat="47.33896" lon="6.38769">
        <ele>345.684</ele>
        <time>2015-10-03T08:20:49Z</time>
      </trkpt>
      <trkpt lat="47.33897" lon="6.38775">
        <ele>345.321</ele>
        <time>2015-10-03T08:20:50Z</time>
      </trkpt>
      <trkpt lat="47.33897" lon="6.3878">
        <ele>345.417</ele>
        <time>2015-10-03T08:20:51Z</time>
      </trkpt>
      <trkpt lat="47.33899" lon="6.38786">
        <ele>345.036</ele>
        <time>2015-10-03T08:20:52Z</time>
      </trkpt>
      <trkpt lat="47.33901" lon="6.38791">
        <ele>344.86</ele>
        <time>2015-10-03T08:20:53Z</time>
      </trkpt>
      <trkpt lat="47.33903" lon="6.38798">
        <ele>344.486</ele>
        <time>2015-10-03T08:20:54Z</time>
      </trkpt>
      <trkpt lat="47.33905" lon="6.38805">
        <ele>344.237</ele>
        <time>2015-10-03T08:20:55Z</time>
      </trkpt>
      <trkpt lat="47.33907" lon="6.38813">
        <ele>343.766</ele>
        <time>2015-10-03T08:20:56Z</time>
      </trkpt>
      <trkpt lat="47.33909" lon="6.3882">
        <ele>343.14</ele>
        <time>2015-10-03T08:20:57Z</time>
      </trkpt>
      <trkpt lat="47.33911" lon="6.38826">
        <ele>342.196</ele>
        <time>2015-10-03T08:20:58Z</time>
      </trkpt>
      <trkpt lat="47.33913" lon="6.38835">
        <ele>341.613</ele>
        <time>2015-10-03T08:20:59Z</time>
      </trkpt>
      <trkpt lat="47.33915" lon="6.38844">
        <ele>341.348</ele>
        <time>2015-10-03T08:21:00Z</time>
      </trkpt>
      <trkpt lat="47.33917" lon="6.38857">
        <ele>341.511</ele>
        <time>2015-10-03T08:21:01Z</time>
      </trkpt>
      <trkpt lat="47.33922" lon="6.38869">
        <ele>341.243</ele>
        <time>2015-10-03T08:21:02Z</time>
      </trkpt>
      <trkpt lat="47.33923" lon="6.38882">
        <ele>340.82</ele>
        <time>2015-10-03T08:21:03Z</time>
      </trkpt>
      <trkpt lat="47.33924" lon="6.38895">
        <ele>340.348</ele>
        <time>2015-10-03T08:21:04Z</time>
      </trkpt>
      <trkpt lat="47.33925" lon="6.38907">
        <ele>339.526</ele>
        <time>2015-10-03T08:21:05Z</time>
      </trkpt>
      <trkpt lat="47.33928" lon="6.38919">
        <ele>338.576</ele>
        <time>2015-10-03T08:21:06Z</time>
      </trkpt>
      <trkpt lat="47.33928" lon="6.38929">
        <ele>338.395</ele>
        <time>2015-10-03T08:21:07Z</time>
      </trkpt>
      <trkpt lat="47.33931" lon="6.38938">
        <ele>338.42</ele>
        <time>2015-10-03T08:21:08Z</time>
      </trkpt>
      <trkpt lat="47.33934" lon="6.38948">
        <ele>337.889</ele>
        <time>2015-10-03T08:21:09Z</time>
      </trkpt>
      <trkpt lat="47.33936" lon="6.3896">
        <ele>337.804</ele>
        <time>2015-10-03T08:21:10Z</time>
      </trkpt>
      <trkpt lat="47.33939" lon="6.3897">
        <ele>337.888</ele>
        <time>2015-10-03T08:21:11Z</time>
      </trkpt>
      <trkpt lat="47.33941" lon="6.38981">
        <ele>337.727</ele>
        <time>2015-10-03T08:21:12Z</time>
      </trkpt>
      <trkpt lat="47.33944" lon="6.3899">
        <ele>337.869</ele>
        <time>2015-10-03T08:21:13Z</time>
      </trkpt>
      <trkpt lat="47.33947" lon="6.39">
        <ele>338.242</ele>
        <time>2015-10-03T08:21:14Z</time>
      </trkpt>
      <trkpt lat="47.33951" lon="6.39012">
        <ele>338.233</ele>
        <time>2015-10-03T08:21:15Z</time>
      </trkpt>
      <trkpt lat="47.33953" lon="6.3902">
        <ele>338.117</ele>
        <time>2015-10-03T08:21:16Z</time>
      </trkpt>
      <trkpt lat="47.33955" lon="6.39029">
        <ele>338.894</ele>
        <time>2015-10-03T08:21:17Z</time>
      </trkpt>
      <trkpt lat="47.33958" lon="6.39038">
        <ele>339.154</ele>
        <time>2015-10-03T08:21:18Z</time>
      </trkpt>
      <trkpt lat="47.33961" lon="6.39048">
        <ele>339.318</ele>
        <time>2015-10-03T08:21:19Z</time>
      </trkpt>
      <trkpt lat="47.33964" lon="6.39056">
        <ele>339.351</ele>
        <time>2015-10-03T08:21:20Z</time>
      </trkpt>
      <trkpt lat="47.33967" lon="6.39066">
        <ele>339.567</ele>
        <time>2015-10-03T08:21:21Z</time>
      </trkpt>
      <trkpt lat="47.33968" lon="6.39071">
        <ele>338.791</ele>
        <time>2015-10-03T08:21:22Z</time>
      </trkpt>
      <trkpt lat="47.33971" lon="6.39079">
        <ele>339.356</ele>
        <time>2015-10-03T08:21:23Z</time>
      </trkpt>
      <trkpt lat="47.33973" lon="6.39086">
        <ele>339.634</ele>
        <time>2015-10-03T08:21:24Z</time>
      </trkpt>
      <trkpt lat="47.33975" lon="6.39093">
        <ele>339.913</ele>
        <time>2015-10-03T08:21:25Z</time>
      </trkpt>
      <trkpt lat="47.33976" lon="6.39098">
        <ele>340.084</ele>
        <time>2015-10-03T08:21:26Z</time>
      </trkpt>
      <trkpt lat="47.33977" lon="6.39104">
        <ele>340.724</ele>
        <time>2015-10-03T08:21:27Z</time>
      </trkpt>
      <trkpt lat="47.33979" lon="6.39112">
        <ele>340.519</ele>
        <time>2015-10-03T08:21:28Z</time>
      </trkpt>
      <trkpt lat="47.3398" lon="6.3912">
        <ele>340.22</ele>
        <time>2015-10-03T08:21:29Z</time>
      </trkpt>
      <trkpt lat="47.3398" lon="6.39127">
        <ele>340.881</ele>
        <time>2015-10-03T08:21:30Z</time>
      </trkpt>
      <trkpt lat="47.33983" lon="6.39133">
        <ele>341.019</ele>
        <time>2015-10-03T08:21:31Z</time>
      </trkpt>
      <trkpt lat="47.33986" lon="6.39139">
        <ele>340.707</ele>
        <time>2015-10-03T08:21:32Z</time>
      </trkpt>
      <trkpt lat="47.33989" lon="6.39146">
        <ele>340.382</ele>
        <time>2015-10-03T08:21:33Z</time>
      </trkpt>
      <trkpt lat="47.33991" lon="6.39152">
        <ele>340.406</ele>
        <time>2015-10-03T08:21:34Z</time>
      </trkpt>
      <trkpt lat="47.33991" lon="6.39157">
        <ele>340.738</ele>
        <time>2015-10-03T08:21:35Z</time>
      </trkpt>
      <trkpt lat="47.33991" lon="6.39161">
        <ele>341.34</ele>
        <time>2015-10-03T08:21:36Z</time>
      </trkpt>
      <trkpt lat="47.33992" lon="6.39167">
        <ele>341.412</ele>
        <time>2015-10-03T08:21:37Z</time>
      </trkpt>
      <trkpt lat="47.33993" lon="6.39172">
        <ele>340.967</ele>
        <time>2015-10-03T08:21:38Z</time>
      </trkpt>
      <trkpt lat="47.33996" lon="6.39179">
        <ele>340.846</ele>
        <time>2015-10-03T08:21:39Z</time>
      </trkpt>
      <trkpt lat="47.33998" lon="6.39184">
        <ele>340.959</ele>
        <time>2015-10-03T08:21:40Z</time>
      </trkpt>
      <trkpt lat="47.33998" lon="6.39189">
        <ele>341.073</ele>
        <time>2015-10-03T08:21:41Z</time>
      </trkpt>
      <trkpt lat="47.34" lon="6.39195">
        <ele>341.761</ele>
        <time>2015-10-03T08:21:42Z</time>
      </trkpt>
      <trkpt lat="47.34001" lon="6.39202">
        <ele>341.138</ele>
        <time>2015-10-03T08:21:43Z</time>
      </trkpt>
      <trkpt lat="47.34003" lon="6.39209">
        <ele>340.947</ele>
        <time>2015-10-03T08:21:44Z</time>
      </trkpt>
      <trkpt lat="47.34005" lon="6.39217">
        <ele>341.124</ele>
        <time>2015-10-03T08:21:45Z</time>
      </trkpt>
      <trkpt lat="47.34006" lon="6.39224">
        <ele>341.138</ele>
        <time>2015-10-03T08:21:46Z</time>
      </trkpt>
      <trkpt lat="47.34008" lon="6.39231">
        <ele>341.042</ele>
        <time>2015-10-03T08:21:47Z</time>
      </trkpt>
      <trkpt lat="47.3401" lon="6.39238">
        <ele>340.978</ele>
        <time>2015-10-03T08:21:48Z</time>
      </trkpt>
      <trkpt lat="47.34012" lon="6.39246">
        <ele>340.847</ele>
        <time>2015-10-03T08:21:49Z</time>
      </trkpt>
      <trkpt lat="47.34014" lon="6.39253">
        <ele>340.56</ele>
        <time>2015-10-03T08:21:50Z</time>
      </trkpt>
      <trkpt lat="47.34014" lon="6.3926">
        <ele>340.687</ele>
        <time>2015-10-03T08:21:51Z</time>
      </trkpt>
      <trkpt lat="47.34017" lon="6.3927">
        <ele>339.981</ele>
        <time>2015-10-03T08:21:52Z</time>
      </trkpt>
      <trkpt lat="47.34019" lon="6.39277">
        <ele>340.252</ele>
        <time>2015-10-03T08:21:53Z</time>
      </trkpt>
      <trkpt lat="47.34019" lon="6.39284">
        <ele>339.979</ele>
        <time>2015-10-03T08:21:54Z</time>
      </trkpt>
      <trkpt lat="47.3402" lon="6.39292">
        <ele>339.447</ele>
        <time>2015-10-03T08:21:55Z</time>
      </trkpt>
      <trkpt lat="47.34021" lon="6.393">
        <ele>339.176</ele>
        <time>2015-10-03T08:21:56Z</time>
      </trkpt>
      <trkpt lat="47.34022" lon="6.39307">
        <ele>338.753</ele>
        <time>2015-10-03T08:21:57Z</time>
      </trkpt>
      <trkpt lat="47.34023" lon="6.39315">
        <ele>338.495</ele>
        <time>2015-10-03T08:21:58Z</time>
      </trkpt>
      <trkpt lat="47.34024" lon="6.39325">
        <ele>338.19</ele>
        <time>2015-10-03T08:21:59Z</time>
      </trkpt>
      <trkpt lat="47.34025" lon="6.39333">
        <ele>337.862</ele>
        <time>2015-10-03T08:22:00Z</time>
      </trkpt>
      <trkpt lat="47.34026" lon="6.3934">
        <ele>337.964</ele>
        <time>2015-10-03T08:22:01Z</time>
      </trkpt>
      <trkpt lat="47.34027" lon="6.39348">
        <ele>337.863</ele>
        <time>2015-10-03T08:22:02Z</time>
      </trkpt>
      <trkpt lat="47.34028" lon="6.39355">
        <ele>337.579</ele>
        <time>2015-10-03T08:22:03Z</time>
      </trkpt>
      <trkpt lat="47.34029" lon="6.39362">
        <ele>337.512</ele>
        <time>2015-10-03T08:22:04Z</time>
      </trkpt>
      <trkpt lat="47.3403" lon="6.3937">
        <ele>337.412</ele>
        <time>2015-10-03T08:22:05Z</time>
      </trkpt>
      <trkpt lat="47.34031" lon="6.39378">
        <ele>337.237</ele>
        <time>2015-10-03T08:22:06Z</time>
      </trkpt>
      <trkpt lat="47.34033" lon="6.39387">
        <ele>336.911</ele>
        <time>2015-10-03T08:22:07Z</time>
      </trkpt>
      <trkpt lat="47.34034" lon="6.39395">
        <ele>336.276</ele>
        <time>2015-10-03T08:22:08Z</time>
      </trkpt>
      <trkpt lat="47.34035" lon="6.39404">
        <ele>336.078</ele>
        <time>2015-10-03T08:22:09Z</time>
      </trkpt>
      <trkpt lat="47.34036" lon="6.39414">
        <ele>335.445</ele>
        <time>2015-10-03T08:22:10Z</time>
      </trkpt>
      <trkpt lat="47.34037" lon="6.39424">
        <ele>334.555</ele>
        <time>2015-10-03T08:22:11Z</time>
      </trkpt>
      <trkpt lat="47.34037" lon="6.39435">
        <ele>333.667</ele>
        <time>2015-10-03T08:22:12Z</time>
      </trkpt>
      <trkpt lat="47.34037" lon="6.39447">
        <ele>333.587</ele>
        <time>2015-10-03T08:22:13Z</time>
      </trkpt>
      <trkpt lat="47.34037" lon="6.39457">
        <ele>333.229</ele>
        <time>2015-10-03T08:22:14Z</time>
      </trkpt>
      <trkpt lat="47.34036" lon="6.39468">
        <ele>332.491</ele>
        <time>2015-10-03T08:22:15Z</time>
      </trkpt>
      <trkpt lat="47.34036" lon="6.3948">
        <ele>332.196</ele>
        <time>2015-10-03T08:22:16Z</time>
      </trkpt>
      <trkpt lat="47.34037" lon="6.39492">
        <ele>331.888</ele>
        <time>2015-10-03T08:22:17Z</time>
      </trkpt>
      <trkpt lat="47.34037" lon="6.39503">
        <ele>331.023</ele>
        <time>2015-10-03T08:22:18Z</time>
      </trkpt>
      <trkpt lat="47.34037" lon="6.39515">
        <ele>330.694</ele>
        <time>2015-10-03T08:22:19Z</time>
      </trkpt>
      <trkpt lat="47.34036" lon="6.39527">
        <ele>330.195</ele>
        <time>2015-10-03T08:22:20Z</time>
      </trkpt>
      <trkpt lat="47.34035" lon="6.39539">
        <ele>330.237</ele>
        <time>2015-10-03T08:22:21Z</time>
      </trkpt>
      <trkpt lat="47.34035" lon="6.3955">
        <ele>330.176</ele>
        <time>2015-10-03T08:22:22Z</time>
      </trkpt>
      <trkpt lat="47.34035" lon="6.39563">
        <ele>330.28</ele>
        <time>2015-10-03T08:22:23Z</time>
      </trkpt>
      <trkpt lat="47.34034" lon="6.39574">
        <ele>330.616</ele>
        <time>2015-10-03T08:22:24Z</time>
      </trkpt>
      <trkpt lat="47.34032" lon="6.39586">
        <ele>330.728</ele>
        <time>2015-10-03T08:22:25Z</time>
      </trkpt>
      <trkpt lat="47.3403" lon="6.39597">
        <ele>330.429</ele>
        <time>2015-10-03T08:22:26Z</time>
      </trkpt>
      <trkpt lat="47.34028" lon="6.39609">
        <ele>330.239</ele>
        <time>2015-10-03T08:22:27Z</time>
      </trkpt>
      <trkpt lat="47.34026" lon="6.3962">
        <ele>330.258</ele>
        <time>2015-10-03T08:22:28Z</time>
      </trkpt>
      <trkpt lat="47.34023" lon="6.39632">
        <ele>330.136</ele>
        <time>2015-10-03T08:22:29Z</time>
      </trkpt>
      <trkpt lat="47.34018" lon="6.39643">
        <ele>329.904</ele>
        <time>2015-10-03T08:22:30Z</time>
      </trkpt>
      <trkpt lat="47.34015" lon="6.39654">
        <ele>329.361</ele>
        <time>2015-10-03T08:22:31Z</time>
      </trkpt>
      <trkpt lat="47.34012" lon="6.39664">
        <ele>328.203</ele>
        <time>2015-10-03T08:22:32Z</time>
      </trkpt>
      <trkpt lat="47.34009" lon="6.39676">
        <ele>327.929</ele>
        <time>2015-10-03T08:22:33Z</time>
      </trkpt>
      <trkpt lat="47.34007" lon="6.39689">
        <ele>327.445</ele>
        <time>2015-10-03T08:22:34Z</time>
      </trkpt>
      <trkpt lat="47.34006" lon="6.39702">
        <ele>326.7</ele>
        <time>2015-10-03T08:22:35Z</time>
      </trkpt>
      <trkpt lat="47.34007" lon="6.39715">
        <ele>326.357</ele>
        <time>2015-10-03T08:22:36Z</time>
      </trkpt>
      <trkpt lat="47.34011" lon="6.39728">
        <ele>325.769</ele>
        <time>2015-10-03T08:22:37Z</time>
      </trkpt>
      <trkpt lat="47.34013" lon="6.39737">
        <ele>327.117</ele>
        <time>2015-10-03T08:22:38Z</time>
      </trkpt>
      <trkpt lat="47.3402" lon="6.3975">
        <ele>325.321</ele>
        <time>2015-10-03T08:22:39Z</time>
      </trkpt>
      <trkpt lat="47.34027" lon="6.39758">
        <ele>324.874</ele>
        <time>2015-10-03T08:22:40Z</time>
      </trkpt>
      <trkpt lat="47.34034" lon="6.39763">
        <ele>325.284</ele>
        <time>2015-10-03T08:22:41Z</time>
      </trkpt>
      <trkpt lat="47.3404" lon="6.39768">
        <ele>325.131</ele>
        <time>2015-10-03T08:22:42Z</time>
      </trkpt>
      <trkpt lat="47.34047" lon="6.39774">
        <ele>325.48</ele>
        <time>2015-10-03T08:22:43Z</time>
      </trkpt>
      <trkpt lat="47.34053" lon="6.3978">
        <ele>325.584</ele>
        <time>2015-10-03T08:22:44Z</time>
      </trkpt>
      <trkpt lat="47.34058" lon="6.39787">
        <ele>324.602</ele>
        <time>2015-10-03T08:22:45Z</time>
      </trkpt>
      <trkpt lat="47.34064" lon="6.39793">
        <ele>324.54</ele>
        <time>2015-10-03T08:22:46Z</time>
      </trkpt>
      <trkpt lat="47.34068" lon="6.39801">
        <ele>324.668</ele>
        <time>2015-10-03T08:22:47Z</time>
      </trkpt>
      <trkpt lat="47.34073" lon="6.39808">
        <ele>324.584</ele>
        <time>2015-10-03T08:22:48Z</time>
      </trkpt>
      <trkpt lat="47.34075" lon="6.39815">
        <ele>325.336</ele>
        <time>2015-10-03T08:22:49Z</time>
      </trkpt>
      <trkpt lat="47.34078" lon="6.39822">
        <ele>325.81</ele>
        <time>2015-10-03T08:22:50Z</time>
      </trkpt>
      <trkpt lat="47.3408" lon="6.39829">
        <ele>326.822</ele>
        <time>2015-10-03T08:22:51Z</time>
      </trkpt>
      <trkpt lat="47.34083" lon="6.39836">
        <ele>327.428</ele>
        <time>2015-10-03T08:22:52Z</time>
      </trkpt>
      <trkpt lat="47.34084" lon="6.39843">
        <ele>327.782</ele>
        <time>2015-10-03T08:22:53Z</time>
      </trkpt>
      <trkpt lat="47.34087" lon="6.39851">
        <ele>328.071</ele>
        <time>2015-10-03T08:22:54Z</time>
      </trkpt>
      <trkpt lat="47.34089" lon="6.39857">
        <ele>328.444</ele>
        <time>2015-10-03T08:22:55Z</time>
      </trkpt>
      <trkpt lat="47.34092" lon="6.39863">
        <ele>328.578</ele>
        <time>2015-10-03T08:22:56Z</time>
      </trkpt>
      <trkpt lat="47.34094" lon="6.39869">
        <ele>328.72</ele>
        <time>2015-10-03T08:22:57Z</time>
      </trkpt>
      <trkpt lat="47.34097" lon="6.39875">
        <ele>329.086</ele>
        <time>2015-10-03T08:22:58Z</time>
      </trkpt>
      <trkpt lat="47.34099" lon="6.3988">
        <ele>329.156</ele>
        <time>2015-10-03T08:22:59Z</time>
      </trkpt>
      <trkpt lat="47.34101" lon="6.39886">
        <ele>327.906</ele>
        <time>2015-10-03T08:23:00Z</time>
      </trkpt>
      <trkpt lat="47.34102" lon="6.39891">
        <ele>328.239</ele>
        <time>2015-10-03T08:23:01Z</time>
      </trkpt>
      <trkpt lat="47.34104" lon="6.39896">
        <ele>328.11</ele>
        <time>2015-10-03T08:23:02Z</time>
      </trkpt>
      <trkpt lat="47.34104" lon="6.39902">
        <ele>328.619</ele>
        <time>2015-10-03T08:23:03Z</time>
      </trkpt>
      <trkpt lat="47.34107" lon="6.39908">
        <ele>328.119</ele>
        <time>2015-10-03T08:23:04Z</time>
      </trkpt>
      <trkpt lat="47.34108" lon="6.39914">
        <ele>328.255</ele>
        <time>2015-10-03T08:23:05Z</time>
      </trkpt>
      <trkpt lat="47.34109" lon="6.3992">
        <ele>328.703</ele>
        <time>2015-10-03T08:23:06Z</time>
      </trkpt>
      <trkpt lat="47.3411" lon="6.39926">
        <ele>329.058</ele>
        <time>2015-10-03T08:23:07Z</time>
      </trkpt>
      <trkpt lat="47.3411" lon="6.39932">
        <ele>328.83</ele>
        <time>2015-10-03T08:23:08Z</time>
      </trkpt>
      <trkpt lat="47.34111" lon="6.39938">
        <ele>328.562</ele>
        <time>2015-10-03T08:23:09Z</time>
      </trkpt>
      <trkpt lat="47.34111" lon="6.39944">
        <ele>328.822</ele>
        <time>2015-10-03T08:23:10Z</time>
      </trkpt>
      <trkpt lat="47.34111" lon="6.39949">
        <ele>329.281</ele>
        <time>2015-10-03T08:23:11Z</time>
      </trkpt>
      <trkpt lat="47.34111" lon="6.39954">
        <ele>329.21</ele>
        <time>2015-10-03T08:23:12Z</time>
      </trkpt>
      <trkpt lat="47.34111" lon="6.39959">
        <ele>329.134</ele>
        <time>2015-10-03T08:23:13Z</time>
      </trkpt>
      <trkpt lat="47.34111" lon="6.39965">
        <ele>328.697</ele>
        <time>2015-10-03T08:23:14Z</time>
      </trkpt>
      <trkpt lat="47.34111" lon="6.3997">
        <ele>328.681</ele>
        <time>2015-10-03T08:23:15Z</time>
      </trkpt>
      <trkpt lat="47.3411" lon="6.39976">
        <ele>329.241</ele>
        <time>2015-10-03T08:23:16Z</time>
      </trkpt>
      <trkpt lat="47.3411" lon="6.39983">
        <ele>329.132</ele>
        <time>2015-10-03T08:23:17Z</time>
      </trkpt>
      <trkpt lat="47.3411" lon="6.39989">
        <ele>328.306</ele>
        <time>2015-10-03T08:23:18Z</time>
      </trkpt>
      <trkpt lat="47.3411" lon="6.39995">
        <ele>328.557</ele>
        <time>2015-10-03T08:23:19Z</time>
      </trkpt>
      <trkpt lat="47.34109" lon="6.40002">
        <ele>327.68</ele>
        <time>2015-10-03T08:23:20Z</time>
      </trkpt>
      <trkpt lat="47.34108" lon="6.40011">
        <ele>327.386</ele>
        <time>2015-10-03T08:23:21Z</time>
      </trkpt>
      <trkpt lat="47.34106" lon="6.40019">
        <ele>327.584</ele>
        <time>2015-10-03T08:23:22Z</time>
      </trkpt>
      <trkpt lat="47.34104" lon="6.40026">
        <ele>327.104</ele>
        <time>2015-10-03T08:23:23Z</time>
      </trkpt>
      <trkpt lat="47.34103" lon="6.40032">
        <ele>326.926</ele>
        <time>2015-10-03T08:23:24Z</time>
      </trkpt>
      <trkpt lat="47.34101" lon="6.40039">
        <ele>327.083</ele>
        <time>2015-10-03T08:23:25Z</time>
      </trkpt>
      <trkpt lat="47.34098" lon="6.40046">
        <ele>327.191</ele>
        <time>2015-10-03T08:23:26Z</time>
      </trkpt>
      <trkpt lat="47.34096" lon="6.40053">
        <ele>327.094</ele>
        <time>2015-10-03T08:23:27Z</time>
      </trkpt>
      <trkpt lat="47.34095" lon="6.40059">
        <ele>327.284</ele>
        <time>2015-10-03T08:23:28Z</time>
      </trkpt>
      <trkpt lat="47.34093" lon="6.4007">
        <ele>326.27</ele>
        <time>2015-10-03T08:23:29Z</time>
      </trkpt>
      <trkpt lat="47.34091" lon="6.40077">
        <ele>326.142</ele>
        <time>2015-10-03T08:23:30Z</time>
      </trkpt>
      <trkpt lat="47.34089" lon="6.40083">
        <ele>326.681</ele>
        <time>2015-10-03T08:23:31Z</time>
      </trkpt>
      <trkpt lat="47.34086" lon="6.40091">
        <ele>326.636</ele>
        <time>2015-10-03T08:23:32Z</time>
      </trkpt>
      <trkpt lat="47.34085" lon="6.40097">
        <ele>326.584</ele>
        <time>2015-10-03T08:23:33Z</time>
      </trkpt>
      <trkpt lat="47.34083" lon="6.40103">
        <ele>326.811</ele>
        <time>2015-10-03T08:23:34Z</time>
      </trkpt>
      <trkpt lat="47.34082" lon="6.4011">
        <ele>327.156</ele>
        <time>2015-10-03T08:23:35Z</time>
      </trkpt>
      <trkpt lat="47.3408" lon="6.40117">
        <ele>327.997</ele>
        <time>2015-10-03T08:23:36Z</time>
      </trkpt>
      <trkpt lat="47.3408" lon="6.40122">
        <ele>327.974</ele>
        <time>2015-10-03T08:23:37Z</time>
      </trkpt>
      <trkpt lat="47.3408" lon="6.40129">
        <ele>327.692</ele>
        <time>2015-10-03T08:23:38Z</time>
      </trkpt>
      <trkpt lat="47.34079" lon="6.40135">
        <ele>327.609</ele>
        <time>2015-10-03T08:23:39Z</time>
      </trkpt>
      <trkpt lat="47.34078" lon="6.40141">
        <ele>326.658</ele>
        <time>2015-10-03T08:23:40Z</time>
      </trkpt>
      <trkpt lat="47.34076" lon="6.40146">
        <ele>326.819</ele>
        <time>2015-10-03T08:23:41Z</time>
      </trkpt>
      <trkpt lat="47.34076" lon="6.4015">
        <ele>326.586</ele>
        <time>2015-10-03T08:23:42Z</time>
      </trkpt>
      <trkpt lat="47.34076" lon="6.40156">
        <ele>327.354</ele>
        <time>2015-10-03T08:23:43Z</time>
      </trkpt>
      <trkpt lat="47.34076" lon="6.40162">
        <ele>327.789</ele>
        <time>2015-10-03T08:23:44Z</time>
      </trkpt>
      <trkpt lat="47.34076" lon="6.40168">
        <ele>327.543</ele>
        <time>2015-10-03T08:23:45Z</time>
      </trkpt>
      <trkpt lat="47.34076" lon="6.40174">
        <ele>328.851</ele>
        <time>2015-10-03T08:23:46Z</time>
      </trkpt>
      <trkpt lat="47.34076" lon="6.4018">
        <ele>329.786</ele>
        <time>2015-10-03T08:23:47Z</time>
      </trkpt>
      <trkpt lat="47.34077" lon="6.40185">
        <ele>330.162</ele>
        <time>2015-10-03T08:23:48Z</time>
      </trkpt>
      <trkpt lat="47.34077" lon="6.4019">
        <ele>330.781</ele>
        <time>2015-10-03T08:23:49Z</time>
      </trkpt>
      <trkpt lat="47.34077" lon="6.40195">
        <ele>331.782</ele>
        <time>2015-10-03T08:23:50Z</time>
      </trkpt>
      <trkpt lat="47.34077" lon="6.402">
        <ele>332.231</ele>
        <time>2015-10-03T08:23:51Z</time>
      </trkpt>
      <trkpt lat="47.34077" lon="6.40204">
        <ele>332.805</ele>
        <time>2015-10-03T08:23:52Z</time>
      </trkpt>
      <trkpt lat="47.34077" lon="6.40208">
        <ele>333.325</ele>
        <time>2015-10-03T08:23:53Z</time>
      </trkpt>
      <trkpt lat="47.34077" lon="6.40213">
        <ele>333.513</ele>
        <time>2015-10-03T08:23:54Z</time>
      </trkpt>
      <trkpt lat="47.34077" lon="6.40217">
        <ele>333.842</ele>
        <time>2015-10-03T08:23:55Z</time>
      </trkpt>
      <trkpt lat="47.34078" lon="6.40222">
        <ele>333.928</ele>
        <time>2015-10-03T08:23:56Z</time>
      </trkpt>
      <trkpt lat="47.34078" lon="6.40226">
        <ele>333.285</ele>
        <time>2015-10-03T08:23:57Z</time>
      </trkpt>
      <trkpt lat="47.34078" lon="6.40231">
        <ele>333.413</ele>
        <time>2015-10-03T08:23:58Z</time>
      </trkpt>
      <trkpt lat="47.34078" lon="6.40235">
        <ele>333.694</ele>
        <time>2015-10-03T08:23:59Z</time>
      </trkpt>
      <trkpt lat="47.34078" lon="6.40239">
        <ele>333.381</ele>
        <time>2015-10-03T08:24:00Z</time>
      </trkpt>
      <trkpt lat="47.34078" lon="6.40243">
        <ele>333.689</ele>
        <time>2015-10-03T08:24:01Z</time>
      </trkpt>
      <trkpt lat="47.34079" lon="6.40247">
        <ele>333.914</ele>
        <time>2015-10-03T08:24:02Z</time>
      </trkpt>
      <trkpt lat="47.34079" lon="6.40251">
        <ele>334.186</ele>
        <time>2015-10-03T08:24:03Z</time>
      </trkpt>
      <trkpt lat="47.3408" lon="6.40256">
        <ele>334.177</ele>
        <time>2015-10-03T08:24:04Z</time>
      </trkpt>
      <trkpt lat="47.3408" lon="6.40261">
        <ele>334.439</ele>
        <time>2015-10-03T08:24:05Z</time>
      </trkpt>
      <trkpt lat="47.3408" lon="6.40265">
        <ele>334.474</ele>
        <time>2015-10-03T08:24:06Z</time>
      </trkpt>
      <trkpt lat="47.3408" lon="6.4027">
        <ele>334.152</ele>
        <time>2015-10-03T08:24:07Z</time>
      </trkpt>
      <trkpt lat="47.34081" lon="6.40275">
        <ele>334.455</ele>
        <time>2015-10-03T08:24:08Z</time>
      </trkpt>
      <trkpt lat="47.34081" lon="6.4028">
        <ele>334.897</ele>
        <time>2015-10-03T08:24:09Z</time>
      </trkpt>
      <trkpt lat="47.34081" lon="6.40285">
        <ele>335.149</ele>
        <time>2015-10-03T08:24:10Z</time>
      </trkpt>
      <trkpt lat="47.34082" lon="6.4029">
        <ele>335.164</ele>
        <time>2015-10-03T08:24:11Z</time>
      </trkpt>
      <trkpt lat="47.34082" lon="6.40295">
        <ele>335.19</ele>
        <time>2015-10-03T08:24:12Z</time>
      </trkpt>
      <trkpt lat="47.34082" lon="6.40301">
        <ele>335.139</ele>
        <time>2015-10-03T08:24:13Z</time>
      </trkpt>
      <trkpt lat="47.34082" lon="6.40306">
        <ele>335.122</ele>
        <time>2015-10-03T08:24:14Z</time>
      </trkpt>
      <trkpt lat="47.34083" lon="6.40311">
        <ele>334.971</ele>
        <time>2015-10-03T08:24:15Z</time>
      </trkpt>
      <trkpt lat="47.34084" lon="6.40316">
        <ele>335.12</ele>
        <time>2015-10-03T08:24:16Z</time>
      </trkpt>
      <trkpt lat="47.34084" lon="6.40322">
        <ele>335.517</ele>
        <time>2015-10-03T08:24:17Z</time>
      </trkpt>
      <trkpt lat="47.34084" lon="6.40327">
        <ele>336.049</ele>
        <time>2015-10-03T08:24:18Z</time>
      </trkpt>
      <trkpt lat="47.34084" lon="6.40332">
        <ele>335.921</ele>
        <time>2015-10-03T08:24:19Z</time>
      </trkpt>
      <trkpt lat="47.34084" lon="6.40337">
        <ele>336.13</ele>
        <time>2015-10-03T08:24:20Z</time>
      </trkpt>
      <trkpt lat="47.34084" lon="6.40343">
        <ele>336.43</ele>
        <time>2015-10-03T08:24:21Z</time>
      </trkpt>
      <trkpt lat="47.34084" lon="6.40349">
        <ele>336.368</ele>
        <time>2015-10-03T08:24:22Z</time>
      </trkpt>
      <trkpt lat="47.34085" lon="6.40355">
        <ele>336.196</ele>
        <time>2015-10-03T08:24:23Z</time>
      </trkpt>
      <trkpt lat="47.34086" lon="6.40361">
        <ele>336.152</ele>
        <time>2015-10-03T08:24:24Z</time>
      </trkpt>
      <trkpt lat="47.34087" lon="6.40367">
        <ele>336.451</ele>
        <time>2015-10-03T08:24:25Z</time>
      </trkpt>
      <trkpt lat="47.34087" lon="6.40373">
        <ele>336.805</ele>
        <time>2015-10-03T08:24:26Z</time>
      </trkpt>
      <trkpt lat="47.34088" lon="6.40379">
        <ele>336.538</ele>
        <time>2015-10-03T08:24:27Z</time>
      </trkpt>
      <trkpt lat="47.34089" lon="6.40385">
        <ele>336.333</ele>
        <time>2015-10-03T08:24:28Z</time>
      </trkpt>
      <trkpt lat="47.34089" lon="6.40391">
        <ele>336.195</ele>
        <time>2015-10-03T08:24:29Z</time>
      </trkpt>
      <trkpt lat="47.3409" lon="6.40397">
        <ele>336.318</ele>
        <time>2015-10-03T08:24:30Z</time>
      </trkpt>
      <trkpt lat="47.34091" lon="6.40402">
        <ele>336.47</ele>
        <time>2015-10-03T08:24:31Z</time>
      </trkpt>
      <trkpt lat="47.34092" lon="6.40408">
        <ele>336.445</ele>
        <time>2015-10-03T08:24:32Z</time>
      </trkpt>
      <trkpt lat="47.34094" lon="6.40414">
        <ele>335.891</ele>
        <time>2015-10-03T08:24:33Z</time>
      </trkpt>
      <trkpt lat="47.34095" lon="6.4042">
        <ele>335.729</ele>
        <time>2015-10-03T08:24:34Z</time>
      </trkpt>
      <trkpt lat="47.34096" lon="6.40426">
        <ele>335.677</ele>
        <time>2015-10-03T08:24:35Z</time>
      </trkpt>
      <trkpt lat="47.34097" lon="6.40432">
        <ele>335.616</ele>
        <time>2015-10-03T08:24:36Z</time>
      </trkpt>
      <trkpt lat="47.34099" lon="6.40438">
        <ele>335.48</ele>
        <time>2015-10-03T08:24:37Z</time>
      </trkpt>
      <trkpt lat="47.341" lon="6.40444">
        <ele>335.515</ele>
        <time>2015-10-03T08:24:38Z</time>
      </trkpt>
      <trkpt lat="47.34101" lon="6.4045">
        <ele>335.58</ele>
        <time>2015-10-03T08:24:39Z</time>
      </trkpt>
      <trkpt lat="47.34102" lon="6.40456">
        <ele>335.491</ele>
        <time>2015-10-03T08:24:40Z</time>
      </trkpt>
      <trkpt lat="47.34102" lon="6.40462">
        <ele>335.496</ele>
        <time>2015-10-03T08:24:41Z</time>
      </trkpt>
      <trkpt lat="47.34103" lon="6.40468">
        <ele>335.226</ele>
        <time>2015-10-03T08:24:42Z</time>
      </trkpt>
      <trkpt lat="47.34104" lon="6.40474">
        <ele>335.58</ele>
        <time>2015-10-03T08:24:43Z</time>
      </trkpt>
      <trkpt lat="47.34104" lon="6.4048">
        <ele>335.8</ele>
        <time>2015-10-03T08:24:44Z</time>
      </trkpt>
      <trkpt lat="47.34104" lon="6.40486">
        <ele>336.462</ele>
        <time>2015-10-03T08:24:45Z</time>
      </trkpt>
      <trkpt lat="47.34105" lon="6.40492">
        <ele>336.493</ele>
        <time>2015-10-03T08:24:46Z</time>
      </trkpt>
      <trkpt lat="47.34105" lon="6.40498">
        <ele>336.699</ele>
        <time>2015-10-03T08:24:47Z</time>
      </trkpt>
      <trkpt lat="47.34105" lon="6.40504">
        <ele>336.674</ele>
        <time>2015-10-03T08:24:48Z</time>
      </trkpt>
      <trkpt lat="47.34105" lon="6.4051">
        <ele>336.838</ele>
        <time>2015-10-03T08:24:49Z</time>
      </trkpt>
      <trkpt lat="47.34105" lon="6.40515">
        <ele>337.048</ele>
        <time>2015-10-03T08:24:50Z</time>
      </trkpt>
      <trkpt lat="47.34105" lon="6.40521">
        <ele>337.247</ele>
        <time>2015-10-03T08:24:51Z</time>
      </trkpt>
      <trkpt lat="47.34104" lon="6.40526">
        <ele>337.192</ele>
        <time>2015-10-03T08:24:52Z</time>
      </trkpt>
      <trkpt lat="47.34104" lon="6.4053">
        <ele>337.094</ele>
        <time>2015-10-03T08:24:53Z</time>
      </trkpt>
      <trkpt lat="47.34104" lon="6.40535">
        <ele>337.39</ele>
        <time>2015-10-03T08:24:54Z</time>
      </trkpt>
      <trkpt lat="47.34103" lon="6.40539">
        <ele>337.38</ele>
        <time>2015-10-03T08:24:55Z</time>
      </trkpt>
      <trkpt lat="47.34103" lon="6.40543">
        <ele>337.012</ele>
        <time>2015-10-03T08:24:56Z</time>
      </trkpt>
      <trkpt lat="47.34102" lon="6.40547">
        <ele>337.39</ele>
        <time>2015-10-03T08:24:57Z</time>
      </trkpt>
      <trkpt lat="47.34102" lon="6.40551">
        <ele>337.564</ele>
        <time>2015-10-03T08:24:58Z</time>
      </trkpt>
      <trkpt lat="47.34101" lon="6.40556">
        <ele>337.749</ele>
        <time>2015-10-03T08:24:59Z</time>
      </trkpt>
      <trkpt lat="47.341" lon="6.4056">
        <ele>337.825</ele>
        <time>2015-10-03T08:25:00Z</time>
      </trkpt>
      <trkpt lat="47.341" lon="6.40564">
        <ele>338.141</ele>
        <time>2015-10-03T08:25:01Z</time>
      </trkpt>
      <trkpt lat="47.341" lon="6.40568">
        <ele>338.32</ele>
        <time>2015-10-03T08:25:02Z</time>
      </trkpt>
      <trkpt lat="47.34099" lon="6.40572">
        <ele>338.607</ele>
        <time>2015-10-03T08:25:03Z</time>
      </trkpt>
      <trkpt lat="47.34099" lon="6.40576">
        <ele>338.655</ele>
        <time>2015-10-03T08:25:04Z</time>
      </trkpt>
      <trkpt lat="47.34099" lon="6.4058">
        <ele>338.932</ele>
        <time>2015-10-03T08:25:05Z</time>
      </trkpt>
      <trkpt lat="47.341" lon="6.40584">
        <ele>339.153</ele>
        <time>2015-10-03T08:25:06Z</time>
      </trkpt>
      <trkpt lat="47.341" lon="6.40588">
        <ele>339.182</ele>
        <time>2015-10-03T08:25:07Z</time>
      </trkpt>
      <trkpt lat="47.34101" lon="6.40592">
        <ele>339.514</ele>
        <time>2015-10-03T08:25:08Z</time>
      </trkpt>
      <trkpt lat="47.34101" lon="6.40596">
        <ele>339.884</ele>
        <time>2015-10-03T08:25:09Z</time>
      </trkpt>
      <trkpt lat="47.34102" lon="6.406">
        <ele>339.803</ele>
        <time>2015-10-03T08:25:10Z</time>
      </trkpt>
      <trkpt lat="47.34103" lon="6.40604">
        <ele>339.906</ele>
        <time>2015-10-03T08:25:11Z</time>
      </trkpt>
      <trkpt lat="47.34104" lon="6.40609">
        <ele>339.677</ele>
        <time>2015-10-03T08:25:12Z</time>
      </trkpt>
      <trkpt lat="47.34105" lon="6.40613">
        <ele>339.804</ele>
        <time>2015-10-03T08:25:13Z</time>
      </trkpt>
      <trkpt lat="47.34106" lon="6.40617">
        <ele>340.439</ele>
        <time>2015-10-03T08:25:14Z</time>
      </trkpt>
      <trkpt lat="47.34107" lon="6.40621">
        <ele>340.492</ele>
        <time>2015-10-03T08:25:15Z</time>
      </trkpt>
      <trkpt lat="47.34109" lon="6.40624">
        <ele>340.836</ele>
        <time>2015-10-03T08:25:16Z</time>
      </trkpt>
      <trkpt lat="47.34111" lon="6.40628">
        <ele>341.175</ele>
        <time>2015-10-03T08:25:17Z</time>
      </trkpt>
      <trkpt lat="47.34113" lon="6.4063">
        <ele>341.26</ele>
        <time>2015-10-03T08:25:18Z</time>
      </trkpt>
      <trkpt lat="47.34115" lon="6.40633">
        <ele>341.127</ele>
        <time>2015-10-03T08:25:19Z</time>
      </trkpt>
      <trkpt lat="47.34117" lon="6.40636">
        <ele>340.815</ele>
        <time>2015-10-03T08:25:20Z</time>
      </trkpt>
      <trkpt lat="47.34119" lon="6.40639">
        <ele>340.078</ele>
        <time>2015-10-03T08:25:21Z</time>
      </trkpt>
      <trkpt lat="47.3412" lon="6.40642">
        <ele>340.171</ele>
        <time>2015-10-03T08:25:22Z</time>
      </trkpt>
      <trkpt lat="47.34122" lon="6.40645">
        <ele>339.288</ele>
        <time>2015-10-03T08:25:23Z</time>
      </trkpt>
      <trkpt lat="47.34124" lon="6.40649">
        <ele>339.717</ele>
        <time>2015-10-03T08:25:24Z</time>
      </trkpt>
      <trkpt lat="47.34126" lon="6.40652">
        <ele>340.227</ele>
        <time>2015-10-03T08:25:25Z</time>
      </trkpt>
      <trkpt lat="47.34127" lon="6.40655">
        <ele>340.62</ele>
        <time>2015-10-03T08:25:26Z</time>
      </trkpt>
      <trkpt lat="47.34128" lon="6.40658">
        <ele>341.123</ele>
        <time>2015-10-03T08:25:27Z</time>
      </trkpt>
      <trkpt lat="47.3413" lon="6.40663">
        <ele>340.586</ele>
        <time>2015-10-03T08:25:28Z</time>
      </trkpt>
      <trkpt lat="47.34131" lon="6.40667">
        <ele>340.519</ele>
        <time>2015-10-03T08:25:29Z</time>
      </trkpt>
      <trkpt lat="47.34133" lon="6.40671">
        <ele>341.134</ele>
        <time>2015-10-03T08:25:30Z</time>
      </trkpt>
      <trkpt lat="47.34134" lon="6.40675">
        <ele>341.601</ele>
        <time>2015-10-03T08:25:31Z</time>
      </trkpt>
      <trkpt lat="47.34135" lon="6.40678">
        <ele>341.659</ele>
        <time>2015-10-03T08:25:32Z</time>
      </trkpt>
      <trkpt lat="47.34137" lon="6.40682">
        <ele>341.617</ele>
        <time>2015-10-03T08:25:33Z</time>
      </trkpt>
      <trkpt lat="47.34138" lon="6.40686">
        <ele>341.97</ele>
        <time>2015-10-03T08:25:34Z</time>
      </trkpt>
      <trkpt lat="47.34139" lon="6.40689">
        <ele>342.925</ele>
        <time>2015-10-03T08:25:35Z</time>
      </trkpt>
      <trkpt lat="47.34141" lon="6.40692">
        <ele>343.212</ele>
        <time>2015-10-03T08:25:36Z</time>
      </trkpt>
      <trkpt lat="47.34143" lon="6.40695">
        <ele>343.278</ele>
        <time>2015-10-03T08:25:37Z</time>
      </trkpt>
      <trkpt lat="47.34144" lon="6.40698">
        <ele>343.565</ele>
        <time>2015-10-03T08:25:38Z</time>
      </trkpt>
      <trkpt lat="47.34146" lon="6.40701">
        <ele>344.434</ele>
        <time>2015-10-03T08:25:39Z</time>
      </trkpt>
      <trkpt lat="47.34148" lon="6.40704">
        <ele>344.036</ele>
        <time>2015-10-03T08:25:40Z</time>
      </trkpt>
      <trkpt lat="47.3415" lon="6.40707">
        <ele>344.134</ele>
        <time>2015-10-03T08:25:41Z</time>
      </trkpt>
      <trkpt lat="47.34152" lon="6.4071">
        <ele>344.517</ele>
        <time>2015-10-03T08:25:42Z</time>
      </trkpt>
      <trkpt lat="47.34153" lon="6.40714">
        <ele>344.907</ele>
        <time>2015-10-03T08:25:43Z</time>
      </trkpt>
      <trkpt lat="47.34155" lon="6.40717">
        <ele>344.968</ele>
        <time>2015-10-03T08:25:44Z</time>
      </trkpt>
      <trkpt lat="47.34157" lon="6.4072">
        <ele>345.258</ele>
        <time>2015-10-03T08:25:45Z</time>
      </trkpt>
      <trkpt lat="47.34159" lon="6.40723">
        <ele>345.322</ele>
        <time>2015-10-03T08:25:46Z</time>
      </trkpt>
      <trkpt lat="47.3416" lon="6.40726">
        <ele>345.564</ele>
        <time>2015-10-03T08:25:47Z</time>
      </trkpt>
      <trkpt lat="47.34162" lon="6.40729">
        <ele>345.666</ele>
        <time>2015-10-03T08:25:48Z</time>
      </trkpt>
      <trkpt lat="47.34164" lon="6.40733">
        <ele>345.557</ele>
        <time>2015-10-03T08:25:49Z</time>
      </trkpt>
      <trkpt lat="47.34166" lon="6.40737">
        <ele>345.703</ele>
        <time>2015-10-03T08:25:50Z</time>
      </trkpt>
      <trkpt lat="47.34168" lon="6.40741">
        <ele>345.518</ele>
        <time>2015-10-03T08:25:51Z</time>
      </trkpt>
      <trkpt lat="47.3417" lon="6.40745">
        <ele>345.902</ele>
        <time>2015-10-03T08:25:52Z</time>
      </trkpt>
      <trkpt lat="47.34172" lon="6.40749">
        <ele>345.806</ele>
        <time>2015-10-03T08:25:53Z</time>
      </trkpt>
      <trkpt lat="47.34175" lon="6.40754">
        <ele>346.423</ele>
        <time>2015-10-03T08:25:54Z</time>
      </trkpt>
      <trkpt lat="47.34177" lon="6.40759">
        <ele>345.829</ele>
        <time>2015-10-03T08:25:55Z</time>
      </trkpt>
      <trkpt lat="47.34179" lon="6.40764">
        <ele>345.845</ele>
        <time>2015-10-03T08:25:56Z</time>
      </trkpt>
      <trkpt lat="47.3418" lon="6.40769">
        <ele>346.024</ele>
        <time>2015-10-03T08:25:57Z</time>
      </trkpt>
      <trkpt lat="47.34182" lon="6.40774">
        <ele>346.013</ele>
        <time>2015-10-03T08:25:58Z</time>
      </trkpt>
      <trkpt lat="47.34184" lon="6.4078">
        <ele>346.069</ele>
        <time>2015-10-03T08:25:59Z</time>
      </trkpt>
      <trkpt lat="47.34185" lon="6.40785">
        <ele>346.168</ele>
        <time>2015-10-03T08:26:00Z</time>
      </trkpt>
      <trkpt lat="47.34186" lon="6.4079">
        <ele>346.55</ele>
        <time>2015-10-03T08:26:01Z</time>
      </trkpt>
      <trkpt lat="47.34188" lon="6.40796">
        <ele>346.562</ele>
        <time>2015-10-03T08:26:02Z</time>
      </trkpt>
      <trkpt lat="47.3419" lon="6.40801">
        <ele>346.382</ele>
        <time>2015-10-03T08:26:03Z</time>
      </trkpt>
      <trkpt lat="47.34191" lon="6.40807">
        <ele>346.102</ele>
        <time>2015-10-03T08:26:04Z</time>
      </trkpt>
      <trkpt lat="47.34193" lon="6.40813">
        <ele>345.995</ele>
        <time>2015-10-03T08:26:05Z</time>
      </trkpt>
      <trkpt lat="47.34195" lon="6.40818">
        <ele>345.483</ele>
        <time>2015-10-03T08:26:06Z</time>
      </trkpt>
      <trkpt lat="47.34197" lon="6.40823">
        <ele>346.349</ele>
        <time>2015-10-03T08:26:07Z</time>
      </trkpt>
      <trkpt lat="47.34199" lon="6.40827">
        <ele>346.499</ele>
        <time>2015-10-03T08:26:08Z</time>
      </trkpt>
      <trkpt lat="47.34202" lon="6.40831">
        <ele>346.559</ele>
        <time>2015-10-03T08:26:09Z</time>
      </trkpt>
      <trkpt lat="47.34205" lon="6.40836">
        <ele>347.113</ele>
        <time>2015-10-03T08:26:10Z</time>
      </trkpt>
      <trkpt lat="47.34207" lon="6.4084">
        <ele>347.444</ele>
        <time>2015-10-03T08:26:11Z</time>
      </trkpt>
      <trkpt lat="47.3421" lon="6.40845">
        <ele>347.469</ele>
        <time>2015-10-03T08:26:12Z</time>
      </trkpt>
      <trkpt lat="47.34212" lon="6.40848">
        <ele>347.635</ele>
        <time>2015-10-03T08:26:13Z</time>
      </trkpt>
      <trkpt lat="47.34215" lon="6.40851">
        <ele>347.143</ele>
        <time>2015-10-03T08:26:14Z</time>
      </trkpt>
      <trkpt lat="47.34218" lon="6.40854">
        <ele>347</ele>
        <time>2015-10-03T08:26:15Z</time>
      </trkpt>
      <trkpt lat="47.34221" lon="6.40859">
        <ele>346.918</ele>
        <time>2015-10-03T08:26:16Z</time>
      </trkpt>
      <trkpt lat="47.34223" lon="6.40863">
        <ele>347.512</ele>
        <time>2015-10-03T08:26:17Z</time>
      </trkpt>
      <trkpt lat="47.34225" lon="6.40867">
        <ele>347.687</ele>
        <time>2015-10-03T08:26:18Z</time>
      </trkpt>
      <trkpt lat="47.34228" lon="6.40871">
        <ele>347.408</ele>
        <time>2015-10-03T08:26:19Z</time>
      </trkpt>
      <trkpt lat="47.34229" lon="6.40876">
        <ele>347.432</ele>
        <time>2015-10-03T08:26:20Z</time>
      </trkpt>
      <trkpt lat="47.34231" lon="6.40882">
        <ele>347.914</ele>
        <time>2015-10-03T08:26:21Z</time>
      </trkpt>
      <trkpt lat="47.34231" lon="6.40886">
        <ele>348.544</ele>
        <time>2015-10-03T08:26:22Z</time>
      </trkpt>
      <trkpt lat="47.34232" lon="6.40889">
        <ele>348.431</ele>
        <time>2015-10-03T08:26:23Z</time>
      </trkpt>
      <trkpt lat="47.34233" lon="6.40893">
        <ele>348.567</ele>
        <time>2015-10-03T08:26:24Z</time>
      </trkpt>
      <trkpt lat="47.34234" lon="6.40897">
        <ele>349.336</ele>
        <time>2015-10-03T08:26:25Z</time>
      </trkpt>
      <trkpt lat="47.34235" lon="6.40903">
        <ele>348.274</ele>
        <time>2015-10-03T08:26:26Z</time>
      </trkpt>
      <trkpt lat="47.34236" lon="6.40909">
        <ele>348.049</ele>
        <time>2015-10-03T08:26:27Z</time>
      </trkpt>
      <trkpt lat="47.34237" lon="6.40915">
        <ele>347.297</ele>
        <time>2015-10-03T08:26:28Z</time>
      </trkpt>
      <trkpt lat="47.34239" lon="6.40921">
        <ele>347.393</ele>
        <time>2015-10-03T08:26:29Z</time>
      </trkpt>
      <trkpt lat="47.34241" lon="6.40928">
        <ele>347.404</ele>
        <time>2015-10-03T08:26:30Z</time>
      </trkpt>
      <trkpt lat="47.34243" lon="6.40933">
        <ele>347.829</ele>
        <time>2015-10-03T08:26:31Z</time>
      </trkpt>
      <trkpt lat="47.34245" lon="6.40937">
        <ele>347.426</ele>
        <time>2015-10-03T08:26:32Z</time>
      </trkpt>
      <trkpt lat="47.34248" lon="6.4094">
        <ele>346.875</ele>
        <time>2015-10-03T08:26:33Z</time>
      </trkpt>
      <trkpt lat="47.3425" lon="6.40943">
        <ele>346.863</ele>
        <time>2015-10-03T08:26:34Z</time>
      </trkpt>
      <trkpt lat="47.34255" lon="6.40954">
        <ele>346.464</ele>
        <time>2015-10-03T08:26:35Z</time>
      </trkpt>
      <trkpt lat="47.34259" lon="6.4096">
        <ele>346.315</ele>
        <time>2015-10-03T08:26:36Z</time>
      </trkpt>
      <trkpt lat="47.34261" lon="6.40965">
        <ele>346.122</ele>
        <time>2015-10-03T08:26:37Z</time>
      </trkpt>
      <trkpt lat="47.34264" lon="6.40969">
        <ele>346.121</ele>
        <time>2015-10-03T08:26:38Z</time>
      </trkpt>
      <trkpt lat="47.34266" lon="6.40974">
        <ele>346.813</ele>
        <time>2015-10-03T08:26:39Z</time>
      </trkpt>
      <trkpt lat="47.34269" lon="6.40979">
        <ele>347.025</ele>
        <time>2015-10-03T08:26:40Z</time>
      </trkpt>
      <trkpt lat="47.34271" lon="6.40983">
        <ele>346.596</ele>
        <time>2015-10-03T08:26:41Z</time>
      </trkpt>
      <trkpt lat="47.34273" lon="6.40987">
        <ele>346.557</ele>
        <time>2015-10-03T08:26:42Z</time>
      </trkpt>
      <trkpt lat="47.34276" lon="6.40992">
        <ele>346.469</ele>
        <time>2015-10-03T08:26:43Z</time>
      </trkpt>
      <trkpt lat="47.34279" lon="6.40998">
        <ele>344.321</ele>
        <time>2015-10-03T08:26:44Z</time>
      </trkpt>
      <trkpt lat="47.34281" lon="6.41001">
        <ele>343.686</ele>
        <time>2015-10-03T08:26:45Z</time>
      </trkpt>
      <trkpt lat="47.34283" lon="6.41004">
        <ele>344.727</ele>
        <time>2015-10-03T08:26:46Z</time>
      </trkpt>
      <trkpt lat="47.34285" lon="6.41008">
        <ele>343.68</ele>
        <time>2015-10-03T08:26:47Z</time>
      </trkpt>
      <trkpt lat="47.34286" lon="6.41013">
        <ele>343.73</ele>
        <time>2015-10-03T08:26:48Z</time>
      </trkpt>
      <trkpt lat="47.34288" lon="6.41016">
        <ele>343.951</ele>
        <time>2015-10-03T08:26:49Z</time>
      </trkpt>
      <trkpt lat="47.3429" lon="6.41021">
        <ele>344.511</ele>
        <time>2015-10-03T08:26:50Z</time>
      </trkpt>
      <trkpt lat="47.34291" lon="6.41025">
        <ele>344.549</ele>
        <time>2015-10-03T08:26:51Z</time>
      </trkpt>
      <trkpt lat="47.34293" lon="6.41029">
        <ele>344.384</ele>
        <time>2015-10-03T08:26:52Z</time>
      </trkpt>
      <trkpt lat="47.34294" lon="6.41032">
        <ele>344.468</ele>
        <time>2015-10-03T08:26:53Z</time>
      </trkpt>
      <trkpt lat="47.34294" lon="6.41036">
        <ele>344.91</ele>
        <time>2015-10-03T08:26:54Z</time>
      </trkpt>
      <trkpt lat="47.34296" lon="6.41039">
        <ele>345.131</ele>
        <time>2015-10-03T08:26:55Z</time>
      </trkpt>
      <trkpt lat="47.34297" lon="6.41043">
        <ele>345.39</ele>
        <time>2015-10-03T08:26:56Z</time>
      </trkpt>
      <trkpt lat="47.34298" lon="6.41047">
        <ele>345.801</ele>
        <time>2015-10-03T08:26:57Z</time>
      </trkpt>
      <trkpt lat="47.34299" lon="6.41051">
        <ele>346.146</ele>
        <time>2015-10-03T08:26:58Z</time>
      </trkpt>
      <trkpt lat="47.34301" lon="6.41055">
        <ele>346.227</ele>
        <time>2015-10-03T08:26:59Z</time>
      </trkpt>
      <trkpt lat="47.34302" lon="6.41059">
        <ele>346.313</ele>
        <time>2015-10-03T08:27:00Z</time>
      </trkpt>
      <trkpt lat="47.34303" lon="6.41063">
        <ele>346.393</ele>
        <time>2015-10-03T08:27:01Z</time>
      </trkpt>
      <trkpt lat="47.34304" lon="6.41068">
        <ele>346.651</ele>
        <time>2015-10-03T08:27:02Z</time>
      </trkpt>
      <trkpt lat="47.34305" lon="6.41072">
        <ele>346.863</ele>
        <time>2015-10-03T08:27:03Z</time>
      </trkpt>
      <trkpt lat="47.34307" lon="6.41077">
        <ele>346.976</ele>
        <time>2015-10-03T08:27:04Z</time>
      </trkpt>
      <trkpt lat="47.34308" lon="6.41081">
        <ele>347.266</ele>
        <time>2015-10-03T08:27:05Z</time>
      </trkpt>
      <trkpt lat="47.3431" lon="6.41086">
        <ele>347.287</ele>
        <time>2015-10-03T08:27:06Z</time>
      </trkpt>
      <trkpt lat="47.34312" lon="6.41091">
        <ele>346.154</ele>
        <time>2015-10-03T08:27:07Z</time>
      </trkpt>
      <trkpt lat="47.34314" lon="6.41096">
        <ele>346.822</ele>
        <time>2015-10-03T08:27:08Z</time>
      </trkpt>
      <trkpt lat="47.34316" lon="6.41102">
        <ele>346.565</ele>
        <time>2015-10-03T08:27:09Z</time>
      </trkpt>
      <trkpt lat="47.34317" lon="6.41105">
        <ele>347.059</ele>
        <time>2015-10-03T08:27:10Z</time>
      </trkpt>
      <trkpt lat="47.34319" lon="6.41108">
        <ele>347.115</ele>
        <time>2015-10-03T08:27:11Z</time>
      </trkpt>
      <trkpt lat="47.34321" lon="6.41112">
        <ele>347.244</ele>
        <time>2015-10-03T08:27:12Z</time>
      </trkpt>
      <trkpt lat="47.34323" lon="6.41116">
        <ele>347.123</ele>
        <time>2015-10-03T08:27:13Z</time>
      </trkpt>
      <trkpt lat="47.34325" lon="6.41119">
        <ele>346.803</ele>
        <time>2015-10-03T08:27:14Z</time>
      </trkpt>
      <trkpt lat="47.34328" lon="6.41124">
        <ele>347.062</ele>
        <time>2015-10-03T08:27:15Z</time>
      </trkpt>
      <trkpt lat="47.3433" lon="6.41128">
        <ele>347.319</ele>
        <time>2015-10-03T08:27:16Z</time>
      </trkpt>
      <trkpt lat="47.34332" lon="6.41132">
        <ele>347.121</ele>
        <time>2015-10-03T08:27:17Z</time>
      </trkpt>
      <trkpt lat="47.34333" lon="6.41137">
        <ele>346.52</ele>
        <time>2015-10-03T08:27:18Z</time>
      </trkpt>
      <trkpt lat="47.34336" lon="6.41142">
        <ele>346.447</ele>
        <time>2015-10-03T08:27:19Z</time>
      </trkpt>
      <trkpt lat="47.34338" lon="6.41146">
        <ele>346.792</ele>
        <time>2015-10-03T08:27:20Z</time>
      </trkpt>
      <trkpt lat="47.3434" lon="6.4115">
        <ele>347.215</ele>
        <time>2015-10-03T08:27:21Z</time>
      </trkpt>
      <trkpt lat="47.34342" lon="6.41154">
        <ele>347.54</ele>
        <time>2015-10-03T08:27:22Z</time>
      </trkpt>
      <trkpt lat="47.34344" lon="6.41158">
        <ele>347.458</ele>
        <time>2015-10-03T08:27:23Z</time>
      </trkpt>
      <trkpt lat="47.34346" lon="6.41161">
        <ele>347.938</ele>
        <time>2015-10-03T08:27:24Z</time>
      </trkpt>
      <trkpt lat="47.34348" lon="6.41165">
        <ele>348.013</ele>
        <time>2015-10-03T08:27:25Z</time>
      </trkpt>
      <trkpt lat="47.3435" lon="6.41168">
        <ele>348.002</ele>
        <time>2015-10-03T08:27:26Z</time>
      </trkpt>
      <trkpt lat="47.34352" lon="6.41171">
        <ele>348.155</ele>
        <time>2015-10-03T08:27:27Z</time>
      </trkpt>
      <trkpt lat="47.34355" lon="6.41174">
        <ele>348.084</ele>
        <time>2015-10-03T08:27:28Z</time>
      </trkpt>
      <trkpt lat="47.34359" lon="6.41176">
        <ele>348.431</ele>
        <time>2015-10-03T08:27:29Z</time>
      </trkpt>
      <trkpt lat="47.34362" lon="6.41178">
        <ele>348.214</ele>
        <time>2015-10-03T08:27:30Z</time>
      </trkpt>
      <trkpt lat="47.34366" lon="6.41181">
        <ele>348.055</ele>
        <time>2015-10-03T08:27:31Z</time>
      </trkpt>
      <trkpt lat="47.34369" lon="6.41184">
        <ele>348.032</ele>
        <time>2015-10-03T08:27:32Z</time>
      </trkpt>
      <trkpt lat="47.34372" lon="6.41188">
        <ele>347.948</ele>
        <time>2015-10-03T08:27:33Z</time>
      </trkpt>
      <trkpt lat="47.34376" lon="6.41189">
        <ele>347.754</ele>
        <time>2015-10-03T08:27:34Z</time>
      </trkpt>
      <trkpt lat="47.34381" lon="6.41191">
        <ele>346.921</ele>
        <time>2015-10-03T08:27:35Z</time>
      </trkpt>
      <trkpt lat="47.34385" lon="6.41195">
        <ele>346.795</ele>
        <time>2015-10-03T08:27:36Z</time>
      </trkpt>
      <trkpt lat="47.34389" lon="6.41199">
        <ele>346.687</ele>
        <time>2015-10-03T08:27:37Z</time>
      </trkpt>
      <trkpt lat="47.34393" lon="6.41202">
        <ele>346.641</ele>
        <time>2015-10-03T08:27:38Z</time>
      </trkpt>
      <trkpt lat="47.34397" lon="6.41205">
        <ele>346.684</ele>
        <time>2015-10-03T08:27:39Z</time>
      </trkpt>
      <trkpt lat="47.34401" lon="6.41209">
        <ele>346.762</ele>
        <time>2015-10-03T08:27:40Z</time>
      </trkpt>
      <trkpt lat="47.34405" lon="6.41212">
        <ele>346.604</ele>
        <time>2015-10-03T08:27:41Z</time>
      </trkpt>
      <trkpt lat="47.34409" lon="6.41215">
        <ele>346.801</ele>
        <time>2015-10-03T08:27:42Z</time>
      </trkpt>
      <trkpt lat="47.34412" lon="6.41218">
        <ele>346.734</ele>
        <time>2015-10-03T08:27:43Z</time>
      </trkpt>
      <trkpt lat="47.34415" lon="6.41219">
        <ele>346.123</ele>
        <time>2015-10-03T08:27:44Z</time>
      </trkpt>
      <trkpt lat="47.34418" lon="6.41221">
        <ele>346.548</ele>
        <time>2015-10-03T08:27:45Z</time>
      </trkpt>
      <trkpt lat="47.34421" lon="6.41224">
        <ele>346.509</ele>
        <time>2015-10-03T08:27:46Z</time>
      </trkpt>
      <trkpt lat="47.34424" lon="6.41227">
        <ele>346.209</ele>
        <time>2015-10-03T08:27:47Z</time>
      </trkpt>
      <trkpt lat="47.34427" lon="6.41229">
        <ele>346.159</ele>
        <time>2015-10-03T08:27:48Z</time>
      </trkpt>
      <trkpt lat="47.3443" lon="6.41231">
        <ele>346.396</ele>
        <time>2015-10-03T08:27:49Z</time>
      </trkpt>
      <trkpt lat="47.34434" lon="6.41234">
        <ele>345.214</ele>
        <time>2015-10-03T08:27:50Z</time>
      </trkpt>
      <trkpt lat="47.34437" lon="6.41237">
        <ele>344.733</ele>
        <time>2015-10-03T08:27:51Z</time>
      </trkpt>
      <trkpt lat="47.3444" lon="6.41239">
        <ele>344.342</ele>
        <time>2015-10-03T08:27:52Z</time>
      </trkpt>
      <trkpt lat="47.34444" lon="6.41242">
        <ele>344.335</ele>
        <time>2015-10-03T08:27:53Z</time>
      </trkpt>
      <trkpt lat="47.34447" lon="6.41245">
        <ele>344.133</ele>
        <time>2015-10-03T08:27:54Z</time>
      </trkpt>
      <trkpt lat="47.3445" lon="6.41247">
        <ele>344.096</ele>
        <time>2015-10-03T08:27:55Z</time>
      </trkpt>
      <trkpt lat="47.34453" lon="6.41249">
        <ele>344.005</ele>
        <time>2015-10-03T08:27:56Z</time>
      </trkpt>
      <trkpt lat="47.34456" lon="6.41252">
        <ele>343.889</ele>
        <time>2015-10-03T08:27:57Z</time>
      </trkpt>
      <trkpt lat="47.34459" lon="6.41255">
        <ele>343.803</ele>
        <time>2015-10-03T08:27:58Z</time>
      </trkpt>
      <trkpt lat="47.34462" lon="6.41258">
        <ele>343.212</ele>
        <time>2015-10-03T08:27:59Z</time>
      </trkpt>
      <trkpt lat="47.34465" lon="6.4126">
        <ele>343.103</ele>
        <time>2015-10-03T08:28:00Z</time>
      </trkpt>
      <trkpt lat="47.34468" lon="6.41263">
        <ele>342.775</ele>
        <time>2015-10-03T08:28:01Z</time>
      </trkpt>
      <trkpt lat="47.34471" lon="6.41267">
        <ele>341.9</ele>
        <time>2015-10-03T08:28:02Z</time>
      </trkpt>
      <trkpt lat="47.34474" lon="6.4127">
        <ele>342.31</ele>
        <time>2015-10-03T08:28:03Z</time>
      </trkpt>
      <trkpt lat="47.34476" lon="6.41274">
        <ele>342.334</ele>
        <time>2015-10-03T08:28:04Z</time>
      </trkpt>
      <trkpt lat="47.34479" lon="6.41278">
        <ele>341.952</ele>
        <time>2015-10-03T08:28:05Z</time>
      </trkpt>
      <trkpt lat="47.34483" lon="6.41282">
        <ele>341.59</ele>
        <time>2015-10-03T08:28:06Z</time>
      </trkpt>
      <trkpt lat="47.34485" lon="6.41288">
        <ele>341.411</ele>
        <time>2015-10-03T08:28:07Z</time>
      </trkpt>
      <trkpt lat="47.34489" lon="6.41293">
        <ele>341.209</ele>
        <time>2015-10-03T08:28:08Z</time>
      </trkpt>
      <trkpt lat="47.34492" lon="6.41299">
        <ele>341.522</ele>
        <time>2015-10-03T08:28:09Z</time>
      </trkpt>
      <trkpt lat="47.34494" lon="6.41305">
        <ele>341.699</ele>
        <time>2015-10-03T08:28:10Z</time>
      </trkpt>
      <trkpt lat="47.34497" lon="6.4131">
        <ele>341.89</ele>
        <time>2015-10-03T08:28:11Z</time>
      </trkpt>
      <trkpt lat="47.345" lon="6.41316">
        <ele>341.484</ele>
        <time>2015-10-03T08:28:12Z</time>
      </trkpt>
      <trkpt lat="47.34502" lon="6.41321">
        <ele>341.493</ele>
        <time>2015-10-03T08:28:13Z</time>
      </trkpt>
      <trkpt lat="47.34504" lon="6.41326">
        <ele>342.109</ele>
        <time>2015-10-03T08:28:14Z</time>
      </trkpt>
      <trkpt lat="47.34505" lon="6.41331">
        <ele>341.882</ele>
        <time>2015-10-03T08:28:15Z</time>
      </trkpt>
      <trkpt lat="47.34507" lon="6.41336">
        <ele>341.823</ele>
        <time>2015-10-03T08:28:16Z</time>
      </trkpt>
      <trkpt lat="47.34508" lon="6.41341">
        <ele>341.415</ele>
        <time>2015-10-03T08:28:17Z</time>
      </trkpt>
      <trkpt lat="47.3451" lon="6.41344">
        <ele>342.336</ele>
        <time>2015-10-03T08:28:18Z</time>
      </trkpt>
      <trkpt lat="47.34511" lon="6.41348">
        <ele>342.576</ele>
        <time>2015-10-03T08:28:19Z</time>
      </trkpt>
      <trkpt lat="47.34515" lon="6.41356">
        <ele>342.533</ele>
        <time>2015-10-03T08:28:20Z</time>
      </trkpt>
      <trkpt lat="47.34521" lon="6.41359">
        <ele>342.74</ele>
        <time>2015-10-03T08:28:21Z</time>
      </trkpt>
      <trkpt lat="47.34526" lon="6.41362">
        <ele>343.003</ele>
        <time>2015-10-03T08:28:22Z</time>
      </trkpt>
      <trkpt lat="47.34532" lon="6.41365">
        <ele>341.972</ele>
        <time>2015-10-03T08:28:23Z</time>
      </trkpt>
      <trkpt lat="47.34538" lon="6.41367">
        <ele>341.868</ele>
        <time>2015-10-03T08:28:24Z</time>
      </trkpt>
      <trkpt lat="47.34543" lon="6.4137">
        <ele>341.687</ele>
        <time>2015-10-03T08:28:25Z</time>
      </trkpt>
      <trkpt lat="47.3455" lon="6.41371">
        <ele>342.047</ele>
        <time>2015-10-03T08:28:26Z</time>
      </trkpt>
      <trkpt lat="47.34556" lon="6.41374">
        <ele>341.815</ele>
        <time>2015-10-03T08:28:27Z</time>
      </trkpt>
      <trkpt lat="47.34563" lon="6.41375">
        <ele>341.855</ele>
        <time>2015-10-03T08:28:28Z</time>
      </trkpt>
      <trkpt lat="47.34569" lon="6.41377">
        <ele>341.87</ele>
        <time>2015-10-03T08:28:29Z</time>
      </trkpt>
      <trkpt lat="47.34576" lon="6.41378">
        <ele>341.463</ele>
        <time>2015-10-03T08:28:30Z</time>
      </trkpt>
      <trkpt lat="47.34583" lon="6.41381">
        <ele>341.141</ele>
        <time>2015-10-03T08:28:31Z</time>
      </trkpt>
      <trkpt lat="47.34587" lon="6.41386">
        <ele>341.54</ele>
        <time>2015-10-03T08:28:32Z</time>
      </trkpt>
      <trkpt lat="47.34592" lon="6.41391">
        <ele>341.335</ele>
        <time>2015-10-03T08:28:33Z</time>
      </trkpt>
      <trkpt lat="47.34596" lon="6.41395">
        <ele>341.335</ele>
        <time>2015-10-03T08:28:34Z</time>
      </trkpt>
      <trkpt lat="47.34601" lon="6.414">
        <ele>341.019</ele>
        <time>2015-10-03T08:28:35Z</time>
      </trkpt>
      <trkpt lat="47.34605" lon="6.41404">
        <ele>340.851</ele>
        <time>2015-10-03T08:28:36Z</time>
      </trkpt>
      <trkpt lat="47.3461" lon="6.41409">
        <ele>340.441</ele>
        <time>2015-10-03T08:28:37Z</time>
      </trkpt>
      <trkpt lat="47.34614" lon="6.41413">
        <ele>340.465</ele>
        <time>2015-10-03T08:28:38Z</time>
      </trkpt>
      <trkpt lat="47.34618" lon="6.41416">
        <ele>339.803</ele>
        <time>2015-10-03T08:28:39Z</time>
      </trkpt>
      <trkpt lat="47.34621" lon="6.41419">
        <ele>340.475</ele>
        <time>2015-10-03T08:28:40Z</time>
      </trkpt>
      <trkpt lat="47.34626" lon="6.41424">
        <ele>340.412</ele>
        <time>2015-10-03T08:28:41Z</time>
      </trkpt>
      <trkpt lat="47.34631" lon="6.41427">
        <ele>339.853</ele>
        <time>2015-10-03T08:28:42Z</time>
      </trkpt>
      <trkpt lat="47.34636" lon="6.41431">
        <ele>339.451</ele>
        <time>2015-10-03T08:28:43Z</time>
      </trkpt>
      <trkpt lat="47.34641" lon="6.41435">
        <ele>339.408</ele>
        <time>2015-10-03T08:28:44Z</time>
      </trkpt>
      <trkpt lat="47.34645" lon="6.41439">
        <ele>339.456</ele>
        <time>2015-10-03T08:28:45Z</time>
      </trkpt>
      <trkpt lat="47.34651" lon="6.41442">
        <ele>339.302</ele>
        <time>2015-10-03T08:28:46Z</time>
      </trkpt>
      <trkpt lat="47.34657" lon="6.41446">
        <ele>339.485</ele>
        <time>2015-10-03T08:28:47Z</time>
      </trkpt>
      <trkpt lat="47.34663" lon="6.41449">
        <ele>339.759</ele>
        <time>2015-10-03T08:28:48Z</time>
      </trkpt>
      <trkpt lat="47.3467" lon="6.41451">
        <ele>339.99</ele>
        <time>2015-10-03T08:28:49Z</time>
      </trkpt>
      <trkpt lat="47.34676" lon="6.41454">
        <ele>339.897</ele>
        <time>2015-10-03T08:28:50Z</time>
      </trkpt>
      <trkpt lat="47.34683" lon="6.41457">
        <ele>339.731</ele>
        <time>2015-10-03T08:28:51Z</time>
      </trkpt>
      <trkpt lat="47.34692" lon="6.4146">
        <ele>339.932</ele>
        <time>2015-10-03T08:28:52Z</time>
      </trkpt>
      <trkpt lat="47.34697" lon="6.41463">
        <ele>340.054</ele>
        <time>2015-10-03T08:28:53Z</time>
      </trkpt>
      <trkpt lat="47.34702" lon="6.41466">
        <ele>340.051</ele>
        <time>2015-10-03T08:28:54Z</time>
      </trkpt>
      <trkpt lat="47.34708" lon="6.41469">
        <ele>340.231</ele>
        <time>2015-10-03T08:28:55Z</time>
      </trkpt>
      <trkpt lat="47.34713" lon="6.41472">
        <ele>340.265</ele>
        <time>2015-10-03T08:28:56Z</time>
      </trkpt>
      <trkpt lat="47.34717" lon="6.41477">
        <ele>340.689</ele>
        <time>2015-10-03T08:28:57Z</time>
      </trkpt>
      <trkpt lat="47.34722" lon="6.41481">
        <ele>340.414</ele>
        <time>2015-10-03T08:28:58Z</time>
      </trkpt>
      <trkpt lat="47.34726" lon="6.41486">
        <ele>340.217</ele>
        <time>2015-10-03T08:28:59Z</time>
      </trkpt>
      <trkpt lat="47.3473" lon="6.41491">
        <ele>340.339</ele>
        <time>2015-10-03T08:29:00Z</time>
      </trkpt>
      <trkpt lat="47.34734" lon="6.41495">
        <ele>340.244</ele>
        <time>2015-10-03T08:29:01Z</time>
      </trkpt>
      <trkpt lat="47.34738" lon="6.41499">
        <ele>339.833</ele>
        <time>2015-10-03T08:29:02Z</time>
      </trkpt>
      <trkpt lat="47.34741" lon="6.41503">
        <ele>340.054</ele>
        <time>2015-10-03T08:29:03Z</time>
      </trkpt>
      <trkpt lat="47.34745" lon="6.41507">
        <ele>340.532</ele>
        <time>2015-10-03T08:29:04Z</time>
      </trkpt>
      <trkpt lat="47.34748" lon="6.41512">
        <ele>340.877</ele>
        <time>2015-10-03T08:29:05Z</time>
      </trkpt>
      <trkpt lat="47.34751" lon="6.41517">
        <ele>341.378</ele>
        <time>2015-10-03T08:29:06Z</time>
      </trkpt>
      <trkpt lat="47.34755" lon="6.41521">
        <ele>341.56</ele>
        <time>2015-10-03T08:29:07Z</time>
      </trkpt>
      <trkpt lat="47.34758" lon="6.41524">
        <ele>341.323</ele>
        <time>2015-10-03T08:29:08Z</time>
      </trkpt>
      <trkpt lat="47.34761" lon="6.41528">
        <ele>340.725</ele>
        <time>2015-10-03T08:29:09Z</time>
      </trkpt>
      <trkpt lat="47.34765" lon="6.41533">
        <ele>340.387</ele>
        <time>2015-10-03T08:29:10Z</time>
      </trkpt>
      <trkpt lat="47.34767" lon="6.41537">
        <ele>340.3</ele>
        <time>2015-10-03T08:29:11Z</time>
      </trkpt>
      <trkpt lat="47.34771" lon="6.41541">
        <ele>340.551</ele>
        <time>2015-10-03T08:29:12Z</time>
      </trkpt>
      <trkpt lat="47.34774" lon="6.41545">
        <ele>340.303</ele>
        <time>2015-10-03T08:29:13Z</time>
      </trkpt>
      <trkpt lat="47.34778" lon="6.41549">
        <ele>340.503</ele>
        <time>2015-10-03T08:29:14Z</time>
      </trkpt>
      <trkpt lat="47.34781" lon="6.41553">
        <ele>340.533</ele>
        <time>2015-10-03T08:29:15Z</time>
      </trkpt>
      <trkpt lat="47.34784" lon="6.41557">
        <ele>340.619</ele>
        <time>2015-10-03T08:29:16Z</time>
      </trkpt>
      <trkpt lat="47.34788" lon="6.4156">
        <ele>340.978</ele>
        <time>2015-10-03T08:29:17Z</time>
      </trkpt>
      <trkpt lat="47.34791" lon="6.41564">
        <ele>340.923</ele>
        <time>2015-10-03T08:29:18Z</time>
      </trkpt>
      <trkpt lat="47.34795" lon="6.41567">
        <ele>341.031</ele>
        <time>2015-10-03T08:29:19Z</time>
      </trkpt>
      <trkpt lat="47.34799" lon="6.4157">
        <ele>340.963</ele>
        <time>2015-10-03T08:29:20Z</time>
      </trkpt>
      <trkpt lat="47.34804" lon="6.41573">
        <ele>341.572</ele>
        <time>2015-10-03T08:29:21Z</time>
      </trkpt>
      <trkpt lat="47.34808" lon="6.41576">
        <ele>340.476</ele>
        <time>2015-10-03T08:29:22Z</time>
      </trkpt>
      <trkpt lat="47.34813" lon="6.41579">
        <ele>339.387</ele>
        <time>2015-10-03T08:29:23Z</time>
      </trkpt>
      <trkpt lat="47.34817" lon="6.41582">
        <ele>339.746</ele>
        <time>2015-10-03T08:29:24Z</time>
      </trkpt>
      <trkpt lat="47.34823" lon="6.41585">
        <ele>340.76</ele>
        <time>2015-10-03T08:29:25Z</time>
      </trkpt>
      <trkpt lat="47.34827" lon="6.41589">
        <ele>341.082</ele>
        <time>2015-10-03T08:29:26Z</time>
      </trkpt>
      <trkpt lat="47.34832" lon="6.41592">
        <ele>341.116</ele>
        <time>2015-10-03T08:29:27Z</time>
      </trkpt>
      <trkpt lat="47.34836" lon="6.41597">
        <ele>341.186</ele>
        <time>2015-10-03T08:29:28Z</time>
      </trkpt>
      <trkpt lat="47.34841" lon="6.41601">
        <ele>340.5</ele>
        <time>2015-10-03T08:29:29Z</time>
      </trkpt>
      <trkpt lat="47.34846" lon="6.41605">
        <ele>339.698</ele>
        <time>2015-10-03T08:29:30Z</time>
      </trkpt>
      <trkpt lat="47.34851" lon="6.4161">
        <ele>339.715</ele>
        <time>2015-10-03T08:29:31Z</time>
      </trkpt>
      <trkpt lat="47.34855" lon="6.41616">
        <ele>339.332</ele>
        <time>2015-10-03T08:29:32Z</time>
      </trkpt>
      <trkpt lat="47.34858" lon="6.41622">
        <ele>339.765</ele>
        <time>2015-10-03T08:29:33Z</time>
      </trkpt>
      <trkpt lat="47.34862" lon="6.41626">
        <ele>338.973</ele>
        <time>2015-10-03T08:29:34Z</time>
      </trkpt>
      <trkpt lat="47.34865" lon="6.41631">
        <ele>338.142</ele>
        <time>2015-10-03T08:29:35Z</time>
      </trkpt>
      <trkpt lat="47.34869" lon="6.41636">
        <ele>338.684</ele>
        <time>2015-10-03T08:29:36Z</time>
      </trkpt>
      <trkpt lat="47.34873" lon="6.41639">
        <ele>337.725</ele>
        <time>2015-10-03T08:29:37Z</time>
      </trkpt>
      <trkpt lat="47.34877" lon="6.41643">
        <ele>337.685</ele>
        <time>2015-10-03T08:29:38Z</time>
      </trkpt>
      <trkpt lat="47.3488" lon="6.41647">
        <ele>337.564</ele>
        <time>2015-10-03T08:29:39Z</time>
      </trkpt>
      <trkpt lat="47.34883" lon="6.41651">
        <ele>338.382</ele>
        <time>2015-10-03T08:29:40Z</time>
      </trkpt>
      <trkpt lat="47.34887" lon="6.41656">
        <ele>338.776</ele>
        <time>2015-10-03T08:29:41Z</time>
      </trkpt>
      <trkpt lat="47.34891" lon="6.4166">
        <ele>339.056</ele>
        <time>2015-10-03T08:29:42Z</time>
      </trkpt>
      <trkpt lat="47.34894" lon="6.41665">
        <ele>339.191</ele>
        <time>2015-10-03T08:29:43Z</time>
      </trkpt>
      <trkpt lat="47.34898" lon="6.41669">
        <ele>339.501</ele>
        <time>2015-10-03T08:29:44Z</time>
      </trkpt>
      <trkpt lat="47.34902" lon="6.41673">
        <ele>339.276</ele>
        <time>2015-10-03T08:29:45Z</time>
      </trkpt>
      <trkpt lat="47.34906" lon="6.41675">
        <ele>339.096</ele>
        <time>2015-10-03T08:29:46Z</time>
      </trkpt>
      <trkpt lat="47.3491" lon="6.41679">
        <ele>338.54</ele>
        <time>2015-10-03T08:29:47Z</time>
      </trkpt>
      <trkpt lat="47.34913" lon="6.41683">
        <ele>338.389</ele>
        <time>2015-10-03T08:29:48Z</time>
      </trkpt>
      <trkpt lat="47.34917" lon="6.41686">
        <ele>338.786</ele>
        <time>2015-10-03T08:29:49Z</time>
      </trkpt>
      <trkpt lat="47.3492" lon="6.41691">
        <ele>338.308</ele>
        <time>2015-10-03T08:29:50Z</time>
      </trkpt>
      <trkpt lat="47.34924" lon="6.41694">
        <ele>338.467</ele>
        <time>2015-10-03T08:29:51Z</time>
      </trkpt>
      <trkpt lat="47.34928" lon="6.41698">
        <ele>338.056</ele>
        <time>2015-10-03T08:29:52Z</time>
      </trkpt>
      <trkpt lat="47.34931" lon="6.41701">
        <ele>338.273</ele>
        <time>2015-10-03T08:29:53Z</time>
      </trkpt>
      <trkpt lat="47.34934" lon="6.41705">
        <ele>338.505</ele>
        <time>2015-10-03T08:29:54Z</time>
      </trkpt>
      <trkpt lat="47.34938" lon="6.41709">
        <ele>338.51</ele>
        <time>2015-10-03T08:29:55Z</time>
      </trkpt>
      <trkpt lat="47.34941" lon="6.41713">
        <ele>338.489</ele>
        <time>2015-10-03T08:29:56Z</time>
      </trkpt>
      <trkpt lat="47.34945" lon="6.41716">
        <ele>338.596</ele>
        <time>2015-10-03T08:29:57Z</time>
      </trkpt>
      <trkpt lat="47.34948" lon="6.4172">
        <ele>338.551</ele>
        <time>2015-10-03T08:29:58Z</time>
      </trkpt>
      <trkpt lat="47.34952" lon="6.41723">
        <ele>338.875</ele>
        <time>2015-10-03T08:29:59Z</time>
      </trkpt>
      <trkpt lat="47.34955" lon="6.41727">
        <ele>338.821</ele>
        <time>2015-10-03T08:30:00Z</time>
      </trkpt>
      <trkpt lat="47.34959" lon="6.4173">
        <ele>339.112</ele>
        <time>2015-10-03T08:30:01Z</time>
      </trkpt>
      <trkpt lat="47.34962" lon="6.41732">
        <ele>339.509</ele>
        <time>2015-10-03T08:30:02Z</time>
      </trkpt>
      <trkpt lat="47.34966" lon="6.41735">
        <ele>339.124</ele>
        <time>2015-10-03T08:30:03Z</time>
      </trkpt>
      <trkpt lat="47.3497" lon="6.41738">
        <ele>339.415</ele>
        <time>2015-10-03T08:30:04Z</time>
      </trkpt>
      <trkpt lat="47.34974" lon="6.41741">
        <ele>339.493</ele>
        <time>2015-10-03T08:30:05Z</time>
      </trkpt>
      <trkpt lat="47.34978" lon="6.41745">
        <ele>339.632</ele>
        <time>2015-10-03T08:30:06Z</time>
      </trkpt>
      <trkpt lat="47.34981" lon="6.41748">
        <ele>339.843</ele>
        <time>2015-10-03T08:30:07Z</time>
      </trkpt>
      <trkpt lat="47.34985" lon="6.41751">
        <ele>339.589</ele>
        <time>2015-10-03T08:30:08Z</time>
      </trkpt>
      <trkpt lat="47.34989" lon="6.41754">
        <ele>339.09</ele>
        <time>2015-10-03T08:30:09Z</time>
      </trkpt>
      <trkpt lat="47.34993" lon="6.41757">
        <ele>339.312</ele>
        <time>2015-10-03T08:30:10Z</time>
      </trkpt>
      <trkpt lat="47.34996" lon="6.41759">
        <ele>338.927</ele>
        <time>2015-10-03T08:30:11Z</time>
      </trkpt>
      <trkpt lat="47.35" lon="6.41761">
        <ele>337.879</ele>
        <time>2015-10-03T08:30:12Z</time>
      </trkpt>
      <trkpt lat="47.35004" lon="6.41763">
        <ele>337.716</ele>
        <time>2015-10-03T08:30:13Z</time>
      </trkpt>
      <trkpt lat="47.35008" lon="6.41765">
        <ele>338.884</ele>
        <time>2015-10-03T08:30:14Z</time>
      </trkpt>
      <trkpt lat="47.35012" lon="6.41767">
        <ele>339.244</ele>
        <time>2015-10-03T08:30:15Z</time>
      </trkpt>
      <trkpt lat="47.35016" lon="6.41769">
        <ele>339.271</ele>
        <time>2015-10-03T08:30:16Z</time>
      </trkpt>
      <trkpt lat="47.35019" lon="6.41771">
        <ele>339.382</ele>
        <time>2015-10-03T08:30:17Z</time>
      </trkpt>
      <trkpt lat="47.35023" lon="6.41774">
        <ele>339.622</ele>
        <time>2015-10-03T08:30:18Z</time>
      </trkpt>
      <trkpt lat="47.35026" lon="6.41776">
        <ele>339.724</ele>
        <time>2015-10-03T08:30:19Z</time>
      </trkpt>
      <trkpt lat="47.3503" lon="6.41778">
        <ele>339.37</ele>
        <time>2015-10-03T08:30:20Z</time>
      </trkpt>
      <trkpt lat="47.35034" lon="6.41781">
        <ele>339.454</ele>
        <time>2015-10-03T08:30:21Z</time>
      </trkpt>
      <trkpt lat="47.35038" lon="6.41783">
        <ele>339.29</ele>
        <time>2015-10-03T08:30:22Z</time>
      </trkpt>
      <trkpt lat="47.35042" lon="6.41786">
        <ele>339.21</ele>
        <time>2015-10-03T08:30:23Z</time>
      </trkpt>
      <trkpt lat="47.35046" lon="6.41788">
        <ele>339.09</ele>
        <time>2015-10-03T08:30:24Z</time>
      </trkpt>
      <trkpt lat="47.35049" lon="6.41791">
        <ele>338.455</ele>
        <time>2015-10-03T08:30:25Z</time>
      </trkpt>
      <trkpt lat="47.35053" lon="6.41793">
        <ele>338.728</ele>
        <time>2015-10-03T08:30:26Z</time>
      </trkpt>
      <trkpt lat="47.35057" lon="6.41795">
        <ele>339.163</ele>
        <time>2015-10-03T08:30:27Z</time>
      </trkpt>
      <trkpt lat="47.35061" lon="6.41798">
        <ele>339.619</ele>
        <time>2015-10-03T08:30:28Z</time>
      </trkpt>
      <trkpt lat="47.35064" lon="6.418">
        <ele>340.074</ele>
        <time>2015-10-03T08:30:29Z</time>
      </trkpt>
      <trkpt lat="47.35068" lon="6.41803">
        <ele>340.036</ele>
        <time>2015-10-03T08:30:30Z</time>
      </trkpt>
      <trkpt lat="47.35072" lon="6.41805">
        <ele>339.939</ele>
        <time>2015-10-03T08:30:31Z</time>
      </trkpt>
      <trkpt lat="47.35076" lon="6.41808">
        <ele>340.61</ele>
        <time>2015-10-03T08:30:32Z</time>
      </trkpt>
      <trkpt lat="47.35079" lon="6.4181">
        <ele>340.948</ele>
        <time>2015-10-03T08:30:33Z</time>
      </trkpt>
      <trkpt lat="47.35083" lon="6.41813">
        <ele>340.916</ele>
        <time>2015-10-03T08:30:34Z</time>
      </trkpt>
      <trkpt lat="47.35087" lon="6.41816">
        <ele>341.106</ele>
        <time>2015-10-03T08:30:35Z</time>
      </trkpt>
      <trkpt lat="47.3509" lon="6.41819">
        <ele>341.115</ele>
        <time>2015-10-03T08:30:36Z</time>
      </trkpt>
      <trkpt lat="47.35094" lon="6.41822">
        <ele>341.275</ele>
        <time>2015-10-03T08:30:37Z</time>
      </trkpt>
      <trkpt lat="47.35097" lon="6.41825">
        <ele>341.148</ele>
        <time>2015-10-03T08:30:38Z</time>
      </trkpt>
      <trkpt lat="47.351" lon="6.41828">
        <ele>341.719</ele>
        <time>2015-10-03T08:30:39Z</time>
      </trkpt>
      <trkpt lat="47.35104" lon="6.4183">
        <ele>341.867</ele>
        <time>2015-10-03T08:30:40Z</time>
      </trkpt>
      <trkpt lat="47.35107" lon="6.41833">
        <ele>341.63</ele>
        <time>2015-10-03T08:30:41Z</time>
      </trkpt>
      <trkpt lat="47.35111" lon="6.41836">
        <ele>341.534</ele>
        <time>2015-10-03T08:30:42Z</time>
      </trkpt>
      <trkpt lat="47.35115" lon="6.41838">
        <ele>341.665</ele>
        <time>2015-10-03T08:30:43Z</time>
      </trkpt>
      <trkpt lat="47.35118" lon="6.4184">
        <ele>341.417</ele>
        <time>2015-10-03T08:30:44Z</time>
      </trkpt>
      <trkpt lat="47.35122" lon="6.41843">
        <ele>341.831</ele>
        <time>2015-10-03T08:30:45Z</time>
      </trkpt>
      <trkpt lat="47.35126" lon="6.41844">
        <ele>341.803</ele>
        <time>2015-10-03T08:30:46Z</time>
      </trkpt>
      <trkpt lat="47.35129" lon="6.41847">
        <ele>341.597</ele>
        <time>2015-10-03T08:30:47Z</time>
      </trkpt>
      <trkpt lat="47.35133" lon="6.41849">
        <ele>341.486</ele>
        <time>2015-10-03T08:30:48Z</time>
      </trkpt>
      <trkpt lat="47.35136" lon="6.41851">
        <ele>341.626</ele>
        <time>2015-10-03T08:30:49Z</time>
      </trkpt>
      <trkpt lat="47.3514" lon="6.41853">
        <ele>341.803</ele>
        <time>2015-10-03T08:30:50Z</time>
      </trkpt>
      <trkpt lat="47.35143" lon="6.41856">
        <ele>342.471</ele>
        <time>2015-10-03T08:30:51Z</time>
      </trkpt>
      <trkpt lat="47.35146" lon="6.41858">
        <ele>342.121</ele>
        <time>2015-10-03T08:30:52Z</time>
      </trkpt>
      <trkpt lat="47.3515" lon="6.41861">
        <ele>342.548</ele>
        <time>2015-10-03T08:30:53Z</time>
      </trkpt>
      <trkpt lat="47.35153" lon="6.41863">
        <ele>341.955</ele>
        <time>2015-10-03T08:30:54Z</time>
      </trkpt>
      <trkpt lat="47.35157" lon="6.41865">
        <ele>342.212</ele>
        <time>2015-10-03T08:30:55Z</time>
      </trkpt>
      <trkpt lat="47.3516" lon="6.41867">
        <ele>342.374</ele>
        <time>2015-10-03T08:30:56Z</time>
      </trkpt>
      <trkpt lat="47.35163" lon="6.41869">
        <ele>343.97</ele>
        <time>2015-10-03T08:30:57Z</time>
      </trkpt>
      <trkpt lat="47.35167" lon="6.41871">
        <ele>343.463</ele>
        <time>2015-10-03T08:30:58Z</time>
      </trkpt>
      <trkpt lat="47.3517" lon="6.41872">
        <ele>343.722</ele>
        <time>2015-10-03T08:30:59Z</time>
      </trkpt>
      <trkpt lat="47.35174" lon="6.41874">
        <ele>343.513</ele>
        <time>2015-10-03T08:31:00Z</time>
      </trkpt>
      <trkpt lat="47.35178" lon="6.41875">
        <ele>343.664</ele>
        <time>2015-10-03T08:31:01Z</time>
      </trkpt>
      <trkpt lat="47.35181" lon="6.41877">
        <ele>344.369</ele>
        <time>2015-10-03T08:31:02Z</time>
      </trkpt>
      <trkpt lat="47.35184" lon="6.41878">
        <ele>344.6</ele>
        <time>2015-10-03T08:31:03Z</time>
      </trkpt>
      <trkpt lat="47.35188" lon="6.41879">
        <ele>344.706</ele>
        <time>2015-10-03T08:31:04Z</time>
      </trkpt>
      <trkpt lat="47.35191" lon="6.41881">
        <ele>344.915</ele>
        <time>2015-10-03T08:31:05Z</time>
      </trkpt>
      <trkpt lat="47.35195" lon="6.41882">
        <ele>345.071</ele>
        <time>2015-10-03T08:31:06Z</time>
      </trkpt>
      <trkpt lat="47.35198" lon="6.41884">
        <ele>345.384</ele>
        <time>2015-10-03T08:31:07Z</time>
      </trkpt>
      <trkpt lat="47.35202" lon="6.41885">
        <ele>344.45</ele>
        <time>2015-10-03T08:31:08Z</time>
      </trkpt>
      <trkpt lat="47.35205" lon="6.41887">
        <ele>344.825</ele>
        <time>2015-10-03T08:31:09Z</time>
      </trkpt>
      <trkpt lat="47.35209" lon="6.41888">
        <ele>344.893</ele>
        <time>2015-10-03T08:31:10Z</time>
      </trkpt>
      <trkpt lat="47.35212" lon="6.41891">
        <ele>345.097</ele>
        <time>2015-10-03T08:31:11Z</time>
      </trkpt>
      <trkpt lat="47.35216" lon="6.41893">
        <ele>345.043</ele>
        <time>2015-10-03T08:31:12Z</time>
      </trkpt>
      <trkpt lat="47.35219" lon="6.41896">
        <ele>344.784</ele>
        <time>2015-10-03T08:31:13Z</time>
      </trkpt>
      <trkpt lat="47.35223" lon="6.41898">
        <ele>344.876</ele>
        <time>2015-10-03T08:31:14Z</time>
      </trkpt>
      <trkpt lat="47.35226" lon="6.419">
        <ele>345.131</ele>
        <time>2015-10-03T08:31:15Z</time>
      </trkpt>
      <trkpt lat="47.3523" lon="6.41902">
        <ele>344.909</ele>
        <time>2015-10-03T08:31:16Z</time>
      </trkpt>
      <trkpt lat="47.35233" lon="6.41904">
        <ele>344.961</ele>
        <time>2015-10-03T08:31:17Z</time>
      </trkpt>
      <trkpt lat="47.35236" lon="6.41907">
        <ele>345.119</ele>
        <time>2015-10-03T08:31:18Z</time>
      </trkpt>
      <trkpt lat="47.35239" lon="6.4191">
        <ele>345.4</ele>
        <time>2015-10-03T08:31:19Z</time>
      </trkpt>
      <trkpt lat="47.35242" lon="6.41912">
        <ele>345.394</ele>
        <time>2015-10-03T08:31:20Z</time>
      </trkpt>
      <trkpt lat="47.35245" lon="6.41916">
        <ele>345.616</ele>
        <time>2015-10-03T08:31:21Z</time>
      </trkpt>
      <trkpt lat="47.35247" lon="6.41919">
        <ele>345.819</ele>
        <time>2015-10-03T08:31:22Z</time>
      </trkpt>
      <trkpt lat="47.35249" lon="6.41922">
        <ele>345.802</ele>
        <time>2015-10-03T08:31:23Z</time>
      </trkpt>
      <trkpt lat="47.35251" lon="6.41925">
        <ele>346.024</ele>
        <time>2015-10-03T08:31:24Z</time>
      </trkpt>
      <trkpt lat="47.35253" lon="6.41928">
        <ele>346.179</ele>
        <time>2015-10-03T08:31:25Z</time>
      </trkpt>
      <trkpt lat="47.35255" lon="6.41933">
        <ele>346.068</ele>
        <time>2015-10-03T08:31:26Z</time>
      </trkpt>
      <trkpt lat="47.35257" lon="6.41937">
        <ele>346.009</ele>
        <time>2015-10-03T08:31:27Z</time>
      </trkpt>
      <trkpt lat="47.35258" lon="6.41941">
        <ele>346.433</ele>
        <time>2015-10-03T08:31:28Z</time>
      </trkpt>
      <trkpt lat="47.35259" lon="6.41945">
        <ele>346.585</ele>
        <time>2015-10-03T08:31:29Z</time>
      </trkpt>
      <trkpt lat="47.3526" lon="6.4195">
        <ele>346.705</ele>
        <time>2015-10-03T08:31:30Z</time>
      </trkpt>
      <trkpt lat="47.3526" lon="6.41954">
        <ele>346.896</ele>
        <time>2015-10-03T08:31:31Z</time>
      </trkpt>
      <trkpt lat="47.3526" lon="6.4196">
        <ele>346.803</ele>
        <time>2015-10-03T08:31:32Z</time>
      </trkpt>
      <trkpt lat="47.35259" lon="6.41967">
        <ele>346.747</ele>
        <time>2015-10-03T08:31:33Z</time>
      </trkpt>
      <trkpt lat="47.35262" lon="6.41973">
        <ele>346.205</ele>
        <time>2015-10-03T08:31:34Z</time>
      </trkpt>
      <trkpt lat="47.35261" lon="6.4198">
        <ele>346.254</ele>
        <time>2015-10-03T08:31:35Z</time>
      </trkpt>
      <trkpt lat="47.35262" lon="6.41988">
        <ele>346.27</ele>
        <time>2015-10-03T08:31:36Z</time>
      </trkpt>
      <trkpt lat="47.35263" lon="6.41991">
        <ele>346.658</ele>
        <time>2015-10-03T08:31:37Z</time>
      </trkpt>
      <trkpt lat="47.35266" lon="6.41996">
        <ele>346.57</ele>
        <time>2015-10-03T08:31:38Z</time>
      </trkpt>
      <trkpt lat="47.35269" lon="6.42004">
        <ele>346.395</ele>
        <time>2015-10-03T08:31:39Z</time>
      </trkpt>
      <trkpt lat="47.35271" lon="6.42011">
        <ele>346.54</ele>
        <time>2015-10-03T08:31:40Z</time>
      </trkpt>
      <trkpt lat="47.35272" lon="6.42016">
        <ele>346.04</ele>
        <time>2015-10-03T08:31:41Z</time>
      </trkpt>
      <trkpt lat="47.35274" lon="6.42022">
        <ele>346.472</ele>
        <time>2015-10-03T08:31:42Z</time>
      </trkpt>
      <trkpt lat="47.35275" lon="6.42027">
        <ele>346.524</ele>
        <time>2015-10-03T08:31:43Z</time>
      </trkpt>
      <trkpt lat="47.35276" lon="6.4203">
        <ele>346.497</ele>
        <time>2015-10-03T08:31:44Z</time>
      </trkpt>
      <trkpt lat="47.35279" lon="6.42036">
        <ele>346.139</ele>
        <time>2015-10-03T08:31:45Z</time>
      </trkpt>
      <trkpt lat="47.35282" lon="6.42044">
        <ele>346.014</ele>
        <time>2015-10-03T08:31:46Z</time>
      </trkpt>
      <trkpt lat="47.35283" lon="6.42049">
        <ele>346.069</ele>
        <time>2015-10-03T08:31:47Z</time>
      </trkpt>
      <trkpt lat="47.35284" lon="6.42052">
        <ele>346.345</ele>
        <time>2015-10-03T08:31:48Z</time>
      </trkpt>
      <trkpt lat="47.35285" lon="6.42056">
        <ele>346.167</ele>
        <time>2015-10-03T08:31:49Z</time>
      </trkpt>
      <trkpt lat="47.35286" lon="6.42059">
        <ele>345.948</ele>
        <time>2015-10-03T08:31:50Z</time>
      </trkpt>
      <trkpt lat="47.35288" lon="6.42064">
        <ele>346.501</ele>
        <time>2015-10-03T08:31:51Z</time>
      </trkpt>
      <trkpt lat="47.3529" lon="6.42067">
        <ele>346.593</ele>
        <time>2015-10-03T08:31:52Z</time>
      </trkpt>
      <trkpt lat="47.35293" lon="6.42071">
        <ele>346.352</ele>
        <time>2015-10-03T08:31:53Z</time>
      </trkpt>
      <trkpt lat="47.35295" lon="6.42075">
        <ele>346.61</ele>
        <time>2015-10-03T08:31:54Z</time>
      </trkpt>
      <trkpt lat="47.35297" lon="6.42078">
        <ele>346.787</ele>
        <time>2015-10-03T08:31:55Z</time>
      </trkpt>
      <trkpt lat="47.35299" lon="6.4208">
        <ele>347.382</ele>
        <time>2015-10-03T08:31:56Z</time>
      </trkpt>
      <trkpt lat="47.35301" lon="6.42082">
        <ele>347.809</ele>
        <time>2015-10-03T08:31:57Z</time>
      </trkpt>
      <trkpt lat="47.35303" lon="6.42085">
        <ele>347.628</ele>
        <time>2015-10-03T08:31:58Z</time>
      </trkpt>
      <trkpt lat="47.35306" lon="6.42086">
        <ele>347.614</ele>
        <time>2015-10-03T08:31:59Z</time>
      </trkpt>
      <trkpt lat="47.35308" lon="6.42086">
        <ele>348.052</ele>
        <time>2015-10-03T08:32:00Z</time>
      </trkpt>
      <trkpt lat="47.3531" lon="6.42086">
        <ele>348.434</ele>
        <time>2015-10-03T08:32:01Z</time>
      </trkpt>
      <trkpt lat="47.35312" lon="6.42086">
        <ele>348.297</ele>
        <time>2015-10-03T08:32:02Z</time>
      </trkpt>
      <trkpt lat="47.35315" lon="6.42087">
        <ele>348.431</ele>
        <time>2015-10-03T08:32:03Z</time>
      </trkpt>
      <trkpt lat="47.35318" lon="6.42088">
        <ele>348.866</ele>
        <time>2015-10-03T08:32:04Z</time>
      </trkpt>
      <trkpt lat="47.35321" lon="6.4209">
        <ele>349.141</ele>
        <time>2015-10-03T08:32:05Z</time>
      </trkpt>
      <trkpt lat="47.35323" lon="6.42093">
        <ele>349.989</ele>
        <time>2015-10-03T08:32:06Z</time>
      </trkpt>
      <trkpt lat="47.35325" lon="6.42096">
        <ele>350.111</ele>
        <time>2015-10-03T08:32:07Z</time>
      </trkpt>
      <trkpt lat="47.35326" lon="6.42098">
        <ele>350.333</ele>
        <time>2015-10-03T08:32:08Z</time>
      </trkpt>
      <trkpt lat="47.35326" lon="6.42101">
        <ele>350.46</ele>
        <time>2015-10-03T08:32:09Z</time>
      </trkpt>
      <trkpt lat="47.35327" lon="6.42105">
        <ele>350.874</ele>
        <time>2015-10-03T08:32:10Z</time>
      </trkpt>
      <trkpt lat="47.35327" lon="6.4211">
        <ele>351.32</ele>
        <time>2015-10-03T08:32:11Z</time>
      </trkpt>
      <trkpt lat="47.35327" lon="6.42115">
        <ele>351.41</ele>
        <time>2015-10-03T08:32:12Z</time>
      </trkpt>
      <trkpt lat="47.35327" lon="6.4212">
        <ele>351.222</ele>
        <time>2015-10-03T08:32:13Z</time>
      </trkpt>
      <trkpt lat="47.35326" lon="6.42125">
        <ele>350.71</ele>
        <time>2015-10-03T08:32:14Z</time>
      </trkpt>
      <trkpt lat="47.35326" lon="6.42129">
        <ele>350.966</ele>
        <time>2015-10-03T08:32:15Z</time>
      </trkpt>
      <trkpt lat="47.35326" lon="6.42133">
        <ele>350.907</ele>
        <time>2015-10-03T08:32:16Z</time>
      </trkpt>
      <trkpt lat="47.35326" lon="6.42138">
        <ele>351.41</ele>
        <time>2015-10-03T08:32:17Z</time>
      </trkpt>
      <trkpt lat="47.35327" lon="6.42143">
        <ele>351.878</ele>
        <time>2015-10-03T08:32:18Z</time>
      </trkpt>
      <trkpt lat="47.35328" lon="6.42147">
        <ele>352.195</ele>
        <time>2015-10-03T08:32:19Z</time>
      </trkpt>
      <trkpt lat="47.35328" lon="6.42151">
        <ele>350.2</ele>
        <time>2015-10-03T08:32:20Z</time>
      </trkpt>
      <trkpt lat="47.35329" lon="6.42154">
        <ele>350.323</ele>
        <time>2015-10-03T08:32:21Z</time>
      </trkpt>
      <trkpt lat="47.3533" lon="6.42157">
        <ele>349.82</ele>
        <time>2015-10-03T08:32:22Z</time>
      </trkpt>
      <trkpt lat="47.35331" lon="6.4216">
        <ele>349.205</ele>
        <time>2015-10-03T08:32:23Z</time>
      </trkpt>
      <trkpt lat="47.35333" lon="6.42162">
        <ele>348.779</ele>
        <time>2015-10-03T08:32:24Z</time>
      </trkpt>
      <trkpt lat="47.35334" lon="6.42166">
        <ele>348.646</ele>
        <time>2015-10-03T08:32:25Z</time>
      </trkpt>
      <trkpt lat="47.35336" lon="6.42171">
        <ele>347.785</ele>
        <time>2015-10-03T08:32:26Z</time>
      </trkpt>
      <trkpt lat="47.35337" lon="6.42176">
        <ele>350.293</ele>
        <time>2015-10-03T08:32:27Z</time>
      </trkpt>
      <trkpt lat="47.35339" lon="6.42181">
        <ele>350.621</ele>
        <time>2015-10-03T08:32:28Z</time>
      </trkpt>
      <trkpt lat="47.3534" lon="6.42186">
        <ele>350.939</ele>
        <time>2015-10-03T08:32:29Z</time>
      </trkpt>
      <trkpt lat="47.35342" lon="6.4219">
        <ele>350.55</ele>
        <time>2015-10-03T08:32:30Z</time>
      </trkpt>
      <trkpt lat="47.35343" lon="6.42195">
        <ele>350.295</ele>
        <time>2015-10-03T08:32:31Z</time>
      </trkpt>
      <trkpt lat="47.35344" lon="6.422">
        <ele>350.585</ele>
        <time>2015-10-03T08:32:32Z</time>
      </trkpt>
      <trkpt lat="47.35346" lon="6.42205">
        <ele>350.688</ele>
        <time>2015-10-03T08:32:33Z</time>
      </trkpt>
      <trkpt lat="47.35347" lon="6.4221">
        <ele>350.791</ele>
        <time>2015-10-03T08:32:34Z</time>
      </trkpt>
      <trkpt lat="47.35349" lon="6.42215">
        <ele>351.006</ele>
        <time>2015-10-03T08:32:35Z</time>
      </trkpt>
      <trkpt lat="47.3535" lon="6.4222">
        <ele>351.277</ele>
        <time>2015-10-03T08:32:36Z</time>
      </trkpt>
      <trkpt lat="47.35351" lon="6.42225">
        <ele>351.155</ele>
        <time>2015-10-03T08:32:37Z</time>
      </trkpt>
      <trkpt lat="47.35353" lon="6.4223">
        <ele>351.016</ele>
        <time>2015-10-03T08:32:38Z</time>
      </trkpt>
      <trkpt lat="47.35354" lon="6.42235">
        <ele>350.847</ele>
        <time>2015-10-03T08:32:39Z</time>
      </trkpt>
      <trkpt lat="47.35356" lon="6.4224">
        <ele>350.953</ele>
        <time>2015-10-03T08:32:40Z</time>
      </trkpt>
      <trkpt lat="47.35357" lon="6.42245">
        <ele>350.757</ele>
        <time>2015-10-03T08:32:41Z</time>
      </trkpt>
      <trkpt lat="47.3536" lon="6.42251">
        <ele>350.895</ele>
        <time>2015-10-03T08:32:42Z</time>
      </trkpt>
      <trkpt lat="47.35361" lon="6.42257">
        <ele>351.142</ele>
        <time>2015-10-03T08:32:43Z</time>
      </trkpt>
      <trkpt lat="47.35363" lon="6.42262">
        <ele>351.067</ele>
        <time>2015-10-03T08:32:44Z</time>
      </trkpt>
      <trkpt lat="47.35365" lon="6.42268">
        <ele>350.817</ele>
        <time>2015-10-03T08:32:45Z</time>
      </trkpt>
      <trkpt lat="47.35367" lon="6.42275">
        <ele>350.75</ele>
        <time>2015-10-03T08:32:46Z</time>
      </trkpt>
      <trkpt lat="47.35369" lon="6.42281">
        <ele>350.768</ele>
        <time>2015-10-03T08:32:47Z</time>
      </trkpt>
      <trkpt lat="47.35371" lon="6.42287">
        <ele>350.712</ele>
        <time>2015-10-03T08:32:48Z</time>
      </trkpt>
      <trkpt lat="47.35375" lon="6.42295">
        <ele>350.608</ele>
        <time>2015-10-03T08:32:49Z</time>
      </trkpt>
      <trkpt lat="47.35376" lon="6.423">
        <ele>350.285</ele>
        <time>2015-10-03T08:32:50Z</time>
      </trkpt>
      <trkpt lat="47.35377" lon="6.42307">
        <ele>350.317</ele>
        <time>2015-10-03T08:32:51Z</time>
      </trkpt>
      <trkpt lat="47.3538" lon="6.42314">
        <ele>350.051</ele>
        <time>2015-10-03T08:32:52Z</time>
      </trkpt>
      <trkpt lat="47.35382" lon="6.42321">
        <ele>349.85</ele>
        <time>2015-10-03T08:32:53Z</time>
      </trkpt>
      <trkpt lat="47.35385" lon="6.42328">
        <ele>349.758</ele>
        <time>2015-10-03T08:32:54Z</time>
      </trkpt>
      <trkpt lat="47.35386" lon="6.42333">
        <ele>349.85</ele>
        <time>2015-10-03T08:32:55Z</time>
      </trkpt>
      <trkpt lat="47.35388" lon="6.42339">
        <ele>349.497</ele>
        <time>2015-10-03T08:32:56Z</time>
      </trkpt>
      <trkpt lat="47.35389" lon="6.42344">
        <ele>349.331</ele>
        <time>2015-10-03T08:32:57Z</time>
      </trkpt>
      <trkpt lat="47.35392" lon="6.4235">
        <ele>348.881</ele>
        <time>2015-10-03T08:32:58Z</time>
      </trkpt>
      <trkpt lat="47.35393" lon="6.42357">
        <ele>349.075</ele>
        <time>2015-10-03T08:32:59Z</time>
      </trkpt>
      <trkpt lat="47.35395" lon="6.42364">
        <ele>348.445</ele>
        <time>2015-10-03T08:33:00Z</time>
      </trkpt>
      <trkpt lat="47.35397" lon="6.42371">
        <ele>348.171</ele>
        <time>2015-10-03T08:33:01Z</time>
      </trkpt>
      <trkpt lat="47.35401" lon="6.4238">
        <ele>347.785</ele>
        <time>2015-10-03T08:33:02Z</time>
      </trkpt>
      <trkpt lat="47.35403" lon="6.42386">
        <ele>347.757</ele>
        <time>2015-10-03T08:33:03Z</time>
      </trkpt>
      <trkpt lat="47.35405" lon="6.42393">
        <ele>348.639</ele>
        <time>2015-10-03T08:33:04Z</time>
      </trkpt>
      <trkpt lat="47.35407" lon="6.424">
        <ele>348.15</ele>
        <time>2015-10-03T08:33:05Z</time>
      </trkpt>
      <trkpt lat="47.3541" lon="6.42407">
        <ele>347.885</ele>
        <time>2015-10-03T08:33:06Z</time>
      </trkpt>
      <trkpt lat="47.35413" lon="6.42413">
        <ele>348.263</ele>
        <time>2015-10-03T08:33:07Z</time>
      </trkpt>
      <trkpt lat="47.35416" lon="6.42421">
        <ele>347.684</ele>
        <time>2015-10-03T08:33:08Z</time>
      </trkpt>
      <trkpt lat="47.3542" lon="6.42428">
        <ele>347.245</ele>
        <time>2015-10-03T08:33:09Z</time>
      </trkpt>
      <trkpt lat="47.35422" lon="6.42435">
        <ele>346.436</ele>
        <time>2015-10-03T08:33:10Z</time>
      </trkpt>
      <trkpt lat="47.35426" lon="6.42441">
        <ele>346.508</ele>
        <time>2015-10-03T08:33:11Z</time>
      </trkpt>
      <trkpt lat="47.3543" lon="6.42448">
        <ele>345.94</ele>
        <time>2015-10-03T08:33:12Z</time>
      </trkpt>
      <trkpt lat="47.35433" lon="6.42455">
        <ele>345.07</ele>
        <time>2015-10-03T08:33:13Z</time>
      </trkpt>
      <trkpt lat="47.35436" lon="6.4246">
        <ele>345.29</ele>
        <time>2015-10-03T08:33:14Z</time>
      </trkpt>
      <trkpt lat="47.35439" lon="6.42465">
        <ele>345.457</ele>
        <time>2015-10-03T08:33:15Z</time>
      </trkpt>
      <trkpt lat="47.3544" lon="6.4247">
        <ele>347.062</ele>
        <time>2015-10-03T08:33:16Z</time>
      </trkpt>
      <trkpt lat="47.35442" lon="6.42475">
        <ele>346.705</ele>
        <time>2015-10-03T08:33:17Z</time>
      </trkpt>
      <trkpt lat="47.35445" lon="6.42481">
        <ele>347.46</ele>
        <time>2015-10-03T08:33:18Z</time>
      </trkpt>
      <trkpt lat="47.35448" lon="6.42487">
        <ele>347.222</ele>
        <time>2015-10-03T08:33:19Z</time>
      </trkpt>
      <trkpt lat="47.3545" lon="6.42493">
        <ele>347.108</ele>
        <time>2015-10-03T08:33:20Z</time>
      </trkpt>
      <trkpt lat="47.35452" lon="6.42499">
        <ele>346.781</ele>
        <time>2015-10-03T08:33:21Z</time>
      </trkpt>
      <trkpt lat="47.35454" lon="6.42504">
        <ele>346.023</ele>
        <time>2015-10-03T08:33:22Z</time>
      </trkpt>
      <trkpt lat="47.35456" lon="6.4251">
        <ele>346.362</ele>
        <time>2015-10-03T08:33:23Z</time>
      </trkpt>
      <trkpt lat="47.35459" lon="6.42516">
        <ele>346.309</ele>
        <time>2015-10-03T08:33:24Z</time>
      </trkpt>
      <trkpt lat="47.3546" lon="6.42523">
        <ele>346.533</ele>
        <time>2015-10-03T08:33:25Z</time>
      </trkpt>
      <trkpt lat="47.35463" lon="6.42531">
        <ele>346.565</ele>
        <time>2015-10-03T08:33:26Z</time>
      </trkpt>
      <trkpt lat="47.35463" lon="6.42538">
        <ele>347.166</ele>
        <time>2015-10-03T08:33:27Z</time>
      </trkpt>
      <trkpt lat="47.35465" lon="6.42545">
        <ele>347.465</ele>
        <time>2015-10-03T08:33:28Z</time>
      </trkpt>
      <trkpt lat="47.35468" lon="6.42554">
        <ele>347.581</ele>
        <time>2015-10-03T08:33:29Z</time>
      </trkpt>
      <trkpt lat="47.35471" lon="6.42564">
        <ele>346.8</ele>
        <time>2015-10-03T08:33:30Z</time>
      </trkpt>
      <trkpt lat="47.35474" lon="6.42572">
        <ele>346.316</ele>
        <time>2015-10-03T08:33:31Z</time>
      </trkpt>
      <trkpt lat="47.35478" lon="6.42581">
        <ele>345.685</ele>
        <time>2015-10-03T08:33:32Z</time>
      </trkpt>
      <trkpt lat="47.35481" lon="6.42592">
        <ele>344.426</ele>
        <time>2015-10-03T08:33:33Z</time>
      </trkpt>
      <trkpt lat="47.35483" lon="6.42603">
        <ele>343.648</ele>
        <time>2015-10-03T08:33:34Z</time>
      </trkpt>
      <trkpt lat="47.35485" lon="6.42613">
        <ele>342.827</ele>
        <time>2015-10-03T08:33:35Z</time>
      </trkpt>
      <trkpt lat="47.35488" lon="6.42623">
        <ele>342.266</ele>
        <time>2015-10-03T08:33:36Z</time>
      </trkpt>
      <trkpt lat="47.35489" lon="6.42634">
        <ele>343.231</ele>
        <time>2015-10-03T08:33:37Z</time>
      </trkpt>
      <trkpt lat="47.35489" lon="6.42641">
        <ele>342.863</ele>
        <time>2015-10-03T08:33:38Z</time>
      </trkpt>
      <trkpt lat="47.35493" lon="6.42647">
        <ele>343.008</ele>
        <time>2015-10-03T08:33:39Z</time>
      </trkpt>
      <trkpt lat="47.35496" lon="6.42657">
        <ele>342.682</ele>
        <time>2015-10-03T08:33:40Z</time>
      </trkpt>
      <trkpt lat="47.35501" lon="6.42667">
        <ele>342.322</ele>
        <time>2015-10-03T08:33:41Z</time>
      </trkpt>
      <trkpt lat="47.35501" lon="6.42679">
        <ele>342.154</ele>
        <time>2015-10-03T08:33:42Z</time>
      </trkpt>
      <trkpt lat="47.35506" lon="6.42688">
        <ele>341.234</ele>
        <time>2015-10-03T08:33:43Z</time>
      </trkpt>
      <trkpt lat="47.35511" lon="6.42699">
        <ele>340.505</ele>
        <time>2015-10-03T08:33:44Z</time>
      </trkpt>
      <trkpt lat="47.35515" lon="6.42705">
        <ele>341.527</ele>
        <time>2015-10-03T08:33:46Z</time>
      </trkpt>
      <trkpt lat="47.35519" lon="6.42714">
        <ele>341.667</ele>
        <time>2015-10-03T08:33:47Z</time>
      </trkpt>
      <trkpt lat="47.35523" lon="6.42725">
        <ele>343.541</ele>
        <time>2015-10-03T08:33:48Z</time>
      </trkpt>
      <trkpt lat="47.35528" lon="6.42735">
        <ele>344.154</ele>
        <time>2015-10-03T08:33:49Z</time>
      </trkpt>
      <trkpt lat="47.35532" lon="6.42746">
        <ele>344.097</ele>
        <time>2015-10-03T08:33:50Z</time>
      </trkpt>
      <trkpt lat="47.35537" lon="6.42763">
        <ele>344.782</ele>
        <time>2015-10-03T08:33:51Z</time>
      </trkpt>
      <trkpt lat="47.35541" lon="6.42774">
        <ele>340.509</ele>
        <time>2015-10-03T08:33:52Z</time>
      </trkpt>
      <trkpt lat="47.35546" lon="6.42783">
        <ele>340.634</ele>
        <time>2015-10-03T08:33:53Z</time>
      </trkpt>
      <trkpt lat="47.3555" lon="6.42792">
        <ele>340.411</ele>
        <time>2015-10-03T08:33:54Z</time>
      </trkpt>
      <trkpt lat="47.35555" lon="6.428">
        <ele>340.556</ele>
        <time>2015-10-03T08:33:55Z</time>
      </trkpt>
      <trkpt lat="47.3556" lon="6.42809">
        <ele>340.711</ele>
        <time>2015-10-03T08:33:56Z</time>
      </trkpt>
      <trkpt lat="47.35565" lon="6.42817">
        <ele>340.337</ele>
        <time>2015-10-03T08:33:57Z</time>
      </trkpt>
      <trkpt lat="47.35569" lon="6.42825">
        <ele>339.758</ele>
        <time>2015-10-03T08:33:58Z</time>
      </trkpt>
      <trkpt lat="47.35574" lon="6.42833">
        <ele>339.889</ele>
        <time>2015-10-03T08:33:59Z</time>
      </trkpt>
      <trkpt lat="47.35579" lon="6.4284">
        <ele>340.004</ele>
        <time>2015-10-03T08:34:00Z</time>
      </trkpt>
      <trkpt lat="47.35583" lon="6.42846">
        <ele>338.241</ele>
        <time>2015-10-03T08:34:01Z</time>
      </trkpt>
      <trkpt lat="47.35588" lon="6.42854">
        <ele>338.352</ele>
        <time>2015-10-03T08:34:02Z</time>
      </trkpt>
      <trkpt lat="47.35592" lon="6.42862">
        <ele>338.163</ele>
        <time>2015-10-03T08:34:03Z</time>
      </trkpt>
      <trkpt lat="47.35596" lon="6.42869">
        <ele>339.159</ele>
        <time>2015-10-03T08:34:04Z</time>
      </trkpt>
      <trkpt lat="47.356" lon="6.42875">
        <ele>339.148</ele>
        <time>2015-10-03T08:34:05Z</time>
      </trkpt>
      <trkpt lat="47.35604" lon="6.42881">
        <ele>338.848</ele>
        <time>2015-10-03T08:34:06Z</time>
      </trkpt>
      <trkpt lat="47.35608" lon="6.42888">
        <ele>338.898</ele>
        <time>2015-10-03T08:34:07Z</time>
      </trkpt>
      <trkpt lat="47.35612" lon="6.42893">
        <ele>339.092</ele>
        <time>2015-10-03T08:34:08Z</time>
      </trkpt>
      <trkpt lat="47.35616" lon="6.429">
        <ele>339.337</ele>
        <time>2015-10-03T08:34:09Z</time>
      </trkpt>
      <trkpt lat="47.3562" lon="6.42906">
        <ele>339.748</ele>
        <time>2015-10-03T08:34:10Z</time>
      </trkpt>
      <trkpt lat="47.35624" lon="6.42912">
        <ele>340.051</ele>
        <time>2015-10-03T08:34:11Z</time>
      </trkpt>
      <trkpt lat="47.35627" lon="6.42918">
        <ele>339.999</ele>
        <time>2015-10-03T08:34:12Z</time>
      </trkpt>
      <trkpt lat="47.35631" lon="6.42923">
        <ele>339.901</ele>
        <time>2015-10-03T08:34:13Z</time>
      </trkpt>
      <trkpt lat="47.35635" lon="6.42929">
        <ele>340.363</ele>
        <time>2015-10-03T08:34:14Z</time>
      </trkpt>
      <trkpt lat="47.35638" lon="6.42934">
        <ele>341.192</ele>
        <time>2015-10-03T08:34:15Z</time>
      </trkpt>
      <trkpt lat="47.35641" lon="6.42939">
        <ele>341.493</ele>
        <time>2015-10-03T08:34:16Z</time>
      </trkpt>
      <trkpt lat="47.35645" lon="6.42945">
        <ele>341.815</ele>
        <time>2015-10-03T08:34:17Z</time>
      </trkpt>
      <trkpt lat="47.35647" lon="6.4295">
        <ele>342.087</ele>
        <time>2015-10-03T08:34:18Z</time>
      </trkpt>
      <trkpt lat="47.3565" lon="6.42954">
        <ele>342.188</ele>
        <time>2015-10-03T08:34:19Z</time>
      </trkpt>
      <trkpt lat="47.35653" lon="6.42959">
        <ele>342.29</ele>
        <time>2015-10-03T08:34:20Z</time>
      </trkpt>
      <trkpt lat="47.35656" lon="6.42965">
        <ele>342.327</ele>
        <time>2015-10-03T08:34:21Z</time>
      </trkpt>
      <trkpt lat="47.35659" lon="6.4297">
        <ele>342.406</ele>
        <time>2015-10-03T08:34:22Z</time>
      </trkpt>
      <trkpt lat="47.35662" lon="6.42974">
        <ele>342.403</ele>
        <time>2015-10-03T08:34:23Z</time>
      </trkpt>
      <trkpt lat="47.35664" lon="6.42979">
        <ele>342.691</ele>
        <time>2015-10-03T08:34:24Z</time>
      </trkpt>
      <trkpt lat="47.35667" lon="6.42984">
        <ele>342.665</ele>
        <time>2015-10-03T08:34:25Z</time>
      </trkpt>
      <trkpt lat="47.3567" lon="6.42989">
        <ele>342.614</ele>
        <time>2015-10-03T08:34:26Z</time>
      </trkpt>
      <trkpt lat="47.35672" lon="6.42993">
        <ele>342.579</ele>
        <time>2015-10-03T08:34:27Z</time>
      </trkpt>
      <trkpt lat="47.35675" lon="6.42998">
        <ele>342.267</ele>
        <time>2015-10-03T08:34:28Z</time>
      </trkpt>
      <trkpt lat="47.35677" lon="6.43005">
        <ele>341.554</ele>
        <time>2015-10-03T08:34:29Z</time>
      </trkpt>
      <trkpt lat="47.35679" lon="6.4301">
        <ele>341.582</ele>
        <time>2015-10-03T08:34:30Z</time>
      </trkpt>
      <trkpt lat="47.3568" lon="6.43015">
        <ele>341.616</ele>
        <time>2015-10-03T08:34:31Z</time>
      </trkpt>
      <trkpt lat="47.35682" lon="6.43022">
        <ele>341.957</ele>
        <time>2015-10-03T08:34:32Z</time>
      </trkpt>
      <trkpt lat="47.35684" lon="6.43028">
        <ele>342.511</ele>
        <time>2015-10-03T08:34:33Z</time>
      </trkpt>
      <trkpt lat="47.35687" lon="6.43034">
        <ele>342.42</ele>
        <time>2015-10-03T08:34:34Z</time>
      </trkpt>
      <trkpt lat="47.35689" lon="6.43039">
        <ele>342.434</ele>
        <time>2015-10-03T08:34:35Z</time>
      </trkpt>
      <trkpt lat="47.35691" lon="6.43044">
        <ele>342.522</ele>
        <time>2015-10-03T08:34:36Z</time>
      </trkpt>
      <trkpt lat="47.35694" lon="6.43048">
        <ele>342.36</ele>
        <time>2015-10-03T08:34:37Z</time>
      </trkpt>
      <trkpt lat="47.35698" lon="6.43053">
        <ele>342.084</ele>
        <time>2015-10-03T08:34:38Z</time>
      </trkpt>
      <trkpt lat="47.35702" lon="6.43057">
        <ele>342.067</ele>
        <time>2015-10-03T08:34:39Z</time>
      </trkpt>
      <trkpt lat="47.35706" lon="6.43061">
        <ele>341.739</ele>
        <time>2015-10-03T08:34:40Z</time>
      </trkpt>
      <trkpt lat="47.3571" lon="6.43064">
        <ele>341.827</ele>
        <time>2015-10-03T08:34:41Z</time>
      </trkpt>
      <trkpt lat="47.35714" lon="6.43068">
        <ele>341.673</ele>
        <time>2015-10-03T08:34:42Z</time>
      </trkpt>
      <trkpt lat="47.35718" lon="6.43072">
        <ele>341.495</ele>
        <time>2015-10-03T08:34:43Z</time>
      </trkpt>
      <trkpt lat="47.35723" lon="6.43077">
        <ele>341.23</ele>
        <time>2015-10-03T08:34:44Z</time>
      </trkpt>
      <trkpt lat="47.35727" lon="6.4308">
        <ele>341.192</ele>
        <time>2015-10-03T08:34:45Z</time>
      </trkpt>
      <trkpt lat="47.35731" lon="6.43083">
        <ele>341.352</ele>
        <time>2015-10-03T08:34:46Z</time>
      </trkpt>
      <trkpt lat="47.35736" lon="6.43087">
        <ele>341.264</ele>
        <time>2015-10-03T08:34:47Z</time>
      </trkpt>
      <trkpt lat="47.3574" lon="6.43091">
        <ele>340.817</ele>
        <time>2015-10-03T08:34:48Z</time>
      </trkpt>
      <trkpt lat="47.35744" lon="6.43093">
        <ele>339.971</ele>
        <time>2015-10-03T08:34:49Z</time>
      </trkpt>
      <trkpt lat="47.35748" lon="6.43097">
        <ele>339.385</ele>
        <time>2015-10-03T08:34:50Z</time>
      </trkpt>
      <trkpt lat="47.35753" lon="6.431">
        <ele>338.869</ele>
        <time>2015-10-03T08:34:51Z</time>
      </trkpt>
      <trkpt lat="47.35757" lon="6.43102">
        <ele>338.705</ele>
        <time>2015-10-03T08:34:52Z</time>
      </trkpt>
      <trkpt lat="47.3576" lon="6.43107">
        <ele>338.574</ele>
        <time>2015-10-03T08:34:53Z</time>
      </trkpt>
      <trkpt lat="47.35765" lon="6.4311">
        <ele>338.428</ele>
        <time>2015-10-03T08:34:54Z</time>
      </trkpt>
      <trkpt lat="47.35769" lon="6.43113">
        <ele>338.536</ele>
        <time>2015-10-03T08:34:55Z</time>
      </trkpt>
      <trkpt lat="47.35772" lon="6.43116">
        <ele>338.228</ele>
        <time>2015-10-03T08:34:56Z</time>
      </trkpt>
      <trkpt lat="47.35775" lon="6.43118">
        <ele>337.391</ele>
        <time>2015-10-03T08:34:57Z</time>
      </trkpt>
      <trkpt lat="47.35779" lon="6.43121">
        <ele>338.242</ele>
        <time>2015-10-03T08:34:58Z</time>
      </trkpt>
      <trkpt lat="47.35783" lon="6.43124">
        <ele>337.587</ele>
        <time>2015-10-03T08:34:59Z</time>
      </trkpt>
      <trkpt lat="47.35786" lon="6.43127">
        <ele>338.119</ele>
        <time>2015-10-03T08:35:00Z</time>
      </trkpt>
      <trkpt lat="47.3579" lon="6.43129">
        <ele>338.061</ele>
        <time>2015-10-03T08:35:01Z</time>
      </trkpt>
      <trkpt lat="47.35794" lon="6.43132">
        <ele>337.804</ele>
        <time>2015-10-03T08:35:02Z</time>
      </trkpt>
      <trkpt lat="47.35798" lon="6.43135">
        <ele>338.219</ele>
        <time>2015-10-03T08:35:03Z</time>
      </trkpt>
      <trkpt lat="47.35801" lon="6.43138">
        <ele>338.415</ele>
        <time>2015-10-03T08:35:04Z</time>
      </trkpt>
      <trkpt lat="47.35805" lon="6.4314">
        <ele>338.256</ele>
        <time>2015-10-03T08:35:05Z</time>
      </trkpt>
      <trkpt lat="47.35809" lon="6.43143">
        <ele>338.485</ele>
        <time>2015-10-03T08:35:06Z</time>
      </trkpt>
      <trkpt lat="47.35812" lon="6.43146">
        <ele>337.791</ele>
        <time>2015-10-03T08:35:07Z</time>
      </trkpt>
      <trkpt lat="47.35815" lon="6.43148">
        <ele>338.047</ele>
        <time>2015-10-03T08:35:08Z</time>
      </trkpt>
      <trkpt lat="47.35819" lon="6.43151">
        <ele>338.267</ele>
        <time>2015-10-03T08:35:09Z</time>
      </trkpt>
      <trkpt lat="47.35822" lon="6.43153">
        <ele>337.587</ele>
        <time>2015-10-03T08:35:10Z</time>
      </trkpt>
      <trkpt lat="47.35826" lon="6.43156">
        <ele>337.414</ele>
        <time>2015-10-03T08:35:11Z</time>
      </trkpt>
      <trkpt lat="47.35829" lon="6.43158">
        <ele>337.628</ele>
        <time>2015-10-03T08:35:12Z</time>
      </trkpt>
      <trkpt lat="47.35832" lon="6.43161">
        <ele>337.749</ele>
        <time>2015-10-03T08:35:13Z</time>
      </trkpt>
      <trkpt lat="47.35835" lon="6.43163">
        <ele>337.962</ele>
        <time>2015-10-03T08:35:14Z</time>
      </trkpt>
      <trkpt lat="47.35839" lon="6.43166">
        <ele>337.551</ele>
        <time>2015-10-03T08:35:15Z</time>
      </trkpt>
      <trkpt lat="47.35842" lon="6.43168">
        <ele>337.582</ele>
        <time>2015-10-03T08:35:16Z</time>
      </trkpt>
      <trkpt lat="47.35846" lon="6.43171">
        <ele>336.756</ele>
        <time>2015-10-03T08:35:17Z</time>
      </trkpt>
      <trkpt lat="47.35849" lon="6.43174">
        <ele>337.015</ele>
        <time>2015-10-03T08:35:18Z</time>
      </trkpt>
      <trkpt lat="47.35853" lon="6.43177">
        <ele>336.637</ele>
        <time>2015-10-03T08:35:19Z</time>
      </trkpt>
      <trkpt lat="47.35857" lon="6.4318">
        <ele>336.643</ele>
        <time>2015-10-03T08:35:20Z</time>
      </trkpt>
      <trkpt lat="47.3586" lon="6.43183">
        <ele>336.925</ele>
        <time>2015-10-03T08:35:21Z</time>
      </trkpt>
      <trkpt lat="47.35864" lon="6.43186">
        <ele>336.786</ele>
        <time>2015-10-03T08:35:22Z</time>
      </trkpt>
      <trkpt lat="47.35868" lon="6.43188">
        <ele>336.436</ele>
        <time>2015-10-03T08:35:23Z</time>
      </trkpt>
      <trkpt lat="47.35872" lon="6.43191">
        <ele>336.33</ele>
        <time>2015-10-03T08:35:24Z</time>
      </trkpt>
      <trkpt lat="47.35876" lon="6.43193">
        <ele>336.092</ele>
        <time>2015-10-03T08:35:25Z</time>
      </trkpt>
      <trkpt lat="47.3588" lon="6.43195">
        <ele>336.287</ele>
        <time>2015-10-03T08:35:26Z</time>
      </trkpt>
      <trkpt lat="47.35884" lon="6.43198">
        <ele>336.831</ele>
        <time>2015-10-03T08:35:27Z</time>
      </trkpt>
      <trkpt lat="47.35887" lon="6.432">
        <ele>336.818</ele>
        <time>2015-10-03T08:35:28Z</time>
      </trkpt>
      <trkpt lat="47.35891" lon="6.43203">
        <ele>336.454</ele>
        <time>2015-10-03T08:35:29Z</time>
      </trkpt>
      <trkpt lat="47.35895" lon="6.43206">
        <ele>338.744</ele>
        <time>2015-10-03T08:35:30Z</time>
      </trkpt>
      <trkpt lat="47.35897" lon="6.43207">
        <ele>339.701</ele>
        <time>2015-10-03T08:35:31Z</time>
      </trkpt>
      <trkpt lat="47.35901" lon="6.43209">
        <ele>340.487</ele>
        <time>2015-10-03T08:35:32Z</time>
      </trkpt>
      <trkpt lat="47.35904" lon="6.43213">
        <ele>340.711</ele>
        <time>2015-10-03T08:35:33Z</time>
      </trkpt>
      <trkpt lat="47.35908" lon="6.43216">
        <ele>340.71</ele>
        <time>2015-10-03T08:35:34Z</time>
      </trkpt>
      <trkpt lat="47.35912" lon="6.43219">
        <ele>340.668</ele>
        <time>2015-10-03T08:35:35Z</time>
      </trkpt>
      <trkpt lat="47.35916" lon="6.4322">
        <ele>340.825</ele>
        <time>2015-10-03T08:35:36Z</time>
      </trkpt>
      <trkpt lat="47.3592" lon="6.43223">
        <ele>340.884</ele>
        <time>2015-10-03T08:35:37Z</time>
      </trkpt>
      <trkpt lat="47.35924" lon="6.43226">
        <ele>340.303</ele>
        <time>2015-10-03T08:35:38Z</time>
      </trkpt>
      <trkpt lat="47.35927" lon="6.4323">
        <ele>339.979</ele>
        <time>2015-10-03T08:35:39Z</time>
      </trkpt>
      <trkpt lat="47.35931" lon="6.43235">
        <ele>339.499</ele>
        <time>2015-10-03T08:35:40Z</time>
      </trkpt>
      <trkpt lat="47.35934" lon="6.43241">
        <ele>339.108</ele>
        <time>2015-10-03T08:35:41Z</time>
      </trkpt>
      <trkpt lat="47.35937" lon="6.43246">
        <ele>338.934</ele>
        <time>2015-10-03T08:35:42Z</time>
      </trkpt>
      <trkpt lat="47.35941" lon="6.43252">
        <ele>338.338</ele>
        <time>2015-10-03T08:35:43Z</time>
      </trkpt>
      <trkpt lat="47.35944" lon="6.43259">
        <ele>337.514</ele>
        <time>2015-10-03T08:35:44Z</time>
      </trkpt>
      <trkpt lat="47.35947" lon="6.43266">
        <ele>337.352</ele>
        <time>2015-10-03T08:35:45Z</time>
      </trkpt>
      <trkpt lat="47.3595" lon="6.43273">
        <ele>336.89</ele>
        <time>2015-10-03T08:35:46Z</time>
      </trkpt>
      <trkpt lat="47.35952" lon="6.43284">
        <ele>336.741</ele>
        <time>2015-10-03T08:35:47Z</time>
      </trkpt>
      <trkpt lat="47.35954" lon="6.43293">
        <ele>336.899</ele>
        <time>2015-10-03T08:35:48Z</time>
      </trkpt>
      <trkpt lat="47.35957" lon="6.43303">
        <ele>335.705</ele>
        <time>2015-10-03T08:35:49Z</time>
      </trkpt>
      <trkpt lat="47.35958" lon="6.43312">
        <ele>336.77</ele>
        <time>2015-10-03T08:35:50Z</time>
      </trkpt>
      <trkpt lat="47.35965" lon="6.43328">
        <ele>334.622</ele>
        <time>2015-10-03T08:35:51Z</time>
      </trkpt>
      <trkpt lat="47.35967" lon="6.4334">
        <ele>334.374</ele>
        <time>2015-10-03T08:35:52Z</time>
      </trkpt>
      <trkpt lat="47.35968" lon="6.43352">
        <ele>332.163</ele>
        <time>2015-10-03T08:35:53Z</time>
      </trkpt>
      <trkpt lat="47.35967" lon="6.43366">
        <ele>331.132</ele>
        <time>2015-10-03T08:35:54Z</time>
      </trkpt>
      <trkpt lat="47.35964" lon="6.43381">
        <ele>330.445</ele>
        <time>2015-10-03T08:35:55Z</time>
      </trkpt>
      <trkpt lat="47.35962" lon="6.43395">
        <ele>329.779</ele>
        <time>2015-10-03T08:35:56Z</time>
      </trkpt>
      <trkpt lat="47.35961" lon="6.43408">
        <ele>329.136</ele>
        <time>2015-10-03T08:35:57Z</time>
      </trkpt>
      <trkpt lat="47.35962" lon="6.43423">
        <ele>328.559</ele>
        <time>2015-10-03T08:35:58Z</time>
      </trkpt>
      <trkpt lat="47.35963" lon="6.43437">
        <ele>327.878</ele>
        <time>2015-10-03T08:35:59Z</time>
      </trkpt>
      <trkpt lat="47.35965" lon="6.4345">
        <ele>327.288</ele>
        <time>2015-10-03T08:36:00Z</time>
      </trkpt>
      <trkpt lat="47.35968" lon="6.43465">
        <ele>326.991</ele>
        <time>2015-10-03T08:36:01Z</time>
      </trkpt>
      <trkpt lat="47.35972" lon="6.43477">
        <ele>326.692</ele>
        <time>2015-10-03T08:36:02Z</time>
      </trkpt>
      <trkpt lat="47.35977" lon="6.43489">
        <ele>325.689</ele>
        <time>2015-10-03T08:36:03Z</time>
      </trkpt>
      <trkpt lat="47.35983" lon="6.43501">
        <ele>325.342</ele>
        <time>2015-10-03T08:36:04Z</time>
      </trkpt>
      <trkpt lat="47.35989" lon="6.43512">
        <ele>325.136</ele>
        <time>2015-10-03T08:36:05Z</time>
      </trkpt>
      <trkpt lat="47.35996" lon="6.4352">
        <ele>325.409</ele>
        <time>2015-10-03T08:36:06Z</time>
      </trkpt>
      <trkpt lat="47.36001" lon="6.43526">
        <ele>324.975</ele>
        <time>2015-10-03T08:36:07Z</time>
      </trkpt>
      <trkpt lat="47.36008" lon="6.43533">
        <ele>324.641</ele>
        <time>2015-10-03T08:36:08Z</time>
      </trkpt>
      <trkpt lat="47.36014" lon="6.43541">
        <ele>324.554</ele>
        <time>2015-10-03T08:36:09Z</time>
      </trkpt>
      <trkpt lat="47.36018" lon="6.43553">
        <ele>325.112</ele>
        <time>2015-10-03T08:36:10Z</time>
      </trkpt>
      <trkpt lat="47.36023" lon="6.43566">
        <ele>325.027</ele>
        <time>2015-10-03T08:36:11Z</time>
      </trkpt>
      <trkpt lat="47.36026" lon="6.43578">
        <ele>325.329</ele>
        <time>2015-10-03T08:36:12Z</time>
      </trkpt>
      <trkpt lat="47.36029" lon="6.4359">
        <ele>325.229</ele>
        <time>2015-10-03T08:36:13Z</time>
      </trkpt>
      <trkpt lat="47.36033" lon="6.43601">
        <ele>325.231</ele>
        <time>2015-10-03T08:36:14Z</time>
      </trkpt>
      <trkpt lat="47.3604" lon="6.43617">
        <ele>325.035</ele>
        <time>2015-10-03T08:36:15Z</time>
      </trkpt>
      <trkpt lat="47.36043" lon="6.43628">
        <ele>324.453</ele>
        <time>2015-10-03T08:36:16Z</time>
      </trkpt>
      <trkpt lat="47.36047" lon="6.4364">
        <ele>324.345</ele>
        <time>2015-10-03T08:36:17Z</time>
      </trkpt>
      <trkpt lat="47.3605" lon="6.4365">
        <ele>324.537</ele>
        <time>2015-10-03T08:36:18Z</time>
      </trkpt>
      <trkpt lat="47.36053" lon="6.43661">
        <ele>324.777</ele>
        <time>2015-10-03T08:36:19Z</time>
      </trkpt>
      <trkpt lat="47.36055" lon="6.43671">
        <ele>324.848</ele>
        <time>2015-10-03T08:36:20Z</time>
      </trkpt>
      <trkpt lat="47.36058" lon="6.43679">
        <ele>325.026</ele>
        <time>2015-10-03T08:36:21Z</time>
      </trkpt>
      <trkpt lat="47.3606" lon="6.43686">
        <ele>324.375</ele>
        <time>2015-10-03T08:36:22Z</time>
      </trkpt>
      <trkpt lat="47.36063" lon="6.43694">
        <ele>324.723</ele>
        <time>2015-10-03T08:36:23Z</time>
      </trkpt>
      <trkpt lat="47.36066" lon="6.43703">
        <ele>324.139</ele>
        <time>2015-10-03T08:36:24Z</time>
      </trkpt>
      <trkpt lat="47.36068" lon="6.4371">
        <ele>324.182</ele>
        <time>2015-10-03T08:36:25Z</time>
      </trkpt>
      <trkpt lat="47.36072" lon="6.43719">
        <ele>323.889</ele>
        <time>2015-10-03T08:36:26Z</time>
      </trkpt>
      <trkpt lat="47.36073" lon="6.43726">
        <ele>323.583</ele>
        <time>2015-10-03T08:36:27Z</time>
      </trkpt>
      <trkpt lat="47.36076" lon="6.43733">
        <ele>323.082</ele>
        <time>2015-10-03T08:36:28Z</time>
      </trkpt>
      <trkpt lat="47.36078" lon="6.4374">
        <ele>323.011</ele>
        <time>2015-10-03T08:36:29Z</time>
      </trkpt>
      <trkpt lat="47.3608" lon="6.43747">
        <ele>322.924</ele>
        <time>2015-10-03T08:36:30Z</time>
      </trkpt>
      <trkpt lat="47.36083" lon="6.43754">
        <ele>323.094</ele>
        <time>2015-10-03T08:36:31Z</time>
      </trkpt>
      <trkpt lat="47.36085" lon="6.43761">
        <ele>323.009</ele>
        <time>2015-10-03T08:36:32Z</time>
      </trkpt>
      <trkpt lat="47.36086" lon="6.43768">
        <ele>323.094</ele>
        <time>2015-10-03T08:36:33Z</time>
      </trkpt>
      <trkpt lat="47.36088" lon="6.43775">
        <ele>323.256</ele>
        <time>2015-10-03T08:36:34Z</time>
      </trkpt>
      <trkpt lat="47.36089" lon="6.43782">
        <ele>323.56</ele>
        <time>2015-10-03T08:36:35Z</time>
      </trkpt>
      <trkpt lat="47.36091" lon="6.43788">
        <ele>323.687</ele>
        <time>2015-10-03T08:36:36Z</time>
      </trkpt>
      <trkpt lat="47.36092" lon="6.43796">
        <ele>323.728</ele>
        <time>2015-10-03T08:36:37Z</time>
      </trkpt>
      <trkpt lat="47.36095" lon="6.43802">
        <ele>323.193</ele>
        <time>2015-10-03T08:36:38Z</time>
      </trkpt>
      <trkpt lat="47.36095" lon="6.43811">
        <ele>323.168</ele>
        <time>2015-10-03T08:36:39Z</time>
      </trkpt>
      <trkpt lat="47.36097" lon="6.43818">
        <ele>322.624</ele>
        <time>2015-10-03T08:36:40Z</time>
      </trkpt>
      <trkpt lat="47.36098" lon="6.43825">
        <ele>322.206</ele>
        <time>2015-10-03T08:36:41Z</time>
      </trkpt>
      <trkpt lat="47.361" lon="6.43831">
        <ele>322.009</ele>
        <time>2015-10-03T08:36:42Z</time>
      </trkpt>
      <trkpt lat="47.36102" lon="6.43838">
        <ele>321.802</ele>
        <time>2015-10-03T08:36:43Z</time>
      </trkpt>
      <trkpt lat="47.36106" lon="6.43846">
        <ele>321.676</ele>
        <time>2015-10-03T08:36:44Z</time>
      </trkpt>
      <trkpt lat="47.36109" lon="6.43854">
        <ele>321.073</ele>
        <time>2015-10-03T08:36:45Z</time>
      </trkpt>
      <trkpt lat="47.36112" lon="6.43861">
        <ele>320.779</ele>
        <time>2015-10-03T08:36:46Z</time>
      </trkpt>
      <trkpt lat="47.36116" lon="6.43871">
        <ele>320.512</ele>
        <time>2015-10-03T08:36:47Z</time>
      </trkpt>
      <trkpt lat="47.36121" lon="6.43881">
        <ele>320.146</ele>
        <time>2015-10-03T08:36:48Z</time>
      </trkpt>
      <trkpt lat="47.36127" lon="6.43892">
        <ele>320.258</ele>
        <time>2015-10-03T08:36:49Z</time>
      </trkpt>
      <trkpt lat="47.36132" lon="6.43901">
        <ele>319.822</ele>
        <time>2015-10-03T08:36:50Z</time>
      </trkpt>
      <trkpt lat="47.36137" lon="6.43912">
        <ele>319.988</ele>
        <time>2015-10-03T08:36:51Z</time>
      </trkpt>
      <trkpt lat="47.36143" lon="6.43923">
        <ele>320.32</ele>
        <time>2015-10-03T08:36:52Z</time>
      </trkpt>
      <trkpt lat="47.36148" lon="6.43933">
        <ele>318.803</ele>
        <time>2015-10-03T08:36:53Z</time>
      </trkpt>
      <trkpt lat="47.36153" lon="6.43944">
        <ele>318.813</ele>
        <time>2015-10-03T08:36:54Z</time>
      </trkpt>
      <trkpt lat="47.36158" lon="6.43954">
        <ele>318.881</ele>
        <time>2015-10-03T08:36:55Z</time>
      </trkpt>
      <trkpt lat="47.36164" lon="6.43964">
        <ele>318.865</ele>
        <time>2015-10-03T08:36:56Z</time>
      </trkpt>
      <trkpt lat="47.3617" lon="6.43972">
        <ele>318.91</ele>
        <time>2015-10-03T08:36:57Z</time>
      </trkpt>
      <trkpt lat="47.36175" lon="6.43982">
        <ele>319.027</ele>
        <time>2015-10-03T08:36:58Z</time>
      </trkpt>
      <trkpt lat="47.36182" lon="6.43991">
        <ele>318.631</ele>
        <time>2015-10-03T08:36:59Z</time>
      </trkpt>
      <trkpt lat="47.36187" lon="6.44001">
        <ele>318.365</ele>
        <time>2015-10-03T08:37:00Z</time>
      </trkpt>
      <trkpt lat="47.36192" lon="6.44012">
        <ele>317.958</ele>
        <time>2015-10-03T08:37:01Z</time>
      </trkpt>
      <trkpt lat="47.36196" lon="6.44022">
        <ele>317.411</ele>
        <time>2015-10-03T08:37:02Z</time>
      </trkpt>
      <trkpt lat="47.36199" lon="6.44033">
        <ele>316.47</ele>
        <time>2015-10-03T08:37:03Z</time>
      </trkpt>
      <trkpt lat="47.36201" lon="6.44043">
        <ele>316.012</ele>
        <time>2015-10-03T08:37:04Z</time>
      </trkpt>
      <trkpt lat="47.36203" lon="6.44054">
        <ele>316.151</ele>
        <time>2015-10-03T08:37:05Z</time>
      </trkpt>
      <trkpt lat="47.36204" lon="6.44064">
        <ele>315.973</ele>
        <time>2015-10-03T08:37:06Z</time>
      </trkpt>
      <trkpt lat="47.36206" lon="6.44074">
        <ele>315.987</ele>
        <time>2015-10-03T08:37:07Z</time>
      </trkpt>
      <trkpt lat="47.36207" lon="6.44082">
        <ele>316.105</ele>
        <time>2015-10-03T08:37:08Z</time>
      </trkpt>
      <trkpt lat="47.36208" lon="6.4409">
        <ele>316.222</ele>
        <time>2015-10-03T08:37:09Z</time>
      </trkpt>
      <trkpt lat="47.36209" lon="6.44095">
        <ele>316.145</ele>
        <time>2015-10-03T08:37:10Z</time>
      </trkpt>
      <trkpt lat="47.36209" lon="6.44105">
        <ele>316.071</ele>
        <time>2015-10-03T08:37:11Z</time>
      </trkpt>
      <trkpt lat="47.3621" lon="6.44109">
        <ele>316.426</ele>
        <time>2015-10-03T08:37:12Z</time>
      </trkpt>
      <trkpt lat="47.36215" lon="6.44116">
        <ele>316.025</ele>
        <time>2015-10-03T08:37:13Z</time>
      </trkpt>
      <trkpt lat="47.36217" lon="6.44124">
        <ele>316.068</ele>
        <time>2015-10-03T08:37:14Z</time>
      </trkpt>
      <trkpt lat="47.3622" lon="6.4413">
        <ele>316.195</ele>
        <time>2015-10-03T08:37:15Z</time>
      </trkpt>
      <trkpt lat="47.36223" lon="6.44137">
        <ele>316.278</ele>
        <time>2015-10-03T08:37:16Z</time>
      </trkpt>
      <trkpt lat="47.36225" lon="6.44143">
        <ele>316.21</ele>
        <time>2015-10-03T08:37:17Z</time>
      </trkpt>
      <trkpt lat="47.36228" lon="6.44148">
        <ele>316.139</ele>
        <time>2015-10-03T08:37:18Z</time>
      </trkpt>
      <trkpt lat="47.36232" lon="6.44154">
        <ele>315.854</ele>
        <time>2015-10-03T08:37:19Z</time>
      </trkpt>
      <trkpt lat="47.36235" lon="6.44159">
        <ele>315.871</ele>
        <time>2015-10-03T08:37:20Z</time>
      </trkpt>
      <trkpt lat="47.36239" lon="6.44164">
        <ele>315.653</ele>
        <time>2015-10-03T08:37:21Z</time>
      </trkpt>
      <trkpt lat="47.36243" lon="6.44168">
        <ele>315.702</ele>
        <time>2015-10-03T08:37:22Z</time>
      </trkpt>
      <trkpt lat="47.36247" lon="6.44172">
        <ele>315.862</ele>
        <time>2015-10-03T08:37:23Z</time>
      </trkpt>
      <trkpt lat="47.36251" lon="6.44177">
        <ele>315.552</ele>
        <time>2015-10-03T08:37:24Z</time>
      </trkpt>
      <trkpt lat="47.36255" lon="6.44182">
        <ele>315.1</ele>
        <time>2015-10-03T08:37:25Z</time>
      </trkpt>
      <trkpt lat="47.3626" lon="6.44187">
        <ele>314.528</ele>
        <time>2015-10-03T08:37:26Z</time>
      </trkpt>
      <trkpt lat="47.36263" lon="6.44194">
        <ele>315.137</ele>
        <time>2015-10-03T08:37:27Z</time>
      </trkpt>
      <trkpt lat="47.36267" lon="6.442">
        <ele>314.903</ele>
        <time>2015-10-03T08:37:28Z</time>
      </trkpt>
      <trkpt lat="47.36271" lon="6.44206">
        <ele>314.183</ele>
        <time>2015-10-03T08:37:29Z</time>
      </trkpt>
      <trkpt lat="47.36276" lon="6.44212">
        <ele>314.07</ele>
        <time>2015-10-03T08:37:30Z</time>
      </trkpt>
      <trkpt lat="47.3628" lon="6.44218">
        <ele>313.571</ele>
        <time>2015-10-03T08:37:31Z</time>
      </trkpt>
      <trkpt lat="47.36285" lon="6.44224">
        <ele>313.092</ele>
        <time>2015-10-03T08:37:32Z</time>
      </trkpt>
      <trkpt lat="47.3629" lon="6.4423">
        <ele>312.863</ele>
        <time>2015-10-03T08:37:33Z</time>
      </trkpt>
      <trkpt lat="47.36294" lon="6.44235">
        <ele>311.644</ele>
        <time>2015-10-03T08:37:34Z</time>
      </trkpt>
      <trkpt lat="47.36299" lon="6.44238">
        <ele>310.731</ele>
        <time>2015-10-03T08:37:35Z</time>
      </trkpt>
      <trkpt lat="47.36303" lon="6.44244">
        <ele>310.601</ele>
        <time>2015-10-03T08:37:36Z</time>
      </trkpt>
      <trkpt lat="47.36308" lon="6.44248">
        <ele>310.443</ele>
        <time>2015-10-03T08:37:37Z</time>
      </trkpt>
      <trkpt lat="47.36312" lon="6.44251">
        <ele>309.563</ele>
        <time>2015-10-03T08:37:38Z</time>
      </trkpt>
      <trkpt lat="47.36316" lon="6.44256">
        <ele>309.572</ele>
        <time>2015-10-03T08:37:39Z</time>
      </trkpt>
      <trkpt lat="47.3632" lon="6.44261">
        <ele>309.593</ele>
        <time>2015-10-03T08:37:40Z</time>
      </trkpt>
      <trkpt lat="47.36323" lon="6.44264">
        <ele>309.513</ele>
        <time>2015-10-03T08:37:41Z</time>
      </trkpt>
      <trkpt lat="47.36326" lon="6.44266">
        <ele>308.568</ele>
        <time>2015-10-03T08:37:42Z</time>
      </trkpt>
      <trkpt lat="47.36328" lon="6.44269">
        <ele>308.265</ele>
        <time>2015-10-03T08:37:43Z</time>
      </trkpt>
      <trkpt lat="47.36329" lon="6.44272">
        <ele>308.155</ele>
        <time>2015-10-03T08:37:44Z</time>
      </trkpt>
      <trkpt lat="47.36329" lon="6.44277">
        <ele>307.874</ele>
        <time>2015-10-03T08:37:45Z</time>
      </trkpt>
      <trkpt lat="47.3633" lon="6.44281">
        <ele>307.458</ele>
        <time>2015-10-03T08:37:46Z</time>
      </trkpt>
      <trkpt lat="47.3633" lon="6.44283">
        <ele>307.765</ele>
        <time>2015-10-03T08:37:47Z</time>
      </trkpt>
      <trkpt lat="47.3633" lon="6.44286">
        <ele>306.791</ele>
        <time>2015-10-03T08:37:48Z</time>
      </trkpt>
      <trkpt lat="47.3633" lon="6.44288">
        <ele>306.368</ele>
        <time>2015-10-03T08:37:49Z</time>
      </trkpt>
      <trkpt lat="47.36329" lon="6.44289">
        <ele>307.125</ele>
        <time>2015-10-03T08:37:50Z</time>
      </trkpt>
      <trkpt lat="47.36327" lon="6.44285">
        <ele>306.603</ele>
        <time>2015-10-03T08:38:04Z</time>
      </trkpt>
      <trkpt lat="47.36326" lon="6.44284">
        <ele>309.28</ele>
        <time>2015-10-03T08:38:07Z</time>
      </trkpt>
      <trkpt lat="47.36325" lon="6.44284">
        <ele>310.766</ele>
        <time>2015-10-03T08:38:20Z</time>
      </trkpt>
      <trkpt lat="47.36325" lon="6.44282">
        <ele>311.308</ele>
        <time>2015-10-03T08:38:27Z</time>
      </trkpt>
      <trkpt lat="47.36325" lon="6.44279">
        <ele>310.342</ele>
        <time>2015-10-03T08:38:33Z</time>
      </trkpt>
      <trkpt lat="47.36324" lon="6.44281">
        <ele>310.11</ele>
        <time>2015-10-03T08:38:39Z</time>
      </trkpt>
      <trkpt lat="47.36324" lon="6.44283">
        <ele>310.178</ele>
        <time>2015-10-03T08:38:40Z</time>
      </trkpt>
      <trkpt lat="47.36325" lon="6.44284">
        <ele>308.663</ele>
        <time>2015-10-03T08:38:43Z</time>
      </trkpt>
      <trkpt lat="47.36326" lon="6.44283">
        <ele>307.671</ele>
        <time>2015-10-03T08:38:46Z</time>
      </trkpt>
      <trkpt lat="47.36326" lon="6.44289">
        <ele>308.054</ele>
        <time>2015-10-03T08:38:57Z</time>
      </trkpt>
      <trkpt lat="47.36328" lon="6.4429">
        <ele>308.25</ele>
        <time>2015-10-03T08:38:59Z</time>
      </trkpt>
      <trkpt lat="47.36329" lon="6.4429">
        <ele>308.581</ele>
        <time>2015-10-03T08:39:00Z</time>
      </trkpt>
      <trkpt lat="47.3633" lon="6.44291">
        <ele>308.039</ele>
        <time>2015-10-03T08:39:01Z</time>
      </trkpt>
      <trkpt lat="47.36331" lon="6.44291">
        <ele>307.525</ele>
        <time>2015-10-03T08:39:02Z</time>
      </trkpt>
      <trkpt lat="47.36332" lon="6.44291">
        <ele>307.536</ele>
        <time>2015-10-03T08:39:03Z</time>
      </trkpt>
      <trkpt lat="47.36333" lon="6.44292">
        <ele>307.295</ele>
        <time>2015-10-03T08:39:04Z</time>
      </trkpt>
      <trkpt lat="47.36334" lon="6.44293">
        <ele>308.413</ele>
        <time>2015-10-03T08:39:06Z</time>
      </trkpt>
      <trkpt lat="47.36335" lon="6.44295">
        <ele>307.028</ele>
        <time>2015-10-03T08:39:32Z</time>
      </trkpt>
      <trkpt lat="47.36335" lon="6.44293">
        <ele>311.858</ele>
        <time>2015-10-03T08:44:53Z</time>
      </trkpt>
      <trkpt lat="47.36336" lon="6.44292">
        <ele>311.967</ele>
        <time>2015-10-03T08:44:55Z</time>
      </trkpt>
      <trkpt lat="47.36336" lon="6.4429">
        <ele>312.066</ele>
        <time>2015-10-03T08:44:57Z</time>
      </trkpt>
      <trkpt lat="47.36335" lon="6.44289">
        <ele>311.939</ele>
        <time>2015-10-03T08:44:59Z</time>
      </trkpt>
      <trkpt lat="47.36333" lon="6.44289">
        <ele>308.326</ele>
        <time>2015-10-03T08:45:01Z</time>
      </trkpt>
      <trkpt lat="47.36332" lon="6.4429">
        <ele>308.81</ele>
        <time>2015-10-03T08:45:03Z</time>
      </trkpt>
      <trkpt lat="47.36331" lon="6.4429">
        <ele>309.438</ele>
        <time>2015-10-03T08:45:05Z</time>
      </trkpt>
      <trkpt lat="47.3633" lon="6.4429">
        <ele>309.383</ele>
        <time>2015-10-03T08:45:07Z</time>
      </trkpt>
      <trkpt lat="47.36329" lon="6.44289">
        <ele>309.184</ele>
        <time>2015-10-03T08:45:08Z</time>
      </trkpt>
      <trkpt lat="47.36328" lon="6.44289">
        <ele>308.422</ele>
        <time>2015-10-03T08:45:09Z</time>
      </trkpt>
      <trkpt lat="47.36325" lon="6.44286">
        <ele>307.99</ele>
        <time>2015-10-03T08:46:36Z</time>
      </trkpt>
      <trkpt lat="47.36324" lon="6.44287">
        <ele>307.53</ele>
        <time>2015-10-03T08:46:50Z</time>
      </trkpt>
      <trkpt lat="47.36323" lon="6.44287">
        <ele>307.941</ele>
        <time>2015-10-03T08:46:51Z</time>
      </trkpt>
      <trkpt lat="47.36321" lon="6.44287">
        <ele>307.705</ele>
        <time>2015-10-03T08:46:52Z</time>
      </trkpt>
      <trkpt lat="47.36318" lon="6.44287">
        <ele>307.107</ele>
        <time>2015-10-03T08:46:53Z</time>
      </trkpt>
      <trkpt lat="47.36315" lon="6.44287">
        <ele>307.319</ele>
        <time>2015-10-03T08:46:54Z</time>
      </trkpt>
      <trkpt lat="47.36312" lon="6.44288">
        <ele>307.565</ele>
        <time>2015-10-03T08:46:55Z</time>
      </trkpt>
      <trkpt lat="47.36308" lon="6.44289">
        <ele>307.441</ele>
        <time>2015-10-03T08:46:56Z</time>
      </trkpt>
      <trkpt lat="47.36303" lon="6.44291">
        <ele>306.497</ele>
        <time>2015-10-03T08:46:57Z</time>
      </trkpt>
      <trkpt lat="47.36297" lon="6.44294">
        <ele>306.084</ele>
        <time>2015-10-03T08:46:58Z</time>
      </trkpt>
      <trkpt lat="47.3629" lon="6.44302">
        <ele>306.221</ele>
        <time>2015-10-03T08:46:59Z</time>
      </trkpt>
      <trkpt lat="47.36285" lon="6.44306">
        <ele>306.336</ele>
        <time>2015-10-03T08:47:00Z</time>
      </trkpt>
      <trkpt lat="47.3628" lon="6.44311">
        <ele>306.007</ele>
        <time>2015-10-03T08:47:01Z</time>
      </trkpt>
      <trkpt lat="47.36276" lon="6.44316">
        <ele>306.336</ele>
        <time>2015-10-03T08:47:02Z</time>
      </trkpt>
      <trkpt lat="47.36271" lon="6.44321">
        <ele>307.172</ele>
        <time>2015-10-03T08:47:03Z</time>
      </trkpt>
      <trkpt lat="47.36267" lon="6.44326">
        <ele>307.001</ele>
        <time>2015-10-03T08:47:04Z</time>
      </trkpt>
      <trkpt lat="47.36264" lon="6.44332">
        <ele>307.047</ele>
        <time>2015-10-03T08:47:05Z</time>
      </trkpt>
      <trkpt lat="47.36255" lon="6.4434">
        <ele>307.086</ele>
        <time>2015-10-03T08:47:06Z</time>
      </trkpt>
      <trkpt lat="47.3625" lon="6.44345">
        <ele>307.782</ele>
        <time>2015-10-03T08:47:07Z</time>
      </trkpt>
      <trkpt lat="47.36246" lon="6.44349">
        <ele>307.84</ele>
        <time>2015-10-03T08:47:08Z</time>
      </trkpt>
      <trkpt lat="47.36243" lon="6.44353">
        <ele>308.203</ele>
        <time>2015-10-03T08:47:09Z</time>
      </trkpt>
      <trkpt lat="47.36239" lon="6.44357">
        <ele>307.882</ele>
        <time>2015-10-03T08:47:10Z</time>
      </trkpt>
      <trkpt lat="47.36236" lon="6.4436">
        <ele>308.196</ele>
        <time>2015-10-03T08:47:11Z</time>
      </trkpt>
      <trkpt lat="47.36233" lon="6.44364">
        <ele>308.39</ele>
        <time>2015-10-03T08:47:12Z</time>
      </trkpt>
      <trkpt lat="47.36229" lon="6.44368">
        <ele>308.285</ele>
        <time>2015-10-03T08:47:13Z</time>
      </trkpt>
      <trkpt lat="47.36225" lon="6.44374">
        <ele>308.307</ele>
        <time>2015-10-03T08:47:14Z</time>
      </trkpt>
      <trkpt lat="47.36222" lon="6.44378">
        <ele>308.63</ele>
        <time>2015-10-03T08:47:15Z</time>
      </trkpt>
      <trkpt lat="47.36219" lon="6.44381">
        <ele>309.078</ele>
        <time>2015-10-03T08:47:16Z</time>
      </trkpt>
      <trkpt lat="47.36216" lon="6.44385">
        <ele>309.178</ele>
        <time>2015-10-03T08:47:17Z</time>
      </trkpt>
      <trkpt lat="47.36212" lon="6.44389">
        <ele>309.428</ele>
        <time>2015-10-03T08:47:18Z</time>
      </trkpt>
      <trkpt lat="47.36209" lon="6.44392">
        <ele>309.332</ele>
        <time>2015-10-03T08:47:19Z</time>
      </trkpt>
      <trkpt lat="47.36206" lon="6.44396">
        <ele>309.761</ele>
        <time>2015-10-03T08:47:20Z</time>
      </trkpt>
      <trkpt lat="47.36204" lon="6.444">
        <ele>309.671</ele>
        <time>2015-10-03T08:47:21Z</time>
      </trkpt>
      <trkpt lat="47.36201" lon="6.44404">
        <ele>309.89</ele>
        <time>2015-10-03T08:47:22Z</time>
      </trkpt>
      <trkpt lat="47.36199" lon="6.44407">
        <ele>310.492</ele>
        <time>2015-10-03T08:47:23Z</time>
      </trkpt>
      <trkpt lat="47.36196" lon="6.44411">
        <ele>310.285</ele>
        <time>2015-10-03T08:47:24Z</time>
      </trkpt>
      <trkpt lat="47.36194" lon="6.44415">
        <ele>310.332</ele>
        <time>2015-10-03T08:47:25Z</time>
      </trkpt>
      <trkpt lat="47.36191" lon="6.44419">
        <ele>310.359</ele>
        <time>2015-10-03T08:47:26Z</time>
      </trkpt>
      <trkpt lat="47.36189" lon="6.44422">
        <ele>310.697</ele>
        <time>2015-10-03T08:47:27Z</time>
      </trkpt>
      <trkpt lat="47.36186" lon="6.44424">
        <ele>310.619</ele>
        <time>2015-10-03T08:47:28Z</time>
      </trkpt>
      <trkpt lat="47.36184" lon="6.44427">
        <ele>310.95</ele>
        <time>2015-10-03T08:47:29Z</time>
      </trkpt>
      <trkpt lat="47.36181" lon="6.44431">
        <ele>310.951</ele>
        <time>2015-10-03T08:47:30Z</time>
      </trkpt>
      <trkpt lat="47.36179" lon="6.44436">
        <ele>310.9</ele>
        <time>2015-10-03T08:47:31Z</time>
      </trkpt>
      <trkpt lat="47.36176" lon="6.4444">
        <ele>310.998</ele>
        <time>2015-10-03T08:47:32Z</time>
      </trkpt>
      <trkpt lat="47.36174" lon="6.44443">
        <ele>310.726</ele>
        <time>2015-10-03T08:47:33Z</time>
      </trkpt>
      <trkpt lat="47.3617" lon="6.44448">
        <ele>310.815</ele>
        <time>2015-10-03T08:47:34Z</time>
      </trkpt>
      <trkpt lat="47.36168" lon="6.44452">
        <ele>311.332</ele>
        <time>2015-10-03T08:47:35Z</time>
      </trkpt>
      <trkpt lat="47.36165" lon="6.44456">
        <ele>311.155</ele>
        <time>2015-10-03T08:47:36Z</time>
      </trkpt>
      <trkpt lat="47.36162" lon="6.44461">
        <ele>311.34</ele>
        <time>2015-10-03T08:47:37Z</time>
      </trkpt>
      <trkpt lat="47.3616" lon="6.44465">
        <ele>311.702</ele>
        <time>2015-10-03T08:47:38Z</time>
      </trkpt>
      <trkpt lat="47.36157" lon="6.4447">
        <ele>312.18</ele>
        <time>2015-10-03T08:47:39Z</time>
      </trkpt>
      <trkpt lat="47.36155" lon="6.44475">
        <ele>312.818</ele>
        <time>2015-10-03T08:47:40Z</time>
      </trkpt>
      <trkpt lat="47.36152" lon="6.44479">
        <ele>312.71</ele>
        <time>2015-10-03T08:47:41Z</time>
      </trkpt>
      <trkpt lat="47.36149" lon="6.44485">
        <ele>312.869</ele>
        <time>2015-10-03T08:47:42Z</time>
      </trkpt>
      <trkpt lat="47.36146" lon="6.4449">
        <ele>312.928</ele>
        <time>2015-10-03T08:47:43Z</time>
      </trkpt>
      <trkpt lat="47.36143" lon="6.44495">
        <ele>312.245</ele>
        <time>2015-10-03T08:47:44Z</time>
      </trkpt>
      <trkpt lat="47.3614" lon="6.44499">
        <ele>311.88</ele>
        <time>2015-10-03T08:47:45Z</time>
      </trkpt>
      <trkpt lat="47.36137" lon="6.44503">
        <ele>312.192</ele>
        <time>2015-10-03T08:47:46Z</time>
      </trkpt>
      <trkpt lat="47.36134" lon="6.44508">
        <ele>312.137</ele>
        <time>2015-10-03T08:47:47Z</time>
      </trkpt>
      <trkpt lat="47.36131" lon="6.44512">
        <ele>312.589</ele>
        <time>2015-10-03T08:47:48Z</time>
      </trkpt>
      <trkpt lat="47.36128" lon="6.44517">
        <ele>312.626</ele>
        <time>2015-10-03T08:47:49Z</time>
      </trkpt>
      <trkpt lat="47.36125" lon="6.44521">
        <ele>313.158</ele>
        <time>2015-10-03T08:47:50Z</time>
      </trkpt>
      <trkpt lat="47.36123" lon="6.44525">
        <ele>312.907</ele>
        <time>2015-10-03T08:47:51Z</time>
      </trkpt>
      <trkpt lat="47.3612" lon="6.44529">
        <ele>313.277</ele>
        <time>2015-10-03T08:47:52Z</time>
      </trkpt>
      <trkpt lat="47.36117" lon="6.44533">
        <ele>313.45</ele>
        <time>2015-10-03T08:47:53Z</time>
      </trkpt>
      <trkpt lat="47.36115" lon="6.44536">
        <ele>313.267</ele>
        <time>2015-10-03T08:47:54Z</time>
      </trkpt>
      <trkpt lat="47.36112" lon="6.4454">
        <ele>313.311</ele>
        <time>2015-10-03T08:47:55Z</time>
      </trkpt>
      <trkpt lat="47.3611" lon="6.44546">
        <ele>313.592</ele>
        <time>2015-10-03T08:47:56Z</time>
      </trkpt>
      <trkpt lat="47.36108" lon="6.4455">
        <ele>313.979</ele>
        <time>2015-10-03T08:47:57Z</time>
      </trkpt>
      <trkpt lat="47.36106" lon="6.44555">
        <ele>314.185</ele>
        <time>2015-10-03T08:47:58Z</time>
      </trkpt>
      <trkpt lat="47.36104" lon="6.44559">
        <ele>314.36</ele>
        <time>2015-10-03T08:47:59Z</time>
      </trkpt>
      <trkpt lat="47.36102" lon="6.44563">
        <ele>314.831</ele>
        <time>2015-10-03T08:48:00Z</time>
      </trkpt>
      <trkpt lat="47.361" lon="6.44567">
        <ele>315.13</ele>
        <time>2015-10-03T08:48:01Z</time>
      </trkpt>
      <trkpt lat="47.36099" lon="6.44571">
        <ele>315.013</ele>
        <time>2015-10-03T08:48:02Z</time>
      </trkpt>
      <trkpt lat="47.36097" lon="6.44575">
        <ele>315.255</ele>
        <time>2015-10-03T08:48:03Z</time>
      </trkpt>
      <trkpt lat="47.36096" lon="6.44579">
        <ele>315.315</ele>
        <time>2015-10-03T08:48:04Z</time>
      </trkpt>
      <trkpt lat="47.36095" lon="6.44583">
        <ele>315.17</ele>
        <time>2015-10-03T08:48:05Z</time>
      </trkpt>
      <trkpt lat="47.36094" lon="6.44587">
        <ele>314.997</ele>
        <time>2015-10-03T08:48:06Z</time>
      </trkpt>
      <trkpt lat="47.36092" lon="6.44592">
        <ele>315.125</ele>
        <time>2015-10-03T08:48:07Z</time>
      </trkpt>
      <trkpt lat="47.36091" lon="6.44597">
        <ele>315.274</ele>
        <time>2015-10-03T08:48:08Z</time>
      </trkpt>
      <trkpt lat="47.3609" lon="6.44601">
        <ele>315.753</ele>
        <time>2015-10-03T08:48:09Z</time>
      </trkpt>
      <trkpt lat="47.3609" lon="6.44606">
        <ele>315.631</ele>
        <time>2015-10-03T08:48:10Z</time>
      </trkpt>
      <trkpt lat="47.36089" lon="6.44611">
        <ele>315.89</ele>
        <time>2015-10-03T08:48:11Z</time>
      </trkpt>
      <trkpt lat="47.36089" lon="6.44616">
        <ele>315.791</ele>
        <time>2015-10-03T08:48:12Z</time>
      </trkpt>
      <trkpt lat="47.36089" lon="6.44622">
        <ele>316.018</ele>
        <time>2015-10-03T08:48:13Z</time>
      </trkpt>
      <trkpt lat="47.36089" lon="6.44627">
        <ele>316.027</ele>
        <time>2015-10-03T08:48:14Z</time>
      </trkpt>
      <trkpt lat="47.36089" lon="6.44633">
        <ele>315.688</ele>
        <time>2015-10-03T08:48:15Z</time>
      </trkpt>
      <trkpt lat="47.3609" lon="6.44639">
        <ele>315.71</ele>
        <time>2015-10-03T08:48:16Z</time>
      </trkpt>
      <trkpt lat="47.3609" lon="6.44644">
        <ele>316.097</ele>
        <time>2015-10-03T08:48:17Z</time>
      </trkpt>
      <trkpt lat="47.36091" lon="6.4465">
        <ele>316.09</ele>
        <time>2015-10-03T08:48:18Z</time>
      </trkpt>
      <trkpt lat="47.36092" lon="6.44655">
        <ele>315.948</ele>
        <time>2015-10-03T08:48:19Z</time>
      </trkpt>
      <trkpt lat="47.36092" lon="6.4466">
        <ele>315.87</ele>
        <time>2015-10-03T08:48:20Z</time>
      </trkpt>
      <trkpt lat="47.36092" lon="6.44665">
        <ele>315.745</ele>
        <time>2015-10-03T08:48:21Z</time>
      </trkpt>
      <trkpt lat="47.36092" lon="6.4467">
        <ele>316.008</ele>
        <time>2015-10-03T08:48:22Z</time>
      </trkpt>
      <trkpt lat="47.36092" lon="6.44675">
        <ele>316.12</ele>
        <time>2015-10-03T08:48:23Z</time>
      </trkpt>
      <trkpt lat="47.36092" lon="6.4468">
        <ele>317.155</ele>
        <time>2015-10-03T08:48:24Z</time>
      </trkpt>
      <trkpt lat="47.36092" lon="6.44685">
        <ele>317.267</ele>
        <time>2015-10-03T08:48:25Z</time>
      </trkpt>
      <trkpt lat="47.36092" lon="6.4469">
        <ele>317.563</ele>
        <time>2015-10-03T08:48:26Z</time>
      </trkpt>
      <trkpt lat="47.36091" lon="6.44696">
        <ele>318.693</ele>
        <time>2015-10-03T08:48:27Z</time>
      </trkpt>
      <trkpt lat="47.36091" lon="6.44701">
        <ele>318.577</ele>
        <time>2015-10-03T08:48:28Z</time>
      </trkpt>
      <trkpt lat="47.36091" lon="6.44706">
        <ele>318.523</ele>
        <time>2015-10-03T08:48:29Z</time>
      </trkpt>
      <trkpt lat="47.36091" lon="6.44712">
        <ele>318.588</ele>
        <time>2015-10-03T08:48:30Z</time>
      </trkpt>
      <trkpt lat="47.3609" lon="6.44718">
        <ele>318.438</ele>
        <time>2015-10-03T08:48:31Z</time>
      </trkpt>
      <trkpt lat="47.3609" lon="6.44724">
        <ele>318.631</ele>
        <time>2015-10-03T08:48:32Z</time>
      </trkpt>
      <trkpt lat="47.36089" lon="6.4473">
        <ele>318.439</ele>
        <time>2015-10-03T08:48:33Z</time>
      </trkpt>
      <trkpt lat="47.36089" lon="6.44735">
        <ele>318.458</ele>
        <time>2015-10-03T08:48:34Z</time>
      </trkpt>
      <trkpt lat="47.36089" lon="6.44741">
        <ele>318.237</ele>
        <time>2015-10-03T08:48:35Z</time>
      </trkpt>
      <trkpt lat="47.36089" lon="6.44747">
        <ele>318.029</ele>
        <time>2015-10-03T08:48:36Z</time>
      </trkpt>
      <trkpt lat="47.36089" lon="6.44752">
        <ele>318.263</ele>
        <time>2015-10-03T08:48:37Z</time>
      </trkpt>
      <trkpt lat="47.36088" lon="6.44758">
        <ele>317.746</ele>
        <time>2015-10-03T08:48:38Z</time>
      </trkpt>
      <trkpt lat="47.36088" lon="6.44764">
        <ele>317.953</ele>
        <time>2015-10-03T08:48:39Z</time>
      </trkpt>
      <trkpt lat="47.36088" lon="6.44769">
        <ele>318.419</ele>
        <time>2015-10-03T08:48:40Z</time>
      </trkpt>
      <trkpt lat="47.36087" lon="6.44775">
        <ele>318.792</ele>
        <time>2015-10-03T08:48:41Z</time>
      </trkpt>
      <trkpt lat="47.36087" lon="6.44781">
        <ele>319.057</ele>
        <time>2015-10-03T08:48:42Z</time>
      </trkpt>
      <trkpt lat="47.36086" lon="6.44786">
        <ele>318.603</ele>
        <time>2015-10-03T08:48:43Z</time>
      </trkpt>
      <trkpt lat="47.36086" lon="6.44791">
        <ele>318.529</ele>
        <time>2015-10-03T08:48:44Z</time>
      </trkpt>
      <trkpt lat="47.36085" lon="6.44796">
        <ele>318.806</ele>
        <time>2015-10-03T08:48:45Z</time>
      </trkpt>
      <trkpt lat="47.36084" lon="6.44801">
        <ele>318.765</ele>
        <time>2015-10-03T08:48:46Z</time>
      </trkpt>
      <trkpt lat="47.36084" lon="6.44806">
        <ele>318.605</ele>
        <time>2015-10-03T08:48:47Z</time>
      </trkpt>
      <trkpt lat="47.36083" lon="6.44811">
        <ele>318.85</ele>
        <time>2015-10-03T08:48:48Z</time>
      </trkpt>
      <trkpt lat="47.36082" lon="6.44816">
        <ele>319.111</ele>
        <time>2015-10-03T08:48:49Z</time>
      </trkpt>
      <trkpt lat="47.36082" lon="6.44822">
        <ele>319.077</ele>
        <time>2015-10-03T08:48:50Z</time>
      </trkpt>
      <trkpt lat="47.36081" lon="6.44827">
        <ele>318.954</ele>
        <time>2015-10-03T08:48:51Z</time>
      </trkpt>
      <trkpt lat="47.36081" lon="6.44832">
        <ele>319.115</ele>
        <time>2015-10-03T08:48:52Z</time>
      </trkpt>
      <trkpt lat="47.3608" lon="6.44838">
        <ele>318.876</ele>
        <time>2015-10-03T08:48:53Z</time>
      </trkpt>
      <trkpt lat="47.3608" lon="6.44845">
        <ele>318.18</ele>
        <time>2015-10-03T08:48:54Z</time>
      </trkpt>
      <trkpt lat="47.36079" lon="6.44853">
        <ele>318.176</ele>
        <time>2015-10-03T08:48:55Z</time>
      </trkpt>
      <trkpt lat="47.36079" lon="6.4486">
        <ele>317.985</ele>
        <time>2015-10-03T08:48:56Z</time>
      </trkpt>
      <trkpt lat="47.36079" lon="6.44868">
        <ele>317.574</ele>
        <time>2015-10-03T08:48:57Z</time>
      </trkpt>
      <trkpt lat="47.36079" lon="6.44877">
        <ele>316.962</ele>
        <time>2015-10-03T08:48:58Z</time>
      </trkpt>
      <trkpt lat="47.36079" lon="6.44885">
        <ele>316.601</ele>
        <time>2015-10-03T08:48:59Z</time>
      </trkpt>
      <trkpt lat="47.3608" lon="6.44895">
        <ele>316.61</ele>
        <time>2015-10-03T08:49:00Z</time>
      </trkpt>
      <trkpt lat="47.3608" lon="6.44905">
        <ele>315.496</ele>
        <time>2015-10-03T08:49:00Z</time>
      </trkpt>
      <trkpt lat="47.3608" lon="6.44915">
        <ele>315.241</ele>
        <time>2015-10-03T08:49:01Z</time>
      </trkpt>
      <trkpt lat="47.36081" lon="6.44926">
        <ele>314.49</ele>
        <time>2015-10-03T08:49:02Z</time>
      </trkpt>
      <trkpt lat="47.3608" lon="6.44937">
        <ele>313.898</ele>
        <time>2015-10-03T08:49:03Z</time>
      </trkpt>
      <trkpt lat="47.3608" lon="6.44947">
        <ele>312.775</ele>
        <time>2015-10-03T08:49:04Z</time>
      </trkpt>
      <trkpt lat="47.3608" lon="6.44957">
        <ele>311.938</ele>
        <time>2015-10-03T08:49:05Z</time>
      </trkpt>
      <trkpt lat="47.36079" lon="6.44967">
        <ele>311.516</ele>
        <time>2015-10-03T08:49:06Z</time>
      </trkpt>
      <trkpt lat="47.36078" lon="6.44976">
        <ele>311.463</ele>
        <time>2015-10-03T08:49:07Z</time>
      </trkpt>
      <trkpt lat="47.36075" lon="6.44983">
        <ele>312.604</ele>
        <time>2015-10-03T08:49:08Z</time>
      </trkpt>
      <trkpt lat="47.36073" lon="6.44991">
        <ele>312.133</ele>
        <time>2015-10-03T08:49:09Z</time>
      </trkpt>
      <trkpt lat="47.36071" lon="6.44999">
        <ele>311.803</ele>
        <time>2015-10-03T08:49:10Z</time>
      </trkpt>
      <trkpt lat="47.36068" lon="6.45006">
        <ele>311.474</ele>
        <time>2015-10-03T08:49:11Z</time>
      </trkpt>
      <trkpt lat="47.36065" lon="6.45013">
        <ele>311.663</ele>
        <time>2015-10-03T08:49:12Z</time>
      </trkpt>
      <trkpt lat="47.36062" lon="6.45019">
        <ele>311.365</ele>
        <time>2015-10-03T08:49:13Z</time>
      </trkpt>
      <trkpt lat="47.3606" lon="6.45023">
        <ele>310.856</ele>
        <time>2015-10-03T08:49:14Z</time>
      </trkpt>
      <trkpt lat="47.36058" lon="6.45027">
        <ele>310.689</ele>
        <time>2015-10-03T08:49:15Z</time>
      </trkpt>
      <trkpt lat="47.36054" lon="6.45034">
        <ele>310.044</ele>
        <time>2015-10-03T08:49:16Z</time>
      </trkpt>
      <trkpt lat="47.36053" lon="6.45041">
        <ele>310.025</ele>
        <time>2015-10-03T08:49:17Z</time>
      </trkpt>
      <trkpt lat="47.36053" lon="6.45048">
        <ele>310.342</ele>
        <time>2015-10-03T08:49:18Z</time>
      </trkpt>
      <trkpt lat="47.36049" lon="6.45052">
        <ele>311.255</ele>
        <time>2015-10-03T08:49:19Z</time>
      </trkpt>
      <trkpt lat="47.36045" lon="6.45054">
        <ele>314.444</ele>
        <time>2015-10-03T08:49:20Z</time>
      </trkpt>
      <trkpt lat="47.36042" lon="6.45059">
        <ele>315.081</ele>
        <time>2015-10-03T08:49:21Z</time>
      </trkpt>
      <trkpt lat="47.36038" lon="6.45063">
        <ele>316.515</ele>
        <time>2015-10-03T08:49:22Z</time>
      </trkpt>
      <trkpt lat="47.36036" lon="6.45068">
        <ele>316.597</ele>
        <time>2015-10-03T08:49:23Z</time>
      </trkpt>
      <trkpt lat="47.36035" lon="6.45074">
        <ele>315.71</ele>
        <time>2015-10-03T08:49:24Z</time>
      </trkpt>
      <trkpt lat="47.36035" lon="6.45079">
        <ele>315.149</ele>
        <time>2015-10-03T08:49:25Z</time>
      </trkpt>
      <trkpt lat="47.36032" lon="6.45085">
        <ele>315.705</ele>
        <time>2015-10-03T08:49:26Z</time>
      </trkpt>
      <trkpt lat="47.36031" lon="6.45092">
        <ele>311.93</ele>
        <time>2015-10-03T08:49:27Z</time>
      </trkpt>
      <trkpt lat="47.3603" lon="6.45099">
        <ele>312.048</ele>
        <time>2015-10-03T08:49:28Z</time>
      </trkpt>
      <trkpt lat="47.36028" lon="6.45105">
        <ele>312.31</ele>
        <time>2015-10-03T08:49:29Z</time>
      </trkpt>
      <trkpt lat="47.36026" lon="6.45111">
        <ele>313.678</ele>
        <time>2015-10-03T08:49:30Z</time>
      </trkpt>
      <trkpt lat="47.36024" lon="6.45117">
        <ele>313.809</ele>
        <time>2015-10-03T08:49:31Z</time>
      </trkpt>
      <trkpt lat="47.36021" lon="6.45122">
        <ele>313.605</ele>
        <time>2015-10-03T08:49:32Z</time>
      </trkpt>
      <trkpt lat="47.36018" lon="6.45127">
        <ele>313.605</ele>
        <time>2015-10-03T08:49:33Z</time>
      </trkpt>
      <trkpt lat="47.36014" lon="6.45132">
        <ele>310.337</ele>
        <time>2015-10-03T08:49:34Z</time>
      </trkpt>
      <trkpt lat="47.36011" lon="6.45136">
        <ele>309.612</ele>
        <time>2015-10-03T08:49:35Z</time>
      </trkpt>
      <trkpt lat="47.36007" lon="6.4514">
        <ele>309.583</ele>
        <time>2015-10-03T08:49:36Z</time>
      </trkpt>
      <trkpt lat="47.36001" lon="6.45151">
        <ele>309.308</ele>
        <time>2015-10-03T08:49:37Z</time>
      </trkpt>
      <trkpt lat="47.35998" lon="6.45157">
        <ele>309.248</ele>
        <time>2015-10-03T08:49:38Z</time>
      </trkpt>
      <trkpt lat="47.36004" lon="6.45167">
        <ele>309.481</ele>
        <time>2015-10-03T08:49:39Z</time>
      </trkpt>
      <trkpt lat="47.36008" lon="6.45176">
        <ele>309.385</ele>
        <time>2015-10-03T08:49:40Z</time>
      </trkpt>
      <trkpt lat="47.36012" lon="6.45181">
        <ele>309.089</ele>
        <time>2015-10-03T08:49:41Z</time>
      </trkpt>
      <trkpt lat="47.36019" lon="6.45187">
        <ele>308.283</ele>
        <time>2015-10-03T08:49:42Z</time>
      </trkpt>
      <trkpt lat="47.36026" lon="6.45191">
        <ele>307.768</ele>
        <time>2015-10-03T08:49:43Z</time>
      </trkpt>
      <trkpt lat="47.36034" lon="6.45196">
        <ele>307.375</ele>
        <time>2015-10-03T08:49:44Z</time>
      </trkpt>
      <trkpt lat="47.36042" lon="6.45201">
        <ele>306.81</ele>
        <time>2015-10-03T08:49:45Z</time>
      </trkpt>
      <trkpt lat="47.3605" lon="6.45206">
        <ele>305.737</ele>
        <time>2015-10-03T08:49:46Z</time>
      </trkpt>
      <trkpt lat="47.36057" lon="6.45213">
        <ele>304.578</ele>
        <time>2015-10-03T08:49:47Z</time>
      </trkpt>
      <trkpt lat="47.36068" lon="6.45219">
        <ele>302.956</ele>
        <time>2015-10-03T08:49:48Z</time>
      </trkpt>
      <trkpt lat="47.36076" lon="6.45224">
        <ele>302.658</ele>
        <time>2015-10-03T08:49:49Z</time>
      </trkpt>
      <trkpt lat="47.36086" lon="6.45231">
        <ele>301.434</ele>
        <time>2015-10-03T08:49:50Z</time>
      </trkpt>
      <trkpt lat="47.36093" lon="6.45238">
        <ele>300.664</ele>
        <time>2015-10-03T08:49:51Z</time>
      </trkpt>
      <trkpt lat="47.36099" lon="6.45247">
        <ele>301.509</ele>
        <time>2015-10-03T08:49:52Z</time>
      </trkpt>
      <trkpt lat="47.36106" lon="6.45258">
        <ele>303.069</ele>
        <time>2015-10-03T08:49:53Z</time>
      </trkpt>
      <trkpt lat="47.36114" lon="6.45268">
        <ele>301.733</ele>
        <time>2015-10-03T08:49:54Z</time>
      </trkpt>
      <trkpt lat="47.36122" lon="6.45279">
        <ele>302.171</ele>
        <time>2015-10-03T08:49:55Z</time>
      </trkpt>
      <trkpt lat="47.3613" lon="6.45288">
        <ele>301.35</ele>
        <time>2015-10-03T08:49:56Z</time>
      </trkpt>
      <trkpt lat="47.36137" lon="6.453">
        <ele>300.701</ele>
        <time>2015-10-03T08:49:57Z</time>
      </trkpt>
      <trkpt lat="47.36143" lon="6.45311">
        <ele>300.315</ele>
        <time>2015-10-03T08:49:58Z</time>
      </trkpt>
      <trkpt lat="47.3615" lon="6.4532">
        <ele>300.249</ele>
        <time>2015-10-03T08:49:59Z</time>
      </trkpt>
      <trkpt lat="47.36157" lon="6.45329">
        <ele>299.991</ele>
        <time>2015-10-03T08:50:00Z</time>
      </trkpt>
      <trkpt lat="47.36164" lon="6.45338">
        <ele>300.277</ele>
        <time>2015-10-03T08:50:01Z</time>
      </trkpt>
      <trkpt lat="47.3617" lon="6.45347">
        <ele>300.139</ele>
        <time>2015-10-03T08:50:02Z</time>
      </trkpt>
      <trkpt lat="47.36176" lon="6.45355">
        <ele>299.584</ele>
        <time>2015-10-03T08:50:03Z</time>
      </trkpt>
      <trkpt lat="47.36181" lon="6.45361">
        <ele>298.762</ele>
        <time>2015-10-03T08:50:04Z</time>
      </trkpt>
      <trkpt lat="47.36186" lon="6.45368">
        <ele>298.277</ele>
        <time>2015-10-03T08:50:05Z</time>
      </trkpt>
      <trkpt lat="47.36191" lon="6.45375">
        <ele>298.337</ele>
        <time>2015-10-03T08:50:06Z</time>
      </trkpt>
      <trkpt lat="47.36197" lon="6.45381">
        <ele>298.161</ele>
        <time>2015-10-03T08:50:07Z</time>
      </trkpt>
      <trkpt lat="47.36202" lon="6.45387">
        <ele>298.308</ele>
        <time>2015-10-03T08:50:08Z</time>
      </trkpt>
      <trkpt lat="47.36207" lon="6.45392">
        <ele>298.487</ele>
        <time>2015-10-03T08:50:09Z</time>
      </trkpt>
      <trkpt lat="47.36212" lon="6.45396">
        <ele>298.775</ele>
        <time>2015-10-03T08:50:10Z</time>
      </trkpt>
      <trkpt lat="47.36218" lon="6.45399">
        <ele>298.128</ele>
        <time>2015-10-03T08:50:11Z</time>
      </trkpt>
      <trkpt lat="47.36224" lon="6.45403">
        <ele>297.868</ele>
        <time>2015-10-03T08:50:12Z</time>
      </trkpt>
      <trkpt lat="47.36229" lon="6.45404">
        <ele>298.19</ele>
        <time>2015-10-03T08:50:13Z</time>
      </trkpt>
      <trkpt lat="47.36234" lon="6.45407">
        <ele>298.29</ele>
        <time>2015-10-03T08:50:14Z</time>
      </trkpt>
      <trkpt lat="47.36238" lon="6.45408">
        <ele>298.122</ele>
        <time>2015-10-03T08:50:15Z</time>
      </trkpt>
      <trkpt lat="47.36242" lon="6.4541">
        <ele>297.25</ele>
        <time>2015-10-03T08:50:16Z</time>
      </trkpt>
      <trkpt lat="47.36247" lon="6.45411">
        <ele>297.232</ele>
        <time>2015-10-03T08:50:17Z</time>
      </trkpt>
      <trkpt lat="47.36251" lon="6.45412">
        <ele>296.359</ele>
        <time>2015-10-03T08:50:18Z</time>
      </trkpt>
      <trkpt lat="47.36255" lon="6.45414">
        <ele>296.565</ele>
        <time>2015-10-03T08:50:19Z</time>
      </trkpt>
      <trkpt lat="47.36259" lon="6.45415">
        <ele>296.902</ele>
        <time>2015-10-03T08:50:20Z</time>
      </trkpt>
      <trkpt lat="47.36263" lon="6.45416">
        <ele>296.503</ele>
        <time>2015-10-03T08:50:21Z</time>
      </trkpt>
      <trkpt lat="47.36267" lon="6.45418">
        <ele>296.831</ele>
        <time>2015-10-03T08:50:22Z</time>
      </trkpt>
      <trkpt lat="47.36271" lon="6.4542">
        <ele>297.541</ele>
        <time>2015-10-03T08:50:23Z</time>
      </trkpt>
      <trkpt lat="47.36276" lon="6.45427">
        <ele>297.104</ele>
        <time>2015-10-03T08:50:24Z</time>
      </trkpt>
      <trkpt lat="47.3628" lon="6.4543">
        <ele>297.915</ele>
        <time>2015-10-03T08:50:25Z</time>
      </trkpt>
      <trkpt lat="47.36284" lon="6.45433">
        <ele>297.955</ele>
        <time>2015-10-03T08:50:26Z</time>
      </trkpt>
      <trkpt lat="47.36288" lon="6.45438">
        <ele>296.83</ele>
        <time>2015-10-03T08:50:27Z</time>
      </trkpt>
      <trkpt lat="47.3629" lon="6.45442">
        <ele>297.056</ele>
        <time>2015-10-03T08:50:28Z</time>
      </trkpt>
      <trkpt lat="47.36293" lon="6.45448">
        <ele>297.366</ele>
        <time>2015-10-03T08:50:30Z</time>
      </trkpt>
      <trkpt lat="47.36296" lon="6.45453">
        <ele>297.061</ele>
        <time>2015-10-03T08:50:31Z</time>
      </trkpt>
      <trkpt lat="47.363" lon="6.45458">
        <ele>297.03</ele>
        <time>2015-10-03T08:50:32Z</time>
      </trkpt>
      <trkpt lat="47.36303" lon="6.45464">
        <ele>296.998</ele>
        <time>2015-10-03T08:50:33Z</time>
      </trkpt>
      <trkpt lat="47.36307" lon="6.45469">
        <ele>296.698</ele>
        <time>2015-10-03T08:50:34Z</time>
      </trkpt>
      <trkpt lat="47.3631" lon="6.45474">
        <ele>296.474</ele>
        <time>2015-10-03T08:50:35Z</time>
      </trkpt>
      <trkpt lat="47.36313" lon="6.45478">
        <ele>296.574</ele>
        <time>2015-10-03T08:50:36Z</time>
      </trkpt>
      <trkpt lat="47.36316" lon="6.45483">
        <ele>296.481</ele>
        <time>2015-10-03T08:50:37Z</time>
      </trkpt>
      <trkpt lat="47.36319" lon="6.45487">
        <ele>296.416</ele>
        <time>2015-10-03T08:50:38Z</time>
      </trkpt>
      <trkpt lat="47.36323" lon="6.45491">
        <ele>296.412</ele>
        <time>2015-10-03T08:50:39Z</time>
      </trkpt>
      <trkpt lat="47.36326" lon="6.45494">
        <ele>297.344</ele>
        <time>2015-10-03T08:50:40Z</time>
      </trkpt>
      <trkpt lat="47.36328" lon="6.45497">
        <ele>297.273</ele>
        <time>2015-10-03T08:50:41Z</time>
      </trkpt>
      <trkpt lat="47.3633" lon="6.455">
        <ele>296.835</ele>
        <time>2015-10-03T08:50:42Z</time>
      </trkpt>
      <trkpt lat="47.36332" lon="6.45503">
        <ele>296.979</ele>
        <time>2015-10-03T08:50:43Z</time>
      </trkpt>
      <trkpt lat="47.36334" lon="6.45506">
        <ele>296.13</ele>
        <time>2015-10-03T08:50:44Z</time>
      </trkpt>
      <trkpt lat="47.36336" lon="6.45509">
        <ele>296.831</ele>
        <time>2015-10-03T08:50:45Z</time>
      </trkpt>
      <trkpt lat="47.36338" lon="6.45511">
        <ele>297.285</ele>
        <time>2015-10-03T08:50:46Z</time>
      </trkpt>
      <trkpt lat="47.3634" lon="6.45514">
        <ele>298.254</ele>
        <time>2015-10-03T08:50:47Z</time>
      </trkpt>
      <trkpt lat="47.36342" lon="6.45517">
        <ele>298.521</ele>
        <time>2015-10-03T08:50:48Z</time>
      </trkpt>
      <trkpt lat="47.36345" lon="6.45519">
        <ele>298.624</ele>
        <time>2015-10-03T08:50:49Z</time>
      </trkpt>
      <trkpt lat="47.36347" lon="6.45523">
        <ele>298.338</ele>
        <time>2015-10-03T08:50:50Z</time>
      </trkpt>
      <trkpt lat="47.3635" lon="6.45526">
        <ele>298.413</ele>
        <time>2015-10-03T08:50:51Z</time>
      </trkpt>
      <trkpt lat="47.36353" lon="6.45531">
        <ele>298.44</ele>
        <time>2015-10-03T08:50:52Z</time>
      </trkpt>
      <trkpt lat="47.36356" lon="6.45536">
        <ele>298.385</ele>
        <time>2015-10-03T08:50:53Z</time>
      </trkpt>
      <trkpt lat="47.36358" lon="6.45539">
        <ele>298.08</ele>
        <time>2015-10-03T08:50:54Z</time>
      </trkpt>
      <trkpt lat="47.3636" lon="6.45543">
        <ele>298.285</ele>
        <time>2015-10-03T08:50:55Z</time>
      </trkpt>
      <trkpt lat="47.36362" lon="6.45547">
        <ele>298.533</ele>
        <time>2015-10-03T08:50:56Z</time>
      </trkpt>
      <trkpt lat="47.36365" lon="6.45552">
        <ele>298.497</ele>
        <time>2015-10-03T08:50:57Z</time>
      </trkpt>
      <trkpt lat="47.36368" lon="6.45557">
        <ele>297.231</ele>
        <time>2015-10-03T08:50:58Z</time>
      </trkpt>
      <trkpt lat="47.36371" lon="6.45562">
        <ele>297.058</ele>
        <time>2015-10-03T08:50:59Z</time>
      </trkpt>
      <trkpt lat="47.36374" lon="6.45567">
        <ele>297.026</ele>
        <time>2015-10-03T08:51:00Z</time>
      </trkpt>
      <trkpt lat="47.36376" lon="6.45571">
        <ele>296.416</ele>
        <time>2015-10-03T08:51:01Z</time>
      </trkpt>
      <trkpt lat="47.36379" lon="6.45576">
        <ele>296.605</ele>
        <time>2015-10-03T08:51:02Z</time>
      </trkpt>
      <trkpt lat="47.36381" lon="6.4558">
        <ele>297.303</ele>
        <time>2015-10-03T08:51:03Z</time>
      </trkpt>
      <trkpt lat="47.36383" lon="6.45584">
        <ele>297.853</ele>
        <time>2015-10-03T08:51:04Z</time>
      </trkpt>
      <trkpt lat="47.36385" lon="6.45589">
        <ele>296.509</ele>
        <time>2015-10-03T08:51:05Z</time>
      </trkpt>
      <trkpt lat="47.36387" lon="6.45593">
        <ele>296.81</ele>
        <time>2015-10-03T08:51:06Z</time>
      </trkpt>
      <trkpt lat="47.36388" lon="6.45598">
        <ele>295.488</ele>
        <time>2015-10-03T08:51:07Z</time>
      </trkpt>
      <trkpt lat="47.36389" lon="6.45603">
        <ele>296.111</ele>
        <time>2015-10-03T08:51:08Z</time>
      </trkpt>
      <trkpt lat="47.3639" lon="6.45608">
        <ele>296.465</ele>
        <time>2015-10-03T08:51:09Z</time>
      </trkpt>
      <trkpt lat="47.36391" lon="6.45612">
        <ele>296.922</ele>
        <time>2015-10-03T08:51:10Z</time>
      </trkpt>
      <trkpt lat="47.36392" lon="6.45617">
        <ele>297.196</ele>
        <time>2015-10-03T08:51:11Z</time>
      </trkpt>
      <trkpt lat="47.36394" lon="6.45621">
        <ele>297.617</ele>
        <time>2015-10-03T08:51:12Z</time>
      </trkpt>
      <trkpt lat="47.36394" lon="6.45625">
        <ele>298.108</ele>
        <time>2015-10-03T08:51:13Z</time>
      </trkpt>
      <trkpt lat="47.36396" lon="6.45628">
        <ele>299.446</ele>
        <time>2015-10-03T08:51:14Z</time>
      </trkpt>
      <trkpt lat="47.36398" lon="6.45632">
        <ele>299.807</ele>
        <time>2015-10-03T08:51:15Z</time>
      </trkpt>
      <trkpt lat="47.36399" lon="6.45636">
        <ele>299.996</ele>
        <time>2015-10-03T08:51:16Z</time>
      </trkpt>
      <trkpt lat="47.36401" lon="6.45639">
        <ele>300.763</ele>
        <time>2015-10-03T08:51:17Z</time>
      </trkpt>
      <trkpt lat="47.36403" lon="6.45642">
        <ele>301.111</ele>
        <time>2015-10-03T08:51:18Z</time>
      </trkpt>
      <trkpt lat="47.36405" lon="6.45645">
        <ele>301.641</ele>
        <time>2015-10-03T08:51:19Z</time>
      </trkpt>
      <trkpt lat="47.36407" lon="6.45648">
        <ele>301.79</ele>
        <time>2015-10-03T08:51:20Z</time>
      </trkpt>
      <trkpt lat="47.36408" lon="6.45652">
        <ele>301.316</ele>
        <time>2015-10-03T08:51:21Z</time>
      </trkpt>
      <trkpt lat="47.36409" lon="6.45656">
        <ele>301.98</ele>
        <time>2015-10-03T08:51:22Z</time>
      </trkpt>
      <trkpt lat="47.3641" lon="6.45659">
        <ele>302.398</ele>
        <time>2015-10-03T08:51:23Z</time>
      </trkpt>
      <trkpt lat="47.36412" lon="6.45663">
        <ele>302.372</ele>
        <time>2015-10-03T08:51:24Z</time>
      </trkpt>
      <trkpt lat="47.36413" lon="6.45666">
        <ele>302.275</ele>
        <time>2015-10-03T08:51:25Z</time>
      </trkpt>
      <trkpt lat="47.36414" lon="6.4567">
        <ele>302.749</ele>
        <time>2015-10-03T08:51:26Z</time>
      </trkpt>
      <trkpt lat="47.36416" lon="6.45673">
        <ele>302.582</ele>
        <time>2015-10-03T08:51:27Z</time>
      </trkpt>
      <trkpt lat="47.36417" lon="6.45677">
        <ele>303.79</ele>
        <time>2015-10-03T08:51:28Z</time>
      </trkpt>
      <trkpt lat="47.36419" lon="6.4568">
        <ele>303.702</ele>
        <time>2015-10-03T08:51:29Z</time>
      </trkpt>
      <trkpt lat="47.3642" lon="6.45684">
        <ele>303.753</ele>
        <time>2015-10-03T08:51:30Z</time>
      </trkpt>
      <trkpt lat="47.36422" lon="6.45687">
        <ele>303.98</ele>
        <time>2015-10-03T08:51:31Z</time>
      </trkpt>
      <trkpt lat="47.36423" lon="6.45691">
        <ele>304.082</ele>
        <time>2015-10-03T08:51:32Z</time>
      </trkpt>
      <trkpt lat="47.36425" lon="6.45695">
        <ele>304.152</ele>
        <time>2015-10-03T08:51:33Z</time>
      </trkpt>
      <trkpt lat="47.36427" lon="6.45698">
        <ele>304.577</ele>
        <time>2015-10-03T08:51:34Z</time>
      </trkpt>
      <trkpt lat="47.36429" lon="6.45702">
        <ele>303.339</ele>
        <time>2015-10-03T08:51:35Z</time>
      </trkpt>
      <trkpt lat="47.36431" lon="6.45706">
        <ele>303.511</ele>
        <time>2015-10-03T08:51:36Z</time>
      </trkpt>
      <trkpt lat="47.36433" lon="6.4571">
        <ele>304.009</ele>
        <time>2015-10-03T08:51:37Z</time>
      </trkpt>
      <trkpt lat="47.36435" lon="6.45714">
        <ele>303.964</ele>
        <time>2015-10-03T08:51:38Z</time>
      </trkpt>
      <trkpt lat="47.36437" lon="6.45719">
        <ele>303.303</ele>
        <time>2015-10-03T08:51:39Z</time>
      </trkpt>
      <trkpt lat="47.36439" lon="6.45722">
        <ele>303.802</ele>
        <time>2015-10-03T08:51:40Z</time>
      </trkpt>
      <trkpt lat="47.36441" lon="6.45725">
        <ele>304.019</ele>
        <time>2015-10-03T08:51:41Z</time>
      </trkpt>
      <trkpt lat="47.36444" lon="6.45728">
        <ele>304.296</ele>
        <time>2015-10-03T08:51:42Z</time>
      </trkpt>
      <trkpt lat="47.36445" lon="6.45731">
        <ele>304.755</ele>
        <time>2015-10-03T08:51:43Z</time>
      </trkpt>
      <trkpt lat="47.36447" lon="6.45734">
        <ele>304.531</ele>
        <time>2015-10-03T08:51:44Z</time>
      </trkpt>
      <trkpt lat="47.36449" lon="6.45737">
        <ele>304.937</ele>
        <time>2015-10-03T08:51:45Z</time>
      </trkpt>
      <trkpt lat="47.3645" lon="6.45739">
        <ele>305.083</ele>
        <time>2015-10-03T08:51:46Z</time>
      </trkpt>
      <trkpt lat="47.36452" lon="6.45742">
        <ele>305.481</ele>
        <time>2015-10-03T08:51:47Z</time>
      </trkpt>
      <trkpt lat="47.36454" lon="6.45745">
        <ele>305.345</ele>
        <time>2015-10-03T08:51:48Z</time>
      </trkpt>
      <trkpt lat="47.36456" lon="6.45748">
        <ele>305.21</ele>
        <time>2015-10-03T08:51:49Z</time>
      </trkpt>
      <trkpt lat="47.36457" lon="6.45751">
        <ele>305.076</ele>
        <time>2015-10-03T08:51:50Z</time>
      </trkpt>
      <trkpt lat="47.36459" lon="6.45753">
        <ele>304.173</ele>
        <time>2015-10-03T08:51:51Z</time>
      </trkpt>
      <trkpt lat="47.36461" lon="6.45755">
        <ele>304.313</ele>
        <time>2015-10-03T08:51:52Z</time>
      </trkpt>
      <trkpt lat="47.36462" lon="6.45758">
        <ele>304.676</ele>
        <time>2015-10-03T08:51:53Z</time>
      </trkpt>
      <trkpt lat="47.36464" lon="6.45761">
        <ele>304.827</ele>
        <time>2015-10-03T08:51:54Z</time>
      </trkpt>
      <trkpt lat="47.36466" lon="6.45763">
        <ele>304.896</ele>
        <time>2015-10-03T08:51:55Z</time>
      </trkpt>
      <trkpt lat="47.36468" lon="6.45766">
        <ele>305.283</ele>
        <time>2015-10-03T08:51:56Z</time>
      </trkpt>
      <trkpt lat="47.36469" lon="6.45769">
        <ele>305.027</ele>
        <time>2015-10-03T08:51:57Z</time>
      </trkpt>
      <trkpt lat="47.36471" lon="6.45771">
        <ele>305.129</ele>
        <time>2015-10-03T08:51:58Z</time>
      </trkpt>
      <trkpt lat="47.36472" lon="6.45774">
        <ele>306.845</ele>
        <time>2015-10-03T08:51:59Z</time>
      </trkpt>
      <trkpt lat="47.36473" lon="6.45776">
        <ele>307.668</ele>
        <time>2015-10-03T08:52:00Z</time>
      </trkpt>
      <trkpt lat="47.36474" lon="6.45779">
        <ele>308.142</ele>
        <time>2015-10-03T08:52:01Z</time>
      </trkpt>
      <trkpt lat="47.36474" lon="6.45781">
        <ele>309.176</ele>
        <time>2015-10-03T08:52:02Z</time>
      </trkpt>
      <trkpt lat="47.36475" lon="6.45783">
        <ele>309.237</ele>
        <time>2015-10-03T08:52:03Z</time>
      </trkpt>
      <trkpt lat="47.36476" lon="6.45786">
        <ele>309.17</ele>
        <time>2015-10-03T08:52:04Z</time>
      </trkpt>
      <trkpt lat="47.36477" lon="6.45789">
        <ele>309.926</ele>
        <time>2015-10-03T08:52:05Z</time>
      </trkpt>
      <trkpt lat="47.36478" lon="6.45791">
        <ele>310.304</ele>
        <time>2015-10-03T08:52:06Z</time>
      </trkpt>
      <trkpt lat="47.36479" lon="6.45794">
        <ele>310.62</ele>
        <time>2015-10-03T08:52:07Z</time>
      </trkpt>
      <trkpt lat="47.36481" lon="6.45796">
        <ele>311.032</ele>
        <time>2015-10-03T08:52:08Z</time>
      </trkpt>
      <trkpt lat="47.36482" lon="6.45799">
        <ele>311.126</ele>
        <time>2015-10-03T08:52:09Z</time>
      </trkpt>
      <trkpt lat="47.36484" lon="6.45801">
        <ele>311.665</ele>
        <time>2015-10-03T08:52:10Z</time>
      </trkpt>
      <trkpt lat="47.36485" lon="6.45805">
        <ele>311.464</ele>
        <time>2015-10-03T08:52:11Z</time>
      </trkpt>
      <trkpt lat="47.36486" lon="6.45808">
        <ele>311.873</ele>
        <time>2015-10-03T08:52:12Z</time>
      </trkpt>
      <trkpt lat="47.36487" lon="6.45812">
        <ele>311.908</ele>
        <time>2015-10-03T08:52:13Z</time>
      </trkpt>
      <trkpt lat="47.36488" lon="6.45816">
        <ele>311.503</ele>
        <time>2015-10-03T08:52:14Z</time>
      </trkpt>
      <trkpt lat="47.3649" lon="6.45819">
        <ele>311.452</ele>
        <time>2015-10-03T08:52:15Z</time>
      </trkpt>
      <trkpt lat="47.36491" lon="6.45823">
        <ele>311.427</ele>
        <time>2015-10-03T08:52:16Z</time>
      </trkpt>
      <trkpt lat="47.36493" lon="6.45826">
        <ele>311.675</ele>
        <time>2015-10-03T08:52:17Z</time>
      </trkpt>
      <trkpt lat="47.36494" lon="6.45829">
        <ele>312.046</ele>
        <time>2015-10-03T08:52:18Z</time>
      </trkpt>
      <trkpt lat="47.36495" lon="6.45833">
        <ele>312.326</ele>
        <time>2015-10-03T08:52:19Z</time>
      </trkpt>
      <trkpt lat="47.36497" lon="6.45836">
        <ele>312.164</ele>
        <time>2015-10-03T08:52:20Z</time>
      </trkpt>
      <trkpt lat="47.36498" lon="6.45839">
        <ele>312.309</ele>
        <time>2015-10-03T08:52:21Z</time>
      </trkpt>
      <trkpt lat="47.36499" lon="6.45842">
        <ele>312.262</ele>
        <time>2015-10-03T08:52:22Z</time>
      </trkpt>
      <trkpt lat="47.365" lon="6.45846">
        <ele>312.319</ele>
        <time>2015-10-03T08:52:23Z</time>
      </trkpt>
      <trkpt lat="47.36502" lon="6.45849">
        <ele>312.265</ele>
        <time>2015-10-03T08:52:24Z</time>
      </trkpt>
      <trkpt lat="47.36503" lon="6.45853">
        <ele>312.375</ele>
        <time>2015-10-03T08:52:25Z</time>
      </trkpt>
      <trkpt lat="47.36505" lon="6.45856">
        <ele>312.454</ele>
        <time>2015-10-03T08:52:26Z</time>
      </trkpt>
      <trkpt lat="47.36506" lon="6.45859">
        <ele>312.657</ele>
        <time>2015-10-03T08:52:27Z</time>
      </trkpt>
      <trkpt lat="47.36507" lon="6.45863">
        <ele>312.76</ele>
        <time>2015-10-03T08:52:28Z</time>
      </trkpt>
      <trkpt lat="47.36509" lon="6.45866">
        <ele>312.96</ele>
        <time>2015-10-03T08:52:29Z</time>
      </trkpt>
      <trkpt lat="47.3651" lon="6.4587">
        <ele>313.197</ele>
        <time>2015-10-03T08:52:30Z</time>
      </trkpt>
      <trkpt lat="47.36511" lon="6.45873">
        <ele>313.17</ele>
        <time>2015-10-03T08:52:31Z</time>
      </trkpt>
      <trkpt lat="47.36512" lon="6.45877">
        <ele>313.147</ele>
        <time>2015-10-03T08:52:32Z</time>
      </trkpt>
      <trkpt lat="47.36513" lon="6.45881">
        <ele>313.126</ele>
        <time>2015-10-03T08:52:33Z</time>
      </trkpt>
      <trkpt lat="47.36514" lon="6.45884">
        <ele>312.071</ele>
        <time>2015-10-03T08:52:34Z</time>
      </trkpt>
      <trkpt lat="47.36515" lon="6.45887">
        <ele>312.006</ele>
        <time>2015-10-03T08:52:35Z</time>
      </trkpt>
      <trkpt lat="47.36516" lon="6.45891">
        <ele>312.604</ele>
        <time>2015-10-03T08:52:36Z</time>
      </trkpt>
      <trkpt lat="47.36517" lon="6.45894">
        <ele>312.812</ele>
        <time>2015-10-03T08:52:37Z</time>
      </trkpt>
      <trkpt lat="47.36518" lon="6.45898">
        <ele>312.649</ele>
        <time>2015-10-03T08:52:38Z</time>
      </trkpt>
      <trkpt lat="47.36519" lon="6.45902">
        <ele>312.129</ele>
        <time>2015-10-03T08:52:39Z</time>
      </trkpt>
      <trkpt lat="47.3652" lon="6.45906">
        <ele>312.55</ele>
        <time>2015-10-03T08:52:40Z</time>
      </trkpt>
      <trkpt lat="47.36521" lon="6.4591">
        <ele>312.653</ele>
        <time>2015-10-03T08:52:41Z</time>
      </trkpt>
      <trkpt lat="47.36522" lon="6.45914">
        <ele>312.611</ele>
        <time>2015-10-03T08:52:42Z</time>
      </trkpt>
      <trkpt lat="47.36523" lon="6.45917">
        <ele>313.135</ele>
        <time>2015-10-03T08:52:43Z</time>
      </trkpt>
      <trkpt lat="47.36524" lon="6.45921">
        <ele>313.031</ele>
        <time>2015-10-03T08:52:44Z</time>
      </trkpt>
      <trkpt lat="47.36526" lon="6.45925">
        <ele>313.354</ele>
        <time>2015-10-03T08:52:45Z</time>
      </trkpt>
      <trkpt lat="47.36527" lon="6.45929">
        <ele>313.554</ele>
        <time>2015-10-03T08:52:46Z</time>
      </trkpt>
      <trkpt lat="47.36529" lon="6.45933">
        <ele>313.654</ele>
        <time>2015-10-03T08:52:47Z</time>
      </trkpt>
      <trkpt lat="47.36531" lon="6.45938">
        <ele>313.897</ele>
        <time>2015-10-03T08:52:48Z</time>
      </trkpt>
      <trkpt lat="47.36533" lon="6.45943">
        <ele>314.547</ele>
        <time>2015-10-03T08:52:49Z</time>
      </trkpt>
      <trkpt lat="47.36535" lon="6.45947">
        <ele>314.443</ele>
        <time>2015-10-03T08:52:50Z</time>
      </trkpt>
      <trkpt lat="47.36537" lon="6.45953">
        <ele>313.904</ele>
        <time>2015-10-03T08:52:51Z</time>
      </trkpt>
      <trkpt lat="47.36539" lon="6.45958">
        <ele>314.082</ele>
        <time>2015-10-03T08:52:52Z</time>
      </trkpt>
      <trkpt lat="47.36542" lon="6.45963">
        <ele>314.38</ele>
        <time>2015-10-03T08:52:53Z</time>
      </trkpt>
      <trkpt lat="47.36544" lon="6.45967">
        <ele>314.372</ele>
        <time>2015-10-03T08:52:54Z</time>
      </trkpt>
      <trkpt lat="47.36546" lon="6.45972">
        <ele>314.21</ele>
        <time>2015-10-03T08:52:55Z</time>
      </trkpt>
      <trkpt lat="47.36548" lon="6.45977">
        <ele>314.148</ele>
        <time>2015-10-03T08:52:56Z</time>
      </trkpt>
      <trkpt lat="47.3655" lon="6.45982">
        <ele>314.247</ele>
        <time>2015-10-03T08:52:57Z</time>
      </trkpt>
      <trkpt lat="47.36553" lon="6.45987">
        <ele>313.782</ele>
        <time>2015-10-03T08:52:58Z</time>
      </trkpt>
      <trkpt lat="47.36555" lon="6.45992">
        <ele>313.75</ele>
        <time>2015-10-03T08:52:59Z</time>
      </trkpt>
      <trkpt lat="47.36557" lon="6.45996">
        <ele>313.751</ele>
        <time>2015-10-03T08:53:00Z</time>
      </trkpt>
      <trkpt lat="47.36559" lon="6.46001">
        <ele>313.783</ele>
        <time>2015-10-03T08:53:01Z</time>
      </trkpt>
      <trkpt lat="47.36561" lon="6.46005">
        <ele>314.008</ele>
        <time>2015-10-03T08:53:02Z</time>
      </trkpt>
      <trkpt lat="47.36563" lon="6.4601">
        <ele>314.466</ele>
        <time>2015-10-03T08:53:03Z</time>
      </trkpt>
      <trkpt lat="47.36565" lon="6.46015">
        <ele>315.01</ele>
        <time>2015-10-03T08:53:04Z</time>
      </trkpt>
      <trkpt lat="47.36566" lon="6.46019">
        <ele>315.103</ele>
        <time>2015-10-03T08:53:05Z</time>
      </trkpt>
      <trkpt lat="47.36568" lon="6.46024">
        <ele>315.171</ele>
        <time>2015-10-03T08:53:06Z</time>
      </trkpt>
      <trkpt lat="47.3657" lon="6.46028">
        <ele>314.557</ele>
        <time>2015-10-03T08:53:07Z</time>
      </trkpt>
      <trkpt lat="47.36572" lon="6.46033">
        <ele>314.47</ele>
        <time>2015-10-03T08:53:08Z</time>
      </trkpt>
      <trkpt lat="47.36573" lon="6.46037">
        <ele>314.307</ele>
        <time>2015-10-03T08:53:09Z</time>
      </trkpt>
      <trkpt lat="47.36574" lon="6.46041">
        <ele>314.738</ele>
        <time>2015-10-03T08:53:10Z</time>
      </trkpt>
      <trkpt lat="47.36576" lon="6.46045">
        <ele>314.952</ele>
        <time>2015-10-03T08:53:11Z</time>
      </trkpt>
      <trkpt lat="47.36577" lon="6.4605">
        <ele>315.195</ele>
        <time>2015-10-03T08:53:12Z</time>
      </trkpt>
      <trkpt lat="47.36578" lon="6.46054">
        <ele>315.075</ele>
        <time>2015-10-03T08:53:13Z</time>
      </trkpt>
      <trkpt lat="47.36579" lon="6.46059">
        <ele>314.694</ele>
        <time>2015-10-03T08:53:14Z</time>
      </trkpt>
      <trkpt lat="47.3658" lon="6.46063">
        <ele>314.717</ele>
        <time>2015-10-03T08:53:15Z</time>
      </trkpt>
      <trkpt lat="47.36581" lon="6.46068">
        <ele>314.831</ele>
        <time>2015-10-03T08:53:16Z</time>
      </trkpt>
      <trkpt lat="47.36582" lon="6.46072">
        <ele>314.953</ele>
        <time>2015-10-03T08:53:17Z</time>
      </trkpt>
      <trkpt lat="47.36583" lon="6.46077">
        <ele>315.147</ele>
        <time>2015-10-03T08:53:18Z</time>
      </trkpt>
      <trkpt lat="47.36585" lon="6.46081">
        <ele>315.279</ele>
        <time>2015-10-03T08:53:19Z</time>
      </trkpt>
      <trkpt lat="47.36586" lon="6.46085">
        <ele>314.548</ele>
        <time>2015-10-03T08:53:20Z</time>
      </trkpt>
      <trkpt lat="47.36587" lon="6.46089">
        <ele>314.559</ele>
        <time>2015-10-03T08:53:21Z</time>
      </trkpt>
      <trkpt lat="47.36588" lon="6.46093">
        <ele>314.369</ele>
        <time>2015-10-03T08:53:22Z</time>
      </trkpt>
      <trkpt lat="47.36589" lon="6.46097">
        <ele>313.764</ele>
        <time>2015-10-03T08:53:23Z</time>
      </trkpt>
      <trkpt lat="47.3659" lon="6.46101">
        <ele>312.81</ele>
        <time>2015-10-03T08:53:24Z</time>
      </trkpt>
      <trkpt lat="47.36591" lon="6.46105">
        <ele>312.6</ele>
        <time>2015-10-03T08:53:25Z</time>
      </trkpt>
      <trkpt lat="47.36592" lon="6.46108">
        <ele>312.825</ele>
        <time>2015-10-03T08:53:26Z</time>
      </trkpt>
      <trkpt lat="47.36593" lon="6.46113">
        <ele>313.018</ele>
        <time>2015-10-03T08:53:27Z</time>
      </trkpt>
      <trkpt lat="47.36594" lon="6.46117">
        <ele>313.113</ele>
        <time>2015-10-03T08:53:28Z</time>
      </trkpt>
      <trkpt lat="47.36595" lon="6.46122">
        <ele>312.776</ele>
        <time>2015-10-03T08:53:29Z</time>
      </trkpt>
      <trkpt lat="47.36596" lon="6.46126">
        <ele>312.819</ele>
        <time>2015-10-03T08:53:30Z</time>
      </trkpt>
      <trkpt lat="47.36597" lon="6.46131">
        <ele>313.147</ele>
        <time>2015-10-03T08:53:31Z</time>
      </trkpt>
      <trkpt lat="47.36598" lon="6.46136">
        <ele>313.058</ele>
        <time>2015-10-03T08:53:32Z</time>
      </trkpt>
      <trkpt lat="47.36599" lon="6.46144">
        <ele>313.327</ele>
        <time>2015-10-03T08:53:33Z</time>
      </trkpt>
      <trkpt lat="47.36601" lon="6.46151">
        <ele>313.257</ele>
        <time>2015-10-03T08:53:34Z</time>
      </trkpt>
      <trkpt lat="47.36603" lon="6.46161">
        <ele>313.252</ele>
        <time>2015-10-03T08:53:35Z</time>
      </trkpt>
      <trkpt lat="47.36604" lon="6.4617">
        <ele>312.983</ele>
        <time>2015-10-03T08:53:36Z</time>
      </trkpt>
      <trkpt lat="47.36606" lon="6.4618">
        <ele>312.517</ele>
        <time>2015-10-03T08:53:37Z</time>
      </trkpt>
      <trkpt lat="47.36608" lon="6.46189">
        <ele>312.022</ele>
        <time>2015-10-03T08:53:38Z</time>
      </trkpt>
      <trkpt lat="47.36611" lon="6.46199">
        <ele>311.765</ele>
        <time>2015-10-03T08:53:39Z</time>
      </trkpt>
      <trkpt lat="47.36613" lon="6.46209">
        <ele>311.412</ele>
        <time>2015-10-03T08:53:40Z</time>
      </trkpt>
      <trkpt lat="47.36615" lon="6.4622">
        <ele>311.083</ele>
        <time>2015-10-03T08:53:41Z</time>
      </trkpt>
      <trkpt lat="47.36618" lon="6.46231">
        <ele>310.411</ele>
        <time>2015-10-03T08:53:42Z</time>
      </trkpt>
      <trkpt lat="47.36621" lon="6.46244">
        <ele>309.935</ele>
        <time>2015-10-03T08:53:43Z</time>
      </trkpt>
      <trkpt lat="47.36624" lon="6.46255">
        <ele>309.747</ele>
        <time>2015-10-03T08:53:44Z</time>
      </trkpt>
      <trkpt lat="47.36626" lon="6.46266">
        <ele>309.567</ele>
        <time>2015-10-03T08:53:45Z</time>
      </trkpt>
      <trkpt lat="47.3663" lon="6.46277">
        <ele>309.324</ele>
        <time>2015-10-03T08:53:46Z</time>
      </trkpt>
      <trkpt lat="47.36633" lon="6.46287">
        <ele>309.156</ele>
        <time>2015-10-03T08:53:47Z</time>
      </trkpt>
      <trkpt lat="47.36635" lon="6.46297">
        <ele>309.153</ele>
        <time>2015-10-03T08:53:48Z</time>
      </trkpt>
      <trkpt lat="47.36638" lon="6.46306">
        <ele>309.71</ele>
        <time>2015-10-03T08:53:49Z</time>
      </trkpt>
      <trkpt lat="47.36641" lon="6.46314">
        <ele>310.086</ele>
        <time>2015-10-03T08:53:50Z</time>
      </trkpt>
      <trkpt lat="47.36644" lon="6.46322">
        <ele>310.302</ele>
        <time>2015-10-03T08:53:51Z</time>
      </trkpt>
      <trkpt lat="47.36647" lon="6.46329">
        <ele>310.692</ele>
        <time>2015-10-03T08:53:52Z</time>
      </trkpt>
      <trkpt lat="47.36649" lon="6.46337">
        <ele>310.471</ele>
        <time>2015-10-03T08:53:53Z</time>
      </trkpt>
      <trkpt lat="47.36652" lon="6.46344">
        <ele>310.615</ele>
        <time>2015-10-03T08:53:54Z</time>
      </trkpt>
      <trkpt lat="47.36655" lon="6.46353">
        <ele>310.251</ele>
        <time>2015-10-03T08:53:55Z</time>
      </trkpt>
      <trkpt lat="47.36657" lon="6.4636">
        <ele>310.788</ele>
        <time>2015-10-03T08:53:56Z</time>
      </trkpt>
      <trkpt lat="47.36659" lon="6.46366">
        <ele>310.728</ele>
        <time>2015-10-03T08:53:57Z</time>
      </trkpt>
      <trkpt lat="47.36661" lon="6.46372">
        <ele>311.005</ele>
        <time>2015-10-03T08:53:58Z</time>
      </trkpt>
      <trkpt lat="47.36663" lon="6.46379">
        <ele>310.935</ele>
        <time>2015-10-03T08:53:59Z</time>
      </trkpt>
      <trkpt lat="47.36666" lon="6.46386">
        <ele>310.443</ele>
        <time>2015-10-03T08:54:00Z</time>
      </trkpt>
      <trkpt lat="47.36668" lon="6.46393">
        <ele>310.722</ele>
        <time>2015-10-03T08:54:01Z</time>
      </trkpt>
      <trkpt lat="47.3667" lon="6.46401">
        <ele>310.427</ele>
        <time>2015-10-03T08:54:02Z</time>
      </trkpt>
      <trkpt lat="47.36672" lon="6.46407">
        <ele>310.554</ele>
        <time>2015-10-03T08:54:03Z</time>
      </trkpt>
      <trkpt lat="47.36673" lon="6.46413">
        <ele>310.564</ele>
        <time>2015-10-03T08:54:04Z</time>
      </trkpt>
      <trkpt lat="47.36674" lon="6.46419">
        <ele>310.664</ele>
        <time>2015-10-03T08:54:05Z</time>
      </trkpt>
      <trkpt lat="47.36675" lon="6.46424">
        <ele>311.055</ele>
        <time>2015-10-03T08:54:06Z</time>
      </trkpt>
      <trkpt lat="47.36676" lon="6.46431">
        <ele>310.917</ele>
        <time>2015-10-03T08:54:07Z</time>
      </trkpt>
      <trkpt lat="47.36678" lon="6.46438">
        <ele>310.836</ele>
        <time>2015-10-03T08:54:08Z</time>
      </trkpt>
      <trkpt lat="47.36679" lon="6.46444">
        <ele>310.464</ele>
        <time>2015-10-03T08:54:09Z</time>
      </trkpt>
      <trkpt lat="47.3668" lon="6.46452">
        <ele>310.486</ele>
        <time>2015-10-03T08:54:10Z</time>
      </trkpt>
      <trkpt lat="47.36682" lon="6.4646">
        <ele>310.246</ele>
        <time>2015-10-03T08:54:11Z</time>
      </trkpt>
      <trkpt lat="47.36684" lon="6.46468">
        <ele>310.136</ele>
        <time>2015-10-03T08:54:12Z</time>
      </trkpt>
      <trkpt lat="47.36686" lon="6.46477">
        <ele>309.925</ele>
        <time>2015-10-03T08:54:13Z</time>
      </trkpt>
      <trkpt lat="47.36688" lon="6.46486">
        <ele>309.59</ele>
        <time>2015-10-03T08:54:14Z</time>
      </trkpt>
      <trkpt lat="47.3669" lon="6.46495">
        <ele>309.259</ele>
        <time>2015-10-03T08:54:15Z</time>
      </trkpt>
      <trkpt lat="47.36692" lon="6.46504">
        <ele>308.82</ele>
        <time>2015-10-03T08:54:16Z</time>
      </trkpt>
      <trkpt lat="47.36694" lon="6.46513">
        <ele>308.544</ele>
        <time>2015-10-03T08:54:17Z</time>
      </trkpt>
      <trkpt lat="47.36696" lon="6.46522">
        <ele>308.475</ele>
        <time>2015-10-03T08:54:18Z</time>
      </trkpt>
      <trkpt lat="47.36698" lon="6.4653">
        <ele>308.417</ele>
        <time>2015-10-03T08:54:19Z</time>
      </trkpt>
      <trkpt lat="47.36699" lon="6.46537">
        <ele>308.057</ele>
        <time>2015-10-03T08:54:20Z</time>
      </trkpt>
      <trkpt lat="47.36702" lon="6.46546">
        <ele>308.049</ele>
        <time>2015-10-03T08:54:21Z</time>
      </trkpt>
      <trkpt lat="47.36704" lon="6.46552">
        <ele>307.368</ele>
        <time>2015-10-03T08:54:22Z</time>
      </trkpt>
      <trkpt lat="47.36705" lon="6.46559">
        <ele>307.651</ele>
        <time>2015-10-03T08:54:23Z</time>
      </trkpt>
      <trkpt lat="47.36707" lon="6.46566">
        <ele>307.728</ele>
        <time>2015-10-03T08:54:24Z</time>
      </trkpt>
      <trkpt lat="47.36709" lon="6.46573">
        <ele>307.865</ele>
        <time>2015-10-03T08:54:25Z</time>
      </trkpt>
      <trkpt lat="47.36711" lon="6.4658">
        <ele>307.827</ele>
        <time>2015-10-03T08:54:26Z</time>
      </trkpt>
      <trkpt lat="47.36711" lon="6.46585">
        <ele>309.316</ele>
        <time>2015-10-03T08:54:27Z</time>
      </trkpt>
      <trkpt lat="47.36713" lon="6.46593">
        <ele>309.228</ele>
        <time>2015-10-03T08:54:28Z</time>
      </trkpt>
      <trkpt lat="47.36716" lon="6.46599">
        <ele>309.439</ele>
        <time>2015-10-03T08:54:29Z</time>
      </trkpt>
      <trkpt lat="47.36718" lon="6.46605">
        <ele>309.752</ele>
        <time>2015-10-03T08:54:30Z</time>
      </trkpt>
      <trkpt lat="47.3672" lon="6.46611">
        <ele>310.127</ele>
        <time>2015-10-03T08:54:31Z</time>
      </trkpt>
      <trkpt lat="47.36723" lon="6.46617">
        <ele>310.613</ele>
        <time>2015-10-03T08:54:32Z</time>
      </trkpt>
      <trkpt lat="47.36724" lon="6.46623">
        <ele>310.668</ele>
        <time>2015-10-03T08:54:33Z</time>
      </trkpt>
      <trkpt lat="47.36726" lon="6.46629">
        <ele>310.737</ele>
        <time>2015-10-03T08:54:34Z</time>
      </trkpt>
      <trkpt lat="47.36728" lon="6.46634">
        <ele>310.66</ele>
        <time>2015-10-03T08:54:35Z</time>
      </trkpt>
      <trkpt lat="47.3673" lon="6.4664">
        <ele>310.422</ele>
        <time>2015-10-03T08:54:36Z</time>
      </trkpt>
      <trkpt lat="47.36732" lon="6.46648">
        <ele>310.54</ele>
        <time>2015-10-03T08:54:37Z</time>
      </trkpt>
      <trkpt lat="47.36734" lon="6.46654">
        <ele>310.813</ele>
        <time>2015-10-03T08:54:38Z</time>
      </trkpt>
      <trkpt lat="47.36736" lon="6.4666">
        <ele>310.909</ele>
        <time>2015-10-03T08:54:39Z</time>
      </trkpt>
      <trkpt lat="47.36738" lon="6.46666">
        <ele>310.81</ele>
        <time>2015-10-03T08:54:40Z</time>
      </trkpt>
      <trkpt lat="47.36739" lon="6.46671">
        <ele>311.732</ele>
        <time>2015-10-03T08:54:41Z</time>
      </trkpt>
      <trkpt lat="47.36741" lon="6.46677">
        <ele>312.081</ele>
        <time>2015-10-03T08:54:42Z</time>
      </trkpt>
      <trkpt lat="47.36743" lon="6.46683">
        <ele>312.108</ele>
        <time>2015-10-03T08:54:43Z</time>
      </trkpt>
      <trkpt lat="47.36745" lon="6.46688">
        <ele>312.036</ele>
        <time>2015-10-03T08:54:44Z</time>
      </trkpt>
      <trkpt lat="47.36747" lon="6.46693">
        <ele>312.16</ele>
        <time>2015-10-03T08:54:45Z</time>
      </trkpt>
      <trkpt lat="47.36748" lon="6.46698">
        <ele>312.576</ele>
        <time>2015-10-03T08:54:46Z</time>
      </trkpt>
      <trkpt lat="47.36749" lon="6.46704">
        <ele>312.667</ele>
        <time>2015-10-03T08:54:47Z</time>
      </trkpt>
      <trkpt lat="47.3675" lon="6.46709">
        <ele>312.852</ele>
        <time>2015-10-03T08:54:48Z</time>
      </trkpt>
      <trkpt lat="47.36751" lon="6.46714">
        <ele>313.24</ele>
        <time>2015-10-03T08:54:49Z</time>
      </trkpt>
      <trkpt lat="47.36753" lon="6.4672">
        <ele>313.347</ele>
        <time>2015-10-03T08:54:50Z</time>
      </trkpt>
      <trkpt lat="47.36754" lon="6.46725">
        <ele>313.694</ele>
        <time>2015-10-03T08:54:51Z</time>
      </trkpt>
      <trkpt lat="47.36755" lon="6.4673">
        <ele>312.472</ele>
        <time>2015-10-03T08:54:52Z</time>
      </trkpt>
      <trkpt lat="47.36756" lon="6.46735">
        <ele>312.298</ele>
        <time>2015-10-03T08:54:53Z</time>
      </trkpt>
      <trkpt lat="47.36756" lon="6.4674">
        <ele>312.601</ele>
        <time>2015-10-03T08:54:54Z</time>
      </trkpt>
      <trkpt lat="47.36757" lon="6.46746">
        <ele>312.719</ele>
        <time>2015-10-03T08:54:55Z</time>
      </trkpt>
      <trkpt lat="47.36757" lon="6.46751">
        <ele>312.847</ele>
        <time>2015-10-03T08:54:56Z</time>
      </trkpt>
      <trkpt lat="47.36758" lon="6.46757">
        <ele>312.714</ele>
        <time>2015-10-03T08:54:57Z</time>
      </trkpt>
      <trkpt lat="47.36758" lon="6.46763">
        <ele>313.008</ele>
        <time>2015-10-03T08:54:58Z</time>
      </trkpt>
      <trkpt lat="47.36758" lon="6.46768">
        <ele>311.986</ele>
        <time>2015-10-03T08:54:59Z</time>
      </trkpt>
      <trkpt lat="47.36759" lon="6.46773">
        <ele>311.3</ele>
        <time>2015-10-03T08:55:00Z</time>
      </trkpt>
      <trkpt lat="47.36759" lon="6.46778">
        <ele>311.039</ele>
        <time>2015-10-03T08:55:01Z</time>
      </trkpt>
      <trkpt lat="47.36759" lon="6.46784">
        <ele>312.158</ele>
        <time>2015-10-03T08:55:02Z</time>
      </trkpt>
      <trkpt lat="47.36759" lon="6.46789">
        <ele>312.631</ele>
        <time>2015-10-03T08:55:03Z</time>
      </trkpt>
      <trkpt lat="47.36759" lon="6.46795">
        <ele>312.488</ele>
        <time>2015-10-03T08:55:04Z</time>
      </trkpt>
      <trkpt lat="47.3676" lon="6.468">
        <ele>312.083</ele>
        <time>2015-10-03T08:55:05Z</time>
      </trkpt>
      <trkpt lat="47.3676" lon="6.46805">
        <ele>312.638</ele>
        <time>2015-10-03T08:55:06Z</time>
      </trkpt>
      <trkpt lat="47.36761" lon="6.4681">
        <ele>313.41</ele>
        <time>2015-10-03T08:55:07Z</time>
      </trkpt>
      <trkpt lat="47.36761" lon="6.46815">
        <ele>313.692</ele>
        <time>2015-10-03T08:55:08Z</time>
      </trkpt>
      <trkpt lat="47.36761" lon="6.46821">
        <ele>313.632</ele>
        <time>2015-10-03T08:55:09Z</time>
      </trkpt>
      <trkpt lat="47.36761" lon="6.46826">
        <ele>313.417</ele>
        <time>2015-10-03T08:55:10Z</time>
      </trkpt>
      <trkpt lat="47.36762" lon="6.46832">
        <ele>313.924</ele>
        <time>2015-10-03T08:55:11Z</time>
      </trkpt>
      <trkpt lat="47.36762" lon="6.46838">
        <ele>313.646</ele>
        <time>2015-10-03T08:55:12Z</time>
      </trkpt>
      <trkpt lat="47.36763" lon="6.46843">
        <ele>312.514</ele>
        <time>2015-10-03T08:55:13Z</time>
      </trkpt>
      <trkpt lat="47.36763" lon="6.46849">
        <ele>312.753</ele>
        <time>2015-10-03T08:55:14Z</time>
      </trkpt>
      <trkpt lat="47.36763" lon="6.46854">
        <ele>313.067</ele>
        <time>2015-10-03T08:55:15Z</time>
      </trkpt>
      <trkpt lat="47.36763" lon="6.46861">
        <ele>312.905</ele>
        <time>2015-10-03T08:55:16Z</time>
      </trkpt>
      <trkpt lat="47.36764" lon="6.46868">
        <ele>313.07</ele>
        <time>2015-10-03T08:55:17Z</time>
      </trkpt>
      <trkpt lat="47.36764" lon="6.46874">
        <ele>312.881</ele>
        <time>2015-10-03T08:55:18Z</time>
      </trkpt>
      <trkpt lat="47.36765" lon="6.46881">
        <ele>312.972</ele>
        <time>2015-10-03T08:55:19Z</time>
      </trkpt>
      <trkpt lat="47.36766" lon="6.46888">
        <ele>312.481</ele>
        <time>2015-10-03T08:55:20Z</time>
      </trkpt>
      <trkpt lat="47.36767" lon="6.46898">
        <ele>311.906</ele>
        <time>2015-10-03T08:55:21Z</time>
      </trkpt>
      <trkpt lat="47.36768" lon="6.46903">
        <ele>311.339</ele>
        <time>2015-10-03T08:55:22Z</time>
      </trkpt>
      <trkpt lat="47.36769" lon="6.4691">
        <ele>311.128</ele>
        <time>2015-10-03T08:55:23Z</time>
      </trkpt>
      <trkpt lat="47.36771" lon="6.46916">
        <ele>310.392</ele>
        <time>2015-10-03T08:55:24Z</time>
      </trkpt>
      <trkpt lat="47.36773" lon="6.46923">
        <ele>310.369</ele>
        <time>2015-10-03T08:55:25Z</time>
      </trkpt>
      <trkpt lat="47.36774" lon="6.46929">
        <ele>310.205</ele>
        <time>2015-10-03T08:55:26Z</time>
      </trkpt>
      <trkpt lat="47.36775" lon="6.46938">
        <ele>309.972</ele>
        <time>2015-10-03T08:55:27Z</time>
      </trkpt>
      <trkpt lat="47.36776" lon="6.46944">
        <ele>309.896</ele>
        <time>2015-10-03T08:55:28Z</time>
      </trkpt>
      <trkpt lat="47.36777" lon="6.46951">
        <ele>309.697</ele>
        <time>2015-10-03T08:55:29Z</time>
      </trkpt>
      <trkpt lat="47.36779" lon="6.46958">
        <ele>309.858</ele>
        <time>2015-10-03T08:55:30Z</time>
      </trkpt>
      <trkpt lat="47.36779" lon="6.46965">
        <ele>310.048</ele>
        <time>2015-10-03T08:55:31Z</time>
      </trkpt>
      <trkpt lat="47.3678" lon="6.46973">
        <ele>310.364</ele>
        <time>2015-10-03T08:55:32Z</time>
      </trkpt>
      <trkpt lat="47.3678" lon="6.46979">
        <ele>310.757</ele>
        <time>2015-10-03T08:55:33Z</time>
      </trkpt>
      <trkpt lat="47.36781" lon="6.46985">
        <ele>310.746</ele>
        <time>2015-10-03T08:55:34Z</time>
      </trkpt>
      <trkpt lat="47.36782" lon="6.46992">
        <ele>309.987</ele>
        <time>2015-10-03T08:55:35Z</time>
      </trkpt>
      <trkpt lat="47.36782" lon="6.46999">
        <ele>310.146</ele>
        <time>2015-10-03T08:55:36Z</time>
      </trkpt>
      <trkpt lat="47.36783" lon="6.47005">
        <ele>310.53</ele>
        <time>2015-10-03T08:55:37Z</time>
      </trkpt>
      <trkpt lat="47.36783" lon="6.47011">
        <ele>310.656</ele>
        <time>2015-10-03T08:55:38Z</time>
      </trkpt>
      <trkpt lat="47.36783" lon="6.47018">
        <ele>310.974</ele>
        <time>2015-10-03T08:55:39Z</time>
      </trkpt>
      <trkpt lat="47.36784" lon="6.47025">
        <ele>311.218</ele>
        <time>2015-10-03T08:55:40Z</time>
      </trkpt>
      <trkpt lat="47.36784" lon="6.47031">
        <ele>310.94</ele>
        <time>2015-10-03T08:55:41Z</time>
      </trkpt>
      <trkpt lat="47.36783" lon="6.47036">
        <ele>311.865</ele>
        <time>2015-10-03T08:55:42Z</time>
      </trkpt>
      <trkpt lat="47.36782" lon="6.47041">
        <ele>312.409</ele>
        <time>2015-10-03T08:55:43Z</time>
      </trkpt>
      <trkpt lat="47.36782" lon="6.47047">
        <ele>312.899</ele>
        <time>2015-10-03T08:55:44Z</time>
      </trkpt>
      <trkpt lat="47.36782" lon="6.47053">
        <ele>312.849</ele>
        <time>2015-10-03T08:55:45Z</time>
      </trkpt>
      <trkpt lat="47.36782" lon="6.47058">
        <ele>312.766</ele>
        <time>2015-10-03T08:55:46Z</time>
      </trkpt>
      <trkpt lat="47.36782" lon="6.47064">
        <ele>313.03</ele>
        <time>2015-10-03T08:55:47Z</time>
      </trkpt>
      <trkpt lat="47.36782" lon="6.47069">
        <ele>312.888</ele>
        <time>2015-10-03T08:55:48Z</time>
      </trkpt>
      <trkpt lat="47.36782" lon="6.47075">
        <ele>312.762</ele>
        <time>2015-10-03T08:55:49Z</time>
      </trkpt>
      <trkpt lat="47.36782" lon="6.4708">
        <ele>312.611</ele>
        <time>2015-10-03T08:55:50Z</time>
      </trkpt>
      <trkpt lat="47.36782" lon="6.47085">
        <ele>312.864</ele>
        <time>2015-10-03T08:55:51Z</time>
      </trkpt>
      <trkpt lat="47.36782" lon="6.4709">
        <ele>313.935</ele>
        <time>2015-10-03T08:55:52Z</time>
      </trkpt>
      <trkpt lat="47.36782" lon="6.47095">
        <ele>314.015</ele>
        <time>2015-10-03T08:55:53Z</time>
      </trkpt>
      <trkpt lat="47.36782" lon="6.47101">
        <ele>314.59</ele>
        <time>2015-10-03T08:55:54Z</time>
      </trkpt>
      <trkpt lat="47.36782" lon="6.47106">
        <ele>314.661</ele>
        <time>2015-10-03T08:55:55Z</time>
      </trkpt>
      <trkpt lat="47.36781" lon="6.47111">
        <ele>314.563</ele>
        <time>2015-10-03T08:55:56Z</time>
      </trkpt>
      <trkpt lat="47.36781" lon="6.47116">
        <ele>313.882</ele>
        <time>2015-10-03T08:55:57Z</time>
      </trkpt>
      <trkpt lat="47.36781" lon="6.47122">
        <ele>313.698</ele>
        <time>2015-10-03T08:55:58Z</time>
      </trkpt>
      <trkpt lat="47.36781" lon="6.47127">
        <ele>313.914</ele>
        <time>2015-10-03T08:55:59Z</time>
      </trkpt>
      <trkpt lat="47.3678" lon="6.47133">
        <ele>314.12</ele>
        <time>2015-10-03T08:56:00Z</time>
      </trkpt>
      <trkpt lat="47.3678" lon="6.47138">
        <ele>314.556</ele>
        <time>2015-10-03T08:56:01Z</time>
      </trkpt>
      <trkpt lat="47.3678" lon="6.47143">
        <ele>314.767</ele>
        <time>2015-10-03T08:56:02Z</time>
      </trkpt>
      <trkpt lat="47.36779" lon="6.47148">
        <ele>314.746</ele>
        <time>2015-10-03T08:56:03Z</time>
      </trkpt>
      <trkpt lat="47.36779" lon="6.47153">
        <ele>314.409</ele>
        <time>2015-10-03T08:56:04Z</time>
      </trkpt>
      <trkpt lat="47.36779" lon="6.47159">
        <ele>314.476</ele>
        <time>2015-10-03T08:56:05Z</time>
      </trkpt>
      <trkpt lat="47.36779" lon="6.47164">
        <ele>314.465</ele>
        <time>2015-10-03T08:56:06Z</time>
      </trkpt>
      <trkpt lat="47.36779" lon="6.47169">
        <ele>314.866</ele>
        <time>2015-10-03T08:56:07Z</time>
      </trkpt>
      <trkpt lat="47.36779" lon="6.47175">
        <ele>314.74</ele>
        <time>2015-10-03T08:56:08Z</time>
      </trkpt>
      <trkpt lat="47.36778" lon="6.4718">
        <ele>314.818</ele>
        <time>2015-10-03T08:56:09Z</time>
      </trkpt>
      <trkpt lat="47.36778" lon="6.47185">
        <ele>314.973</ele>
        <time>2015-10-03T08:56:10Z</time>
      </trkpt>
      <trkpt lat="47.36777" lon="6.4719">
        <ele>317.53</ele>
        <time>2015-10-03T08:56:11Z</time>
      </trkpt>
      <trkpt lat="47.36776" lon="6.47195">
        <ele>317.593</ele>
        <time>2015-10-03T08:56:12Z</time>
      </trkpt>
      <trkpt lat="47.36776" lon="6.47199">
        <ele>317.434</ele>
        <time>2015-10-03T08:56:13Z</time>
      </trkpt>
      <trkpt lat="47.36775" lon="6.47204">
        <ele>317.932</ele>
        <time>2015-10-03T08:56:14Z</time>
      </trkpt>
      <trkpt lat="47.36774" lon="6.47209">
        <ele>318.542</ele>
        <time>2015-10-03T08:56:15Z</time>
      </trkpt>
      <trkpt lat="47.36773" lon="6.47214">
        <ele>318.947</ele>
        <time>2015-10-03T08:56:16Z</time>
      </trkpt>
      <trkpt lat="47.36772" lon="6.47218">
        <ele>318.747</ele>
        <time>2015-10-03T08:56:17Z</time>
      </trkpt>
      <trkpt lat="47.36771" lon="6.47223">
        <ele>318.455</ele>
        <time>2015-10-03T08:56:18Z</time>
      </trkpt>
      <trkpt lat="47.3677" lon="6.47228">
        <ele>318.465</ele>
        <time>2015-10-03T08:56:19Z</time>
      </trkpt>
      <trkpt lat="47.36769" lon="6.47233">
        <ele>318.22</ele>
        <time>2015-10-03T08:56:20Z</time>
      </trkpt>
      <trkpt lat="47.36768" lon="6.47238">
        <ele>318.158</ele>
        <time>2015-10-03T08:56:21Z</time>
      </trkpt>
      <trkpt lat="47.36768" lon="6.47243">
        <ele>318.025</ele>
        <time>2015-10-03T08:56:22Z</time>
      </trkpt>
      <trkpt lat="47.36767" lon="6.47248">
        <ele>318.631</ele>
        <time>2015-10-03T08:56:23Z</time>
      </trkpt>
      <trkpt lat="47.36767" lon="6.47254">
        <ele>319.049</ele>
        <time>2015-10-03T08:56:24Z</time>
      </trkpt>
      <trkpt lat="47.36766" lon="6.47259">
        <ele>319.295</ele>
        <time>2015-10-03T08:56:25Z</time>
      </trkpt>
      <trkpt lat="47.36765" lon="6.47264">
        <ele>319.684</ele>
        <time>2015-10-03T08:56:26Z</time>
      </trkpt>
      <trkpt lat="47.36765" lon="6.47268">
        <ele>319.988</ele>
        <time>2015-10-03T08:56:27Z</time>
      </trkpt>
      <trkpt lat="47.36764" lon="6.47273">
        <ele>319.668</ele>
        <time>2015-10-03T08:56:28Z</time>
      </trkpt>
      <trkpt lat="47.36763" lon="6.47278">
        <ele>319.679</ele>
        <time>2015-10-03T08:56:29Z</time>
      </trkpt>
      <trkpt lat="47.36762" lon="6.47283">
        <ele>319.714</ele>
        <time>2015-10-03T08:56:30Z</time>
      </trkpt>
      <trkpt lat="47.36761" lon="6.47288">
        <ele>319.633</ele>
        <time>2015-10-03T08:56:31Z</time>
      </trkpt>
      <trkpt lat="47.36761" lon="6.47293">
        <ele>319.622</ele>
        <time>2015-10-03T08:56:32Z</time>
      </trkpt>
      <trkpt lat="47.3676" lon="6.47299">
        <ele>320.077</ele>
        <time>2015-10-03T08:56:33Z</time>
      </trkpt>
      <trkpt lat="47.36759" lon="6.47303">
        <ele>320.751</ele>
        <time>2015-10-03T08:56:34Z</time>
      </trkpt>
      <trkpt lat="47.36758" lon="6.47307">
        <ele>320.544</ele>
        <time>2015-10-03T08:56:35Z</time>
      </trkpt>
      <trkpt lat="47.36757" lon="6.47312">
        <ele>320.548</ele>
        <time>2015-10-03T08:56:36Z</time>
      </trkpt>
      <trkpt lat="47.36756" lon="6.47317">
        <ele>320.493</ele>
        <time>2015-10-03T08:56:37Z</time>
      </trkpt>
      <trkpt lat="47.36755" lon="6.47322">
        <ele>320.715</ele>
        <time>2015-10-03T08:56:38Z</time>
      </trkpt>
      <trkpt lat="47.36754" lon="6.47327">
        <ele>320.874</ele>
        <time>2015-10-03T08:56:39Z</time>
      </trkpt>
      <trkpt lat="47.36753" lon="6.47332">
        <ele>320.646</ele>
        <time>2015-10-03T08:56:40Z</time>
      </trkpt>
      <trkpt lat="47.36753" lon="6.47337">
        <ele>320.83</ele>
        <time>2015-10-03T08:56:41Z</time>
      </trkpt>
      <trkpt lat="47.36752" lon="6.47343">
        <ele>320.51</ele>
        <time>2015-10-03T08:56:42Z</time>
      </trkpt>
      <trkpt lat="47.36752" lon="6.47348">
        <ele>320.826</ele>
        <time>2015-10-03T08:56:43Z</time>
      </trkpt>
      <trkpt lat="47.36751" lon="6.47354">
        <ele>320.59</ele>
        <time>2015-10-03T08:56:44Z</time>
      </trkpt>
      <trkpt lat="47.3675" lon="6.4736">
        <ele>320.978</ele>
        <time>2015-10-03T08:56:45Z</time>
      </trkpt>
      <trkpt lat="47.36749" lon="6.47366">
        <ele>321.51</ele>
        <time>2015-10-03T08:56:46Z</time>
      </trkpt>
      <trkpt lat="47.36748" lon="6.47372">
        <ele>321.329</ele>
        <time>2015-10-03T08:56:47Z</time>
      </trkpt>
      <trkpt lat="47.36747" lon="6.47378">
        <ele>321.137</ele>
        <time>2015-10-03T08:56:48Z</time>
      </trkpt>
      <trkpt lat="47.36745" lon="6.47384">
        <ele>320.895</ele>
        <time>2015-10-03T08:56:49Z</time>
      </trkpt>
      <trkpt lat="47.36743" lon="6.4739">
        <ele>321.902</ele>
        <time>2015-10-03T08:56:50Z</time>
      </trkpt>
      <trkpt lat="47.36742" lon="6.47396">
        <ele>322.898</ele>
        <time>2015-10-03T08:56:51Z</time>
      </trkpt>
      <trkpt lat="47.3674" lon="6.47401">
        <ele>323.352</ele>
        <time>2015-10-03T08:56:52Z</time>
      </trkpt>
      <trkpt lat="47.36739" lon="6.47407">
        <ele>323.315</ele>
        <time>2015-10-03T08:56:53Z</time>
      </trkpt>
      <trkpt lat="47.36738" lon="6.47414">
        <ele>323.179</ele>
        <time>2015-10-03T08:56:54Z</time>
      </trkpt>
      <trkpt lat="47.36737" lon="6.4742">
        <ele>323.442</ele>
        <time>2015-10-03T08:56:55Z</time>
      </trkpt>
      <trkpt lat="47.36736" lon="6.47426">
        <ele>320.244</ele>
        <time>2015-10-03T08:56:56Z</time>
      </trkpt>
      <trkpt lat="47.36735" lon="6.47432">
        <ele>319.548</ele>
        <time>2015-10-03T08:56:57Z</time>
      </trkpt>
      <trkpt lat="47.36735" lon="6.47438">
        <ele>319.356</ele>
        <time>2015-10-03T08:56:58Z</time>
      </trkpt>
      <trkpt lat="47.36734" lon="6.47444">
        <ele>319.513</ele>
        <time>2015-10-03T08:56:59Z</time>
      </trkpt>
      <trkpt lat="47.36733" lon="6.4745">
        <ele>319.166</ele>
        <time>2015-10-03T08:57:00Z</time>
      </trkpt>
      <trkpt lat="47.36733" lon="6.47455">
        <ele>319.039</ele>
        <time>2015-10-03T08:57:01Z</time>
      </trkpt>
      <trkpt lat="47.36732" lon="6.47461">
        <ele>319.22</ele>
        <time>2015-10-03T08:57:02Z</time>
      </trkpt>
      <trkpt lat="47.36732" lon="6.47466">
        <ele>319.094</ele>
        <time>2015-10-03T08:57:03Z</time>
      </trkpt>
      <trkpt lat="47.36731" lon="6.47471">
        <ele>319.586</ele>
        <time>2015-10-03T08:57:04Z</time>
      </trkpt>
      <trkpt lat="47.36731" lon="6.47476">
        <ele>319.339</ele>
        <time>2015-10-03T08:57:05Z</time>
      </trkpt>
      <trkpt lat="47.3673" lon="6.47482">
        <ele>319.501</ele>
        <time>2015-10-03T08:57:06Z</time>
      </trkpt>
      <trkpt lat="47.3673" lon="6.47487">
        <ele>319.498</ele>
        <time>2015-10-03T08:57:07Z</time>
      </trkpt>
      <trkpt lat="47.3673" lon="6.47493">
        <ele>319.566</ele>
        <time>2015-10-03T08:57:08Z</time>
      </trkpt>
      <trkpt lat="47.3673" lon="6.47498">
        <ele>319.056</ele>
        <time>2015-10-03T08:57:09Z</time>
      </trkpt>
      <trkpt lat="47.3673" lon="6.47503">
        <ele>319.209</ele>
        <time>2015-10-03T08:57:10Z</time>
      </trkpt>
      <trkpt lat="47.3673" lon="6.47508">
        <ele>319.938</ele>
        <time>2015-10-03T08:57:11Z</time>
      </trkpt>
      <trkpt lat="47.3673" lon="6.47512">
        <ele>320.3</ele>
        <time>2015-10-03T08:57:12Z</time>
      </trkpt>
      <trkpt lat="47.36729" lon="6.47517">
        <ele>320.794</ele>
        <time>2015-10-03T08:57:13Z</time>
      </trkpt>
      <trkpt lat="47.36729" lon="6.47521">
        <ele>321.135</ele>
        <time>2015-10-03T08:57:14Z</time>
      </trkpt>
      <trkpt lat="47.36729" lon="6.47525">
        <ele>321.236</ele>
        <time>2015-10-03T08:57:15Z</time>
      </trkpt>
      <trkpt lat="47.36729" lon="6.47528">
        <ele>320.99</ele>
        <time>2015-10-03T08:57:16Z</time>
      </trkpt>
      <trkpt lat="47.36728" lon="6.47531">
        <ele>321.361</ele>
        <time>2015-10-03T08:57:17Z</time>
      </trkpt>
      <trkpt lat="47.36727" lon="6.47535">
        <ele>321.381</ele>
        <time>2015-10-03T08:57:18Z</time>
      </trkpt>
      <trkpt lat="47.36726" lon="6.47538">
        <ele>321.405</ele>
        <time>2015-10-03T08:57:19Z</time>
      </trkpt>
      <trkpt lat="47.36725" lon="6.47541">
        <ele>321.459</ele>
        <time>2015-10-03T08:57:20Z</time>
      </trkpt>
      <trkpt lat="47.36725" lon="6.47544">
        <ele>321.425</ele>
        <time>2015-10-03T08:57:21Z</time>
      </trkpt>
      <trkpt lat="47.36725" lon="6.47546">
        <ele>321.63</ele>
        <time>2015-10-03T08:57:22Z</time>
      </trkpt>
      <trkpt lat="47.36726" lon="6.47547">
        <ele>320.46</ele>
        <time>2015-10-03T08:57:30Z</time>
      </trkpt>
      <trkpt lat="47.36725" lon="6.47545">
        <ele>317.323</ele>
        <time>2015-10-03T08:58:48Z</time>
      </trkpt>
      <trkpt lat="47.36725" lon="6.47547">
        <ele>319.762</ele>
        <time>2015-10-03T08:59:54Z</time>
      </trkpt>
      <trkpt lat="47.36725" lon="6.47544">
        <ele>320.454</ele>
        <time>2015-10-03T09:00:00Z</time>
      </trkpt>
      <trkpt lat="47.36726" lon="6.47546">
        <ele>320.374</ele>
        <time>2015-10-03T09:00:04Z</time>
      </trkpt>
      <trkpt lat="47.36727" lon="6.47547">
        <ele>319.995</ele>
        <time>2015-10-03T09:00:05Z</time>
      </trkpt>
      <trkpt lat="47.36728" lon="6.47549">
        <ele>319.68</ele>
        <time>2015-10-03T09:00:07Z</time>
      </trkpt>
      <trkpt lat="47.36729" lon="6.4755">
        <ele>319.346</ele>
        <time>2015-10-03T09:00:08Z</time>
      </trkpt>
      <trkpt lat="47.36731" lon="6.47553">
        <ele>318.75</ele>
        <time>2015-10-03T09:00:13Z</time>
      </trkpt>
      <trkpt lat="47.36732" lon="6.47554">
        <ele>317.361</ele>
        <time>2015-10-03T09:00:14Z</time>
      </trkpt>
      <trkpt lat="47.36733" lon="6.47555">
        <ele>315.065</ele>
        <time>2015-10-03T09:00:17Z</time>
      </trkpt>
      <trkpt lat="47.36729" lon="6.47552">
        <ele>315.928</ele>
        <time>2015-10-03T09:00:28Z</time>
      </trkpt>
      <trkpt lat="47.36727" lon="6.4755">
        <ele>317.655</ele>
        <time>2015-10-03T09:00:30Z</time>
      </trkpt>
      <trkpt lat="47.36723" lon="6.47548">
        <ele>318.28</ele>
        <time>2015-10-03T09:00:53Z</time>
      </trkpt>
      <trkpt lat="47.36722" lon="6.47548">
        <ele>321.447</ele>
        <time>2015-10-03T09:01:16Z</time>
      </trkpt>
      <trkpt lat="47.36722" lon="6.47547">
        <ele>320.167</ele>
        <time>2015-10-03T09:01:26Z</time>
      </trkpt>
      <trkpt lat="47.36723" lon="6.47547">
        <ele>319.798</ele>
        <time>2015-10-03T09:01:28Z</time>
      </trkpt>
      <trkpt lat="47.36724" lon="6.47548">
        <ele>319.572</ele>
        <time>2015-10-03T09:01:31Z</time>
      </trkpt>
      <trkpt lat="47.36727" lon="6.47552">
        <ele>316.703</ele>
        <time>2015-10-03T09:01:39Z</time>
      </trkpt>
      <trkpt lat="47.36726" lon="6.47551">
        <ele>318.495</ele>
        <time>2015-10-03T09:02:08Z</time>
      </trkpt>
      <trkpt lat="47.36727" lon="6.47552">
        <ele>318.471</ele>
        <time>2015-10-03T09:02:10Z</time>
      </trkpt>
      <trkpt lat="47.36728" lon="6.47554">
        <ele>318.804</ele>
        <time>2015-10-03T09:02:11Z</time>
      </trkpt>
      <trkpt lat="47.36728" lon="6.47555">
        <ele>318.951</ele>
        <time>2015-10-03T09:02:12Z</time>
      </trkpt>
      <trkpt lat="47.36728" lon="6.47557">
        <ele>320.084</ele>
        <time>2015-10-03T09:02:13Z</time>
      </trkpt>
      <trkpt lat="47.36728" lon="6.47559">
        <ele>319.931</ele>
        <time>2015-10-03T09:02:14Z</time>
      </trkpt>
      <trkpt lat="47.36727" lon="6.47561">
        <ele>319.906</ele>
        <time>2015-10-03T09:02:15Z</time>
      </trkpt>
      <trkpt lat="47.36726" lon="6.47565">
        <ele>320.434</ele>
        <time>2015-10-03T09:02:16Z</time>
      </trkpt>
      <trkpt lat="47.36727" lon="6.47569">
        <ele>320.53</ele>
        <time>2015-10-03T09:02:17Z</time>
      </trkpt>
      <trkpt lat="47.36727" lon="6.47574">
        <ele>320.782</ele>
        <time>2015-10-03T09:02:18Z</time>
      </trkpt>
      <trkpt lat="47.36727" lon="6.4758">
        <ele>321.506</ele>
        <time>2015-10-03T09:02:19Z</time>
      </trkpt>
      <trkpt lat="47.36727" lon="6.47585">
        <ele>321.785</ele>
        <time>2015-10-03T09:02:20Z</time>
      </trkpt>
      <trkpt lat="47.36727" lon="6.47592">
        <ele>321.319</ele>
        <time>2015-10-03T09:02:21Z</time>
      </trkpt>
      <trkpt lat="47.36727" lon="6.47598">
        <ele>321.126</ele>
        <time>2015-10-03T09:02:22Z</time>
      </trkpt>
      <trkpt lat="47.36726" lon="6.47605">
        <ele>321.054</ele>
        <time>2015-10-03T09:02:23Z</time>
      </trkpt>
      <trkpt lat="47.36725" lon="6.47611">
        <ele>321.074</ele>
        <time>2015-10-03T09:02:24Z</time>
      </trkpt>
      <trkpt lat="47.36725" lon="6.47619">
        <ele>321.014</ele>
        <time>2015-10-03T09:02:25Z</time>
      </trkpt>
      <trkpt lat="47.36725" lon="6.47625">
        <ele>320.798</ele>
        <time>2015-10-03T09:02:26Z</time>
      </trkpt>
      <trkpt lat="47.36725" lon="6.47631">
        <ele>321.003</ele>
        <time>2015-10-03T09:02:27Z</time>
      </trkpt>
      <trkpt lat="47.36724" lon="6.47638">
        <ele>321.096</ele>
        <time>2015-10-03T09:02:28Z</time>
      </trkpt>
      <trkpt lat="47.36723" lon="6.47643">
        <ele>320.281</ele>
        <time>2015-10-03T09:02:29Z</time>
      </trkpt>
      <trkpt lat="47.36723" lon="6.47649">
        <ele>320.235</ele>
        <time>2015-10-03T09:02:30Z</time>
      </trkpt>
      <trkpt lat="47.36722" lon="6.47655">
        <ele>319.908</ele>
        <time>2015-10-03T09:02:31Z</time>
      </trkpt>
      <trkpt lat="47.36722" lon="6.47661">
        <ele>319.816</ele>
        <time>2015-10-03T09:02:32Z</time>
      </trkpt>
      <trkpt lat="47.36721" lon="6.47667">
        <ele>319.678</ele>
        <time>2015-10-03T09:02:33Z</time>
      </trkpt>
      <trkpt lat="47.36721" lon="6.47674">
        <ele>318.949</ele>
        <time>2015-10-03T09:02:34Z</time>
      </trkpt>
      <trkpt lat="47.36721" lon="6.47682">
        <ele>319.062</ele>
        <time>2015-10-03T09:02:35Z</time>
      </trkpt>
      <trkpt lat="47.36721" lon="6.4769">
        <ele>318.635</ele>
        <time>2015-10-03T09:02:36Z</time>
      </trkpt>
      <trkpt lat="47.3672" lon="6.47697">
        <ele>317.887</ele>
        <time>2015-10-03T09:02:37Z</time>
      </trkpt>
      <trkpt lat="47.36719" lon="6.47708">
        <ele>317.526</ele>
        <time>2015-10-03T09:02:38Z</time>
      </trkpt>
      <trkpt lat="47.3672" lon="6.47718">
        <ele>316.994</ele>
        <time>2015-10-03T09:02:39Z</time>
      </trkpt>
      <trkpt lat="47.36721" lon="6.47727">
        <ele>316.367</ele>
        <time>2015-10-03T09:02:40Z</time>
      </trkpt>
      <trkpt lat="47.36721" lon="6.47736">
        <ele>315.976</ele>
        <time>2015-10-03T09:02:41Z</time>
      </trkpt>
      <trkpt lat="47.36721" lon="6.47744">
        <ele>316.421</ele>
        <time>2015-10-03T09:02:42Z</time>
      </trkpt>
      <trkpt lat="47.36723" lon="6.47753">
        <ele>315.776</ele>
        <time>2015-10-03T09:02:43Z</time>
      </trkpt>
      <trkpt lat="47.36725" lon="6.47762">
        <ele>315.561</ele>
        <time>2015-10-03T09:02:44Z</time>
      </trkpt>
      <trkpt lat="47.36726" lon="6.47769">
        <ele>315.29</ele>
        <time>2015-10-03T09:02:45Z</time>
      </trkpt>
      <trkpt lat="47.36727" lon="6.47778">
        <ele>314.806</ele>
        <time>2015-10-03T09:02:46Z</time>
      </trkpt>
      <trkpt lat="47.36729" lon="6.47785">
        <ele>314.206</ele>
        <time>2015-10-03T09:02:47Z</time>
      </trkpt>
      <trkpt lat="47.36729" lon="6.47792">
        <ele>314.703</ele>
        <time>2015-10-03T09:02:48Z</time>
      </trkpt>
      <trkpt lat="47.36729" lon="6.47799">
        <ele>314.464</ele>
        <time>2015-10-03T09:02:49Z</time>
      </trkpt>
      <trkpt lat="47.36727" lon="6.47804">
        <ele>314.39</ele>
        <time>2015-10-03T09:02:50Z</time>
      </trkpt>
      <trkpt lat="47.36728" lon="6.4781">
        <ele>314.795</ele>
        <time>2015-10-03T09:02:51Z</time>
      </trkpt>
      <trkpt lat="47.36728" lon="6.47815">
        <ele>314.82</ele>
        <time>2015-10-03T09:02:52Z</time>
      </trkpt>
      <trkpt lat="47.36728" lon="6.4782">
        <ele>314.685</ele>
        <time>2015-10-03T09:02:53Z</time>
      </trkpt>
      <trkpt lat="47.36729" lon="6.47827">
        <ele>314.927</ele>
        <time>2015-10-03T09:02:54Z</time>
      </trkpt>
      <trkpt lat="47.36729" lon="6.47832">
        <ele>314.355</ele>
        <time>2015-10-03T09:02:55Z</time>
      </trkpt>
      <trkpt lat="47.36731" lon="6.47839">
        <ele>314.105</ele>
        <time>2015-10-03T09:02:56Z</time>
      </trkpt>
      <trkpt lat="47.36733" lon="6.47846">
        <ele>313.146</ele>
        <time>2015-10-03T09:02:57Z</time>
      </trkpt>
      <trkpt lat="47.36735" lon="6.47855">
        <ele>313.225</ele>
        <time>2015-10-03T09:02:58Z</time>
      </trkpt>
      <trkpt lat="47.36735" lon="6.47862">
        <ele>313.625</ele>
        <time>2015-10-03T09:02:59Z</time>
      </trkpt>
      <trkpt lat="47.36734" lon="6.47867">
        <ele>313.118</ele>
        <time>2015-10-03T09:03:00Z</time>
      </trkpt>
      <trkpt lat="47.36734" lon="6.47872">
        <ele>312.708</ele>
        <time>2015-10-03T09:03:01Z</time>
      </trkpt>
      <trkpt lat="47.36734" lon="6.47877">
        <ele>313.03</ele>
        <time>2015-10-03T09:03:02Z</time>
      </trkpt>
      <trkpt lat="47.36734" lon="6.47883">
        <ele>313.07</ele>
        <time>2015-10-03T09:03:03Z</time>
      </trkpt>
      <trkpt lat="47.36735" lon="6.47888">
        <ele>313.225</ele>
        <time>2015-10-03T09:03:04Z</time>
      </trkpt>
      <trkpt lat="47.36735" lon="6.47894">
        <ele>312.779</ele>
        <time>2015-10-03T09:03:05Z</time>
      </trkpt>
      <trkpt lat="47.36736" lon="6.479">
        <ele>313.051</ele>
        <time>2015-10-03T09:03:06Z</time>
      </trkpt>
      <trkpt lat="47.36736" lon="6.47906">
        <ele>312.976</ele>
        <time>2015-10-03T09:03:07Z</time>
      </trkpt>
      <trkpt lat="47.36739" lon="6.47919">
        <ele>311.379</ele>
        <time>2015-10-03T09:03:08Z</time>
      </trkpt>
      <trkpt lat="47.36739" lon="6.47925">
        <ele>311.143</ele>
        <time>2015-10-03T09:03:09Z</time>
      </trkpt>
      <trkpt lat="47.36741" lon="6.47933">
        <ele>310.632</ele>
        <time>2015-10-03T09:03:10Z</time>
      </trkpt>
      <trkpt lat="47.36743" lon="6.47941">
        <ele>310.66</ele>
        <time>2015-10-03T09:03:11Z</time>
      </trkpt>
      <trkpt lat="47.36746" lon="6.47949">
        <ele>309.986</ele>
        <time>2015-10-03T09:03:12Z</time>
      </trkpt>
      <trkpt lat="47.3675" lon="6.4796">
        <ele>309.506</ele>
        <time>2015-10-03T09:03:13Z</time>
      </trkpt>
      <trkpt lat="47.36753" lon="6.47968">
        <ele>309.265</ele>
        <time>2015-10-03T09:03:14Z</time>
      </trkpt>
      <trkpt lat="47.36756" lon="6.47974">
        <ele>308.042</ele>
        <time>2015-10-03T09:03:15Z</time>
      </trkpt>
      <trkpt lat="47.36759" lon="6.47981">
        <ele>306.853</ele>
        <time>2015-10-03T09:03:16Z</time>
      </trkpt>
      <trkpt lat="47.36762" lon="6.4799">
        <ele>305.627</ele>
        <time>2015-10-03T09:03:17Z</time>
      </trkpt>
      <trkpt lat="47.36765" lon="6.47999">
        <ele>305.222</ele>
        <time>2015-10-03T09:03:18Z</time>
      </trkpt>
      <trkpt lat="47.3677" lon="6.48008">
        <ele>304.035</ele>
        <time>2015-10-03T09:03:19Z</time>
      </trkpt>
      <trkpt lat="47.36771" lon="6.48017">
        <ele>306.316</ele>
        <time>2015-10-03T09:03:20Z</time>
      </trkpt>
      <trkpt lat="47.36774" lon="6.48027">
        <ele>304.986</ele>
        <time>2015-10-03T09:03:21Z</time>
      </trkpt>
      <trkpt lat="47.36775" lon="6.48036">
        <ele>305.078</ele>
        <time>2015-10-03T09:03:22Z</time>
      </trkpt>
      <trkpt lat="47.36776" lon="6.48045">
        <ele>305.048</ele>
        <time>2015-10-03T09:03:23Z</time>
      </trkpt>
      <trkpt lat="47.36775" lon="6.48054">
        <ele>305.027</ele>
        <time>2015-10-03T09:03:24Z</time>
      </trkpt>
      <trkpt lat="47.36775" lon="6.48063">
        <ele>305.041</ele>
        <time>2015-10-03T09:03:25Z</time>
      </trkpt>
      <trkpt lat="47.36775" lon="6.48073">
        <ele>305.205</ele>
        <time>2015-10-03T09:03:26Z</time>
      </trkpt>
      <trkpt lat="47.36774" lon="6.48079">
        <ele>304.903</ele>
        <time>2015-10-03T09:03:27Z</time>
      </trkpt>
      <trkpt lat="47.36775" lon="6.48089">
        <ele>305.172</ele>
        <time>2015-10-03T09:03:28Z</time>
      </trkpt>
      <trkpt lat="47.36775" lon="6.48097">
        <ele>305.36</ele>
        <time>2015-10-03T09:03:29Z</time>
      </trkpt>
      <trkpt lat="47.36774" lon="6.48103">
        <ele>305.551</ele>
        <time>2015-10-03T09:03:30Z</time>
      </trkpt>
      <trkpt lat="47.36773" lon="6.48111">
        <ele>305.928</ele>
        <time>2015-10-03T09:03:31Z</time>
      </trkpt>
      <trkpt lat="47.36772" lon="6.48119">
        <ele>305.928</ele>
        <time>2015-10-03T09:03:32Z</time>
      </trkpt>
      <trkpt lat="47.36772" lon="6.48127">
        <ele>305.832</ele>
        <time>2015-10-03T09:03:33Z</time>
      </trkpt>
      <trkpt lat="47.3677" lon="6.48134">
        <ele>306.046</ele>
        <time>2015-10-03T09:03:34Z</time>
      </trkpt>
      <trkpt lat="47.36769" lon="6.48142">
        <ele>306.181</ele>
        <time>2015-10-03T09:03:35Z</time>
      </trkpt>
      <trkpt lat="47.36768" lon="6.48149">
        <ele>306.174</ele>
        <time>2015-10-03T09:03:36Z</time>
      </trkpt>
      <trkpt lat="47.36767" lon="6.48156">
        <ele>306.436</ele>
        <time>2015-10-03T09:03:37Z</time>
      </trkpt>
      <trkpt lat="47.36766" lon="6.48162">
        <ele>306.304</ele>
        <time>2015-10-03T09:03:38Z</time>
      </trkpt>
      <trkpt lat="47.36764" lon="6.48169">
        <ele>305.169</ele>
        <time>2015-10-03T09:03:39Z</time>
      </trkpt>
      <trkpt lat="47.36763" lon="6.48176">
        <ele>304.751</ele>
        <time>2015-10-03T09:03:40Z</time>
      </trkpt>
      <trkpt lat="47.36761" lon="6.48184">
        <ele>304.371</ele>
        <time>2015-10-03T09:03:41Z</time>
      </trkpt>
      <trkpt lat="47.36759" lon="6.48192">
        <ele>303.859</ele>
        <time>2015-10-03T09:03:42Z</time>
      </trkpt>
      <trkpt lat="47.36755" lon="6.48198">
        <ele>303.407</ele>
        <time>2015-10-03T09:03:43Z</time>
      </trkpt>
      <trkpt lat="47.36753" lon="6.48206">
        <ele>303.694</ele>
        <time>2015-10-03T09:03:44Z</time>
      </trkpt>
      <trkpt lat="47.36749" lon="6.48215">
        <ele>304.77</ele>
        <time>2015-10-03T09:03:45Z</time>
      </trkpt>
      <trkpt lat="47.36746" lon="6.48224">
        <ele>304.699</ele>
        <time>2015-10-03T09:03:46Z</time>
      </trkpt>
      <trkpt lat="47.36743" lon="6.48234">
        <ele>303.849</ele>
        <time>2015-10-03T09:03:47Z</time>
      </trkpt>
      <trkpt lat="47.3674" lon="6.48244">
        <ele>303.722</ele>
        <time>2015-10-03T09:03:48Z</time>
      </trkpt>
      <trkpt lat="47.36736" lon="6.48254">
        <ele>303.892</ele>
        <time>2015-10-03T09:03:49Z</time>
      </trkpt>
      <trkpt lat="47.36734" lon="6.48264">
        <ele>303.244</ele>
        <time>2015-10-03T09:03:50Z</time>
      </trkpt>
      <trkpt lat="47.3673" lon="6.48275">
        <ele>302.096</ele>
        <time>2015-10-03T09:03:51Z</time>
      </trkpt>
      <trkpt lat="47.36727" lon="6.48286">
        <ele>301.8</ele>
        <time>2015-10-03T09:03:52Z</time>
      </trkpt>
      <trkpt lat="47.36725" lon="6.48297">
        <ele>300.945</ele>
        <time>2015-10-03T09:03:53Z</time>
      </trkpt>
      <trkpt lat="47.36722" lon="6.48309">
        <ele>300.626</ele>
        <time>2015-10-03T09:03:54Z</time>
      </trkpt>
      <trkpt lat="47.36721" lon="6.48321">
        <ele>300.405</ele>
        <time>2015-10-03T09:03:55Z</time>
      </trkpt>
      <trkpt lat="47.36722" lon="6.48333">
        <ele>299.418</ele>
        <time>2015-10-03T09:03:56Z</time>
      </trkpt>
      <trkpt lat="47.36724" lon="6.48345">
        <ele>299.488</ele>
        <time>2015-10-03T09:03:57Z</time>
      </trkpt>
      <trkpt lat="47.36728" lon="6.48356">
        <ele>299.344</ele>
        <time>2015-10-03T09:03:58Z</time>
      </trkpt>
      <trkpt lat="47.36732" lon="6.48366">
        <ele>299.314</ele>
        <time>2015-10-03T09:03:59Z</time>
      </trkpt>
      <trkpt lat="47.36737" lon="6.48376">
        <ele>298.944</ele>
        <time>2015-10-03T09:04:00Z</time>
      </trkpt>
      <trkpt lat="47.36742" lon="6.48387">
        <ele>298.104</ele>
        <time>2015-10-03T09:04:01Z</time>
      </trkpt>
      <trkpt lat="47.36747" lon="6.48397">
        <ele>297.768</ele>
        <time>2015-10-03T09:04:02Z</time>
      </trkpt>
      <trkpt lat="47.36751" lon="6.48408">
        <ele>297.376</ele>
        <time>2015-10-03T09:04:03Z</time>
      </trkpt>
      <trkpt lat="47.36756" lon="6.48419">
        <ele>297.198</ele>
        <time>2015-10-03T09:04:04Z</time>
      </trkpt>
      <trkpt lat="47.36759" lon="6.48431">
        <ele>297.083</ele>
        <time>2015-10-03T09:04:05Z</time>
      </trkpt>
      <trkpt lat="47.36763" lon="6.48444">
        <ele>296.688</ele>
        <time>2015-10-03T09:04:06Z</time>
      </trkpt>
      <trkpt lat="47.36766" lon="6.48456">
        <ele>296.594</ele>
        <time>2015-10-03T09:04:07Z</time>
      </trkpt>
      <trkpt lat="47.36766" lon="6.48468">
        <ele>296.741</ele>
        <time>2015-10-03T09:04:08Z</time>
      </trkpt>
      <trkpt lat="47.36766" lon="6.48481">
        <ele>294.349</ele>
        <time>2015-10-03T09:04:09Z</time>
      </trkpt>
      <trkpt lat="47.36765" lon="6.48493">
        <ele>293.655</ele>
        <time>2015-10-03T09:04:10Z</time>
      </trkpt>
      <trkpt lat="47.36765" lon="6.48506">
        <ele>293.555</ele>
        <time>2015-10-03T09:04:11Z</time>
      </trkpt>
      <trkpt lat="47.36766" lon="6.48525">
        <ele>290.188</ele>
        <time>2015-10-03T09:04:12Z</time>
      </trkpt>
      <trkpt lat="47.36767" lon="6.48539">
        <ele>289.351</ele>
        <time>2015-10-03T09:04:13Z</time>
      </trkpt>
      <trkpt lat="47.36765" lon="6.48554">
        <ele>289.024</ele>
        <time>2015-10-03T09:04:14Z</time>
      </trkpt>
      <trkpt lat="47.36764" lon="6.48565">
        <ele>289.368</ele>
        <time>2015-10-03T09:04:15Z</time>
      </trkpt>
      <trkpt lat="47.36764" lon="6.48576">
        <ele>289.928</ele>
        <time>2015-10-03T09:04:16Z</time>
      </trkpt>
      <trkpt lat="47.36758" lon="6.48594">
        <ele>289.275</ele>
        <time>2015-10-03T09:04:17Z</time>
      </trkpt>
      <trkpt lat="47.36758" lon="6.48608">
        <ele>289.376</ele>
        <time>2015-10-03T09:04:18Z</time>
      </trkpt>
      <trkpt lat="47.3676" lon="6.4862">
        <ele>289.416</ele>
        <time>2015-10-03T09:04:19Z</time>
      </trkpt>
      <trkpt lat="47.36759" lon="6.48632">
        <ele>288.276</ele>
        <time>2015-10-03T09:04:20Z</time>
      </trkpt>
      <trkpt lat="47.36762" lon="6.4865">
        <ele>288.982</ele>
        <time>2015-10-03T09:04:21Z</time>
      </trkpt>
      <trkpt lat="47.36762" lon="6.48664">
        <ele>288.352</ele>
        <time>2015-10-03T09:04:22Z</time>
      </trkpt>
      <trkpt lat="47.36762" lon="6.48677">
        <ele>288.444</ele>
        <time>2015-10-03T09:04:23Z</time>
      </trkpt>
      <trkpt lat="47.36758" lon="6.4869">
        <ele>289.927</ele>
        <time>2015-10-03T09:04:24Z</time>
      </trkpt>
      <trkpt lat="47.36757" lon="6.487">
        <ele>289.861</ele>
        <time>2015-10-03T09:04:25Z</time>
      </trkpt>
      <trkpt lat="47.3676" lon="6.48719">
        <ele>288.299</ele>
        <time>2015-10-03T09:04:26Z</time>
      </trkpt>
      <trkpt lat="47.3676" lon="6.48734">
        <ele>288.702</ele>
        <time>2015-10-03T09:04:27Z</time>
      </trkpt>
      <trkpt lat="47.36761" lon="6.48747">
        <ele>288.792</ele>
        <time>2015-10-03T09:04:28Z</time>
      </trkpt>
      <trkpt lat="47.36762" lon="6.48758">
        <ele>288.486</ele>
        <time>2015-10-03T09:04:29Z</time>
      </trkpt>
      <trkpt lat="47.36763" lon="6.4877">
        <ele>288.868</ele>
        <time>2015-10-03T09:04:30Z</time>
      </trkpt>
      <trkpt lat="47.36765" lon="6.48786">
        <ele>287.817</ele>
        <time>2015-10-03T09:04:31Z</time>
      </trkpt>
      <trkpt lat="47.36767" lon="6.48799">
        <ele>286.917</ele>
        <time>2015-10-03T09:04:32Z</time>
      </trkpt>
      <trkpt lat="47.36771" lon="6.48811">
        <ele>285.743</ele>
        <time>2015-10-03T09:04:33Z</time>
      </trkpt>
      <trkpt lat="47.36771" lon="6.48824">
        <ele>285.164</ele>
        <time>2015-10-03T09:04:34Z</time>
      </trkpt>
      <trkpt lat="47.36773" lon="6.48837">
        <ele>284.034</ele>
        <time>2015-10-03T09:04:35Z</time>
      </trkpt>
      <trkpt lat="47.36774" lon="6.48851">
        <ele>284.267</ele>
        <time>2015-10-03T09:04:36Z</time>
      </trkpt>
      <trkpt lat="47.36776" lon="6.48866">
        <ele>284.193</ele>
        <time>2015-10-03T09:04:37Z</time>
      </trkpt>
      <trkpt lat="47.36776" lon="6.48878">
        <ele>284.886</ele>
        <time>2015-10-03T09:04:38Z</time>
      </trkpt>
      <trkpt lat="47.36779" lon="6.48889">
        <ele>283.658</ele>
        <time>2015-10-03T09:04:39Z</time>
      </trkpt>
      <trkpt lat="47.36785" lon="6.48902">
        <ele>283.415</ele>
        <time>2015-10-03T09:04:40Z</time>
      </trkpt>
      <trkpt lat="47.36788" lon="6.48916">
        <ele>283.347</ele>
        <time>2015-10-03T09:04:41Z</time>
      </trkpt>
      <trkpt lat="47.36786" lon="6.48927">
        <ele>280.688</ele>
        <time>2015-10-03T09:04:42Z</time>
      </trkpt>
      <trkpt lat="47.36789" lon="6.48939">
        <ele>281.08</ele>
        <time>2015-10-03T09:04:43Z</time>
      </trkpt>
      <trkpt lat="47.36793" lon="6.48954">
        <ele>280.606</ele>
        <time>2015-10-03T09:04:44Z</time>
      </trkpt>
      <trkpt lat="47.36797" lon="6.48966">
        <ele>281.205</ele>
        <time>2015-10-03T09:04:45Z</time>
      </trkpt>
      <trkpt lat="47.36798" lon="6.48978">
        <ele>279.909</ele>
        <time>2015-10-03T09:04:46Z</time>
      </trkpt>
      <trkpt lat="47.36801" lon="6.48989">
        <ele>279.525</ele>
        <time>2015-10-03T09:04:47Z</time>
      </trkpt>
      <trkpt lat="47.36804" lon="6.49002">
        <ele>279.182</ele>
        <time>2015-10-03T09:04:48Z</time>
      </trkpt>
      <trkpt lat="47.36807" lon="6.49019">
        <ele>280.134</ele>
        <time>2015-10-03T09:04:49Z</time>
      </trkpt>
      <trkpt lat="47.36811" lon="6.49034">
        <ele>279.786</ele>
        <time>2015-10-03T09:04:50Z</time>
      </trkpt>
      <trkpt lat="47.36816" lon="6.49048">
        <ele>278.964</ele>
        <time>2015-10-03T09:04:51Z</time>
      </trkpt>
      <trkpt lat="47.36818" lon="6.49062">
        <ele>278.326</ele>
        <time>2015-10-03T09:04:52Z</time>
      </trkpt>
      <trkpt lat="47.36822" lon="6.49075">
        <ele>277.65</ele>
        <time>2015-10-03T09:04:53Z</time>
      </trkpt>
      <trkpt lat="47.36824" lon="6.49088">
        <ele>276.885</ele>
        <time>2015-10-03T09:04:54Z</time>
      </trkpt>
      <trkpt lat="47.36828" lon="6.49102">
        <ele>276.23</ele>
        <time>2015-10-03T09:04:55Z</time>
      </trkpt>
      <trkpt lat="47.3683" lon="6.49114">
        <ele>275.861</ele>
        <time>2015-10-03T09:04:56Z</time>
      </trkpt>
      <trkpt lat="47.36834" lon="6.49126">
        <ele>276.006</ele>
        <time>2015-10-03T09:04:57Z</time>
      </trkpt>
      <trkpt lat="47.36838" lon="6.49139">
        <ele>277.686</ele>
        <time>2015-10-03T09:04:58Z</time>
      </trkpt>
      <trkpt lat="47.3684" lon="6.4915">
        <ele>275.88</ele>
        <time>2015-10-03T09:04:59Z</time>
      </trkpt>
      <trkpt lat="47.36843" lon="6.49161">
        <ele>275.113</ele>
        <time>2015-10-03T09:05:00Z</time>
      </trkpt>
      <trkpt lat="47.36846" lon="6.49172">
        <ele>274.798</ele>
        <time>2015-10-03T09:05:01Z</time>
      </trkpt>
      <trkpt lat="47.36849" lon="6.49183">
        <ele>275.966</ele>
        <time>2015-10-03T09:05:02Z</time>
      </trkpt>
      <trkpt lat="47.36851" lon="6.49193">
        <ele>275.979</ele>
        <time>2015-10-03T09:05:03Z</time>
      </trkpt>
      <trkpt lat="47.36853" lon="6.49203">
        <ele>275.374</ele>
        <time>2015-10-03T09:05:04Z</time>
      </trkpt>
      <trkpt lat="47.36857" lon="6.49212">
        <ele>276.035</ele>
        <time>2015-10-03T09:05:05Z</time>
      </trkpt>
      <trkpt lat="47.36858" lon="6.4922">
        <ele>275.317</ele>
        <time>2015-10-03T09:05:06Z</time>
      </trkpt>
      <trkpt lat="47.36861" lon="6.49229">
        <ele>274.671</ele>
        <time>2015-10-03T09:05:07Z</time>
      </trkpt>
      <trkpt lat="47.36864" lon="6.49237">
        <ele>276.957</ele>
        <time>2015-10-03T09:05:08Z</time>
      </trkpt>
      <trkpt lat="47.36866" lon="6.49245">
        <ele>277.5</ele>
        <time>2015-10-03T09:05:09Z</time>
      </trkpt>
      <trkpt lat="47.36869" lon="6.49252">
        <ele>277.305</ele>
        <time>2015-10-03T09:05:10Z</time>
      </trkpt>
      <trkpt lat="47.36872" lon="6.4926">
        <ele>277.379</ele>
        <time>2015-10-03T09:05:11Z</time>
      </trkpt>
      <trkpt lat="47.36874" lon="6.49266">
        <ele>277.707</ele>
        <time>2015-10-03T09:05:12Z</time>
      </trkpt>
      <trkpt lat="47.36876" lon="6.49274">
        <ele>277.936</ele>
        <time>2015-10-03T09:05:13Z</time>
      </trkpt>
      <trkpt lat="47.36878" lon="6.4928">
        <ele>277.75</ele>
        <time>2015-10-03T09:05:14Z</time>
      </trkpt>
      <trkpt lat="47.36881" lon="6.49286">
        <ele>278.083</ele>
        <time>2015-10-03T09:05:15Z</time>
      </trkpt>
      <trkpt lat="47.36883" lon="6.49294">
        <ele>278.356</ele>
        <time>2015-10-03T09:05:16Z</time>
      </trkpt>
      <trkpt lat="47.36885" lon="6.49298">
        <ele>278.728</ele>
        <time>2015-10-03T09:05:17Z</time>
      </trkpt>
      <trkpt lat="47.36886" lon="6.49305">
        <ele>278.684</ele>
        <time>2015-10-03T09:05:18Z</time>
      </trkpt>
      <trkpt lat="47.36889" lon="6.49313">
        <ele>278.628</ele>
        <time>2015-10-03T09:05:19Z</time>
      </trkpt>
      <trkpt lat="47.3689" lon="6.4932">
        <ele>278.677</ele>
        <time>2015-10-03T09:05:20Z</time>
      </trkpt>
      <trkpt lat="47.36892" lon="6.49327">
        <ele>279.254</ele>
        <time>2015-10-03T09:05:21Z</time>
      </trkpt>
      <trkpt lat="47.36894" lon="6.49334">
        <ele>278.77</ele>
        <time>2015-10-03T09:05:22Z</time>
      </trkpt>
      <trkpt lat="47.36895" lon="6.4934">
        <ele>278.311</ele>
        <time>2015-10-03T09:05:23Z</time>
      </trkpt>
      <trkpt lat="47.36897" lon="6.49345">
        <ele>278.992</ele>
        <time>2015-10-03T09:05:24Z</time>
      </trkpt>
      <trkpt lat="47.36899" lon="6.49351">
        <ele>279.291</ele>
        <time>2015-10-03T09:05:25Z</time>
      </trkpt>
      <trkpt lat="47.369" lon="6.49357">
        <ele>279.76</ele>
        <time>2015-10-03T09:05:26Z</time>
      </trkpt>
      <trkpt lat="47.36903" lon="6.49363">
        <ele>280.063</ele>
        <time>2015-10-03T09:05:27Z</time>
      </trkpt>
      <trkpt lat="47.36907" lon="6.49369">
        <ele>279.725</ele>
        <time>2015-10-03T09:05:28Z</time>
      </trkpt>
      <trkpt lat="47.36908" lon="6.49375">
        <ele>279.279</ele>
        <time>2015-10-03T09:05:29Z</time>
      </trkpt>
      <trkpt lat="47.3691" lon="6.49381">
        <ele>279.107</ele>
        <time>2015-10-03T09:05:30Z</time>
      </trkpt>
      <trkpt lat="47.36911" lon="6.49387">
        <ele>278.313</ele>
        <time>2015-10-03T09:05:31Z</time>
      </trkpt>
      <trkpt lat="47.36914" lon="6.49392">
        <ele>278.782</ele>
        <time>2015-10-03T09:05:32Z</time>
      </trkpt>
      <trkpt lat="47.3692" lon="6.49397">
        <ele>279.296</ele>
        <time>2015-10-03T09:05:33Z</time>
      </trkpt>
      <trkpt lat="47.36924" lon="6.49402">
        <ele>279.58</ele>
        <time>2015-10-03T09:05:34Z</time>
      </trkpt>
      <trkpt lat="47.36925" lon="6.4941">
        <ele>278.885</ele>
        <time>2015-10-03T09:05:35Z</time>
      </trkpt>
      <trkpt lat="47.36926" lon="6.49415">
        <ele>278.855</ele>
        <time>2015-10-03T09:05:36Z</time>
      </trkpt>
      <trkpt lat="47.36928" lon="6.4942">
        <ele>279.043</ele>
        <time>2015-10-03T09:05:37Z</time>
      </trkpt>
      <trkpt lat="47.36929" lon="6.49425">
        <ele>279.053</ele>
        <time>2015-10-03T09:05:38Z</time>
      </trkpt>
      <trkpt lat="47.3693" lon="6.49431">
        <ele>279.063</ele>
        <time>2015-10-03T09:05:39Z</time>
      </trkpt>
      <trkpt lat="47.36931" lon="6.49437">
        <ele>279.533</ele>
        <time>2015-10-03T09:05:40Z</time>
      </trkpt>
      <trkpt lat="47.36933" lon="6.49443">
        <ele>279.999</ele>
        <time>2015-10-03T09:05:41Z</time>
      </trkpt>
      <trkpt lat="47.36935" lon="6.49448">
        <ele>279.618</ele>
        <time>2015-10-03T09:05:42Z</time>
      </trkpt>
      <trkpt lat="47.36938" lon="6.49454">
        <ele>279.213</ele>
        <time>2015-10-03T09:05:43Z</time>
      </trkpt>
      <trkpt lat="47.36939" lon="6.49461">
        <ele>278.659</ele>
        <time>2015-10-03T09:05:44Z</time>
      </trkpt>
      <trkpt lat="47.36941" lon="6.49466">
        <ele>278.349</ele>
        <time>2015-10-03T09:05:45Z</time>
      </trkpt>
      <trkpt lat="47.36942" lon="6.49472">
        <ele>277.916</ele>
        <time>2015-10-03T09:05:46Z</time>
      </trkpt>
      <trkpt lat="47.36944" lon="6.49477">
        <ele>277.554</ele>
        <time>2015-10-03T09:05:47Z</time>
      </trkpt>
      <trkpt lat="47.36946" lon="6.49483">
        <ele>277.639</ele>
        <time>2015-10-03T09:05:48Z</time>
      </trkpt>
      <trkpt lat="47.36948" lon="6.49488">
        <ele>277.989</ele>
        <time>2015-10-03T09:05:49Z</time>
      </trkpt>
      <trkpt lat="47.3695" lon="6.49493">
        <ele>278.515</ele>
        <time>2015-10-03T09:05:50Z</time>
      </trkpt>
      <trkpt lat="47.36952" lon="6.49498">
        <ele>278.928</ele>
        <time>2015-10-03T09:05:51Z</time>
      </trkpt>
      <trkpt lat="47.36954" lon="6.49504">
        <ele>278.778</ele>
        <time>2015-10-03T09:05:52Z</time>
      </trkpt>
      <trkpt lat="47.36956" lon="6.49509">
        <ele>278.762</ele>
        <time>2015-10-03T09:05:53Z</time>
      </trkpt>
      <trkpt lat="47.36958" lon="6.49514">
        <ele>279.205</ele>
        <time>2015-10-03T09:05:54Z</time>
      </trkpt>
      <trkpt lat="47.3696" lon="6.4952">
        <ele>279.012</ele>
        <time>2015-10-03T09:05:55Z</time>
      </trkpt>
      <trkpt lat="47.36961" lon="6.49525">
        <ele>279.237</ele>
        <time>2015-10-03T09:05:56Z</time>
      </trkpt>
      <trkpt lat="47.36963" lon="6.4953">
        <ele>279.288</ele>
        <time>2015-10-03T09:05:57Z</time>
      </trkpt>
      <trkpt lat="47.36965" lon="6.49535">
        <ele>279.578</ele>
        <time>2015-10-03T09:05:58Z</time>
      </trkpt>
      <trkpt lat="47.36966" lon="6.49541">
        <ele>279.949</ele>
        <time>2015-10-03T09:05:59Z</time>
      </trkpt>
      <trkpt lat="47.36968" lon="6.49546">
        <ele>279.855</ele>
        <time>2015-10-03T09:06:00Z</time>
      </trkpt>
      <trkpt lat="47.3697" lon="6.49552">
        <ele>279.917</ele>
        <time>2015-10-03T09:06:01Z</time>
      </trkpt>
      <trkpt lat="47.36971" lon="6.49557">
        <ele>279.157</ele>
        <time>2015-10-03T09:06:02Z</time>
      </trkpt>
      <trkpt lat="47.36973" lon="6.49563">
        <ele>279.286</ele>
        <time>2015-10-03T09:06:03Z</time>
      </trkpt>
      <trkpt lat="47.36974" lon="6.49569">
        <ele>279.15</ele>
        <time>2015-10-03T09:06:04Z</time>
      </trkpt>
      <trkpt lat="47.36975" lon="6.49575">
        <ele>279.197</ele>
        <time>2015-10-03T09:06:05Z</time>
      </trkpt>
      <trkpt lat="47.36977" lon="6.4958">
        <ele>279.412</ele>
        <time>2015-10-03T09:06:06Z</time>
      </trkpt>
      <trkpt lat="47.36978" lon="6.49585">
        <ele>279.612</ele>
        <time>2015-10-03T09:06:07Z</time>
      </trkpt>
      <trkpt lat="47.3698" lon="6.4959">
        <ele>279.889</ele>
        <time>2015-10-03T09:06:08Z</time>
      </trkpt>
      <trkpt lat="47.36982" lon="6.49594">
        <ele>280.051</ele>
        <time>2015-10-03T09:06:09Z</time>
      </trkpt>
      <trkpt lat="47.36984" lon="6.49599">
        <ele>280.051</ele>
        <time>2015-10-03T09:06:10Z</time>
      </trkpt>
      <trkpt lat="47.36986" lon="6.49604">
        <ele>280.058</ele>
        <time>2015-10-03T09:06:11Z</time>
      </trkpt>
      <trkpt lat="47.36989" lon="6.49609">
        <ele>280.316</ele>
        <time>2015-10-03T09:06:12Z</time>
      </trkpt>
      <trkpt lat="47.36992" lon="6.49614">
        <ele>279.47</ele>
        <time>2015-10-03T09:06:13Z</time>
      </trkpt>
      <trkpt lat="47.36994" lon="6.49619">
        <ele>279.15</ele>
        <time>2015-10-03T09:06:14Z</time>
      </trkpt>
      <trkpt lat="47.36997" lon="6.49625">
        <ele>279.591</ele>
        <time>2015-10-03T09:06:15Z</time>
      </trkpt>
      <trkpt lat="47.37" lon="6.4963">
        <ele>279.727</ele>
        <time>2015-10-03T09:06:16Z</time>
      </trkpt>
      <trkpt lat="47.37002" lon="6.49635">
        <ele>280.339</ele>
        <time>2015-10-03T09:06:17Z</time>
      </trkpt>
      <trkpt lat="47.37006" lon="6.49641">
        <ele>279.561</ele>
        <time>2015-10-03T09:06:18Z</time>
      </trkpt>
      <trkpt lat="47.37008" lon="6.49646">
        <ele>280.013</ele>
        <time>2015-10-03T09:06:19Z</time>
      </trkpt>
      <trkpt lat="47.37011" lon="6.49653">
        <ele>280.093</ele>
        <time>2015-10-03T09:06:20Z</time>
      </trkpt>
      <trkpt lat="47.37016" lon="6.4966">
        <ele>278.699</ele>
        <time>2015-10-03T09:06:21Z</time>
      </trkpt>
      <trkpt lat="47.37018" lon="6.49666">
        <ele>279.057</ele>
        <time>2015-10-03T09:06:22Z</time>
      </trkpt>
      <trkpt lat="47.37019" lon="6.49672">
        <ele>277.128</ele>
        <time>2015-10-03T09:06:23Z</time>
      </trkpt>
      <trkpt lat="47.37023" lon="6.49679">
        <ele>275.895</ele>
        <time>2015-10-03T09:06:24Z</time>
      </trkpt>
      <trkpt lat="47.37026" lon="6.49685">
        <ele>275.443</ele>
        <time>2015-10-03T09:06:25Z</time>
      </trkpt>
      <trkpt lat="47.37028" lon="6.49691">
        <ele>277.163</ele>
        <time>2015-10-03T09:06:26Z</time>
      </trkpt>
      <trkpt lat="47.3703" lon="6.49696">
        <ele>277.15</ele>
        <time>2015-10-03T09:06:27Z</time>
      </trkpt>
      <trkpt lat="47.37034" lon="6.49702">
        <ele>278.124</ele>
        <time>2015-10-03T09:06:28Z</time>
      </trkpt>
      <trkpt lat="47.37041" lon="6.49708">
        <ele>278.432</ele>
        <time>2015-10-03T09:06:29Z</time>
      </trkpt>
      <trkpt lat="47.37042" lon="6.49714">
        <ele>278.276</ele>
        <time>2015-10-03T09:06:30Z</time>
      </trkpt>
      <trkpt lat="47.37044" lon="6.4972">
        <ele>278.167</ele>
        <time>2015-10-03T09:06:31Z</time>
      </trkpt>
      <trkpt lat="47.37047" lon="6.49725">
        <ele>277.629</ele>
        <time>2015-10-03T09:06:32Z</time>
      </trkpt>
      <trkpt lat="47.37052" lon="6.49736">
        <ele>274.711</ele>
        <time>2015-10-03T09:06:33Z</time>
      </trkpt>
      <trkpt lat="47.37054" lon="6.4974">
        <ele>274.422</ele>
        <time>2015-10-03T09:06:34Z</time>
      </trkpt>
      <trkpt lat="47.37058" lon="6.49746">
        <ele>276.04</ele>
        <time>2015-10-03T09:06:35Z</time>
      </trkpt>
      <trkpt lat="47.3706" lon="6.49753">
        <ele>274.286</ele>
        <time>2015-10-03T09:06:36Z</time>
      </trkpt>
      <trkpt lat="47.37062" lon="6.4976">
        <ele>273.2</ele>
        <time>2015-10-03T09:06:37Z</time>
      </trkpt>
      <trkpt lat="47.37066" lon="6.49764">
        <ele>274.507</ele>
        <time>2015-10-03T09:06:38Z</time>
      </trkpt>
      <trkpt lat="47.37066" lon="6.49769">
        <ele>274.537</ele>
        <time>2015-10-03T09:06:39Z</time>
      </trkpt>
      <trkpt lat="47.37069" lon="6.49773">
        <ele>275.713</ele>
        <time>2015-10-03T09:06:40Z</time>
      </trkpt>
      <trkpt lat="47.37072" lon="6.4978">
        <ele>274.429</ele>
        <time>2015-10-03T09:06:41Z</time>
      </trkpt>
      <trkpt lat="47.37074" lon="6.49786">
        <ele>274.037</ele>
        <time>2015-10-03T09:06:42Z</time>
      </trkpt>
      <trkpt lat="47.37076" lon="6.49793">
        <ele>273.035</ele>
        <time>2015-10-03T09:06:43Z</time>
      </trkpt>
      <trkpt lat="47.37078" lon="6.49799">
        <ele>272.081</ele>
        <time>2015-10-03T09:06:44Z</time>
      </trkpt>
      <trkpt lat="47.37081" lon="6.49804">
        <ele>271.847</ele>
        <time>2015-10-03T09:06:45Z</time>
      </trkpt>
      <trkpt lat="47.37082" lon="6.4981">
        <ele>272.51</ele>
        <time>2015-10-03T09:06:46Z</time>
      </trkpt>
      <trkpt lat="47.37086" lon="6.49815">
        <ele>273.147</ele>
        <time>2015-10-03T09:06:47Z</time>
      </trkpt>
      <trkpt lat="47.37089" lon="6.4982">
        <ele>273.277</ele>
        <time>2015-10-03T09:06:48Z</time>
      </trkpt>
      <trkpt lat="47.37091" lon="6.49824">
        <ele>273.633</ele>
        <time>2015-10-03T09:06:49Z</time>
      </trkpt>
      <trkpt lat="47.37092" lon="6.49829">
        <ele>273.217</ele>
        <time>2015-10-03T09:06:50Z</time>
      </trkpt>
      <trkpt lat="47.37095" lon="6.49833">
        <ele>272.375</ele>
        <time>2015-10-03T09:06:51Z</time>
      </trkpt>
      <trkpt lat="47.37097" lon="6.49838">
        <ele>273.101</ele>
        <time>2015-10-03T09:06:52Z</time>
      </trkpt>
      <trkpt lat="47.371" lon="6.49843">
        <ele>273.249</ele>
        <time>2015-10-03T09:06:53Z</time>
      </trkpt>
      <trkpt lat="47.37101" lon="6.49849">
        <ele>272.561</ele>
        <time>2015-10-03T09:06:54Z</time>
      </trkpt>
      <trkpt lat="47.37105" lon="6.49854">
        <ele>273.386</ele>
        <time>2015-10-03T09:06:55Z</time>
      </trkpt>
      <trkpt lat="47.37107" lon="6.49859">
        <ele>272.692</ele>
        <time>2015-10-03T09:06:56Z</time>
      </trkpt>
      <trkpt lat="47.37109" lon="6.49864">
        <ele>271.903</ele>
        <time>2015-10-03T09:06:57Z</time>
      </trkpt>
      <trkpt lat="47.37112" lon="6.49869">
        <ele>274.197</ele>
        <time>2015-10-03T09:06:58Z</time>
      </trkpt>
      <trkpt lat="47.37114" lon="6.49875">
        <ele>273.671</ele>
        <time>2015-10-03T09:06:59Z</time>
      </trkpt>
      <trkpt lat="47.37117" lon="6.4988">
        <ele>273.779</ele>
        <time>2015-10-03T09:07:00Z</time>
      </trkpt>
      <trkpt lat="47.37119" lon="6.49886">
        <ele>270.547</ele>
        <time>2015-10-03T09:07:01Z</time>
      </trkpt>
      <trkpt lat="47.37121" lon="6.49891">
        <ele>272.183</ele>
        <time>2015-10-03T09:07:02Z</time>
      </trkpt>
      <trkpt lat="47.37123" lon="6.49897">
        <ele>273.131</ele>
        <time>2015-10-03T09:07:03Z</time>
      </trkpt>
      <trkpt lat="47.37125" lon="6.49902">
        <ele>273.047</ele>
        <time>2015-10-03T09:07:04Z</time>
      </trkpt>
      <trkpt lat="47.37127" lon="6.49906">
        <ele>273.751</ele>
        <time>2015-10-03T09:07:05Z</time>
      </trkpt>
      <trkpt lat="47.37129" lon="6.49911">
        <ele>275.664</ele>
        <time>2015-10-03T09:07:06Z</time>
      </trkpt>
      <trkpt lat="47.37131" lon="6.49915">
        <ele>276.049</ele>
        <time>2015-10-03T09:07:07Z</time>
      </trkpt>
      <trkpt lat="47.37133" lon="6.49919">
        <ele>277.362</ele>
        <time>2015-10-03T09:07:08Z</time>
      </trkpt>
      <trkpt lat="47.37134" lon="6.49922">
        <ele>277.192</ele>
        <time>2015-10-03T09:07:09Z</time>
      </trkpt>
      <trkpt lat="47.37136" lon="6.49926">
        <ele>277.352</ele>
        <time>2015-10-03T09:07:10Z</time>
      </trkpt>
      <trkpt lat="47.37138" lon="6.49929">
        <ele>278.455</ele>
        <time>2015-10-03T09:07:11Z</time>
      </trkpt>
      <trkpt lat="47.3714" lon="6.49933">
        <ele>280.711</ele>
        <time>2015-10-03T09:07:12Z</time>
      </trkpt>
      <trkpt lat="47.37141" lon="6.49936">
        <ele>281.823</ele>
        <time>2015-10-03T09:07:13Z</time>
      </trkpt>
      <trkpt lat="47.37143" lon="6.49939">
        <ele>282.225</ele>
        <time>2015-10-03T09:07:14Z</time>
      </trkpt>
      <trkpt lat="47.37144" lon="6.49942">
        <ele>282.518</ele>
        <time>2015-10-03T09:07:15Z</time>
      </trkpt>
      <trkpt lat="47.37146" lon="6.49946">
        <ele>282.603</ele>
        <time>2015-10-03T09:07:16Z</time>
      </trkpt>
      <trkpt lat="47.37148" lon="6.49949">
        <ele>281.764</ele>
        <time>2015-10-03T09:07:17Z</time>
      </trkpt>
      <trkpt lat="47.3715" lon="6.49953">
        <ele>282.207</ele>
        <time>2015-10-03T09:07:18Z</time>
      </trkpt>
      <trkpt lat="47.37152" lon="6.49957">
        <ele>282.897</ele>
        <time>2015-10-03T09:07:19Z</time>
      </trkpt>
      <trkpt lat="47.37154" lon="6.4996">
        <ele>283.619</ele>
        <time>2015-10-03T09:07:20Z</time>
      </trkpt>
      <trkpt lat="47.37157" lon="6.49963">
        <ele>284.28</ele>
        <time>2015-10-03T09:07:21Z</time>
      </trkpt>
      <trkpt lat="47.37159" lon="6.49967">
        <ele>284.74</ele>
        <time>2015-10-03T09:07:22Z</time>
      </trkpt>
      <trkpt lat="47.37161" lon="6.4997">
        <ele>285.326</ele>
        <time>2015-10-03T09:07:23Z</time>
      </trkpt>
      <trkpt lat="47.37164" lon="6.49974">
        <ele>285.586</ele>
        <time>2015-10-03T09:07:24Z</time>
      </trkpt>
      <trkpt lat="47.37167" lon="6.49977">
        <ele>285.794</ele>
        <time>2015-10-03T09:07:25Z</time>
      </trkpt>
      <trkpt lat="47.37169" lon="6.4998">
        <ele>286.051</ele>
        <time>2015-10-03T09:07:26Z</time>
      </trkpt>
      <trkpt lat="47.37172" lon="6.49984">
        <ele>286.464</ele>
        <time>2015-10-03T09:07:27Z</time>
      </trkpt>
      <trkpt lat="47.37174" lon="6.49987">
        <ele>286.437</ele>
        <time>2015-10-03T09:07:28Z</time>
      </trkpt>
      <trkpt lat="47.37176" lon="6.4999">
        <ele>286.271</ele>
        <time>2015-10-03T09:07:29Z</time>
      </trkpt>
      <trkpt lat="47.37178" lon="6.49993">
        <ele>286.339</ele>
        <time>2015-10-03T09:07:30Z</time>
      </trkpt>
      <trkpt lat="47.3718" lon="6.49996">
        <ele>286.554</ele>
        <time>2015-10-03T09:07:31Z</time>
      </trkpt>
      <trkpt lat="47.37182" lon="6.49999">
        <ele>285.363</ele>
        <time>2015-10-03T09:07:32Z</time>
      </trkpt>
      <trkpt lat="47.37185" lon="6.50002">
        <ele>285.307</ele>
        <time>2015-10-03T09:07:33Z</time>
      </trkpt>
      <trkpt lat="47.37187" lon="6.50005">
        <ele>285.377</ele>
        <time>2015-10-03T09:07:34Z</time>
      </trkpt>
      <trkpt lat="47.37189" lon="6.50008">
        <ele>285.227</ele>
        <time>2015-10-03T09:07:35Z</time>
      </trkpt>
      <trkpt lat="47.37191" lon="6.5001">
        <ele>284.675</ele>
        <time>2015-10-03T09:07:36Z</time>
      </trkpt>
      <trkpt lat="47.37194" lon="6.50014">
        <ele>284.151</ele>
        <time>2015-10-03T09:07:37Z</time>
      </trkpt>
      <trkpt lat="47.37196" lon="6.50019">
        <ele>283.616</ele>
        <time>2015-10-03T09:07:38Z</time>
      </trkpt>
      <trkpt lat="47.37199" lon="6.50023">
        <ele>283.805</ele>
        <time>2015-10-03T09:07:39Z</time>
      </trkpt>
      <trkpt lat="47.37202" lon="6.50028">
        <ele>283.729</ele>
        <time>2015-10-03T09:07:40Z</time>
      </trkpt>
      <trkpt lat="47.37206" lon="6.50033">
        <ele>284.039</ele>
        <time>2015-10-03T09:07:41Z</time>
      </trkpt>
      <trkpt lat="47.3721" lon="6.50037">
        <ele>283.733</ele>
        <time>2015-10-03T09:07:42Z</time>
      </trkpt>
      <trkpt lat="47.37217" lon="6.50046">
        <ele>283.495</ele>
        <time>2015-10-03T09:07:43Z</time>
      </trkpt>
      <trkpt lat="47.37219" lon="6.50049">
        <ele>283.509</ele>
        <time>2015-10-03T09:07:44Z</time>
      </trkpt>
      <trkpt lat="47.37221" lon="6.50053">
        <ele>283.256</ele>
        <time>2015-10-03T09:07:45Z</time>
      </trkpt>
      <trkpt lat="47.37227" lon="6.50061">
        <ele>283.371</ele>
        <time>2015-10-03T09:07:46Z</time>
      </trkpt>
      <trkpt lat="47.37231" lon="6.50066">
        <ele>283.527</ele>
        <time>2015-10-03T09:07:47Z</time>
      </trkpt>
      <trkpt lat="47.37237" lon="6.50074">
        <ele>282.928</ele>
        <time>2015-10-03T09:07:48Z</time>
      </trkpt>
      <trkpt lat="47.37245" lon="6.50079">
        <ele>283.185</ele>
        <time>2015-10-03T09:07:49Z</time>
      </trkpt>
      <trkpt lat="47.3725" lon="6.50082">
        <ele>282.857</ele>
        <time>2015-10-03T09:07:50Z</time>
      </trkpt>
      <trkpt lat="47.37253" lon="6.50088">
        <ele>283.762</ele>
        <time>2015-10-03T09:07:51Z</time>
      </trkpt>
      <trkpt lat="47.37259" lon="6.50092">
        <ele>282.868</ele>
        <time>2015-10-03T09:07:52Z</time>
      </trkpt>
      <trkpt lat="47.37264" lon="6.50095">
        <ele>282.819</ele>
        <time>2015-10-03T09:07:53Z</time>
      </trkpt>
      <trkpt lat="47.37269" lon="6.50099">
        <ele>282.281</ele>
        <time>2015-10-03T09:07:54Z</time>
      </trkpt>
      <trkpt lat="47.37273" lon="6.50101">
        <ele>282.186</ele>
        <time>2015-10-03T09:07:55Z</time>
      </trkpt>
      <trkpt lat="47.37276" lon="6.50105">
        <ele>281.025</ele>
        <time>2015-10-03T09:07:56Z</time>
      </trkpt>
      <trkpt lat="47.37279" lon="6.50108">
        <ele>280.52</ele>
        <time>2015-10-03T09:07:57Z</time>
      </trkpt>
      <trkpt lat="47.37281" lon="6.50111">
        <ele>280.301</ele>
        <time>2015-10-03T09:07:58Z</time>
      </trkpt>
      <trkpt lat="47.37283" lon="6.50112">
        <ele>280.569</ele>
        <time>2015-10-03T09:07:59Z</time>
      </trkpt>
      <trkpt lat="47.37284" lon="6.50114">
        <ele>280.745</ele>
        <time>2015-10-03T09:08:00Z</time>
      </trkpt>
      <trkpt lat="47.37284" lon="6.50115">
        <ele>280.588</ele>
        <time>2015-10-03T09:08:01Z</time>
      </trkpt>
      <trkpt lat="47.37288" lon="6.50116">
        <ele>280.486</ele>
        <time>2015-10-03T09:08:02Z</time>
      </trkpt>
      <trkpt lat="47.37291" lon="6.50117">
        <ele>280.307</ele>
        <time>2015-10-03T09:08:03Z</time>
      </trkpt>
      <trkpt lat="47.37293" lon="6.50117">
        <ele>280.46</ele>
        <time>2015-10-03T09:08:04Z</time>
      </trkpt>
      <trkpt lat="47.37295" lon="6.50116">
        <ele>280.459</ele>
        <time>2015-10-03T09:08:05Z</time>
      </trkpt>
      <trkpt lat="47.37298" lon="6.50116">
        <ele>280.418</ele>
        <time>2015-10-03T09:08:06Z</time>
      </trkpt>
      <trkpt lat="47.373" lon="6.50116">
        <ele>280.651</ele>
        <time>2015-10-03T09:08:07Z</time>
      </trkpt>
      <trkpt lat="47.37304" lon="6.50117">
        <ele>280.719</ele>
        <time>2015-10-03T09:08:08Z</time>
      </trkpt>
      <trkpt lat="47.37308" lon="6.50119">
        <ele>280.669</ele>
        <time>2015-10-03T09:08:09Z</time>
      </trkpt>
      <trkpt lat="47.37312" lon="6.50121">
        <ele>280.632</ele>
        <time>2015-10-03T09:08:10Z</time>
      </trkpt>
      <trkpt lat="47.37318" lon="6.50123">
        <ele>280.813</ele>
        <time>2015-10-03T09:08:11Z</time>
      </trkpt>
      <trkpt lat="47.37323" lon="6.50125">
        <ele>281.101</ele>
        <time>2015-10-03T09:08:12Z</time>
      </trkpt>
      <trkpt lat="47.37328" lon="6.50126">
        <ele>281.593</ele>
        <time>2015-10-03T09:08:13Z</time>
      </trkpt>
      <trkpt lat="47.37333" lon="6.50128">
        <ele>280.989</ele>
        <time>2015-10-03T09:08:14Z</time>
      </trkpt>
      <trkpt lat="47.37339" lon="6.5013">
        <ele>280.78</ele>
        <time>2015-10-03T09:08:15Z</time>
      </trkpt>
      <trkpt lat="47.37343" lon="6.50132">
        <ele>280.81</ele>
        <time>2015-10-03T09:08:16Z</time>
      </trkpt>
      <trkpt lat="47.37347" lon="6.50133">
        <ele>280.918</ele>
        <time>2015-10-03T09:08:17Z</time>
      </trkpt>
      <trkpt lat="47.37351" lon="6.50135">
        <ele>280.972</ele>
        <time>2015-10-03T09:08:18Z</time>
      </trkpt>
      <trkpt lat="47.37356" lon="6.50137">
        <ele>281.071</ele>
        <time>2015-10-03T09:08:19Z</time>
      </trkpt>
      <trkpt lat="47.37361" lon="6.5014">
        <ele>280.478</ele>
        <time>2015-10-03T09:08:20Z</time>
      </trkpt>
      <trkpt lat="47.37369" lon="6.50146">
        <ele>280.241</ele>
        <time>2015-10-03T09:08:21Z</time>
      </trkpt>
      <trkpt lat="47.37374" lon="6.50146">
        <ele>280.314</ele>
        <time>2015-10-03T09:08:22Z</time>
      </trkpt>
      <trkpt lat="47.37379" lon="6.50148">
        <ele>280.382</ele>
        <time>2015-10-03T09:08:23Z</time>
      </trkpt>
      <trkpt lat="47.3739" lon="6.50161">
        <ele>277.51</ele>
        <time>2015-10-03T09:08:24Z</time>
      </trkpt>
      <trkpt lat="47.37396" lon="6.50163">
        <ele>277.409</ele>
        <time>2015-10-03T09:08:25Z</time>
      </trkpt>
      <trkpt lat="47.37401" lon="6.50165">
        <ele>277.132</ele>
        <time>2015-10-03T09:08:26Z</time>
      </trkpt>
      <trkpt lat="47.37407" lon="6.50166">
        <ele>276.768</ele>
        <time>2015-10-03T09:08:27Z</time>
      </trkpt>
      <trkpt lat="47.37411" lon="6.50169">
        <ele>276.62</ele>
        <time>2015-10-03T09:08:28Z</time>
      </trkpt>
      <trkpt lat="47.37416" lon="6.50172">
        <ele>276.577</ele>
        <time>2015-10-03T09:08:29Z</time>
      </trkpt>
      <trkpt lat="47.37421" lon="6.50176">
        <ele>276.44</ele>
        <time>2015-10-03T09:08:30Z</time>
      </trkpt>
      <trkpt lat="47.37424" lon="6.50181">
        <ele>276.675</ele>
        <time>2015-10-03T09:08:31Z</time>
      </trkpt>
      <trkpt lat="47.37429" lon="6.50181">
        <ele>277.971</ele>
        <time>2015-10-03T09:08:32Z</time>
      </trkpt>
      <trkpt lat="47.37432" lon="6.50185">
        <ele>279.397</ele>
        <time>2015-10-03T09:08:33Z</time>
      </trkpt>
      <trkpt lat="47.37438" lon="6.50193">
        <ele>276.908</ele>
        <time>2015-10-03T09:08:34Z</time>
      </trkpt>
      <trkpt lat="47.37442" lon="6.50193">
        <ele>277.592</ele>
        <time>2015-10-03T09:08:35Z</time>
      </trkpt>
      <trkpt lat="47.37447" lon="6.50197">
        <ele>277.065</ele>
        <time>2015-10-03T09:08:36Z</time>
      </trkpt>
      <trkpt lat="47.37451" lon="6.50198">
        <ele>278.556</ele>
        <time>2015-10-03T09:08:37Z</time>
      </trkpt>
      <trkpt lat="47.37457" lon="6.50198">
        <ele>277.958</ele>
        <time>2015-10-03T09:08:38Z</time>
      </trkpt>
      <trkpt lat="47.37463" lon="6.502">
        <ele>277.108</ele>
        <time>2015-10-03T09:08:39Z</time>
      </trkpt>
      <trkpt lat="47.37467" lon="6.50201">
        <ele>278.548</ele>
        <time>2015-10-03T09:08:40Z</time>
      </trkpt>
      <trkpt lat="47.37474" lon="6.5021">
        <ele>276.431</ele>
        <time>2015-10-03T09:08:41Z</time>
      </trkpt>
      <trkpt lat="47.37477" lon="6.50214">
        <ele>277.322</ele>
        <time>2015-10-03T09:08:42Z</time>
      </trkpt>
      <trkpt lat="47.37481" lon="6.50214">
        <ele>279.202</ele>
        <time>2015-10-03T09:08:43Z</time>
      </trkpt>
      <trkpt lat="47.37486" lon="6.50218">
        <ele>278.119</ele>
        <time>2015-10-03T09:08:44Z</time>
      </trkpt>
      <trkpt lat="47.37489" lon="6.50222">
        <ele>278.444</ele>
        <time>2015-10-03T09:08:45Z</time>
      </trkpt>
      <trkpt lat="47.37493" lon="6.50227">
        <ele>278.553</ele>
        <time>2015-10-03T09:08:46Z</time>
      </trkpt>
      <trkpt lat="47.37497" lon="6.5023">
        <ele>278.86</ele>
        <time>2015-10-03T09:08:47Z</time>
      </trkpt>
      <trkpt lat="47.37503" lon="6.50238">
        <ele>277.046</ele>
        <time>2015-10-03T09:08:48Z</time>
      </trkpt>
      <trkpt lat="47.37507" lon="6.50242">
        <ele>276.463</ele>
        <time>2015-10-03T09:08:49Z</time>
      </trkpt>
      <trkpt lat="47.37511" lon="6.50246">
        <ele>277.527</ele>
        <time>2015-10-03T09:08:50Z</time>
      </trkpt>
      <trkpt lat="47.37515" lon="6.5025">
        <ele>279.003</ele>
        <time>2015-10-03T09:08:51Z</time>
      </trkpt>
      <trkpt lat="47.3752" lon="6.50256">
        <ele>277.354</ele>
        <time>2015-10-03T09:08:52Z</time>
      </trkpt>
      <trkpt lat="47.37523" lon="6.50264">
        <ele>273.874</ele>
        <time>2015-10-03T09:08:53Z</time>
      </trkpt>
      <trkpt lat="47.37525" lon="6.50265">
        <ele>274.879</ele>
        <time>2015-10-03T09:08:54Z</time>
      </trkpt>
      <trkpt lat="47.37529" lon="6.50267">
        <ele>276.121</ele>
        <time>2015-10-03T09:08:55Z</time>
      </trkpt>
      <trkpt lat="47.37532" lon="6.5027">
        <ele>275.709</ele>
        <time>2015-10-03T09:08:56Z</time>
      </trkpt>
      <trkpt lat="47.37538" lon="6.50273">
        <ele>275.66</ele>
        <time>2015-10-03T09:08:57Z</time>
      </trkpt>
      <trkpt lat="47.37543" lon="6.50277">
        <ele>274.62</ele>
        <time>2015-10-03T09:08:58Z</time>
      </trkpt>
      <trkpt lat="47.37543" lon="6.50281">
        <ele>274.883</ele>
        <time>2015-10-03T09:08:59Z</time>
      </trkpt>
      <trkpt lat="47.37545" lon="6.50284">
        <ele>275.614</ele>
        <time>2015-10-03T09:09:00Z</time>
      </trkpt>
      <trkpt lat="47.37549" lon="6.50286">
        <ele>276.203</ele>
        <time>2015-10-03T09:09:01Z</time>
      </trkpt>
      <trkpt lat="47.37552" lon="6.5029">
        <ele>276.102</ele>
        <time>2015-10-03T09:09:02Z</time>
      </trkpt>
      <trkpt lat="47.37556" lon="6.50293">
        <ele>276.775</ele>
        <time>2015-10-03T09:09:03Z</time>
      </trkpt>
      <trkpt lat="47.37559" lon="6.50297">
        <ele>276.721</ele>
        <time>2015-10-03T09:09:04Z</time>
      </trkpt>
      <trkpt lat="47.37563" lon="6.50302">
        <ele>277.111</ele>
        <time>2015-10-03T09:09:05Z</time>
      </trkpt>
      <trkpt lat="47.37567" lon="6.50305">
        <ele>277.485</ele>
        <time>2015-10-03T09:09:06Z</time>
      </trkpt>
      <trkpt lat="47.37571" lon="6.50308">
        <ele>279.108</ele>
        <time>2015-10-03T09:09:07Z</time>
      </trkpt>
      <trkpt lat="47.3758" lon="6.50309">
        <ele>278.692</ele>
        <time>2015-10-03T09:09:08Z</time>
      </trkpt>
      <trkpt lat="47.37585" lon="6.50313">
        <ele>278.28</ele>
        <time>2015-10-03T09:09:09Z</time>
      </trkpt>
      <trkpt lat="47.37588" lon="6.50316">
        <ele>277.908</ele>
        <time>2015-10-03T09:09:10Z</time>
      </trkpt>
      <trkpt lat="47.37591" lon="6.50319">
        <ele>279.06</ele>
        <time>2015-10-03T09:09:11Z</time>
      </trkpt>
      <trkpt lat="47.37595" lon="6.50322">
        <ele>279.232</ele>
        <time>2015-10-03T09:09:12Z</time>
      </trkpt>
      <trkpt lat="47.376" lon="6.50325">
        <ele>279.089</ele>
        <time>2015-10-03T09:09:13Z</time>
      </trkpt>
      <trkpt lat="47.37605" lon="6.50329">
        <ele>278.538</ele>
        <time>2015-10-03T09:09:14Z</time>
      </trkpt>
      <trkpt lat="47.37609" lon="6.50332">
        <ele>279.594</ele>
        <time>2015-10-03T09:09:15Z</time>
      </trkpt>
      <trkpt lat="47.37613" lon="6.50335">
        <ele>280.653</ele>
        <time>2015-10-03T09:09:16Z</time>
      </trkpt>
      <trkpt lat="47.37619" lon="6.50339">
        <ele>280.617</ele>
        <time>2015-10-03T09:09:17Z</time>
      </trkpt>
      <trkpt lat="47.37623" lon="6.50342">
        <ele>282.467</ele>
        <time>2015-10-03T09:09:18Z</time>
      </trkpt>
      <trkpt lat="47.37627" lon="6.50345">
        <ele>283.447</ele>
        <time>2015-10-03T09:09:19Z</time>
      </trkpt>
      <trkpt lat="47.3763" lon="6.50348">
        <ele>284.031</ele>
        <time>2015-10-03T09:09:20Z</time>
      </trkpt>
      <trkpt lat="47.37634" lon="6.50351">
        <ele>284.472</ele>
        <time>2015-10-03T09:09:21Z</time>
      </trkpt>
      <trkpt lat="47.37638" lon="6.50356">
        <ele>284.173</ele>
        <time>2015-10-03T09:09:22Z</time>
      </trkpt>
      <trkpt lat="47.37643" lon="6.50361">
        <ele>283.069</ele>
        <time>2015-10-03T09:09:23Z</time>
      </trkpt>
      <trkpt lat="47.37646" lon="6.50368">
        <ele>282.046</ele>
        <time>2015-10-03T09:09:24Z</time>
      </trkpt>
      <trkpt lat="47.37651" lon="6.50368">
        <ele>282.054</ele>
        <time>2015-10-03T09:09:25Z</time>
      </trkpt>
      <trkpt lat="47.37657" lon="6.50369">
        <ele>281.712</ele>
        <time>2015-10-03T09:09:26Z</time>
      </trkpt>
      <trkpt lat="47.37661" lon="6.50373">
        <ele>281.86</ele>
        <time>2015-10-03T09:09:27Z</time>
      </trkpt>
      <trkpt lat="47.37665" lon="6.50376">
        <ele>281.979</ele>
        <time>2015-10-03T09:09:28Z</time>
      </trkpt>
      <trkpt lat="47.37669" lon="6.50377">
        <ele>282.871</ele>
        <time>2015-10-03T09:09:29Z</time>
      </trkpt>
      <trkpt lat="47.37673" lon="6.50379">
        <ele>283.199</ele>
        <time>2015-10-03T09:09:30Z</time>
      </trkpt>
      <trkpt lat="47.37677" lon="6.50383">
        <ele>283.556</ele>
        <time>2015-10-03T09:09:31Z</time>
      </trkpt>
      <trkpt lat="47.3768" lon="6.50386">
        <ele>284.898</ele>
        <time>2015-10-03T09:09:32Z</time>
      </trkpt>
      <trkpt lat="47.37685" lon="6.50388">
        <ele>283.742</ele>
        <time>2015-10-03T09:09:33Z</time>
      </trkpt>
      <trkpt lat="47.37689" lon="6.5039">
        <ele>283.879</ele>
        <time>2015-10-03T09:09:34Z</time>
      </trkpt>
      <trkpt lat="47.37694" lon="6.50391">
        <ele>283.613</ele>
        <time>2015-10-03T09:09:35Z</time>
      </trkpt>
      <trkpt lat="47.37698" lon="6.50393">
        <ele>283.83</ele>
        <time>2015-10-03T09:09:36Z</time>
      </trkpt>
      <trkpt lat="47.37701" lon="6.50393">
        <ele>285.302</ele>
        <time>2015-10-03T09:09:37Z</time>
      </trkpt>
      <trkpt lat="47.37707" lon="6.50398">
        <ele>283.673</ele>
        <time>2015-10-03T09:09:38Z</time>
      </trkpt>
      <trkpt lat="47.37711" lon="6.50399">
        <ele>283.857</ele>
        <time>2015-10-03T09:09:39Z</time>
      </trkpt>
      <trkpt lat="47.37715" lon="6.50401">
        <ele>284.142</ele>
        <time>2015-10-03T09:09:40Z</time>
      </trkpt>
      <trkpt lat="47.37718" lon="6.504">
        <ele>285.679</ele>
        <time>2015-10-03T09:09:41Z</time>
      </trkpt>
      <trkpt lat="47.37725" lon="6.50406">
        <ele>282.397</ele>
        <time>2015-10-03T09:09:42Z</time>
      </trkpt>
      <trkpt lat="47.37728" lon="6.50405">
        <ele>283.805</ele>
        <time>2015-10-03T09:09:43Z</time>
      </trkpt>
      <trkpt lat="47.37733" lon="6.50405">
        <ele>283.372</ele>
        <time>2015-10-03T09:09:44Z</time>
      </trkpt>
      <trkpt lat="47.37737" lon="6.50407">
        <ele>282.332</ele>
        <time>2015-10-03T09:09:45Z</time>
      </trkpt>
      <trkpt lat="47.37742" lon="6.50407">
        <ele>283.966</ele>
        <time>2015-10-03T09:09:46Z</time>
      </trkpt>
      <trkpt lat="47.37746" lon="6.50408">
        <ele>283.916</ele>
        <time>2015-10-03T09:09:47Z</time>
      </trkpt>
      <trkpt lat="47.3775" lon="6.5041">
        <ele>280.735</ele>
        <time>2015-10-03T09:09:48Z</time>
      </trkpt>
      <trkpt lat="47.37755" lon="6.50412">
        <ele>281.374</ele>
        <time>2015-10-03T09:09:49Z</time>
      </trkpt>
      <trkpt lat="47.37759" lon="6.50414">
        <ele>280.164</ele>
        <time>2015-10-03T09:09:50Z</time>
      </trkpt>
      <trkpt lat="47.37763" lon="6.50415">
        <ele>280.96</ele>
        <time>2015-10-03T09:09:51Z</time>
      </trkpt>
      <trkpt lat="47.37768" lon="6.50416">
        <ele>280.903</ele>
        <time>2015-10-03T09:09:52Z</time>
      </trkpt>
      <trkpt lat="47.37772" lon="6.50417">
        <ele>279.814</ele>
        <time>2015-10-03T09:09:53Z</time>
      </trkpt>
      <trkpt lat="47.37776" lon="6.50419">
        <ele>279.868</ele>
        <time>2015-10-03T09:09:54Z</time>
      </trkpt>
      <trkpt lat="47.37781" lon="6.50421">
        <ele>278.976</ele>
        <time>2015-10-03T09:09:55Z</time>
      </trkpt>
      <trkpt lat="47.37785" lon="6.50422">
        <ele>280.115</ele>
        <time>2015-10-03T09:09:56Z</time>
      </trkpt>
      <trkpt lat="47.37789" lon="6.50422">
        <ele>280.826</ele>
        <time>2015-10-03T09:09:57Z</time>
      </trkpt>
      <trkpt lat="47.37793" lon="6.50423">
        <ele>281.289</ele>
        <time>2015-10-03T09:09:58Z</time>
      </trkpt>
      <trkpt lat="47.37797" lon="6.50424">
        <ele>280.43</ele>
        <time>2015-10-03T09:09:59Z</time>
      </trkpt>
      <trkpt lat="47.37802" lon="6.50425">
        <ele>281.008</ele>
        <time>2015-10-03T09:10:00Z</time>
      </trkpt>
      <trkpt lat="47.37813" lon="6.50433">
        <ele>276.52</ele>
        <time>2015-10-03T09:10:01Z</time>
      </trkpt>
      <trkpt lat="47.37818" lon="6.50434">
        <ele>277.488</ele>
        <time>2015-10-03T09:10:02Z</time>
      </trkpt>
      <trkpt lat="47.37823" lon="6.50437">
        <ele>275.239</ele>
        <time>2015-10-03T09:10:03Z</time>
      </trkpt>
      <trkpt lat="47.37827" lon="6.50436">
        <ele>276.119</ele>
        <time>2015-10-03T09:10:04Z</time>
      </trkpt>
      <trkpt lat="47.37831" lon="6.50433">
        <ele>277.267</ele>
        <time>2015-10-03T09:10:05Z</time>
      </trkpt>
      <trkpt lat="47.37834" lon="6.50431">
        <ele>277.887</ele>
        <time>2015-10-03T09:10:06Z</time>
      </trkpt>
      <trkpt lat="47.37839" lon="6.50432">
        <ele>278.242</ele>
        <time>2015-10-03T09:10:07Z</time>
      </trkpt>
      <trkpt lat="47.37842" lon="6.50431">
        <ele>279.769</ele>
        <time>2015-10-03T09:10:08Z</time>
      </trkpt>
      <trkpt lat="47.37846" lon="6.50433">
        <ele>279.734</ele>
        <time>2015-10-03T09:10:09Z</time>
      </trkpt>
      <trkpt lat="47.37851" lon="6.50435">
        <ele>280.084</ele>
        <time>2015-10-03T09:10:10Z</time>
      </trkpt>
      <trkpt lat="47.37854" lon="6.50436">
        <ele>280.201</ele>
        <time>2015-10-03T09:10:11Z</time>
      </trkpt>
      <trkpt lat="47.37857" lon="6.50436">
        <ele>280.451</ele>
        <time>2015-10-03T09:10:12Z</time>
      </trkpt>
      <trkpt lat="47.37861" lon="6.50436">
        <ele>281.908</ele>
        <time>2015-10-03T09:10:13Z</time>
      </trkpt>
      <trkpt lat="47.37865" lon="6.50437">
        <ele>282.117</ele>
        <time>2015-10-03T09:10:14Z</time>
      </trkpt>
      <trkpt lat="47.37869" lon="6.50439">
        <ele>283.274</ele>
        <time>2015-10-03T09:10:15Z</time>
      </trkpt>
      <trkpt lat="47.37874" lon="6.50441">
        <ele>280.972</ele>
        <time>2015-10-03T09:10:16Z</time>
      </trkpt>
      <trkpt lat="47.37879" lon="6.50444">
        <ele>280.604</ele>
        <time>2015-10-03T09:10:17Z</time>
      </trkpt>
      <trkpt lat="47.37884" lon="6.50446">
        <ele>279.959</ele>
        <time>2015-10-03T09:10:18Z</time>
      </trkpt>
      <trkpt lat="47.37889" lon="6.50447">
        <ele>280.935</ele>
        <time>2015-10-03T09:10:19Z</time>
      </trkpt>
      <trkpt lat="47.37893" lon="6.50448">
        <ele>280.195</ele>
        <time>2015-10-03T09:10:20Z</time>
      </trkpt>
      <trkpt lat="47.37897" lon="6.50449">
        <ele>280.915</ele>
        <time>2015-10-03T09:10:21Z</time>
      </trkpt>
      <trkpt lat="47.37901" lon="6.5045">
        <ele>281.392</ele>
        <time>2015-10-03T09:10:22Z</time>
      </trkpt>
      <trkpt lat="47.37905" lon="6.5045">
        <ele>282.08</ele>
        <time>2015-10-03T09:10:23Z</time>
      </trkpt>
      <trkpt lat="47.37909" lon="6.50451">
        <ele>283.426</ele>
        <time>2015-10-03T09:10:24Z</time>
      </trkpt>
      <trkpt lat="47.37913" lon="6.50452">
        <ele>283.845</ele>
        <time>2015-10-03T09:10:25Z</time>
      </trkpt>
      <trkpt lat="47.37917" lon="6.50453">
        <ele>284.808</ele>
        <time>2015-10-03T09:10:26Z</time>
      </trkpt>
      <trkpt lat="47.3792" lon="6.50454">
        <ele>286.448</ele>
        <time>2015-10-03T09:10:27Z</time>
      </trkpt>
      <trkpt lat="47.37924" lon="6.50454">
        <ele>286.355</ele>
        <time>2015-10-03T09:10:28Z</time>
      </trkpt>
      <trkpt lat="47.37927" lon="6.50455">
        <ele>287.451</ele>
        <time>2015-10-03T09:10:29Z</time>
      </trkpt>
      <trkpt lat="47.37931" lon="6.50455">
        <ele>287.618</ele>
        <time>2015-10-03T09:10:30Z</time>
      </trkpt>
      <trkpt lat="47.37935" lon="6.50456">
        <ele>289.405</ele>
        <time>2015-10-03T09:10:31Z</time>
      </trkpt>
      <trkpt lat="47.3794" lon="6.50457">
        <ele>290.211</ele>
        <time>2015-10-03T09:10:32Z</time>
      </trkpt>
      <trkpt lat="47.37945" lon="6.50458">
        <ele>290.093</ele>
        <time>2015-10-03T09:10:33Z</time>
      </trkpt>
      <trkpt lat="47.3795" lon="6.50459">
        <ele>289.098</ele>
        <time>2015-10-03T09:10:34Z</time>
      </trkpt>
      <trkpt lat="47.37955" lon="6.50459">
        <ele>288.094</ele>
        <time>2015-10-03T09:10:35Z</time>
      </trkpt>
      <trkpt lat="47.3796" lon="6.50459">
        <ele>286.89</ele>
        <time>2015-10-03T09:10:36Z</time>
      </trkpt>
      <trkpt lat="47.37965" lon="6.5046">
        <ele>284.28</ele>
        <time>2015-10-03T09:10:37Z</time>
      </trkpt>
      <trkpt lat="47.3797" lon="6.50461">
        <ele>283.28</ele>
        <time>2015-10-03T09:10:38Z</time>
      </trkpt>
      <trkpt lat="47.37974" lon="6.50462">
        <ele>285.218</ele>
        <time>2015-10-03T09:10:39Z</time>
      </trkpt>
      <trkpt lat="47.37979" lon="6.50463">
        <ele>284.876</ele>
        <time>2015-10-03T09:10:40Z</time>
      </trkpt>
      <trkpt lat="47.37984" lon="6.50464">
        <ele>284.656</ele>
        <time>2015-10-03T09:10:41Z</time>
      </trkpt>
      <trkpt lat="47.37989" lon="6.50464">
        <ele>284.889</ele>
        <time>2015-10-03T09:10:42Z</time>
      </trkpt>
      <trkpt lat="47.37994" lon="6.50466">
        <ele>284.072</ele>
        <time>2015-10-03T09:10:43Z</time>
      </trkpt>
      <trkpt lat="47.37999" lon="6.50467">
        <ele>282.931</ele>
        <time>2015-10-03T09:10:44Z</time>
      </trkpt>
      <trkpt lat="47.38003" lon="6.50468">
        <ele>283.994</ele>
        <time>2015-10-03T09:10:45Z</time>
      </trkpt>
      <trkpt lat="47.38008" lon="6.50469">
        <ele>284.474</ele>
        <time>2015-10-03T09:10:46Z</time>
      </trkpt>
      <trkpt lat="47.38012" lon="6.50471">
        <ele>284.932</ele>
        <time>2015-10-03T09:10:47Z</time>
      </trkpt>
      <trkpt lat="47.38017" lon="6.50472">
        <ele>285.446</ele>
        <time>2015-10-03T09:10:48Z</time>
      </trkpt>
      <trkpt lat="47.38022" lon="6.50474">
        <ele>285.727</ele>
        <time>2015-10-03T09:10:49Z</time>
      </trkpt>
      <trkpt lat="47.38027" lon="6.50476">
        <ele>286.362</ele>
        <time>2015-10-03T09:10:50Z</time>
      </trkpt>
      <trkpt lat="47.38032" lon="6.50478">
        <ele>284.511</ele>
        <time>2015-10-03T09:10:51Z</time>
      </trkpt>
      <trkpt lat="47.38037" lon="6.50481">
        <ele>285.468</ele>
        <time>2015-10-03T09:10:52Z</time>
      </trkpt>
      <trkpt lat="47.38041" lon="6.50483">
        <ele>285.367</ele>
        <time>2015-10-03T09:10:53Z</time>
      </trkpt>
      <trkpt lat="47.38046" lon="6.50486">
        <ele>285.509</ele>
        <time>2015-10-03T09:10:54Z</time>
      </trkpt>
      <trkpt lat="47.38051" lon="6.50488">
        <ele>286.401</ele>
        <time>2015-10-03T09:10:55Z</time>
      </trkpt>
      <trkpt lat="47.38055" lon="6.5049">
        <ele>287.774</ele>
        <time>2015-10-03T09:10:56Z</time>
      </trkpt>
      <trkpt lat="47.38059" lon="6.50492">
        <ele>286.796</ele>
        <time>2015-10-03T09:10:57Z</time>
      </trkpt>
      <trkpt lat="47.38064" lon="6.50492">
        <ele>289.825</ele>
        <time>2015-10-03T09:10:58Z</time>
      </trkpt>
      <trkpt lat="47.38068" lon="6.50493">
        <ele>290.307</ele>
        <time>2015-10-03T09:10:59Z</time>
      </trkpt>
      <trkpt lat="47.38072" lon="6.50493">
        <ele>292.07</ele>
        <time>2015-10-03T09:11:00Z</time>
      </trkpt>
      <trkpt lat="47.38076" lon="6.50494">
        <ele>292.131</ele>
        <time>2015-10-03T09:11:01Z</time>
      </trkpt>
      <trkpt lat="47.3808" lon="6.50495">
        <ele>291.408</ele>
        <time>2015-10-03T09:11:02Z</time>
      </trkpt>
      <trkpt lat="47.38084" lon="6.50496">
        <ele>290.543</ele>
        <time>2015-10-03T09:11:03Z</time>
      </trkpt>
      <trkpt lat="47.38089" lon="6.50498">
        <ele>290.431</ele>
        <time>2015-10-03T09:11:04Z</time>
      </trkpt>
      <trkpt lat="47.38092" lon="6.50498">
        <ele>292.13</ele>
        <time>2015-10-03T09:11:05Z</time>
      </trkpt>
      <trkpt lat="47.38096" lon="6.50499">
        <ele>293.145</ele>
        <time>2015-10-03T09:11:06Z</time>
      </trkpt>
      <trkpt lat="47.381" lon="6.505">
        <ele>291.003</ele>
        <time>2015-10-03T09:11:07Z</time>
      </trkpt>
      <trkpt lat="47.38105" lon="6.50501">
        <ele>292.354</ele>
        <time>2015-10-03T09:11:08Z</time>
      </trkpt>
      <trkpt lat="47.3811" lon="6.50503">
        <ele>288.142</ele>
        <time>2015-10-03T09:11:09Z</time>
      </trkpt>
      <trkpt lat="47.38115" lon="6.50506">
        <ele>285.463</ele>
        <time>2015-10-03T09:11:10Z</time>
      </trkpt>
      <trkpt lat="47.38124" lon="6.50513">
        <ele>285.131</ele>
        <time>2015-10-03T09:11:11Z</time>
      </trkpt>
      <trkpt lat="47.38128" lon="6.50513">
        <ele>286.061</ele>
        <time>2015-10-03T09:11:12Z</time>
      </trkpt>
      <trkpt lat="47.38133" lon="6.50515">
        <ele>285.531</ele>
        <time>2015-10-03T09:11:13Z</time>
      </trkpt>
      <trkpt lat="47.38138" lon="6.50517">
        <ele>284.923</ele>
        <time>2015-10-03T09:11:14Z</time>
      </trkpt>
      <trkpt lat="47.38142" lon="6.50519">
        <ele>284.853</ele>
        <time>2015-10-03T09:11:15Z</time>
      </trkpt>
      <trkpt lat="47.38147" lon="6.50521">
        <ele>284.823</ele>
        <time>2015-10-03T09:11:16Z</time>
      </trkpt>
      <trkpt lat="47.38152" lon="6.50522">
        <ele>284.164</ele>
        <time>2015-10-03T09:11:17Z</time>
      </trkpt>
      <trkpt lat="47.38156" lon="6.50524">
        <ele>284.025</ele>
        <time>2015-10-03T09:11:18Z</time>
      </trkpt>
      <trkpt lat="47.38158" lon="6.50526">
        <ele>283.92</ele>
        <time>2015-10-03T09:11:19Z</time>
      </trkpt>
      <trkpt lat="47.38162" lon="6.50526">
        <ele>284.133</ele>
        <time>2015-10-03T09:11:20Z</time>
      </trkpt>
      <trkpt lat="47.38167" lon="6.50528">
        <ele>284.445</ele>
        <time>2015-10-03T09:11:21Z</time>
      </trkpt>
      <trkpt lat="47.38172" lon="6.50528">
        <ele>284.567</ele>
        <time>2015-10-03T09:11:22Z</time>
      </trkpt>
      <trkpt lat="47.38175" lon="6.50527">
        <ele>287.256</ele>
        <time>2015-10-03T09:11:23Z</time>
      </trkpt>
      <trkpt lat="47.38179" lon="6.50526">
        <ele>287.546</ele>
        <time>2015-10-03T09:11:24Z</time>
      </trkpt>
      <trkpt lat="47.38183" lon="6.50526">
        <ele>288.147</ele>
        <time>2015-10-03T09:11:25Z</time>
      </trkpt>
      <trkpt lat="47.38188" lon="6.50526">
        <ele>288.467</ele>
        <time>2015-10-03T09:11:26Z</time>
      </trkpt>
      <trkpt lat="47.38192" lon="6.50526">
        <ele>288.591</ele>
        <time>2015-10-03T09:11:27Z</time>
      </trkpt>
      <trkpt lat="47.38197" lon="6.50525">
        <ele>288.373</ele>
        <time>2015-10-03T09:11:28Z</time>
      </trkpt>
      <trkpt lat="47.38202" lon="6.50526">
        <ele>287.817</ele>
        <time>2015-10-03T09:11:29Z</time>
      </trkpt>
      <trkpt lat="47.38205" lon="6.50525">
        <ele>288.726</ele>
        <time>2015-10-03T09:11:30Z</time>
      </trkpt>
      <trkpt lat="47.38209" lon="6.50524">
        <ele>289.099</ele>
        <time>2015-10-03T09:11:31Z</time>
      </trkpt>
      <trkpt lat="47.38215" lon="6.50525">
        <ele>289.525</ele>
        <time>2015-10-03T09:11:32Z</time>
      </trkpt>
      <trkpt lat="47.38219" lon="6.50525">
        <ele>288.889</ele>
        <time>2015-10-03T09:11:33Z</time>
      </trkpt>
      <trkpt lat="47.38225" lon="6.50525">
        <ele>285.779</ele>
        <time>2015-10-03T09:11:34Z</time>
      </trkpt>
      <trkpt lat="47.3823" lon="6.50525">
        <ele>286.432</ele>
        <time>2015-10-03T09:11:35Z</time>
      </trkpt>
      <trkpt lat="47.38236" lon="6.50526">
        <ele>286.773</ele>
        <time>2015-10-03T09:11:36Z</time>
      </trkpt>
      <trkpt lat="47.3824" lon="6.50525">
        <ele>287.75</ele>
        <time>2015-10-03T09:11:37Z</time>
      </trkpt>
      <trkpt lat="47.38245" lon="6.50525">
        <ele>288.092</ele>
        <time>2015-10-03T09:11:38Z</time>
      </trkpt>
      <trkpt lat="47.38249" lon="6.50525">
        <ele>288.087</ele>
        <time>2015-10-03T09:11:39Z</time>
      </trkpt>
      <trkpt lat="47.38254" lon="6.50524">
        <ele>288.735</ele>
        <time>2015-10-03T09:11:40Z</time>
      </trkpt>
      <trkpt lat="47.38258" lon="6.50523">
        <ele>288.981</ele>
        <time>2015-10-03T09:11:41Z</time>
      </trkpt>
      <trkpt lat="47.38263" lon="6.50523">
        <ele>288.901</ele>
        <time>2015-10-03T09:11:42Z</time>
      </trkpt>
      <trkpt lat="47.38267" lon="6.50521">
        <ele>289.644</ele>
        <time>2015-10-03T09:11:43Z</time>
      </trkpt>
      <trkpt lat="47.38272" lon="6.50522">
        <ele>288.746</ele>
        <time>2015-10-03T09:11:44Z</time>
      </trkpt>
      <trkpt lat="47.38275" lon="6.50522">
        <ele>288.678</ele>
        <time>2015-10-03T09:11:45Z</time>
      </trkpt>
      <trkpt lat="47.3828" lon="6.50522">
        <ele>288.5</ele>
        <time>2015-10-03T09:11:46Z</time>
      </trkpt>
      <trkpt lat="47.38285" lon="6.50522">
        <ele>288.375</ele>
        <time>2015-10-03T09:11:47Z</time>
      </trkpt>
      <trkpt lat="47.3829" lon="6.50524">
        <ele>287.083</ele>
        <time>2015-10-03T09:11:48Z</time>
      </trkpt>
      <trkpt lat="47.38295" lon="6.50525">
        <ele>286.38</ele>
        <time>2015-10-03T09:11:49Z</time>
      </trkpt>
      <trkpt lat="47.38299" lon="6.50524">
        <ele>286.2</ele>
        <time>2015-10-03T09:11:50Z</time>
      </trkpt>
      <trkpt lat="47.38303" lon="6.50525">
        <ele>286.566</ele>
        <time>2015-10-03T09:11:51Z</time>
      </trkpt>
      <trkpt lat="47.38306" lon="6.50529">
        <ele>285.235</ele>
        <time>2015-10-03T09:11:52Z</time>
      </trkpt>
      <trkpt lat="47.38309" lon="6.50534">
        <ele>284.973</ele>
        <time>2015-10-03T09:11:53Z</time>
      </trkpt>
      <trkpt lat="47.38312" lon="6.50538">
        <ele>284.264</ele>
        <time>2015-10-03T09:11:54Z</time>
      </trkpt>
      <trkpt lat="47.38316" lon="6.50541">
        <ele>284.916</ele>
        <time>2015-10-03T09:11:55Z</time>
      </trkpt>
      <trkpt lat="47.38319" lon="6.50543">
        <ele>285.846</ele>
        <time>2015-10-03T09:11:56Z</time>
      </trkpt>
      <trkpt lat="47.38322" lon="6.50543">
        <ele>286.392</ele>
        <time>2015-10-03T09:11:57Z</time>
      </trkpt>
      <trkpt lat="47.38325" lon="6.50542">
        <ele>286.346</ele>
        <time>2015-10-03T09:11:58Z</time>
      </trkpt>
      <trkpt lat="47.38328" lon="6.50539">
        <ele>286.331</ele>
        <time>2015-10-03T09:11:59Z</time>
      </trkpt>
      <trkpt lat="47.38333" lon="6.50535">
        <ele>286.526</ele>
        <time>2015-10-03T09:12:00Z</time>
      </trkpt>
      <trkpt lat="47.38341" lon="6.50518">
        <ele>285.913</ele>
        <time>2015-10-03T09:12:01Z</time>
      </trkpt>
      <trkpt lat="47.38345" lon="6.5051">
        <ele>287.578</ele>
        <time>2015-10-03T09:12:02Z</time>
      </trkpt>
      <trkpt lat="47.3835" lon="6.50504">
        <ele>287.531</ele>
        <time>2015-10-03T09:12:03Z</time>
      </trkpt>
      <trkpt lat="47.38354" lon="6.50501">
        <ele>287.466</ele>
        <time>2015-10-03T09:12:04Z</time>
      </trkpt>
      <trkpt lat="47.38357" lon="6.50494">
        <ele>287.147</ele>
        <time>2015-10-03T09:12:05Z</time>
      </trkpt>
      <trkpt lat="47.3836" lon="6.5049">
        <ele>288.137</ele>
        <time>2015-10-03T09:12:06Z</time>
      </trkpt>
      <trkpt lat="47.38365" lon="6.5049">
        <ele>286.813</ele>
        <time>2015-10-03T09:12:07Z</time>
      </trkpt>
      <trkpt lat="47.38369" lon="6.50488">
        <ele>288.333</ele>
        <time>2015-10-03T09:12:08Z</time>
      </trkpt>
      <trkpt lat="47.38372" lon="6.50485">
        <ele>289.148</ele>
        <time>2015-10-03T09:12:09Z</time>
      </trkpt>
      <trkpt lat="47.38377" lon="6.50487">
        <ele>287.127</ele>
        <time>2015-10-03T09:12:10Z</time>
      </trkpt>
      <trkpt lat="47.38382" lon="6.50483">
        <ele>287.144</ele>
        <time>2015-10-03T09:12:11Z</time>
      </trkpt>
      <trkpt lat="47.38385" lon="6.50478">
        <ele>288.125</ele>
        <time>2015-10-03T09:12:12Z</time>
      </trkpt>
      <trkpt lat="47.38389" lon="6.50478">
        <ele>286.228</ele>
        <time>2015-10-03T09:12:13Z</time>
      </trkpt>
      <trkpt lat="47.38393" lon="6.50476">
        <ele>287.499</ele>
        <time>2015-10-03T09:12:14Z</time>
      </trkpt>
      <trkpt lat="47.38397" lon="6.50474">
        <ele>288.546</ele>
        <time>2015-10-03T09:12:15Z</time>
      </trkpt>
      <trkpt lat="47.38401" lon="6.50472">
        <ele>288.191</ele>
        <time>2015-10-03T09:12:16Z</time>
      </trkpt>
      <trkpt lat="47.38405" lon="6.5047">
        <ele>289.345</ele>
        <time>2015-10-03T09:12:17Z</time>
      </trkpt>
      <trkpt lat="47.3841" lon="6.50467">
        <ele>288.869</ele>
        <time>2015-10-03T09:12:18Z</time>
      </trkpt>
      <trkpt lat="47.38414" lon="6.50464">
        <ele>288.89</ele>
        <time>2015-10-03T09:12:19Z</time>
      </trkpt>
      <trkpt lat="47.38418" lon="6.50461">
        <ele>288.575</ele>
        <time>2015-10-03T09:12:20Z</time>
      </trkpt>
      <trkpt lat="47.38422" lon="6.50458">
        <ele>288.942</ele>
        <time>2015-10-03T09:12:21Z</time>
      </trkpt>
      <trkpt lat="47.38427" lon="6.50456">
        <ele>288.868</ele>
        <time>2015-10-03T09:12:22Z</time>
      </trkpt>
      <trkpt lat="47.38431" lon="6.50455">
        <ele>289.302</ele>
        <time>2015-10-03T09:12:23Z</time>
      </trkpt>
      <trkpt lat="47.38435" lon="6.50453">
        <ele>289.817</ele>
        <time>2015-10-03T09:12:24Z</time>
      </trkpt>
      <trkpt lat="47.38439" lon="6.50452">
        <ele>289.805</ele>
        <time>2015-10-03T09:12:25Z</time>
      </trkpt>
      <trkpt lat="47.38442" lon="6.50451">
        <ele>289.279</ele>
        <time>2015-10-03T09:12:26Z</time>
      </trkpt>
      <trkpt lat="47.38445" lon="6.50451">
        <ele>289.979</ele>
        <time>2015-10-03T09:12:27Z</time>
      </trkpt>
      <trkpt lat="47.38448" lon="6.50452">
        <ele>289.824</ele>
        <time>2015-10-03T09:12:28Z</time>
      </trkpt>
      <trkpt lat="47.38451" lon="6.50453">
        <ele>290.036</ele>
        <time>2015-10-03T09:12:29Z</time>
      </trkpt>
      <trkpt lat="47.38455" lon="6.50452">
        <ele>289.778</ele>
        <time>2015-10-03T09:12:30Z</time>
      </trkpt>
      <trkpt lat="47.38458" lon="6.50451">
        <ele>289.98</ele>
        <time>2015-10-03T09:12:31Z</time>
      </trkpt>
      <trkpt lat="47.38461" lon="6.5045">
        <ele>289.776</ele>
        <time>2015-10-03T09:12:32Z</time>
      </trkpt>
      <trkpt lat="47.38464" lon="6.50447">
        <ele>290.936</ele>
        <time>2015-10-03T09:12:33Z</time>
      </trkpt>
      <trkpt lat="47.38466" lon="6.50445">
        <ele>292.158</ele>
        <time>2015-10-03T09:12:34Z</time>
      </trkpt>
      <trkpt lat="47.38469" lon="6.50442">
        <ele>293.684</ele>
        <time>2015-10-03T09:12:35Z</time>
      </trkpt>
      <trkpt lat="47.38472" lon="6.5044">
        <ele>291.432</ele>
        <time>2015-10-03T09:12:36Z</time>
      </trkpt>
      <trkpt lat="47.38475" lon="6.50437">
        <ele>289.867</ele>
        <time>2015-10-03T09:12:37Z</time>
      </trkpt>
      <trkpt lat="47.38479" lon="6.50435">
        <ele>289.232</ele>
        <time>2015-10-03T09:12:38Z</time>
      </trkpt>
      <trkpt lat="47.38482" lon="6.50434">
        <ele>288.473</ele>
        <time>2015-10-03T09:12:39Z</time>
      </trkpt>
      <trkpt lat="47.38486" lon="6.50432">
        <ele>289.506</ele>
        <time>2015-10-03T09:12:40Z</time>
      </trkpt>
      <trkpt lat="47.38489" lon="6.5043">
        <ele>289.107</ele>
        <time>2015-10-03T09:12:41Z</time>
      </trkpt>
      <trkpt lat="47.38491" lon="6.50428">
        <ele>289.681</ele>
        <time>2015-10-03T09:12:42Z</time>
      </trkpt>
      <trkpt lat="47.38494" lon="6.50426">
        <ele>288.99</ele>
        <time>2015-10-03T09:12:43Z</time>
      </trkpt>
      <trkpt lat="47.38497" lon="6.50424">
        <ele>290.32</ele>
        <time>2015-10-03T09:12:44Z</time>
      </trkpt>
      <trkpt lat="47.38499" lon="6.50423">
        <ele>290.245</ele>
        <time>2015-10-03T09:12:45Z</time>
      </trkpt>
      <trkpt lat="47.38501" lon="6.50421">
        <ele>291.002</ele>
        <time>2015-10-03T09:12:46Z</time>
      </trkpt>
      <trkpt lat="47.38504" lon="6.50419">
        <ele>291.255</ele>
        <time>2015-10-03T09:12:47Z</time>
      </trkpt>
      <trkpt lat="47.38507" lon="6.50417">
        <ele>290.896</ele>
        <time>2015-10-03T09:12:48Z</time>
      </trkpt>
      <trkpt lat="47.3851" lon="6.50415">
        <ele>290.989</ele>
        <time>2015-10-03T09:12:49Z</time>
      </trkpt>
      <trkpt lat="47.38513" lon="6.50413">
        <ele>288.365</ele>
        <time>2015-10-03T09:12:50Z</time>
      </trkpt>
      <trkpt lat="47.38516" lon="6.50412">
        <ele>287.619</ele>
        <time>2015-10-03T09:12:51Z</time>
      </trkpt>
      <trkpt lat="47.38518" lon="6.50411">
        <ele>289.323</ele>
        <time>2015-10-03T09:12:52Z</time>
      </trkpt>
      <trkpt lat="47.38521" lon="6.5041">
        <ele>289.882</ele>
        <time>2015-10-03T09:12:53Z</time>
      </trkpt>
      <trkpt lat="47.38523" lon="6.50409">
        <ele>289.836</ele>
        <time>2015-10-03T09:12:54Z</time>
      </trkpt>
      <trkpt lat="47.38526" lon="6.50408">
        <ele>290.996</ele>
        <time>2015-10-03T09:12:55Z</time>
      </trkpt>
      <trkpt lat="47.38529" lon="6.50406">
        <ele>291.388</ele>
        <time>2015-10-03T09:12:56Z</time>
      </trkpt>
      <trkpt lat="47.38531" lon="6.50404">
        <ele>292.316</ele>
        <time>2015-10-03T09:12:57Z</time>
      </trkpt>
      <trkpt lat="47.38534" lon="6.50402">
        <ele>291.677</ele>
        <time>2015-10-03T09:12:58Z</time>
      </trkpt>
      <trkpt lat="47.38537" lon="6.504">
        <ele>291.7</ele>
        <time>2015-10-03T09:12:59Z</time>
      </trkpt>
      <trkpt lat="47.3854" lon="6.50398">
        <ele>290.392</ele>
        <time>2015-10-03T09:13:00Z</time>
      </trkpt>
      <trkpt lat="47.38542" lon="6.50395">
        <ele>290.651</ele>
        <time>2015-10-03T09:13:01Z</time>
      </trkpt>
      <trkpt lat="47.38545" lon="6.50393">
        <ele>291.441</ele>
        <time>2015-10-03T09:13:02Z</time>
      </trkpt>
      <trkpt lat="47.38547" lon="6.50391">
        <ele>292.103</ele>
        <time>2015-10-03T09:13:03Z</time>
      </trkpt>
      <trkpt lat="47.38549" lon="6.50389">
        <ele>291.819</ele>
        <time>2015-10-03T09:13:04Z</time>
      </trkpt>
      <trkpt lat="47.38551" lon="6.50388">
        <ele>294.073</ele>
        <time>2015-10-03T09:13:05Z</time>
      </trkpt>
      <trkpt lat="47.38553" lon="6.50387">
        <ele>293.206</ele>
        <time>2015-10-03T09:13:06Z</time>
      </trkpt>
      <trkpt lat="47.38555" lon="6.50386">
        <ele>293.654</ele>
        <time>2015-10-03T09:13:07Z</time>
      </trkpt>
      <trkpt lat="47.38558" lon="6.50384">
        <ele>293.182</ele>
        <time>2015-10-03T09:13:08Z</time>
      </trkpt>
      <trkpt lat="47.3856" lon="6.50383">
        <ele>293.336</ele>
        <time>2015-10-03T09:13:09Z</time>
      </trkpt>
      <trkpt lat="47.38563" lon="6.50381">
        <ele>292.263</ele>
        <time>2015-10-03T09:13:10Z</time>
      </trkpt>
      <trkpt lat="47.38566" lon="6.5038">
        <ele>292.524</ele>
        <time>2015-10-03T09:13:11Z</time>
      </trkpt>
      <trkpt lat="47.38569" lon="6.50377">
        <ele>291.85</ele>
        <time>2015-10-03T09:13:12Z</time>
      </trkpt>
      <trkpt lat="47.38571" lon="6.50376">
        <ele>292.862</ele>
        <time>2015-10-03T09:13:13Z</time>
      </trkpt>
      <trkpt lat="47.38573" lon="6.50375">
        <ele>293.221</ele>
        <time>2015-10-03T09:13:14Z</time>
      </trkpt>
      <trkpt lat="47.38575" lon="6.50374">
        <ele>292.846</ele>
        <time>2015-10-03T09:13:15Z</time>
      </trkpt>
      <trkpt lat="47.38578" lon="6.50373">
        <ele>292.993</ele>
        <time>2015-10-03T09:13:16Z</time>
      </trkpt>
      <trkpt lat="47.3858" lon="6.50373">
        <ele>292.678</ele>
        <time>2015-10-03T09:13:17Z</time>
      </trkpt>
      <trkpt lat="47.38582" lon="6.50372">
        <ele>294.104</ele>
        <time>2015-10-03T09:13:18Z</time>
      </trkpt>
      <trkpt lat="47.38585" lon="6.50372">
        <ele>294.222</ele>
        <time>2015-10-03T09:13:19Z</time>
      </trkpt>
      <trkpt lat="47.38587" lon="6.50372">
        <ele>292.305</ele>
        <time>2015-10-03T09:13:20Z</time>
      </trkpt>
      <trkpt lat="47.3859" lon="6.50371">
        <ele>292.031</ele>
        <time>2015-10-03T09:13:21Z</time>
      </trkpt>
      <trkpt lat="47.38592" lon="6.50371">
        <ele>291.692</ele>
        <time>2015-10-03T09:13:22Z</time>
      </trkpt>
      <trkpt lat="47.38595" lon="6.50371">
        <ele>291.36</ele>
        <time>2015-10-03T09:13:23Z</time>
      </trkpt>
      <trkpt lat="47.38598" lon="6.50369">
        <ele>291.447</ele>
        <time>2015-10-03T09:13:24Z</time>
      </trkpt>
      <trkpt lat="47.38601" lon="6.50367">
        <ele>291.675</ele>
        <time>2015-10-03T09:13:25Z</time>
      </trkpt>
      <trkpt lat="47.38603" lon="6.50366">
        <ele>292.086</ele>
        <time>2015-10-03T09:13:26Z</time>
      </trkpt>
      <trkpt lat="47.38606" lon="6.50364">
        <ele>291.893</ele>
        <time>2015-10-03T09:13:27Z</time>
      </trkpt>
      <trkpt lat="47.38609" lon="6.50362">
        <ele>291.71</ele>
        <time>2015-10-03T09:13:28Z</time>
      </trkpt>
      <trkpt lat="47.38613" lon="6.5036">
        <ele>291.904</ele>
        <time>2015-10-03T09:13:29Z</time>
      </trkpt>
      <trkpt lat="47.38616" lon="6.50358">
        <ele>290.806</ele>
        <time>2015-10-03T09:13:30Z</time>
      </trkpt>
      <trkpt lat="47.38619" lon="6.50356">
        <ele>290.458</ele>
        <time>2015-10-03T09:13:31Z</time>
      </trkpt>
      <trkpt lat="47.38621" lon="6.50354">
        <ele>289.883</ele>
        <time>2015-10-03T09:13:32Z</time>
      </trkpt>
      <trkpt lat="47.38625" lon="6.50353">
        <ele>288.485</ele>
        <time>2015-10-03T09:13:33Z</time>
      </trkpt>
      <trkpt lat="47.38628" lon="6.50351">
        <ele>289.872</ele>
        <time>2015-10-03T09:13:34Z</time>
      </trkpt>
      <trkpt lat="47.3863" lon="6.50349">
        <ele>290.785</ele>
        <time>2015-10-03T09:13:35Z</time>
      </trkpt>
      <trkpt lat="47.38633" lon="6.50348">
        <ele>290.842</ele>
        <time>2015-10-03T09:13:36Z</time>
      </trkpt>
      <trkpt lat="47.38635" lon="6.50347">
        <ele>291.165</ele>
        <time>2015-10-03T09:13:37Z</time>
      </trkpt>
      <trkpt lat="47.38636" lon="6.50347">
        <ele>291.226</ele>
        <time>2015-10-03T09:13:38Z</time>
      </trkpt>
      <trkpt lat="47.38638" lon="6.50347">
        <ele>290.603</ele>
        <time>2015-10-03T09:13:39Z</time>
      </trkpt>
      <trkpt lat="47.38641" lon="6.50347">
        <ele>291.087</ele>
        <time>2015-10-03T09:13:40Z</time>
      </trkpt>
      <trkpt lat="47.38644" lon="6.50345">
        <ele>291.819</ele>
        <time>2015-10-03T09:13:41Z</time>
      </trkpt>
      <trkpt lat="47.38646" lon="6.50344">
        <ele>290.851</ele>
        <time>2015-10-03T09:13:42Z</time>
      </trkpt>
      <trkpt lat="47.38649" lon="6.50342">
        <ele>290.385</ele>
        <time>2015-10-03T09:13:43Z</time>
      </trkpt>
      <trkpt lat="47.38651" lon="6.50341">
        <ele>291.216</ele>
        <time>2015-10-03T09:13:44Z</time>
      </trkpt>
      <trkpt lat="47.38653" lon="6.50339">
        <ele>291.697</ele>
        <time>2015-10-03T09:13:45Z</time>
      </trkpt>
      <trkpt lat="47.38655" lon="6.50338">
        <ele>291.383</ele>
        <time>2015-10-03T09:13:46Z</time>
      </trkpt>
      <trkpt lat="47.38657" lon="6.50337">
        <ele>292.443</ele>
        <time>2015-10-03T09:13:47Z</time>
      </trkpt>
      <trkpt lat="47.38658" lon="6.50335">
        <ele>296.122</ele>
        <time>2015-10-03T09:13:48Z</time>
      </trkpt>
      <trkpt lat="47.3866" lon="6.50332">
        <ele>295.106</ele>
        <time>2015-10-03T09:13:49Z</time>
      </trkpt>
      <trkpt lat="47.38662" lon="6.50328">
        <ele>296.355</ele>
        <time>2015-10-03T09:13:50Z</time>
      </trkpt>
      <trkpt lat="47.38664" lon="6.50326">
        <ele>296.381</ele>
        <time>2015-10-03T09:13:51Z</time>
      </trkpt>
      <trkpt lat="47.38667" lon="6.50323">
        <ele>296.792</ele>
        <time>2015-10-03T09:13:52Z</time>
      </trkpt>
      <trkpt lat="47.38669" lon="6.5032">
        <ele>296.719</ele>
        <time>2015-10-03T09:13:53Z</time>
      </trkpt>
      <trkpt lat="47.38672" lon="6.50317">
        <ele>296.859</ele>
        <time>2015-10-03T09:13:54Z</time>
      </trkpt>
      <trkpt lat="47.38675" lon="6.50314">
        <ele>297.011</ele>
        <time>2015-10-03T09:13:55Z</time>
      </trkpt>
      <trkpt lat="47.38677" lon="6.50312">
        <ele>297.685</ele>
        <time>2015-10-03T09:13:56Z</time>
      </trkpt>
      <trkpt lat="47.3868" lon="6.5031">
        <ele>297.725</ele>
        <time>2015-10-03T09:13:57Z</time>
      </trkpt>
      <trkpt lat="47.38682" lon="6.50308">
        <ele>296.073</ele>
        <time>2015-10-03T09:13:58Z</time>
      </trkpt>
      <trkpt lat="47.38685" lon="6.50305">
        <ele>295.995</ele>
        <time>2015-10-03T09:13:59Z</time>
      </trkpt>
      <trkpt lat="47.38688" lon="6.50303">
        <ele>295.98</ele>
        <time>2015-10-03T09:14:00Z</time>
      </trkpt>
      <trkpt lat="47.3869" lon="6.50301">
        <ele>296.099</ele>
        <time>2015-10-03T09:14:01Z</time>
      </trkpt>
      <trkpt lat="47.38693" lon="6.50299">
        <ele>297.089</ele>
        <time>2015-10-03T09:14:02Z</time>
      </trkpt>
      <trkpt lat="47.38695" lon="6.50296">
        <ele>297.754</ele>
        <time>2015-10-03T09:14:03Z</time>
      </trkpt>
      <trkpt lat="47.38697" lon="6.50294">
        <ele>297.946</ele>
        <time>2015-10-03T09:14:04Z</time>
      </trkpt>
      <trkpt lat="47.387" lon="6.50291">
        <ele>298.668</ele>
        <time>2015-10-03T09:14:05Z</time>
      </trkpt>
      <trkpt lat="47.38702" lon="6.50288">
        <ele>297.864</ele>
        <time>2015-10-03T09:14:06Z</time>
      </trkpt>
      <trkpt lat="47.38705" lon="6.50285">
        <ele>297.933</ele>
        <time>2015-10-03T09:14:07Z</time>
      </trkpt>
      <trkpt lat="47.38707" lon="6.50282">
        <ele>297.987</ele>
        <time>2015-10-03T09:14:08Z</time>
      </trkpt>
      <trkpt lat="47.3871" lon="6.50279">
        <ele>297.97</ele>
        <time>2015-10-03T09:14:09Z</time>
      </trkpt>
      <trkpt lat="47.38712" lon="6.50277">
        <ele>298.666</ele>
        <time>2015-10-03T09:14:10Z</time>
      </trkpt>
      <trkpt lat="47.38714" lon="6.50275">
        <ele>299.369</ele>
        <time>2015-10-03T09:14:11Z</time>
      </trkpt>
      <trkpt lat="47.38716" lon="6.50273">
        <ele>300.144</ele>
        <time>2015-10-03T09:14:12Z</time>
      </trkpt>
      <trkpt lat="47.38719" lon="6.50271">
        <ele>299.922</ele>
        <time>2015-10-03T09:14:13Z</time>
      </trkpt>
      <trkpt lat="47.38721" lon="6.50269">
        <ele>300.808</ele>
        <time>2015-10-03T09:14:14Z</time>
      </trkpt>
      <trkpt lat="47.38723" lon="6.50267">
        <ele>301.069</ele>
        <time>2015-10-03T09:14:15Z</time>
      </trkpt>
      <trkpt lat="47.38725" lon="6.50265">
        <ele>299.791</ele>
        <time>2015-10-03T09:14:16Z</time>
      </trkpt>
      <trkpt lat="47.38728" lon="6.50264">
        <ele>299.716</ele>
        <time>2015-10-03T09:14:17Z</time>
      </trkpt>
      <trkpt lat="47.3873" lon="6.50263">
        <ele>299.445</ele>
        <time>2015-10-03T09:14:18Z</time>
      </trkpt>
      <trkpt lat="47.38733" lon="6.50261">
        <ele>298.099</ele>
        <time>2015-10-03T09:14:19Z</time>
      </trkpt>
      <trkpt lat="47.38736" lon="6.50259">
        <ele>299.525</ele>
        <time>2015-10-03T09:14:20Z</time>
      </trkpt>
      <trkpt lat="47.38739" lon="6.50258">
        <ele>299.625</ele>
        <time>2015-10-03T09:14:21Z</time>
      </trkpt>
      <trkpt lat="47.38741" lon="6.50256">
        <ele>300.805</ele>
        <time>2015-10-03T09:14:22Z</time>
      </trkpt>
      <trkpt lat="47.38743" lon="6.50255">
        <ele>302.121</ele>
        <time>2015-10-03T09:14:23Z</time>
      </trkpt>
      <trkpt lat="47.38745" lon="6.50254">
        <ele>304.11</ele>
        <time>2015-10-03T09:14:24Z</time>
      </trkpt>
      <trkpt lat="47.38746" lon="6.50253">
        <ele>303.855</ele>
        <time>2015-10-03T09:14:25Z</time>
      </trkpt>
      <trkpt lat="47.38749" lon="6.50253">
        <ele>305.215</ele>
        <time>2015-10-03T09:14:26Z</time>
      </trkpt>
      <trkpt lat="47.38751" lon="6.50253">
        <ele>306.292</ele>
        <time>2015-10-03T09:14:27Z</time>
      </trkpt>
      <trkpt lat="47.38753" lon="6.50253">
        <ele>304.866</ele>
        <time>2015-10-03T09:14:28Z</time>
      </trkpt>
      <trkpt lat="47.38755" lon="6.50252">
        <ele>304.469</ele>
        <time>2015-10-03T09:14:29Z</time>
      </trkpt>
      <trkpt lat="47.38758" lon="6.5025">
        <ele>302.827</ele>
        <time>2015-10-03T09:14:30Z</time>
      </trkpt>
      <trkpt lat="47.38761" lon="6.50247">
        <ele>302.384</ele>
        <time>2015-10-03T09:14:31Z</time>
      </trkpt>
      <trkpt lat="47.38763" lon="6.50244">
        <ele>302.151</ele>
        <time>2015-10-03T09:14:32Z</time>
      </trkpt>
      <trkpt lat="47.38765" lon="6.50241">
        <ele>302.708</ele>
        <time>2015-10-03T09:14:33Z</time>
      </trkpt>
      <trkpt lat="47.38767" lon="6.50238">
        <ele>302.282</ele>
        <time>2015-10-03T09:14:34Z</time>
      </trkpt>
      <trkpt lat="47.3877" lon="6.50235">
        <ele>302.842</ele>
        <time>2015-10-03T09:14:35Z</time>
      </trkpt>
      <trkpt lat="47.38772" lon="6.50232">
        <ele>304.219</ele>
        <time>2015-10-03T09:14:36Z</time>
      </trkpt>
      <trkpt lat="47.38774" lon="6.50229">
        <ele>304.887</ele>
        <time>2015-10-03T09:14:37Z</time>
      </trkpt>
      <trkpt lat="47.38776" lon="6.50225">
        <ele>306.054</ele>
        <time>2015-10-03T09:14:38Z</time>
      </trkpt>
      <trkpt lat="47.38779" lon="6.50222">
        <ele>305.29</ele>
        <time>2015-10-03T09:14:39Z</time>
      </trkpt>
      <trkpt lat="47.38782" lon="6.50219">
        <ele>304.854</ele>
        <time>2015-10-03T09:14:40Z</time>
      </trkpt>
      <trkpt lat="47.38785" lon="6.50216">
        <ele>304.935</ele>
        <time>2015-10-03T09:14:41Z</time>
      </trkpt>
      <trkpt lat="47.38788" lon="6.50214">
        <ele>304.626</ele>
        <time>2015-10-03T09:14:42Z</time>
      </trkpt>
      <trkpt lat="47.3879" lon="6.50212">
        <ele>305.159</ele>
        <time>2015-10-03T09:14:43Z</time>
      </trkpt>
      <trkpt lat="47.38793" lon="6.5021">
        <ele>305.006</ele>
        <time>2015-10-03T09:14:44Z</time>
      </trkpt>
      <trkpt lat="47.38795" lon="6.50209">
        <ele>305.213</ele>
        <time>2015-10-03T09:14:45Z</time>
      </trkpt>
      <trkpt lat="47.38797" lon="6.50208">
        <ele>304.524</ele>
        <time>2015-10-03T09:14:46Z</time>
      </trkpt>
      <trkpt lat="47.38799" lon="6.50206">
        <ele>305.036</ele>
        <time>2015-10-03T09:14:47Z</time>
      </trkpt>
      <trkpt lat="47.38802" lon="6.50205">
        <ele>303.38</ele>
        <time>2015-10-03T09:14:48Z</time>
      </trkpt>
      <trkpt lat="47.38805" lon="6.50203">
        <ele>303.577</ele>
        <time>2015-10-03T09:14:49Z</time>
      </trkpt>
      <trkpt lat="47.38809" lon="6.50202">
        <ele>303.743</ele>
        <time>2015-10-03T09:14:50Z</time>
      </trkpt>
      <trkpt lat="47.38812" lon="6.502">
        <ele>305.62</ele>
        <time>2015-10-03T09:14:51Z</time>
      </trkpt>
      <trkpt lat="47.38814" lon="6.50199">
        <ele>306.316</ele>
        <time>2015-10-03T09:14:52Z</time>
      </trkpt>
      <trkpt lat="47.38817" lon="6.50198">
        <ele>306.696</ele>
        <time>2015-10-03T09:14:53Z</time>
      </trkpt>
      <trkpt lat="47.3882" lon="6.50197">
        <ele>306.124</ele>
        <time>2015-10-03T09:14:54Z</time>
      </trkpt>
      <trkpt lat="47.38823" lon="6.50196">
        <ele>307.862</ele>
        <time>2015-10-03T09:14:55Z</time>
      </trkpt>
      <trkpt lat="47.38826" lon="6.50196">
        <ele>308.152</ele>
        <time>2015-10-03T09:14:56Z</time>
      </trkpt>
      <trkpt lat="47.38829" lon="6.50195">
        <ele>307.483</ele>
        <time>2015-10-03T09:14:57Z</time>
      </trkpt>
      <trkpt lat="47.38832" lon="6.50195">
        <ele>308.008</ele>
        <time>2015-10-03T09:14:58Z</time>
      </trkpt>
      <trkpt lat="47.38834" lon="6.50195">
        <ele>308.405</ele>
        <time>2015-10-03T09:14:59Z</time>
      </trkpt>
      <trkpt lat="47.38837" lon="6.50195">
        <ele>307.348</ele>
        <time>2015-10-03T09:15:00Z</time>
      </trkpt>
      <trkpt lat="47.3884" lon="6.50195">
        <ele>308.532</ele>
        <time>2015-10-03T09:15:01Z</time>
      </trkpt>
      <trkpt lat="47.38842" lon="6.50195">
        <ele>308.744</ele>
        <time>2015-10-03T09:15:02Z</time>
      </trkpt>
      <trkpt lat="47.38845" lon="6.50195">
        <ele>308.321</ele>
        <time>2015-10-03T09:15:03Z</time>
      </trkpt>
      <trkpt lat="47.38848" lon="6.50195">
        <ele>308.989</ele>
        <time>2015-10-03T09:15:04Z</time>
      </trkpt>
      <trkpt lat="47.3885" lon="6.50195">
        <ele>309.705</ele>
        <time>2015-10-03T09:15:05Z</time>
      </trkpt>
      <trkpt lat="47.38853" lon="6.50194">
        <ele>310.682</ele>
        <time>2015-10-03T09:15:06Z</time>
      </trkpt>
      <trkpt lat="47.38855" lon="6.50193">
        <ele>309.92</ele>
        <time>2015-10-03T09:15:07Z</time>
      </trkpt>
      <trkpt lat="47.38858" lon="6.50191">
        <ele>309.31</ele>
        <time>2015-10-03T09:15:08Z</time>
      </trkpt>
      <trkpt lat="47.38862" lon="6.50189">
        <ele>305.803</ele>
        <time>2015-10-03T09:15:09Z</time>
      </trkpt>
      <trkpt lat="47.38865" lon="6.50188">
        <ele>304.59</ele>
        <time>2015-10-03T09:15:10Z</time>
      </trkpt>
      <trkpt lat="47.38868" lon="6.50186">
        <ele>304.735</ele>
        <time>2015-10-03T09:15:11Z</time>
      </trkpt>
      <trkpt lat="47.38871" lon="6.50184">
        <ele>305.866</ele>
        <time>2015-10-03T09:15:12Z</time>
      </trkpt>
      <trkpt lat="47.38873" lon="6.50182">
        <ele>306.55</ele>
        <time>2015-10-03T09:15:13Z</time>
      </trkpt>
      <trkpt lat="47.38876" lon="6.5018">
        <ele>307.438</ele>
        <time>2015-10-03T09:15:14Z</time>
      </trkpt>
      <trkpt lat="47.38879" lon="6.50177">
        <ele>307.645</ele>
        <time>2015-10-03T09:15:15Z</time>
      </trkpt>
      <trkpt lat="47.38881" lon="6.50175">
        <ele>307.967</ele>
        <time>2015-10-03T09:15:16Z</time>
      </trkpt>
      <trkpt lat="47.38885" lon="6.50173">
        <ele>306.642</ele>
        <time>2015-10-03T09:15:17Z</time>
      </trkpt>
      <trkpt lat="47.38887" lon="6.50171">
        <ele>307.245</ele>
        <time>2015-10-03T09:15:18Z</time>
      </trkpt>
      <trkpt lat="47.3889" lon="6.50169">
        <ele>307.626</ele>
        <time>2015-10-03T09:15:19Z</time>
      </trkpt>
      <trkpt lat="47.38892" lon="6.50167">
        <ele>306.094</ele>
        <time>2015-10-03T09:15:20Z</time>
      </trkpt>
      <trkpt lat="47.38895" lon="6.50165">
        <ele>305.12</ele>
        <time>2015-10-03T09:15:21Z</time>
      </trkpt>
      <trkpt lat="47.38898" lon="6.50162">
        <ele>306.17</ele>
        <time>2015-10-03T09:15:22Z</time>
      </trkpt>
      <trkpt lat="47.389" lon="6.5016">
        <ele>306.668</ele>
        <time>2015-10-03T09:15:23Z</time>
      </trkpt>
      <trkpt lat="47.38902" lon="6.50159">
        <ele>306.99</ele>
        <time>2015-10-03T09:15:24Z</time>
      </trkpt>
      <trkpt lat="47.38904" lon="6.50157">
        <ele>307.264</ele>
        <time>2015-10-03T09:15:25Z</time>
      </trkpt>
      <trkpt lat="47.38906" lon="6.50156">
        <ele>308.081</ele>
        <time>2015-10-03T09:15:26Z</time>
      </trkpt>
      <trkpt lat="47.38909" lon="6.50154">
        <ele>308.866</ele>
        <time>2015-10-03T09:15:27Z</time>
      </trkpt>
      <trkpt lat="47.38911" lon="6.50151">
        <ele>309.07</ele>
        <time>2015-10-03T09:15:28Z</time>
      </trkpt>
      <trkpt lat="47.38914" lon="6.50148">
        <ele>309.234</ele>
        <time>2015-10-03T09:15:29Z</time>
      </trkpt>
      <trkpt lat="47.38917" lon="6.50145">
        <ele>309.795</ele>
        <time>2015-10-03T09:15:30Z</time>
      </trkpt>
      <trkpt lat="47.3892" lon="6.50142">
        <ele>309.033</ele>
        <time>2015-10-03T09:15:31Z</time>
      </trkpt>
      <trkpt lat="47.38923" lon="6.5014">
        <ele>307.872</ele>
        <time>2015-10-03T09:15:32Z</time>
      </trkpt>
      <trkpt lat="47.38925" lon="6.50138">
        <ele>308.258</ele>
        <time>2015-10-03T09:15:33Z</time>
      </trkpt>
      <trkpt lat="47.38927" lon="6.50137">
        <ele>305.207</ele>
        <time>2015-10-03T09:15:34Z</time>
      </trkpt>
      <trkpt lat="47.3893" lon="6.50136">
        <ele>304.343</ele>
        <time>2015-10-03T09:15:35Z</time>
      </trkpt>
      <trkpt lat="47.38932" lon="6.50135">
        <ele>304.531</ele>
        <time>2015-10-03T09:15:36Z</time>
      </trkpt>
      <trkpt lat="47.38935" lon="6.50135">
        <ele>304.327</ele>
        <time>2015-10-03T09:15:37Z</time>
      </trkpt>
      <trkpt lat="47.38938" lon="6.50135">
        <ele>304.277</ele>
        <time>2015-10-03T09:15:38Z</time>
      </trkpt>
      <trkpt lat="47.38941" lon="6.50133">
        <ele>304.294</ele>
        <time>2015-10-03T09:15:39Z</time>
      </trkpt>
      <trkpt lat="47.38943" lon="6.50131">
        <ele>304.246</ele>
        <time>2015-10-03T09:15:40Z</time>
      </trkpt>
      <trkpt lat="47.38945" lon="6.50128">
        <ele>304.666</ele>
        <time>2015-10-03T09:15:41Z</time>
      </trkpt>
      <trkpt lat="47.38947" lon="6.50126">
        <ele>303.617</ele>
        <time>2015-10-03T09:15:42Z</time>
      </trkpt>
      <trkpt lat="47.38948" lon="6.50124">
        <ele>303.384</ele>
        <time>2015-10-03T09:15:43Z</time>
      </trkpt>
      <trkpt lat="47.38949" lon="6.50123">
        <ele>303.237</ele>
        <time>2015-10-03T09:15:44Z</time>
      </trkpt>
      <trkpt lat="47.3895" lon="6.50122">
        <ele>302.524</ele>
        <time>2015-10-03T09:15:46Z</time>
      </trkpt>
      <trkpt lat="47.38951" lon="6.50122">
        <ele>302.04</ele>
        <time>2015-10-03T09:16:04Z</time>
      </trkpt>
      <trkpt lat="47.38951" lon="6.50119">
        <ele>300.496</ele>
        <time>2015-10-03T09:16:09Z</time>
      </trkpt>
      <trkpt lat="47.38951" lon="6.50117">
        <ele>299.543</ele>
        <time>2015-10-03T09:16:13Z</time>
      </trkpt>
      <trkpt lat="47.38952" lon="6.50115">
        <ele>299.414</ele>
        <time>2015-10-03T09:16:15Z</time>
      </trkpt>
      <trkpt lat="47.38953" lon="6.50114">
        <ele>300.116</ele>
        <time>2015-10-03T09:16:17Z</time>
      </trkpt>
      <trkpt lat="47.38954" lon="6.50112">
        <ele>298.37</ele>
        <time>2015-10-03T09:16:32Z</time>
      </trkpt>
      <trkpt lat="47.38952" lon="6.50118">
        <ele>302.163</ele>
        <time>2015-10-03T09:17:38Z</time>
      </trkpt>
      <trkpt lat="47.3895" lon="6.50121">
        <ele>300.423</ele>
        <time>2015-10-03T09:17:48Z</time>
      </trkpt>
      <trkpt lat="47.38951" lon="6.50118">
        <ele>301.137</ele>
        <time>2015-10-03T09:18:00Z</time>
      </trkpt>
      <trkpt lat="47.3895" lon="6.50117">
        <ele>301.308</ele>
        <time>2015-10-03T09:18:03Z</time>
      </trkpt>
      <trkpt lat="47.38949" lon="6.50116">
        <ele>302.245</ele>
        <time>2015-10-03T09:18:06Z</time>
      </trkpt>
      <trkpt lat="47.38951" lon="6.50116">
        <ele>302.696</ele>
        <time>2015-10-03T09:18:17Z</time>
      </trkpt>
      <trkpt lat="47.38952" lon="6.50115">
        <ele>303.958</ele>
        <time>2015-10-03T09:18:18Z</time>
      </trkpt>
      <trkpt lat="47.38953" lon="6.50114">
        <ele>304.874</ele>
        <time>2015-10-03T09:18:19Z</time>
      </trkpt>
      <trkpt lat="47.38953" lon="6.50112">
        <ele>304.408</ele>
        <time>2015-10-03T09:18:20Z</time>
      </trkpt>
      <trkpt lat="47.38955" lon="6.5011">
        <ele>305.28</ele>
        <time>2015-10-03T09:18:21Z</time>
      </trkpt>
      <trkpt lat="47.38957" lon="6.50106">
        <ele>305.924</ele>
        <time>2015-10-03T09:18:22Z</time>
      </trkpt>
      <trkpt lat="47.3896" lon="6.50102">
        <ele>306.788</ele>
        <time>2015-10-03T09:18:23Z</time>
      </trkpt>
      <trkpt lat="47.38962" lon="6.50098">
        <ele>307.473</ele>
        <time>2015-10-03T09:18:24Z</time>
      </trkpt>
      <trkpt lat="47.38964" lon="6.50093">
        <ele>307.348</ele>
        <time>2015-10-03T09:18:25Z</time>
      </trkpt>
      <trkpt lat="47.38968" lon="6.50087">
        <ele>307.361</ele>
        <time>2015-10-03T09:18:26Z</time>
      </trkpt>
      <trkpt lat="47.38971" lon="6.50081">
        <ele>306.954</ele>
        <time>2015-10-03T09:18:27Z</time>
      </trkpt>
      <trkpt lat="47.38977" lon="6.50072">
        <ele>306.696</ele>
        <time>2015-10-03T09:18:28Z</time>
      </trkpt>
      <trkpt lat="47.3898" lon="6.50066">
        <ele>307.495</ele>
        <time>2015-10-03T09:18:29Z</time>
      </trkpt>
      <trkpt lat="47.38983" lon="6.50061">
        <ele>307.661</ele>
        <time>2015-10-03T09:18:30Z</time>
      </trkpt>
      <trkpt lat="47.38987" lon="6.50056">
        <ele>307.717</ele>
        <time>2015-10-03T09:18:31Z</time>
      </trkpt>
      <trkpt lat="47.3899" lon="6.5005">
        <ele>307.575</ele>
        <time>2015-10-03T09:18:32Z</time>
      </trkpt>
      <trkpt lat="47.38995" lon="6.50047">
        <ele>306.38</ele>
        <time>2015-10-03T09:18:33Z</time>
      </trkpt>
      <trkpt lat="47.39" lon="6.50041">
        <ele>306.766</ele>
        <time>2015-10-03T09:18:34Z</time>
      </trkpt>
      <trkpt lat="47.39005" lon="6.50032">
        <ele>304.914</ele>
        <time>2015-10-03T09:18:35Z</time>
      </trkpt>
      <trkpt lat="47.39008" lon="6.50027">
        <ele>305.22</ele>
        <time>2015-10-03T09:18:36Z</time>
      </trkpt>
      <trkpt lat="47.39013" lon="6.50021">
        <ele>305.403</ele>
        <time>2015-10-03T09:18:37Z</time>
      </trkpt>
      <trkpt lat="47.39019" lon="6.50014">
        <ele>304.044</ele>
        <time>2015-10-03T09:18:38Z</time>
      </trkpt>
      <trkpt lat="47.39024" lon="6.50008">
        <ele>303.95</ele>
        <time>2015-10-03T09:18:39Z</time>
      </trkpt>
      <trkpt lat="47.39029" lon="6.50002">
        <ele>304.81</ele>
        <time>2015-10-03T09:18:40Z</time>
      </trkpt>
      <trkpt lat="47.39035" lon="6.49997">
        <ele>304.456</ele>
        <time>2015-10-03T09:18:41Z</time>
      </trkpt>
      <trkpt lat="47.39041" lon="6.49993">
        <ele>304.368</ele>
        <time>2015-10-03T09:18:42Z</time>
      </trkpt>
      <trkpt lat="47.39047" lon="6.49988">
        <ele>304.654</ele>
        <time>2015-10-03T09:18:43Z</time>
      </trkpt>
      <trkpt lat="47.39053" lon="6.49979">
        <ele>301.711</ele>
        <time>2015-10-03T09:18:44Z</time>
      </trkpt>
      <trkpt lat="47.39059" lon="6.49973">
        <ele>300.416</ele>
        <time>2015-10-03T09:18:45Z</time>
      </trkpt>
      <trkpt lat="47.39065" lon="6.49967">
        <ele>299.697</ele>
        <time>2015-10-03T09:18:46Z</time>
      </trkpt>
      <trkpt lat="47.39071" lon="6.49961">
        <ele>299.689</ele>
        <time>2015-10-03T09:18:47Z</time>
      </trkpt>
      <trkpt lat="47.39077" lon="6.49956">
        <ele>299.647</ele>
        <time>2015-10-03T09:18:48Z</time>
      </trkpt>
      <trkpt lat="47.39084" lon="6.49952">
        <ele>299.433</ele>
        <time>2015-10-03T09:18:49Z</time>
      </trkpt>
      <trkpt lat="47.3909" lon="6.49948">
        <ele>298.72</ele>
        <time>2015-10-03T09:18:50Z</time>
      </trkpt>
      <trkpt lat="47.39095" lon="6.49944">
        <ele>299.017</ele>
        <time>2015-10-03T09:18:51Z</time>
      </trkpt>
      <trkpt lat="47.39104" lon="6.49936">
        <ele>298.409</ele>
        <time>2015-10-03T09:18:52Z</time>
      </trkpt>
      <trkpt lat="47.39109" lon="6.49933">
        <ele>297.829</ele>
        <time>2015-10-03T09:18:53Z</time>
      </trkpt>
      <trkpt lat="47.39113" lon="6.4993">
        <ele>296.654</ele>
        <time>2015-10-03T09:18:54Z</time>
      </trkpt>
      <trkpt lat="47.39115" lon="6.49925">
        <ele>296.171</ele>
        <time>2015-10-03T09:18:55Z</time>
      </trkpt>
      <trkpt lat="47.3912" lon="6.49924">
        <ele>295.928</ele>
        <time>2015-10-03T09:18:56Z</time>
      </trkpt>
      <trkpt lat="47.39122" lon="6.49921">
        <ele>295.616</ele>
        <time>2015-10-03T09:18:57Z</time>
      </trkpt>
      <trkpt lat="47.39126" lon="6.49917">
        <ele>295.487</ele>
        <time>2015-10-03T09:18:58Z</time>
      </trkpt>
      <trkpt lat="47.39133" lon="6.49914">
        <ele>296.056</ele>
        <time>2015-10-03T09:18:59Z</time>
      </trkpt>
      <trkpt lat="47.39139" lon="6.4991">
        <ele>295.472</ele>
        <time>2015-10-03T09:19:00Z</time>
      </trkpt>
      <trkpt lat="47.39143" lon="6.49907">
        <ele>295.056</ele>
        <time>2015-10-03T09:19:01Z</time>
      </trkpt>
      <trkpt lat="47.39146" lon="6.49901">
        <ele>294.241</ele>
        <time>2015-10-03T09:19:02Z</time>
      </trkpt>
      <trkpt lat="47.3915" lon="6.49896">
        <ele>293.781</ele>
        <time>2015-10-03T09:19:03Z</time>
      </trkpt>
      <trkpt lat="47.39161" lon="6.49883">
        <ele>292.812</ele>
        <time>2015-10-03T09:19:04Z</time>
      </trkpt>
      <trkpt lat="47.39169" lon="6.49875">
        <ele>291.875</ele>
        <time>2015-10-03T09:19:05Z</time>
      </trkpt>
      <trkpt lat="47.39173" lon="6.4987">
        <ele>291.462</ele>
        <time>2015-10-03T09:19:06Z</time>
      </trkpt>
      <trkpt lat="47.39177" lon="6.49865">
        <ele>291.342</ele>
        <time>2015-10-03T09:19:07Z</time>
      </trkpt>
      <trkpt lat="47.39182" lon="6.49859">
        <ele>290.958</ele>
        <time>2015-10-03T09:19:08Z</time>
      </trkpt>
      <trkpt lat="47.39185" lon="6.49856">
        <ele>290.872</ele>
        <time>2015-10-03T09:19:09Z</time>
      </trkpt>
      <trkpt lat="47.3919" lon="6.49851">
        <ele>290.705</ele>
        <time>2015-10-03T09:19:10Z</time>
      </trkpt>
      <trkpt lat="47.39194" lon="6.49845">
        <ele>291.004</ele>
        <time>2015-10-03T09:19:11Z</time>
      </trkpt>
      <trkpt lat="47.39198" lon="6.49839">
        <ele>290.622</ele>
        <time>2015-10-03T09:19:12Z</time>
      </trkpt>
      <trkpt lat="47.39205" lon="6.49833">
        <ele>291.28</ele>
        <time>2015-10-03T09:19:13Z</time>
      </trkpt>
      <trkpt lat="47.39211" lon="6.49824">
        <ele>290.85</ele>
        <time>2015-10-03T09:19:14Z</time>
      </trkpt>
      <trkpt lat="47.39217" lon="6.49816">
        <ele>290.246</ele>
        <time>2015-10-03T09:19:15Z</time>
      </trkpt>
      <trkpt lat="47.39224" lon="6.49808">
        <ele>290.787</ele>
        <time>2015-10-03T09:19:16Z</time>
      </trkpt>
      <trkpt lat="47.39227" lon="6.49799">
        <ele>290.686</ele>
        <time>2015-10-03T09:19:17Z</time>
      </trkpt>
      <trkpt lat="47.39233" lon="6.49792">
        <ele>290.299</ele>
        <time>2015-10-03T09:19:18Z</time>
      </trkpt>
      <trkpt lat="47.39238" lon="6.49784">
        <ele>290.086</ele>
        <time>2015-10-03T09:19:19Z</time>
      </trkpt>
      <trkpt lat="47.39242" lon="6.49778">
        <ele>289.798</ele>
        <time>2015-10-03T09:19:20Z</time>
      </trkpt>
      <trkpt lat="47.39248" lon="6.49774">
        <ele>289.749</ele>
        <time>2015-10-03T09:19:21Z</time>
      </trkpt>
      <trkpt lat="47.39252" lon="6.49769">
        <ele>289.903</ele>
        <time>2015-10-03T09:19:22Z</time>
      </trkpt>
      <trkpt lat="47.39255" lon="6.49764">
        <ele>289.965</ele>
        <time>2015-10-03T09:19:23Z</time>
      </trkpt>
      <trkpt lat="47.3926" lon="6.49761">
        <ele>289.824</ele>
        <time>2015-10-03T09:19:24Z</time>
      </trkpt>
      <trkpt lat="47.39266" lon="6.49756">
        <ele>289.396</ele>
        <time>2015-10-03T09:19:25Z</time>
      </trkpt>
      <trkpt lat="47.3927" lon="6.49748">
        <ele>289.59</ele>
        <time>2015-10-03T09:19:26Z</time>
      </trkpt>
      <trkpt lat="47.39273" lon="6.49739">
        <ele>289.163</ele>
        <time>2015-10-03T09:19:27Z</time>
      </trkpt>
      <trkpt lat="47.39278" lon="6.49731">
        <ele>288.724</ele>
        <time>2015-10-03T09:19:28Z</time>
      </trkpt>
      <trkpt lat="47.39287" lon="6.49728">
        <ele>288.391</ele>
        <time>2015-10-03T09:19:29Z</time>
      </trkpt>
      <trkpt lat="47.39291" lon="6.49724">
        <ele>288.351</ele>
        <time>2015-10-03T09:19:30Z</time>
      </trkpt>
      <trkpt lat="47.39297" lon="6.4972">
        <ele>288.041</ele>
        <time>2015-10-03T09:19:31Z</time>
      </trkpt>
      <trkpt lat="47.39299" lon="6.49714">
        <ele>287.553</ele>
        <time>2015-10-03T09:19:32Z</time>
      </trkpt>
      <trkpt lat="47.39298" lon="6.49711">
        <ele>287.228</ele>
        <time>2015-10-03T09:19:33Z</time>
      </trkpt>
      <trkpt lat="47.393" lon="6.49708">
        <ele>287.073</ele>
        <time>2015-10-03T09:19:34Z</time>
      </trkpt>
      <trkpt lat="47.39303" lon="6.49703">
        <ele>286.571</ele>
        <time>2015-10-03T09:19:35Z</time>
      </trkpt>
      <trkpt lat="47.39306" lon="6.49698">
        <ele>286.453</ele>
        <time>2015-10-03T09:19:36Z</time>
      </trkpt>
      <trkpt lat="47.39307" lon="6.49694">
        <ele>286.494</ele>
        <time>2015-10-03T09:19:37Z</time>
      </trkpt>
      <trkpt lat="47.3931" lon="6.49696">
        <ele>286.022</ele>
        <time>2015-10-03T09:19:38Z</time>
      </trkpt>
      <trkpt lat="47.39305" lon="6.49694">
        <ele>285.232</ele>
        <time>2015-10-03T09:19:39Z</time>
      </trkpt>
      <trkpt lat="47.39306" lon="6.49692">
        <ele>285.205</ele>
        <time>2015-10-03T09:19:40Z</time>
      </trkpt>
      <trkpt lat="47.39307" lon="6.4969">
        <ele>285.16</ele>
        <time>2015-10-03T09:19:41Z</time>
      </trkpt>
      <trkpt lat="47.39308" lon="6.49688">
        <ele>285.372</ele>
        <time>2015-10-03T09:19:42Z</time>
      </trkpt>
      <trkpt lat="47.39309" lon="6.49686">
        <ele>285.093</ele>
        <time>2015-10-03T09:19:43Z</time>
      </trkpt>
      <trkpt lat="47.39309" lon="6.49682">
        <ele>285.646</ele>
        <time>2015-10-03T09:19:44Z</time>
      </trkpt>
      <trkpt lat="47.39308" lon="6.49677">
        <ele>285.469</ele>
        <time>2015-10-03T09:19:45Z</time>
      </trkpt>
      <trkpt lat="47.39307" lon="6.49671">
        <ele>285.314</ele>
        <time>2015-10-03T09:19:46Z</time>
      </trkpt>
      <trkpt lat="47.39305" lon="6.49664">
        <ele>285.461</ele>
        <time>2015-10-03T09:19:47Z</time>
      </trkpt>
      <trkpt lat="47.39304" lon="6.49657">
        <ele>285.208</ele>
        <time>2015-10-03T09:19:48Z</time>
      </trkpt>
      <trkpt lat="47.39303" lon="6.4965">
        <ele>284.889</ele>
        <time>2015-10-03T09:19:49Z</time>
      </trkpt>
      <trkpt lat="47.39299" lon="6.49643">
        <ele>284.221</ele>
        <time>2015-10-03T09:19:50Z</time>
      </trkpt>
      <trkpt lat="47.39295" lon="6.49636">
        <ele>283.76</ele>
        <time>2015-10-03T09:19:51Z</time>
      </trkpt>
      <trkpt lat="47.39292" lon="6.4963">
        <ele>283.602</ele>
        <time>2015-10-03T09:19:52Z</time>
      </trkpt>
      <trkpt lat="47.39288" lon="6.49623">
        <ele>283.797</ele>
        <time>2015-10-03T09:19:53Z</time>
      </trkpt>
      <trkpt lat="47.39285" lon="6.49617">
        <ele>283.539</ele>
        <time>2015-10-03T09:19:54Z</time>
      </trkpt>
      <trkpt lat="47.39279" lon="6.49609">
        <ele>282.209</ele>
        <time>2015-10-03T09:19:55Z</time>
      </trkpt>
      <trkpt lat="47.39273" lon="6.49602">
        <ele>281.417</ele>
        <time>2015-10-03T09:19:56Z</time>
      </trkpt>
      <trkpt lat="47.3927" lon="6.49595">
        <ele>281.096</ele>
        <time>2015-10-03T09:19:57Z</time>
      </trkpt>
      <trkpt lat="47.39267" lon="6.49588">
        <ele>280.904</ele>
        <time>2015-10-03T09:19:58Z</time>
      </trkpt>
      <trkpt lat="47.39263" lon="6.49582">
        <ele>280.722</ele>
        <time>2015-10-03T09:19:59Z</time>
      </trkpt>
      <trkpt lat="47.39259" lon="6.49577">
        <ele>280.725</ele>
        <time>2015-10-03T09:20:00Z</time>
      </trkpt>
      <trkpt lat="47.39256" lon="6.49571">
        <ele>281.277</ele>
        <time>2015-10-03T09:20:01Z</time>
      </trkpt>
      <trkpt lat="47.39253" lon="6.49564">
        <ele>281.022</ele>
        <time>2015-10-03T09:20:02Z</time>
      </trkpt>
      <trkpt lat="47.39249" lon="6.4956">
        <ele>280.735</ele>
        <time>2015-10-03T09:20:03Z</time>
      </trkpt>
      <trkpt lat="47.39243" lon="6.49553">
        <ele>280.315</ele>
        <time>2015-10-03T09:20:04Z</time>
      </trkpt>
      <trkpt lat="47.3924" lon="6.49547">
        <ele>280.34</ele>
        <time>2015-10-03T09:20:05Z</time>
      </trkpt>
      <trkpt lat="47.39238" lon="6.49542">
        <ele>280.306</ele>
        <time>2015-10-03T09:20:06Z</time>
      </trkpt>
      <trkpt lat="47.39236" lon="6.49538">
        <ele>280.716</ele>
        <time>2015-10-03T09:20:07Z</time>
      </trkpt>
      <trkpt lat="47.39232" lon="6.49532">
        <ele>280.93</ele>
        <time>2015-10-03T09:20:08Z</time>
      </trkpt>
      <trkpt lat="47.3923" lon="6.49528">
        <ele>280.268</ele>
        <time>2015-10-03T09:20:09Z</time>
      </trkpt>
      <trkpt lat="47.39225" lon="6.49523">
        <ele>279.505</ele>
        <time>2015-10-03T09:20:10Z</time>
      </trkpt>
      <trkpt lat="47.39223" lon="6.49519">
        <ele>279.437</ele>
        <time>2015-10-03T09:20:11Z</time>
      </trkpt>
      <trkpt lat="47.39219" lon="6.49514">
        <ele>279.67</ele>
        <time>2015-10-03T09:20:12Z</time>
      </trkpt>
      <trkpt lat="47.39217" lon="6.4951">
        <ele>279.157</ele>
        <time>2015-10-03T09:20:13Z</time>
      </trkpt>
      <trkpt lat="47.39214" lon="6.49506">
        <ele>280.116</ele>
        <time>2015-10-03T09:20:14Z</time>
      </trkpt>
      <trkpt lat="47.39211" lon="6.49501">
        <ele>279.983</ele>
        <time>2015-10-03T09:20:15Z</time>
      </trkpt>
      <trkpt lat="47.39208" lon="6.49497">
        <ele>280.27</ele>
        <time>2015-10-03T09:20:16Z</time>
      </trkpt>
      <trkpt lat="47.39205" lon="6.49493">
        <ele>280.566</ele>
        <time>2015-10-03T09:20:17Z</time>
      </trkpt>
      <trkpt lat="47.39202" lon="6.49488">
        <ele>281.231</ele>
        <time>2015-10-03T09:20:18Z</time>
      </trkpt>
      <trkpt lat="47.392" lon="6.49484">
        <ele>280.931</ele>
        <time>2015-10-03T09:20:19Z</time>
      </trkpt>
      <trkpt lat="47.39197" lon="6.4948">
        <ele>281.03</ele>
        <time>2015-10-03T09:20:20Z</time>
      </trkpt>
      <trkpt lat="47.39195" lon="6.49475">
        <ele>280.667</ele>
        <time>2015-10-03T09:20:21Z</time>
      </trkpt>
      <trkpt lat="47.39193" lon="6.4947">
        <ele>281.249</ele>
        <time>2015-10-03T09:20:22Z</time>
      </trkpt>
      <trkpt lat="47.39195" lon="6.49463">
        <ele>281.326</ele>
        <time>2015-10-03T09:20:23Z</time>
      </trkpt>
      <trkpt lat="47.39194" lon="6.49457">
        <ele>279.939</ele>
        <time>2015-10-03T09:20:24Z</time>
      </trkpt>
      <trkpt lat="47.39196" lon="6.49451">
        <ele>279.991</ele>
        <time>2015-10-03T09:20:25Z</time>
      </trkpt>
      <trkpt lat="47.39198" lon="6.49445">
        <ele>280.688</ele>
        <time>2015-10-03T09:20:26Z</time>
      </trkpt>
      <trkpt lat="47.392" lon="6.49439">
        <ele>281.747</ele>
        <time>2015-10-03T09:20:27Z</time>
      </trkpt>
      <trkpt lat="47.39203" lon="6.49432">
        <ele>281.023</ele>
        <time>2015-10-03T09:20:28Z</time>
      </trkpt>
      <trkpt lat="47.39208" lon="6.49425">
        <ele>280.911</ele>
        <time>2015-10-03T09:20:29Z</time>
      </trkpt>
      <trkpt lat="47.39213" lon="6.49418">
        <ele>280.907</ele>
        <time>2015-10-03T09:20:30Z</time>
      </trkpt>
      <trkpt lat="47.39218" lon="6.4941">
        <ele>280.994</ele>
        <time>2015-10-03T09:20:31Z</time>
      </trkpt>
      <trkpt lat="47.39224" lon="6.49403">
        <ele>280.376</ele>
        <time>2015-10-03T09:20:32Z</time>
      </trkpt>
      <trkpt lat="47.3923" lon="6.49397">
        <ele>280.616</ele>
        <time>2015-10-03T09:20:33Z</time>
      </trkpt>
      <trkpt lat="47.39237" lon="6.49392">
        <ele>281.276</ele>
        <time>2015-10-03T09:20:34Z</time>
      </trkpt>
      <trkpt lat="47.39244" lon="6.49386">
        <ele>281.847</ele>
        <time>2015-10-03T09:20:35Z</time>
      </trkpt>
      <trkpt lat="47.39252" lon="6.49385">
        <ele>282.062</ele>
        <time>2015-10-03T09:20:36Z</time>
      </trkpt>
      <trkpt lat="47.39258" lon="6.49385">
        <ele>281.556</ele>
        <time>2015-10-03T09:20:37Z</time>
      </trkpt>
      <trkpt lat="47.39266" lon="6.49385">
        <ele>281.438</ele>
        <time>2015-10-03T09:20:38Z</time>
      </trkpt>
      <trkpt lat="47.39273" lon="6.49383">
        <ele>281.477</ele>
        <time>2015-10-03T09:20:39Z</time>
      </trkpt>
      <trkpt lat="47.39277" lon="6.49382">
        <ele>280.434</ele>
        <time>2015-10-03T09:20:40Z</time>
      </trkpt>
      <trkpt lat="47.39285" lon="6.4938">
        <ele>278.946</ele>
        <time>2015-10-03T09:20:41Z</time>
      </trkpt>
      <trkpt lat="47.39291" lon="6.49379">
        <ele>278.31</ele>
        <time>2015-10-03T09:20:42Z</time>
      </trkpt>
      <trkpt lat="47.39299" lon="6.49379">
        <ele>278.135</ele>
        <time>2015-10-03T09:20:43Z</time>
      </trkpt>
      <trkpt lat="47.39304" lon="6.4938">
        <ele>278.63</ele>
        <time>2015-10-03T09:20:44Z</time>
      </trkpt>
      <trkpt lat="47.39309" lon="6.49377">
        <ele>278.723</ele>
        <time>2015-10-03T09:20:45Z</time>
      </trkpt>
      <trkpt lat="47.39315" lon="6.49377">
        <ele>278.819</ele>
        <time>2015-10-03T09:20:46Z</time>
      </trkpt>
      <trkpt lat="47.39319" lon="6.49377">
        <ele>279.016</ele>
        <time>2015-10-03T09:20:47Z</time>
      </trkpt>
      <trkpt lat="47.39323" lon="6.49375">
        <ele>278.94</ele>
        <time>2015-10-03T09:20:48Z</time>
      </trkpt>
      <trkpt lat="47.39328" lon="6.49375">
        <ele>279.379</ele>
        <time>2015-10-03T09:20:49Z</time>
      </trkpt>
      <trkpt lat="47.39334" lon="6.49376">
        <ele>279.312</ele>
        <time>2015-10-03T09:20:50Z</time>
      </trkpt>
      <trkpt lat="47.39337" lon="6.49377">
        <ele>278.959</ele>
        <time>2015-10-03T09:20:51Z</time>
      </trkpt>
      <trkpt lat="47.39342" lon="6.49375">
        <ele>278.972</ele>
        <time>2015-10-03T09:20:52Z</time>
      </trkpt>
      <trkpt lat="47.39346" lon="6.49373">
        <ele>278.796</ele>
        <time>2015-10-03T09:20:53Z</time>
      </trkpt>
      <trkpt lat="47.3935" lon="6.49373">
        <ele>278.767</ele>
        <time>2015-10-03T09:20:54Z</time>
      </trkpt>
      <trkpt lat="47.39354" lon="6.49373">
        <ele>279.132</ele>
        <time>2015-10-03T09:20:55Z</time>
      </trkpt>
      <trkpt lat="47.39359" lon="6.49372">
        <ele>279.232</ele>
        <time>2015-10-03T09:20:56Z</time>
      </trkpt>
      <trkpt lat="47.39363" lon="6.49371">
        <ele>279.036</ele>
        <time>2015-10-03T09:20:57Z</time>
      </trkpt>
      <trkpt lat="47.39368" lon="6.4937">
        <ele>279.101</ele>
        <time>2015-10-03T09:20:58Z</time>
      </trkpt>
      <trkpt lat="47.39371" lon="6.4937">
        <ele>278.956</ele>
        <time>2015-10-03T09:20:59Z</time>
      </trkpt>
      <trkpt lat="47.39374" lon="6.4937">
        <ele>278.936</ele>
        <time>2015-10-03T09:21:00Z</time>
      </trkpt>
      <trkpt lat="47.39377" lon="6.49371">
        <ele>278.719</ele>
        <time>2015-10-03T09:21:01Z</time>
      </trkpt>
      <trkpt lat="47.39379" lon="6.49373">
        <ele>278.217</ele>
        <time>2015-10-03T09:21:02Z</time>
      </trkpt>
      <trkpt lat="47.39381" lon="6.49375">
        <ele>278.002</ele>
        <time>2015-10-03T09:21:03Z</time>
      </trkpt>
      <trkpt lat="47.39383" lon="6.49376">
        <ele>277.846</ele>
        <time>2015-10-03T09:21:04Z</time>
      </trkpt>
      <trkpt lat="47.39385" lon="6.49377">
        <ele>277.248</ele>
        <time>2015-10-03T09:21:05Z</time>
      </trkpt>
      <trkpt lat="47.39387" lon="6.49377">
        <ele>277.477</ele>
        <time>2015-10-03T09:21:06Z</time>
      </trkpt>
      <trkpt lat="47.39389" lon="6.49377">
        <ele>277.071</ele>
        <time>2015-10-03T09:21:07Z</time>
      </trkpt>
      <trkpt lat="47.39391" lon="6.49377">
        <ele>277.436</ele>
        <time>2015-10-03T09:21:08Z</time>
      </trkpt>
      <trkpt lat="47.39393" lon="6.49377">
        <ele>276.818</ele>
        <time>2015-10-03T09:21:09Z</time>
      </trkpt>
      <trkpt lat="47.39394" lon="6.49378">
        <ele>277.086</ele>
        <time>2015-10-03T09:21:10Z</time>
      </trkpt>
      <trkpt lat="47.39395" lon="6.49377">
        <ele>277.016</ele>
        <time>2015-10-03T09:21:14Z</time>
      </trkpt>
      <trkpt lat="47.39397" lon="6.4938">
        <ele>276.183</ele>
        <time>2015-10-03T09:21:25Z</time>
      </trkpt>
      <trkpt lat="47.39399" lon="6.49379">
        <ele>276.384</ele>
        <time>2015-10-03T09:21:28Z</time>
      </trkpt>
      <trkpt lat="47.39401" lon="6.49379">
        <ele>277.014</ele>
        <time>2015-10-03T09:21:34Z</time>
      </trkpt>
      <trkpt lat="47.394" lon="6.49379">
        <ele>277.147</ele>
        <time>2015-10-03T09:21:42Z</time>
      </trkpt>
      <trkpt lat="47.39402" lon="6.49379">
        <ele>276.908</ele>
        <time>2015-10-03T09:22:39Z</time>
      </trkpt>
      <trkpt lat="47.39403" lon="6.49377">
        <ele>276.229</ele>
        <time>2015-10-03T09:22:45Z</time>
      </trkpt>
      <trkpt lat="47.39403" lon="6.49376">
        <ele>275.834</ele>
        <time>2015-10-03T09:23:38Z</time>
      </trkpt>
      <trkpt lat="47.39402" lon="6.49381">
        <ele>276.933</ele>
        <time>2015-10-03T09:23:46Z</time>
      </trkpt>
      <trkpt lat="47.39402" lon="6.49379">
        <ele>277.518</ele>
        <time>2015-10-03T09:23:51Z</time>
      </trkpt>
      <trkpt lat="47.39401" lon="6.49378">
        <ele>277.612</ele>
        <time>2015-10-03T09:23:53Z</time>
      </trkpt>
      <trkpt lat="47.39401" lon="6.49379">
        <ele>276.903</ele>
        <time>2015-10-03T09:24:01Z</time>
      </trkpt>
      <trkpt lat="47.39397" lon="6.49379">
        <ele>276.316</ele>
        <time>2015-10-03T09:24:54Z</time>
      </trkpt>
      <trkpt lat="47.39398" lon="6.4938">
        <ele>276.217</ele>
        <time>2015-10-03T09:24:56Z</time>
      </trkpt>
      <trkpt lat="47.39397" lon="6.4938">
        <ele>276.141</ele>
        <time>2015-10-03T09:25:02Z</time>
      </trkpt>
      <trkpt lat="47.39395" lon="6.49381">
        <ele>276.262</ele>
        <time>2015-10-03T09:25:14Z</time>
      </trkpt>
      <trkpt lat="47.39396" lon="6.49383">
        <ele>276.445</ele>
        <time>2015-10-03T09:25:17Z</time>
      </trkpt>
      <trkpt lat="47.39398" lon="6.49384">
        <ele>276.906</ele>
        <time>2015-10-03T09:29:22Z</time>
      </trkpt>
      <trkpt lat="47.394" lon="6.49383">
        <ele>276.37</ele>
        <time>2015-10-03T09:29:24Z</time>
      </trkpt>
      <trkpt lat="47.39401" lon="6.49382">
        <ele>276.529</ele>
        <time>2015-10-03T09:29:25Z</time>
      </trkpt>
      <trkpt lat="47.39402" lon="6.49381">
        <ele>276.807</ele>
        <time>2015-10-03T09:29:26Z</time>
      </trkpt>
      <trkpt lat="47.39404" lon="6.49377">
        <ele>276.427</ele>
        <time>2015-10-03T09:29:39Z</time>
      </trkpt>
      <trkpt lat="47.39404" lon="6.49374">
        <ele>277.132</ele>
        <time>2015-10-03T09:29:59Z</time>
      </trkpt>
      <trkpt lat="47.39406" lon="6.49374">
        <ele>277.199</ele>
        <time>2015-10-03T09:30:01Z</time>
      </trkpt>
      <trkpt lat="47.39407" lon="6.49375">
        <ele>277.372</ele>
        <time>2015-10-03T09:30:02Z</time>
      </trkpt>
      <trkpt lat="47.39408" lon="6.49375">
        <ele>277.621</ele>
        <time>2015-10-03T09:30:04Z</time>
      </trkpt>
      <trkpt lat="47.3941" lon="6.49376">
        <ele>277.69</ele>
        <time>2015-10-03T09:30:06Z</time>
      </trkpt>
      <trkpt lat="47.39411" lon="6.49376">
        <ele>277.824</ele>
        <time>2015-10-03T09:30:07Z</time>
      </trkpt>
      <trkpt lat="47.39412" lon="6.49377">
        <ele>277.78</ele>
        <time>2015-10-03T09:30:08Z</time>
      </trkpt>
      <trkpt lat="47.39413" lon="6.49378">
        <ele>277.485</ele>
        <time>2015-10-03T09:30:09Z</time>
      </trkpt>
      <trkpt lat="47.39414" lon="6.49379">
        <ele>277.48</ele>
        <time>2015-10-03T09:30:10Z</time>
      </trkpt>
      <trkpt lat="47.39415" lon="6.49381">
        <ele>277.428</ele>
        <time>2015-10-03T09:30:11Z</time>
      </trkpt>
      <trkpt lat="47.39416" lon="6.49382">
        <ele>277.487</ele>
        <time>2015-10-03T09:30:12Z</time>
      </trkpt>
      <trkpt lat="47.39417" lon="6.49383">
        <ele>277.193</ele>
        <time>2015-10-03T09:30:13Z</time>
      </trkpt>
      <trkpt lat="47.39419" lon="6.49384">
        <ele>277.329</ele>
        <time>2015-10-03T09:30:14Z</time>
      </trkpt>
      <trkpt lat="47.3942" lon="6.49384">
        <ele>277.442</ele>
        <time>2015-10-03T09:30:15Z</time>
      </trkpt>
      <trkpt lat="47.39422" lon="6.49384">
        <ele>277.464</ele>
        <time>2015-10-03T09:30:16Z</time>
      </trkpt>
      <trkpt lat="47.39424" lon="6.49385">
        <ele>277.61</ele>
        <time>2015-10-03T09:30:17Z</time>
      </trkpt>
      <trkpt lat="47.39426" lon="6.49385">
        <ele>277.788</ele>
        <time>2015-10-03T09:30:18Z</time>
      </trkpt>
      <trkpt lat="47.39429" lon="6.49386">
        <ele>277.739</ele>
        <time>2015-10-03T09:30:19Z</time>
      </trkpt>
      <trkpt lat="47.39432" lon="6.49387">
        <ele>277.99</ele>
        <time>2015-10-03T09:30:20Z</time>
      </trkpt>
      <trkpt lat="47.39435" lon="6.49389">
        <ele>278.093</ele>
        <time>2015-10-03T09:30:21Z</time>
      </trkpt>
      <trkpt lat="47.39438" lon="6.49391">
        <ele>278.018</ele>
        <time>2015-10-03T09:30:22Z</time>
      </trkpt>
      <trkpt lat="47.39441" lon="6.49393">
        <ele>277.81</ele>
        <time>2015-10-03T09:30:23Z</time>
      </trkpt>
      <trkpt lat="47.39444" lon="6.49395">
        <ele>277.908</ele>
        <time>2015-10-03T09:30:24Z</time>
      </trkpt>
      <trkpt lat="47.39447" lon="6.49396">
        <ele>278.093</ele>
        <time>2015-10-03T09:30:25Z</time>
      </trkpt>
      <trkpt lat="47.3945" lon="6.49398">
        <ele>278.049</ele>
        <time>2015-10-03T09:30:26Z</time>
      </trkpt>
      <trkpt lat="47.39453" lon="6.49401">
        <ele>278.128</ele>
        <time>2015-10-03T09:30:27Z</time>
      </trkpt>
      <trkpt lat="47.39456" lon="6.49403">
        <ele>278.297</ele>
        <time>2015-10-03T09:30:28Z</time>
      </trkpt>
      <trkpt lat="47.39458" lon="6.49405">
        <ele>278.298</ele>
        <time>2015-10-03T09:30:29Z</time>
      </trkpt>
      <trkpt lat="47.39461" lon="6.49408">
        <ele>278.169</ele>
        <time>2015-10-03T09:30:30Z</time>
      </trkpt>
      <trkpt lat="47.39464" lon="6.49411">
        <ele>278.726</ele>
        <time>2015-10-03T09:30:31Z</time>
      </trkpt>
      <trkpt lat="47.39467" lon="6.49414">
        <ele>278.83</ele>
        <time>2015-10-03T09:30:32Z</time>
      </trkpt>
      <trkpt lat="47.3947" lon="6.49417">
        <ele>278.949</ele>
        <time>2015-10-03T09:30:33Z</time>
      </trkpt>
      <trkpt lat="47.39473" lon="6.4942">
        <ele>279.127</ele>
        <time>2015-10-03T09:30:34Z</time>
      </trkpt>
      <trkpt lat="47.39476" lon="6.49423">
        <ele>278.75</ele>
        <time>2015-10-03T09:30:35Z</time>
      </trkpt>
      <trkpt lat="47.39479" lon="6.49427">
        <ele>278.265</ele>
        <time>2015-10-03T09:30:36Z</time>
      </trkpt>
      <trkpt lat="47.39482" lon="6.4943">
        <ele>277.933</ele>
        <time>2015-10-03T09:30:37Z</time>
      </trkpt>
      <trkpt lat="47.39484" lon="6.49433">
        <ele>277.87</ele>
        <time>2015-10-03T09:30:38Z</time>
      </trkpt>
      <trkpt lat="47.39487" lon="6.49436">
        <ele>277.829</ele>
        <time>2015-10-03T09:30:39Z</time>
      </trkpt>
      <trkpt lat="47.3949" lon="6.4944">
        <ele>277.605</ele>
        <time>2015-10-03T09:30:40Z</time>
      </trkpt>
      <trkpt lat="47.39493" lon="6.49444">
        <ele>277.513</ele>
        <time>2015-10-03T09:30:41Z</time>
      </trkpt>
      <trkpt lat="47.39495" lon="6.49448">
        <ele>277.609</ele>
        <time>2015-10-03T09:30:42Z</time>
      </trkpt>
      <trkpt lat="47.39498" lon="6.49452">
        <ele>277.6</ele>
        <time>2015-10-03T09:30:43Z</time>
      </trkpt>
      <trkpt lat="47.39501" lon="6.49456">
        <ele>277.666</ele>
        <time>2015-10-03T09:30:44Z</time>
      </trkpt>
      <trkpt lat="47.39503" lon="6.4946">
        <ele>277.991</ele>
        <time>2015-10-03T09:30:45Z</time>
      </trkpt>
      <trkpt lat="47.39506" lon="6.49465">
        <ele>278.272</ele>
        <time>2015-10-03T09:30:46Z</time>
      </trkpt>
      <trkpt lat="47.39508" lon="6.49469">
        <ele>278.715</ele>
        <time>2015-10-03T09:30:47Z</time>
      </trkpt>
      <trkpt lat="47.39511" lon="6.49474">
        <ele>278.614</ele>
        <time>2015-10-03T09:30:48Z</time>
      </trkpt>
      <trkpt lat="47.39513" lon="6.49478">
        <ele>278.302</ele>
        <time>2015-10-03T09:30:49Z</time>
      </trkpt>
      <trkpt lat="47.39516" lon="6.49482">
        <ele>277.989</ele>
        <time>2015-10-03T09:30:50Z</time>
      </trkpt>
      <trkpt lat="47.39518" lon="6.49486">
        <ele>277.759</ele>
        <time>2015-10-03T09:30:51Z</time>
      </trkpt>
      <trkpt lat="47.39521" lon="6.4949">
        <ele>277.574</ele>
        <time>2015-10-03T09:30:52Z</time>
      </trkpt>
      <trkpt lat="47.39524" lon="6.49494">
        <ele>277.568</ele>
        <time>2015-10-03T09:30:53Z</time>
      </trkpt>
      <trkpt lat="47.39526" lon="6.49498">
        <ele>277.564</ele>
        <time>2015-10-03T09:30:54Z</time>
      </trkpt>
      <trkpt lat="47.39529" lon="6.49502">
        <ele>277.767</ele>
        <time>2015-10-03T09:30:55Z</time>
      </trkpt>
      <trkpt lat="47.39531" lon="6.49506">
        <ele>277.563</ele>
        <time>2015-10-03T09:30:56Z</time>
      </trkpt>
      <trkpt lat="47.39533" lon="6.4951">
        <ele>277.671</ele>
        <time>2015-10-03T09:30:57Z</time>
      </trkpt>
      <trkpt lat="47.39536" lon="6.49515">
        <ele>277.811</ele>
        <time>2015-10-03T09:30:58Z</time>
      </trkpt>
      <trkpt lat="47.39539" lon="6.49519">
        <ele>277.813</ele>
        <time>2015-10-03T09:30:59Z</time>
      </trkpt>
      <trkpt lat="47.39541" lon="6.49523">
        <ele>277.93</ele>
        <time>2015-10-03T09:31:00Z</time>
      </trkpt>
      <trkpt lat="47.39544" lon="6.49527">
        <ele>277.656</ele>
        <time>2015-10-03T09:31:01Z</time>
      </trkpt>
      <trkpt lat="47.39547" lon="6.49531">
        <ele>277.616</ele>
        <time>2015-10-03T09:31:02Z</time>
      </trkpt>
      <trkpt lat="47.39549" lon="6.49534">
        <ele>277.433</ele>
        <time>2015-10-03T09:31:03Z</time>
      </trkpt>
      <trkpt lat="47.39552" lon="6.49538">
        <ele>277.372</ele>
        <time>2015-10-03T09:31:04Z</time>
      </trkpt>
      <trkpt lat="47.39554" lon="6.49543">
        <ele>277.247</ele>
        <time>2015-10-03T09:31:05Z</time>
      </trkpt>
      <trkpt lat="47.39557" lon="6.49547">
        <ele>276.834</ele>
        <time>2015-10-03T09:31:06Z</time>
      </trkpt>
      <trkpt lat="47.3956" lon="6.49551">
        <ele>276.627</ele>
        <time>2015-10-03T09:31:07Z</time>
      </trkpt>
      <trkpt lat="47.39562" lon="6.49555">
        <ele>276.294</ele>
        <time>2015-10-03T09:31:08Z</time>
      </trkpt>
      <trkpt lat="47.39564" lon="6.4956">
        <ele>276.326</ele>
        <time>2015-10-03T09:31:09Z</time>
      </trkpt>
      <trkpt lat="47.39567" lon="6.49564">
        <ele>276.002</ele>
        <time>2015-10-03T09:31:10Z</time>
      </trkpt>
      <trkpt lat="47.3957" lon="6.49569">
        <ele>275.908</ele>
        <time>2015-10-03T09:31:11Z</time>
      </trkpt>
      <trkpt lat="47.39572" lon="6.49574">
        <ele>275.858</ele>
        <time>2015-10-03T09:31:12Z</time>
      </trkpt>
      <trkpt lat="47.39575" lon="6.49579">
        <ele>275.303</ele>
        <time>2015-10-03T09:31:13Z</time>
      </trkpt>
      <trkpt lat="47.39578" lon="6.49584">
        <ele>275.301</ele>
        <time>2015-10-03T09:31:14Z</time>
      </trkpt>
      <trkpt lat="47.3958" lon="6.49589">
        <ele>275.277</ele>
        <time>2015-10-03T09:31:15Z</time>
      </trkpt>
      <trkpt lat="47.39583" lon="6.49594">
        <ele>275.328</ele>
        <time>2015-10-03T09:31:16Z</time>
      </trkpt>
      <trkpt lat="47.39585" lon="6.49599">
        <ele>274.515</ele>
        <time>2015-10-03T09:31:17Z</time>
      </trkpt>
      <trkpt lat="47.39588" lon="6.49604">
        <ele>273.914</ele>
        <time>2015-10-03T09:31:18Z</time>
      </trkpt>
      <trkpt lat="47.39591" lon="6.49609">
        <ele>274.31</ele>
        <time>2015-10-03T09:31:19Z</time>
      </trkpt>
      <trkpt lat="47.39593" lon="6.49614">
        <ele>274.394</ele>
        <time>2015-10-03T09:31:20Z</time>
      </trkpt>
      <trkpt lat="47.39596" lon="6.49619">
        <ele>274.322</ele>
        <time>2015-10-03T09:31:21Z</time>
      </trkpt>
      <trkpt lat="47.39598" lon="6.49624">
        <ele>274.867</ele>
        <time>2015-10-03T09:31:22Z</time>
      </trkpt>
      <trkpt lat="47.39601" lon="6.49629">
        <ele>274.517</ele>
        <time>2015-10-03T09:31:23Z</time>
      </trkpt>
      <trkpt lat="47.39604" lon="6.49634">
        <ele>274.633</ele>
        <time>2015-10-03T09:31:24Z</time>
      </trkpt>
      <trkpt lat="47.39606" lon="6.49639">
        <ele>274.74</ele>
        <time>2015-10-03T09:31:25Z</time>
      </trkpt>
      <trkpt lat="47.39609" lon="6.49644">
        <ele>274.449</ele>
        <time>2015-10-03T09:31:26Z</time>
      </trkpt>
      <trkpt lat="47.39612" lon="6.49649">
        <ele>274.166</ele>
        <time>2015-10-03T09:31:27Z</time>
      </trkpt>
      <trkpt lat="47.39614" lon="6.49654">
        <ele>275.721</ele>
        <time>2015-10-03T09:31:28Z</time>
      </trkpt>
      <trkpt lat="47.39617" lon="6.49659">
        <ele>275.418</ele>
        <time>2015-10-03T09:31:29Z</time>
      </trkpt>
      <trkpt lat="47.39619" lon="6.49665">
        <ele>275.705</ele>
        <time>2015-10-03T09:31:30Z</time>
      </trkpt>
      <trkpt lat="47.39621" lon="6.4967">
        <ele>276.191</ele>
        <time>2015-10-03T09:31:31Z</time>
      </trkpt>
      <trkpt lat="47.39623" lon="6.49675">
        <ele>276.215</ele>
        <time>2015-10-03T09:31:32Z</time>
      </trkpt>
      <trkpt lat="47.39626" lon="6.4968">
        <ele>276.335</ele>
        <time>2015-10-03T09:31:33Z</time>
      </trkpt>
      <trkpt lat="47.39628" lon="6.49685">
        <ele>276.45</ele>
        <time>2015-10-03T09:31:34Z</time>
      </trkpt>
      <trkpt lat="47.3963" lon="6.4969">
        <ele>276.21</ele>
        <time>2015-10-03T09:31:35Z</time>
      </trkpt>
      <trkpt lat="47.39633" lon="6.49695">
        <ele>276.092</ele>
        <time>2015-10-03T09:31:36Z</time>
      </trkpt>
      <trkpt lat="47.39635" lon="6.49699">
        <ele>276.118</ele>
        <time>2015-10-03T09:31:37Z</time>
      </trkpt>
      <trkpt lat="47.39638" lon="6.49704">
        <ele>276.09</ele>
        <time>2015-10-03T09:31:38Z</time>
      </trkpt>
      <trkpt lat="47.3964" lon="6.49709">
        <ele>275.915</ele>
        <time>2015-10-03T09:31:39Z</time>
      </trkpt>
      <trkpt lat="47.39643" lon="6.49714">
        <ele>275.811</ele>
        <time>2015-10-03T09:31:40Z</time>
      </trkpt>
      <trkpt lat="47.39645" lon="6.49719">
        <ele>275.953</ele>
        <time>2015-10-03T09:31:41Z</time>
      </trkpt>
      <trkpt lat="47.39647" lon="6.49725">
        <ele>276.142</ele>
        <time>2015-10-03T09:31:42Z</time>
      </trkpt>
      <trkpt lat="47.39649" lon="6.49729">
        <ele>276.305</ele>
        <time>2015-10-03T09:31:43Z</time>
      </trkpt>
      <trkpt lat="47.3965" lon="6.49734">
        <ele>276.42</ele>
        <time>2015-10-03T09:31:44Z</time>
      </trkpt>
      <trkpt lat="47.39652" lon="6.49739">
        <ele>276.56</ele>
        <time>2015-10-03T09:31:45Z</time>
      </trkpt>
      <trkpt lat="47.39654" lon="6.49743">
        <ele>276.427</ele>
        <time>2015-10-03T09:31:46Z</time>
      </trkpt>
      <trkpt lat="47.39656" lon="6.49749">
        <ele>276.358</ele>
        <time>2015-10-03T09:31:47Z</time>
      </trkpt>
      <trkpt lat="47.39658" lon="6.49754">
        <ele>276.502</ele>
        <time>2015-10-03T09:31:48Z</time>
      </trkpt>
      <trkpt lat="47.3966" lon="6.49759">
        <ele>276.637</ele>
        <time>2015-10-03T09:31:49Z</time>
      </trkpt>
      <trkpt lat="47.39663" lon="6.49764">
        <ele>276.82</ele>
        <time>2015-10-03T09:31:50Z</time>
      </trkpt>
      <trkpt lat="47.39665" lon="6.49768">
        <ele>277.039</ele>
        <time>2015-10-03T09:31:51Z</time>
      </trkpt>
      <trkpt lat="47.39667" lon="6.49773">
        <ele>276.829</ele>
        <time>2015-10-03T09:31:52Z</time>
      </trkpt>
      <trkpt lat="47.39669" lon="6.49778">
        <ele>276.953</ele>
        <time>2015-10-03T09:31:53Z</time>
      </trkpt>
      <trkpt lat="47.39671" lon="6.49783">
        <ele>276.907</ele>
        <time>2015-10-03T09:31:54Z</time>
      </trkpt>
      <trkpt lat="47.39673" lon="6.49788">
        <ele>276.87</ele>
        <time>2015-10-03T09:31:55Z</time>
      </trkpt>
      <trkpt lat="47.39676" lon="6.49792">
        <ele>276.461</ele>
        <time>2015-10-03T09:31:56Z</time>
      </trkpt>
      <trkpt lat="47.39678" lon="6.49797">
        <ele>276.261</ele>
        <time>2015-10-03T09:31:57Z</time>
      </trkpt>
      <trkpt lat="47.3968" lon="6.49801">
        <ele>276.241</ele>
        <time>2015-10-03T09:31:58Z</time>
      </trkpt>
      <trkpt lat="47.39682" lon="6.49805">
        <ele>276.893</ele>
        <time>2015-10-03T09:31:59Z</time>
      </trkpt>
      <trkpt lat="47.39684" lon="6.49808">
        <ele>277.095</ele>
        <time>2015-10-03T09:32:00Z</time>
      </trkpt>
      <trkpt lat="47.39686" lon="6.49812">
        <ele>277.35</ele>
        <time>2015-10-03T09:32:01Z</time>
      </trkpt>
      <trkpt lat="47.39687" lon="6.49816">
        <ele>277.209</ele>
        <time>2015-10-03T09:32:02Z</time>
      </trkpt>
      <trkpt lat="47.39689" lon="6.49821">
        <ele>277.3</ele>
        <time>2015-10-03T09:32:03Z</time>
      </trkpt>
      <trkpt lat="47.39692" lon="6.49826">
        <ele>277.395</ele>
        <time>2015-10-03T09:32:04Z</time>
      </trkpt>
      <trkpt lat="47.39695" lon="6.4983">
        <ele>277.441</ele>
        <time>2015-10-03T09:32:05Z</time>
      </trkpt>
      <trkpt lat="47.39698" lon="6.49836">
        <ele>277.388</ele>
        <time>2015-10-03T09:32:06Z</time>
      </trkpt>
      <trkpt lat="47.397" lon="6.49841">
        <ele>277.816</ele>
        <time>2015-10-03T09:32:07Z</time>
      </trkpt>
      <trkpt lat="47.39702" lon="6.49847">
        <ele>277.887</ele>
        <time>2015-10-03T09:32:08Z</time>
      </trkpt>
      <trkpt lat="47.39705" lon="6.49853">
        <ele>277.909</ele>
        <time>2015-10-03T09:32:09Z</time>
      </trkpt>
      <trkpt lat="47.39708" lon="6.49859">
        <ele>277.869</ele>
        <time>2015-10-03T09:32:10Z</time>
      </trkpt>
      <trkpt lat="47.3971" lon="6.49864">
        <ele>278.077</ele>
        <time>2015-10-03T09:32:11Z</time>
      </trkpt>
      <trkpt lat="47.39712" lon="6.49871">
        <ele>277.884</ele>
        <time>2015-10-03T09:32:12Z</time>
      </trkpt>
      <trkpt lat="47.39715" lon="6.49876">
        <ele>278.016</ele>
        <time>2015-10-03T09:32:13Z</time>
      </trkpt>
      <trkpt lat="47.39717" lon="6.49883">
        <ele>278.059</ele>
        <time>2015-10-03T09:32:14Z</time>
      </trkpt>
      <trkpt lat="47.3972" lon="6.49888">
        <ele>277.945</ele>
        <time>2015-10-03T09:32:15Z</time>
      </trkpt>
      <trkpt lat="47.39722" lon="6.49894">
        <ele>277.883</ele>
        <time>2015-10-03T09:32:16Z</time>
      </trkpt>
      <trkpt lat="47.39724" lon="6.49899">
        <ele>277.788</ele>
        <time>2015-10-03T09:32:17Z</time>
      </trkpt>
      <trkpt lat="47.39727" lon="6.49905">
        <ele>277.563</ele>
        <time>2015-10-03T09:32:18Z</time>
      </trkpt>
      <trkpt lat="47.39728" lon="6.4991">
        <ele>277.717</ele>
        <time>2015-10-03T09:32:19Z</time>
      </trkpt>
      <trkpt lat="47.39729" lon="6.49915">
        <ele>277.978</ele>
        <time>2015-10-03T09:32:20Z</time>
      </trkpt>
      <trkpt lat="47.3973" lon="6.49919">
        <ele>277.808</ele>
        <time>2015-10-03T09:32:21Z</time>
      </trkpt>
      <trkpt lat="47.39731" lon="6.49925">
        <ele>277.735</ele>
        <time>2015-10-03T09:32:22Z</time>
      </trkpt>
      <trkpt lat="47.39733" lon="6.49931">
        <ele>277.697</ele>
        <time>2015-10-03T09:32:23Z</time>
      </trkpt>
      <trkpt lat="47.39735" lon="6.49937">
        <ele>277.531</ele>
        <time>2015-10-03T09:32:24Z</time>
      </trkpt>
      <trkpt lat="47.39737" lon="6.49942">
        <ele>277.692</ele>
        <time>2015-10-03T09:32:25Z</time>
      </trkpt>
      <trkpt lat="47.39739" lon="6.49948">
        <ele>277.545</ele>
        <time>2015-10-03T09:32:26Z</time>
      </trkpt>
      <trkpt lat="47.39742" lon="6.49954">
        <ele>277.862</ele>
        <time>2015-10-03T09:32:27Z</time>
      </trkpt>
      <trkpt lat="47.39744" lon="6.49959">
        <ele>278.094</ele>
        <time>2015-10-03T09:32:28Z</time>
      </trkpt>
      <trkpt lat="47.39746" lon="6.49964">
        <ele>277.854</ele>
        <time>2015-10-03T09:32:29Z</time>
      </trkpt>
      <trkpt lat="47.39749" lon="6.4997">
        <ele>277.844</ele>
        <time>2015-10-03T09:32:30Z</time>
      </trkpt>
      <trkpt lat="47.39751" lon="6.49976">
        <ele>277.845</ele>
        <time>2015-10-03T09:32:31Z</time>
      </trkpt>
      <trkpt lat="47.39752" lon="6.49981">
        <ele>278.283</ele>
        <time>2015-10-03T09:32:32Z</time>
      </trkpt>
      <trkpt lat="47.39754" lon="6.49986">
        <ele>278.577</ele>
        <time>2015-10-03T09:32:33Z</time>
      </trkpt>
      <trkpt lat="47.39755" lon="6.49992">
        <ele>278.658</ele>
        <time>2015-10-03T09:32:34Z</time>
      </trkpt>
      <trkpt lat="47.39757" lon="6.49998">
        <ele>278.802</ele>
        <time>2015-10-03T09:32:35Z</time>
      </trkpt>
      <trkpt lat="47.39758" lon="6.50004">
        <ele>278.838</ele>
        <time>2015-10-03T09:32:36Z</time>
      </trkpt>
      <trkpt lat="47.3976" lon="6.5001">
        <ele>278.965</ele>
        <time>2015-10-03T09:32:37Z</time>
      </trkpt>
      <trkpt lat="47.39761" lon="6.50015">
        <ele>279.069</ele>
        <time>2015-10-03T09:32:38Z</time>
      </trkpt>
      <trkpt lat="47.39763" lon="6.50021">
        <ele>279.028</ele>
        <time>2015-10-03T09:32:39Z</time>
      </trkpt>
      <trkpt lat="47.39764" lon="6.50027">
        <ele>279.093</ele>
        <time>2015-10-03T09:32:40Z</time>
      </trkpt>
      <trkpt lat="47.39767" lon="6.50035">
        <ele>279.209</ele>
        <time>2015-10-03T09:32:41Z</time>
      </trkpt>
      <trkpt lat="47.39768" lon="6.50041">
        <ele>279.153</ele>
        <time>2015-10-03T09:32:42Z</time>
      </trkpt>
      <trkpt lat="47.39769" lon="6.50046">
        <ele>278.395</ele>
        <time>2015-10-03T09:32:43Z</time>
      </trkpt>
      <trkpt lat="47.3977" lon="6.50051">
        <ele>278.14</ele>
        <time>2015-10-03T09:32:44Z</time>
      </trkpt>
      <trkpt lat="47.39771" lon="6.50056">
        <ele>278.038</ele>
        <time>2015-10-03T09:32:45Z</time>
      </trkpt>
      <trkpt lat="47.39771" lon="6.50062">
        <ele>278.085</ele>
        <time>2015-10-03T09:32:46Z</time>
      </trkpt>
      <trkpt lat="47.39774" lon="6.50069">
        <ele>277.88</ele>
        <time>2015-10-03T09:32:47Z</time>
      </trkpt>
      <trkpt lat="47.39775" lon="6.50075">
        <ele>277.673</ele>
        <time>2015-10-03T09:32:48Z</time>
      </trkpt>
      <trkpt lat="47.39779" lon="6.50082">
        <ele>276.725</ele>
        <time>2015-10-03T09:32:49Z</time>
      </trkpt>
      <trkpt lat="47.3978" lon="6.50083">
        <ele>276.246</ele>
        <time>2015-10-03T09:32:50Z</time>
      </trkpt>
      <trkpt lat="47.3978" lon="6.50088">
        <ele>276.262</ele>
        <time>2015-10-03T09:32:51Z</time>
      </trkpt>
      <trkpt lat="47.39779" lon="6.50094">
        <ele>276.237</ele>
        <time>2015-10-03T09:32:52Z</time>
      </trkpt>
      <trkpt lat="47.39779" lon="6.50099">
        <ele>276.18</ele>
        <time>2015-10-03T09:32:53Z</time>
      </trkpt>
      <trkpt lat="47.39776" lon="6.501">
        <ele>276.17</ele>
        <time>2015-10-03T09:32:54Z</time>
      </trkpt>
      <trkpt lat="47.39776" lon="6.50105">
        <ele>276.166</ele>
        <time>2015-10-03T09:32:55Z</time>
      </trkpt>
      <trkpt lat="47.3977" lon="6.50115">
        <ele>276.178</ele>
        <time>2015-10-03T09:32:56Z</time>
      </trkpt>
      <trkpt lat="47.39768" lon="6.50117">
        <ele>276.118</ele>
        <time>2015-10-03T09:32:57Z</time>
      </trkpt>
      <trkpt lat="47.39762" lon="6.5012">
        <ele>276.232</ele>
        <time>2015-10-03T09:32:58Z</time>
      </trkpt>
      <trkpt lat="47.39761" lon="6.50126">
        <ele>276.279</ele>
        <time>2015-10-03T09:32:59Z</time>
      </trkpt>
      <trkpt lat="47.3976" lon="6.50134">
        <ele>276.286</ele>
        <time>2015-10-03T09:33:00Z</time>
      </trkpt>
      <trkpt lat="47.39761" lon="6.50145">
        <ele>276.458</ele>
        <time>2015-10-03T09:33:01Z</time>
      </trkpt>
      <trkpt lat="47.39759" lon="6.50151">
        <ele>276.498</ele>
        <time>2015-10-03T09:33:02Z</time>
      </trkpt>
      <trkpt lat="47.39757" lon="6.50156">
        <ele>276.823</ele>
        <time>2015-10-03T09:33:03Z</time>
      </trkpt>
      <trkpt lat="47.39756" lon="6.50161">
        <ele>276.801</ele>
        <time>2015-10-03T09:33:04Z</time>
      </trkpt>
      <trkpt lat="47.39757" lon="6.50169">
        <ele>276.076</ele>
        <time>2015-10-03T09:33:05Z</time>
      </trkpt>
      <trkpt lat="47.39756" lon="6.50178">
        <ele>274.92</ele>
        <time>2015-10-03T09:33:06Z</time>
      </trkpt>
      <trkpt lat="47.39753" lon="6.50181">
        <ele>273.482</ele>
        <time>2015-10-03T09:33:07Z</time>
      </trkpt>
      <trkpt lat="47.39753" lon="6.50186">
        <ele>271.971</ele>
        <time>2015-10-03T09:33:08Z</time>
      </trkpt>
      <trkpt lat="47.39752" lon="6.50192">
        <ele>270.809</ele>
        <time>2015-10-03T09:33:09Z</time>
      </trkpt>
      <trkpt lat="47.3975" lon="6.50196">
        <ele>271</ele>
        <time>2015-10-03T09:33:10Z</time>
      </trkpt>
      <trkpt lat="47.39748" lon="6.50201">
        <ele>270.802</ele>
        <time>2015-10-03T09:33:11Z</time>
      </trkpt>
      <trkpt lat="47.39748" lon="6.50209">
        <ele>270.271</ele>
        <time>2015-10-03T09:33:12Z</time>
      </trkpt>
      <trkpt lat="47.39747" lon="6.50215">
        <ele>270.542</ele>
        <time>2015-10-03T09:33:13Z</time>
      </trkpt>
      <trkpt lat="47.39751" lon="6.50229">
        <ele>271.128</ele>
        <time>2015-10-03T09:33:14Z</time>
      </trkpt>
      <trkpt lat="47.39751" lon="6.50236">
        <ele>270.61</ele>
        <time>2015-10-03T09:33:15Z</time>
      </trkpt>
      <trkpt lat="47.39751" lon="6.50243">
        <ele>271.058</ele>
        <time>2015-10-03T09:33:16Z</time>
      </trkpt>
      <trkpt lat="47.3975" lon="6.50249">
        <ele>271.213</ele>
        <time>2015-10-03T09:33:17Z</time>
      </trkpt>
      <trkpt lat="47.3975" lon="6.50255">
        <ele>269.024</ele>
        <time>2015-10-03T09:33:18Z</time>
      </trkpt>
      <trkpt lat="47.39749" lon="6.50262">
        <ele>268.228</ele>
        <time>2015-10-03T09:33:19Z</time>
      </trkpt>
      <trkpt lat="47.39747" lon="6.50269">
        <ele>267.385</ele>
        <time>2015-10-03T09:33:20Z</time>
      </trkpt>
      <trkpt lat="47.39745" lon="6.50272">
        <ele>268.496</ele>
        <time>2015-10-03T09:33:21Z</time>
      </trkpt>
      <trkpt lat="47.39744" lon="6.50277">
        <ele>268.594</ele>
        <time>2015-10-03T09:33:22Z</time>
      </trkpt>
      <trkpt lat="47.39741" lon="6.50279">
        <ele>266.361</ele>
        <time>2015-10-03T09:33:23Z</time>
      </trkpt>
      <trkpt lat="47.39739" lon="6.50282">
        <ele>265.045</ele>
        <time>2015-10-03T09:33:24Z</time>
      </trkpt>
      <trkpt lat="47.39737" lon="6.50287">
        <ele>264.081</ele>
        <time>2015-10-03T09:33:25Z</time>
      </trkpt>
      <trkpt lat="47.39736" lon="6.50294">
        <ele>264.488</ele>
        <time>2015-10-03T09:33:26Z</time>
      </trkpt>
      <trkpt lat="47.39735" lon="6.50301">
        <ele>265.461</ele>
        <time>2015-10-03T09:33:27Z</time>
      </trkpt>
      <trkpt lat="47.39734" lon="6.50307">
        <ele>264.781</ele>
        <time>2015-10-03T09:33:28Z</time>
      </trkpt>
      <trkpt lat="47.39732" lon="6.50312">
        <ele>265.735</ele>
        <time>2015-10-03T09:33:29Z</time>
      </trkpt>
      <trkpt lat="47.39731" lon="6.50317">
        <ele>266.81</ele>
        <time>2015-10-03T09:33:30Z</time>
      </trkpt>
      <trkpt lat="47.39729" lon="6.50324">
        <ele>267.482</ele>
        <time>2015-10-03T09:33:31Z</time>
      </trkpt>
      <trkpt lat="47.39729" lon="6.5033">
        <ele>266.246</ele>
        <time>2015-10-03T09:33:32Z</time>
      </trkpt>
      <trkpt lat="47.39728" lon="6.50335">
        <ele>265.16</ele>
        <time>2015-10-03T09:33:33Z</time>
      </trkpt>
      <trkpt lat="47.39726" lon="6.5034">
        <ele>265.36</ele>
        <time>2015-10-03T09:33:34Z</time>
      </trkpt>
      <trkpt lat="47.39725" lon="6.50346">
        <ele>265.953</ele>
        <time>2015-10-03T09:33:35Z</time>
      </trkpt>
      <trkpt lat="47.39725" lon="6.50353">
        <ele>267.108</ele>
        <time>2015-10-03T09:33:36Z</time>
      </trkpt>
      <trkpt lat="47.39725" lon="6.5036">
        <ele>266.966</ele>
        <time>2015-10-03T09:33:37Z</time>
      </trkpt>
      <trkpt lat="47.39725" lon="6.50366">
        <ele>267.702</ele>
        <time>2015-10-03T09:33:38Z</time>
      </trkpt>
      <trkpt lat="47.39725" lon="6.50373">
        <ele>267.765</ele>
        <time>2015-10-03T09:33:39Z</time>
      </trkpt>
      <trkpt lat="47.39725" lon="6.5038">
        <ele>268.925</ele>
        <time>2015-10-03T09:33:40Z</time>
      </trkpt>
      <trkpt lat="47.39724" lon="6.50386">
        <ele>270.118</ele>
        <time>2015-10-03T09:33:41Z</time>
      </trkpt>
      <trkpt lat="47.39723" lon="6.50392">
        <ele>269.993</ele>
        <time>2015-10-03T09:33:42Z</time>
      </trkpt>
      <trkpt lat="47.39721" lon="6.50398">
        <ele>270.556</ele>
        <time>2015-10-03T09:33:43Z</time>
      </trkpt>
      <trkpt lat="47.39719" lon="6.50404">
        <ele>270.729</ele>
        <time>2015-10-03T09:33:44Z</time>
      </trkpt>
      <trkpt lat="47.39717" lon="6.5041">
        <ele>273.82</ele>
        <time>2015-10-03T09:33:45Z</time>
      </trkpt>
      <trkpt lat="47.39717" lon="6.50417">
        <ele>275.199</ele>
        <time>2015-10-03T09:33:46Z</time>
      </trkpt>
      <trkpt lat="47.39717" lon="6.50424">
        <ele>275.851</ele>
        <time>2015-10-03T09:33:47Z</time>
      </trkpt>
      <trkpt lat="47.39717" lon="6.50431">
        <ele>274.707</ele>
        <time>2015-10-03T09:33:48Z</time>
      </trkpt>
      <trkpt lat="47.39717" lon="6.50438">
        <ele>274.518</ele>
        <time>2015-10-03T09:33:49Z</time>
      </trkpt>
      <trkpt lat="47.39721" lon="6.50451">
        <ele>274.199</ele>
        <time>2015-10-03T09:33:50Z</time>
      </trkpt>
      <trkpt lat="47.39724" lon="6.50459">
        <ele>274.202</ele>
        <time>2015-10-03T09:33:51Z</time>
      </trkpt>
      <trkpt lat="47.39726" lon="6.50468">
        <ele>274.768</ele>
        <time>2015-10-03T09:33:52Z</time>
      </trkpt>
      <trkpt lat="47.39726" lon="6.50475">
        <ele>274.261</ele>
        <time>2015-10-03T09:33:53Z</time>
      </trkpt>
      <trkpt lat="47.39729" lon="6.50483">
        <ele>275.098</ele>
        <time>2015-10-03T09:33:54Z</time>
      </trkpt>
      <trkpt lat="47.39729" lon="6.50489">
        <ele>275.424</ele>
        <time>2015-10-03T09:33:55Z</time>
      </trkpt>
      <trkpt lat="47.3973" lon="6.50496">
        <ele>275.761</ele>
        <time>2015-10-03T09:33:56Z</time>
      </trkpt>
      <trkpt lat="47.39732" lon="6.50502">
        <ele>275.966</ele>
        <time>2015-10-03T09:33:57Z</time>
      </trkpt>
      <trkpt lat="47.39734" lon="6.50509">
        <ele>276.153</ele>
        <time>2015-10-03T09:33:58Z</time>
      </trkpt>
      <trkpt lat="47.39737" lon="6.50515">
        <ele>276.407</ele>
        <time>2015-10-03T09:33:59Z</time>
      </trkpt>
      <trkpt lat="47.39739" lon="6.50521">
        <ele>276.475</ele>
        <time>2015-10-03T09:34:00Z</time>
      </trkpt>
      <trkpt lat="47.3974" lon="6.50524">
        <ele>275.319</ele>
        <time>2015-10-03T09:34:01Z</time>
      </trkpt>
      <trkpt lat="47.39742" lon="6.50529">
        <ele>274.814</ele>
        <time>2015-10-03T09:34:02Z</time>
      </trkpt>
      <trkpt lat="47.39747" lon="6.50538">
        <ele>274.725</ele>
        <time>2015-10-03T09:34:03Z</time>
      </trkpt>
      <trkpt lat="47.39753" lon="6.50545">
        <ele>273.491</ele>
        <time>2015-10-03T09:34:04Z</time>
      </trkpt>
      <trkpt lat="47.39755" lon="6.50549">
        <ele>272.959</ele>
        <time>2015-10-03T09:34:05Z</time>
      </trkpt>
      <trkpt lat="47.39758" lon="6.50554">
        <ele>272.972</ele>
        <time>2015-10-03T09:34:06Z</time>
      </trkpt>
      <trkpt lat="47.39761" lon="6.50559">
        <ele>272.886</ele>
        <time>2015-10-03T09:34:07Z</time>
      </trkpt>
      <trkpt lat="47.39764" lon="6.50564">
        <ele>272.437</ele>
        <time>2015-10-03T09:34:08Z</time>
      </trkpt>
      <trkpt lat="47.39767" lon="6.50569">
        <ele>272.495</ele>
        <time>2015-10-03T09:34:09Z</time>
      </trkpt>
      <trkpt lat="47.3977" lon="6.50573">
        <ele>272.25</ele>
        <time>2015-10-03T09:34:10Z</time>
      </trkpt>
      <trkpt lat="47.39773" lon="6.50578">
        <ele>272.268</ele>
        <time>2015-10-03T09:34:11Z</time>
      </trkpt>
      <trkpt lat="47.39776" lon="6.50583">
        <ele>272.173</ele>
        <time>2015-10-03T09:34:12Z</time>
      </trkpt>
      <trkpt lat="47.39779" lon="6.50587">
        <ele>272.229</ele>
        <time>2015-10-03T09:34:13Z</time>
      </trkpt>
      <trkpt lat="47.39782" lon="6.50592">
        <ele>272.286</ele>
        <time>2015-10-03T09:34:14Z</time>
      </trkpt>
      <trkpt lat="47.39785" lon="6.50597">
        <ele>272.156</ele>
        <time>2015-10-03T09:34:15Z</time>
      </trkpt>
      <trkpt lat="47.39789" lon="6.50601">
        <ele>271.997</ele>
        <time>2015-10-03T09:34:16Z</time>
      </trkpt>
      <trkpt lat="47.39792" lon="6.50605">
        <ele>271.435</ele>
        <time>2015-10-03T09:34:17Z</time>
      </trkpt>
      <trkpt lat="47.39796" lon="6.50609">
        <ele>271.152</ele>
        <time>2015-10-03T09:34:18Z</time>
      </trkpt>
      <trkpt lat="47.398" lon="6.50613">
        <ele>270.133</ele>
        <time>2015-10-03T09:34:19Z</time>
      </trkpt>
      <trkpt lat="47.39803" lon="6.50618">
        <ele>270.884</ele>
        <time>2015-10-03T09:34:20Z</time>
      </trkpt>
      <trkpt lat="47.39807" lon="6.50623">
        <ele>269.918</ele>
        <time>2015-10-03T09:34:21Z</time>
      </trkpt>
      <trkpt lat="47.3981" lon="6.50627">
        <ele>269.573</ele>
        <time>2015-10-03T09:34:22Z</time>
      </trkpt>
      <trkpt lat="47.39814" lon="6.50631">
        <ele>269.987</ele>
        <time>2015-10-03T09:34:23Z</time>
      </trkpt>
      <trkpt lat="47.39817" lon="6.50635">
        <ele>270.078</ele>
        <time>2015-10-03T09:34:24Z</time>
      </trkpt>
      <trkpt lat="47.39821" lon="6.50639">
        <ele>270.734</ele>
        <time>2015-10-03T09:34:25Z</time>
      </trkpt>
      <trkpt lat="47.39825" lon="6.50644">
        <ele>271.339</ele>
        <time>2015-10-03T09:34:26Z</time>
      </trkpt>
      <trkpt lat="47.39829" lon="6.50649">
        <ele>271.303</ele>
        <time>2015-10-03T09:34:27Z</time>
      </trkpt>
      <trkpt lat="47.39833" lon="6.50653">
        <ele>271.216</ele>
        <time>2015-10-03T09:34:28Z</time>
      </trkpt>
      <trkpt lat="47.39837" lon="6.50657">
        <ele>271.703</ele>
        <time>2015-10-03T09:34:29Z</time>
      </trkpt>
      <trkpt lat="47.39841" lon="6.5066">
        <ele>271.229</ele>
        <time>2015-10-03T09:34:30Z</time>
      </trkpt>
      <trkpt lat="47.39845" lon="6.50665">
        <ele>271.739</ele>
        <time>2015-10-03T09:34:31Z</time>
      </trkpt>
      <trkpt lat="47.39849" lon="6.50669">
        <ele>272.233</ele>
        <time>2015-10-03T09:34:32Z</time>
      </trkpt>
      <trkpt lat="47.39853" lon="6.50673">
        <ele>272.309</ele>
        <time>2015-10-03T09:34:33Z</time>
      </trkpt>
      <trkpt lat="47.39856" lon="6.50677">
        <ele>272.831</ele>
        <time>2015-10-03T09:34:34Z</time>
      </trkpt>
      <trkpt lat="47.3986" lon="6.50681">
        <ele>272.825</ele>
        <time>2015-10-03T09:34:35Z</time>
      </trkpt>
      <trkpt lat="47.39864" lon="6.50685">
        <ele>272.943</ele>
        <time>2015-10-03T09:34:36Z</time>
      </trkpt>
      <trkpt lat="47.39867" lon="6.50689">
        <ele>273.245</ele>
        <time>2015-10-03T09:34:37Z</time>
      </trkpt>
      <trkpt lat="47.39871" lon="6.50693">
        <ele>273.633</ele>
        <time>2015-10-03T09:34:38Z</time>
      </trkpt>
      <trkpt lat="47.39875" lon="6.50696">
        <ele>273.254</ele>
        <time>2015-10-03T09:34:39Z</time>
      </trkpt>
      <trkpt lat="47.39879" lon="6.507">
        <ele>272.943</ele>
        <time>2015-10-03T09:34:40Z</time>
      </trkpt>
      <trkpt lat="47.39883" lon="6.50704">
        <ele>272.621</ele>
        <time>2015-10-03T09:34:41Z</time>
      </trkpt>
      <trkpt lat="47.39886" lon="6.50707">
        <ele>272.706</ele>
        <time>2015-10-03T09:34:42Z</time>
      </trkpt>
      <trkpt lat="47.3989" lon="6.50711">
        <ele>272.135</ele>
        <time>2015-10-03T09:34:43Z</time>
      </trkpt>
      <trkpt lat="47.39894" lon="6.50714">
        <ele>272.514</ele>
        <time>2015-10-03T09:34:44Z</time>
      </trkpt>
      <trkpt lat="47.39899" lon="6.50718">
        <ele>273.122</ele>
        <time>2015-10-03T09:34:45Z</time>
      </trkpt>
      <trkpt lat="47.39903" lon="6.50724">
        <ele>274.272</ele>
        <time>2015-10-03T09:34:46Z</time>
      </trkpt>
      <trkpt lat="47.39907" lon="6.50727">
        <ele>274.673</ele>
        <time>2015-10-03T09:34:47Z</time>
      </trkpt>
      <trkpt lat="47.39911" lon="6.50731">
        <ele>274.944</ele>
        <time>2015-10-03T09:34:48Z</time>
      </trkpt>
      <trkpt lat="47.39915" lon="6.50735">
        <ele>274.887</ele>
        <time>2015-10-03T09:34:49Z</time>
      </trkpt>
      <trkpt lat="47.39919" lon="6.50739">
        <ele>274.032</ele>
        <time>2015-10-03T09:34:50Z</time>
      </trkpt>
      <trkpt lat="47.39923" lon="6.50742">
        <ele>273.449</ele>
        <time>2015-10-03T09:34:51Z</time>
      </trkpt>
      <trkpt lat="47.39927" lon="6.50746">
        <ele>274.003</ele>
        <time>2015-10-03T09:34:52Z</time>
      </trkpt>
      <trkpt lat="47.39931" lon="6.5075">
        <ele>274.189</ele>
        <time>2015-10-03T09:34:53Z</time>
      </trkpt>
      <trkpt lat="47.39935" lon="6.50753">
        <ele>274.208</ele>
        <time>2015-10-03T09:34:54Z</time>
      </trkpt>
      <trkpt lat="47.39939" lon="6.50756">
        <ele>274.532</ele>
        <time>2015-10-03T09:34:55Z</time>
      </trkpt>
      <trkpt lat="47.39942" lon="6.50759">
        <ele>274.496</ele>
        <time>2015-10-03T09:34:56Z</time>
      </trkpt>
      <trkpt lat="47.39945" lon="6.50762">
        <ele>274.497</ele>
        <time>2015-10-03T09:34:57Z</time>
      </trkpt>
      <trkpt lat="47.39949" lon="6.50764">
        <ele>274.343</ele>
        <time>2015-10-03T09:34:58Z</time>
      </trkpt>
      <trkpt lat="47.39953" lon="6.50767">
        <ele>274.315</ele>
        <time>2015-10-03T09:34:59Z</time>
      </trkpt>
      <trkpt lat="47.39956" lon="6.5077">
        <ele>274.174</ele>
        <time>2015-10-03T09:35:00Z</time>
      </trkpt>
      <trkpt lat="47.3996" lon="6.50774">
        <ele>275.089</ele>
        <time>2015-10-03T09:35:01Z</time>
      </trkpt>
      <trkpt lat="47.39964" lon="6.50777">
        <ele>273.687</ele>
        <time>2015-10-03T09:35:02Z</time>
      </trkpt>
      <trkpt lat="47.39968" lon="6.50779">
        <ele>272.6</ele>
        <time>2015-10-03T09:35:03Z</time>
      </trkpt>
      <trkpt lat="47.39971" lon="6.50782">
        <ele>273.953</ele>
        <time>2015-10-03T09:35:04Z</time>
      </trkpt>
      <trkpt lat="47.39975" lon="6.50785">
        <ele>272.432</ele>
        <time>2015-10-03T09:35:05Z</time>
      </trkpt>
      <trkpt lat="47.39979" lon="6.50787">
        <ele>272.314</ele>
        <time>2015-10-03T09:35:06Z</time>
      </trkpt>
      <trkpt lat="47.39983" lon="6.5079">
        <ele>272.441</ele>
        <time>2015-10-03T09:35:07Z</time>
      </trkpt>
      <trkpt lat="47.39987" lon="6.50793">
        <ele>272.241</ele>
        <time>2015-10-03T09:35:08Z</time>
      </trkpt>
      <trkpt lat="47.3999" lon="6.50796">
        <ele>272.62</ele>
        <time>2015-10-03T09:35:09Z</time>
      </trkpt>
      <trkpt lat="47.39994" lon="6.50799">
        <ele>272.856</ele>
        <time>2015-10-03T09:35:10Z</time>
      </trkpt>
      <trkpt lat="47.39998" lon="6.50801">
        <ele>272.408</ele>
        <time>2015-10-03T09:35:11Z</time>
      </trkpt>
      <trkpt lat="47.40002" lon="6.50804">
        <ele>272.21</ele>
        <time>2015-10-03T09:35:12Z</time>
      </trkpt>
      <trkpt lat="47.40006" lon="6.50807">
        <ele>272.278</ele>
        <time>2015-10-03T09:35:13Z</time>
      </trkpt>
      <trkpt lat="47.4001" lon="6.5081">
        <ele>272.486</ele>
        <time>2015-10-03T09:35:14Z</time>
      </trkpt>
      <trkpt lat="47.40014" lon="6.50813">
        <ele>272.567</ele>
        <time>2015-10-03T09:35:15Z</time>
      </trkpt>
      <trkpt lat="47.40018" lon="6.50816">
        <ele>272.977</ele>
        <time>2015-10-03T09:35:16Z</time>
      </trkpt>
      <trkpt lat="47.40021" lon="6.50819">
        <ele>273.678</ele>
        <time>2015-10-03T09:35:17Z</time>
      </trkpt>
      <trkpt lat="47.40025" lon="6.50822">
        <ele>274.264</ele>
        <time>2015-10-03T09:35:18Z</time>
      </trkpt>
      <trkpt lat="47.40029" lon="6.50825">
        <ele>272.95</ele>
        <time>2015-10-03T09:35:19Z</time>
      </trkpt>
      <trkpt lat="47.40033" lon="6.50828">
        <ele>272.44</ele>
        <time>2015-10-03T09:35:20Z</time>
      </trkpt>
      <trkpt lat="47.40037" lon="6.5083">
        <ele>272.471</ele>
        <time>2015-10-03T09:35:21Z</time>
      </trkpt>
      <trkpt lat="47.40041" lon="6.50833">
        <ele>272.998</ele>
        <time>2015-10-03T09:35:22Z</time>
      </trkpt>
      <trkpt lat="47.40044" lon="6.50836">
        <ele>273.465</ele>
        <time>2015-10-03T09:35:23Z</time>
      </trkpt>
      <trkpt lat="47.40049" lon="6.50839">
        <ele>273.333</ele>
        <time>2015-10-03T09:35:24Z</time>
      </trkpt>
      <trkpt lat="47.40053" lon="6.50842">
        <ele>273.676</ele>
        <time>2015-10-03T09:35:25Z</time>
      </trkpt>
      <trkpt lat="47.40057" lon="6.50845">
        <ele>273.766</ele>
        <time>2015-10-03T09:35:26Z</time>
      </trkpt>
      <trkpt lat="47.40061" lon="6.50848">
        <ele>272.773</ele>
        <time>2015-10-03T09:35:27Z</time>
      </trkpt>
      <trkpt lat="47.40065" lon="6.50851">
        <ele>273.016</ele>
        <time>2015-10-03T09:35:28Z</time>
      </trkpt>
      <trkpt lat="47.40069" lon="6.50854">
        <ele>273.118</ele>
        <time>2015-10-03T09:35:29Z</time>
      </trkpt>
      <trkpt lat="47.40073" lon="6.50856">
        <ele>273.786</ele>
        <time>2015-10-03T09:35:30Z</time>
      </trkpt>
      <trkpt lat="47.40077" lon="6.50858">
        <ele>274.283</ele>
        <time>2015-10-03T09:35:31Z</time>
      </trkpt>
      <trkpt lat="47.40081" lon="6.50862">
        <ele>275.431</ele>
        <time>2015-10-03T09:35:32Z</time>
      </trkpt>
      <trkpt lat="47.40084" lon="6.50864">
        <ele>275.96</ele>
        <time>2015-10-03T09:35:33Z</time>
      </trkpt>
      <trkpt lat="47.40088" lon="6.50867">
        <ele>276.126</ele>
        <time>2015-10-03T09:35:34Z</time>
      </trkpt>
      <trkpt lat="47.40092" lon="6.5087">
        <ele>276.799</ele>
        <time>2015-10-03T09:35:35Z</time>
      </trkpt>
      <trkpt lat="47.40096" lon="6.50873">
        <ele>276.515</ele>
        <time>2015-10-03T09:35:36Z</time>
      </trkpt>
      <trkpt lat="47.401" lon="6.50877">
        <ele>276.993</ele>
        <time>2015-10-03T09:35:37Z</time>
      </trkpt>
      <trkpt lat="47.40105" lon="6.5088">
        <ele>277.022</ele>
        <time>2015-10-03T09:35:38Z</time>
      </trkpt>
      <trkpt lat="47.4011" lon="6.50883">
        <ele>277.405</ele>
        <time>2015-10-03T09:35:39Z</time>
      </trkpt>
      <trkpt lat="47.40114" lon="6.50886">
        <ele>276.777</ele>
        <time>2015-10-03T09:35:40Z</time>
      </trkpt>
      <trkpt lat="47.40118" lon="6.50889">
        <ele>276.826</ele>
        <time>2015-10-03T09:35:41Z</time>
      </trkpt>
      <trkpt lat="47.40121" lon="6.50891">
        <ele>275.625</ele>
        <time>2015-10-03T09:35:42Z</time>
      </trkpt>
      <trkpt lat="47.40125" lon="6.50892">
        <ele>273.187</ele>
        <time>2015-10-03T09:35:43Z</time>
      </trkpt>
      <trkpt lat="47.40129" lon="6.50894">
        <ele>271.584</ele>
        <time>2015-10-03T09:35:44Z</time>
      </trkpt>
      <trkpt lat="47.40132" lon="6.50897">
        <ele>271.664</ele>
        <time>2015-10-03T09:35:45Z</time>
      </trkpt>
      <trkpt lat="47.40136" lon="6.509">
        <ele>271.899</ele>
        <time>2015-10-03T09:35:46Z</time>
      </trkpt>
      <trkpt lat="47.4014" lon="6.50903">
        <ele>272.252</ele>
        <time>2015-10-03T09:35:47Z</time>
      </trkpt>
      <trkpt lat="47.40144" lon="6.50906">
        <ele>271.924</ele>
        <time>2015-10-03T09:35:48Z</time>
      </trkpt>
      <trkpt lat="47.40148" lon="6.50909">
        <ele>272.434</ele>
        <time>2015-10-03T09:35:49Z</time>
      </trkpt>
      <trkpt lat="47.40152" lon="6.50911">
        <ele>272.215</ele>
        <time>2015-10-03T09:35:50Z</time>
      </trkpt>
      <trkpt lat="47.40156" lon="6.50914">
        <ele>272.26</ele>
        <time>2015-10-03T09:35:51Z</time>
      </trkpt>
      <trkpt lat="47.4016" lon="6.50917">
        <ele>271.726</ele>
        <time>2015-10-03T09:35:52Z</time>
      </trkpt>
      <trkpt lat="47.40164" lon="6.5092">
        <ele>271.46</ele>
        <time>2015-10-03T09:35:53Z</time>
      </trkpt>
      <trkpt lat="47.40168" lon="6.50923">
        <ele>271.248</ele>
        <time>2015-10-03T09:35:54Z</time>
      </trkpt>
      <trkpt lat="47.40172" lon="6.50925">
        <ele>271.44</ele>
        <time>2015-10-03T09:35:55Z</time>
      </trkpt>
      <trkpt lat="47.40176" lon="6.50928">
        <ele>271.977</ele>
        <time>2015-10-03T09:35:56Z</time>
      </trkpt>
      <trkpt lat="47.40181" lon="6.50931">
        <ele>272.336</ele>
        <time>2015-10-03T09:35:57Z</time>
      </trkpt>
      <trkpt lat="47.40184" lon="6.50935">
        <ele>272.546</ele>
        <time>2015-10-03T09:35:58Z</time>
      </trkpt>
      <trkpt lat="47.40189" lon="6.50936">
        <ele>272.728</ele>
        <time>2015-10-03T09:35:59Z</time>
      </trkpt>
      <trkpt lat="47.40194" lon="6.50939">
        <ele>272.934</ele>
        <time>2015-10-03T09:36:00Z</time>
      </trkpt>
      <trkpt lat="47.40197" lon="6.50944">
        <ele>272.405</ele>
        <time>2015-10-03T09:36:01Z</time>
      </trkpt>
      <trkpt lat="47.402" lon="6.50947">
        <ele>272.892</ele>
        <time>2015-10-03T09:36:02Z</time>
      </trkpt>
      <trkpt lat="47.40205" lon="6.5095">
        <ele>271.967</ele>
        <time>2015-10-03T09:36:03Z</time>
      </trkpt>
      <trkpt lat="47.40209" lon="6.50952">
        <ele>271.388</ele>
        <time>2015-10-03T09:36:04Z</time>
      </trkpt>
      <trkpt lat="47.40216" lon="6.50951">
        <ele>271.724</ele>
        <time>2015-10-03T09:36:05Z</time>
      </trkpt>
      <trkpt lat="47.4022" lon="6.50954">
        <ele>270.629</ele>
        <time>2015-10-03T09:36:06Z</time>
      </trkpt>
      <trkpt lat="47.40223" lon="6.50957">
        <ele>271.372</ele>
        <time>2015-10-03T09:36:07Z</time>
      </trkpt>
      <trkpt lat="47.40228" lon="6.50958">
        <ele>270.76</ele>
        <time>2015-10-03T09:36:08Z</time>
      </trkpt>
      <trkpt lat="47.40231" lon="6.50961">
        <ele>271.765</ele>
        <time>2015-10-03T09:36:09Z</time>
      </trkpt>
      <trkpt lat="47.40235" lon="6.50964">
        <ele>271.289</ele>
        <time>2015-10-03T09:36:10Z</time>
      </trkpt>
      <trkpt lat="47.40239" lon="6.50968">
        <ele>270.512</ele>
        <time>2015-10-03T09:36:11Z</time>
      </trkpt>
      <trkpt lat="47.40243" lon="6.5097">
        <ele>270.695</ele>
        <time>2015-10-03T09:36:12Z</time>
      </trkpt>
      <trkpt lat="47.40245" lon="6.50975">
        <ele>271.375</ele>
        <time>2015-10-03T09:36:13Z</time>
      </trkpt>
      <trkpt lat="47.40248" lon="6.50977">
        <ele>271.116</ele>
        <time>2015-10-03T09:36:14Z</time>
      </trkpt>
      <trkpt lat="47.40251" lon="6.50982">
        <ele>271.41</ele>
        <time>2015-10-03T09:36:15Z</time>
      </trkpt>
      <trkpt lat="47.40259" lon="6.50977">
        <ele>272.348</ele>
        <time>2015-10-03T09:36:16Z</time>
      </trkpt>
      <trkpt lat="47.40263" lon="6.5098">
        <ele>272.018</ele>
        <time>2015-10-03T09:36:17Z</time>
      </trkpt>
      <trkpt lat="47.40267" lon="6.50983">
        <ele>273.982</ele>
        <time>2015-10-03T09:36:18Z</time>
      </trkpt>
      <trkpt lat="47.40268" lon="6.50993">
        <ele>275.796</ele>
        <time>2015-10-03T09:36:19Z</time>
      </trkpt>
      <trkpt lat="47.40272" lon="6.50995">
        <ele>276.3</ele>
        <time>2015-10-03T09:36:20Z</time>
      </trkpt>
      <trkpt lat="47.40276" lon="6.50997">
        <ele>276.085</ele>
        <time>2015-10-03T09:36:21Z</time>
      </trkpt>
      <trkpt lat="47.4028" lon="6.51">
        <ele>275.906</ele>
        <time>2015-10-03T09:36:22Z</time>
      </trkpt>
      <trkpt lat="47.40284" lon="6.51003">
        <ele>275.583</ele>
        <time>2015-10-03T09:36:23Z</time>
      </trkpt>
      <trkpt lat="47.40288" lon="6.51006">
        <ele>276.057</ele>
        <time>2015-10-03T09:36:24Z</time>
      </trkpt>
      <trkpt lat="47.40292" lon="6.51008">
        <ele>275.5</ele>
        <time>2015-10-03T09:36:25Z</time>
      </trkpt>
      <trkpt lat="47.40296" lon="6.51012">
        <ele>275.743</ele>
        <time>2015-10-03T09:36:26Z</time>
      </trkpt>
      <trkpt lat="47.40299" lon="6.51014">
        <ele>277.007</ele>
        <time>2015-10-03T09:36:27Z</time>
      </trkpt>
      <trkpt lat="47.40303" lon="6.51017">
        <ele>278.174</ele>
        <time>2015-10-03T09:36:28Z</time>
      </trkpt>
      <trkpt lat="47.40307" lon="6.51019">
        <ele>278.945</ele>
        <time>2015-10-03T09:36:29Z</time>
      </trkpt>
      <trkpt lat="47.40311" lon="6.51022">
        <ele>278.412</ele>
        <time>2015-10-03T09:36:30Z</time>
      </trkpt>
      <trkpt lat="47.40315" lon="6.51025">
        <ele>279.94</ele>
        <time>2015-10-03T09:36:31Z</time>
      </trkpt>
      <trkpt lat="47.40319" lon="6.51028">
        <ele>279.888</ele>
        <time>2015-10-03T09:36:32Z</time>
      </trkpt>
      <trkpt lat="47.40324" lon="6.51031">
        <ele>279.197</ele>
        <time>2015-10-03T09:36:33Z</time>
      </trkpt>
      <trkpt lat="47.40328" lon="6.51033">
        <ele>279.413</ele>
        <time>2015-10-03T09:36:34Z</time>
      </trkpt>
      <trkpt lat="47.40333" lon="6.51034">
        <ele>278.912</ele>
        <time>2015-10-03T09:36:35Z</time>
      </trkpt>
      <trkpt lat="47.40336" lon="6.51037">
        <ele>280.078</ele>
        <time>2015-10-03T09:36:36Z</time>
      </trkpt>
      <trkpt lat="47.40339" lon="6.5104">
        <ele>280.183</ele>
        <time>2015-10-03T09:36:37Z</time>
      </trkpt>
      <trkpt lat="47.40343" lon="6.51044">
        <ele>280.31</ele>
        <time>2015-10-03T09:36:38Z</time>
      </trkpt>
      <trkpt lat="47.40347" lon="6.51048">
        <ele>280.139</ele>
        <time>2015-10-03T09:36:39Z</time>
      </trkpt>
      <trkpt lat="47.40351" lon="6.51052">
        <ele>280.075</ele>
        <time>2015-10-03T09:36:40Z</time>
      </trkpt>
      <trkpt lat="47.40356" lon="6.51054">
        <ele>279.964</ele>
        <time>2015-10-03T09:36:41Z</time>
      </trkpt>
      <trkpt lat="47.4036" lon="6.51058">
        <ele>279.686</ele>
        <time>2015-10-03T09:36:42Z</time>
      </trkpt>
      <trkpt lat="47.40364" lon="6.51061">
        <ele>279.476</ele>
        <time>2015-10-03T09:36:43Z</time>
      </trkpt>
      <trkpt lat="47.40368" lon="6.51065">
        <ele>279.681</ele>
        <time>2015-10-03T09:36:44Z</time>
      </trkpt>
      <trkpt lat="47.40372" lon="6.51067">
        <ele>278.292</ele>
        <time>2015-10-03T09:36:45Z</time>
      </trkpt>
      <trkpt lat="47.40377" lon="6.5107">
        <ele>277.665</ele>
        <time>2015-10-03T09:36:46Z</time>
      </trkpt>
      <trkpt lat="47.40381" lon="6.51072">
        <ele>276.907</ele>
        <time>2015-10-03T09:36:47Z</time>
      </trkpt>
      <trkpt lat="47.40386" lon="6.51075">
        <ele>276.756</ele>
        <time>2015-10-03T09:36:48Z</time>
      </trkpt>
      <trkpt lat="47.40392" lon="6.51075">
        <ele>275.546</ele>
        <time>2015-10-03T09:36:49Z</time>
      </trkpt>
      <trkpt lat="47.40394" lon="6.51078">
        <ele>275.672</ele>
        <time>2015-10-03T09:36:50Z</time>
      </trkpt>
      <trkpt lat="47.40399" lon="6.51081">
        <ele>274.675</ele>
        <time>2015-10-03T09:36:51Z</time>
      </trkpt>
      <trkpt lat="47.40404" lon="6.51084">
        <ele>274.721</ele>
        <time>2015-10-03T09:36:52Z</time>
      </trkpt>
      <trkpt lat="47.40407" lon="6.51086">
        <ele>274.944</ele>
        <time>2015-10-03T09:36:53Z</time>
      </trkpt>
      <trkpt lat="47.40411" lon="6.51087">
        <ele>274.75</ele>
        <time>2015-10-03T09:36:54Z</time>
      </trkpt>
      <trkpt lat="47.40414" lon="6.5109">
        <ele>276.391</ele>
        <time>2015-10-03T09:36:55Z</time>
      </trkpt>
      <trkpt lat="47.40418" lon="6.51094">
        <ele>277.237</ele>
        <time>2015-10-03T09:36:56Z</time>
      </trkpt>
      <trkpt lat="47.40421" lon="6.51098">
        <ele>276.717</ele>
        <time>2015-10-03T09:36:57Z</time>
      </trkpt>
      <trkpt lat="47.40425" lon="6.511">
        <ele>278.029</ele>
        <time>2015-10-03T09:36:58Z</time>
      </trkpt>
      <trkpt lat="47.40429" lon="6.51102">
        <ele>278.14</ele>
        <time>2015-10-03T09:36:59Z</time>
      </trkpt>
      <trkpt lat="47.40433" lon="6.51101">
        <ele>277.741</ele>
        <time>2015-10-03T09:37:00Z</time>
      </trkpt>
      <trkpt lat="47.40438" lon="6.51102">
        <ele>277.965</ele>
        <time>2015-10-03T09:37:01Z</time>
      </trkpt>
      <trkpt lat="47.40443" lon="6.51104">
        <ele>277.698</ele>
        <time>2015-10-03T09:37:02Z</time>
      </trkpt>
      <trkpt lat="47.40447" lon="6.51105">
        <ele>279.229</ele>
        <time>2015-10-03T09:37:03Z</time>
      </trkpt>
      <trkpt lat="47.40452" lon="6.51108">
        <ele>277.721</ele>
        <time>2015-10-03T09:37:04Z</time>
      </trkpt>
      <trkpt lat="47.40456" lon="6.51108">
        <ele>277.563</ele>
        <time>2015-10-03T09:37:05Z</time>
      </trkpt>
      <trkpt lat="47.4046" lon="6.51109">
        <ele>277.339</ele>
        <time>2015-10-03T09:37:06Z</time>
      </trkpt>
      <trkpt lat="47.40465" lon="6.5111">
        <ele>277.411</ele>
        <time>2015-10-03T09:37:07Z</time>
      </trkpt>
      <trkpt lat="47.40469" lon="6.5111">
        <ele>277.292</ele>
        <time>2015-10-03T09:37:08Z</time>
      </trkpt>
      <trkpt lat="47.40474" lon="6.51111">
        <ele>277.146</ele>
        <time>2015-10-03T09:37:09Z</time>
      </trkpt>
      <trkpt lat="47.40478" lon="6.51112">
        <ele>277.728</ele>
        <time>2015-10-03T09:37:10Z</time>
      </trkpt>
      <trkpt lat="47.40482" lon="6.51113">
        <ele>278.451</ele>
        <time>2015-10-03T09:37:11Z</time>
      </trkpt>
      <trkpt lat="47.40487" lon="6.51113">
        <ele>278.983</ele>
        <time>2015-10-03T09:37:12Z</time>
      </trkpt>
      <trkpt lat="47.40492" lon="6.51113">
        <ele>278.894</ele>
        <time>2015-10-03T09:37:13Z</time>
      </trkpt>
      <trkpt lat="47.40496" lon="6.51114">
        <ele>279.105</ele>
        <time>2015-10-03T09:37:14Z</time>
      </trkpt>
      <trkpt lat="47.40501" lon="6.51115">
        <ele>278.625</ele>
        <time>2015-10-03T09:37:15Z</time>
      </trkpt>
      <trkpt lat="47.40505" lon="6.51116">
        <ele>279.205</ele>
        <time>2015-10-03T09:37:16Z</time>
      </trkpt>
      <trkpt lat="47.4051" lon="6.51116">
        <ele>279.298</ele>
        <time>2015-10-03T09:37:17Z</time>
      </trkpt>
      <trkpt lat="47.40514" lon="6.51116">
        <ele>280.025</ele>
        <time>2015-10-03T09:37:18Z</time>
      </trkpt>
      <trkpt lat="47.40519" lon="6.51116">
        <ele>280.468</ele>
        <time>2015-10-03T09:37:19Z</time>
      </trkpt>
      <trkpt lat="47.40524" lon="6.51116">
        <ele>280.064</ele>
        <time>2015-10-03T09:37:20Z</time>
      </trkpt>
      <trkpt lat="47.40528" lon="6.51115">
        <ele>280.293</ele>
        <time>2015-10-03T09:37:21Z</time>
      </trkpt>
      <trkpt lat="47.40533" lon="6.51114">
        <ele>280.818</ele>
        <time>2015-10-03T09:37:22Z</time>
      </trkpt>
      <trkpt lat="47.40537" lon="6.51115">
        <ele>280.841</ele>
        <time>2015-10-03T09:37:23Z</time>
      </trkpt>
      <trkpt lat="47.40541" lon="6.51114">
        <ele>281.207</ele>
        <time>2015-10-03T09:37:24Z</time>
      </trkpt>
      <trkpt lat="47.40544" lon="6.51116">
        <ele>281.154</ele>
        <time>2015-10-03T09:37:25Z</time>
      </trkpt>
      <trkpt lat="47.40549" lon="6.51116">
        <ele>281.785</ele>
        <time>2015-10-03T09:37:26Z</time>
      </trkpt>
      <trkpt lat="47.40553" lon="6.51118">
        <ele>282.424</ele>
        <time>2015-10-03T09:37:27Z</time>
      </trkpt>
      <trkpt lat="47.40557" lon="6.51117">
        <ele>282.459</ele>
        <time>2015-10-03T09:37:28Z</time>
      </trkpt>
      <trkpt lat="47.40561" lon="6.51117">
        <ele>281.963</ele>
        <time>2015-10-03T09:37:29Z</time>
      </trkpt>
      <trkpt lat="47.40566" lon="6.51116">
        <ele>281.885</ele>
        <time>2015-10-03T09:37:30Z</time>
      </trkpt>
      <trkpt lat="47.4057" lon="6.51117">
        <ele>282.473</ele>
        <time>2015-10-03T09:37:31Z</time>
      </trkpt>
      <trkpt lat="47.40574" lon="6.51117">
        <ele>283.132</ele>
        <time>2015-10-03T09:37:32Z</time>
      </trkpt>
      <trkpt lat="47.40579" lon="6.51117">
        <ele>283.578</ele>
        <time>2015-10-03T09:37:33Z</time>
      </trkpt>
      <trkpt lat="47.40583" lon="6.51116">
        <ele>282.338</ele>
        <time>2015-10-03T09:37:34Z</time>
      </trkpt>
      <trkpt lat="47.40588" lon="6.51118">
        <ele>283.629</ele>
        <time>2015-10-03T09:37:35Z</time>
      </trkpt>
      <trkpt lat="47.40592" lon="6.51117">
        <ele>283.177</ele>
        <time>2015-10-03T09:37:36Z</time>
      </trkpt>
      <trkpt lat="47.40596" lon="6.51118">
        <ele>282.858</ele>
        <time>2015-10-03T09:37:37Z</time>
      </trkpt>
      <trkpt lat="47.40601" lon="6.51117">
        <ele>282.163</ele>
        <time>2015-10-03T09:37:38Z</time>
      </trkpt>
      <trkpt lat="47.40605" lon="6.51118">
        <ele>281.863</ele>
        <time>2015-10-03T09:37:39Z</time>
      </trkpt>
      <trkpt lat="47.4061" lon="6.51118">
        <ele>281.678</ele>
        <time>2015-10-03T09:37:40Z</time>
      </trkpt>
      <trkpt lat="47.40614" lon="6.51118">
        <ele>281.353</ele>
        <time>2015-10-03T09:37:41Z</time>
      </trkpt>
      <trkpt lat="47.40619" lon="6.51119">
        <ele>281.139</ele>
        <time>2015-10-03T09:37:42Z</time>
      </trkpt>
      <trkpt lat="47.40624" lon="6.5112">
        <ele>281.909</ele>
        <time>2015-10-03T09:37:43Z</time>
      </trkpt>
      <trkpt lat="47.40628" lon="6.5112">
        <ele>282.251</ele>
        <time>2015-10-03T09:37:44Z</time>
      </trkpt>
      <trkpt lat="47.40632" lon="6.51121">
        <ele>283.093</ele>
        <time>2015-10-03T09:37:45Z</time>
      </trkpt>
      <trkpt lat="47.40636" lon="6.5112">
        <ele>282.361</ele>
        <time>2015-10-03T09:37:46Z</time>
      </trkpt>
      <trkpt lat="47.4064" lon="6.51121">
        <ele>282.689</ele>
        <time>2015-10-03T09:37:47Z</time>
      </trkpt>
      <trkpt lat="47.40644" lon="6.51121">
        <ele>282.65</ele>
        <time>2015-10-03T09:37:48Z</time>
      </trkpt>
      <trkpt lat="47.40648" lon="6.51121">
        <ele>282.961</ele>
        <time>2015-10-03T09:37:49Z</time>
      </trkpt>
      <trkpt lat="47.40652" lon="6.5112">
        <ele>282.097</ele>
        <time>2015-10-03T09:37:50Z</time>
      </trkpt>
      <trkpt lat="47.40657" lon="6.51121">
        <ele>282.384</ele>
        <time>2015-10-03T09:37:51Z</time>
      </trkpt>
      <trkpt lat="47.40661" lon="6.51121">
        <ele>282.217</ele>
        <time>2015-10-03T09:37:52Z</time>
      </trkpt>
      <trkpt lat="47.40666" lon="6.51121">
        <ele>282.246</ele>
        <time>2015-10-03T09:37:53Z</time>
      </trkpt>
      <trkpt lat="47.4067" lon="6.51122">
        <ele>281.873</ele>
        <time>2015-10-03T09:37:54Z</time>
      </trkpt>
      <trkpt lat="47.40675" lon="6.51122">
        <ele>281.746</ele>
        <time>2015-10-03T09:37:55Z</time>
      </trkpt>
      <trkpt lat="47.40679" lon="6.51122">
        <ele>281.603</ele>
        <time>2015-10-03T09:37:56Z</time>
      </trkpt>
      <trkpt lat="47.40684" lon="6.51122">
        <ele>281.795</ele>
        <time>2015-10-03T09:37:57Z</time>
      </trkpt>
      <trkpt lat="47.40688" lon="6.51124">
        <ele>282.219</ele>
        <time>2015-10-03T09:37:58Z</time>
      </trkpt>
      <trkpt lat="47.40692" lon="6.51124">
        <ele>281.743</ele>
        <time>2015-10-03T09:37:59Z</time>
      </trkpt>
      <trkpt lat="47.40695" lon="6.51125">
        <ele>281.82</ele>
        <time>2015-10-03T09:38:00Z</time>
      </trkpt>
      <trkpt lat="47.40699" lon="6.51125">
        <ele>281.762</ele>
        <time>2015-10-03T09:38:01Z</time>
      </trkpt>
      <trkpt lat="47.40704" lon="6.51125">
        <ele>281.284</ele>
        <time>2015-10-03T09:38:02Z</time>
      </trkpt>
      <trkpt lat="47.40708" lon="6.51125">
        <ele>281.499</ele>
        <time>2015-10-03T09:38:03Z</time>
      </trkpt>
      <trkpt lat="47.40713" lon="6.51124">
        <ele>281.023</ele>
        <time>2015-10-03T09:38:04Z</time>
      </trkpt>
      <trkpt lat="47.40718" lon="6.51125">
        <ele>281.829</ele>
        <time>2015-10-03T09:38:05Z</time>
      </trkpt>
      <trkpt lat="47.40722" lon="6.51125">
        <ele>283.007</ele>
        <time>2015-10-03T09:38:06Z</time>
      </trkpt>
      <trkpt lat="47.40727" lon="6.51126">
        <ele>283.469</ele>
        <time>2015-10-03T09:38:07Z</time>
      </trkpt>
      <trkpt lat="47.40732" lon="6.51127">
        <ele>284.273</ele>
        <time>2015-10-03T09:38:08Z</time>
      </trkpt>
      <trkpt lat="47.40737" lon="6.51127">
        <ele>283.307</ele>
        <time>2015-10-03T09:38:09Z</time>
      </trkpt>
      <trkpt lat="47.40742" lon="6.51126">
        <ele>281.655</ele>
        <time>2015-10-03T09:38:10Z</time>
      </trkpt>
      <trkpt lat="47.40746" lon="6.51127">
        <ele>281.381</ele>
        <time>2015-10-03T09:38:11Z</time>
      </trkpt>
      <trkpt lat="47.40751" lon="6.51126">
        <ele>281.039</ele>
        <time>2015-10-03T09:38:12Z</time>
      </trkpt>
      <trkpt lat="47.40755" lon="6.51128">
        <ele>281.038</ele>
        <time>2015-10-03T09:38:13Z</time>
      </trkpt>
      <trkpt lat="47.40759" lon="6.51128">
        <ele>280.773</ele>
        <time>2015-10-03T09:38:14Z</time>
      </trkpt>
      <trkpt lat="47.40764" lon="6.51128">
        <ele>280.423</ele>
        <time>2015-10-03T09:38:15Z</time>
      </trkpt>
      <trkpt lat="47.40768" lon="6.51128">
        <ele>281.223</ele>
        <time>2015-10-03T09:38:16Z</time>
      </trkpt>
      <trkpt lat="47.40773" lon="6.51128">
        <ele>281.157</ele>
        <time>2015-10-03T09:38:17Z</time>
      </trkpt>
      <trkpt lat="47.40777" lon="6.51129">
        <ele>281.6</ele>
        <time>2015-10-03T09:38:18Z</time>
      </trkpt>
      <trkpt lat="47.40781" lon="6.5113">
        <ele>282.086</ele>
        <time>2015-10-03T09:38:19Z</time>
      </trkpt>
      <trkpt lat="47.40786" lon="6.51132">
        <ele>282.509</ele>
        <time>2015-10-03T09:38:20Z</time>
      </trkpt>
      <trkpt lat="47.4079" lon="6.51132">
        <ele>282.726</ele>
        <time>2015-10-03T09:38:21Z</time>
      </trkpt>
      <trkpt lat="47.40795" lon="6.51131">
        <ele>282.406</ele>
        <time>2015-10-03T09:38:22Z</time>
      </trkpt>
      <trkpt lat="47.40799" lon="6.51131">
        <ele>282.823</ele>
        <time>2015-10-03T09:38:23Z</time>
      </trkpt>
      <trkpt lat="47.40804" lon="6.51131">
        <ele>283.074</ele>
        <time>2015-10-03T09:38:24Z</time>
      </trkpt>
      <trkpt lat="47.40808" lon="6.51132">
        <ele>283.918</ele>
        <time>2015-10-03T09:38:25Z</time>
      </trkpt>
      <trkpt lat="47.40812" lon="6.51133">
        <ele>283.202</ele>
        <time>2015-10-03T09:38:26Z</time>
      </trkpt>
      <trkpt lat="47.40817" lon="6.51132">
        <ele>282.28</ele>
        <time>2015-10-03T09:38:27Z</time>
      </trkpt>
      <trkpt lat="47.40821" lon="6.51133">
        <ele>282.481</ele>
        <time>2015-10-03T09:38:28Z</time>
      </trkpt>
      <trkpt lat="47.40826" lon="6.51133">
        <ele>282.546</ele>
        <time>2015-10-03T09:38:29Z</time>
      </trkpt>
      <trkpt lat="47.4083" lon="6.51134">
        <ele>282.452</ele>
        <time>2015-10-03T09:38:30Z</time>
      </trkpt>
      <trkpt lat="47.40835" lon="6.51134">
        <ele>282.327</ele>
        <time>2015-10-03T09:38:31Z</time>
      </trkpt>
      <trkpt lat="47.4084" lon="6.51135">
        <ele>282.587</ele>
        <time>2015-10-03T09:38:32Z</time>
      </trkpt>
      <trkpt lat="47.40844" lon="6.51136">
        <ele>284.42</ele>
        <time>2015-10-03T09:38:33Z</time>
      </trkpt>
      <trkpt lat="47.40849" lon="6.51136">
        <ele>283.813</ele>
        <time>2015-10-03T09:38:34Z</time>
      </trkpt>
      <trkpt lat="47.40853" lon="6.51137">
        <ele>284.174</ele>
        <time>2015-10-03T09:38:35Z</time>
      </trkpt>
      <trkpt lat="47.40858" lon="6.51136">
        <ele>284.091</ele>
        <time>2015-10-03T09:38:36Z</time>
      </trkpt>
      <trkpt lat="47.40862" lon="6.51137">
        <ele>284.729</ele>
        <time>2015-10-03T09:38:37Z</time>
      </trkpt>
      <trkpt lat="47.40866" lon="6.51139">
        <ele>284.586</ele>
        <time>2015-10-03T09:38:38Z</time>
      </trkpt>
      <trkpt lat="47.4087" lon="6.5114">
        <ele>283.634</ele>
        <time>2015-10-03T09:38:39Z</time>
      </trkpt>
      <trkpt lat="47.40873" lon="6.5114">
        <ele>283.146</ele>
        <time>2015-10-03T09:38:40Z</time>
      </trkpt>
      <trkpt lat="47.40878" lon="6.51141">
        <ele>283.809</ele>
        <time>2015-10-03T09:38:41Z</time>
      </trkpt>
      <trkpt lat="47.40883" lon="6.51141">
        <ele>283.753</ele>
        <time>2015-10-03T09:38:42Z</time>
      </trkpt>
      <trkpt lat="47.40887" lon="6.51141">
        <ele>283.482</ele>
        <time>2015-10-03T09:38:43Z</time>
      </trkpt>
      <trkpt lat="47.40892" lon="6.51141">
        <ele>283.818</ele>
        <time>2015-10-03T09:38:44Z</time>
      </trkpt>
      <trkpt lat="47.40896" lon="6.51141">
        <ele>282.831</ele>
        <time>2015-10-03T09:38:45Z</time>
      </trkpt>
      <trkpt lat="47.409" lon="6.51141">
        <ele>282.577</ele>
        <time>2015-10-03T09:38:46Z</time>
      </trkpt>
      <trkpt lat="47.40905" lon="6.5114">
        <ele>282.319</ele>
        <time>2015-10-03T09:38:47Z</time>
      </trkpt>
      <trkpt lat="47.40909" lon="6.5114">
        <ele>282.874</ele>
        <time>2015-10-03T09:38:48Z</time>
      </trkpt>
      <trkpt lat="47.40914" lon="6.5114">
        <ele>283.6</ele>
        <time>2015-10-03T09:38:49Z</time>
      </trkpt>
      <trkpt lat="47.40919" lon="6.5114">
        <ele>283.991</ele>
        <time>2015-10-03T09:38:50Z</time>
      </trkpt>
      <trkpt lat="47.40924" lon="6.51139">
        <ele>283.691</ele>
        <time>2015-10-03T09:38:51Z</time>
      </trkpt>
      <trkpt lat="47.40928" lon="6.51139">
        <ele>282.416</ele>
        <time>2015-10-03T09:38:52Z</time>
      </trkpt>
      <trkpt lat="47.40933" lon="6.5114">
        <ele>283.428</ele>
        <time>2015-10-03T09:38:53Z</time>
      </trkpt>
      <trkpt lat="47.40936" lon="6.51141">
        <ele>283.077</ele>
        <time>2015-10-03T09:38:54Z</time>
      </trkpt>
      <trkpt lat="47.40941" lon="6.51141">
        <ele>282.79</ele>
        <time>2015-10-03T09:38:55Z</time>
      </trkpt>
      <trkpt lat="47.40946" lon="6.51141">
        <ele>281.977</ele>
        <time>2015-10-03T09:38:56Z</time>
      </trkpt>
      <trkpt lat="47.40951" lon="6.51142">
        <ele>282.108</ele>
        <time>2015-10-03T09:38:57Z</time>
      </trkpt>
      <trkpt lat="47.40956" lon="6.51141">
        <ele>281.638</ele>
        <time>2015-10-03T09:38:58Z</time>
      </trkpt>
      <trkpt lat="47.40961" lon="6.5114">
        <ele>280.643</ele>
        <time>2015-10-03T09:38:59Z</time>
      </trkpt>
      <trkpt lat="47.40965" lon="6.5114">
        <ele>280.844</ele>
        <time>2015-10-03T09:39:00Z</time>
      </trkpt>
      <trkpt lat="47.4097" lon="6.5114">
        <ele>279.585</ele>
        <time>2015-10-03T09:39:01Z</time>
      </trkpt>
      <trkpt lat="47.40974" lon="6.51141">
        <ele>278.988</ele>
        <time>2015-10-03T09:39:02Z</time>
      </trkpt>
      <trkpt lat="47.40978" lon="6.51141">
        <ele>279.014</ele>
        <time>2015-10-03T09:39:03Z</time>
      </trkpt>
      <trkpt lat="47.40983" lon="6.5114">
        <ele>279.23</ele>
        <time>2015-10-03T09:39:04Z</time>
      </trkpt>
      <trkpt lat="47.40987" lon="6.51139">
        <ele>279.108</ele>
        <time>2015-10-03T09:39:05Z</time>
      </trkpt>
      <trkpt lat="47.40991" lon="6.5114">
        <ele>279.865</ele>
        <time>2015-10-03T09:39:06Z</time>
      </trkpt>
      <trkpt lat="47.40995" lon="6.51141">
        <ele>279.434</ele>
        <time>2015-10-03T09:39:07Z</time>
      </trkpt>
      <trkpt lat="47.40999" lon="6.51139">
        <ele>278.526</ele>
        <time>2015-10-03T09:39:08Z</time>
      </trkpt>
      <trkpt lat="47.41003" lon="6.51141">
        <ele>278.686</ele>
        <time>2015-10-03T09:39:09Z</time>
      </trkpt>
      <trkpt lat="47.41008" lon="6.51142">
        <ele>279.165</ele>
        <time>2015-10-03T09:39:10Z</time>
      </trkpt>
      <trkpt lat="47.41012" lon="6.51143">
        <ele>279.412</ele>
        <time>2015-10-03T09:39:11Z</time>
      </trkpt>
      <trkpt lat="47.41017" lon="6.51142">
        <ele>278.808</ele>
        <time>2015-10-03T09:39:12Z</time>
      </trkpt>
      <trkpt lat="47.41021" lon="6.51143">
        <ele>279.033</ele>
        <time>2015-10-03T09:39:13Z</time>
      </trkpt>
      <trkpt lat="47.41026" lon="6.51144">
        <ele>278.789</ele>
        <time>2015-10-03T09:39:14Z</time>
      </trkpt>
      <trkpt lat="47.4103" lon="6.51145">
        <ele>278.634</ele>
        <time>2015-10-03T09:39:15Z</time>
      </trkpt>
      <trkpt lat="47.41034" lon="6.51147">
        <ele>278.265</ele>
        <time>2015-10-03T09:39:16Z</time>
      </trkpt>
      <trkpt lat="47.41039" lon="6.51148">
        <ele>278.815</ele>
        <time>2015-10-03T09:39:17Z</time>
      </trkpt>
      <trkpt lat="47.41043" lon="6.51148">
        <ele>279.358</ele>
        <time>2015-10-03T09:39:18Z</time>
      </trkpt>
      <trkpt lat="47.41048" lon="6.51149">
        <ele>280.03</ele>
        <time>2015-10-03T09:39:19Z</time>
      </trkpt>
      <trkpt lat="47.41052" lon="6.5115">
        <ele>279.632</ele>
        <time>2015-10-03T09:39:20Z</time>
      </trkpt>
      <trkpt lat="47.41057" lon="6.51151">
        <ele>281.359</ele>
        <time>2015-10-03T09:39:21Z</time>
      </trkpt>
      <trkpt lat="47.41062" lon="6.51151">
        <ele>281.298</ele>
        <time>2015-10-03T09:39:22Z</time>
      </trkpt>
      <trkpt lat="47.41066" lon="6.51151">
        <ele>281.844</ele>
        <time>2015-10-03T09:39:23Z</time>
      </trkpt>
      <trkpt lat="47.4107" lon="6.51153">
        <ele>282.479</ele>
        <time>2015-10-03T09:39:24Z</time>
      </trkpt>
      <trkpt lat="47.41075" lon="6.51154">
        <ele>282.634</ele>
        <time>2015-10-03T09:39:25Z</time>
      </trkpt>
      <trkpt lat="47.41079" lon="6.51155">
        <ele>282.455</ele>
        <time>2015-10-03T09:39:26Z</time>
      </trkpt>
      <trkpt lat="47.41083" lon="6.51156">
        <ele>281.89</ele>
        <time>2015-10-03T09:39:27Z</time>
      </trkpt>
      <trkpt lat="47.41087" lon="6.51156">
        <ele>282.393</ele>
        <time>2015-10-03T09:39:28Z</time>
      </trkpt>
      <trkpt lat="47.41092" lon="6.51156">
        <ele>281.983</ele>
        <time>2015-10-03T09:39:29Z</time>
      </trkpt>
      <trkpt lat="47.41097" lon="6.51156">
        <ele>282.746</ele>
        <time>2015-10-03T09:39:30Z</time>
      </trkpt>
      <trkpt lat="47.41101" lon="6.51158">
        <ele>283.023</ele>
        <time>2015-10-03T09:39:31Z</time>
      </trkpt>
      <trkpt lat="47.41106" lon="6.51159">
        <ele>283.067</ele>
        <time>2015-10-03T09:39:32Z</time>
      </trkpt>
      <trkpt lat="47.4111" lon="6.51161">
        <ele>284.124</ele>
        <time>2015-10-03T09:39:33Z</time>
      </trkpt>
      <trkpt lat="47.41114" lon="6.51162">
        <ele>284.113</ele>
        <time>2015-10-03T09:39:34Z</time>
      </trkpt>
      <trkpt lat="47.41119" lon="6.51163">
        <ele>284.254</ele>
        <time>2015-10-03T09:39:35Z</time>
      </trkpt>
      <trkpt lat="47.41123" lon="6.51164">
        <ele>285.141</ele>
        <time>2015-10-03T09:39:36Z</time>
      </trkpt>
      <trkpt lat="47.41128" lon="6.51165">
        <ele>285.185</ele>
        <time>2015-10-03T09:39:37Z</time>
      </trkpt>
      <trkpt lat="47.41132" lon="6.51165">
        <ele>285.842</ele>
        <time>2015-10-03T09:39:38Z</time>
      </trkpt>
      <trkpt lat="47.41136" lon="6.51166">
        <ele>285.554</ele>
        <time>2015-10-03T09:39:39Z</time>
      </trkpt>
      <trkpt lat="47.4114" lon="6.51168">
        <ele>285.255</ele>
        <time>2015-10-03T09:39:40Z</time>
      </trkpt>
      <trkpt lat="47.41145" lon="6.51169">
        <ele>285.725</ele>
        <time>2015-10-03T09:39:41Z</time>
      </trkpt>
      <trkpt lat="47.41148" lon="6.51171">
        <ele>285.274</ele>
        <time>2015-10-03T09:39:42Z</time>
      </trkpt>
      <trkpt lat="47.41152" lon="6.51172">
        <ele>284.554</ele>
        <time>2015-10-03T09:39:43Z</time>
      </trkpt>
      <trkpt lat="47.41156" lon="6.51173">
        <ele>283.998</ele>
        <time>2015-10-03T09:39:44Z</time>
      </trkpt>
      <trkpt lat="47.41161" lon="6.51174">
        <ele>283.769</ele>
        <time>2015-10-03T09:39:45Z</time>
      </trkpt>
      <trkpt lat="47.41166" lon="6.51175">
        <ele>283.424</ele>
        <time>2015-10-03T09:39:46Z</time>
      </trkpt>
      <trkpt lat="47.4117" lon="6.51176">
        <ele>283.231</ele>
        <time>2015-10-03T09:39:47Z</time>
      </trkpt>
      <trkpt lat="47.41175" lon="6.51177">
        <ele>283.082</ele>
        <time>2015-10-03T09:39:48Z</time>
      </trkpt>
      <trkpt lat="47.4118" lon="6.51178">
        <ele>283.461</ele>
        <time>2015-10-03T09:39:49Z</time>
      </trkpt>
      <trkpt lat="47.41184" lon="6.51178">
        <ele>282.872</ele>
        <time>2015-10-03T09:39:50Z</time>
      </trkpt>
      <trkpt lat="47.41189" lon="6.51182">
        <ele>282.7</ele>
        <time>2015-10-03T09:39:51Z</time>
      </trkpt>
      <trkpt lat="47.41194" lon="6.51182">
        <ele>283.119</ele>
        <time>2015-10-03T09:39:52Z</time>
      </trkpt>
      <trkpt lat="47.41198" lon="6.51184">
        <ele>283.77</ele>
        <time>2015-10-03T09:39:53Z</time>
      </trkpt>
      <trkpt lat="47.41202" lon="6.51186">
        <ele>284.156</ele>
        <time>2015-10-03T09:39:54Z</time>
      </trkpt>
      <trkpt lat="47.41206" lon="6.51188">
        <ele>284.346</ele>
        <time>2015-10-03T09:39:55Z</time>
      </trkpt>
      <trkpt lat="47.4121" lon="6.51189">
        <ele>283.755</ele>
        <time>2015-10-03T09:39:56Z</time>
      </trkpt>
      <trkpt lat="47.41215" lon="6.51189">
        <ele>282.061</ele>
        <time>2015-10-03T09:39:57Z</time>
      </trkpt>
      <trkpt lat="47.41219" lon="6.5119">
        <ele>281.405</ele>
        <time>2015-10-03T09:39:58Z</time>
      </trkpt>
      <trkpt lat="47.41222" lon="6.51191">
        <ele>281.688</ele>
        <time>2015-10-03T09:39:59Z</time>
      </trkpt>
      <trkpt lat="47.41225" lon="6.51192">
        <ele>281.762</ele>
        <time>2015-10-03T09:40:00Z</time>
      </trkpt>
      <trkpt lat="47.4123" lon="6.51194">
        <ele>282.152</ele>
        <time>2015-10-03T09:40:01Z</time>
      </trkpt>
      <trkpt lat="47.41235" lon="6.51194">
        <ele>282.226</ele>
        <time>2015-10-03T09:40:02Z</time>
      </trkpt>
      <trkpt lat="47.4124" lon="6.51195">
        <ele>282.052</ele>
        <time>2015-10-03T09:40:03Z</time>
      </trkpt>
      <trkpt lat="47.41244" lon="6.51197">
        <ele>282.34</ele>
        <time>2015-10-03T09:40:04Z</time>
      </trkpt>
      <trkpt lat="47.41247" lon="6.512">
        <ele>282.083</ele>
        <time>2015-10-03T09:40:05Z</time>
      </trkpt>
      <trkpt lat="47.41251" lon="6.512">
        <ele>282.143</ele>
        <time>2015-10-03T09:40:06Z</time>
      </trkpt>
      <trkpt lat="47.41255" lon="6.51202">
        <ele>282.143</ele>
        <time>2015-10-03T09:40:07Z</time>
      </trkpt>
      <trkpt lat="47.4126" lon="6.51202">
        <ele>281.981</ele>
        <time>2015-10-03T09:40:08Z</time>
      </trkpt>
      <trkpt lat="47.41264" lon="6.51203">
        <ele>282.368</ele>
        <time>2015-10-03T09:40:09Z</time>
      </trkpt>
      <trkpt lat="47.41268" lon="6.51205">
        <ele>282.136</ele>
        <time>2015-10-03T09:40:10Z</time>
      </trkpt>
      <trkpt lat="47.41273" lon="6.51207">
        <ele>282.551</ele>
        <time>2015-10-03T09:40:11Z</time>
      </trkpt>
      <trkpt lat="47.41277" lon="6.51208">
        <ele>282.66</ele>
        <time>2015-10-03T09:40:12Z</time>
      </trkpt>
      <trkpt lat="47.41282" lon="6.51209">
        <ele>282.388</ele>
        <time>2015-10-03T09:40:13Z</time>
      </trkpt>
      <trkpt lat="47.41286" lon="6.5121">
        <ele>281.912</ele>
        <time>2015-10-03T09:40:14Z</time>
      </trkpt>
      <trkpt lat="47.41291" lon="6.51212">
        <ele>281.721</ele>
        <time>2015-10-03T09:40:15Z</time>
      </trkpt>
      <trkpt lat="47.41295" lon="6.51213">
        <ele>281.615</ele>
        <time>2015-10-03T09:40:16Z</time>
      </trkpt>
      <trkpt lat="47.413" lon="6.51214">
        <ele>282.178</ele>
        <time>2015-10-03T09:40:17Z</time>
      </trkpt>
      <trkpt lat="47.41304" lon="6.51216">
        <ele>282.13</ele>
        <time>2015-10-03T09:40:18Z</time>
      </trkpt>
      <trkpt lat="47.41309" lon="6.51218">
        <ele>282.606</ele>
        <time>2015-10-03T09:40:19Z</time>
      </trkpt>
      <trkpt lat="47.41313" lon="6.51219">
        <ele>282.399</ele>
        <time>2015-10-03T09:40:20Z</time>
      </trkpt>
      <trkpt lat="47.41318" lon="6.51221">
        <ele>282.105</ele>
        <time>2015-10-03T09:40:21Z</time>
      </trkpt>
      <trkpt lat="47.41322" lon="6.51223">
        <ele>281.952</ele>
        <time>2015-10-03T09:40:22Z</time>
      </trkpt>
      <trkpt lat="47.41327" lon="6.51225">
        <ele>282.084</ele>
        <time>2015-10-03T09:40:23Z</time>
      </trkpt>
      <trkpt lat="47.41331" lon="6.51227">
        <ele>282.406</ele>
        <time>2015-10-03T09:40:24Z</time>
      </trkpt>
      <trkpt lat="47.41336" lon="6.51229">
        <ele>282.647</ele>
        <time>2015-10-03T09:40:25Z</time>
      </trkpt>
      <trkpt lat="47.4134" lon="6.51231">
        <ele>282.546</ele>
        <time>2015-10-03T09:40:26Z</time>
      </trkpt>
      <trkpt lat="47.41344" lon="6.51233">
        <ele>282.461</ele>
        <time>2015-10-03T09:40:27Z</time>
      </trkpt>
      <trkpt lat="47.41348" lon="6.51235">
        <ele>282.7</ele>
        <time>2015-10-03T09:40:28Z</time>
      </trkpt>
      <trkpt lat="47.41352" lon="6.51237">
        <ele>282.422</ele>
        <time>2015-10-03T09:40:29Z</time>
      </trkpt>
      <trkpt lat="47.41357" lon="6.5124">
        <ele>282.727</ele>
        <time>2015-10-03T09:40:30Z</time>
      </trkpt>
      <trkpt lat="47.41361" lon="6.51242">
        <ele>282.539</ele>
        <time>2015-10-03T09:40:31Z</time>
      </trkpt>
      <trkpt lat="47.41364" lon="6.51244">
        <ele>282.819</ele>
        <time>2015-10-03T09:40:32Z</time>
      </trkpt>
      <trkpt lat="47.41369" lon="6.51246">
        <ele>282.551</ele>
        <time>2015-10-03T09:40:33Z</time>
      </trkpt>
      <trkpt lat="47.41372" lon="6.5125">
        <ele>283.535</ele>
        <time>2015-10-03T09:40:34Z</time>
      </trkpt>
      <trkpt lat="47.41376" lon="6.51254">
        <ele>283.34</ele>
        <time>2015-10-03T09:40:35Z</time>
      </trkpt>
      <trkpt lat="47.4138" lon="6.51257">
        <ele>283.623</ele>
        <time>2015-10-03T09:40:36Z</time>
      </trkpt>
      <trkpt lat="47.41384" lon="6.51257">
        <ele>284.129</ele>
        <time>2015-10-03T09:40:37Z</time>
      </trkpt>
      <trkpt lat="47.41388" lon="6.51261">
        <ele>285.797</ele>
        <time>2015-10-03T09:40:38Z</time>
      </trkpt>
      <trkpt lat="47.41392" lon="6.51264">
        <ele>285.485</ele>
        <time>2015-10-03T09:40:39Z</time>
      </trkpt>
      <trkpt lat="47.41395" lon="6.51267">
        <ele>285.019</ele>
        <time>2015-10-03T09:40:40Z</time>
      </trkpt>
      <trkpt lat="47.414" lon="6.5127">
        <ele>284.256</ele>
        <time>2015-10-03T09:40:41Z</time>
      </trkpt>
      <trkpt lat="47.41405" lon="6.51274">
        <ele>284.44</ele>
        <time>2015-10-03T09:40:42Z</time>
      </trkpt>
      <trkpt lat="47.41409" lon="6.51276">
        <ele>285.039</ele>
        <time>2015-10-03T09:40:43Z</time>
      </trkpt>
      <trkpt lat="47.41413" lon="6.51279">
        <ele>284.61</ele>
        <time>2015-10-03T09:40:44Z</time>
      </trkpt>
      <trkpt lat="47.41418" lon="6.51282">
        <ele>284.793</ele>
        <time>2015-10-03T09:40:45Z</time>
      </trkpt>
      <trkpt lat="47.41422" lon="6.51285">
        <ele>285.285</ele>
        <time>2015-10-03T09:40:46Z</time>
      </trkpt>
      <trkpt lat="47.41426" lon="6.51288">
        <ele>285.408</ele>
        <time>2015-10-03T09:40:47Z</time>
      </trkpt>
      <trkpt lat="47.4143" lon="6.5129">
        <ele>286.381</ele>
        <time>2015-10-03T09:40:48Z</time>
      </trkpt>
      <trkpt lat="47.41434" lon="6.51294">
        <ele>287.245</ele>
        <time>2015-10-03T09:40:49Z</time>
      </trkpt>
      <trkpt lat="47.41437" lon="6.51297">
        <ele>285.906</ele>
        <time>2015-10-03T09:40:50Z</time>
      </trkpt>
      <trkpt lat="47.41441" lon="6.513">
        <ele>285.638</ele>
        <time>2015-10-03T09:40:51Z</time>
      </trkpt>
      <trkpt lat="47.41445" lon="6.51305">
        <ele>285.374</ele>
        <time>2015-10-03T09:40:52Z</time>
      </trkpt>
      <trkpt lat="47.41449" lon="6.51306">
        <ele>284.238</ele>
        <time>2015-10-03T09:40:53Z</time>
      </trkpt>
      <trkpt lat="47.41452" lon="6.51309">
        <ele>283.855</ele>
        <time>2015-10-03T09:40:54Z</time>
      </trkpt>
      <trkpt lat="47.41456" lon="6.51313">
        <ele>283.304</ele>
        <time>2015-10-03T09:40:55Z</time>
      </trkpt>
      <trkpt lat="47.41459" lon="6.51316">
        <ele>283.545</ele>
        <time>2015-10-03T09:40:56Z</time>
      </trkpt>
      <trkpt lat="47.41463" lon="6.5132">
        <ele>284.523</ele>
        <time>2015-10-03T09:40:57Z</time>
      </trkpt>
      <trkpt lat="47.41466" lon="6.51322">
        <ele>282.954</ele>
        <time>2015-10-03T09:40:58Z</time>
      </trkpt>
      <trkpt lat="47.4147" lon="6.51324">
        <ele>282.842</ele>
        <time>2015-10-03T09:40:59Z</time>
      </trkpt>
      <trkpt lat="47.41474" lon="6.51327">
        <ele>283.149</ele>
        <time>2015-10-03T09:41:00Z</time>
      </trkpt>
      <trkpt lat="47.41477" lon="6.51331">
        <ele>283.053</ele>
        <time>2015-10-03T09:41:01Z</time>
      </trkpt>
      <trkpt lat="47.41481" lon="6.51335">
        <ele>282.121</ele>
        <time>2015-10-03T09:41:02Z</time>
      </trkpt>
      <trkpt lat="47.41484" lon="6.51339">
        <ele>282.432</ele>
        <time>2015-10-03T09:41:03Z</time>
      </trkpt>
      <trkpt lat="47.41489" lon="6.51341">
        <ele>283.497</ele>
        <time>2015-10-03T09:41:04Z</time>
      </trkpt>
      <trkpt lat="47.41492" lon="6.51345">
        <ele>283.635</ele>
        <time>2015-10-03T09:41:05Z</time>
      </trkpt>
      <trkpt lat="47.41496" lon="6.5135">
        <ele>285.098</ele>
        <time>2015-10-03T09:41:06Z</time>
      </trkpt>
      <trkpt lat="47.415" lon="6.51356">
        <ele>285.386</ele>
        <time>2015-10-03T09:41:07Z</time>
      </trkpt>
      <trkpt lat="47.41502" lon="6.51361">
        <ele>285.977</ele>
        <time>2015-10-03T09:41:08Z</time>
      </trkpt>
      <trkpt lat="47.41505" lon="6.51366">
        <ele>285.734</ele>
        <time>2015-10-03T09:41:09Z</time>
      </trkpt>
      <trkpt lat="47.41508" lon="6.51371">
        <ele>286.128</ele>
        <time>2015-10-03T09:41:10Z</time>
      </trkpt>
      <trkpt lat="47.41511" lon="6.51376">
        <ele>286.022</ele>
        <time>2015-10-03T09:41:11Z</time>
      </trkpt>
      <trkpt lat="47.41515" lon="6.5138">
        <ele>285.469</ele>
        <time>2015-10-03T09:41:12Z</time>
      </trkpt>
      <trkpt lat="47.41518" lon="6.51383">
        <ele>285.733</ele>
        <time>2015-10-03T09:41:13Z</time>
      </trkpt>
      <trkpt lat="47.41521" lon="6.51388">
        <ele>286.117</ele>
        <time>2015-10-03T09:41:14Z</time>
      </trkpt>
      <trkpt lat="47.41524" lon="6.51393">
        <ele>286.415</ele>
        <time>2015-10-03T09:41:15Z</time>
      </trkpt>
      <trkpt lat="47.41528" lon="6.51397">
        <ele>286.085</ele>
        <time>2015-10-03T09:41:16Z</time>
      </trkpt>
      <trkpt lat="47.41531" lon="6.51402">
        <ele>283.424</ele>
        <time>2015-10-03T09:41:17Z</time>
      </trkpt>
      <trkpt lat="47.41535" lon="6.51406">
        <ele>282.802</ele>
        <time>2015-10-03T09:41:18Z</time>
      </trkpt>
      <trkpt lat="47.41538" lon="6.51411">
        <ele>282.695</ele>
        <time>2015-10-03T09:41:19Z</time>
      </trkpt>
      <trkpt lat="47.41541" lon="6.51417">
        <ele>282.341</ele>
        <time>2015-10-03T09:41:20Z</time>
      </trkpt>
      <trkpt lat="47.41543" lon="6.51422">
        <ele>282.778</ele>
        <time>2015-10-03T09:41:21Z</time>
      </trkpt>
      <trkpt lat="47.41546" lon="6.51426">
        <ele>282.424</ele>
        <time>2015-10-03T09:41:22Z</time>
      </trkpt>
      <trkpt lat="47.41548" lon="6.51432">
        <ele>282.435</ele>
        <time>2015-10-03T09:41:23Z</time>
      </trkpt>
      <trkpt lat="47.41551" lon="6.51438">
        <ele>282.67</ele>
        <time>2015-10-03T09:41:24Z</time>
      </trkpt>
      <trkpt lat="47.41553" lon="6.51443">
        <ele>283.311</ele>
        <time>2015-10-03T09:41:25Z</time>
      </trkpt>
      <trkpt lat="47.41555" lon="6.51449">
        <ele>283.091</ele>
        <time>2015-10-03T09:41:26Z</time>
      </trkpt>
      <trkpt lat="47.41558" lon="6.51453">
        <ele>282.087</ele>
        <time>2015-10-03T09:41:27Z</time>
      </trkpt>
      <trkpt lat="47.41561" lon="6.51457">
        <ele>281.197</ele>
        <time>2015-10-03T09:41:28Z</time>
      </trkpt>
      <trkpt lat="47.41565" lon="6.51462">
        <ele>280.976</ele>
        <time>2015-10-03T09:41:29Z</time>
      </trkpt>
      <trkpt lat="47.41567" lon="6.51466">
        <ele>280.818</ele>
        <time>2015-10-03T09:41:30Z</time>
      </trkpt>
      <trkpt lat="47.41569" lon="6.51473">
        <ele>280.266</ele>
        <time>2015-10-03T09:41:31Z</time>
      </trkpt>
      <trkpt lat="47.41573" lon="6.51477">
        <ele>280.738</ele>
        <time>2015-10-03T09:41:32Z</time>
      </trkpt>
      <trkpt lat="47.41576" lon="6.51482">
        <ele>281.134</ele>
        <time>2015-10-03T09:41:33Z</time>
      </trkpt>
      <trkpt lat="47.41578" lon="6.51486">
        <ele>281.132</ele>
        <time>2015-10-03T09:41:34Z</time>
      </trkpt>
      <trkpt lat="47.4158" lon="6.51493">
        <ele>281.393</ele>
        <time>2015-10-03T09:41:35Z</time>
      </trkpt>
      <trkpt lat="47.41581" lon="6.51499">
        <ele>280.238</ele>
        <time>2015-10-03T09:41:36Z</time>
      </trkpt>
      <trkpt lat="47.41584" lon="6.51504">
        <ele>280.115</ele>
        <time>2015-10-03T09:41:37Z</time>
      </trkpt>
      <trkpt lat="47.41587" lon="6.51509">
        <ele>279.833</ele>
        <time>2015-10-03T09:41:38Z</time>
      </trkpt>
      <trkpt lat="47.4159" lon="6.51515">
        <ele>280.386</ele>
        <time>2015-10-03T09:41:39Z</time>
      </trkpt>
      <trkpt lat="47.41593" lon="6.51521">
        <ele>279.392</ele>
        <time>2015-10-03T09:41:40Z</time>
      </trkpt>
      <trkpt lat="47.41596" lon="6.51527">
        <ele>279.496</ele>
        <time>2015-10-03T09:41:41Z</time>
      </trkpt>
      <trkpt lat="47.41599" lon="6.5153">
        <ele>280.163</ele>
        <time>2015-10-03T09:41:42Z</time>
      </trkpt>
      <trkpt lat="47.41602" lon="6.51535">
        <ele>280.166</ele>
        <time>2015-10-03T09:41:43Z</time>
      </trkpt>
      <trkpt lat="47.41605" lon="6.5154">
        <ele>279.417</ele>
        <time>2015-10-03T09:41:44Z</time>
      </trkpt>
      <trkpt lat="47.41609" lon="6.51544">
        <ele>277.591</ele>
        <time>2015-10-03T09:41:45Z</time>
      </trkpt>
      <trkpt lat="47.41612" lon="6.5155">
        <ele>277.448</ele>
        <time>2015-10-03T09:41:46Z</time>
      </trkpt>
      <trkpt lat="47.41616" lon="6.51553">
        <ele>277.836</ele>
        <time>2015-10-03T09:41:47Z</time>
      </trkpt>
      <trkpt lat="47.41618" lon="6.51559">
        <ele>277.279</ele>
        <time>2015-10-03T09:41:48Z</time>
      </trkpt>
      <trkpt lat="47.41622" lon="6.51564">
        <ele>276.185</ele>
        <time>2015-10-03T09:41:49Z</time>
      </trkpt>
      <trkpt lat="47.41625" lon="6.51569">
        <ele>276.226</ele>
        <time>2015-10-03T09:41:50Z</time>
      </trkpt>
      <trkpt lat="47.41627" lon="6.51575">
        <ele>276.32</ele>
        <time>2015-10-03T09:41:51Z</time>
      </trkpt>
      <trkpt lat="47.41629" lon="6.5158">
        <ele>276.457</ele>
        <time>2015-10-03T09:41:52Z</time>
      </trkpt>
      <trkpt lat="47.4163" lon="6.51589">
        <ele>277.144</ele>
        <time>2015-10-03T09:41:53Z</time>
      </trkpt>
      <trkpt lat="47.41633" lon="6.51594">
        <ele>278.279</ele>
        <time>2015-10-03T09:41:54Z</time>
      </trkpt>
      <trkpt lat="47.41634" lon="6.51599">
        <ele>279.04</ele>
        <time>2015-10-03T09:41:55Z</time>
      </trkpt>
      <trkpt lat="47.41637" lon="6.51604">
        <ele>279.675</ele>
        <time>2015-10-03T09:41:56Z</time>
      </trkpt>
      <trkpt lat="47.41638" lon="6.51609">
        <ele>279.716</ele>
        <time>2015-10-03T09:41:57Z</time>
      </trkpt>
      <trkpt lat="47.41641" lon="6.51616">
        <ele>279.313</ele>
        <time>2015-10-03T09:41:58Z</time>
      </trkpt>
      <trkpt lat="47.41643" lon="6.51624">
        <ele>279.742</ele>
        <time>2015-10-03T09:41:59Z</time>
      </trkpt>
      <trkpt lat="47.41645" lon="6.5163">
        <ele>279.741</ele>
        <time>2015-10-03T09:42:00Z</time>
      </trkpt>
      <trkpt lat="47.41646" lon="6.51638">
        <ele>281.952</ele>
        <time>2015-10-03T09:42:01Z</time>
      </trkpt>
      <trkpt lat="47.41649" lon="6.51641">
        <ele>279.611</ele>
        <time>2015-10-03T09:42:02Z</time>
      </trkpt>
      <trkpt lat="47.4165" lon="6.51648">
        <ele>279.571</ele>
        <time>2015-10-03T09:42:03Z</time>
      </trkpt>
      <trkpt lat="47.41652" lon="6.51654">
        <ele>279.546</ele>
        <time>2015-10-03T09:42:04Z</time>
      </trkpt>
      <trkpt lat="47.41654" lon="6.5166">
        <ele>279.005</ele>
        <time>2015-10-03T09:42:05Z</time>
      </trkpt>
      <trkpt lat="47.41655" lon="6.51666">
        <ele>280.06</ele>
        <time>2015-10-03T09:42:06Z</time>
      </trkpt>
      <trkpt lat="47.41657" lon="6.51672">
        <ele>280.034</ele>
        <time>2015-10-03T09:42:07Z</time>
      </trkpt>
      <trkpt lat="47.41657" lon="6.51678">
        <ele>282.37</ele>
        <time>2015-10-03T09:42:08Z</time>
      </trkpt>
      <trkpt lat="47.41658" lon="6.51685">
        <ele>281.713</ele>
        <time>2015-10-03T09:42:09Z</time>
      </trkpt>
      <trkpt lat="47.41659" lon="6.5169">
        <ele>280.935</ele>
        <time>2015-10-03T09:42:10Z</time>
      </trkpt>
      <trkpt lat="47.4166" lon="6.51696">
        <ele>280.907</ele>
        <time>2015-10-03T09:42:11Z</time>
      </trkpt>
      <trkpt lat="47.41662" lon="6.51703">
        <ele>277.939</ele>
        <time>2015-10-03T09:42:12Z</time>
      </trkpt>
      <trkpt lat="47.41664" lon="6.51709">
        <ele>277.871</ele>
        <time>2015-10-03T09:42:13Z</time>
      </trkpt>
      <trkpt lat="47.41666" lon="6.51716">
        <ele>276.414</ele>
        <time>2015-10-03T09:42:14Z</time>
      </trkpt>
      <trkpt lat="47.41667" lon="6.51723">
        <ele>276.256</ele>
        <time>2015-10-03T09:42:15Z</time>
      </trkpt>
      <trkpt lat="47.41668" lon="6.5173">
        <ele>276.271</ele>
        <time>2015-10-03T09:42:16Z</time>
      </trkpt>
      <trkpt lat="47.41669" lon="6.51736">
        <ele>273.797</ele>
        <time>2015-10-03T09:42:17Z</time>
      </trkpt>
      <trkpt lat="47.41671" lon="6.51743">
        <ele>274.478</ele>
        <time>2015-10-03T09:42:18Z</time>
      </trkpt>
      <trkpt lat="47.41671" lon="6.51749">
        <ele>272.9</ele>
        <time>2015-10-03T09:42:19Z</time>
      </trkpt>
      <trkpt lat="47.41671" lon="6.51754">
        <ele>271.113</ele>
        <time>2015-10-03T09:42:20Z</time>
      </trkpt>
      <trkpt lat="47.41672" lon="6.5176">
        <ele>270.501</ele>
        <time>2015-10-03T09:42:21Z</time>
      </trkpt>
      <trkpt lat="47.41672" lon="6.51767">
        <ele>272.132</ele>
        <time>2015-10-03T09:42:22Z</time>
      </trkpt>
      <trkpt lat="47.41673" lon="6.51774">
        <ele>273.15</ele>
        <time>2015-10-03T09:42:23Z</time>
      </trkpt>
      <trkpt lat="47.41673" lon="6.51781">
        <ele>271.17</ele>
        <time>2015-10-03T09:42:24Z</time>
      </trkpt>
      <trkpt lat="47.41673" lon="6.51786">
        <ele>270.424</ele>
        <time>2015-10-03T09:42:25Z</time>
      </trkpt>
      <trkpt lat="47.41675" lon="6.51794">
        <ele>268.732</ele>
        <time>2015-10-03T09:42:26Z</time>
      </trkpt>
      <trkpt lat="47.41674" lon="6.518">
        <ele>268.647</ele>
        <time>2015-10-03T09:42:27Z</time>
      </trkpt>
      <trkpt lat="47.41673" lon="6.51806">
        <ele>268.907</ele>
        <time>2015-10-03T09:42:28Z</time>
      </trkpt>
      <trkpt lat="47.41671" lon="6.51812">
        <ele>269.144</ele>
        <time>2015-10-03T09:42:29Z</time>
      </trkpt>
      <trkpt lat="47.41672" lon="6.51818">
        <ele>269.291</ele>
        <time>2015-10-03T09:42:30Z</time>
      </trkpt>
      <trkpt lat="47.41671" lon="6.51826">
        <ele>268.473</ele>
        <time>2015-10-03T09:42:31Z</time>
      </trkpt>
      <trkpt lat="47.41671" lon="6.51832">
        <ele>267.587</ele>
        <time>2015-10-03T09:42:32Z</time>
      </trkpt>
      <trkpt lat="47.4167" lon="6.51839">
        <ele>268.267</ele>
        <time>2015-10-03T09:42:33Z</time>
      </trkpt>
      <trkpt lat="47.41668" lon="6.51845">
        <ele>269.962</ele>
        <time>2015-10-03T09:42:34Z</time>
      </trkpt>
      <trkpt lat="47.41667" lon="6.51852">
        <ele>270.018</ele>
        <time>2015-10-03T09:42:35Z</time>
      </trkpt>
      <trkpt lat="47.41667" lon="6.51858">
        <ele>269.799</ele>
        <time>2015-10-03T09:42:36Z</time>
      </trkpt>
      <trkpt lat="47.41666" lon="6.51864">
        <ele>269.787</ele>
        <time>2015-10-03T09:42:37Z</time>
      </trkpt>
      <trkpt lat="47.41664" lon="6.5187">
        <ele>268.967</ele>
        <time>2015-10-03T09:42:38Z</time>
      </trkpt>
      <trkpt lat="47.41663" lon="6.51875">
        <ele>268.466</ele>
        <time>2015-10-03T09:42:39Z</time>
      </trkpt>
      <trkpt lat="47.41662" lon="6.51882">
        <ele>268.472</ele>
        <time>2015-10-03T09:42:40Z</time>
      </trkpt>
      <trkpt lat="47.41661" lon="6.5189">
        <ele>267.931</ele>
        <time>2015-10-03T09:42:41Z</time>
      </trkpt>
      <trkpt lat="47.4166" lon="6.51896">
        <ele>267.99</ele>
        <time>2015-10-03T09:42:42Z</time>
      </trkpt>
      <trkpt lat="47.41664" lon="6.51906">
        <ele>264.835</ele>
        <time>2015-10-03T09:42:43Z</time>
      </trkpt>
      <trkpt lat="47.41662" lon="6.51912">
        <ele>263.409</ele>
        <time>2015-10-03T09:42:44Z</time>
      </trkpt>
      <trkpt lat="47.41662" lon="6.51919">
        <ele>264.181</ele>
        <time>2015-10-03T09:42:45Z</time>
      </trkpt>
      <trkpt lat="47.4166" lon="6.51924">
        <ele>264.393</ele>
        <time>2015-10-03T09:42:46Z</time>
      </trkpt>
      <trkpt lat="47.41656" lon="6.51929">
        <ele>268.746</ele>
        <time>2015-10-03T09:42:47Z</time>
      </trkpt>
      <trkpt lat="47.41656" lon="6.5194">
        <ele>268.527</ele>
        <time>2015-10-03T09:42:48Z</time>
      </trkpt>
      <trkpt lat="47.41654" lon="6.51947">
        <ele>270.289</ele>
        <time>2015-10-03T09:42:49Z</time>
      </trkpt>
      <trkpt lat="47.41652" lon="6.51952">
        <ele>270.777</ele>
        <time>2015-10-03T09:42:50Z</time>
      </trkpt>
      <trkpt lat="47.41651" lon="6.51958">
        <ele>271.563</ele>
        <time>2015-10-03T09:42:51Z</time>
      </trkpt>
      <trkpt lat="47.4165" lon="6.51964">
        <ele>272.281</ele>
        <time>2015-10-03T09:42:52Z</time>
      </trkpt>
      <trkpt lat="47.41648" lon="6.51971">
        <ele>272.174</ele>
        <time>2015-10-03T09:42:53Z</time>
      </trkpt>
      <trkpt lat="47.41646" lon="6.51977">
        <ele>272.375</ele>
        <time>2015-10-03T09:42:54Z</time>
      </trkpt>
      <trkpt lat="47.41644" lon="6.51984">
        <ele>273.869</ele>
        <time>2015-10-03T09:42:55Z</time>
      </trkpt>
      <trkpt lat="47.41645" lon="6.51992">
        <ele>274.404</ele>
        <time>2015-10-03T09:42:56Z</time>
      </trkpt>
      <trkpt lat="47.41643" lon="6.51997">
        <ele>275.257</ele>
        <time>2015-10-03T09:42:57Z</time>
      </trkpt>
      <trkpt lat="47.41642" lon="6.52001">
        <ele>275.861</ele>
        <time>2015-10-03T09:42:58Z</time>
      </trkpt>
      <trkpt lat="47.41641" lon="6.52009">
        <ele>275.296</ele>
        <time>2015-10-03T09:42:59Z</time>
      </trkpt>
      <trkpt lat="47.41641" lon="6.52015">
        <ele>276.66</ele>
        <time>2015-10-03T09:43:00Z</time>
      </trkpt>
      <trkpt lat="47.4164" lon="6.5202">
        <ele>276.73</ele>
        <time>2015-10-03T09:43:01Z</time>
      </trkpt>
      <trkpt lat="47.4164" lon="6.52027">
        <ele>276.691</ele>
        <time>2015-10-03T09:43:02Z</time>
      </trkpt>
      <trkpt lat="47.41641" lon="6.52032">
        <ele>276.574</ele>
        <time>2015-10-03T09:43:03Z</time>
      </trkpt>
      <trkpt lat="47.4164" lon="6.52037">
        <ele>276.88</ele>
        <time>2015-10-03T09:43:04Z</time>
      </trkpt>
      <trkpt lat="47.4164" lon="6.52042">
        <ele>277.539</ele>
        <time>2015-10-03T09:43:05Z</time>
      </trkpt>
      <trkpt lat="47.4164" lon="6.52046">
        <ele>278.481</ele>
        <time>2015-10-03T09:43:06Z</time>
      </trkpt>
      <trkpt lat="47.4164" lon="6.52051">
        <ele>277.537</ele>
        <time>2015-10-03T09:43:07Z</time>
      </trkpt>
      <trkpt lat="47.4164" lon="6.52055">
        <ele>276.221</ele>
        <time>2015-10-03T09:43:08Z</time>
      </trkpt>
      <trkpt lat="47.41638" lon="6.52058">
        <ele>275.13</ele>
        <time>2015-10-03T09:43:09Z</time>
      </trkpt>
      <trkpt lat="47.41638" lon="6.52065">
        <ele>274.714</ele>
        <time>2015-10-03T09:43:10Z</time>
      </trkpt>
      <trkpt lat="47.41637" lon="6.52072">
        <ele>275.321</ele>
        <time>2015-10-03T09:43:11Z</time>
      </trkpt>
      <trkpt lat="47.41637" lon="6.52079">
        <ele>275.264</ele>
        <time>2015-10-03T09:43:12Z</time>
      </trkpt>
      <trkpt lat="47.41637" lon="6.52087">
        <ele>275.815</ele>
        <time>2015-10-03T09:43:13Z</time>
      </trkpt>
      <trkpt lat="47.41636" lon="6.52095">
        <ele>275.944</ele>
        <time>2015-10-03T09:43:14Z</time>
      </trkpt>
      <trkpt lat="47.41636" lon="6.52102">
        <ele>276.834</ele>
        <time>2015-10-03T09:43:15Z</time>
      </trkpt>
      <trkpt lat="47.41636" lon="6.52108">
        <ele>277.546</ele>
        <time>2015-10-03T09:43:16Z</time>
      </trkpt>
      <trkpt lat="47.41637" lon="6.52114">
        <ele>277.955</ele>
        <time>2015-10-03T09:43:17Z</time>
      </trkpt>
      <trkpt lat="47.41638" lon="6.52121">
        <ele>278.253</ele>
        <time>2015-10-03T09:43:18Z</time>
      </trkpt>
      <trkpt lat="47.4164" lon="6.5213">
        <ele>277.864</ele>
        <time>2015-10-03T09:43:19Z</time>
      </trkpt>
      <trkpt lat="47.41641" lon="6.52135">
        <ele>278.298</ele>
        <time>2015-10-03T09:43:20Z</time>
      </trkpt>
      <trkpt lat="47.41642" lon="6.52141">
        <ele>278.312</ele>
        <time>2015-10-03T09:43:21Z</time>
      </trkpt>
      <trkpt lat="47.41642" lon="6.52147">
        <ele>279.552</ele>
        <time>2015-10-03T09:43:22Z</time>
      </trkpt>
      <trkpt lat="47.4164" lon="6.52152">
        <ele>277.733</ele>
        <time>2015-10-03T09:43:23Z</time>
      </trkpt>
      <trkpt lat="47.41639" lon="6.52158">
        <ele>277.272</ele>
        <time>2015-10-03T09:43:24Z</time>
      </trkpt>
      <trkpt lat="47.41639" lon="6.52165">
        <ele>276.817</ele>
        <time>2015-10-03T09:43:25Z</time>
      </trkpt>
      <trkpt lat="47.4164" lon="6.52175">
        <ele>274.568</ele>
        <time>2015-10-03T09:43:26Z</time>
      </trkpt>
      <trkpt lat="47.41641" lon="6.52179">
        <ele>273.363</ele>
        <time>2015-10-03T09:43:27Z</time>
      </trkpt>
      <trkpt lat="47.41641" lon="6.52188">
        <ele>272.139</ele>
        <time>2015-10-03T09:43:28Z</time>
      </trkpt>
      <trkpt lat="47.41645" lon="6.52197">
        <ele>268.954</ele>
        <time>2015-10-03T09:43:29Z</time>
      </trkpt>
      <trkpt lat="47.41645" lon="6.52204">
        <ele>268.701</ele>
        <time>2015-10-03T09:43:30Z</time>
      </trkpt>
      <trkpt lat="47.41645" lon="6.52211">
        <ele>268.527</ele>
        <time>2015-10-03T09:43:31Z</time>
      </trkpt>
      <trkpt lat="47.41646" lon="6.52218">
        <ele>269.05</ele>
        <time>2015-10-03T09:43:32Z</time>
      </trkpt>
      <trkpt lat="47.41646" lon="6.52226">
        <ele>269.746</ele>
        <time>2015-10-03T09:43:33Z</time>
      </trkpt>
      <trkpt lat="47.41644" lon="6.52231">
        <ele>270.451</ele>
        <time>2015-10-03T09:43:34Z</time>
      </trkpt>
      <trkpt lat="47.41643" lon="6.52237">
        <ele>271.992</ele>
        <time>2015-10-03T09:43:35Z</time>
      </trkpt>
      <trkpt lat="47.41643" lon="6.52244">
        <ele>272.197</ele>
        <time>2015-10-03T09:43:36Z</time>
      </trkpt>
      <trkpt lat="47.41641" lon="6.5225">
        <ele>271.686</ele>
        <time>2015-10-03T09:43:37Z</time>
      </trkpt>
      <trkpt lat="47.41641" lon="6.52255">
        <ele>272.642</ele>
        <time>2015-10-03T09:43:38Z</time>
      </trkpt>
      <trkpt lat="47.4164" lon="6.52261">
        <ele>273.876</ele>
        <time>2015-10-03T09:43:39Z</time>
      </trkpt>
      <trkpt lat="47.41639" lon="6.52266">
        <ele>272.926</ele>
        <time>2015-10-03T09:43:40Z</time>
      </trkpt>
      <trkpt lat="47.41638" lon="6.52271">
        <ele>271.853</ele>
        <time>2015-10-03T09:43:41Z</time>
      </trkpt>
      <trkpt lat="47.41638" lon="6.52277">
        <ele>272.825</ele>
        <time>2015-10-03T09:43:42Z</time>
      </trkpt>
      <trkpt lat="47.41639" lon="6.52286">
        <ele>271.563</ele>
        <time>2015-10-03T09:43:43Z</time>
      </trkpt>
      <trkpt lat="47.41638" lon="6.52292">
        <ele>272.44</ele>
        <time>2015-10-03T09:43:44Z</time>
      </trkpt>
      <trkpt lat="47.41638" lon="6.52297">
        <ele>271.499</ele>
        <time>2015-10-03T09:43:45Z</time>
      </trkpt>
      <trkpt lat="47.41637" lon="6.52302">
        <ele>270.002</ele>
        <time>2015-10-03T09:43:46Z</time>
      </trkpt>
      <trkpt lat="47.41638" lon="6.52308">
        <ele>271.405</ele>
        <time>2015-10-03T09:43:47Z</time>
      </trkpt>
      <trkpt lat="47.41638" lon="6.52314">
        <ele>271.218</ele>
        <time>2015-10-03T09:43:48Z</time>
      </trkpt>
      <trkpt lat="47.41638" lon="6.52319">
        <ele>271.472</ele>
        <time>2015-10-03T09:43:49Z</time>
      </trkpt>
      <trkpt lat="47.41637" lon="6.52324">
        <ele>272.188</ele>
        <time>2015-10-03T09:43:50Z</time>
      </trkpt>
      <trkpt lat="47.41637" lon="6.5233">
        <ele>272.883</ele>
        <time>2015-10-03T09:43:51Z</time>
      </trkpt>
      <trkpt lat="47.41637" lon="6.52336">
        <ele>273.512</ele>
        <time>2015-10-03T09:43:52Z</time>
      </trkpt>
      <trkpt lat="47.41637" lon="6.52341">
        <ele>272.994</ele>
        <time>2015-10-03T09:43:53Z</time>
      </trkpt>
      <trkpt lat="47.41637" lon="6.52347">
        <ele>272.644</ele>
        <time>2015-10-03T09:43:54Z</time>
      </trkpt>
      <trkpt lat="47.41637" lon="6.52353">
        <ele>273.157</ele>
        <time>2015-10-03T09:43:55Z</time>
      </trkpt>
      <trkpt lat="47.41636" lon="6.52359">
        <ele>272.806</ele>
        <time>2015-10-03T09:43:56Z</time>
      </trkpt>
      <trkpt lat="47.41636" lon="6.52365">
        <ele>272.365</ele>
        <time>2015-10-03T09:43:57Z</time>
      </trkpt>
      <trkpt lat="47.41636" lon="6.52371">
        <ele>272.329</ele>
        <time>2015-10-03T09:43:58Z</time>
      </trkpt>
      <trkpt lat="47.41636" lon="6.52377">
        <ele>272.815</ele>
        <time>2015-10-03T09:43:59Z</time>
      </trkpt>
      <trkpt lat="47.41636" lon="6.52383">
        <ele>272.977</ele>
        <time>2015-10-03T09:44:00Z</time>
      </trkpt>
      <trkpt lat="47.41636" lon="6.52389">
        <ele>272.266</ele>
        <time>2015-10-03T09:44:01Z</time>
      </trkpt>
      <trkpt lat="47.41636" lon="6.52396">
        <ele>271.876</ele>
        <time>2015-10-03T09:44:02Z</time>
      </trkpt>
      <trkpt lat="47.41636" lon="6.52402">
        <ele>271.676</ele>
        <time>2015-10-03T09:44:03Z</time>
      </trkpt>
      <trkpt lat="47.41636" lon="6.52407">
        <ele>271.821</ele>
        <time>2015-10-03T09:44:04Z</time>
      </trkpt>
      <trkpt lat="47.41636" lon="6.52414">
        <ele>271.415</ele>
        <time>2015-10-03T09:44:05Z</time>
      </trkpt>
      <trkpt lat="47.41637" lon="6.5242">
        <ele>271.544</ele>
        <time>2015-10-03T09:44:06Z</time>
      </trkpt>
      <trkpt lat="47.41637" lon="6.52426">
        <ele>271.667</ele>
        <time>2015-10-03T09:44:07Z</time>
      </trkpt>
      <trkpt lat="47.41637" lon="6.52433">
        <ele>270.603</ele>
        <time>2015-10-03T09:44:08Z</time>
      </trkpt>
      <trkpt lat="47.41637" lon="6.52439">
        <ele>270.441</ele>
        <time>2015-10-03T09:44:09Z</time>
      </trkpt>
      <trkpt lat="47.41637" lon="6.52445">
        <ele>269.609</ele>
        <time>2015-10-03T09:44:10Z</time>
      </trkpt>
      <trkpt lat="47.41637" lon="6.52451">
        <ele>268.635</ele>
        <time>2015-10-03T09:44:11Z</time>
      </trkpt>
      <trkpt lat="47.41636" lon="6.52457">
        <ele>269.913</ele>
        <time>2015-10-03T09:44:12Z</time>
      </trkpt>
      <trkpt lat="47.41636" lon="6.52462">
        <ele>270.251</ele>
        <time>2015-10-03T09:44:13Z</time>
      </trkpt>
      <trkpt lat="47.41635" lon="6.52467">
        <ele>271.35</ele>
        <time>2015-10-03T09:44:14Z</time>
      </trkpt>
      <trkpt lat="47.41635" lon="6.52473">
        <ele>271.292</ele>
        <time>2015-10-03T09:44:15Z</time>
      </trkpt>
      <trkpt lat="47.41634" lon="6.52478">
        <ele>271.663</ele>
        <time>2015-10-03T09:44:16Z</time>
      </trkpt>
      <trkpt lat="47.41634" lon="6.52483">
        <ele>271.651</ele>
        <time>2015-10-03T09:44:17Z</time>
      </trkpt>
      <trkpt lat="47.41634" lon="6.52488">
        <ele>271.352</ele>
        <time>2015-10-03T09:44:18Z</time>
      </trkpt>
      <trkpt lat="47.41634" lon="6.52494">
        <ele>270.856</ele>
        <time>2015-10-03T09:44:19Z</time>
      </trkpt>
      <trkpt lat="47.41634" lon="6.525">
        <ele>270.678</ele>
        <time>2015-10-03T09:44:20Z</time>
      </trkpt>
      <trkpt lat="47.41634" lon="6.52505">
        <ele>270.745</ele>
        <time>2015-10-03T09:44:21Z</time>
      </trkpt>
      <trkpt lat="47.41634" lon="6.52511">
        <ele>271.825</ele>
        <time>2015-10-03T09:44:22Z</time>
      </trkpt>
      <trkpt lat="47.41634" lon="6.52517">
        <ele>271.41</ele>
        <time>2015-10-03T09:44:23Z</time>
      </trkpt>
      <trkpt lat="47.41634" lon="6.52523">
        <ele>271.508</ele>
        <time>2015-10-03T09:44:24Z</time>
      </trkpt>
      <trkpt lat="47.41634" lon="6.52529">
        <ele>271.199</ele>
        <time>2015-10-03T09:44:25Z</time>
      </trkpt>
      <trkpt lat="47.41634" lon="6.52535">
        <ele>271.433</ele>
        <time>2015-10-03T09:44:26Z</time>
      </trkpt>
      <trkpt lat="47.41634" lon="6.52542">
        <ele>270.331</ele>
        <time>2015-10-03T09:44:27Z</time>
      </trkpt>
      <trkpt lat="47.41634" lon="6.52548">
        <ele>271.113</ele>
        <time>2015-10-03T09:44:28Z</time>
      </trkpt>
      <trkpt lat="47.41634" lon="6.52554">
        <ele>271.421</ele>
        <time>2015-10-03T09:44:29Z</time>
      </trkpt>
      <trkpt lat="47.41633" lon="6.5256">
        <ele>271.86</ele>
        <time>2015-10-03T09:44:30Z</time>
      </trkpt>
      <trkpt lat="47.41633" lon="6.52566">
        <ele>271.293</ele>
        <time>2015-10-03T09:44:31Z</time>
      </trkpt>
      <trkpt lat="47.41632" lon="6.52572">
        <ele>269.624</ele>
        <time>2015-10-03T09:44:32Z</time>
      </trkpt>
      <trkpt lat="47.41632" lon="6.52582">
        <ele>269.064</ele>
        <time>2015-10-03T09:44:33Z</time>
      </trkpt>
      <trkpt lat="47.41632" lon="6.52587">
        <ele>268.606</ele>
        <time>2015-10-03T09:44:34Z</time>
      </trkpt>
      <trkpt lat="47.41632" lon="6.52593">
        <ele>268.859</ele>
        <time>2015-10-03T09:44:35Z</time>
      </trkpt>
      <trkpt lat="47.41632" lon="6.52599">
        <ele>268.964</ele>
        <time>2015-10-03T09:44:36Z</time>
      </trkpt>
      <trkpt lat="47.41632" lon="6.52605">
        <ele>269.281</ele>
        <time>2015-10-03T09:44:37Z</time>
      </trkpt>
      <trkpt lat="47.41632" lon="6.52612">
        <ele>269.631</ele>
        <time>2015-10-03T09:44:38Z</time>
      </trkpt>
      <trkpt lat="47.41632" lon="6.52619">
        <ele>270.095</ele>
        <time>2015-10-03T09:44:39Z</time>
      </trkpt>
      <trkpt lat="47.41632" lon="6.52626">
        <ele>271.016</ele>
        <time>2015-10-03T09:44:40Z</time>
      </trkpt>
      <trkpt lat="47.41632" lon="6.52631">
        <ele>270.828</ele>
        <time>2015-10-03T09:44:41Z</time>
      </trkpt>
      <trkpt lat="47.41631" lon="6.52639">
        <ele>270.535</ele>
        <time>2015-10-03T09:44:42Z</time>
      </trkpt>
      <trkpt lat="47.41632" lon="6.52647">
        <ele>270.682</ele>
        <time>2015-10-03T09:44:43Z</time>
      </trkpt>
      <trkpt lat="47.41632" lon="6.52653">
        <ele>270.634</ele>
        <time>2015-10-03T09:44:44Z</time>
      </trkpt>
      <trkpt lat="47.41632" lon="6.5266">
        <ele>271.379</ele>
        <time>2015-10-03T09:44:45Z</time>
      </trkpt>
      <trkpt lat="47.41632" lon="6.52666">
        <ele>271.454</ele>
        <time>2015-10-03T09:44:46Z</time>
      </trkpt>
      <trkpt lat="47.41632" lon="6.52672">
        <ele>271.086</ele>
        <time>2015-10-03T09:44:47Z</time>
      </trkpt>
      <trkpt lat="47.41632" lon="6.52679">
        <ele>271.779</ele>
        <time>2015-10-03T09:44:48Z</time>
      </trkpt>
      <trkpt lat="47.41632" lon="6.52685">
        <ele>272.146</ele>
        <time>2015-10-03T09:44:49Z</time>
      </trkpt>
      <trkpt lat="47.41632" lon="6.52692">
        <ele>272.105</ele>
        <time>2015-10-03T09:44:50Z</time>
      </trkpt>
      <trkpt lat="47.41632" lon="6.52698">
        <ele>271.829</ele>
        <time>2015-10-03T09:44:51Z</time>
      </trkpt>
      <trkpt lat="47.41632" lon="6.52705">
        <ele>271.381</ele>
        <time>2015-10-03T09:44:52Z</time>
      </trkpt>
      <trkpt lat="47.41632" lon="6.52711">
        <ele>271.799</ele>
        <time>2015-10-03T09:44:53Z</time>
      </trkpt>
      <trkpt lat="47.41632" lon="6.52717">
        <ele>272.225</ele>
        <time>2015-10-03T09:44:54Z</time>
      </trkpt>
      <trkpt lat="47.41631" lon="6.52724">
        <ele>272.173</ele>
        <time>2015-10-03T09:44:55Z</time>
      </trkpt>
      <trkpt lat="47.41631" lon="6.52729">
        <ele>272.54</ele>
        <time>2015-10-03T09:44:56Z</time>
      </trkpt>
      <trkpt lat="47.41631" lon="6.52735">
        <ele>273.524</ele>
        <time>2015-10-03T09:44:57Z</time>
      </trkpt>
      <trkpt lat="47.4163" lon="6.52741">
        <ele>272.511</ele>
        <time>2015-10-03T09:44:58Z</time>
      </trkpt>
      <trkpt lat="47.4163" lon="6.52748">
        <ele>272.172</ele>
        <time>2015-10-03T09:44:59Z</time>
      </trkpt>
      <trkpt lat="47.4163" lon="6.52754">
        <ele>271.84</ele>
        <time>2015-10-03T09:45:00Z</time>
      </trkpt>
      <trkpt lat="47.4163" lon="6.52761">
        <ele>273.071</ele>
        <time>2015-10-03T09:45:01Z</time>
      </trkpt>
      <trkpt lat="47.41629" lon="6.52768">
        <ele>273.54</ele>
        <time>2015-10-03T09:45:02Z</time>
      </trkpt>
      <trkpt lat="47.41629" lon="6.52773">
        <ele>274.532</ele>
        <time>2015-10-03T09:45:03Z</time>
      </trkpt>
      <trkpt lat="47.41628" lon="6.5278">
        <ele>274.536</ele>
        <time>2015-10-03T09:45:04Z</time>
      </trkpt>
      <trkpt lat="47.41628" lon="6.52786">
        <ele>274.071</ele>
        <time>2015-10-03T09:45:05Z</time>
      </trkpt>
      <trkpt lat="47.41628" lon="6.52792">
        <ele>273.074</ele>
        <time>2015-10-03T09:45:06Z</time>
      </trkpt>
      <trkpt lat="47.41628" lon="6.52799">
        <ele>272.459</ele>
        <time>2015-10-03T09:45:07Z</time>
      </trkpt>
      <trkpt lat="47.41628" lon="6.52804">
        <ele>272.62</ele>
        <time>2015-10-03T09:45:08Z</time>
      </trkpt>
      <trkpt lat="47.41628" lon="6.52811">
        <ele>271.936</ele>
        <time>2015-10-03T09:45:09Z</time>
      </trkpt>
      <trkpt lat="47.41627" lon="6.52817">
        <ele>272.504</ele>
        <time>2015-10-03T09:45:10Z</time>
      </trkpt>
      <trkpt lat="47.41628" lon="6.52823">
        <ele>273.097</ele>
        <time>2015-10-03T09:45:11Z</time>
      </trkpt>
      <trkpt lat="47.41627" lon="6.52829">
        <ele>273.243</ele>
        <time>2015-10-03T09:45:12Z</time>
      </trkpt>
      <trkpt lat="47.41627" lon="6.52836">
        <ele>273.56</ele>
        <time>2015-10-03T09:45:13Z</time>
      </trkpt>
      <trkpt lat="47.41627" lon="6.52843">
        <ele>273.446</ele>
        <time>2015-10-03T09:45:14Z</time>
      </trkpt>
      <trkpt lat="47.41628" lon="6.52851">
        <ele>273.613</ele>
        <time>2015-10-03T09:45:15Z</time>
      </trkpt>
      <trkpt lat="47.41626" lon="6.52858">
        <ele>274.205</ele>
        <time>2015-10-03T09:45:16Z</time>
      </trkpt>
      <trkpt lat="47.41626" lon="6.52865">
        <ele>274.436</ele>
        <time>2015-10-03T09:45:17Z</time>
      </trkpt>
      <trkpt lat="47.41626" lon="6.52872">
        <ele>275.163</ele>
        <time>2015-10-03T09:45:18Z</time>
      </trkpt>
      <trkpt lat="47.41626" lon="6.52877">
        <ele>275.428</ele>
        <time>2015-10-03T09:45:19Z</time>
      </trkpt>
      <trkpt lat="47.41626" lon="6.52885">
        <ele>275.323</ele>
        <time>2015-10-03T09:45:20Z</time>
      </trkpt>
      <trkpt lat="47.41626" lon="6.52891">
        <ele>275.499</ele>
        <time>2015-10-03T09:45:21Z</time>
      </trkpt>
      <trkpt lat="47.41626" lon="6.52898">
        <ele>274.84</ele>
        <time>2015-10-03T09:45:22Z</time>
      </trkpt>
      <trkpt lat="47.41626" lon="6.52904">
        <ele>275.087</ele>
        <time>2015-10-03T09:45:23Z</time>
      </trkpt>
      <trkpt lat="47.41625" lon="6.5291">
        <ele>274.665</ele>
        <time>2015-10-03T09:45:24Z</time>
      </trkpt>
      <trkpt lat="47.41625" lon="6.52916">
        <ele>273.658</ele>
        <time>2015-10-03T09:45:25Z</time>
      </trkpt>
      <trkpt lat="47.41624" lon="6.52922">
        <ele>273.806</ele>
        <time>2015-10-03T09:45:26Z</time>
      </trkpt>
      <trkpt lat="47.41624" lon="6.52929">
        <ele>274.457</ele>
        <time>2015-10-03T09:45:27Z</time>
      </trkpt>
      <trkpt lat="47.41625" lon="6.52936">
        <ele>274.707</ele>
        <time>2015-10-03T09:45:28Z</time>
      </trkpt>
      <trkpt lat="47.41625" lon="6.52942">
        <ele>275.236</ele>
        <time>2015-10-03T09:45:29Z</time>
      </trkpt>
      <trkpt lat="47.41624" lon="6.52947">
        <ele>275.934</ele>
        <time>2015-10-03T09:45:30Z</time>
      </trkpt>
      <trkpt lat="47.41624" lon="6.52954">
        <ele>275.268</ele>
        <time>2015-10-03T09:45:31Z</time>
      </trkpt>
      <trkpt lat="47.41624" lon="6.52962">
        <ele>274.781</ele>
        <time>2015-10-03T09:45:32Z</time>
      </trkpt>
      <trkpt lat="47.41624" lon="6.52968">
        <ele>274.529</ele>
        <time>2015-10-03T09:45:33Z</time>
      </trkpt>
      <trkpt lat="47.41625" lon="6.52974">
        <ele>274.142</ele>
        <time>2015-10-03T09:45:34Z</time>
      </trkpt>
      <trkpt lat="47.41624" lon="6.5298">
        <ele>273.537</ele>
        <time>2015-10-03T09:45:35Z</time>
      </trkpt>
      <trkpt lat="47.41624" lon="6.52986">
        <ele>273.269</ele>
        <time>2015-10-03T09:45:36Z</time>
      </trkpt>
      <trkpt lat="47.41625" lon="6.52992">
        <ele>270.752</ele>
        <time>2015-10-03T09:45:37Z</time>
      </trkpt>
      <trkpt lat="47.41625" lon="6.52999">
        <ele>271.169</ele>
        <time>2015-10-03T09:45:38Z</time>
      </trkpt>
      <trkpt lat="47.41624" lon="6.53006">
        <ele>271.53</ele>
        <time>2015-10-03T09:45:39Z</time>
      </trkpt>
      <trkpt lat="47.41624" lon="6.53015">
        <ele>271.539</ele>
        <time>2015-10-03T09:45:40Z</time>
      </trkpt>
      <trkpt lat="47.41624" lon="6.53022">
        <ele>270.762</ele>
        <time>2015-10-03T09:45:41Z</time>
      </trkpt>
      <trkpt lat="47.41624" lon="6.53028">
        <ele>271.238</ele>
        <time>2015-10-03T09:45:42Z</time>
      </trkpt>
      <trkpt lat="47.41625" lon="6.53036">
        <ele>270.683</ele>
        <time>2015-10-03T09:45:43Z</time>
      </trkpt>
      <trkpt lat="47.41625" lon="6.53042">
        <ele>271.041</ele>
        <time>2015-10-03T09:45:44Z</time>
      </trkpt>
      <trkpt lat="47.41624" lon="6.53049">
        <ele>271.578</ele>
        <time>2015-10-03T09:45:45Z</time>
      </trkpt>
      <trkpt lat="47.41625" lon="6.53054">
        <ele>270.308</ele>
        <time>2015-10-03T09:45:46Z</time>
      </trkpt>
      <trkpt lat="47.41624" lon="6.53061">
        <ele>270.846</ele>
        <time>2015-10-03T09:45:47Z</time>
      </trkpt>
      <trkpt lat="47.41624" lon="6.53067">
        <ele>271.32</ele>
        <time>2015-10-03T09:45:48Z</time>
      </trkpt>
      <trkpt lat="47.41623" lon="6.53074">
        <ele>271.668</ele>
        <time>2015-10-03T09:45:49Z</time>
      </trkpt>
      <trkpt lat="47.41623" lon="6.53081">
        <ele>271.84</ele>
        <time>2015-10-03T09:45:50Z</time>
      </trkpt>
      <trkpt lat="47.41623" lon="6.53087">
        <ele>270.407</ele>
        <time>2015-10-03T09:45:51Z</time>
      </trkpt>
      <trkpt lat="47.41622" lon="6.53093">
        <ele>270.634</ele>
        <time>2015-10-03T09:45:52Z</time>
      </trkpt>
      <trkpt lat="47.41621" lon="6.53101">
        <ele>270.578</ele>
        <time>2015-10-03T09:45:53Z</time>
      </trkpt>
      <trkpt lat="47.41621" lon="6.53107">
        <ele>270.907</ele>
        <time>2015-10-03T09:45:54Z</time>
      </trkpt>
      <trkpt lat="47.41621" lon="6.53112">
        <ele>271.168</ele>
        <time>2015-10-03T09:45:55Z</time>
      </trkpt>
      <trkpt lat="47.4162" lon="6.53119">
        <ele>272.035</ele>
        <time>2015-10-03T09:45:56Z</time>
      </trkpt>
      <trkpt lat="47.4162" lon="6.53125">
        <ele>272.728</ele>
        <time>2015-10-03T09:45:57Z</time>
      </trkpt>
      <trkpt lat="47.4162" lon="6.53133">
        <ele>273.42</ele>
        <time>2015-10-03T09:45:58Z</time>
      </trkpt>
      <trkpt lat="47.4162" lon="6.53139">
        <ele>274.285</ele>
        <time>2015-10-03T09:45:59Z</time>
      </trkpt>
      <trkpt lat="47.41619" lon="6.53146">
        <ele>274.689</ele>
        <time>2015-10-03T09:46:00Z</time>
      </trkpt>
      <trkpt lat="47.41619" lon="6.53152">
        <ele>274.987</ele>
        <time>2015-10-03T09:46:01Z</time>
      </trkpt>
      <trkpt lat="47.41619" lon="6.53159">
        <ele>274.993</ele>
        <time>2015-10-03T09:46:02Z</time>
      </trkpt>
      <trkpt lat="47.41619" lon="6.53166">
        <ele>274.675</ele>
        <time>2015-10-03T09:46:03Z</time>
      </trkpt>
      <trkpt lat="47.41618" lon="6.53173">
        <ele>273.562</ele>
        <time>2015-10-03T09:46:04Z</time>
      </trkpt>
      <trkpt lat="47.41618" lon="6.5318">
        <ele>273.039</ele>
        <time>2015-10-03T09:46:05Z</time>
      </trkpt>
      <trkpt lat="47.41618" lon="6.53186">
        <ele>273.157</ele>
        <time>2015-10-03T09:46:06Z</time>
      </trkpt>
      <trkpt lat="47.41618" lon="6.53195">
        <ele>272.571</ele>
        <time>2015-10-03T09:46:07Z</time>
      </trkpt>
      <trkpt lat="47.41618" lon="6.53201">
        <ele>273.743</ele>
        <time>2015-10-03T09:46:08Z</time>
      </trkpt>
      <trkpt lat="47.41618" lon="6.53208">
        <ele>273.491</ele>
        <time>2015-10-03T09:46:09Z</time>
      </trkpt>
      <trkpt lat="47.41619" lon="6.53216">
        <ele>273.258</ele>
        <time>2015-10-03T09:46:10Z</time>
      </trkpt>
      <trkpt lat="47.41619" lon="6.53223">
        <ele>273.744</ele>
        <time>2015-10-03T09:46:11Z</time>
      </trkpt>
      <trkpt lat="47.41619" lon="6.53229">
        <ele>273.404</ele>
        <time>2015-10-03T09:46:12Z</time>
      </trkpt>
      <trkpt lat="47.41619" lon="6.53235">
        <ele>272.056</ele>
        <time>2015-10-03T09:46:13Z</time>
      </trkpt>
      <trkpt lat="47.41619" lon="6.53241">
        <ele>272.586</ele>
        <time>2015-10-03T09:46:14Z</time>
      </trkpt>
      <trkpt lat="47.4162" lon="6.53246">
        <ele>273.126</ele>
        <time>2015-10-03T09:46:15Z</time>
      </trkpt>
      <trkpt lat="47.41619" lon="6.53253">
        <ele>272.712</ele>
        <time>2015-10-03T09:46:16Z</time>
      </trkpt>
      <trkpt lat="47.41619" lon="6.5326">
        <ele>272.539</ele>
        <time>2015-10-03T09:46:17Z</time>
      </trkpt>
      <trkpt lat="47.41618" lon="6.53267">
        <ele>272.655</ele>
        <time>2015-10-03T09:46:18Z</time>
      </trkpt>
      <trkpt lat="47.41618" lon="6.53272">
        <ele>272.166</ele>
        <time>2015-10-03T09:46:19Z</time>
      </trkpt>
      <trkpt lat="47.41618" lon="6.53276">
        <ele>271.666</ele>
        <time>2015-10-03T09:46:20Z</time>
      </trkpt>
      <trkpt lat="47.41618" lon="6.53282">
        <ele>271.505</ele>
        <time>2015-10-03T09:46:21Z</time>
      </trkpt>
      <trkpt lat="47.41617" lon="6.53288">
        <ele>272.354</ele>
        <time>2015-10-03T09:46:22Z</time>
      </trkpt>
      <trkpt lat="47.41617" lon="6.53295">
        <ele>272.006</ele>
        <time>2015-10-03T09:46:23Z</time>
      </trkpt>
      <trkpt lat="47.41617" lon="6.53301">
        <ele>272.098</ele>
        <time>2015-10-03T09:46:24Z</time>
      </trkpt>
      <trkpt lat="47.41616" lon="6.53309">
        <ele>271.914</ele>
        <time>2015-10-03T09:46:25Z</time>
      </trkpt>
      <trkpt lat="47.41616" lon="6.53314">
        <ele>271.634</ele>
        <time>2015-10-03T09:46:26Z</time>
      </trkpt>
      <trkpt lat="47.41616" lon="6.53323">
        <ele>271.54</ele>
        <time>2015-10-03T09:46:27Z</time>
      </trkpt>
      <trkpt lat="47.41616" lon="6.53329">
        <ele>270.93</ele>
        <time>2015-10-03T09:46:28Z</time>
      </trkpt>
      <trkpt lat="47.41616" lon="6.53337">
        <ele>270.998</ele>
        <time>2015-10-03T09:46:29Z</time>
      </trkpt>
      <trkpt lat="47.41616" lon="6.53343">
        <ele>271.303</ele>
        <time>2015-10-03T09:46:30Z</time>
      </trkpt>
      <trkpt lat="47.41617" lon="6.53351">
        <ele>273.092</ele>
        <time>2015-10-03T09:46:31Z</time>
      </trkpt>
      <trkpt lat="47.41616" lon="6.53357">
        <ele>274.459</ele>
        <time>2015-10-03T09:46:32Z</time>
      </trkpt>
      <trkpt lat="47.41617" lon="6.53365">
        <ele>274.967</ele>
        <time>2015-10-03T09:46:33Z</time>
      </trkpt>
      <trkpt lat="47.41616" lon="6.53372">
        <ele>275.097</ele>
        <time>2015-10-03T09:46:34Z</time>
      </trkpt>
      <trkpt lat="47.41617" lon="6.5338">
        <ele>274.812</ele>
        <time>2015-10-03T09:46:35Z</time>
      </trkpt>
      <trkpt lat="47.41617" lon="6.53387">
        <ele>274.987</ele>
        <time>2015-10-03T09:46:36Z</time>
      </trkpt>
      <trkpt lat="47.41617" lon="6.53394">
        <ele>276.21</ele>
        <time>2015-10-03T09:46:37Z</time>
      </trkpt>
      <trkpt lat="47.41617" lon="6.534">
        <ele>276.097</ele>
        <time>2015-10-03T09:46:38Z</time>
      </trkpt>
      <trkpt lat="47.41618" lon="6.53407">
        <ele>276.463</ele>
        <time>2015-10-03T09:46:39Z</time>
      </trkpt>
      <trkpt lat="47.41618" lon="6.53412">
        <ele>276.975</ele>
        <time>2015-10-03T09:46:40Z</time>
      </trkpt>
      <trkpt lat="47.41617" lon="6.53421">
        <ele>277.52</ele>
        <time>2015-10-03T09:46:41Z</time>
      </trkpt>
      <trkpt lat="47.41616" lon="6.53429">
        <ele>277.585</ele>
        <time>2015-10-03T09:46:42Z</time>
      </trkpt>
      <trkpt lat="47.41616" lon="6.53436">
        <ele>277.474</ele>
        <time>2015-10-03T09:46:43Z</time>
      </trkpt>
      <trkpt lat="47.41615" lon="6.53443">
        <ele>276.457</ele>
        <time>2015-10-03T09:46:44Z</time>
      </trkpt>
      <trkpt lat="47.41616" lon="6.53451">
        <ele>275.672</ele>
        <time>2015-10-03T09:46:45Z</time>
      </trkpt>
      <trkpt lat="47.41615" lon="6.53457">
        <ele>275.597</ele>
        <time>2015-10-03T09:46:46Z</time>
      </trkpt>
      <trkpt lat="47.41616" lon="6.53463">
        <ele>276.31</ele>
        <time>2015-10-03T09:46:47Z</time>
      </trkpt>
      <trkpt lat="47.41616" lon="6.53469">
        <ele>275.21</ele>
        <time>2015-10-03T09:46:48Z</time>
      </trkpt>
      <trkpt lat="47.41615" lon="6.53475">
        <ele>276.55</ele>
        <time>2015-10-03T09:46:49Z</time>
      </trkpt>
      <trkpt lat="47.41615" lon="6.53482">
        <ele>276.062</ele>
        <time>2015-10-03T09:46:50Z</time>
      </trkpt>
      <trkpt lat="47.41615" lon="6.53489">
        <ele>276.759</ele>
        <time>2015-10-03T09:46:51Z</time>
      </trkpt>
      <trkpt lat="47.41614" lon="6.53495">
        <ele>275.24</ele>
        <time>2015-10-03T09:46:52Z</time>
      </trkpt>
      <trkpt lat="47.41614" lon="6.535">
        <ele>275.528</ele>
        <time>2015-10-03T09:46:53Z</time>
      </trkpt>
      <trkpt lat="47.41614" lon="6.53508">
        <ele>274.642</ele>
        <time>2015-10-03T09:46:54Z</time>
      </trkpt>
      <trkpt lat="47.41614" lon="6.53515">
        <ele>274.735</ele>
        <time>2015-10-03T09:46:55Z</time>
      </trkpt>
      <trkpt lat="47.41615" lon="6.53522">
        <ele>275.728</ele>
        <time>2015-10-03T09:46:56Z</time>
      </trkpt>
      <trkpt lat="47.41614" lon="6.53528">
        <ele>274.983</ele>
        <time>2015-10-03T09:46:57Z</time>
      </trkpt>
      <trkpt lat="47.41614" lon="6.53535">
        <ele>275.291</ele>
        <time>2015-10-03T09:46:58Z</time>
      </trkpt>
      <trkpt lat="47.41614" lon="6.53543">
        <ele>274.124</ele>
        <time>2015-10-03T09:46:59Z</time>
      </trkpt>
      <trkpt lat="47.41614" lon="6.53549">
        <ele>274.127</ele>
        <time>2015-10-03T09:47:00Z</time>
      </trkpt>
      <trkpt lat="47.41614" lon="6.53555">
        <ele>273.468</ele>
        <time>2015-10-03T09:47:01Z</time>
      </trkpt>
      <trkpt lat="47.41613" lon="6.53562">
        <ele>273.691</ele>
        <time>2015-10-03T09:47:02Z</time>
      </trkpt>
      <trkpt lat="47.41612" lon="6.53569">
        <ele>274.767</ele>
        <time>2015-10-03T09:47:03Z</time>
      </trkpt>
      <trkpt lat="47.41613" lon="6.53574">
        <ele>274.827</ele>
        <time>2015-10-03T09:47:04Z</time>
      </trkpt>
      <trkpt lat="47.41612" lon="6.53581">
        <ele>275.243</ele>
        <time>2015-10-03T09:47:05Z</time>
      </trkpt>
      <trkpt lat="47.41613" lon="6.53588">
        <ele>276.207</ele>
        <time>2015-10-03T09:47:06Z</time>
      </trkpt>
      <trkpt lat="47.41613" lon="6.53595">
        <ele>277.062</ele>
        <time>2015-10-03T09:47:07Z</time>
      </trkpt>
      <trkpt lat="47.41612" lon="6.53602">
        <ele>276.924</ele>
        <time>2015-10-03T09:47:08Z</time>
      </trkpt>
      <trkpt lat="47.41612" lon="6.53608">
        <ele>277.164</ele>
        <time>2015-10-03T09:47:09Z</time>
      </trkpt>
      <trkpt lat="47.41612" lon="6.53614">
        <ele>277.796</ele>
        <time>2015-10-03T09:47:10Z</time>
      </trkpt>
      <trkpt lat="47.41612" lon="6.53621">
        <ele>278.016</ele>
        <time>2015-10-03T09:47:11Z</time>
      </trkpt>
      <trkpt lat="47.41612" lon="6.53627">
        <ele>278.204</ele>
        <time>2015-10-03T09:47:12Z</time>
      </trkpt>
      <trkpt lat="47.41611" lon="6.53633">
        <ele>278.253</ele>
        <time>2015-10-03T09:47:13Z</time>
      </trkpt>
      <trkpt lat="47.4161" lon="6.53638">
        <ele>277.657</ele>
        <time>2015-10-03T09:47:14Z</time>
      </trkpt>
      <trkpt lat="47.4161" lon="6.53645">
        <ele>276.986</ele>
        <time>2015-10-03T09:47:15Z</time>
      </trkpt>
      <trkpt lat="47.4161" lon="6.53651">
        <ele>277.536</ele>
        <time>2015-10-03T09:47:16Z</time>
      </trkpt>
      <trkpt lat="47.41611" lon="6.53658">
        <ele>278.2</ele>
        <time>2015-10-03T09:47:17Z</time>
      </trkpt>
      <trkpt lat="47.41611" lon="6.53665">
        <ele>277.881</ele>
        <time>2015-10-03T09:47:18Z</time>
      </trkpt>
      <trkpt lat="47.4161" lon="6.53673">
        <ele>277.859</ele>
        <time>2015-10-03T09:47:19Z</time>
      </trkpt>
      <trkpt lat="47.4161" lon="6.5368">
        <ele>277.992</ele>
        <time>2015-10-03T09:47:20Z</time>
      </trkpt>
      <trkpt lat="47.4161" lon="6.53686">
        <ele>277.835</ele>
        <time>2015-10-03T09:47:21Z</time>
      </trkpt>
      <trkpt lat="47.4161" lon="6.53693">
        <ele>277.738</ele>
        <time>2015-10-03T09:47:22Z</time>
      </trkpt>
      <trkpt lat="47.4161" lon="6.53699">
        <ele>277.569</ele>
        <time>2015-10-03T09:47:23Z</time>
      </trkpt>
      <trkpt lat="47.4161" lon="6.53707">
        <ele>277.891</ele>
        <time>2015-10-03T09:47:24Z</time>
      </trkpt>
      <trkpt lat="47.4161" lon="6.53714">
        <ele>278.157</ele>
        <time>2015-10-03T09:47:25Z</time>
      </trkpt>
      <trkpt lat="47.41611" lon="6.53721">
        <ele>277.307</ele>
        <time>2015-10-03T09:47:26Z</time>
      </trkpt>
      <trkpt lat="47.41611" lon="6.53727">
        <ele>277.386</ele>
        <time>2015-10-03T09:47:27Z</time>
      </trkpt>
      <trkpt lat="47.41611" lon="6.53734">
        <ele>277.717</ele>
        <time>2015-10-03T09:47:28Z</time>
      </trkpt>
      <trkpt lat="47.41611" lon="6.5374">
        <ele>277.588</ele>
        <time>2015-10-03T09:47:29Z</time>
      </trkpt>
      <trkpt lat="47.41611" lon="6.53747">
        <ele>277.968</ele>
        <time>2015-10-03T09:47:30Z</time>
      </trkpt>
      <trkpt lat="47.41612" lon="6.53755">
        <ele>276.448</ele>
        <time>2015-10-03T09:47:31Z</time>
      </trkpt>
      <trkpt lat="47.41612" lon="6.53761">
        <ele>276.826</ele>
        <time>2015-10-03T09:47:32Z</time>
      </trkpt>
      <trkpt lat="47.41612" lon="6.53767">
        <ele>276.093</ele>
        <time>2015-10-03T09:47:33Z</time>
      </trkpt>
      <trkpt lat="47.41612" lon="6.53774">
        <ele>276.725</ele>
        <time>2015-10-03T09:47:34Z</time>
      </trkpt>
      <trkpt lat="47.41611" lon="6.5378">
        <ele>277.354</ele>
        <time>2015-10-03T09:47:35Z</time>
      </trkpt>
      <trkpt lat="47.41611" lon="6.53787">
        <ele>276.788</ele>
        <time>2015-10-03T09:47:36Z</time>
      </trkpt>
      <trkpt lat="47.41611" lon="6.53794">
        <ele>276.506</ele>
        <time>2015-10-03T09:47:37Z</time>
      </trkpt>
      <trkpt lat="47.41611" lon="6.53802">
        <ele>276.539</ele>
        <time>2015-10-03T09:47:38Z</time>
      </trkpt>
      <trkpt lat="47.41611" lon="6.53809">
        <ele>276.172</ele>
        <time>2015-10-03T09:47:39Z</time>
      </trkpt>
      <trkpt lat="47.41611" lon="6.53817">
        <ele>276.336</ele>
        <time>2015-10-03T09:47:40Z</time>
      </trkpt>
      <trkpt lat="47.41611" lon="6.53824">
        <ele>276.439</ele>
        <time>2015-10-03T09:47:41Z</time>
      </trkpt>
      <trkpt lat="47.41611" lon="6.53831">
        <ele>276.773</ele>
        <time>2015-10-03T09:47:42Z</time>
      </trkpt>
      <trkpt lat="47.41611" lon="6.53839">
        <ele>276.448</ele>
        <time>2015-10-03T09:47:43Z</time>
      </trkpt>
      <trkpt lat="47.41612" lon="6.53848">
        <ele>277.716</ele>
        <time>2015-10-03T09:47:44Z</time>
      </trkpt>
      <trkpt lat="47.41611" lon="6.53855">
        <ele>278.159</ele>
        <time>2015-10-03T09:47:45Z</time>
      </trkpt>
      <trkpt lat="47.41611" lon="6.53861">
        <ele>278.101</ele>
        <time>2015-10-03T09:47:46Z</time>
      </trkpt>
      <trkpt lat="47.4161" lon="6.53867">
        <ele>277.825</ele>
        <time>2015-10-03T09:47:47Z</time>
      </trkpt>
      <trkpt lat="47.4161" lon="6.53872">
        <ele>277.514</ele>
        <time>2015-10-03T09:47:48Z</time>
      </trkpt>
      <trkpt lat="47.4161" lon="6.53879">
        <ele>278.807</ele>
        <time>2015-10-03T09:47:49Z</time>
      </trkpt>
      <trkpt lat="47.4161" lon="6.53886">
        <ele>279.473</ele>
        <time>2015-10-03T09:47:50Z</time>
      </trkpt>
      <trkpt lat="47.41609" lon="6.53892">
        <ele>279.953</ele>
        <time>2015-10-03T09:47:51Z</time>
      </trkpt>
      <trkpt lat="47.41609" lon="6.53898">
        <ele>279.49</ele>
        <time>2015-10-03T09:47:52Z</time>
      </trkpt>
      <trkpt lat="47.4161" lon="6.53906">
        <ele>279.008</ele>
        <time>2015-10-03T09:47:53Z</time>
      </trkpt>
      <trkpt lat="47.41609" lon="6.53912">
        <ele>278.281</ele>
        <time>2015-10-03T09:47:54Z</time>
      </trkpt>
      <trkpt lat="47.41609" lon="6.53918">
        <ele>278.409</ele>
        <time>2015-10-03T09:47:55Z</time>
      </trkpt>
      <trkpt lat="47.41609" lon="6.53924">
        <ele>278.066</ele>
        <time>2015-10-03T09:47:56Z</time>
      </trkpt>
      <trkpt lat="47.41608" lon="6.53929">
        <ele>278.734</ele>
        <time>2015-10-03T09:47:57Z</time>
      </trkpt>
      <trkpt lat="47.41608" lon="6.53936">
        <ele>278.353</ele>
        <time>2015-10-03T09:47:58Z</time>
      </trkpt>
      <trkpt lat="47.41608" lon="6.53942">
        <ele>277.56</ele>
        <time>2015-10-03T09:47:59Z</time>
      </trkpt>
      <trkpt lat="47.41608" lon="6.53949">
        <ele>277.205</ele>
        <time>2015-10-03T09:48:00Z</time>
      </trkpt>
      <trkpt lat="47.41607" lon="6.53955">
        <ele>277.286</ele>
        <time>2015-10-03T09:48:01Z</time>
      </trkpt>
      <trkpt lat="47.41607" lon="6.53961">
        <ele>277.433</ele>
        <time>2015-10-03T09:48:02Z</time>
      </trkpt>
      <trkpt lat="47.41607" lon="6.53968">
        <ele>277.525</ele>
        <time>2015-10-03T09:48:03Z</time>
      </trkpt>
      <trkpt lat="47.41606" lon="6.53974">
        <ele>277.464</ele>
        <time>2015-10-03T09:48:04Z</time>
      </trkpt>
      <trkpt lat="47.41606" lon="6.5398">
        <ele>276.594</ele>
        <time>2015-10-03T09:48:05Z</time>
      </trkpt>
      <trkpt lat="47.41605" lon="6.53986">
        <ele>276.804</ele>
        <time>2015-10-03T09:48:06Z</time>
      </trkpt>
      <trkpt lat="47.41605" lon="6.53993">
        <ele>276.89</ele>
        <time>2015-10-03T09:48:07Z</time>
      </trkpt>
      <trkpt lat="47.41605" lon="6.53999">
        <ele>276.315</ele>
        <time>2015-10-03T09:48:08Z</time>
      </trkpt>
      <trkpt lat="47.41605" lon="6.54006">
        <ele>276.737</ele>
        <time>2015-10-03T09:48:09Z</time>
      </trkpt>
      <trkpt lat="47.41605" lon="6.54014">
        <ele>276.555</ele>
        <time>2015-10-03T09:48:10Z</time>
      </trkpt>
      <trkpt lat="47.41605" lon="6.54021">
        <ele>277.239</ele>
        <time>2015-10-03T09:48:11Z</time>
      </trkpt>
      <trkpt lat="47.41604" lon="6.54028">
        <ele>278.436</ele>
        <time>2015-10-03T09:48:12Z</time>
      </trkpt>
      <trkpt lat="47.41604" lon="6.54034">
        <ele>277.877</ele>
        <time>2015-10-03T09:48:13Z</time>
      </trkpt>
      <trkpt lat="47.41604" lon="6.5404">
        <ele>277.713</ele>
        <time>2015-10-03T09:48:14Z</time>
      </trkpt>
      <trkpt lat="47.41605" lon="6.54047">
        <ele>277.289</ele>
        <time>2015-10-03T09:48:15Z</time>
      </trkpt>
      <trkpt lat="47.41604" lon="6.54052">
        <ele>276.929</ele>
        <time>2015-10-03T09:48:16Z</time>
      </trkpt>
      <trkpt lat="47.41604" lon="6.54059">
        <ele>277.165</ele>
        <time>2015-10-03T09:48:17Z</time>
      </trkpt>
      <trkpt lat="47.41604" lon="6.54065">
        <ele>276.319</ele>
        <time>2015-10-03T09:48:18Z</time>
      </trkpt>
      <trkpt lat="47.41603" lon="6.5407">
        <ele>276.849</ele>
        <time>2015-10-03T09:48:19Z</time>
      </trkpt>
      <trkpt lat="47.41604" lon="6.54077">
        <ele>277.096</ele>
        <time>2015-10-03T09:48:20Z</time>
      </trkpt>
      <trkpt lat="47.41603" lon="6.54082">
        <ele>276.581</ele>
        <time>2015-10-03T09:48:21Z</time>
      </trkpt>
      <trkpt lat="47.41603" lon="6.54089">
        <ele>276.729</ele>
        <time>2015-10-03T09:48:22Z</time>
      </trkpt>
      <trkpt lat="47.41602" lon="6.54096">
        <ele>277.51</ele>
        <time>2015-10-03T09:48:23Z</time>
      </trkpt>
      <trkpt lat="47.41601" lon="6.54103">
        <ele>278.462</ele>
        <time>2015-10-03T09:48:24Z</time>
      </trkpt>
      <trkpt lat="47.41601" lon="6.54111">
        <ele>278.908</ele>
        <time>2015-10-03T09:48:25Z</time>
      </trkpt>
      <trkpt lat="47.41601" lon="6.5412">
        <ele>278.2</ele>
        <time>2015-10-03T09:48:26Z</time>
      </trkpt>
      <trkpt lat="47.416" lon="6.54126">
        <ele>278.551</ele>
        <time>2015-10-03T09:48:27Z</time>
      </trkpt>
      <trkpt lat="47.41599" lon="6.54133">
        <ele>279.001</ele>
        <time>2015-10-03T09:48:28Z</time>
      </trkpt>
      <trkpt lat="47.41599" lon="6.5414">
        <ele>279.824</ele>
        <time>2015-10-03T09:48:29Z</time>
      </trkpt>
      <trkpt lat="47.41599" lon="6.54147">
        <ele>279.578</ele>
        <time>2015-10-03T09:48:30Z</time>
      </trkpt>
      <trkpt lat="47.416" lon="6.54152">
        <ele>277.268</ele>
        <time>2015-10-03T09:48:31Z</time>
      </trkpt>
      <trkpt lat="47.41599" lon="6.54157">
        <ele>277.721</ele>
        <time>2015-10-03T09:48:32Z</time>
      </trkpt>
      <trkpt lat="47.41596" lon="6.54163">
        <ele>282.181</ele>
        <time>2015-10-03T09:48:33Z</time>
      </trkpt>
      <trkpt lat="47.41596" lon="6.54169">
        <ele>281.665</ele>
        <time>2015-10-03T09:48:34Z</time>
      </trkpt>
      <trkpt lat="47.41596" lon="6.54172">
        <ele>281.213</ele>
        <time>2015-10-03T09:48:35Z</time>
      </trkpt>
      <trkpt lat="47.41595" lon="6.54175">
        <ele>281.312</ele>
        <time>2015-10-03T09:48:36Z</time>
      </trkpt>
      <trkpt lat="47.41596" lon="6.54178">
        <ele>279.491</ele>
        <time>2015-10-03T09:48:37Z</time>
      </trkpt>
      <trkpt lat="47.41595" lon="6.54182">
        <ele>279.308</ele>
        <time>2015-10-03T09:48:38Z</time>
      </trkpt>
      <trkpt lat="47.41596" lon="6.54186">
        <ele>280.175</ele>
        <time>2015-10-03T09:48:39Z</time>
      </trkpt>
      <trkpt lat="47.41596" lon="6.5419">
        <ele>280.387</ele>
        <time>2015-10-03T09:48:40Z</time>
      </trkpt>
      <trkpt lat="47.41596" lon="6.54194">
        <ele>280.604</ele>
        <time>2015-10-03T09:48:41Z</time>
      </trkpt>
      <trkpt lat="47.41595" lon="6.54198">
        <ele>280.869</ele>
        <time>2015-10-03T09:48:42Z</time>
      </trkpt>
      <trkpt lat="47.41595" lon="6.54202">
        <ele>280.817</ele>
        <time>2015-10-03T09:48:43Z</time>
      </trkpt>
      <trkpt lat="47.41594" lon="6.54206">
        <ele>282.652</ele>
        <time>2015-10-03T09:48:44Z</time>
      </trkpt>
      <trkpt lat="47.41594" lon="6.54209">
        <ele>284.618</ele>
        <time>2015-10-03T09:48:45Z</time>
      </trkpt>
      <trkpt lat="47.41593" lon="6.54212">
        <ele>284.904</ele>
        <time>2015-10-03T09:48:46Z</time>
      </trkpt>
      <trkpt lat="47.41593" lon="6.54214">
        <ele>284.983</ele>
        <time>2015-10-03T09:48:47Z</time>
      </trkpt>
      <trkpt lat="47.41593" lon="6.54215">
        <ele>286.832</ele>
        <time>2015-10-03T09:48:49Z</time>
      </trkpt>
      <trkpt lat="47.41592" lon="6.54219">
        <ele>288.236</ele>
        <time>2015-10-03T09:48:59Z</time>
      </trkpt>
      <trkpt lat="47.41593" lon="6.54219">
        <ele>290.08</ele>
        <time>2015-10-03T09:49:05Z</time>
      </trkpt>
      <trkpt lat="47.41593" lon="6.54221">
        <ele>292.155</ele>
        <time>2015-10-03T09:49:08Z</time>
      </trkpt>
      <trkpt lat="47.41594" lon="6.54222">
        <ele>291.569</ele>
        <time>2015-10-03T09:49:10Z</time>
      </trkpt>
      <trkpt lat="47.41597" lon="6.54226">
        <ele>288.292</ele>
        <time>2015-10-03T09:49:25Z</time>
      </trkpt>
      <trkpt lat="47.41596" lon="6.54223">
        <ele>284.957</ele>
        <time>2015-10-03T09:49:59Z</time>
      </trkpt>
      <trkpt lat="47.41596" lon="6.54221">
        <ele>284.552</ele>
        <time>2015-10-03T09:50:01Z</time>
      </trkpt>
      <trkpt lat="47.41597" lon="6.54219">
        <ele>285.556</ele>
        <time>2015-10-03T09:50:04Z</time>
      </trkpt>
      <trkpt lat="47.41597" lon="6.54217">
        <ele>285.42</ele>
        <time>2015-10-03T09:50:08Z</time>
      </trkpt>
      <trkpt lat="47.41596" lon="6.54216">
        <ele>282.216</ele>
        <time>2015-10-03T09:50:13Z</time>
      </trkpt>
      <trkpt lat="47.41594" lon="6.54214">
        <ele>281.796</ele>
        <time>2015-10-03T09:50:15Z</time>
      </trkpt>
      <trkpt lat="47.41594" lon="6.54212">
        <ele>281.615</ele>
        <time>2015-10-03T09:50:16Z</time>
      </trkpt>
      <trkpt lat="47.41593" lon="6.5421">
        <ele>282.884</ele>
        <time>2015-10-03T09:50:17Z</time>
      </trkpt>
      <trkpt lat="47.41593" lon="6.5421">
        <ele>287.44</ele>
        <time>2015-10-03T09:50:20Z</time>
      </trkpt>
      <trkpt lat="47.4159" lon="6.54205">
        <ele>287.244</ele>
        <time>2015-10-03T09:50:21Z</time>
      </trkpt>
      <trkpt lat="47.41593" lon="6.54211">
        <ele>282.067</ele>
        <time>2015-10-03T09:50:24Z</time>
      </trkpt>
      <trkpt lat="47.41594" lon="6.54218">
        <ele>285.779</ele>
        <time>2015-10-03T09:50:28Z</time>
      </trkpt>
      <trkpt lat="47.41589" lon="6.54218">
        <ele>288.728</ele>
        <time>2015-10-03T09:50:34Z</time>
      </trkpt>
      <trkpt lat="47.41587" lon="6.54216">
        <ele>290.064</ele>
        <time>2015-10-03T09:50:52Z</time>
      </trkpt>
      <trkpt lat="47.41588" lon="6.54214">
        <ele>290.445</ele>
        <time>2015-10-03T09:50:56Z</time>
      </trkpt>
      <trkpt lat="47.41589" lon="6.54215">
        <ele>289.734</ele>
        <time>2015-10-03T09:50:57Z</time>
      </trkpt>
      <trkpt lat="47.4159" lon="6.54216">
        <ele>288.971</ele>
        <time>2015-10-03T09:50:58Z</time>
      </trkpt>
      <trkpt lat="47.41595" lon="6.54215">
        <ele>284.482</ele>
        <time>2015-10-03T09:51:05Z</time>
      </trkpt>
      <trkpt lat="47.41596" lon="6.54214">
        <ele>283.013</ele>
        <time>2015-10-03T09:51:10Z</time>
      </trkpt>
      <trkpt lat="47.41593" lon="6.54213">
        <ele>280.837</ele>
        <time>2015-10-03T09:51:16Z</time>
      </trkpt>
      <trkpt lat="47.41594" lon="6.5421">
        <ele>282.554</ele>
        <time>2015-10-03T09:51:27Z</time>
      </trkpt>
      <trkpt lat="47.41596" lon="6.54212">
        <ele>288.238</ele>
        <time>2015-10-03T09:51:36Z</time>
      </trkpt>
      <trkpt lat="47.41596" lon="6.54215">
        <ele>292.884</ele>
        <time>2015-10-03T09:51:41Z</time>
      </trkpt>
      <trkpt lat="47.41596" lon="6.54213">
        <ele>292.087</ele>
        <time>2015-10-03T09:51:48Z</time>
      </trkpt>
      <trkpt lat="47.41593" lon="6.54212">
        <ele>288.792</ele>
        <time>2015-10-03T09:51:59Z</time>
      </trkpt>
      <trkpt lat="47.41593" lon="6.54213">
        <ele>289.072</ele>
        <time>2015-10-03T09:52:01Z</time>
      </trkpt>
      <trkpt lat="47.41593" lon="6.54215">
        <ele>289.116</ele>
        <time>2015-10-03T09:52:04Z</time>
      </trkpt>
      <trkpt lat="47.41591" lon="6.54216">
        <ele>290.641</ele>
        <time>2015-10-03T09:52:19Z</time>
      </trkpt>
      <trkpt lat="47.4159" lon="6.54218">
        <ele>295.003</ele>
        <time>2015-10-03T09:52:36Z</time>
      </trkpt>
      <trkpt lat="47.4159" lon="6.54221">
        <ele>293.99</ele>
        <time>2015-10-03T09:52:43Z</time>
      </trkpt>
      <trkpt lat="47.4159" lon="6.54218">
        <ele>295.781</ele>
        <time>2015-10-03T09:53:02Z</time>
      </trkpt>
      <trkpt lat="47.41591" lon="6.54219">
        <ele>295.576</ele>
        <time>2015-10-03T09:53:07Z</time>
      </trkpt>
      <trkpt lat="47.41592" lon="6.5422">
        <ele>294.786</ele>
        <time>2015-10-03T09:53:09Z</time>
      </trkpt>
      <trkpt lat="47.41592" lon="6.54221">
        <ele>295.019</ele>
        <time>2015-10-03T09:53:11Z</time>
      </trkpt>
      <trkpt lat="47.41593" lon="6.54223">
        <ele>294.553</ele>
        <time>2015-10-03T09:53:12Z</time>
      </trkpt>
      <trkpt lat="47.41594" lon="6.54225">
        <ele>293.678</ele>
        <time>2015-10-03T09:53:13Z</time>
      </trkpt>
      <trkpt lat="47.41595" lon="6.54228">
        <ele>293.964</ele>
        <time>2015-10-03T09:53:14Z</time>
      </trkpt>
      <trkpt lat="47.41595" lon="6.5423">
        <ele>293.626</ele>
        <time>2015-10-03T09:53:15Z</time>
      </trkpt>
      <trkpt lat="47.41596" lon="6.54233">
        <ele>293.964</ele>
        <time>2015-10-03T09:53:16Z</time>
      </trkpt>
      <trkpt lat="47.41596" lon="6.54235">
        <ele>293.664</ele>
        <time>2015-10-03T09:53:17Z</time>
      </trkpt>
      <trkpt lat="47.41596" lon="6.54237">
        <ele>293.488</ele>
        <time>2015-10-03T09:53:18Z</time>
      </trkpt>
      <trkpt lat="47.41596" lon="6.5424">
        <ele>294.399</ele>
        <time>2015-10-03T09:53:19Z</time>
      </trkpt>
      <trkpt lat="47.41596" lon="6.54244">
        <ele>294.414</ele>
        <time>2015-10-03T09:53:20Z</time>
      </trkpt>
      <trkpt lat="47.41596" lon="6.54248">
        <ele>293.956</ele>
        <time>2015-10-03T09:53:21Z</time>
      </trkpt>
      <trkpt lat="47.41596" lon="6.54252">
        <ele>294.212</ele>
        <time>2015-10-03T09:53:22Z</time>
      </trkpt>
      <trkpt lat="47.41596" lon="6.54256">
        <ele>294.257</ele>
        <time>2015-10-03T09:53:23Z</time>
      </trkpt>
      <trkpt lat="47.41596" lon="6.54261">
        <ele>296.807</ele>
        <time>2015-10-03T09:53:24Z</time>
      </trkpt>
      <trkpt lat="47.41596" lon="6.54266">
        <ele>296.957</ele>
        <time>2015-10-03T09:53:25Z</time>
      </trkpt>
      <trkpt lat="47.41596" lon="6.54271">
        <ele>297.419</ele>
        <time>2015-10-03T09:53:26Z</time>
      </trkpt>
      <trkpt lat="47.41596" lon="6.54276">
        <ele>297.333</ele>
        <time>2015-10-03T09:53:27Z</time>
      </trkpt>
      <trkpt lat="47.41595" lon="6.54282">
        <ele>297.371</ele>
        <time>2015-10-03T09:53:28Z</time>
      </trkpt>
      <trkpt lat="47.41594" lon="6.54287">
        <ele>298.716</ele>
        <time>2015-10-03T09:53:29Z</time>
      </trkpt>
      <trkpt lat="47.41594" lon="6.54292">
        <ele>298.841</ele>
        <time>2015-10-03T09:53:30Z</time>
      </trkpt>
      <trkpt lat="47.41593" lon="6.54297">
        <ele>298.844</ele>
        <time>2015-10-03T09:53:31Z</time>
      </trkpt>
      <trkpt lat="47.41593" lon="6.54303">
        <ele>297.949</ele>
        <time>2015-10-03T09:53:32Z</time>
      </trkpt>
      <trkpt lat="47.41593" lon="6.54308">
        <ele>297.231</ele>
        <time>2015-10-03T09:53:33Z</time>
      </trkpt>
      <trkpt lat="47.41593" lon="6.54314">
        <ele>296.437</ele>
        <time>2015-10-03T09:53:34Z</time>
      </trkpt>
      <trkpt lat="47.41592" lon="6.5432">
        <ele>295.06</ele>
        <time>2015-10-03T09:53:35Z</time>
      </trkpt>
      <trkpt lat="47.41592" lon="6.54325">
        <ele>294.892</ele>
        <time>2015-10-03T09:53:36Z</time>
      </trkpt>
      <trkpt lat="47.41592" lon="6.54331">
        <ele>294.696</ele>
        <time>2015-10-03T09:53:37Z</time>
      </trkpt>
      <trkpt lat="47.41592" lon="6.54336">
        <ele>293.128</ele>
        <time>2015-10-03T09:53:38Z</time>
      </trkpt>
      <trkpt lat="47.41592" lon="6.54342">
        <ele>293.308</ele>
        <time>2015-10-03T09:53:39Z</time>
      </trkpt>
      <trkpt lat="47.41591" lon="6.54347">
        <ele>291.795</ele>
        <time>2015-10-03T09:53:40Z</time>
      </trkpt>
      <trkpt lat="47.41591" lon="6.54353">
        <ele>291.729</ele>
        <time>2015-10-03T09:53:41Z</time>
      </trkpt>
      <trkpt lat="47.41591" lon="6.5436">
        <ele>292.36</ele>
        <time>2015-10-03T09:53:42Z</time>
      </trkpt>
      <trkpt lat="47.41591" lon="6.54366">
        <ele>292.529</ele>
        <time>2015-10-03T09:53:43Z</time>
      </trkpt>
      <trkpt lat="47.41591" lon="6.54372">
        <ele>292.673</ele>
        <time>2015-10-03T09:53:44Z</time>
      </trkpt>
      <trkpt lat="47.41591" lon="6.54378">
        <ele>290.352</ele>
        <time>2015-10-03T09:53:45Z</time>
      </trkpt>
      <trkpt lat="47.41591" lon="6.54383">
        <ele>290.012</ele>
        <time>2015-10-03T09:53:46Z</time>
      </trkpt>
      <trkpt lat="47.41591" lon="6.54389">
        <ele>290.167</ele>
        <time>2015-10-03T09:53:47Z</time>
      </trkpt>
      <trkpt lat="47.41591" lon="6.54395">
        <ele>290.255</ele>
        <time>2015-10-03T09:53:48Z</time>
      </trkpt>
      <trkpt lat="47.41591" lon="6.54401">
        <ele>290.307</ele>
        <time>2015-10-03T09:53:49Z</time>
      </trkpt>
      <trkpt lat="47.41591" lon="6.54407">
        <ele>290.35</ele>
        <time>2015-10-03T09:53:50Z</time>
      </trkpt>
      <trkpt lat="47.41591" lon="6.54413">
        <ele>290.98</ele>
        <time>2015-10-03T09:53:51Z</time>
      </trkpt>
      <trkpt lat="47.41591" lon="6.54419">
        <ele>290.826</ele>
        <time>2015-10-03T09:53:52Z</time>
      </trkpt>
      <trkpt lat="47.41591" lon="6.54426">
        <ele>290.668</ele>
        <time>2015-10-03T09:53:53Z</time>
      </trkpt>
      <trkpt lat="47.41591" lon="6.54432">
        <ele>289.813</ele>
        <time>2015-10-03T09:53:54Z</time>
      </trkpt>
      <trkpt lat="47.41591" lon="6.54438">
        <ele>289.667</ele>
        <time>2015-10-03T09:53:55Z</time>
      </trkpt>
      <trkpt lat="47.41591" lon="6.54444">
        <ele>290.14</ele>
        <time>2015-10-03T09:53:56Z</time>
      </trkpt>
      <trkpt lat="47.41591" lon="6.5445">
        <ele>290.554</ele>
        <time>2015-10-03T09:53:57Z</time>
      </trkpt>
      <trkpt lat="47.41591" lon="6.54457">
        <ele>290.432</ele>
        <time>2015-10-03T09:53:58Z</time>
      </trkpt>
      <trkpt lat="47.41591" lon="6.54463">
        <ele>290.384</ele>
        <time>2015-10-03T09:53:59Z</time>
      </trkpt>
      <trkpt lat="47.4159" lon="6.54469">
        <ele>290.31</ele>
        <time>2015-10-03T09:54:00Z</time>
      </trkpt>
      <trkpt lat="47.4159" lon="6.54475">
        <ele>289.802</ele>
        <time>2015-10-03T09:54:01Z</time>
      </trkpt>
      <trkpt lat="47.4159" lon="6.54481">
        <ele>289.995</ele>
        <time>2015-10-03T09:54:02Z</time>
      </trkpt>
      <trkpt lat="47.41589" lon="6.54489">
        <ele>290.49</ele>
        <time>2015-10-03T09:54:03Z</time>
      </trkpt>
      <trkpt lat="47.4159" lon="6.54496">
        <ele>289.524</ele>
        <time>2015-10-03T09:54:04Z</time>
      </trkpt>
      <trkpt lat="47.4159" lon="6.54501">
        <ele>288.434</ele>
        <time>2015-10-03T09:54:05Z</time>
      </trkpt>
      <trkpt lat="47.41589" lon="6.54509">
        <ele>287.543</ele>
        <time>2015-10-03T09:54:06Z</time>
      </trkpt>
      <trkpt lat="47.41589" lon="6.54516">
        <ele>287.797</ele>
        <time>2015-10-03T09:54:07Z</time>
      </trkpt>
      <trkpt lat="47.41588" lon="6.54522">
        <ele>288.077</ele>
        <time>2015-10-03T09:54:08Z</time>
      </trkpt>
      <trkpt lat="47.41588" lon="6.54528">
        <ele>288.173</ele>
        <time>2015-10-03T09:54:09Z</time>
      </trkpt>
      <trkpt lat="47.41588" lon="6.54535">
        <ele>288.261</ele>
        <time>2015-10-03T09:54:10Z</time>
      </trkpt>
      <trkpt lat="47.41588" lon="6.54541">
        <ele>287.079</ele>
        <time>2015-10-03T09:54:11Z</time>
      </trkpt>
      <trkpt lat="47.41587" lon="6.54547">
        <ele>287.705</ele>
        <time>2015-10-03T09:54:12Z</time>
      </trkpt>
      <trkpt lat="47.41588" lon="6.54554">
        <ele>288.181</ele>
        <time>2015-10-03T09:54:13Z</time>
      </trkpt>
      <trkpt lat="47.41589" lon="6.54562">
        <ele>287.427</ele>
        <time>2015-10-03T09:54:14Z</time>
      </trkpt>
      <trkpt lat="47.41589" lon="6.54567">
        <ele>286.361</ele>
        <time>2015-10-03T09:54:15Z</time>
      </trkpt>
      <trkpt lat="47.41588" lon="6.54573">
        <ele>286.891</ele>
        <time>2015-10-03T09:54:16Z</time>
      </trkpt>
      <trkpt lat="47.41588" lon="6.54578">
        <ele>286.631</ele>
        <time>2015-10-03T09:54:17Z</time>
      </trkpt>
      <trkpt lat="47.41588" lon="6.54584">
        <ele>286.54</ele>
        <time>2015-10-03T09:54:18Z</time>
      </trkpt>
      <trkpt lat="47.41587" lon="6.54589">
        <ele>286.382</ele>
        <time>2015-10-03T09:54:19Z</time>
      </trkpt>
      <trkpt lat="47.41587" lon="6.54593">
        <ele>285.283</ele>
        <time>2015-10-03T09:54:20Z</time>
      </trkpt>
      <trkpt lat="47.41587" lon="6.54598">
        <ele>285.912</ele>
        <time>2015-10-03T09:54:21Z</time>
      </trkpt>
      <trkpt lat="47.41588" lon="6.54606">
        <ele>285.038</ele>
        <time>2015-10-03T09:54:22Z</time>
      </trkpt>
      <trkpt lat="47.4159" lon="6.54612">
        <ele>284.578</ele>
        <time>2015-10-03T09:54:23Z</time>
      </trkpt>
      <trkpt lat="47.4159" lon="6.54618">
        <ele>285.336</ele>
        <time>2015-10-03T09:54:24Z</time>
      </trkpt>
      <trkpt lat="47.4159" lon="6.54624">
        <ele>285.636</ele>
        <time>2015-10-03T09:54:25Z</time>
      </trkpt>
      <trkpt lat="47.4159" lon="6.5463">
        <ele>286.196</ele>
        <time>2015-10-03T09:54:26Z</time>
      </trkpt>
      <trkpt lat="47.4159" lon="6.54635">
        <ele>286.504</ele>
        <time>2015-10-03T09:54:27Z</time>
      </trkpt>
      <trkpt lat="47.4159" lon="6.54641">
        <ele>286.32</ele>
        <time>2015-10-03T09:54:28Z</time>
      </trkpt>
      <trkpt lat="47.4159" lon="6.54647">
        <ele>285.95</ele>
        <time>2015-10-03T09:54:29Z</time>
      </trkpt>
      <trkpt lat="47.4159" lon="6.54654">
        <ele>286.13</ele>
        <time>2015-10-03T09:54:30Z</time>
      </trkpt>
      <trkpt lat="47.4159" lon="6.5466">
        <ele>286.334</ele>
        <time>2015-10-03T09:54:31Z</time>
      </trkpt>
      <trkpt lat="47.4159" lon="6.54666">
        <ele>286.173</ele>
        <time>2015-10-03T09:54:32Z</time>
      </trkpt>
      <trkpt lat="47.4159" lon="6.54671">
        <ele>286.786</ele>
        <time>2015-10-03T09:54:33Z</time>
      </trkpt>
      <trkpt lat="47.4159" lon="6.54677">
        <ele>287.801</ele>
        <time>2015-10-03T09:54:34Z</time>
      </trkpt>
      <trkpt lat="47.4159" lon="6.54683">
        <ele>287.572</ele>
        <time>2015-10-03T09:54:35Z</time>
      </trkpt>
      <trkpt lat="47.4159" lon="6.54689">
        <ele>287.944</ele>
        <time>2015-10-03T09:54:36Z</time>
      </trkpt>
      <trkpt lat="47.41591" lon="6.54696">
        <ele>287.437</ele>
        <time>2015-10-03T09:54:37Z</time>
      </trkpt>
      <trkpt lat="47.41591" lon="6.54702">
        <ele>287.949</ele>
        <time>2015-10-03T09:54:38Z</time>
      </trkpt>
      <trkpt lat="47.41591" lon="6.54709">
        <ele>287.296</ele>
        <time>2015-10-03T09:54:39Z</time>
      </trkpt>
      <trkpt lat="47.41591" lon="6.54715">
        <ele>287.382</ele>
        <time>2015-10-03T09:54:40Z</time>
      </trkpt>
      <trkpt lat="47.41591" lon="6.54721">
        <ele>287.322</ele>
        <time>2015-10-03T09:54:41Z</time>
      </trkpt>
      <trkpt lat="47.41591" lon="6.54727">
        <ele>287.143</ele>
        <time>2015-10-03T09:54:42Z</time>
      </trkpt>
      <trkpt lat="47.4159" lon="6.54733">
        <ele>285.88</ele>
        <time>2015-10-03T09:54:43Z</time>
      </trkpt>
      <trkpt lat="47.4159" lon="6.54739">
        <ele>285.483</ele>
        <time>2015-10-03T09:54:44Z</time>
      </trkpt>
      <trkpt lat="47.4159" lon="6.54744">
        <ele>283.642</ele>
        <time>2015-10-03T09:54:45Z</time>
      </trkpt>
      <trkpt lat="47.4159" lon="6.5475">
        <ele>283.737</ele>
        <time>2015-10-03T09:54:46Z</time>
      </trkpt>
      <trkpt lat="47.4159" lon="6.54757">
        <ele>283.381</ele>
        <time>2015-10-03T09:54:47Z</time>
      </trkpt>
      <trkpt lat="47.4159" lon="6.54763">
        <ele>283.286</ele>
        <time>2015-10-03T09:54:48Z</time>
      </trkpt>
      <trkpt lat="47.41589" lon="6.5477">
        <ele>282.787</ele>
        <time>2015-10-03T09:54:49Z</time>
      </trkpt>
      <trkpt lat="47.41589" lon="6.54775">
        <ele>281.825</ele>
        <time>2015-10-03T09:54:50Z</time>
      </trkpt>
      <trkpt lat="47.41589" lon="6.54781">
        <ele>282.004</ele>
        <time>2015-10-03T09:54:51Z</time>
      </trkpt>
      <trkpt lat="47.41588" lon="6.54787">
        <ele>282.015</ele>
        <time>2015-10-03T09:54:52Z</time>
      </trkpt>
      <trkpt lat="47.41589" lon="6.54794">
        <ele>282.068</ele>
        <time>2015-10-03T09:54:53Z</time>
      </trkpt>
      <trkpt lat="47.41588" lon="6.54799">
        <ele>281.712</ele>
        <time>2015-10-03T09:54:54Z</time>
      </trkpt>
      <trkpt lat="47.41588" lon="6.54804">
        <ele>281.895</ele>
        <time>2015-10-03T09:54:55Z</time>
      </trkpt>
      <trkpt lat="47.41587" lon="6.54809">
        <ele>281.883</ele>
        <time>2015-10-03T09:54:56Z</time>
      </trkpt>
      <trkpt lat="47.41589" lon="6.54817">
        <ele>282.686</ele>
        <time>2015-10-03T09:54:57Z</time>
      </trkpt>
      <trkpt lat="47.41588" lon="6.54823">
        <ele>282.723</ele>
        <time>2015-10-03T09:54:58Z</time>
      </trkpt>
      <trkpt lat="47.41588" lon="6.54829">
        <ele>282.874</ele>
        <time>2015-10-03T09:54:59Z</time>
      </trkpt>
      <trkpt lat="47.41588" lon="6.54835">
        <ele>284.017</ele>
        <time>2015-10-03T09:55:00Z</time>
      </trkpt>
      <trkpt lat="47.41588" lon="6.54841">
        <ele>284.637</ele>
        <time>2015-10-03T09:55:01Z</time>
      </trkpt>
      <trkpt lat="47.41587" lon="6.54847">
        <ele>284.83</ele>
        <time>2015-10-03T09:55:02Z</time>
      </trkpt>
      <trkpt lat="47.41587" lon="6.54854">
        <ele>285.453</ele>
        <time>2015-10-03T09:55:03Z</time>
      </trkpt>
      <trkpt lat="47.41587" lon="6.54859">
        <ele>285.917</ele>
        <time>2015-10-03T09:55:04Z</time>
      </trkpt>
      <trkpt lat="47.41587" lon="6.54865">
        <ele>286.871</ele>
        <time>2015-10-03T09:55:05Z</time>
      </trkpt>
      <trkpt lat="47.41587" lon="6.54871">
        <ele>286.349</ele>
        <time>2015-10-03T09:55:06Z</time>
      </trkpt>
      <trkpt lat="47.41587" lon="6.54876">
        <ele>285.245</ele>
        <time>2015-10-03T09:55:07Z</time>
      </trkpt>
      <trkpt lat="47.41587" lon="6.54882">
        <ele>285.131</ele>
        <time>2015-10-03T09:55:08Z</time>
      </trkpt>
      <trkpt lat="47.41587" lon="6.54887">
        <ele>282.873</ele>
        <time>2015-10-03T09:55:09Z</time>
      </trkpt>
      <trkpt lat="47.41588" lon="6.54893">
        <ele>282.306</ele>
        <time>2015-10-03T09:55:10Z</time>
      </trkpt>
      <trkpt lat="47.41588" lon="6.54898">
        <ele>282.415</ele>
        <time>2015-10-03T09:55:11Z</time>
      </trkpt>
      <trkpt lat="47.41589" lon="6.54904">
        <ele>282.318</ele>
        <time>2015-10-03T09:55:12Z</time>
      </trkpt>
      <trkpt lat="47.4159" lon="6.54909">
        <ele>282.401</ele>
        <time>2015-10-03T09:55:13Z</time>
      </trkpt>
      <trkpt lat="47.4159" lon="6.54915">
        <ele>281.884</ele>
        <time>2015-10-03T09:55:14Z</time>
      </trkpt>
      <trkpt lat="47.41591" lon="6.54921">
        <ele>281.649</ele>
        <time>2015-10-03T09:55:15Z</time>
      </trkpt>
      <trkpt lat="47.41592" lon="6.54927">
        <ele>281.522</ele>
        <time>2015-10-03T09:55:16Z</time>
      </trkpt>
      <trkpt lat="47.41592" lon="6.54933">
        <ele>281.299</ele>
        <time>2015-10-03T09:55:17Z</time>
      </trkpt>
      <trkpt lat="47.41593" lon="6.5494">
        <ele>282.215</ele>
        <time>2015-10-03T09:55:18Z</time>
      </trkpt>
      <trkpt lat="47.41596" lon="6.54952">
        <ele>283.679</ele>
        <time>2015-10-03T09:55:19Z</time>
      </trkpt>
      <trkpt lat="47.41596" lon="6.54958">
        <ele>283.474</ele>
        <time>2015-10-03T09:55:20Z</time>
      </trkpt>
      <trkpt lat="47.41596" lon="6.54964">
        <ele>283.279</ele>
        <time>2015-10-03T09:55:21Z</time>
      </trkpt>
      <trkpt lat="47.41596" lon="6.54971">
        <ele>283.021</ele>
        <time>2015-10-03T09:55:22Z</time>
      </trkpt>
      <trkpt lat="47.41596" lon="6.54977">
        <ele>283.169</ele>
        <time>2015-10-03T09:55:23Z</time>
      </trkpt>
      <trkpt lat="47.41597" lon="6.54982">
        <ele>283.506</ele>
        <time>2015-10-03T09:55:24Z</time>
      </trkpt>
      <trkpt lat="47.41598" lon="6.54989">
        <ele>283.694</ele>
        <time>2015-10-03T09:55:25Z</time>
      </trkpt>
      <trkpt lat="47.41598" lon="6.54995">
        <ele>284.217</ele>
        <time>2015-10-03T09:55:26Z</time>
      </trkpt>
      <trkpt lat="47.416" lon="6.55001">
        <ele>284.493</ele>
        <time>2015-10-03T09:55:27Z</time>
      </trkpt>
      <trkpt lat="47.41601" lon="6.55007">
        <ele>284.599</ele>
        <time>2015-10-03T09:55:28Z</time>
      </trkpt>
      <trkpt lat="47.41601" lon="6.55012">
        <ele>284.766</ele>
        <time>2015-10-03T09:55:29Z</time>
      </trkpt>
      <trkpt lat="47.41602" lon="6.55018">
        <ele>284.459</ele>
        <time>2015-10-03T09:55:30Z</time>
      </trkpt>
      <trkpt lat="47.41603" lon="6.55024">
        <ele>283.927</ele>
        <time>2015-10-03T09:55:31Z</time>
      </trkpt>
      <trkpt lat="47.41604" lon="6.5503">
        <ele>283.895</ele>
        <time>2015-10-03T09:55:32Z</time>
      </trkpt>
      <trkpt lat="47.41605" lon="6.55035">
        <ele>284.142</ele>
        <time>2015-10-03T09:55:33Z</time>
      </trkpt>
      <trkpt lat="47.41606" lon="6.55041">
        <ele>284.616</ele>
        <time>2015-10-03T09:55:34Z</time>
      </trkpt>
      <trkpt lat="47.41607" lon="6.55048">
        <ele>284.056</ele>
        <time>2015-10-03T09:55:35Z</time>
      </trkpt>
      <trkpt lat="47.41608" lon="6.55054">
        <ele>284.382</ele>
        <time>2015-10-03T09:55:36Z</time>
      </trkpt>
      <trkpt lat="47.41609" lon="6.5506">
        <ele>285.083</ele>
        <time>2015-10-03T09:55:37Z</time>
      </trkpt>
      <trkpt lat="47.4161" lon="6.55066">
        <ele>284.892</ele>
        <time>2015-10-03T09:55:38Z</time>
      </trkpt>
      <trkpt lat="47.41611" lon="6.55072">
        <ele>284.375</ele>
        <time>2015-10-03T09:55:39Z</time>
      </trkpt>
      <trkpt lat="47.41611" lon="6.55078">
        <ele>284.23</ele>
        <time>2015-10-03T09:55:40Z</time>
      </trkpt>
      <trkpt lat="47.41612" lon="6.55084">
        <ele>284.636</ele>
        <time>2015-10-03T09:55:41Z</time>
      </trkpt>
      <trkpt lat="47.41613" lon="6.5509">
        <ele>284.573</ele>
        <time>2015-10-03T09:55:42Z</time>
      </trkpt>
      <trkpt lat="47.41614" lon="6.55096">
        <ele>285.263</ele>
        <time>2015-10-03T09:55:43Z</time>
      </trkpt>
      <trkpt lat="47.41616" lon="6.55102">
        <ele>284.585</ele>
        <time>2015-10-03T09:55:44Z</time>
      </trkpt>
      <trkpt lat="47.41616" lon="6.55108">
        <ele>285.766</ele>
        <time>2015-10-03T09:55:45Z</time>
      </trkpt>
      <trkpt lat="47.41617" lon="6.55114">
        <ele>287.176</ele>
        <time>2015-10-03T09:55:46Z</time>
      </trkpt>
      <trkpt lat="47.41618" lon="6.5512">
        <ele>287.923</ele>
        <time>2015-10-03T09:55:47Z</time>
      </trkpt>
      <trkpt lat="47.4162" lon="6.55127">
        <ele>288.99</ele>
        <time>2015-10-03T09:55:48Z</time>
      </trkpt>
      <trkpt lat="47.41621" lon="6.55133">
        <ele>289.32</ele>
        <time>2015-10-03T09:55:49Z</time>
      </trkpt>
      <trkpt lat="47.41623" lon="6.55139">
        <ele>289.233</ele>
        <time>2015-10-03T09:55:50Z</time>
      </trkpt>
      <trkpt lat="47.41625" lon="6.55144">
        <ele>289.023</ele>
        <time>2015-10-03T09:55:51Z</time>
      </trkpt>
      <trkpt lat="47.41626" lon="6.5515">
        <ele>288.802</ele>
        <time>2015-10-03T09:55:52Z</time>
      </trkpt>
      <trkpt lat="47.41628" lon="6.55156">
        <ele>289.284</ele>
        <time>2015-10-03T09:55:53Z</time>
      </trkpt>
      <trkpt lat="47.4163" lon="6.55161">
        <ele>289.234</ele>
        <time>2015-10-03T09:55:54Z</time>
      </trkpt>
      <trkpt lat="47.41631" lon="6.55167">
        <ele>289.489</ele>
        <time>2015-10-03T09:55:55Z</time>
      </trkpt>
      <trkpt lat="47.41633" lon="6.55172">
        <ele>289.918</ele>
        <time>2015-10-03T09:55:56Z</time>
      </trkpt>
      <trkpt lat="47.41635" lon="6.55178">
        <ele>289.99</ele>
        <time>2015-10-03T09:55:57Z</time>
      </trkpt>
      <trkpt lat="47.41637" lon="6.55183">
        <ele>289.941</ele>
        <time>2015-10-03T09:55:58Z</time>
      </trkpt>
      <trkpt lat="47.41639" lon="6.55189">
        <ele>289.497</ele>
        <time>2015-10-03T09:55:59Z</time>
      </trkpt>
      <trkpt lat="47.41641" lon="6.55194">
        <ele>289.51</ele>
        <time>2015-10-03T09:56:00Z</time>
      </trkpt>
      <trkpt lat="47.41643" lon="6.55199">
        <ele>290.17</ele>
        <time>2015-10-03T09:56:01Z</time>
      </trkpt>
      <trkpt lat="47.41644" lon="6.55205">
        <ele>290.894</ele>
        <time>2015-10-03T09:56:02Z</time>
      </trkpt>
      <trkpt lat="47.41646" lon="6.5521">
        <ele>290.833</ele>
        <time>2015-10-03T09:56:03Z</time>
      </trkpt>
      <trkpt lat="47.41648" lon="6.55215">
        <ele>291.628</ele>
        <time>2015-10-03T09:56:04Z</time>
      </trkpt>
      <trkpt lat="47.4165" lon="6.5522">
        <ele>290.962</ele>
        <time>2015-10-03T09:56:05Z</time>
      </trkpt>
      <trkpt lat="47.41652" lon="6.55225">
        <ele>290.168</ele>
        <time>2015-10-03T09:56:06Z</time>
      </trkpt>
      <trkpt lat="47.41654" lon="6.5523">
        <ele>289.804</ele>
        <time>2015-10-03T09:56:07Z</time>
      </trkpt>
      <trkpt lat="47.41656" lon="6.55235">
        <ele>289.067</ele>
        <time>2015-10-03T09:56:08Z</time>
      </trkpt>
      <trkpt lat="47.41658" lon="6.55241">
        <ele>288.424</ele>
        <time>2015-10-03T09:56:09Z</time>
      </trkpt>
      <trkpt lat="47.4166" lon="6.55246">
        <ele>288.096</ele>
        <time>2015-10-03T09:56:10Z</time>
      </trkpt>
      <trkpt lat="47.41661" lon="6.55251">
        <ele>287.615</ele>
        <time>2015-10-03T09:56:11Z</time>
      </trkpt>
      <trkpt lat="47.41663" lon="6.55256">
        <ele>287.385</ele>
        <time>2015-10-03T09:56:12Z</time>
      </trkpt>
      <trkpt lat="47.41665" lon="6.55262">
        <ele>287.527</ele>
        <time>2015-10-03T09:56:13Z</time>
      </trkpt>
      <trkpt lat="47.41668" lon="6.55267">
        <ele>288.486</ele>
        <time>2015-10-03T09:56:14Z</time>
      </trkpt>
      <trkpt lat="47.4167" lon="6.55275">
        <ele>291.941</ele>
        <time>2015-10-03T09:56:15Z</time>
      </trkpt>
      <trkpt lat="47.41672" lon="6.5528">
        <ele>292.535</ele>
        <time>2015-10-03T09:56:16Z</time>
      </trkpt>
      <trkpt lat="47.41674" lon="6.55285">
        <ele>292.399</ele>
        <time>2015-10-03T09:56:17Z</time>
      </trkpt>
      <trkpt lat="47.41677" lon="6.5529">
        <ele>293.542</ele>
        <time>2015-10-03T09:56:18Z</time>
      </trkpt>
      <trkpt lat="47.41679" lon="6.55295">
        <ele>292.765</ele>
        <time>2015-10-03T09:56:19Z</time>
      </trkpt>
      <trkpt lat="47.41682" lon="6.553">
        <ele>292.965</ele>
        <time>2015-10-03T09:56:20Z</time>
      </trkpt>
      <trkpt lat="47.41684" lon="6.55306">
        <ele>293.137</ele>
        <time>2015-10-03T09:56:21Z</time>
      </trkpt>
      <trkpt lat="47.41686" lon="6.55311">
        <ele>292.914</ele>
        <time>2015-10-03T09:56:22Z</time>
      </trkpt>
      <trkpt lat="47.41688" lon="6.55316">
        <ele>293.569</ele>
        <time>2015-10-03T09:56:23Z</time>
      </trkpt>
      <trkpt lat="47.41691" lon="6.55321">
        <ele>293.845</ele>
        <time>2015-10-03T09:56:24Z</time>
      </trkpt>
      <trkpt lat="47.41694" lon="6.55325">
        <ele>292.789</ele>
        <time>2015-10-03T09:56:25Z</time>
      </trkpt>
      <trkpt lat="47.41696" lon="6.55331">
        <ele>292.351</ele>
        <time>2015-10-03T09:56:26Z</time>
      </trkpt>
      <trkpt lat="47.41698" lon="6.55336">
        <ele>293.039</ele>
        <time>2015-10-03T09:56:27Z</time>
      </trkpt>
      <trkpt lat="47.41701" lon="6.55341">
        <ele>293.435</ele>
        <time>2015-10-03T09:56:28Z</time>
      </trkpt>
      <trkpt lat="47.41703" lon="6.55345">
        <ele>293.028</ele>
        <time>2015-10-03T09:56:29Z</time>
      </trkpt>
      <trkpt lat="47.41705" lon="6.5535">
        <ele>292.699</ele>
        <time>2015-10-03T09:56:30Z</time>
      </trkpt>
      <trkpt lat="47.41708" lon="6.55356">
        <ele>292.754</ele>
        <time>2015-10-03T09:56:31Z</time>
      </trkpt>
      <trkpt lat="47.41711" lon="6.55361">
        <ele>292.223</ele>
        <time>2015-10-03T09:56:32Z</time>
      </trkpt>
      <trkpt lat="47.41714" lon="6.55366">
        <ele>292.812</ele>
        <time>2015-10-03T09:56:33Z</time>
      </trkpt>
      <trkpt lat="47.41717" lon="6.55371">
        <ele>292.906</ele>
        <time>2015-10-03T09:56:34Z</time>
      </trkpt>
      <trkpt lat="47.41719" lon="6.55377">
        <ele>293.483</ele>
        <time>2015-10-03T09:56:35Z</time>
      </trkpt>
      <trkpt lat="47.41722" lon="6.55381">
        <ele>293.946</ele>
        <time>2015-10-03T09:56:36Z</time>
      </trkpt>
      <trkpt lat="47.41726" lon="6.55387">
        <ele>294.469</ele>
        <time>2015-10-03T09:56:37Z</time>
      </trkpt>
      <trkpt lat="47.41729" lon="6.55391">
        <ele>294.392</ele>
        <time>2015-10-03T09:56:38Z</time>
      </trkpt>
      <trkpt lat="47.41732" lon="6.55396">
        <ele>294.176</ele>
        <time>2015-10-03T09:56:39Z</time>
      </trkpt>
      <trkpt lat="47.41735" lon="6.55401">
        <ele>294.225</ele>
        <time>2015-10-03T09:56:40Z</time>
      </trkpt>
      <trkpt lat="47.41738" lon="6.55406">
        <ele>294.275</ele>
        <time>2015-10-03T09:56:41Z</time>
      </trkpt>
      <trkpt lat="47.41742" lon="6.55411">
        <ele>294.347</ele>
        <time>2015-10-03T09:56:42Z</time>
      </trkpt>
      <trkpt lat="47.41745" lon="6.55414">
        <ele>294.313</ele>
        <time>2015-10-03T09:56:43Z</time>
      </trkpt>
      <trkpt lat="47.41748" lon="6.55418">
        <ele>293.617</ele>
        <time>2015-10-03T09:56:45Z</time>
      </trkpt>
      <trkpt lat="47.41751" lon="6.55422">
        <ele>293.244</ele>
        <time>2015-10-03T09:56:46Z</time>
      </trkpt>
      <trkpt lat="47.41754" lon="6.55426">
        <ele>293.217</ele>
        <time>2015-10-03T09:56:47Z</time>
      </trkpt>
      <trkpt lat="47.41758" lon="6.55429">
        <ele>293.072</ele>
        <time>2015-10-03T09:56:48Z</time>
      </trkpt>
      <trkpt lat="47.41761" lon="6.55433">
        <ele>292.872</ele>
        <time>2015-10-03T09:56:49Z</time>
      </trkpt>
      <trkpt lat="47.41765" lon="6.55437">
        <ele>292.808</ele>
        <time>2015-10-03T09:56:50Z</time>
      </trkpt>
      <trkpt lat="47.41768" lon="6.55441">
        <ele>292.356</ele>
        <time>2015-10-03T09:56:51Z</time>
      </trkpt>
      <trkpt lat="47.41772" lon="6.55444">
        <ele>292.22</ele>
        <time>2015-10-03T09:56:52Z</time>
      </trkpt>
      <trkpt lat="47.41775" lon="6.55448">
        <ele>292.269</ele>
        <time>2015-10-03T09:56:53Z</time>
      </trkpt>
      <trkpt lat="47.41779" lon="6.55451">
        <ele>292.216</ele>
        <time>2015-10-03T09:56:54Z</time>
      </trkpt>
      <trkpt lat="47.41783" lon="6.55454">
        <ele>292.161</ele>
        <time>2015-10-03T09:56:55Z</time>
      </trkpt>
      <trkpt lat="47.41786" lon="6.55457">
        <ele>292.381</ele>
        <time>2015-10-03T09:56:56Z</time>
      </trkpt>
      <trkpt lat="47.4179" lon="6.5546">
        <ele>292.409</ele>
        <time>2015-10-03T09:56:57Z</time>
      </trkpt>
      <trkpt lat="47.41793" lon="6.55463">
        <ele>292.633</ele>
        <time>2015-10-03T09:56:58Z</time>
      </trkpt>
      <trkpt lat="47.41797" lon="6.55466">
        <ele>292.997</ele>
        <time>2015-10-03T09:56:59Z</time>
      </trkpt>
      <trkpt lat="47.41801" lon="6.55469">
        <ele>292.595</ele>
        <time>2015-10-03T09:57:00Z</time>
      </trkpt>
      <trkpt lat="47.41805" lon="6.55472">
        <ele>292.416</ele>
        <time>2015-10-03T09:57:01Z</time>
      </trkpt>
      <trkpt lat="47.41809" lon="6.55475">
        <ele>292.461</ele>
        <time>2015-10-03T09:57:02Z</time>
      </trkpt>
      <trkpt lat="47.41812" lon="6.55478">
        <ele>292.493</ele>
        <time>2015-10-03T09:57:03Z</time>
      </trkpt>
      <trkpt lat="47.41816" lon="6.5548">
        <ele>292.304</ele>
        <time>2015-10-03T09:57:04Z</time>
      </trkpt>
      <trkpt lat="47.4182" lon="6.55483">
        <ele>292.385</ele>
        <time>2015-10-03T09:57:05Z</time>
      </trkpt>
      <trkpt lat="47.41824" lon="6.55485">
        <ele>292.36</ele>
        <time>2015-10-03T09:57:06Z</time>
      </trkpt>
      <trkpt lat="47.41828" lon="6.55487">
        <ele>292.606</ele>
        <time>2015-10-03T09:57:07Z</time>
      </trkpt>
      <trkpt lat="47.41832" lon="6.5549">
        <ele>292.756</ele>
        <time>2015-10-03T09:57:08Z</time>
      </trkpt>
      <trkpt lat="47.41836" lon="6.55492">
        <ele>292.721</ele>
        <time>2015-10-03T09:57:09Z</time>
      </trkpt>
      <trkpt lat="47.41841" lon="6.55494">
        <ele>292.672</ele>
        <time>2015-10-03T09:57:10Z</time>
      </trkpt>
      <trkpt lat="47.41845" lon="6.55495">
        <ele>292.415</ele>
        <time>2015-10-03T09:57:11Z</time>
      </trkpt>
      <trkpt lat="47.41849" lon="6.55497">
        <ele>292.525</ele>
        <time>2015-10-03T09:57:12Z</time>
      </trkpt>
      <trkpt lat="47.41854" lon="6.55499">
        <ele>292.529</ele>
        <time>2015-10-03T09:57:13Z</time>
      </trkpt>
      <trkpt lat="47.41858" lon="6.55501">
        <ele>292.631</ele>
        <time>2015-10-03T09:57:14Z</time>
      </trkpt>
      <trkpt lat="47.41862" lon="6.55502">
        <ele>292.321</ele>
        <time>2015-10-03T09:57:15Z</time>
      </trkpt>
      <trkpt lat="47.41866" lon="6.55503">
        <ele>292.114</ele>
        <time>2015-10-03T09:57:16Z</time>
      </trkpt>
      <trkpt lat="47.4187" lon="6.55505">
        <ele>292.311</ele>
        <time>2015-10-03T09:57:17Z</time>
      </trkpt>
      <trkpt lat="47.41875" lon="6.55506">
        <ele>292.329</ele>
        <time>2015-10-03T09:57:18Z</time>
      </trkpt>
      <trkpt lat="47.41879" lon="6.55508">
        <ele>292.223</ele>
        <time>2015-10-03T09:57:19Z</time>
      </trkpt>
      <trkpt lat="47.41883" lon="6.5551">
        <ele>292.057</ele>
        <time>2015-10-03T09:57:20Z</time>
      </trkpt>
      <trkpt lat="47.41887" lon="6.55511">
        <ele>292.016</ele>
        <time>2015-10-03T09:57:21Z</time>
      </trkpt>
      <trkpt lat="47.41891" lon="6.55513">
        <ele>292.291</ele>
        <time>2015-10-03T09:57:22Z</time>
      </trkpt>
      <trkpt lat="47.41896" lon="6.55514">
        <ele>291.8</ele>
        <time>2015-10-03T09:57:23Z</time>
      </trkpt>
      <trkpt lat="47.419" lon="6.55513">
        <ele>290.717</ele>
        <time>2015-10-03T09:57:24Z</time>
      </trkpt>
      <trkpt lat="47.41905" lon="6.55513">
        <ele>290.954</ele>
        <time>2015-10-03T09:57:25Z</time>
      </trkpt>
      <trkpt lat="47.41909" lon="6.55513">
        <ele>290.188</ele>
        <time>2015-10-03T09:57:26Z</time>
      </trkpt>
      <trkpt lat="47.41913" lon="6.55514">
        <ele>290.758</ele>
        <time>2015-10-03T09:57:27Z</time>
      </trkpt>
      <trkpt lat="47.41918" lon="6.55515">
        <ele>290.514</ele>
        <time>2015-10-03T09:57:28Z</time>
      </trkpt>
      <trkpt lat="47.41922" lon="6.55516">
        <ele>290.523</ele>
        <time>2015-10-03T09:57:29Z</time>
      </trkpt>
      <trkpt lat="47.41926" lon="6.55517">
        <ele>290.684</ele>
        <time>2015-10-03T09:57:30Z</time>
      </trkpt>
      <trkpt lat="47.41931" lon="6.55517">
        <ele>290.352</ele>
        <time>2015-10-03T09:57:31Z</time>
      </trkpt>
      <trkpt lat="47.41936" lon="6.55518">
        <ele>291.034</ele>
        <time>2015-10-03T09:57:32Z</time>
      </trkpt>
      <trkpt lat="47.4194" lon="6.55518">
        <ele>291.264</ele>
        <time>2015-10-03T09:57:33Z</time>
      </trkpt>
      <trkpt lat="47.41944" lon="6.55518">
        <ele>291.143</ele>
        <time>2015-10-03T09:57:34Z</time>
      </trkpt>
      <trkpt lat="47.41947" lon="6.55519">
        <ele>290.937</ele>
        <time>2015-10-03T09:57:35Z</time>
      </trkpt>
      <trkpt lat="47.41951" lon="6.55519">
        <ele>291.63</ele>
        <time>2015-10-03T09:57:36Z</time>
      </trkpt>
      <trkpt lat="47.41955" lon="6.5552">
        <ele>292.184</ele>
        <time>2015-10-03T09:57:37Z</time>
      </trkpt>
      <trkpt lat="47.4196" lon="6.5552">
        <ele>292.389</ele>
        <time>2015-10-03T09:57:38Z</time>
      </trkpt>
      <trkpt lat="47.41964" lon="6.55521">
        <ele>292.784</ele>
        <time>2015-10-03T09:57:39Z</time>
      </trkpt>
      <trkpt lat="47.41968" lon="6.55521">
        <ele>291.344</ele>
        <time>2015-10-03T09:57:40Z</time>
      </trkpt>
      <trkpt lat="47.41972" lon="6.55521">
        <ele>290.971</ele>
        <time>2015-10-03T09:57:41Z</time>
      </trkpt>
      <trkpt lat="47.41976" lon="6.55521">
        <ele>290.866</ele>
        <time>2015-10-03T09:57:42Z</time>
      </trkpt>
      <trkpt lat="47.4198" lon="6.55521">
        <ele>290.49</ele>
        <time>2015-10-03T09:57:43Z</time>
      </trkpt>
      <trkpt lat="47.41984" lon="6.55522">
        <ele>290.833</ele>
        <time>2015-10-03T09:57:44Z</time>
      </trkpt>
      <trkpt lat="47.41989" lon="6.55522">
        <ele>290.507</ele>
        <time>2015-10-03T09:57:45Z</time>
      </trkpt>
      <trkpt lat="47.41993" lon="6.55521">
        <ele>290.88</ele>
        <time>2015-10-03T09:57:46Z</time>
      </trkpt>
      <trkpt lat="47.41997" lon="6.55521">
        <ele>292.203</ele>
        <time>2015-10-03T09:57:47Z</time>
      </trkpt>
      <trkpt lat="47.42001" lon="6.55521">
        <ele>292.623</ele>
        <time>2015-10-03T09:57:48Z</time>
      </trkpt>
      <trkpt lat="47.42005" lon="6.5552">
        <ele>292.159</ele>
        <time>2015-10-03T09:57:49Z</time>
      </trkpt>
      <trkpt lat="47.42009" lon="6.5552">
        <ele>293.735</ele>
        <time>2015-10-03T09:57:50Z</time>
      </trkpt>
      <trkpt lat="47.42013" lon="6.55521">
        <ele>294.187</ele>
        <time>2015-10-03T09:57:51Z</time>
      </trkpt>
      <trkpt lat="47.42017" lon="6.55521">
        <ele>294.967</ele>
        <time>2015-10-03T09:57:52Z</time>
      </trkpt>
      <trkpt lat="47.42022" lon="6.55521">
        <ele>294.76</ele>
        <time>2015-10-03T09:57:53Z</time>
      </trkpt>
      <trkpt lat="47.42026" lon="6.5552">
        <ele>295.379</ele>
        <time>2015-10-03T09:57:54Z</time>
      </trkpt>
      <trkpt lat="47.4203" lon="6.5552">
        <ele>295.64</ele>
        <time>2015-10-03T09:57:55Z</time>
      </trkpt>
      <trkpt lat="47.42035" lon="6.5552">
        <ele>295.307</ele>
        <time>2015-10-03T09:57:56Z</time>
      </trkpt>
      <trkpt lat="47.42039" lon="6.55519">
        <ele>294.791</ele>
        <time>2015-10-03T09:57:57Z</time>
      </trkpt>
      <trkpt lat="47.42043" lon="6.55518">
        <ele>294.063</ele>
        <time>2015-10-03T09:57:58Z</time>
      </trkpt>
      <trkpt lat="47.42048" lon="6.55518">
        <ele>294.301</ele>
        <time>2015-10-03T09:57:59Z</time>
      </trkpt>
      <trkpt lat="47.42052" lon="6.55518">
        <ele>293.653</ele>
        <time>2015-10-03T09:58:00Z</time>
      </trkpt>
      <trkpt lat="47.42056" lon="6.55517">
        <ele>293.909</ele>
        <time>2015-10-03T09:58:01Z</time>
      </trkpt>
      <trkpt lat="47.42061" lon="6.55517">
        <ele>293.219</ele>
        <time>2015-10-03T09:58:02Z</time>
      </trkpt>
      <trkpt lat="47.42066" lon="6.55516">
        <ele>293.512</ele>
        <time>2015-10-03T09:58:03Z</time>
      </trkpt>
      <trkpt lat="47.4207" lon="6.55516">
        <ele>293.757</ele>
        <time>2015-10-03T09:58:04Z</time>
      </trkpt>
      <trkpt lat="47.42074" lon="6.55517">
        <ele>294.918</ele>
        <time>2015-10-03T09:58:05Z</time>
      </trkpt>
      <trkpt lat="47.42078" lon="6.55517">
        <ele>295.176</ele>
        <time>2015-10-03T09:58:06Z</time>
      </trkpt>
      <trkpt lat="47.42082" lon="6.55516">
        <ele>295.586</ele>
        <time>2015-10-03T09:58:07Z</time>
      </trkpt>
      <trkpt lat="47.42086" lon="6.55518">
        <ele>296.704</ele>
        <time>2015-10-03T09:58:08Z</time>
      </trkpt>
      <trkpt lat="47.42091" lon="6.55517">
        <ele>295.285</ele>
        <time>2015-10-03T09:58:09Z</time>
      </trkpt>
      <trkpt lat="47.42095" lon="6.55515">
        <ele>294.116</ele>
        <time>2015-10-03T09:58:10Z</time>
      </trkpt>
      <trkpt lat="47.42099" lon="6.55515">
        <ele>294.72</ele>
        <time>2015-10-03T09:58:11Z</time>
      </trkpt>
      <trkpt lat="47.42103" lon="6.55515">
        <ele>295.013</ele>
        <time>2015-10-03T09:58:12Z</time>
      </trkpt>
      <trkpt lat="47.42108" lon="6.55515">
        <ele>295.703</ele>
        <time>2015-10-03T09:58:13Z</time>
      </trkpt>
      <trkpt lat="47.42112" lon="6.55515">
        <ele>296.819</ele>
        <time>2015-10-03T09:58:14Z</time>
      </trkpt>
      <trkpt lat="47.42117" lon="6.55515">
        <ele>296.981</ele>
        <time>2015-10-03T09:58:15Z</time>
      </trkpt>
      <trkpt lat="47.42121" lon="6.55514">
        <ele>297.164</ele>
        <time>2015-10-03T09:58:16Z</time>
      </trkpt>
      <trkpt lat="47.42125" lon="6.55514">
        <ele>297.32</ele>
        <time>2015-10-03T09:58:17Z</time>
      </trkpt>
      <trkpt lat="47.42129" lon="6.55513">
        <ele>297.039</ele>
        <time>2015-10-03T09:58:18Z</time>
      </trkpt>
      <trkpt lat="47.42133" lon="6.55513">
        <ele>296.449</ele>
        <time>2015-10-03T09:58:19Z</time>
      </trkpt>
      <trkpt lat="47.42138" lon="6.55513">
        <ele>297.466</ele>
        <time>2015-10-03T09:58:20Z</time>
      </trkpt>
      <trkpt lat="47.42142" lon="6.55513">
        <ele>298.311</ele>
        <time>2015-10-03T09:58:21Z</time>
      </trkpt>
      <trkpt lat="47.42147" lon="6.55513">
        <ele>297.333</ele>
        <time>2015-10-03T09:58:22Z</time>
      </trkpt>
      <trkpt lat="47.42151" lon="6.55514">
        <ele>297.94</ele>
        <time>2015-10-03T09:58:23Z</time>
      </trkpt>
      <trkpt lat="47.42156" lon="6.55516">
        <ele>298.855</ele>
        <time>2015-10-03T09:58:24Z</time>
      </trkpt>
      <trkpt lat="47.42161" lon="6.55517">
        <ele>299.318</ele>
        <time>2015-10-03T09:58:25Z</time>
      </trkpt>
      <trkpt lat="47.42166" lon="6.55517">
        <ele>299.024</ele>
        <time>2015-10-03T09:58:26Z</time>
      </trkpt>
      <trkpt lat="47.42171" lon="6.55517">
        <ele>297.925</ele>
        <time>2015-10-03T09:58:27Z</time>
      </trkpt>
      <trkpt lat="47.42175" lon="6.55517">
        <ele>297.971</ele>
        <time>2015-10-03T09:58:28Z</time>
      </trkpt>
      <trkpt lat="47.42179" lon="6.55517">
        <ele>296.218</ele>
        <time>2015-10-03T09:58:29Z</time>
      </trkpt>
      <trkpt lat="47.42184" lon="6.55513">
        <ele>296.68</ele>
        <time>2015-10-03T09:58:30Z</time>
      </trkpt>
      <trkpt lat="47.42187" lon="6.55512">
        <ele>297.366</ele>
        <time>2015-10-03T09:58:31Z</time>
      </trkpt>
      <trkpt lat="47.42192" lon="6.55509">
        <ele>298.077</ele>
        <time>2015-10-03T09:58:32Z</time>
      </trkpt>
      <trkpt lat="47.42196" lon="6.55503">
        <ele>295.853</ele>
        <time>2015-10-03T09:58:33Z</time>
      </trkpt>
      <trkpt lat="47.42198" lon="6.55501">
        <ele>296.748</ele>
        <time>2015-10-03T09:58:34Z</time>
      </trkpt>
      <trkpt lat="47.42202" lon="6.55498">
        <ele>296.467</ele>
        <time>2015-10-03T09:58:35Z</time>
      </trkpt>
      <trkpt lat="47.42205" lon="6.55498">
        <ele>296.279</ele>
        <time>2015-10-03T09:58:36Z</time>
      </trkpt>
      <trkpt lat="47.42209" lon="6.55497">
        <ele>295.66</ele>
        <time>2015-10-03T09:58:37Z</time>
      </trkpt>
      <trkpt lat="47.42212" lon="6.55495">
        <ele>295.004</ele>
        <time>2015-10-03T09:58:38Z</time>
      </trkpt>
      <trkpt lat="47.42216" lon="6.55494">
        <ele>295.047</ele>
        <time>2015-10-03T09:58:39Z</time>
      </trkpt>
      <trkpt lat="47.4222" lon="6.55493">
        <ele>294.684</ele>
        <time>2015-10-03T09:58:40Z</time>
      </trkpt>
      <trkpt lat="47.42224" lon="6.55492">
        <ele>295.482</ele>
        <time>2015-10-03T09:58:41Z</time>
      </trkpt>
      <trkpt lat="47.42228" lon="6.55491">
        <ele>294.959</ele>
        <time>2015-10-03T09:58:42Z</time>
      </trkpt>
      <trkpt lat="47.42232" lon="6.55491">
        <ele>294.395</ele>
        <time>2015-10-03T09:58:43Z</time>
      </trkpt>
      <trkpt lat="47.42236" lon="6.5549">
        <ele>294.485</ele>
        <time>2015-10-03T09:58:44Z</time>
      </trkpt>
      <trkpt lat="47.4224" lon="6.55489">
        <ele>294.314</ele>
        <time>2015-10-03T09:58:45Z</time>
      </trkpt>
      <trkpt lat="47.42245" lon="6.55487">
        <ele>294.047</ele>
        <time>2015-10-03T09:58:46Z</time>
      </trkpt>
      <trkpt lat="47.42249" lon="6.55486">
        <ele>293.646</ele>
        <time>2015-10-03T09:58:47Z</time>
      </trkpt>
      <trkpt lat="47.42253" lon="6.55484">
        <ele>294.322</ele>
        <time>2015-10-03T09:58:48Z</time>
      </trkpt>
      <trkpt lat="47.42258" lon="6.55483">
        <ele>293.245</ele>
        <time>2015-10-03T09:58:49Z</time>
      </trkpt>
      <trkpt lat="47.42262" lon="6.55481">
        <ele>293.527</ele>
        <time>2015-10-03T09:58:50Z</time>
      </trkpt>
      <trkpt lat="47.42266" lon="6.5548">
        <ele>294.272</ele>
        <time>2015-10-03T09:58:51Z</time>
      </trkpt>
      <trkpt lat="47.4227" lon="6.55478">
        <ele>293.259</ele>
        <time>2015-10-03T09:58:52Z</time>
      </trkpt>
      <trkpt lat="47.42274" lon="6.55476">
        <ele>292.023</ele>
        <time>2015-10-03T09:58:53Z</time>
      </trkpt>
      <trkpt lat="47.42278" lon="6.55474">
        <ele>292.878</ele>
        <time>2015-10-03T09:58:54Z</time>
      </trkpt>
      <trkpt lat="47.42282" lon="6.55472">
        <ele>293.413</ele>
        <time>2015-10-03T09:58:55Z</time>
      </trkpt>
      <trkpt lat="47.42287" lon="6.55467">
        <ele>293.629</ele>
        <time>2015-10-03T09:58:56Z</time>
      </trkpt>
      <trkpt lat="47.42291" lon="6.55464">
        <ele>293.938</ele>
        <time>2015-10-03T09:58:57Z</time>
      </trkpt>
      <trkpt lat="47.42295" lon="6.55463">
        <ele>293.677</ele>
        <time>2015-10-03T09:58:58Z</time>
      </trkpt>
      <trkpt lat="47.42299" lon="6.55461">
        <ele>294.535</ele>
        <time>2015-10-03T09:58:59Z</time>
      </trkpt>
      <trkpt lat="47.42302" lon="6.55461">
        <ele>294.364</ele>
        <time>2015-10-03T09:59:00Z</time>
      </trkpt>
      <trkpt lat="47.42306" lon="6.5546">
        <ele>294.655</ele>
        <time>2015-10-03T09:59:01Z</time>
      </trkpt>
      <trkpt lat="47.42308" lon="6.55459">
        <ele>295.384</ele>
        <time>2015-10-03T09:59:02Z</time>
      </trkpt>
      <trkpt lat="47.42312" lon="6.55457">
        <ele>296.105</ele>
        <time>2015-10-03T09:59:03Z</time>
      </trkpt>
      <trkpt lat="47.42316" lon="6.55455">
        <ele>296.916</ele>
        <time>2015-10-03T09:59:04Z</time>
      </trkpt>
      <trkpt lat="47.4232" lon="6.55448">
        <ele>296.145</ele>
        <time>2015-10-03T09:59:05Z</time>
      </trkpt>
      <trkpt lat="47.42324" lon="6.55445">
        <ele>295.934</ele>
        <time>2015-10-03T09:59:06Z</time>
      </trkpt>
      <trkpt lat="47.42328" lon="6.55443">
        <ele>295.027</ele>
        <time>2015-10-03T09:59:07Z</time>
      </trkpt>
      <trkpt lat="47.42332" lon="6.55439">
        <ele>296.689</ele>
        <time>2015-10-03T09:59:08Z</time>
      </trkpt>
      <trkpt lat="47.42336" lon="6.55436">
        <ele>297.591</ele>
        <time>2015-10-03T09:59:09Z</time>
      </trkpt>
      <trkpt lat="47.4234" lon="6.55433">
        <ele>297.496</ele>
        <time>2015-10-03T09:59:10Z</time>
      </trkpt>
      <trkpt lat="47.42344" lon="6.5543">
        <ele>298.699</ele>
        <time>2015-10-03T09:59:11Z</time>
      </trkpt>
      <trkpt lat="47.42348" lon="6.55427">
        <ele>297.274</ele>
        <time>2015-10-03T09:59:12Z</time>
      </trkpt>
      <trkpt lat="47.42351" lon="6.55423">
        <ele>296.062</ele>
        <time>2015-10-03T09:59:13Z</time>
      </trkpt>
      <trkpt lat="47.42355" lon="6.55419">
        <ele>295.731</ele>
        <time>2015-10-03T09:59:14Z</time>
      </trkpt>
      <trkpt lat="47.42359" lon="6.55414">
        <ele>295.111</ele>
        <time>2015-10-03T09:59:15Z</time>
      </trkpt>
      <trkpt lat="47.42362" lon="6.55409">
        <ele>295.098</ele>
        <time>2015-10-03T09:59:16Z</time>
      </trkpt>
      <trkpt lat="47.42367" lon="6.55404">
        <ele>295.112</ele>
        <time>2015-10-03T09:59:17Z</time>
      </trkpt>
      <trkpt lat="47.42371" lon="6.55397">
        <ele>294.889</ele>
        <time>2015-10-03T09:59:18Z</time>
      </trkpt>
      <trkpt lat="47.42374" lon="6.55392">
        <ele>293.924</ele>
        <time>2015-10-03T09:59:19Z</time>
      </trkpt>
      <trkpt lat="47.42378" lon="6.55387">
        <ele>293.977</ele>
        <time>2015-10-03T09:59:20Z</time>
      </trkpt>
      <trkpt lat="47.42381" lon="6.55382">
        <ele>293.846</ele>
        <time>2015-10-03T09:59:21Z</time>
      </trkpt>
      <trkpt lat="47.42384" lon="6.55376">
        <ele>292.854</ele>
        <time>2015-10-03T09:59:22Z</time>
      </trkpt>
      <trkpt lat="47.42389" lon="6.55372">
        <ele>292.602</ele>
        <time>2015-10-03T09:59:23Z</time>
      </trkpt>
      <trkpt lat="47.42393" lon="6.55369">
        <ele>292.863</ele>
        <time>2015-10-03T09:59:24Z</time>
      </trkpt>
      <trkpt lat="47.42396" lon="6.55364">
        <ele>292.093</ele>
        <time>2015-10-03T09:59:25Z</time>
      </trkpt>
      <trkpt lat="47.42398" lon="6.55358">
        <ele>292.496</ele>
        <time>2015-10-03T09:59:26Z</time>
      </trkpt>
      <trkpt lat="47.42401" lon="6.55353">
        <ele>292.227</ele>
        <time>2015-10-03T09:59:27Z</time>
      </trkpt>
      <trkpt lat="47.42404" lon="6.55349">
        <ele>291.897</ele>
        <time>2015-10-03T09:59:28Z</time>
      </trkpt>
      <trkpt lat="47.42407" lon="6.55346">
        <ele>292.222</ele>
        <time>2015-10-03T09:59:29Z</time>
      </trkpt>
      <trkpt lat="47.42411" lon="6.5534">
        <ele>291.787</ele>
        <time>2015-10-03T09:59:30Z</time>
      </trkpt>
      <trkpt lat="47.42414" lon="6.55335">
        <ele>291.716</ele>
        <time>2015-10-03T09:59:31Z</time>
      </trkpt>
      <trkpt lat="47.42417" lon="6.5533">
        <ele>292.555</ele>
        <time>2015-10-03T09:59:32Z</time>
      </trkpt>
      <trkpt lat="47.42419" lon="6.55326">
        <ele>292.862</ele>
        <time>2015-10-03T09:59:33Z</time>
      </trkpt>
      <trkpt lat="47.42421" lon="6.55322">
        <ele>292.217</ele>
        <time>2015-10-03T09:59:34Z</time>
      </trkpt>
      <trkpt lat="47.42423" lon="6.55317">
        <ele>291.929</ele>
        <time>2015-10-03T09:59:35Z</time>
      </trkpt>
      <trkpt lat="47.42426" lon="6.55311">
        <ele>290.551</ele>
        <time>2015-10-03T09:59:36Z</time>
      </trkpt>
      <trkpt lat="47.42429" lon="6.55305">
        <ele>290.615</ele>
        <time>2015-10-03T09:59:37Z</time>
      </trkpt>
      <trkpt lat="47.42433" lon="6.55304">
        <ele>291.419</ele>
        <time>2015-10-03T09:59:38Z</time>
      </trkpt>
      <trkpt lat="47.42435" lon="6.553">
        <ele>291.149</ele>
        <time>2015-10-03T09:59:39Z</time>
      </trkpt>
      <trkpt lat="47.42438" lon="6.55295">
        <ele>291.712</ele>
        <time>2015-10-03T09:59:40Z</time>
      </trkpt>
      <trkpt lat="47.4244" lon="6.55293">
        <ele>291.651</ele>
        <time>2015-10-03T09:59:41Z</time>
      </trkpt>
      <trkpt lat="47.42442" lon="6.55287">
        <ele>292.788</ele>
        <time>2015-10-03T09:59:42Z</time>
      </trkpt>
      <trkpt lat="47.42443" lon="6.55279">
        <ele>291.691</ele>
        <time>2015-10-03T09:59:43Z</time>
      </trkpt>
      <trkpt lat="47.42445" lon="6.55274">
        <ele>292.948</ele>
        <time>2015-10-03T09:59:44Z</time>
      </trkpt>
      <trkpt lat="47.42445" lon="6.55267">
        <ele>291.717</ele>
        <time>2015-10-03T09:59:45Z</time>
      </trkpt>
      <trkpt lat="47.42447" lon="6.55257">
        <ele>289.808</ele>
        <time>2015-10-03T09:59:46Z</time>
      </trkpt>
      <trkpt lat="47.42448" lon="6.55251">
        <ele>290.703</ele>
        <time>2015-10-03T09:59:47Z</time>
      </trkpt>
      <trkpt lat="47.42449" lon="6.55244">
        <ele>290.642</ele>
        <time>2015-10-03T09:59:48Z</time>
      </trkpt>
      <trkpt lat="47.4245" lon="6.55238">
        <ele>290.217</ele>
        <time>2015-10-03T09:59:49Z</time>
      </trkpt>
      <trkpt lat="47.42453" lon="6.5523">
        <ele>291.353</ele>
        <time>2015-10-03T09:59:50Z</time>
      </trkpt>
      <trkpt lat="47.42453" lon="6.55223">
        <ele>291.871</ele>
        <time>2015-10-03T09:59:51Z</time>
      </trkpt>
      <trkpt lat="47.42455" lon="6.55217">
        <ele>292.315</ele>
        <time>2015-10-03T09:59:52Z</time>
      </trkpt>
      <trkpt lat="47.42455" lon="6.55208">
        <ele>291.885</ele>
        <time>2015-10-03T09:59:53Z</time>
      </trkpt>
      <trkpt lat="47.42457" lon="6.55202">
        <ele>291.297</ele>
        <time>2015-10-03T09:59:54Z</time>
      </trkpt>
      <trkpt lat="47.42458" lon="6.55196">
        <ele>291.175</ele>
        <time>2015-10-03T09:59:55Z</time>
      </trkpt>
      <trkpt lat="47.42456" lon="6.55198">
        <ele>293.814</ele>
        <time>2015-10-03T09:59:56Z</time>
      </trkpt>
      <trkpt lat="47.42456" lon="6.55193">
        <ele>292.994</ele>
        <time>2015-10-03T09:59:57Z</time>
      </trkpt>
      <trkpt lat="47.42457" lon="6.55187">
        <ele>293.501</ele>
        <time>2015-10-03T09:59:58Z</time>
      </trkpt>
      <trkpt lat="47.4246" lon="6.55184">
        <ele>295.078</ele>
        <time>2015-10-03T09:59:59Z</time>
      </trkpt>
      <trkpt lat="47.42461" lon="6.55178">
        <ele>295.764</ele>
        <time>2015-10-03T10:00:00Z</time>
      </trkpt>
      <trkpt lat="47.42463" lon="6.55173">
        <ele>296.322</ele>
        <time>2015-10-03T10:00:01Z</time>
      </trkpt>
      <trkpt lat="47.42464" lon="6.55167">
        <ele>296.857</ele>
        <time>2015-10-03T10:00:02Z</time>
      </trkpt>
      <trkpt lat="47.42465" lon="6.55161">
        <ele>297.181</ele>
        <time>2015-10-03T10:00:03Z</time>
      </trkpt>
      <trkpt lat="47.42467" lon="6.55155">
        <ele>297.167</ele>
        <time>2015-10-03T10:00:04Z</time>
      </trkpt>
      <trkpt lat="47.42468" lon="6.55149">
        <ele>298.031</ele>
        <time>2015-10-03T10:00:05Z</time>
      </trkpt>
      <trkpt lat="47.42469" lon="6.55143">
        <ele>298.202</ele>
        <time>2015-10-03T10:00:06Z</time>
      </trkpt>
      <trkpt lat="47.4247" lon="6.55137">
        <ele>298.216</ele>
        <time>2015-10-03T10:00:07Z</time>
      </trkpt>
      <trkpt lat="47.42472" lon="6.55131">
        <ele>297.985</ele>
        <time>2015-10-03T10:00:08Z</time>
      </trkpt>
      <trkpt lat="47.42473" lon="6.55125">
        <ele>297.536</ele>
        <time>2015-10-03T10:00:09Z</time>
      </trkpt>
      <trkpt lat="47.42474" lon="6.55118">
        <ele>298.024</ele>
        <time>2015-10-03T10:00:10Z</time>
      </trkpt>
      <trkpt lat="47.42475" lon="6.55112">
        <ele>297.207</ele>
        <time>2015-10-03T10:00:11Z</time>
      </trkpt>
      <trkpt lat="47.42476" lon="6.55105">
        <ele>296.338</ele>
        <time>2015-10-03T10:00:12Z</time>
      </trkpt>
      <trkpt lat="47.42477" lon="6.55098">
        <ele>295.657</ele>
        <time>2015-10-03T10:00:13Z</time>
      </trkpt>
      <trkpt lat="47.42479" lon="6.55091">
        <ele>293.948</ele>
        <time>2015-10-03T10:00:14Z</time>
      </trkpt>
      <trkpt lat="47.4248" lon="6.55084">
        <ele>294.339</ele>
        <time>2015-10-03T10:00:15Z</time>
      </trkpt>
      <trkpt lat="47.42482" lon="6.55079">
        <ele>295.448</ele>
        <time>2015-10-03T10:00:16Z</time>
      </trkpt>
      <trkpt lat="47.42484" lon="6.55073">
        <ele>294.718</ele>
        <time>2015-10-03T10:00:17Z</time>
      </trkpt>
      <trkpt lat="47.42487" lon="6.55068">
        <ele>295.891</ele>
        <time>2015-10-03T10:00:18Z</time>
      </trkpt>
      <trkpt lat="47.42489" lon="6.55063">
        <ele>295.462</ele>
        <time>2015-10-03T10:00:19Z</time>
      </trkpt>
      <trkpt lat="47.42491" lon="6.55058">
        <ele>294.496</ele>
        <time>2015-10-03T10:00:20Z</time>
      </trkpt>
      <trkpt lat="47.42493" lon="6.55055">
        <ele>294.67</ele>
        <time>2015-10-03T10:00:21Z</time>
      </trkpt>
      <trkpt lat="47.42495" lon="6.55051">
        <ele>294.458</ele>
        <time>2015-10-03T10:00:22Z</time>
      </trkpt>
      <trkpt lat="47.42497" lon="6.55048">
        <ele>295.963</ele>
        <time>2015-10-03T10:00:23Z</time>
      </trkpt>
      <trkpt lat="47.42499" lon="6.55044">
        <ele>293.761</ele>
        <time>2015-10-03T10:00:24Z</time>
      </trkpt>
      <trkpt lat="47.42501" lon="6.55039">
        <ele>292.335</ele>
        <time>2015-10-03T10:00:25Z</time>
      </trkpt>
      <trkpt lat="47.42504" lon="6.55035">
        <ele>292.341</ele>
        <time>2015-10-03T10:00:26Z</time>
      </trkpt>
      <trkpt lat="47.4251" lon="6.55028">
        <ele>292.634</ele>
        <time>2015-10-03T10:00:27Z</time>
      </trkpt>
      <trkpt lat="47.42513" lon="6.55022">
        <ele>293.717</ele>
        <time>2015-10-03T10:00:28Z</time>
      </trkpt>
      <trkpt lat="47.42516" lon="6.55017">
        <ele>292.941</ele>
        <time>2015-10-03T10:00:29Z</time>
      </trkpt>
      <trkpt lat="47.4252" lon="6.55012">
        <ele>293.623</ele>
        <time>2015-10-03T10:00:30Z</time>
      </trkpt>
      <trkpt lat="47.42522" lon="6.55008">
        <ele>288.271</ele>
        <time>2015-10-03T10:00:31Z</time>
      </trkpt>
      <trkpt lat="47.42526" lon="6.55003">
        <ele>288.583</ele>
        <time>2015-10-03T10:00:32Z</time>
      </trkpt>
      <trkpt lat="47.4253" lon="6.54998">
        <ele>288.92</ele>
        <time>2015-10-03T10:00:33Z</time>
      </trkpt>
      <trkpt lat="47.42533" lon="6.54994">
        <ele>290.172</ele>
        <time>2015-10-03T10:00:34Z</time>
      </trkpt>
      <trkpt lat="47.42537" lon="6.54988">
        <ele>290.015</ele>
        <time>2015-10-03T10:00:35Z</time>
      </trkpt>
      <trkpt lat="47.42541" lon="6.54983">
        <ele>288.85</ele>
        <time>2015-10-03T10:00:36Z</time>
      </trkpt>
      <trkpt lat="47.42543" lon="6.54983">
        <ele>288.015</ele>
        <time>2015-10-03T10:00:37Z</time>
      </trkpt>
      <trkpt lat="47.42547" lon="6.54979">
        <ele>288.489</ele>
        <time>2015-10-03T10:00:38Z</time>
      </trkpt>
      <trkpt lat="47.42551" lon="6.54975">
        <ele>289.073</ele>
        <time>2015-10-03T10:00:39Z</time>
      </trkpt>
      <trkpt lat="47.42556" lon="6.54971">
        <ele>290.218</ele>
        <time>2015-10-03T10:00:40Z</time>
      </trkpt>
      <trkpt lat="47.4256" lon="6.54966">
        <ele>289.554</ele>
        <time>2015-10-03T10:00:41Z</time>
      </trkpt>
      <trkpt lat="47.42562" lon="6.54967">
        <ele>289.982</ele>
        <time>2015-10-03T10:00:42Z</time>
      </trkpt>
      <trkpt lat="47.42565" lon="6.54967">
        <ele>291.901</ele>
        <time>2015-10-03T10:00:43Z</time>
      </trkpt>
      <trkpt lat="47.42569" lon="6.54962">
        <ele>292.325</ele>
        <time>2015-10-03T10:00:44Z</time>
      </trkpt>
      <trkpt lat="47.42574" lon="6.54958">
        <ele>292.65</ele>
        <time>2015-10-03T10:00:45Z</time>
      </trkpt>
      <trkpt lat="47.42579" lon="6.54952">
        <ele>289.874</ele>
        <time>2015-10-03T10:00:46Z</time>
      </trkpt>
      <trkpt lat="47.42583" lon="6.54949">
        <ele>291.19</ele>
        <time>2015-10-03T10:00:47Z</time>
      </trkpt>
      <trkpt lat="47.42588" lon="6.54949">
        <ele>292.679</ele>
        <time>2015-10-03T10:00:48Z</time>
      </trkpt>
      <trkpt lat="47.42591" lon="6.54944">
        <ele>292.265</ele>
        <time>2015-10-03T10:00:49Z</time>
      </trkpt>
      <trkpt lat="47.42595" lon="6.54941">
        <ele>290.369</ele>
        <time>2015-10-03T10:00:50Z</time>
      </trkpt>
      <trkpt lat="47.426" lon="6.54936">
        <ele>289.328</ele>
        <time>2015-10-03T10:00:51Z</time>
      </trkpt>
      <trkpt lat="47.42604" lon="6.54933">
        <ele>289.417</ele>
        <time>2015-10-03T10:00:52Z</time>
      </trkpt>
      <trkpt lat="47.42607" lon="6.5493">
        <ele>289.024</ele>
        <time>2015-10-03T10:00:53Z</time>
      </trkpt>
      <trkpt lat="47.42612" lon="6.54926">
        <ele>288.535</ele>
        <time>2015-10-03T10:00:54Z</time>
      </trkpt>
      <trkpt lat="47.42617" lon="6.54921">
        <ele>288.55</ele>
        <time>2015-10-03T10:00:55Z</time>
      </trkpt>
      <trkpt lat="47.42621" lon="6.5491">
        <ele>284.841</ele>
        <time>2015-10-03T10:00:56Z</time>
      </trkpt>
      <trkpt lat="47.42625" lon="6.54905">
        <ele>285.663</ele>
        <time>2015-10-03T10:00:57Z</time>
      </trkpt>
      <trkpt lat="47.42627" lon="6.54899">
        <ele>286.511</ele>
        <time>2015-10-03T10:00:58Z</time>
      </trkpt>
      <trkpt lat="47.4263" lon="6.54893">
        <ele>286.409</ele>
        <time>2015-10-03T10:00:59Z</time>
      </trkpt>
      <trkpt lat="47.42634" lon="6.54885">
        <ele>286.303</ele>
        <time>2015-10-03T10:01:00Z</time>
      </trkpt>
      <trkpt lat="47.42636" lon="6.54879">
        <ele>287.048</ele>
        <time>2015-10-03T10:01:01Z</time>
      </trkpt>
      <trkpt lat="47.42638" lon="6.54872">
        <ele>287.687</ele>
        <time>2015-10-03T10:01:02Z</time>
      </trkpt>
      <trkpt lat="47.42641" lon="6.54865">
        <ele>287.971</ele>
        <time>2015-10-03T10:01:03Z</time>
      </trkpt>
      <trkpt lat="47.42642" lon="6.54858">
        <ele>288.477</ele>
        <time>2015-10-03T10:01:04Z</time>
      </trkpt>
      <trkpt lat="47.42643" lon="6.54852">
        <ele>289.517</ele>
        <time>2015-10-03T10:01:05Z</time>
      </trkpt>
      <trkpt lat="47.42644" lon="6.54846">
        <ele>288.944</ele>
        <time>2015-10-03T10:01:06Z</time>
      </trkpt>
      <trkpt lat="47.42646" lon="6.54841">
        <ele>288.883</ele>
        <time>2015-10-03T10:01:07Z</time>
      </trkpt>
      <trkpt lat="47.42649" lon="6.54833">
        <ele>288.419</ele>
        <time>2015-10-03T10:01:08Z</time>
      </trkpt>
      <trkpt lat="47.42651" lon="6.54826">
        <ele>288.232</ele>
        <time>2015-10-03T10:01:09Z</time>
      </trkpt>
      <trkpt lat="47.42653" lon="6.54818">
        <ele>289.146</ele>
        <time>2015-10-03T10:01:10Z</time>
      </trkpt>
      <trkpt lat="47.42655" lon="6.54812">
        <ele>288.855</ele>
        <time>2015-10-03T10:01:11Z</time>
      </trkpt>
      <trkpt lat="47.42656" lon="6.54804">
        <ele>288.147</ele>
        <time>2015-10-03T10:01:12Z</time>
      </trkpt>
      <trkpt lat="47.42658" lon="6.54796">
        <ele>287.211</ele>
        <time>2015-10-03T10:01:13Z</time>
      </trkpt>
      <trkpt lat="47.42659" lon="6.54789">
        <ele>285.372</ele>
        <time>2015-10-03T10:01:14Z</time>
      </trkpt>
      <trkpt lat="47.42661" lon="6.54784">
        <ele>285.361</ele>
        <time>2015-10-03T10:01:15Z</time>
      </trkpt>
      <trkpt lat="47.42663" lon="6.54778">
        <ele>285.846</ele>
        <time>2015-10-03T10:01:16Z</time>
      </trkpt>
      <trkpt lat="47.42663" lon="6.54771">
        <ele>285.555</ele>
        <time>2015-10-03T10:01:17Z</time>
      </trkpt>
      <trkpt lat="47.42665" lon="6.54764">
        <ele>286.246</ele>
        <time>2015-10-03T10:01:18Z</time>
      </trkpt>
      <trkpt lat="47.42666" lon="6.54758">
        <ele>286.242</ele>
        <time>2015-10-03T10:01:19Z</time>
      </trkpt>
      <trkpt lat="47.42665" lon="6.54752">
        <ele>285.259</ele>
        <time>2015-10-03T10:01:20Z</time>
      </trkpt>
      <trkpt lat="47.42666" lon="6.54746">
        <ele>285.019</ele>
        <time>2015-10-03T10:01:21Z</time>
      </trkpt>
      <trkpt lat="47.42668" lon="6.54738">
        <ele>284.847</ele>
        <time>2015-10-03T10:01:22Z</time>
      </trkpt>
      <trkpt lat="47.4267" lon="6.54733">
        <ele>285.555</ele>
        <time>2015-10-03T10:01:23Z</time>
      </trkpt>
      <trkpt lat="47.42672" lon="6.54724">
        <ele>283.525</ele>
        <time>2015-10-03T10:01:24Z</time>
      </trkpt>
      <trkpt lat="47.42675" lon="6.54718">
        <ele>283.984</ele>
        <time>2015-10-03T10:01:25Z</time>
      </trkpt>
      <trkpt lat="47.42676" lon="6.54712">
        <ele>284.067</ele>
        <time>2015-10-03T10:01:26Z</time>
      </trkpt>
      <trkpt lat="47.42678" lon="6.54706">
        <ele>283.118</ele>
        <time>2015-10-03T10:01:27Z</time>
      </trkpt>
      <trkpt lat="47.42678" lon="6.547">
        <ele>282.596</ele>
        <time>2015-10-03T10:01:28Z</time>
      </trkpt>
      <trkpt lat="47.4268" lon="6.54695">
        <ele>283.794</ele>
        <time>2015-10-03T10:01:29Z</time>
      </trkpt>
      <trkpt lat="47.42681" lon="6.54688">
        <ele>284.966</ele>
        <time>2015-10-03T10:01:30Z</time>
      </trkpt>
      <trkpt lat="47.42683" lon="6.5468">
        <ele>285.578</ele>
        <time>2015-10-03T10:01:31Z</time>
      </trkpt>
      <trkpt lat="47.42685" lon="6.54675">
        <ele>285.676</ele>
        <time>2015-10-03T10:01:32Z</time>
      </trkpt>
      <trkpt lat="47.42686" lon="6.5467">
        <ele>287.051</ele>
        <time>2015-10-03T10:01:33Z</time>
      </trkpt>
      <trkpt lat="47.42688" lon="6.54664">
        <ele>286.491</ele>
        <time>2015-10-03T10:01:34Z</time>
      </trkpt>
      <trkpt lat="47.42689" lon="6.54658">
        <ele>285.895</ele>
        <time>2015-10-03T10:01:35Z</time>
      </trkpt>
      <trkpt lat="47.42692" lon="6.54653">
        <ele>285.848</ele>
        <time>2015-10-03T10:01:36Z</time>
      </trkpt>
      <trkpt lat="47.42694" lon="6.54649">
        <ele>285.919</ele>
        <time>2015-10-03T10:01:37Z</time>
      </trkpt>
      <trkpt lat="47.42696" lon="6.54642">
        <ele>286.45</ele>
        <time>2015-10-03T10:01:38Z</time>
      </trkpt>
      <trkpt lat="47.42698" lon="6.54635">
        <ele>286.486</ele>
        <time>2015-10-03T10:01:39Z</time>
      </trkpt>
      <trkpt lat="47.427" lon="6.5463">
        <ele>287.434</ele>
        <time>2015-10-03T10:01:40Z</time>
      </trkpt>
      <trkpt lat="47.42701" lon="6.54624">
        <ele>287.699</ele>
        <time>2015-10-03T10:01:41Z</time>
      </trkpt>
      <trkpt lat="47.42703" lon="6.54619">
        <ele>288.216</ele>
        <time>2015-10-03T10:01:42Z</time>
      </trkpt>
      <trkpt lat="47.42705" lon="6.54614">
        <ele>288.816</ele>
        <time>2015-10-03T10:01:43Z</time>
      </trkpt>
      <trkpt lat="47.42707" lon="6.5461">
        <ele>289.193</ele>
        <time>2015-10-03T10:01:44Z</time>
      </trkpt>
      <trkpt lat="47.42709" lon="6.54604">
        <ele>288.363</ele>
        <time>2015-10-03T10:01:45Z</time>
      </trkpt>
      <trkpt lat="47.42712" lon="6.54599">
        <ele>288.503</ele>
        <time>2015-10-03T10:01:46Z</time>
      </trkpt>
      <trkpt lat="47.42715" lon="6.54594">
        <ele>289.394</ele>
        <time>2015-10-03T10:01:47Z</time>
      </trkpt>
      <trkpt lat="47.42716" lon="6.54588">
        <ele>291.099</ele>
        <time>2015-10-03T10:01:48Z</time>
      </trkpt>
      <trkpt lat="47.42718" lon="6.54581">
        <ele>289.475</ele>
        <time>2015-10-03T10:01:49Z</time>
      </trkpt>
      <trkpt lat="47.4272" lon="6.54575">
        <ele>289.751</ele>
        <time>2015-10-03T10:01:50Z</time>
      </trkpt>
      <trkpt lat="47.42721" lon="6.54568">
        <ele>291.21</ele>
        <time>2015-10-03T10:01:51Z</time>
      </trkpt>
      <trkpt lat="47.42723" lon="6.5456">
        <ele>292.087</ele>
        <time>2015-10-03T10:01:52Z</time>
      </trkpt>
      <trkpt lat="47.42724" lon="6.54555">
        <ele>292.742</ele>
        <time>2015-10-03T10:01:53Z</time>
      </trkpt>
      <trkpt lat="47.42722" lon="6.54548">
        <ele>292.144</ele>
        <time>2015-10-03T10:01:54Z</time>
      </trkpt>
      <trkpt lat="47.42723" lon="6.54537">
        <ele>292.229</ele>
        <time>2015-10-03T10:01:55Z</time>
      </trkpt>
      <trkpt lat="47.42725" lon="6.54531">
        <ele>292.093</ele>
        <time>2015-10-03T10:01:56Z</time>
      </trkpt>
      <trkpt lat="47.42727" lon="6.54527">
        <ele>293.478</ele>
        <time>2015-10-03T10:01:57Z</time>
      </trkpt>
      <trkpt lat="47.42728" lon="6.54521">
        <ele>292.732</ele>
        <time>2015-10-03T10:01:58Z</time>
      </trkpt>
      <trkpt lat="47.4273" lon="6.54515">
        <ele>292.697</ele>
        <time>2015-10-03T10:01:59Z</time>
      </trkpt>
      <trkpt lat="47.42732" lon="6.54509">
        <ele>292.571</ele>
        <time>2015-10-03T10:02:00Z</time>
      </trkpt>
      <trkpt lat="47.42734" lon="6.54506">
        <ele>291.963</ele>
        <time>2015-10-03T10:02:01Z</time>
      </trkpt>
      <trkpt lat="47.42736" lon="6.54499">
        <ele>291.556</ele>
        <time>2015-10-03T10:02:02Z</time>
      </trkpt>
      <trkpt lat="47.42737" lon="6.54493">
        <ele>292.376</ele>
        <time>2015-10-03T10:02:03Z</time>
      </trkpt>
      <trkpt lat="47.42738" lon="6.54487">
        <ele>292.818</ele>
        <time>2015-10-03T10:02:04Z</time>
      </trkpt>
      <trkpt lat="47.4274" lon="6.5448">
        <ele>292.728</ele>
        <time>2015-10-03T10:02:05Z</time>
      </trkpt>
      <trkpt lat="47.4274" lon="6.54474">
        <ele>292.156</ele>
        <time>2015-10-03T10:02:06Z</time>
      </trkpt>
      <trkpt lat="47.42742" lon="6.54468">
        <ele>292.331</ele>
        <time>2015-10-03T10:02:07Z</time>
      </trkpt>
      <trkpt lat="47.42745" lon="6.54462">
        <ele>293.026</ele>
        <time>2015-10-03T10:02:08Z</time>
      </trkpt>
      <trkpt lat="47.42746" lon="6.54456">
        <ele>292.892</ele>
        <time>2015-10-03T10:02:09Z</time>
      </trkpt>
      <trkpt lat="47.42747" lon="6.5445">
        <ele>292.404</ele>
        <time>2015-10-03T10:02:10Z</time>
      </trkpt>
      <trkpt lat="47.4275" lon="6.54444">
        <ele>292.753</ele>
        <time>2015-10-03T10:02:11Z</time>
      </trkpt>
      <trkpt lat="47.42752" lon="6.54438">
        <ele>292.425</ele>
        <time>2015-10-03T10:02:12Z</time>
      </trkpt>
      <trkpt lat="47.42753" lon="6.54432">
        <ele>293.525</ele>
        <time>2015-10-03T10:02:13Z</time>
      </trkpt>
      <trkpt lat="47.42755" lon="6.54426">
        <ele>293.919</ele>
        <time>2015-10-03T10:02:14Z</time>
      </trkpt>
      <trkpt lat="47.42758" lon="6.54421">
        <ele>295.233</ele>
        <time>2015-10-03T10:02:15Z</time>
      </trkpt>
      <trkpt lat="47.42757" lon="6.54414">
        <ele>293.337</ele>
        <time>2015-10-03T10:02:16Z</time>
      </trkpt>
      <trkpt lat="47.42758" lon="6.54409">
        <ele>293.204</ele>
        <time>2015-10-03T10:02:17Z</time>
      </trkpt>
      <trkpt lat="47.42759" lon="6.54401">
        <ele>292.471</ele>
        <time>2015-10-03T10:02:18Z</time>
      </trkpt>
      <trkpt lat="47.4276" lon="6.54395">
        <ele>293.465</ele>
        <time>2015-10-03T10:02:19Z</time>
      </trkpt>
      <trkpt lat="47.42762" lon="6.54386">
        <ele>293.146</ele>
        <time>2015-10-03T10:02:20Z</time>
      </trkpt>
      <trkpt lat="47.42764" lon="6.54381">
        <ele>293.471</ele>
        <time>2015-10-03T10:02:21Z</time>
      </trkpt>
      <trkpt lat="47.42767" lon="6.54374">
        <ele>292.808</ele>
        <time>2015-10-03T10:02:22Z</time>
      </trkpt>
      <trkpt lat="47.42769" lon="6.54369">
        <ele>293.105</ele>
        <time>2015-10-03T10:02:23Z</time>
      </trkpt>
      <trkpt lat="47.42771" lon="6.54361">
        <ele>292.295</ele>
        <time>2015-10-03T10:02:24Z</time>
      </trkpt>
      <trkpt lat="47.42771" lon="6.54356">
        <ele>291.95</ele>
        <time>2015-10-03T10:02:25Z</time>
      </trkpt>
      <trkpt lat="47.42776" lon="6.54351">
        <ele>291.885</ele>
        <time>2015-10-03T10:02:26Z</time>
      </trkpt>
      <trkpt lat="47.42778" lon="6.54345">
        <ele>292.898</ele>
        <time>2015-10-03T10:02:27Z</time>
      </trkpt>
      <trkpt lat="47.42782" lon="6.54339">
        <ele>292.94</ele>
        <time>2015-10-03T10:02:28Z</time>
      </trkpt>
      <trkpt lat="47.42783" lon="6.54332">
        <ele>292.354</ele>
        <time>2015-10-03T10:02:29Z</time>
      </trkpt>
      <trkpt lat="47.42783" lon="6.54323">
        <ele>292.096</ele>
        <time>2015-10-03T10:02:30Z</time>
      </trkpt>
      <trkpt lat="47.42785" lon="6.54319">
        <ele>293.516</ele>
        <time>2015-10-03T10:02:31Z</time>
      </trkpt>
      <trkpt lat="47.42788" lon="6.54313">
        <ele>293.707</ele>
        <time>2015-10-03T10:02:32Z</time>
      </trkpt>
      <trkpt lat="47.4279" lon="6.54307">
        <ele>293.269</ele>
        <time>2015-10-03T10:02:33Z</time>
      </trkpt>
      <trkpt lat="47.42792" lon="6.543">
        <ele>293.171</ele>
        <time>2015-10-03T10:02:34Z</time>
      </trkpt>
      <trkpt lat="47.42793" lon="6.54293">
        <ele>291.762</ele>
        <time>2015-10-03T10:02:35Z</time>
      </trkpt>
      <trkpt lat="47.42794" lon="6.54286">
        <ele>291.814</ele>
        <time>2015-10-03T10:02:36Z</time>
      </trkpt>
      <trkpt lat="47.42798" lon="6.54281">
        <ele>292.25</ele>
        <time>2015-10-03T10:02:37Z</time>
      </trkpt>
      <trkpt lat="47.42799" lon="6.54275">
        <ele>291.145</ele>
        <time>2015-10-03T10:02:38Z</time>
      </trkpt>
      <trkpt lat="47.42802" lon="6.54269">
        <ele>292.324</ele>
        <time>2015-10-03T10:02:39Z</time>
      </trkpt>
      <trkpt lat="47.42802" lon="6.54262">
        <ele>293.158</ele>
        <time>2015-10-03T10:02:40Z</time>
      </trkpt>
      <trkpt lat="47.42804" lon="6.54256">
        <ele>293.524</ele>
        <time>2015-10-03T10:02:41Z</time>
      </trkpt>
      <trkpt lat="47.42805" lon="6.54251">
        <ele>293</ele>
        <time>2015-10-03T10:02:42Z</time>
      </trkpt>
      <trkpt lat="47.42807" lon="6.54244">
        <ele>291.412</ele>
        <time>2015-10-03T10:02:43Z</time>
      </trkpt>
      <trkpt lat="47.42809" lon="6.54238">
        <ele>291.392</ele>
        <time>2015-10-03T10:02:44Z</time>
      </trkpt>
      <trkpt lat="47.42811" lon="6.54233">
        <ele>291.288</ele>
        <time>2015-10-03T10:02:45Z</time>
      </trkpt>
      <trkpt lat="47.42812" lon="6.54227">
        <ele>291.901</ele>
        <time>2015-10-03T10:02:46Z</time>
      </trkpt>
      <trkpt lat="47.42814" lon="6.5422">
        <ele>291.355</ele>
        <time>2015-10-03T10:02:47Z</time>
      </trkpt>
      <trkpt lat="47.42816" lon="6.54215">
        <ele>292.879</ele>
        <time>2015-10-03T10:02:48Z</time>
      </trkpt>
      <trkpt lat="47.42818" lon="6.54209">
        <ele>292.808</ele>
        <time>2015-10-03T10:02:49Z</time>
      </trkpt>
      <trkpt lat="47.4282" lon="6.54201">
        <ele>292.126</ele>
        <time>2015-10-03T10:02:50Z</time>
      </trkpt>
      <trkpt lat="47.42821" lon="6.54195">
        <ele>291.209</ele>
        <time>2015-10-03T10:02:51Z</time>
      </trkpt>
      <trkpt lat="47.42822" lon="6.54188">
        <ele>291.539</ele>
        <time>2015-10-03T10:02:52Z</time>
      </trkpt>
      <trkpt lat="47.42823" lon="6.54183">
        <ele>292.018</ele>
        <time>2015-10-03T10:02:53Z</time>
      </trkpt>
      <trkpt lat="47.42825" lon="6.54176">
        <ele>292.41</ele>
        <time>2015-10-03T10:02:54Z</time>
      </trkpt>
      <trkpt lat="47.42826" lon="6.54169">
        <ele>292.594</ele>
        <time>2015-10-03T10:02:55Z</time>
      </trkpt>
      <trkpt lat="47.42828" lon="6.54163">
        <ele>292.899</ele>
        <time>2015-10-03T10:02:56Z</time>
      </trkpt>
      <trkpt lat="47.42829" lon="6.54157">
        <ele>293.292</ele>
        <time>2015-10-03T10:02:57Z</time>
      </trkpt>
      <trkpt lat="47.4283" lon="6.54151">
        <ele>293.045</ele>
        <time>2015-10-03T10:02:58Z</time>
      </trkpt>
      <trkpt lat="47.42832" lon="6.54143">
        <ele>291.605</ele>
        <time>2015-10-03T10:02:59Z</time>
      </trkpt>
      <trkpt lat="47.42833" lon="6.54137">
        <ele>290.716</ele>
        <time>2015-10-03T10:03:00Z</time>
      </trkpt>
      <trkpt lat="47.42836" lon="6.54133">
        <ele>290.085</ele>
        <time>2015-10-03T10:03:01Z</time>
      </trkpt>
      <trkpt lat="47.42837" lon="6.54127">
        <ele>290.19</ele>
        <time>2015-10-03T10:03:02Z</time>
      </trkpt>
      <trkpt lat="47.42838" lon="6.54119">
        <ele>290.295</ele>
        <time>2015-10-03T10:03:03Z</time>
      </trkpt>
      <trkpt lat="47.4284" lon="6.54115">
        <ele>288.664</ele>
        <time>2015-10-03T10:03:04Z</time>
      </trkpt>
      <trkpt lat="47.42841" lon="6.54107">
        <ele>288.294</ele>
        <time>2015-10-03T10:03:05Z</time>
      </trkpt>
      <trkpt lat="47.42843" lon="6.54103">
        <ele>289.175</ele>
        <time>2015-10-03T10:03:06Z</time>
      </trkpt>
      <trkpt lat="47.42845" lon="6.54095">
        <ele>290.143</ele>
        <time>2015-10-03T10:03:07Z</time>
      </trkpt>
      <trkpt lat="47.42846" lon="6.54089">
        <ele>290.017</ele>
        <time>2015-10-03T10:03:08Z</time>
      </trkpt>
      <trkpt lat="47.42844" lon="6.54081">
        <ele>291.321</ele>
        <time>2015-10-03T10:03:09Z</time>
      </trkpt>
      <trkpt lat="47.42847" lon="6.54075">
        <ele>290.621</ele>
        <time>2015-10-03T10:03:10Z</time>
      </trkpt>
      <trkpt lat="47.42847" lon="6.54067">
        <ele>290.454</ele>
        <time>2015-10-03T10:03:11Z</time>
      </trkpt>
      <trkpt lat="47.4285" lon="6.5406">
        <ele>290.081</ele>
        <time>2015-10-03T10:03:12Z</time>
      </trkpt>
      <trkpt lat="47.42852" lon="6.54055">
        <ele>289.973</ele>
        <time>2015-10-03T10:03:13Z</time>
      </trkpt>
      <trkpt lat="47.42855" lon="6.54049">
        <ele>289.527</ele>
        <time>2015-10-03T10:03:14Z</time>
      </trkpt>
      <trkpt lat="47.42857" lon="6.54043">
        <ele>289.919</ele>
        <time>2015-10-03T10:03:15Z</time>
      </trkpt>
      <trkpt lat="47.4286" lon="6.54038">
        <ele>290.503</ele>
        <time>2015-10-03T10:03:16Z</time>
      </trkpt>
      <trkpt lat="47.42862" lon="6.54032">
        <ele>290.883</ele>
        <time>2015-10-03T10:03:17Z</time>
      </trkpt>
      <trkpt lat="47.42864" lon="6.54024">
        <ele>291.685</ele>
        <time>2015-10-03T10:03:18Z</time>
      </trkpt>
      <trkpt lat="47.42866" lon="6.54019">
        <ele>291.496</ele>
        <time>2015-10-03T10:03:19Z</time>
      </trkpt>
      <trkpt lat="47.42869" lon="6.54013">
        <ele>292.306</ele>
        <time>2015-10-03T10:03:20Z</time>
      </trkpt>
      <trkpt lat="47.42868" lon="6.54004">
        <ele>292.707</ele>
        <time>2015-10-03T10:03:21Z</time>
      </trkpt>
      <trkpt lat="47.4287" lon="6.53998">
        <ele>292.462</ele>
        <time>2015-10-03T10:03:22Z</time>
      </trkpt>
      <trkpt lat="47.42872" lon="6.53992">
        <ele>292.595</ele>
        <time>2015-10-03T10:03:23Z</time>
      </trkpt>
      <trkpt lat="47.42874" lon="6.53986">
        <ele>292.113</ele>
        <time>2015-10-03T10:03:24Z</time>
      </trkpt>
      <trkpt lat="47.42877" lon="6.53981">
        <ele>291.483</ele>
        <time>2015-10-03T10:03:25Z</time>
      </trkpt>
      <trkpt lat="47.42879" lon="6.53977">
        <ele>291.527</ele>
        <time>2015-10-03T10:03:26Z</time>
      </trkpt>
      <trkpt lat="47.42882" lon="6.53972">
        <ele>291.39</ele>
        <time>2015-10-03T10:03:27Z</time>
      </trkpt>
      <trkpt lat="47.42887" lon="6.5397">
        <ele>290.424</ele>
        <time>2015-10-03T10:03:28Z</time>
      </trkpt>
      <trkpt lat="47.4289" lon="6.53963">
        <ele>289.837</ele>
        <time>2015-10-03T10:03:29Z</time>
      </trkpt>
      <trkpt lat="47.42893" lon="6.53956">
        <ele>291.294</ele>
        <time>2015-10-03T10:03:30Z</time>
      </trkpt>
      <trkpt lat="47.42896" lon="6.53951">
        <ele>290.639</ele>
        <time>2015-10-03T10:03:31Z</time>
      </trkpt>
      <trkpt lat="47.42899" lon="6.53945">
        <ele>290.139</ele>
        <time>2015-10-03T10:03:32Z</time>
      </trkpt>
      <trkpt lat="47.42902" lon="6.5394">
        <ele>290.199</ele>
        <time>2015-10-03T10:03:33Z</time>
      </trkpt>
      <trkpt lat="47.42905" lon="6.53935">
        <ele>289.171</ele>
        <time>2015-10-03T10:03:34Z</time>
      </trkpt>
      <trkpt lat="47.42906" lon="6.53931">
        <ele>289.939</ele>
        <time>2015-10-03T10:03:35Z</time>
      </trkpt>
      <trkpt lat="47.4291" lon="6.53926">
        <ele>289.399</ele>
        <time>2015-10-03T10:03:36Z</time>
      </trkpt>
      <trkpt lat="47.42912" lon="6.53921">
        <ele>289.143</ele>
        <time>2015-10-03T10:03:37Z</time>
      </trkpt>
      <trkpt lat="47.42915" lon="6.53914">
        <ele>290.185</ele>
        <time>2015-10-03T10:03:38Z</time>
      </trkpt>
      <trkpt lat="47.42918" lon="6.53909">
        <ele>290.058</ele>
        <time>2015-10-03T10:03:39Z</time>
      </trkpt>
      <trkpt lat="47.42921" lon="6.53904">
        <ele>289.278</ele>
        <time>2015-10-03T10:03:40Z</time>
      </trkpt>
      <trkpt lat="47.42924" lon="6.53901">
        <ele>290.479</ele>
        <time>2015-10-03T10:03:41Z</time>
      </trkpt>
      <trkpt lat="47.42926" lon="6.53895">
        <ele>290.609</ele>
        <time>2015-10-03T10:03:42Z</time>
      </trkpt>
      <trkpt lat="47.42929" lon="6.53891">
        <ele>289.921</ele>
        <time>2015-10-03T10:03:43Z</time>
      </trkpt>
      <trkpt lat="47.42932" lon="6.53884">
        <ele>290.097</ele>
        <time>2015-10-03T10:03:44Z</time>
      </trkpt>
      <trkpt lat="47.42934" lon="6.53879">
        <ele>291.105</ele>
        <time>2015-10-03T10:03:45Z</time>
      </trkpt>
      <trkpt lat="47.42936" lon="6.53872">
        <ele>291.657</ele>
        <time>2015-10-03T10:03:46Z</time>
      </trkpt>
      <trkpt lat="47.42939" lon="6.53862">
        <ele>288.842</ele>
        <time>2015-10-03T10:03:47Z</time>
      </trkpt>
      <trkpt lat="47.42941" lon="6.53855">
        <ele>289.561</ele>
        <time>2015-10-03T10:03:48Z</time>
      </trkpt>
      <trkpt lat="47.42944" lon="6.5385">
        <ele>289.537</ele>
        <time>2015-10-03T10:03:49Z</time>
      </trkpt>
      <trkpt lat="47.42945" lon="6.53844">
        <ele>289.665</ele>
        <time>2015-10-03T10:03:50Z</time>
      </trkpt>
      <trkpt lat="47.42948" lon="6.5384">
        <ele>288.969</ele>
        <time>2015-10-03T10:03:51Z</time>
      </trkpt>
      <trkpt lat="47.4295" lon="6.53834">
        <ele>288.516</ele>
        <time>2015-10-03T10:03:52Z</time>
      </trkpt>
      <trkpt lat="47.42953" lon="6.5383">
        <ele>289.247</ele>
        <time>2015-10-03T10:03:53Z</time>
      </trkpt>
      <trkpt lat="47.42956" lon="6.53827">
        <ele>290.478</ele>
        <time>2015-10-03T10:03:54Z</time>
      </trkpt>
      <trkpt lat="47.42959" lon="6.53823">
        <ele>290.511</ele>
        <time>2015-10-03T10:03:55Z</time>
      </trkpt>
      <trkpt lat="47.42962" lon="6.53818">
        <ele>290.573</ele>
        <time>2015-10-03T10:03:56Z</time>
      </trkpt>
      <trkpt lat="47.42965" lon="6.53813">
        <ele>291.653</ele>
        <time>2015-10-03T10:03:57Z</time>
      </trkpt>
      <trkpt lat="47.42967" lon="6.53809">
        <ele>292.199</ele>
        <time>2015-10-03T10:03:58Z</time>
      </trkpt>
      <trkpt lat="47.42971" lon="6.53804">
        <ele>292.107</ele>
        <time>2015-10-03T10:03:59Z</time>
      </trkpt>
      <trkpt lat="47.42974" lon="6.53797">
        <ele>292.354</ele>
        <time>2015-10-03T10:04:00Z</time>
      </trkpt>
      <trkpt lat="47.42976" lon="6.53792">
        <ele>291.835</ele>
        <time>2015-10-03T10:04:01Z</time>
      </trkpt>
      <trkpt lat="47.42979" lon="6.53787">
        <ele>292.347</ele>
        <time>2015-10-03T10:04:02Z</time>
      </trkpt>
      <trkpt lat="47.42981" lon="6.5378">
        <ele>292.581</ele>
        <time>2015-10-03T10:04:03Z</time>
      </trkpt>
      <trkpt lat="47.42984" lon="6.53774">
        <ele>292.249</ele>
        <time>2015-10-03T10:04:04Z</time>
      </trkpt>
      <trkpt lat="47.42987" lon="6.53768">
        <ele>292.166</ele>
        <time>2015-10-03T10:04:05Z</time>
      </trkpt>
      <trkpt lat="47.42989" lon="6.53763">
        <ele>293.087</ele>
        <time>2015-10-03T10:04:06Z</time>
      </trkpt>
      <trkpt lat="47.42991" lon="6.53757">
        <ele>292.94</ele>
        <time>2015-10-03T10:04:07Z</time>
      </trkpt>
      <trkpt lat="47.42993" lon="6.53752">
        <ele>293.199</ele>
        <time>2015-10-03T10:04:08Z</time>
      </trkpt>
      <trkpt lat="47.42996" lon="6.53748">
        <ele>293.185</ele>
        <time>2015-10-03T10:04:09Z</time>
      </trkpt>
      <trkpt lat="47.42999" lon="6.53743">
        <ele>292.98</ele>
        <time>2015-10-03T10:04:10Z</time>
      </trkpt>
      <trkpt lat="47.43003" lon="6.5374">
        <ele>293.445</ele>
        <time>2015-10-03T10:04:11Z</time>
      </trkpt>
      <trkpt lat="47.43006" lon="6.53734">
        <ele>294.409</ele>
        <time>2015-10-03T10:04:12Z</time>
      </trkpt>
      <trkpt lat="47.43009" lon="6.53732">
        <ele>294.925</ele>
        <time>2015-10-03T10:04:13Z</time>
      </trkpt>
      <trkpt lat="47.43012" lon="6.53726">
        <ele>294.528</ele>
        <time>2015-10-03T10:04:14Z</time>
      </trkpt>
      <trkpt lat="47.43016" lon="6.53722">
        <ele>293.969</ele>
        <time>2015-10-03T10:04:15Z</time>
      </trkpt>
      <trkpt lat="47.4302" lon="6.53719">
        <ele>295.145</ele>
        <time>2015-10-03T10:04:16Z</time>
      </trkpt>
      <trkpt lat="47.43022" lon="6.53714">
        <ele>294.297</ele>
        <time>2015-10-03T10:04:17Z</time>
      </trkpt>
      <trkpt lat="47.43025" lon="6.53708">
        <ele>295.175</ele>
        <time>2015-10-03T10:04:18Z</time>
      </trkpt>
      <trkpt lat="47.43028" lon="6.537">
        <ele>294.481</ele>
        <time>2015-10-03T10:04:19Z</time>
      </trkpt>
      <trkpt lat="47.43031" lon="6.53695">
        <ele>294.561</ele>
        <time>2015-10-03T10:04:20Z</time>
      </trkpt>
      <trkpt lat="47.43034" lon="6.53687">
        <ele>293.452</ele>
        <time>2015-10-03T10:04:21Z</time>
      </trkpt>
      <trkpt lat="47.43038" lon="6.53684">
        <ele>293.761</ele>
        <time>2015-10-03T10:04:22Z</time>
      </trkpt>
      <trkpt lat="47.43041" lon="6.53679">
        <ele>294.43</ele>
        <time>2015-10-03T10:04:23Z</time>
      </trkpt>
      <trkpt lat="47.43043" lon="6.53674">
        <ele>294.688</ele>
        <time>2015-10-03T10:04:24Z</time>
      </trkpt>
      <trkpt lat="47.43047" lon="6.53666">
        <ele>293.461</ele>
        <time>2015-10-03T10:04:25Z</time>
      </trkpt>
      <trkpt lat="47.43049" lon="6.53662">
        <ele>294.037</ele>
        <time>2015-10-03T10:04:26Z</time>
      </trkpt>
      <trkpt lat="47.43052" lon="6.53661">
        <ele>295.481</ele>
        <time>2015-10-03T10:04:27Z</time>
      </trkpt>
      <trkpt lat="47.43054" lon="6.53656">
        <ele>295.079</ele>
        <time>2015-10-03T10:04:28Z</time>
      </trkpt>
      <trkpt lat="47.43058" lon="6.53651">
        <ele>294.943</ele>
        <time>2015-10-03T10:04:29Z</time>
      </trkpt>
      <trkpt lat="47.4306" lon="6.53644">
        <ele>294.042</ele>
        <time>2015-10-03T10:04:30Z</time>
      </trkpt>
      <trkpt lat="47.43063" lon="6.53638">
        <ele>293.739</ele>
        <time>2015-10-03T10:04:31Z</time>
      </trkpt>
      <trkpt lat="47.43065" lon="6.53632">
        <ele>292.484</ele>
        <time>2015-10-03T10:04:32Z</time>
      </trkpt>
      <trkpt lat="47.43068" lon="6.53627">
        <ele>292.482</ele>
        <time>2015-10-03T10:04:33Z</time>
      </trkpt>
      <trkpt lat="47.43071" lon="6.53623">
        <ele>292.155</ele>
        <time>2015-10-03T10:04:34Z</time>
      </trkpt>
      <trkpt lat="47.43074" lon="6.53621">
        <ele>293.686</ele>
        <time>2015-10-03T10:04:35Z</time>
      </trkpt>
      <trkpt lat="47.43075" lon="6.53604">
        <ele>287.24</ele>
        <time>2015-10-03T10:04:36Z</time>
      </trkpt>
      <trkpt lat="47.43078" lon="6.53598">
        <ele>287.09</ele>
        <time>2015-10-03T10:04:37Z</time>
      </trkpt>
      <trkpt lat="47.4308" lon="6.53592">
        <ele>286.824</ele>
        <time>2015-10-03T10:04:38Z</time>
      </trkpt>
      <trkpt lat="47.43083" lon="6.53587">
        <ele>286.819</ele>
        <time>2015-10-03T10:04:39Z</time>
      </trkpt>
      <trkpt lat="47.43085" lon="6.53579">
        <ele>286.957</ele>
        <time>2015-10-03T10:04:40Z</time>
      </trkpt>
      <trkpt lat="47.43088" lon="6.53576">
        <ele>288.205</ele>
        <time>2015-10-03T10:04:41Z</time>
      </trkpt>
      <trkpt lat="47.43091" lon="6.53569">
        <ele>289.171</ele>
        <time>2015-10-03T10:04:42Z</time>
      </trkpt>
      <trkpt lat="47.43094" lon="6.53563">
        <ele>288.253</ele>
        <time>2015-10-03T10:04:43Z</time>
      </trkpt>
      <trkpt lat="47.43097" lon="6.53559">
        <ele>288.462</ele>
        <time>2015-10-03T10:04:44Z</time>
      </trkpt>
      <trkpt lat="47.431" lon="6.53555">
        <ele>288.957</ele>
        <time>2015-10-03T10:04:45Z</time>
      </trkpt>
      <trkpt lat="47.43103" lon="6.53547">
        <ele>288.798</ele>
        <time>2015-10-03T10:04:46Z</time>
      </trkpt>
      <trkpt lat="47.43105" lon="6.53541">
        <ele>288.467</ele>
        <time>2015-10-03T10:04:47Z</time>
      </trkpt>
      <trkpt lat="47.43107" lon="6.53538">
        <ele>289.895</ele>
        <time>2015-10-03T10:04:48Z</time>
      </trkpt>
      <trkpt lat="47.43111" lon="6.53534">
        <ele>290.355</ele>
        <time>2015-10-03T10:04:49Z</time>
      </trkpt>
      <trkpt lat="47.43115" lon="6.53531">
        <ele>290.38</ele>
        <time>2015-10-03T10:04:50Z</time>
      </trkpt>
      <trkpt lat="47.43118" lon="6.53527">
        <ele>289.97</ele>
        <time>2015-10-03T10:04:51Z</time>
      </trkpt>
      <trkpt lat="47.43121" lon="6.53523">
        <ele>290.217</ele>
        <time>2015-10-03T10:04:52Z</time>
      </trkpt>
      <trkpt lat="47.43123" lon="6.53517">
        <ele>290.098</ele>
        <time>2015-10-03T10:04:53Z</time>
      </trkpt>
      <trkpt lat="47.43127" lon="6.53509">
        <ele>289.456</ele>
        <time>2015-10-03T10:04:54Z</time>
      </trkpt>
      <trkpt lat="47.43129" lon="6.53504">
        <ele>290.382</ele>
        <time>2015-10-03T10:04:55Z</time>
      </trkpt>
      <trkpt lat="47.43132" lon="6.535">
        <ele>290.977</ele>
        <time>2015-10-03T10:04:56Z</time>
      </trkpt>
      <trkpt lat="47.43135" lon="6.53496">
        <ele>291.283</ele>
        <time>2015-10-03T10:04:57Z</time>
      </trkpt>
      <trkpt lat="47.43137" lon="6.53494">
        <ele>292.9</ele>
        <time>2015-10-03T10:04:58Z</time>
      </trkpt>
      <trkpt lat="47.4314" lon="6.53489">
        <ele>293.388</ele>
        <time>2015-10-03T10:04:59Z</time>
      </trkpt>
      <trkpt lat="47.43144" lon="6.53485">
        <ele>293.479</ele>
        <time>2015-10-03T10:05:00Z</time>
      </trkpt>
      <trkpt lat="47.43148" lon="6.53482">
        <ele>294.395</ele>
        <time>2015-10-03T10:05:01Z</time>
      </trkpt>
      <trkpt lat="47.43151" lon="6.53473">
        <ele>292.866</ele>
        <time>2015-10-03T10:05:02Z</time>
      </trkpt>
      <trkpt lat="47.43154" lon="6.53464">
        <ele>291.375</ele>
        <time>2015-10-03T10:05:03Z</time>
      </trkpt>
      <trkpt lat="47.43157" lon="6.5346">
        <ele>291.446</ele>
        <time>2015-10-03T10:05:04Z</time>
      </trkpt>
      <trkpt lat="47.43159" lon="6.53455">
        <ele>292.41</ele>
        <time>2015-10-03T10:05:05Z</time>
      </trkpt>
      <trkpt lat="47.43162" lon="6.53451">
        <ele>292.987</ele>
        <time>2015-10-03T10:05:06Z</time>
      </trkpt>
      <trkpt lat="47.43165" lon="6.53446">
        <ele>291.93</ele>
        <time>2015-10-03T10:05:07Z</time>
      </trkpt>
      <trkpt lat="47.43167" lon="6.53442">
        <ele>292.597</ele>
        <time>2015-10-03T10:05:08Z</time>
      </trkpt>
      <trkpt lat="47.4317" lon="6.53439">
        <ele>293.201</ele>
        <time>2015-10-03T10:05:09Z</time>
      </trkpt>
      <trkpt lat="47.43174" lon="6.53435">
        <ele>294.21</ele>
        <time>2015-10-03T10:05:10Z</time>
      </trkpt>
      <trkpt lat="47.43177" lon="6.53433">
        <ele>295.991</ele>
        <time>2015-10-03T10:05:11Z</time>
      </trkpt>
      <trkpt lat="47.43181" lon="6.53429">
        <ele>296.339</ele>
        <time>2015-10-03T10:05:12Z</time>
      </trkpt>
      <trkpt lat="47.43184" lon="6.53425">
        <ele>296.247</ele>
        <time>2015-10-03T10:05:13Z</time>
      </trkpt>
      <trkpt lat="47.43187" lon="6.53418">
        <ele>295.188</ele>
        <time>2015-10-03T10:05:14Z</time>
      </trkpt>
      <trkpt lat="47.43189" lon="6.53411">
        <ele>293.735</ele>
        <time>2015-10-03T10:05:15Z</time>
      </trkpt>
      <trkpt lat="47.43192" lon="6.53407">
        <ele>293.564</ele>
        <time>2015-10-03T10:05:16Z</time>
      </trkpt>
      <trkpt lat="47.43197" lon="6.53404">
        <ele>294.809</ele>
        <time>2015-10-03T10:05:17Z</time>
      </trkpt>
      <trkpt lat="47.432" lon="6.53397">
        <ele>293.525</ele>
        <time>2015-10-03T10:05:18Z</time>
      </trkpt>
      <trkpt lat="47.43203" lon="6.53393">
        <ele>294.779</ele>
        <time>2015-10-03T10:05:19Z</time>
      </trkpt>
      <trkpt lat="47.43207" lon="6.53392">
        <ele>297.093</ele>
        <time>2015-10-03T10:05:20Z</time>
      </trkpt>
      <trkpt lat="47.43209" lon="6.53387">
        <ele>297.768</ele>
        <time>2015-10-03T10:05:21Z</time>
      </trkpt>
      <trkpt lat="47.43212" lon="6.53383">
        <ele>296.995</ele>
        <time>2015-10-03T10:05:22Z</time>
      </trkpt>
      <trkpt lat="47.43215" lon="6.53378">
        <ele>297.028</ele>
        <time>2015-10-03T10:05:23Z</time>
      </trkpt>
      <trkpt lat="47.43218" lon="6.53374">
        <ele>296.572</ele>
        <time>2015-10-03T10:05:24Z</time>
      </trkpt>
      <trkpt lat="47.43222" lon="6.5337">
        <ele>296.74</ele>
        <time>2015-10-03T10:05:25Z</time>
      </trkpt>
      <trkpt lat="47.43226" lon="6.53365">
        <ele>296.44</ele>
        <time>2015-10-03T10:05:26Z</time>
      </trkpt>
      <trkpt lat="47.43229" lon="6.5336">
        <ele>295.649</ele>
        <time>2015-10-03T10:05:27Z</time>
      </trkpt>
      <trkpt lat="47.43233" lon="6.53356">
        <ele>295.631</ele>
        <time>2015-10-03T10:05:28Z</time>
      </trkpt>
      <trkpt lat="47.43235" lon="6.53351">
        <ele>296.494</ele>
        <time>2015-10-03T10:05:29Z</time>
      </trkpt>
      <trkpt lat="47.43239" lon="6.53347">
        <ele>296.468</ele>
        <time>2015-10-03T10:05:30Z</time>
      </trkpt>
      <trkpt lat="47.43242" lon="6.53344">
        <ele>297.349</ele>
        <time>2015-10-03T10:05:31Z</time>
      </trkpt>
      <trkpt lat="47.43246" lon="6.53337">
        <ele>296.433</ele>
        <time>2015-10-03T10:05:32Z</time>
      </trkpt>
      <trkpt lat="47.43249" lon="6.53334">
        <ele>297.041</ele>
        <time>2015-10-03T10:05:33Z</time>
      </trkpt>
      <trkpt lat="47.43253" lon="6.53328">
        <ele>296.221</ele>
        <time>2015-10-03T10:05:34Z</time>
      </trkpt>
      <trkpt lat="47.43257" lon="6.53324">
        <ele>296.751</ele>
        <time>2015-10-03T10:05:35Z</time>
      </trkpt>
      <trkpt lat="47.4326" lon="6.53319">
        <ele>296.614</ele>
        <time>2015-10-03T10:05:36Z</time>
      </trkpt>
      <trkpt lat="47.43261" lon="6.53312">
        <ele>297.163</ele>
        <time>2015-10-03T10:05:37Z</time>
      </trkpt>
      <trkpt lat="47.43265" lon="6.53308">
        <ele>297.141</ele>
        <time>2015-10-03T10:05:38Z</time>
      </trkpt>
      <trkpt lat="47.43269" lon="6.53304">
        <ele>296.363</ele>
        <time>2015-10-03T10:05:39Z</time>
      </trkpt>
      <trkpt lat="47.43272" lon="6.53299">
        <ele>294.699</ele>
        <time>2015-10-03T10:05:40Z</time>
      </trkpt>
      <trkpt lat="47.43277" lon="6.53298">
        <ele>295.457</ele>
        <time>2015-10-03T10:05:41Z</time>
      </trkpt>
      <trkpt lat="47.43281" lon="6.5329">
        <ele>294.148</ele>
        <time>2015-10-03T10:05:42Z</time>
      </trkpt>
      <trkpt lat="47.43285" lon="6.53287">
        <ele>294.061</ele>
        <time>2015-10-03T10:05:43Z</time>
      </trkpt>
      <trkpt lat="47.43289" lon="6.53283">
        <ele>293.22</ele>
        <time>2015-10-03T10:05:44Z</time>
      </trkpt>
      <trkpt lat="47.43292" lon="6.53279">
        <ele>292.84</ele>
        <time>2015-10-03T10:05:45Z</time>
      </trkpt>
      <trkpt lat="47.43296" lon="6.53272">
        <ele>292.008</ele>
        <time>2015-10-03T10:05:46Z</time>
      </trkpt>
      <trkpt lat="47.43301" lon="6.53269">
        <ele>291.432</ele>
        <time>2015-10-03T10:05:47Z</time>
      </trkpt>
      <trkpt lat="47.43305" lon="6.53267">
        <ele>291.77</ele>
        <time>2015-10-03T10:05:48Z</time>
      </trkpt>
      <trkpt lat="47.4331" lon="6.53268">
        <ele>294.234</ele>
        <time>2015-10-03T10:05:49Z</time>
      </trkpt>
      <trkpt lat="47.43314" lon="6.53266">
        <ele>295.049</ele>
        <time>2015-10-03T10:05:50Z</time>
      </trkpt>
      <trkpt lat="47.43318" lon="6.53262">
        <ele>294.416</ele>
        <time>2015-10-03T10:05:51Z</time>
      </trkpt>
      <trkpt lat="47.43323" lon="6.5326">
        <ele>295.25</ele>
        <time>2015-10-03T10:05:52Z</time>
      </trkpt>
      <trkpt lat="47.43327" lon="6.53258">
        <ele>295.959</ele>
        <time>2015-10-03T10:05:53Z</time>
      </trkpt>
      <trkpt lat="47.43332" lon="6.53254">
        <ele>295.382</ele>
        <time>2015-10-03T10:05:54Z</time>
      </trkpt>
      <trkpt lat="47.43337" lon="6.53252">
        <ele>296.312</ele>
        <time>2015-10-03T10:05:55Z</time>
      </trkpt>
      <trkpt lat="47.43341" lon="6.53252">
        <ele>298.581</ele>
        <time>2015-10-03T10:05:56Z</time>
      </trkpt>
      <trkpt lat="47.43345" lon="6.53247">
        <ele>298.503</ele>
        <time>2015-10-03T10:05:57Z</time>
      </trkpt>
      <trkpt lat="47.4335" lon="6.53249">
        <ele>300.261</ele>
        <time>2015-10-03T10:05:58Z</time>
      </trkpt>
      <trkpt lat="47.43354" lon="6.53248">
        <ele>301.254</ele>
        <time>2015-10-03T10:05:59Z</time>
      </trkpt>
      <trkpt lat="47.43359" lon="6.53244">
        <ele>300.109</ele>
        <time>2015-10-03T10:06:00Z</time>
      </trkpt>
      <trkpt lat="47.43364" lon="6.5324">
        <ele>298.698</ele>
        <time>2015-10-03T10:06:01Z</time>
      </trkpt>
      <trkpt lat="47.43368" lon="6.53237">
        <ele>299.02</ele>
        <time>2015-10-03T10:06:02Z</time>
      </trkpt>
      <trkpt lat="47.43372" lon="6.53234">
        <ele>298.909</ele>
        <time>2015-10-03T10:06:03Z</time>
      </trkpt>
      <trkpt lat="47.43377" lon="6.5323">
        <ele>298.883</ele>
        <time>2015-10-03T10:06:04Z</time>
      </trkpt>
      <trkpt lat="47.43382" lon="6.53227">
        <ele>299.117</ele>
        <time>2015-10-03T10:06:05Z</time>
      </trkpt>
      <trkpt lat="47.43386" lon="6.53225">
        <ele>299.056</ele>
        <time>2015-10-03T10:06:06Z</time>
      </trkpt>
      <trkpt lat="47.4339" lon="6.53222">
        <ele>299.103</ele>
        <time>2015-10-03T10:06:07Z</time>
      </trkpt>
      <trkpt lat="47.43394" lon="6.5322">
        <ele>299.117</ele>
        <time>2015-10-03T10:06:08Z</time>
      </trkpt>
      <trkpt lat="47.43398" lon="6.53216">
        <ele>298.817</ele>
        <time>2015-10-03T10:06:09Z</time>
      </trkpt>
      <trkpt lat="47.43404" lon="6.53208">
        <ele>298.478</ele>
        <time>2015-10-03T10:06:10Z</time>
      </trkpt>
      <trkpt lat="47.43408" lon="6.53208">
        <ele>298.791</ele>
        <time>2015-10-03T10:06:11Z</time>
      </trkpt>
      <trkpt lat="47.43413" lon="6.53205">
        <ele>298.797</ele>
        <time>2015-10-03T10:06:12Z</time>
      </trkpt>
      <trkpt lat="47.43417" lon="6.53204">
        <ele>298.693</ele>
        <time>2015-10-03T10:06:13Z</time>
      </trkpt>
      <trkpt lat="47.43421" lon="6.53198">
        <ele>297.557</ele>
        <time>2015-10-03T10:06:14Z</time>
      </trkpt>
      <trkpt lat="47.43425" lon="6.53194">
        <ele>295.905</ele>
        <time>2015-10-03T10:06:15Z</time>
      </trkpt>
      <trkpt lat="47.43429" lon="6.53192">
        <ele>295.057</ele>
        <time>2015-10-03T10:06:16Z</time>
      </trkpt>
      <trkpt lat="47.43433" lon="6.5319">
        <ele>293.829</ele>
        <time>2015-10-03T10:06:17Z</time>
      </trkpt>
      <trkpt lat="47.43438" lon="6.53189">
        <ele>292.691</ele>
        <time>2015-10-03T10:06:18Z</time>
      </trkpt>
      <trkpt lat="47.43442" lon="6.53185">
        <ele>291.922</ele>
        <time>2015-10-03T10:06:19Z</time>
      </trkpt>
      <trkpt lat="47.43446" lon="6.53184">
        <ele>292.098</ele>
        <time>2015-10-03T10:06:20Z</time>
      </trkpt>
      <trkpt lat="47.43451" lon="6.53183">
        <ele>293.366</ele>
        <time>2015-10-03T10:06:21Z</time>
      </trkpt>
      <trkpt lat="47.43455" lon="6.53182">
        <ele>293.613</ele>
        <time>2015-10-03T10:06:22Z</time>
      </trkpt>
      <trkpt lat="47.4346" lon="6.53183">
        <ele>294.558</ele>
        <time>2015-10-03T10:06:23Z</time>
      </trkpt>
      <trkpt lat="47.43463" lon="6.53176">
        <ele>293.641</ele>
        <time>2015-10-03T10:06:24Z</time>
      </trkpt>
      <trkpt lat="47.43467" lon="6.53175">
        <ele>293.336</ele>
        <time>2015-10-03T10:06:25Z</time>
      </trkpt>
      <trkpt lat="47.43471" lon="6.53173">
        <ele>293.458</ele>
        <time>2015-10-03T10:06:26Z</time>
      </trkpt>
      <trkpt lat="47.43476" lon="6.5317">
        <ele>292.963</ele>
        <time>2015-10-03T10:06:27Z</time>
      </trkpt>
      <trkpt lat="47.43479" lon="6.53165">
        <ele>291.345</ele>
        <time>2015-10-03T10:06:28Z</time>
      </trkpt>
      <trkpt lat="47.43483" lon="6.53163">
        <ele>290.92</ele>
        <time>2015-10-03T10:06:29Z</time>
      </trkpt>
      <trkpt lat="47.43488" lon="6.53162">
        <ele>291.357</ele>
        <time>2015-10-03T10:06:30Z</time>
      </trkpt>
      <trkpt lat="47.43492" lon="6.53162">
        <ele>291.932</ele>
        <time>2015-10-03T10:06:31Z</time>
      </trkpt>
      <trkpt lat="47.43496" lon="6.5316">
        <ele>291.42</ele>
        <time>2015-10-03T10:06:32Z</time>
      </trkpt>
      <trkpt lat="47.435" lon="6.5316">
        <ele>292.094</ele>
        <time>2015-10-03T10:06:33Z</time>
      </trkpt>
      <trkpt lat="47.43505" lon="6.53159">
        <ele>292.276</ele>
        <time>2015-10-03T10:06:34Z</time>
      </trkpt>
      <trkpt lat="47.4351" lon="6.53162">
        <ele>292.84</ele>
        <time>2015-10-03T10:06:35Z</time>
      </trkpt>
      <trkpt lat="47.43514" lon="6.53161">
        <ele>292.036</ele>
        <time>2015-10-03T10:06:36Z</time>
      </trkpt>
      <trkpt lat="47.43518" lon="6.5316">
        <ele>291.722</ele>
        <time>2015-10-03T10:06:37Z</time>
      </trkpt>
      <trkpt lat="47.43523" lon="6.5316">
        <ele>292.522</ele>
        <time>2015-10-03T10:06:38Z</time>
      </trkpt>
      <trkpt lat="47.43526" lon="6.53157">
        <ele>292.125</ele>
        <time>2015-10-03T10:06:39Z</time>
      </trkpt>
      <trkpt lat="47.43531" lon="6.53154">
        <ele>291.443</ele>
        <time>2015-10-03T10:06:40Z</time>
      </trkpt>
      <trkpt lat="47.43535" lon="6.53153">
        <ele>291.658</ele>
        <time>2015-10-03T10:06:41Z</time>
      </trkpt>
      <trkpt lat="47.43539" lon="6.53151">
        <ele>291.797</ele>
        <time>2015-10-03T10:06:42Z</time>
      </trkpt>
      <trkpt lat="47.43543" lon="6.53148">
        <ele>292.564</ele>
        <time>2015-10-03T10:06:43Z</time>
      </trkpt>
      <trkpt lat="47.43546" lon="6.53148">
        <ele>293.717</ele>
        <time>2015-10-03T10:06:44Z</time>
      </trkpt>
      <trkpt lat="47.43549" lon="6.53147">
        <ele>293.48</ele>
        <time>2015-10-03T10:06:45Z</time>
      </trkpt>
      <trkpt lat="47.43552" lon="6.53146">
        <ele>294.541</ele>
        <time>2015-10-03T10:06:46Z</time>
      </trkpt>
      <trkpt lat="47.43555" lon="6.53143">
        <ele>294.759</ele>
        <time>2015-10-03T10:06:47Z</time>
      </trkpt>
      <trkpt lat="47.43558" lon="6.5314">
        <ele>293.69</ele>
        <time>2015-10-03T10:06:48Z</time>
      </trkpt>
      <trkpt lat="47.43561" lon="6.53138">
        <ele>293.704</ele>
        <time>2015-10-03T10:06:49Z</time>
      </trkpt>
      <trkpt lat="47.43564" lon="6.53137">
        <ele>296.253</ele>
        <time>2015-10-03T10:06:50Z</time>
      </trkpt>
      <trkpt lat="47.43568" lon="6.53136">
        <ele>295.118</ele>
        <time>2015-10-03T10:06:51Z</time>
      </trkpt>
      <trkpt lat="47.43572" lon="6.53135">
        <ele>295.212</ele>
        <time>2015-10-03T10:06:52Z</time>
      </trkpt>
      <trkpt lat="47.43576" lon="6.53133">
        <ele>295.972</ele>
        <time>2015-10-03T10:06:53Z</time>
      </trkpt>
      <trkpt lat="47.4358" lon="6.53132">
        <ele>295.74</ele>
        <time>2015-10-03T10:06:54Z</time>
      </trkpt>
      <trkpt lat="47.43585" lon="6.53131">
        <ele>295.279</ele>
        <time>2015-10-03T10:06:55Z</time>
      </trkpt>
      <trkpt lat="47.4359" lon="6.53133">
        <ele>296.063</ele>
        <time>2015-10-03T10:06:56Z</time>
      </trkpt>
      <trkpt lat="47.43594" lon="6.53137">
        <ele>296.737</ele>
        <time>2015-10-03T10:06:57Z</time>
      </trkpt>
      <trkpt lat="47.43599" lon="6.53139">
        <ele>296.608</ele>
        <time>2015-10-03T10:06:58Z</time>
      </trkpt>
      <trkpt lat="47.43603" lon="6.53141">
        <ele>296.157</ele>
        <time>2015-10-03T10:06:59Z</time>
      </trkpt>
      <trkpt lat="47.43609" lon="6.53142">
        <ele>296.38</ele>
        <time>2015-10-03T10:07:00Z</time>
      </trkpt>
      <trkpt lat="47.43615" lon="6.53144">
        <ele>296.655</ele>
        <time>2015-10-03T10:07:01Z</time>
      </trkpt>
      <trkpt lat="47.4362" lon="6.53143">
        <ele>297.111</ele>
        <time>2015-10-03T10:07:02Z</time>
      </trkpt>
      <trkpt lat="47.43625" lon="6.53141">
        <ele>296.637</ele>
        <time>2015-10-03T10:07:03Z</time>
      </trkpt>
      <trkpt lat="47.43631" lon="6.5314">
        <ele>295.738</ele>
        <time>2015-10-03T10:07:04Z</time>
      </trkpt>
      <trkpt lat="47.43636" lon="6.53138">
        <ele>294.972</ele>
        <time>2015-10-03T10:07:05Z</time>
      </trkpt>
      <trkpt lat="47.43641" lon="6.53137">
        <ele>296.048</ele>
        <time>2015-10-03T10:07:06Z</time>
      </trkpt>
      <trkpt lat="47.43646" lon="6.53139">
        <ele>296.275</ele>
        <time>2015-10-03T10:07:07Z</time>
      </trkpt>
      <trkpt lat="47.43649" lon="6.53139">
        <ele>294.216</ele>
        <time>2015-10-03T10:07:08Z</time>
      </trkpt>
      <trkpt lat="47.43653" lon="6.53136">
        <ele>294.357</ele>
        <time>2015-10-03T10:07:09Z</time>
      </trkpt>
      <trkpt lat="47.43658" lon="6.53137">
        <ele>294.448</ele>
        <time>2015-10-03T10:07:10Z</time>
      </trkpt>
      <trkpt lat="47.43663" lon="6.53137">
        <ele>295.705</ele>
        <time>2015-10-03T10:07:11Z</time>
      </trkpt>
      <trkpt lat="47.43668" lon="6.53135">
        <ele>296.12</ele>
        <time>2015-10-03T10:07:12Z</time>
      </trkpt>
      <trkpt lat="47.43673" lon="6.53134">
        <ele>296.486</ele>
        <time>2015-10-03T10:07:13Z</time>
      </trkpt>
      <trkpt lat="47.43678" lon="6.53133">
        <ele>296.634</ele>
        <time>2015-10-03T10:07:14Z</time>
      </trkpt>
      <trkpt lat="47.43682" lon="6.53131">
        <ele>296.021</ele>
        <time>2015-10-03T10:07:15Z</time>
      </trkpt>
      <trkpt lat="47.43686" lon="6.53131">
        <ele>293.775</ele>
        <time>2015-10-03T10:07:16Z</time>
      </trkpt>
      <trkpt lat="47.43691" lon="6.5313">
        <ele>294.044</ele>
        <time>2015-10-03T10:07:17Z</time>
      </trkpt>
      <trkpt lat="47.43695" lon="6.5313">
        <ele>294.226</ele>
        <time>2015-10-03T10:07:18Z</time>
      </trkpt>
      <trkpt lat="47.437" lon="6.5313">
        <ele>294.558</ele>
        <time>2015-10-03T10:07:19Z</time>
      </trkpt>
      <trkpt lat="47.43704" lon="6.53128">
        <ele>293.655</ele>
        <time>2015-10-03T10:07:20Z</time>
      </trkpt>
      <trkpt lat="47.43709" lon="6.53129">
        <ele>294.997</ele>
        <time>2015-10-03T10:07:21Z</time>
      </trkpt>
      <trkpt lat="47.43713" lon="6.53129">
        <ele>293.456</ele>
        <time>2015-10-03T10:07:22Z</time>
      </trkpt>
      <trkpt lat="47.43718" lon="6.53128">
        <ele>292.302</ele>
        <time>2015-10-03T10:07:23Z</time>
      </trkpt>
      <trkpt lat="47.43722" lon="6.53126">
        <ele>291.002</ele>
        <time>2015-10-03T10:07:24Z</time>
      </trkpt>
      <trkpt lat="47.43726" lon="6.53125">
        <ele>289.704</ele>
        <time>2015-10-03T10:07:25Z</time>
      </trkpt>
      <trkpt lat="47.43731" lon="6.53125">
        <ele>290.674</ele>
        <time>2015-10-03T10:07:26Z</time>
      </trkpt>
      <trkpt lat="47.43735" lon="6.53127">
        <ele>291.57</ele>
        <time>2015-10-03T10:07:27Z</time>
      </trkpt>
      <trkpt lat="47.43739" lon="6.53126">
        <ele>291.654</ele>
        <time>2015-10-03T10:07:28Z</time>
      </trkpt>
      <trkpt lat="47.43743" lon="6.53126">
        <ele>291.965</ele>
        <time>2015-10-03T10:07:29Z</time>
      </trkpt>
      <trkpt lat="47.43748" lon="6.53126">
        <ele>292.205</ele>
        <time>2015-10-03T10:07:30Z</time>
      </trkpt>
      <trkpt lat="47.43753" lon="6.53125">
        <ele>291.131</ele>
        <time>2015-10-03T10:07:31Z</time>
      </trkpt>
      <trkpt lat="47.43758" lon="6.53123">
        <ele>291.739</ele>
        <time>2015-10-03T10:07:32Z</time>
      </trkpt>
      <trkpt lat="47.43762" lon="6.53123">
        <ele>291.693</ele>
        <time>2015-10-03T10:07:33Z</time>
      </trkpt>
      <trkpt lat="47.43766" lon="6.53124">
        <ele>292.418</ele>
        <time>2015-10-03T10:07:34Z</time>
      </trkpt>
      <trkpt lat="47.43771" lon="6.53125">
        <ele>293.475</ele>
        <time>2015-10-03T10:07:35Z</time>
      </trkpt>
      <trkpt lat="47.43776" lon="6.53125">
        <ele>293.707</ele>
        <time>2015-10-03T10:07:36Z</time>
      </trkpt>
      <trkpt lat="47.4378" lon="6.53127">
        <ele>294.089</ele>
        <time>2015-10-03T10:07:37Z</time>
      </trkpt>
      <trkpt lat="47.43785" lon="6.53129">
        <ele>293.379</ele>
        <time>2015-10-03T10:07:38Z</time>
      </trkpt>
      <trkpt lat="47.43788" lon="6.53129">
        <ele>292.809</ele>
        <time>2015-10-03T10:07:39Z</time>
      </trkpt>
      <trkpt lat="47.43793" lon="6.53128">
        <ele>293.021</ele>
        <time>2015-10-03T10:07:40Z</time>
      </trkpt>
      <trkpt lat="47.43797" lon="6.53129">
        <ele>292.649</ele>
        <time>2015-10-03T10:07:41Z</time>
      </trkpt>
      <trkpt lat="47.43801" lon="6.53128">
        <ele>291.14</ele>
        <time>2015-10-03T10:07:42Z</time>
      </trkpt>
      <trkpt lat="47.43807" lon="6.53128">
        <ele>291.755</ele>
        <time>2015-10-03T10:07:43Z</time>
      </trkpt>
      <trkpt lat="47.43811" lon="6.53128">
        <ele>292.051</ele>
        <time>2015-10-03T10:07:44Z</time>
      </trkpt>
      <trkpt lat="47.43816" lon="6.53131">
        <ele>292.152</ele>
        <time>2015-10-03T10:07:45Z</time>
      </trkpt>
      <trkpt lat="47.4382" lon="6.53133">
        <ele>292.154</ele>
        <time>2015-10-03T10:07:46Z</time>
      </trkpt>
      <trkpt lat="47.43825" lon="6.53134">
        <ele>292.028</ele>
        <time>2015-10-03T10:07:47Z</time>
      </trkpt>
      <trkpt lat="47.43831" lon="6.53135">
        <ele>291.799</ele>
        <time>2015-10-03T10:07:48Z</time>
      </trkpt>
      <trkpt lat="47.43835" lon="6.53133">
        <ele>290.922</ele>
        <time>2015-10-03T10:07:49Z</time>
      </trkpt>
      <trkpt lat="47.4384" lon="6.53135">
        <ele>292.007</ele>
        <time>2015-10-03T10:07:50Z</time>
      </trkpt>
      <trkpt lat="47.43845" lon="6.53134">
        <ele>291.144</ele>
        <time>2015-10-03T10:07:51Z</time>
      </trkpt>
      <trkpt lat="47.43849" lon="6.53135">
        <ele>291.988</ele>
        <time>2015-10-03T10:07:52Z</time>
      </trkpt>
      <trkpt lat="47.43853" lon="6.53133">
        <ele>290.339</ele>
        <time>2015-10-03T10:07:53Z</time>
      </trkpt>
      <trkpt lat="47.43859" lon="6.53132">
        <ele>290.149</ele>
        <time>2015-10-03T10:07:54Z</time>
      </trkpt>
      <trkpt lat="47.43864" lon="6.53132">
        <ele>290.33</ele>
        <time>2015-10-03T10:07:55Z</time>
      </trkpt>
      <trkpt lat="47.43869" lon="6.53133">
        <ele>289.859</ele>
        <time>2015-10-03T10:07:56Z</time>
      </trkpt>
      <trkpt lat="47.43873" lon="6.53134">
        <ele>289.94</ele>
        <time>2015-10-03T10:07:57Z</time>
      </trkpt>
      <trkpt lat="47.43878" lon="6.53135">
        <ele>290.675</ele>
        <time>2015-10-03T10:07:58Z</time>
      </trkpt>
      <trkpt lat="47.43882" lon="6.53136">
        <ele>290.548</ele>
        <time>2015-10-03T10:07:59Z</time>
      </trkpt>
      <trkpt lat="47.43886" lon="6.53138">
        <ele>291.475</ele>
        <time>2015-10-03T10:08:00Z</time>
      </trkpt>
      <trkpt lat="47.43891" lon="6.53139">
        <ele>291.262</ele>
        <time>2015-10-03T10:08:01Z</time>
      </trkpt>
      <trkpt lat="47.43894" lon="6.53141">
        <ele>290.595</ele>
        <time>2015-10-03T10:08:02Z</time>
      </trkpt>
      <trkpt lat="47.43899" lon="6.53142">
        <ele>291.468</ele>
        <time>2015-10-03T10:08:03Z</time>
      </trkpt>
      <trkpt lat="47.43903" lon="6.53144">
        <ele>291.85</ele>
        <time>2015-10-03T10:08:04Z</time>
      </trkpt>
      <trkpt lat="47.43907" lon="6.53146">
        <ele>292.294</ele>
        <time>2015-10-03T10:08:05Z</time>
      </trkpt>
      <trkpt lat="47.43911" lon="6.53146">
        <ele>291.904</ele>
        <time>2015-10-03T10:08:06Z</time>
      </trkpt>
      <trkpt lat="47.43916" lon="6.53147">
        <ele>291.18</ele>
        <time>2015-10-03T10:08:07Z</time>
      </trkpt>
      <trkpt lat="47.4392" lon="6.53145">
        <ele>291.256</ele>
        <time>2015-10-03T10:08:08Z</time>
      </trkpt>
      <trkpt lat="47.43925" lon="6.53148">
        <ele>291.817</ele>
        <time>2015-10-03T10:08:09Z</time>
      </trkpt>
      <trkpt lat="47.4393" lon="6.53149">
        <ele>292.158</ele>
        <time>2015-10-03T10:08:10Z</time>
      </trkpt>
      <trkpt lat="47.43934" lon="6.53149">
        <ele>291.41</ele>
        <time>2015-10-03T10:08:11Z</time>
      </trkpt>
      <trkpt lat="47.43938" lon="6.53152">
        <ele>291.042</ele>
        <time>2015-10-03T10:08:12Z</time>
      </trkpt>
      <trkpt lat="47.43941" lon="6.53153">
        <ele>290.213</ele>
        <time>2015-10-03T10:08:13Z</time>
      </trkpt>
      <trkpt lat="47.43946" lon="6.53155">
        <ele>290.337</ele>
        <time>2015-10-03T10:08:14Z</time>
      </trkpt>
      <trkpt lat="47.4395" lon="6.53156">
        <ele>289.97</ele>
        <time>2015-10-03T10:08:15Z</time>
      </trkpt>
      <trkpt lat="47.43955" lon="6.53158">
        <ele>290.517</ele>
        <time>2015-10-03T10:08:16Z</time>
      </trkpt>
      <trkpt lat="47.43959" lon="6.5316">
        <ele>291.429</ele>
        <time>2015-10-03T10:08:17Z</time>
      </trkpt>
      <trkpt lat="47.43963" lon="6.53162">
        <ele>290.632</ele>
        <time>2015-10-03T10:08:18Z</time>
      </trkpt>
      <trkpt lat="47.43967" lon="6.53162">
        <ele>290.629</ele>
        <time>2015-10-03T10:08:19Z</time>
      </trkpt>
      <trkpt lat="47.43973" lon="6.53165">
        <ele>291.64</ele>
        <time>2015-10-03T10:08:20Z</time>
      </trkpt>
      <trkpt lat="47.43977" lon="6.53167">
        <ele>292.343</ele>
        <time>2015-10-03T10:08:21Z</time>
      </trkpt>
      <trkpt lat="47.43982" lon="6.53169">
        <ele>292.936</ele>
        <time>2015-10-03T10:08:22Z</time>
      </trkpt>
      <trkpt lat="47.43987" lon="6.53172">
        <ele>293.582</ele>
        <time>2015-10-03T10:08:23Z</time>
      </trkpt>
      <trkpt lat="47.43991" lon="6.53174">
        <ele>293.898</ele>
        <time>2015-10-03T10:08:24Z</time>
      </trkpt>
      <trkpt lat="47.43997" lon="6.53176">
        <ele>294.219</ele>
        <time>2015-10-03T10:08:25Z</time>
      </trkpt>
      <trkpt lat="47.44002" lon="6.53178">
        <ele>294.406</ele>
        <time>2015-10-03T10:08:26Z</time>
      </trkpt>
      <trkpt lat="47.44007" lon="6.5318">
        <ele>293.757</ele>
        <time>2015-10-03T10:08:27Z</time>
      </trkpt>
      <trkpt lat="47.44011" lon="6.53181">
        <ele>293.114</ele>
        <time>2015-10-03T10:08:28Z</time>
      </trkpt>
      <trkpt lat="47.44015" lon="6.53182">
        <ele>292.103</ele>
        <time>2015-10-03T10:08:29Z</time>
      </trkpt>
      <trkpt lat="47.44019" lon="6.53185">
        <ele>292.214</ele>
        <time>2015-10-03T10:08:30Z</time>
      </trkpt>
      <trkpt lat="47.44023" lon="6.53188">
        <ele>292.781</ele>
        <time>2015-10-03T10:08:31Z</time>
      </trkpt>
      <trkpt lat="47.44027" lon="6.53191">
        <ele>293.581</ele>
        <time>2015-10-03T10:08:32Z</time>
      </trkpt>
      <trkpt lat="47.44031" lon="6.53195">
        <ele>293.958</ele>
        <time>2015-10-03T10:08:33Z</time>
      </trkpt>
      <trkpt lat="47.44036" lon="6.53199">
        <ele>294.499</ele>
        <time>2015-10-03T10:08:34Z</time>
      </trkpt>
      <trkpt lat="47.44038" lon="6.532">
        <ele>292.915</ele>
        <time>2015-10-03T10:08:35Z</time>
      </trkpt>
      <trkpt lat="47.44042" lon="6.53202">
        <ele>292.733</ele>
        <time>2015-10-03T10:08:36Z</time>
      </trkpt>
      <trkpt lat="47.44047" lon="6.53204">
        <ele>292.734</ele>
        <time>2015-10-03T10:08:37Z</time>
      </trkpt>
      <trkpt lat="47.44051" lon="6.53205">
        <ele>291.56</ele>
        <time>2015-10-03T10:08:38Z</time>
      </trkpt>
      <trkpt lat="47.44055" lon="6.5321">
        <ele>292.45</ele>
        <time>2015-10-03T10:08:39Z</time>
      </trkpt>
      <trkpt lat="47.4406" lon="6.53212">
        <ele>294.007</ele>
        <time>2015-10-03T10:08:40Z</time>
      </trkpt>
      <trkpt lat="47.44065" lon="6.53215">
        <ele>292.114</ele>
        <time>2015-10-03T10:08:41Z</time>
      </trkpt>
      <trkpt lat="47.44069" lon="6.53216">
        <ele>293.199</ele>
        <time>2015-10-03T10:08:42Z</time>
      </trkpt>
      <trkpt lat="47.44072" lon="6.53219">
        <ele>294.701</ele>
        <time>2015-10-03T10:08:43Z</time>
      </trkpt>
      <trkpt lat="47.44076" lon="6.53222">
        <ele>293.927</ele>
        <time>2015-10-03T10:08:44Z</time>
      </trkpt>
      <trkpt lat="47.4408" lon="6.53226">
        <ele>295.074</ele>
        <time>2015-10-03T10:08:45Z</time>
      </trkpt>
      <trkpt lat="47.44084" lon="6.53231">
        <ele>295.678</ele>
        <time>2015-10-03T10:08:46Z</time>
      </trkpt>
      <trkpt lat="47.44089" lon="6.53233">
        <ele>294.642</ele>
        <time>2015-10-03T10:08:47Z</time>
      </trkpt>
      <trkpt lat="47.44093" lon="6.53235">
        <ele>294.732</ele>
        <time>2015-10-03T10:08:48Z</time>
      </trkpt>
      <trkpt lat="47.44097" lon="6.53239">
        <ele>295.65</ele>
        <time>2015-10-03T10:08:49Z</time>
      </trkpt>
      <trkpt lat="47.44101" lon="6.53242">
        <ele>294.644</ele>
        <time>2015-10-03T10:08:50Z</time>
      </trkpt>
      <trkpt lat="47.44106" lon="6.53246">
        <ele>295.447</ele>
        <time>2015-10-03T10:08:51Z</time>
      </trkpt>
      <trkpt lat="47.4411" lon="6.5325">
        <ele>295.792</ele>
        <time>2015-10-03T10:08:52Z</time>
      </trkpt>
      <trkpt lat="47.44114" lon="6.53253">
        <ele>295.036</ele>
        <time>2015-10-03T10:08:53Z</time>
      </trkpt>
      <trkpt lat="47.44119" lon="6.53258">
        <ele>294.477</ele>
        <time>2015-10-03T10:08:54Z</time>
      </trkpt>
      <trkpt lat="47.44123" lon="6.53261">
        <ele>294.306</ele>
        <time>2015-10-03T10:08:55Z</time>
      </trkpt>
      <trkpt lat="47.44127" lon="6.53266">
        <ele>293.969</ele>
        <time>2015-10-03T10:08:56Z</time>
      </trkpt>
      <trkpt lat="47.44131" lon="6.5327">
        <ele>294.421</ele>
        <time>2015-10-03T10:08:57Z</time>
      </trkpt>
      <trkpt lat="47.44134" lon="6.53274">
        <ele>294.506</ele>
        <time>2015-10-03T10:08:58Z</time>
      </trkpt>
      <trkpt lat="47.44138" lon="6.53279">
        <ele>295.465</ele>
        <time>2015-10-03T10:08:59Z</time>
      </trkpt>
      <trkpt lat="47.44142" lon="6.53285">
        <ele>295.373</ele>
        <time>2015-10-03T10:09:00Z</time>
      </trkpt>
      <trkpt lat="47.44145" lon="6.5329">
        <ele>295.793</ele>
        <time>2015-10-03T10:09:01Z</time>
      </trkpt>
      <trkpt lat="47.44148" lon="6.53295">
        <ele>295.359</ele>
        <time>2015-10-03T10:09:02Z</time>
      </trkpt>
      <trkpt lat="47.44151" lon="6.53301">
        <ele>295.376</ele>
        <time>2015-10-03T10:09:03Z</time>
      </trkpt>
      <trkpt lat="47.44155" lon="6.53306">
        <ele>295.041</ele>
        <time>2015-10-03T10:09:04Z</time>
      </trkpt>
      <trkpt lat="47.44157" lon="6.53312">
        <ele>295.386</ele>
        <time>2015-10-03T10:09:05Z</time>
      </trkpt>
      <trkpt lat="47.44161" lon="6.53318">
        <ele>294.429</ele>
        <time>2015-10-03T10:09:06Z</time>
      </trkpt>
      <trkpt lat="47.44163" lon="6.53325">
        <ele>293.835</ele>
        <time>2015-10-03T10:09:07Z</time>
      </trkpt>
      <trkpt lat="47.44166" lon="6.53331">
        <ele>293.687</ele>
        <time>2015-10-03T10:09:08Z</time>
      </trkpt>
      <trkpt lat="47.44169" lon="6.53335">
        <ele>292.171</ele>
        <time>2015-10-03T10:09:09Z</time>
      </trkpt>
      <trkpt lat="47.44171" lon="6.53341">
        <ele>291.836</ele>
        <time>2015-10-03T10:09:10Z</time>
      </trkpt>
      <trkpt lat="47.44172" lon="6.53348">
        <ele>290.482</ele>
        <time>2015-10-03T10:09:11Z</time>
      </trkpt>
      <trkpt lat="47.44174" lon="6.53353">
        <ele>288.558</ele>
        <time>2015-10-03T10:09:12Z</time>
      </trkpt>
      <trkpt lat="47.44176" lon="6.53359">
        <ele>286.425</ele>
        <time>2015-10-03T10:09:13Z</time>
      </trkpt>
      <trkpt lat="47.4418" lon="6.53362">
        <ele>282.277</ele>
        <time>2015-10-03T10:09:14Z</time>
      </trkpt>
      <trkpt lat="47.44181" lon="6.53368">
        <ele>282.38</ele>
        <time>2015-10-03T10:09:15Z</time>
      </trkpt>
      <trkpt lat="47.4418" lon="6.53374">
        <ele>282.498</ele>
        <time>2015-10-03T10:09:16Z</time>
      </trkpt>
      <trkpt lat="47.44182" lon="6.5338">
        <ele>281.701</ele>
        <time>2015-10-03T10:09:17Z</time>
      </trkpt>
      <trkpt lat="47.44182" lon="6.53388">
        <ele>282.149</ele>
        <time>2015-10-03T10:09:18Z</time>
      </trkpt>
      <trkpt lat="47.44182" lon="6.53396">
        <ele>283.471</ele>
        <time>2015-10-03T10:09:19Z</time>
      </trkpt>
      <trkpt lat="47.44184" lon="6.53399">
        <ele>281.541</ele>
        <time>2015-10-03T10:09:20Z</time>
      </trkpt>
      <trkpt lat="47.44183" lon="6.53406">
        <ele>280.868</ele>
        <time>2015-10-03T10:09:21Z</time>
      </trkpt>
      <trkpt lat="47.44182" lon="6.53413">
        <ele>281.1</ele>
        <time>2015-10-03T10:09:22Z</time>
      </trkpt>
      <trkpt lat="47.44181" lon="6.5342">
        <ele>282.176</ele>
        <time>2015-10-03T10:09:23Z</time>
      </trkpt>
      <trkpt lat="47.4418" lon="6.53425">
        <ele>282.167</ele>
        <time>2015-10-03T10:09:24Z</time>
      </trkpt>
      <trkpt lat="47.44179" lon="6.53431">
        <ele>282.881</ele>
        <time>2015-10-03T10:09:25Z</time>
      </trkpt>
      <trkpt lat="47.44177" lon="6.53438">
        <ele>283.57</ele>
        <time>2015-10-03T10:09:26Z</time>
      </trkpt>
      <trkpt lat="47.44176" lon="6.53444">
        <ele>284.326</ele>
        <time>2015-10-03T10:09:27Z</time>
      </trkpt>
      <trkpt lat="47.44177" lon="6.53451">
        <ele>284.296</ele>
        <time>2015-10-03T10:09:28Z</time>
      </trkpt>
      <trkpt lat="47.44176" lon="6.53457">
        <ele>282.619</ele>
        <time>2015-10-03T10:09:29Z</time>
      </trkpt>
      <trkpt lat="47.44175" lon="6.53462">
        <ele>282.891</ele>
        <time>2015-10-03T10:09:30Z</time>
      </trkpt>
      <trkpt lat="47.44173" lon="6.53468">
        <ele>283.795</ele>
        <time>2015-10-03T10:09:31Z</time>
      </trkpt>
      <trkpt lat="47.44173" lon="6.53472">
        <ele>282.032</ele>
        <time>2015-10-03T10:09:32Z</time>
      </trkpt>
      <trkpt lat="47.44172" lon="6.5348">
        <ele>283.405</ele>
        <time>2015-10-03T10:09:33Z</time>
      </trkpt>
      <trkpt lat="47.4417" lon="6.53485">
        <ele>282.883</ele>
        <time>2015-10-03T10:09:34Z</time>
      </trkpt>
      <trkpt lat="47.44169" lon="6.53492">
        <ele>283.981</ele>
        <time>2015-10-03T10:09:35Z</time>
      </trkpt>
      <trkpt lat="47.44168" lon="6.53498">
        <ele>283.286</ele>
        <time>2015-10-03T10:09:36Z</time>
      </trkpt>
      <trkpt lat="47.44167" lon="6.53504">
        <ele>282.99</ele>
        <time>2015-10-03T10:09:37Z</time>
      </trkpt>
      <trkpt lat="47.44166" lon="6.53511">
        <ele>283.633</ele>
        <time>2015-10-03T10:09:38Z</time>
      </trkpt>
      <trkpt lat="47.44165" lon="6.53517">
        <ele>283.913</ele>
        <time>2015-10-03T10:09:39Z</time>
      </trkpt>
      <trkpt lat="47.44163" lon="6.53525">
        <ele>285.623</ele>
        <time>2015-10-03T10:09:40Z</time>
      </trkpt>
      <trkpt lat="47.44164" lon="6.5353">
        <ele>283.938</ele>
        <time>2015-10-03T10:09:41Z</time>
      </trkpt>
      <trkpt lat="47.44164" lon="6.53536">
        <ele>283.861</ele>
        <time>2015-10-03T10:09:42Z</time>
      </trkpt>
      <trkpt lat="47.44163" lon="6.53545">
        <ele>284.654</ele>
        <time>2015-10-03T10:09:43Z</time>
      </trkpt>
      <trkpt lat="47.44162" lon="6.53551">
        <ele>285.384</ele>
        <time>2015-10-03T10:09:44Z</time>
      </trkpt>
      <trkpt lat="47.44162" lon="6.53555">
        <ele>284.587</ele>
        <time>2015-10-03T10:09:45Z</time>
      </trkpt>
      <trkpt lat="47.44162" lon="6.53562">
        <ele>284.241</ele>
        <time>2015-10-03T10:09:46Z</time>
      </trkpt>
      <trkpt lat="47.44161" lon="6.5357">
        <ele>284.005</ele>
        <time>2015-10-03T10:09:47Z</time>
      </trkpt>
      <trkpt lat="47.44161" lon="6.53579">
        <ele>284.138</ele>
        <time>2015-10-03T10:09:48Z</time>
      </trkpt>
      <trkpt lat="47.44161" lon="6.53586">
        <ele>283.28</ele>
        <time>2015-10-03T10:09:49Z</time>
      </trkpt>
      <trkpt lat="47.4416" lon="6.53594">
        <ele>284.229</ele>
        <time>2015-10-03T10:09:50Z</time>
      </trkpt>
      <trkpt lat="47.44158" lon="6.53602">
        <ele>287.532</ele>
        <time>2015-10-03T10:09:51Z</time>
      </trkpt>
      <trkpt lat="47.44157" lon="6.5361">
        <ele>288.46</ele>
        <time>2015-10-03T10:09:52Z</time>
      </trkpt>
      <trkpt lat="47.44155" lon="6.53616">
        <ele>287.667</ele>
        <time>2015-10-03T10:09:53Z</time>
      </trkpt>
      <trkpt lat="47.44155" lon="6.53623">
        <ele>287.742</ele>
        <time>2015-10-03T10:09:54Z</time>
      </trkpt>
      <trkpt lat="47.44155" lon="6.53631">
        <ele>287.704</ele>
        <time>2015-10-03T10:09:55Z</time>
      </trkpt>
      <trkpt lat="47.44154" lon="6.53638">
        <ele>287.902</ele>
        <time>2015-10-03T10:09:56Z</time>
      </trkpt>
      <trkpt lat="47.44153" lon="6.53645">
        <ele>288.897</ele>
        <time>2015-10-03T10:09:57Z</time>
      </trkpt>
      <trkpt lat="47.44152" lon="6.53652">
        <ele>289.921</ele>
        <time>2015-10-03T10:09:58Z</time>
      </trkpt>
      <trkpt lat="47.44152" lon="6.53657">
        <ele>289.191</ele>
        <time>2015-10-03T10:09:59Z</time>
      </trkpt>
      <trkpt lat="47.44151" lon="6.53666">
        <ele>290.223</ele>
        <time>2015-10-03T10:10:00Z</time>
      </trkpt>
      <trkpt lat="47.44149" lon="6.53672">
        <ele>291.205</ele>
        <time>2015-10-03T10:10:01Z</time>
      </trkpt>
      <trkpt lat="47.44148" lon="6.53679">
        <ele>291.9</ele>
        <time>2015-10-03T10:10:02Z</time>
      </trkpt>
      <trkpt lat="47.44148" lon="6.53684">
        <ele>291.512</ele>
        <time>2015-10-03T10:10:03Z</time>
      </trkpt>
      <trkpt lat="47.44147" lon="6.53691">
        <ele>292.149</ele>
        <time>2015-10-03T10:10:04Z</time>
      </trkpt>
      <trkpt lat="47.44146" lon="6.53698">
        <ele>291.045</ele>
        <time>2015-10-03T10:10:05Z</time>
      </trkpt>
      <trkpt lat="47.44147" lon="6.53701">
        <ele>290.011</ele>
        <time>2015-10-03T10:10:06Z</time>
      </trkpt>
      <trkpt lat="47.44146" lon="6.53708">
        <ele>290.897</ele>
        <time>2015-10-03T10:10:07Z</time>
      </trkpt>
      <trkpt lat="47.44146" lon="6.53718">
        <ele>290.52</ele>
        <time>2015-10-03T10:10:08Z</time>
      </trkpt>
      <trkpt lat="47.44145" lon="6.53724">
        <ele>289.11</ele>
        <time>2015-10-03T10:10:09Z</time>
      </trkpt>
      <trkpt lat="47.44143" lon="6.53732">
        <ele>287.745</ele>
        <time>2015-10-03T10:10:10Z</time>
      </trkpt>
      <trkpt lat="47.44142" lon="6.53741">
        <ele>289.034</ele>
        <time>2015-10-03T10:10:11Z</time>
      </trkpt>
      <trkpt lat="47.44141" lon="6.53749">
        <ele>289.685</ele>
        <time>2015-10-03T10:10:12Z</time>
      </trkpt>
      <trkpt lat="47.4414" lon="6.53757">
        <ele>288.224</ele>
        <time>2015-10-03T10:10:13Z</time>
      </trkpt>
      <trkpt lat="47.44139" lon="6.53764">
        <ele>288.249</ele>
        <time>2015-10-03T10:10:14Z</time>
      </trkpt>
      <trkpt lat="47.44138" lon="6.53771">
        <ele>289.343</ele>
        <time>2015-10-03T10:10:15Z</time>
      </trkpt>
      <trkpt lat="47.44136" lon="6.53777">
        <ele>290.985</ele>
        <time>2015-10-03T10:10:16Z</time>
      </trkpt>
      <trkpt lat="47.44136" lon="6.53785">
        <ele>290.385</ele>
        <time>2015-10-03T10:10:17Z</time>
      </trkpt>
      <trkpt lat="47.44134" lon="6.53792">
        <ele>291.328</ele>
        <time>2015-10-03T10:10:18Z</time>
      </trkpt>
      <trkpt lat="47.44133" lon="6.538">
        <ele>290.978</ele>
        <time>2015-10-03T10:10:19Z</time>
      </trkpt>
      <trkpt lat="47.44132" lon="6.53808">
        <ele>291.559</ele>
        <time>2015-10-03T10:10:20Z</time>
      </trkpt>
      <trkpt lat="47.44134" lon="6.53807">
        <ele>288.096</ele>
        <time>2015-10-03T10:10:21Z</time>
      </trkpt>
      <trkpt lat="47.44135" lon="6.53812">
        <ele>288.411</ele>
        <time>2015-10-03T10:10:22Z</time>
      </trkpt>
      <trkpt lat="47.44134" lon="6.53817">
        <ele>288.607</ele>
        <time>2015-10-03T10:10:23Z</time>
      </trkpt>
      <trkpt lat="47.44133" lon="6.53826">
        <ele>289.873</ele>
        <time>2015-10-03T10:10:24Z</time>
      </trkpt>
      <trkpt lat="47.44132" lon="6.53832">
        <ele>290.591</ele>
        <time>2015-10-03T10:10:25Z</time>
      </trkpt>
      <trkpt lat="47.4413" lon="6.5384">
        <ele>291.784</ele>
        <time>2015-10-03T10:10:26Z</time>
      </trkpt>
      <trkpt lat="47.4413" lon="6.53849">
        <ele>287.52</ele>
        <time>2015-10-03T10:10:28Z</time>
      </trkpt>
      <trkpt lat="47.44129" lon="6.53856">
        <ele>287.504</ele>
        <time>2015-10-03T10:10:29Z</time>
      </trkpt>
      <trkpt lat="47.44128" lon="6.53861">
        <ele>286.181</ele>
        <time>2015-10-03T10:10:30Z</time>
      </trkpt>
      <trkpt lat="47.44128" lon="6.53868">
        <ele>286.837</ele>
        <time>2015-10-03T10:10:31Z</time>
      </trkpt>
      <trkpt lat="47.44127" lon="6.53875">
        <ele>286.945</ele>
        <time>2015-10-03T10:10:32Z</time>
      </trkpt>
      <trkpt lat="47.44126" lon="6.53882">
        <ele>286.73</ele>
        <time>2015-10-03T10:10:33Z</time>
      </trkpt>
      <trkpt lat="47.44126" lon="6.53889">
        <ele>288.106</ele>
        <time>2015-10-03T10:10:34Z</time>
      </trkpt>
      <trkpt lat="47.44125" lon="6.53895">
        <ele>288.9</ele>
        <time>2015-10-03T10:10:35Z</time>
      </trkpt>
      <trkpt lat="47.44124" lon="6.53901">
        <ele>289.156</ele>
        <time>2015-10-03T10:10:36Z</time>
      </trkpt>
      <trkpt lat="47.44124" lon="6.53907">
        <ele>289.271</ele>
        <time>2015-10-03T10:10:37Z</time>
      </trkpt>
      <trkpt lat="47.44123" lon="6.53914">
        <ele>288.883</ele>
        <time>2015-10-03T10:10:38Z</time>
      </trkpt>
      <trkpt lat="47.44124" lon="6.53917">
        <ele>287.835</ele>
        <time>2015-10-03T10:10:39Z</time>
      </trkpt>
      <trkpt lat="47.44123" lon="6.53927">
        <ele>288.593</ele>
        <time>2015-10-03T10:10:40Z</time>
      </trkpt>
      <trkpt lat="47.44123" lon="6.53934">
        <ele>288.893</ele>
        <time>2015-10-03T10:10:41Z</time>
      </trkpt>
      <trkpt lat="47.44123" lon="6.53942">
        <ele>287.68</ele>
        <time>2015-10-03T10:10:42Z</time>
      </trkpt>
      <trkpt lat="47.44123" lon="6.53949">
        <ele>288.183</ele>
        <time>2015-10-03T10:10:43Z</time>
      </trkpt>
      <trkpt lat="47.44122" lon="6.53954">
        <ele>288.218</ele>
        <time>2015-10-03T10:10:44Z</time>
      </trkpt>
      <trkpt lat="47.44122" lon="6.53963">
        <ele>288.703</ele>
        <time>2015-10-03T10:10:45Z</time>
      </trkpt>
      <trkpt lat="47.44122" lon="6.53972">
        <ele>289.297</ele>
        <time>2015-10-03T10:10:46Z</time>
      </trkpt>
      <trkpt lat="47.4412" lon="6.53978">
        <ele>289.062</ele>
        <time>2015-10-03T10:10:47Z</time>
      </trkpt>
      <trkpt lat="47.44119" lon="6.53984">
        <ele>289.69</ele>
        <time>2015-10-03T10:10:48Z</time>
      </trkpt>
      <trkpt lat="47.44118" lon="6.53992">
        <ele>290.533</ele>
        <time>2015-10-03T10:10:49Z</time>
      </trkpt>
      <trkpt lat="47.44117" lon="6.53997">
        <ele>289.203</ele>
        <time>2015-10-03T10:10:50Z</time>
      </trkpt>
      <trkpt lat="47.44117" lon="6.54001">
        <ele>289.566</ele>
        <time>2015-10-03T10:10:51Z</time>
      </trkpt>
      <trkpt lat="47.44118" lon="6.54007">
        <ele>289.986</ele>
        <time>2015-10-03T10:10:52Z</time>
      </trkpt>
      <trkpt lat="47.44117" lon="6.54015">
        <ele>289.426</ele>
        <time>2015-10-03T10:10:53Z</time>
      </trkpt>
      <trkpt lat="47.44116" lon="6.54021">
        <ele>289.555</ele>
        <time>2015-10-03T10:10:54Z</time>
      </trkpt>
      <trkpt lat="47.44115" lon="6.54027">
        <ele>288.776</ele>
        <time>2015-10-03T10:10:55Z</time>
      </trkpt>
      <trkpt lat="47.44115" lon="6.54033">
        <ele>287.964</ele>
        <time>2015-10-03T10:10:56Z</time>
      </trkpt>
      <trkpt lat="47.44114" lon="6.54041">
        <ele>287.986</ele>
        <time>2015-10-03T10:10:57Z</time>
      </trkpt>
      <trkpt lat="47.44113" lon="6.5405">
        <ele>287.042</ele>
        <time>2015-10-03T10:10:58Z</time>
      </trkpt>
      <trkpt lat="47.44113" lon="6.54057">
        <ele>286.588</ele>
        <time>2015-10-03T10:10:59Z</time>
      </trkpt>
      <trkpt lat="47.44112" lon="6.54065">
        <ele>286.671</ele>
        <time>2015-10-03T10:11:00Z</time>
      </trkpt>
      <trkpt lat="47.44111" lon="6.54072">
        <ele>286.12</ele>
        <time>2015-10-03T10:11:01Z</time>
      </trkpt>
      <trkpt lat="47.44111" lon="6.54075">
        <ele>283.674</ele>
        <time>2015-10-03T10:11:02Z</time>
      </trkpt>
      <trkpt lat="47.44111" lon="6.54082">
        <ele>282.565</ele>
        <time>2015-10-03T10:11:03Z</time>
      </trkpt>
      <trkpt lat="47.4411" lon="6.54089">
        <ele>281.554</ele>
        <time>2015-10-03T10:11:04Z</time>
      </trkpt>
      <trkpt lat="47.44109" lon="6.54095">
        <ele>277.676</ele>
        <time>2015-10-03T10:11:05Z</time>
      </trkpt>
      <trkpt lat="47.44109" lon="6.54105">
        <ele>279.875</ele>
        <time>2015-10-03T10:11:06Z</time>
      </trkpt>
      <trkpt lat="47.44108" lon="6.54113">
        <ele>279.56</ele>
        <time>2015-10-03T10:11:07Z</time>
      </trkpt>
      <trkpt lat="47.44108" lon="6.54119">
        <ele>278.025</ele>
        <time>2015-10-03T10:11:08Z</time>
      </trkpt>
      <trkpt lat="47.44108" lon="6.54125">
        <ele>279.121</ele>
        <time>2015-10-03T10:11:09Z</time>
      </trkpt>
      <trkpt lat="47.44108" lon="6.5413">
        <ele>280.552</ele>
        <time>2015-10-03T10:11:10Z</time>
      </trkpt>
      <trkpt lat="47.44107" lon="6.54137">
        <ele>280.119</ele>
        <time>2015-10-03T10:11:11Z</time>
      </trkpt>
      <trkpt lat="47.44106" lon="6.54143">
        <ele>281.495</ele>
        <time>2015-10-03T10:11:12Z</time>
      </trkpt>
      <trkpt lat="47.44105" lon="6.54151">
        <ele>281.553</ele>
        <time>2015-10-03T10:11:13Z</time>
      </trkpt>
      <trkpt lat="47.44105" lon="6.54157">
        <ele>282.149</ele>
        <time>2015-10-03T10:11:14Z</time>
      </trkpt>
      <trkpt lat="47.44105" lon="6.54165">
        <ele>282.249</ele>
        <time>2015-10-03T10:11:15Z</time>
      </trkpt>
      <trkpt lat="47.44104" lon="6.54172">
        <ele>282.704</ele>
        <time>2015-10-03T10:11:16Z</time>
      </trkpt>
      <trkpt lat="47.44105" lon="6.54178">
        <ele>283.926</ele>
        <time>2015-10-03T10:11:17Z</time>
      </trkpt>
      <trkpt lat="47.44105" lon="6.54186">
        <ele>284.641</ele>
        <time>2015-10-03T10:11:18Z</time>
      </trkpt>
      <trkpt lat="47.44105" lon="6.54194">
        <ele>285.192</ele>
        <time>2015-10-03T10:11:19Z</time>
      </trkpt>
      <trkpt lat="47.44106" lon="6.54203">
        <ele>284.441</ele>
        <time>2015-10-03T10:11:20Z</time>
      </trkpt>
      <trkpt lat="47.44105" lon="6.54209">
        <ele>284.906</ele>
        <time>2015-10-03T10:11:21Z</time>
      </trkpt>
      <trkpt lat="47.44104" lon="6.54216">
        <ele>284.423</ele>
        <time>2015-10-03T10:11:22Z</time>
      </trkpt>
      <trkpt lat="47.44104" lon="6.54222">
        <ele>283.352</ele>
        <time>2015-10-03T10:11:23Z</time>
      </trkpt>
      <trkpt lat="47.44104" lon="6.54231">
        <ele>287.917</ele>
        <time>2015-10-03T10:11:24Z</time>
      </trkpt>
      <trkpt lat="47.44102" lon="6.54239">
        <ele>289.668</ele>
        <time>2015-10-03T10:11:25Z</time>
      </trkpt>
      <trkpt lat="47.44103" lon="6.54244">
        <ele>289.951</ele>
        <time>2015-10-03T10:11:26Z</time>
      </trkpt>
      <trkpt lat="47.44102" lon="6.54251">
        <ele>290.17</ele>
        <time>2015-10-03T10:11:27Z</time>
      </trkpt>
      <trkpt lat="47.44103" lon="6.54262">
        <ele>290.974</ele>
        <time>2015-10-03T10:11:28Z</time>
      </trkpt>
      <trkpt lat="47.44104" lon="6.54269">
        <ele>293.686</ele>
        <time>2015-10-03T10:11:29Z</time>
      </trkpt>
      <trkpt lat="47.44104" lon="6.54275">
        <ele>294.287</ele>
        <time>2015-10-03T10:11:30Z</time>
      </trkpt>
      <trkpt lat="47.44104" lon="6.54279">
        <ele>291.754</ele>
        <time>2015-10-03T10:11:31Z</time>
      </trkpt>
      <trkpt lat="47.44103" lon="6.54285">
        <ele>291.765</ele>
        <time>2015-10-03T10:11:32Z</time>
      </trkpt>
      <trkpt lat="47.44102" lon="6.54292">
        <ele>292.334</ele>
        <time>2015-10-03T10:11:33Z</time>
      </trkpt>
      <trkpt lat="47.44102" lon="6.543">
        <ele>291.185</ele>
        <time>2015-10-03T10:11:34Z</time>
      </trkpt>
      <trkpt lat="47.44102" lon="6.54309">
        <ele>291.178</ele>
        <time>2015-10-03T10:11:35Z</time>
      </trkpt>
      <trkpt lat="47.44101" lon="6.54313">
        <ele>290.152</ele>
        <time>2015-10-03T10:11:36Z</time>
      </trkpt>
      <trkpt lat="47.44101" lon="6.5432">
        <ele>290.48</ele>
        <time>2015-10-03T10:11:37Z</time>
      </trkpt>
      <trkpt lat="47.44101" lon="6.54328">
        <ele>290.649</ele>
        <time>2015-10-03T10:11:38Z</time>
      </trkpt>
      <trkpt lat="47.441" lon="6.54336">
        <ele>290.889</ele>
        <time>2015-10-03T10:11:39Z</time>
      </trkpt>
      <trkpt lat="47.44099" lon="6.54342">
        <ele>290.565</ele>
        <time>2015-10-03T10:11:40Z</time>
      </trkpt>
      <trkpt lat="47.44099" lon="6.54349">
        <ele>290.683</ele>
        <time>2015-10-03T10:11:41Z</time>
      </trkpt>
      <trkpt lat="47.44097" lon="6.54357">
        <ele>290.007</ele>
        <time>2015-10-03T10:11:42Z</time>
      </trkpt>
      <trkpt lat="47.44097" lon="6.54363">
        <ele>290.468</ele>
        <time>2015-10-03T10:11:43Z</time>
      </trkpt>
      <trkpt lat="47.44096" lon="6.54369">
        <ele>287.61</ele>
        <time>2015-10-03T10:11:44Z</time>
      </trkpt>
      <trkpt lat="47.44096" lon="6.54376">
        <ele>287.555</ele>
        <time>2015-10-03T10:11:45Z</time>
      </trkpt>
      <trkpt lat="47.44096" lon="6.54384">
        <ele>287.571</ele>
        <time>2015-10-03T10:11:46Z</time>
      </trkpt>
      <trkpt lat="47.44095" lon="6.54388">
        <ele>287.67</ele>
        <time>2015-10-03T10:11:47Z</time>
      </trkpt>
      <trkpt lat="47.44094" lon="6.54397">
        <ele>289.946</ele>
        <time>2015-10-03T10:11:48Z</time>
      </trkpt>
      <trkpt lat="47.44096" lon="6.54406">
        <ele>290.114</ele>
        <time>2015-10-03T10:11:49Z</time>
      </trkpt>
      <trkpt lat="47.44096" lon="6.54414">
        <ele>292.06</ele>
        <time>2015-10-03T10:11:50Z</time>
      </trkpt>
      <trkpt lat="47.44097" lon="6.54421">
        <ele>292.842</ele>
        <time>2015-10-03T10:11:51Z</time>
      </trkpt>
      <trkpt lat="47.44098" lon="6.54428">
        <ele>292.351</ele>
        <time>2015-10-03T10:11:52Z</time>
      </trkpt>
      <trkpt lat="47.44098" lon="6.54435">
        <ele>293.317</ele>
        <time>2015-10-03T10:11:53Z</time>
      </trkpt>
      <trkpt lat="47.44099" lon="6.54444">
        <ele>294.839</ele>
        <time>2015-10-03T10:11:54Z</time>
      </trkpt>
      <trkpt lat="47.441" lon="6.5445">
        <ele>294.713</ele>
        <time>2015-10-03T10:11:55Z</time>
      </trkpt>
      <trkpt lat="47.44102" lon="6.5446">
        <ele>294.724</ele>
        <time>2015-10-03T10:11:56Z</time>
      </trkpt>
      <trkpt lat="47.44102" lon="6.54467">
        <ele>295.138</ele>
        <time>2015-10-03T10:11:57Z</time>
      </trkpt>
      <trkpt lat="47.44102" lon="6.54475">
        <ele>295.025</ele>
        <time>2015-10-03T10:11:58Z</time>
      </trkpt>
      <trkpt lat="47.44102" lon="6.54482">
        <ele>294.684</ele>
        <time>2015-10-03T10:11:59Z</time>
      </trkpt>
      <trkpt lat="47.44103" lon="6.5449">
        <ele>296.104</ele>
        <time>2015-10-03T10:12:00Z</time>
      </trkpt>
      <trkpt lat="47.44104" lon="6.54497">
        <ele>296.493</ele>
        <time>2015-10-03T10:12:01Z</time>
      </trkpt>
      <trkpt lat="47.44105" lon="6.54503">
        <ele>296.978</ele>
        <time>2015-10-03T10:12:02Z</time>
      </trkpt>
      <trkpt lat="47.44106" lon="6.54511">
        <ele>296.126</ele>
        <time>2015-10-03T10:12:03Z</time>
      </trkpt>
      <trkpt lat="47.44107" lon="6.54517">
        <ele>296.028</ele>
        <time>2015-10-03T10:12:04Z</time>
      </trkpt>
      <trkpt lat="47.44107" lon="6.54524">
        <ele>294.723</ele>
        <time>2015-10-03T10:12:05Z</time>
      </trkpt>
      <trkpt lat="47.44108" lon="6.54532">
        <ele>295.533</ele>
        <time>2015-10-03T10:12:06Z</time>
      </trkpt>
      <trkpt lat="47.44108" lon="6.54538">
        <ele>295.748</ele>
        <time>2015-10-03T10:12:07Z</time>
      </trkpt>
      <trkpt lat="47.44109" lon="6.54545">
        <ele>295.76</ele>
        <time>2015-10-03T10:12:08Z</time>
      </trkpt>
      <trkpt lat="47.4411" lon="6.5455">
        <ele>295.632</ele>
        <time>2015-10-03T10:12:09Z</time>
      </trkpt>
      <trkpt lat="47.44111" lon="6.54556">
        <ele>296.66</ele>
        <time>2015-10-03T10:12:10Z</time>
      </trkpt>
      <trkpt lat="47.44111" lon="6.54562">
        <ele>296.914</ele>
        <time>2015-10-03T10:12:11Z</time>
      </trkpt>
      <trkpt lat="47.44111" lon="6.54568">
        <ele>297.469</ele>
        <time>2015-10-03T10:12:12Z</time>
      </trkpt>
      <trkpt lat="47.44111" lon="6.54574">
        <ele>297.115</ele>
        <time>2015-10-03T10:12:13Z</time>
      </trkpt>
      <trkpt lat="47.44112" lon="6.54579">
        <ele>297.299</ele>
        <time>2015-10-03T10:12:14Z</time>
      </trkpt>
      <trkpt lat="47.44112" lon="6.54584">
        <ele>297.381</ele>
        <time>2015-10-03T10:12:15Z</time>
      </trkpt>
      <trkpt lat="47.44115" lon="6.54591">
        <ele>296.93</ele>
        <time>2015-10-03T10:12:16Z</time>
      </trkpt>
      <trkpt lat="47.44116" lon="6.546">
        <ele>295.709</ele>
        <time>2015-10-03T10:12:17Z</time>
      </trkpt>
      <trkpt lat="47.44117" lon="6.54606">
        <ele>296.153</ele>
        <time>2015-10-03T10:12:18Z</time>
      </trkpt>
      <trkpt lat="47.44118" lon="6.54612">
        <ele>296.321</ele>
        <time>2015-10-03T10:12:19Z</time>
      </trkpt>
      <trkpt lat="47.4412" lon="6.54617">
        <ele>296.712</ele>
        <time>2015-10-03T10:12:20Z</time>
      </trkpt>
      <trkpt lat="47.44121" lon="6.54624">
        <ele>297.086</ele>
        <time>2015-10-03T10:12:21Z</time>
      </trkpt>
      <trkpt lat="47.44123" lon="6.54631">
        <ele>296.329</ele>
        <time>2015-10-03T10:12:22Z</time>
      </trkpt>
      <trkpt lat="47.44124" lon="6.54638">
        <ele>297.246</ele>
        <time>2015-10-03T10:12:23Z</time>
      </trkpt>
      <trkpt lat="47.44125" lon="6.54646">
        <ele>296.813</ele>
        <time>2015-10-03T10:12:24Z</time>
      </trkpt>
      <trkpt lat="47.44126" lon="6.54652">
        <ele>296.274</ele>
        <time>2015-10-03T10:12:25Z</time>
      </trkpt>
      <trkpt lat="47.44127" lon="6.54659">
        <ele>296.429</ele>
        <time>2015-10-03T10:12:26Z</time>
      </trkpt>
      <trkpt lat="47.44129" lon="6.54666">
        <ele>294.649</ele>
        <time>2015-10-03T10:12:27Z</time>
      </trkpt>
      <trkpt lat="47.44131" lon="6.54673">
        <ele>293.89</ele>
        <time>2015-10-03T10:12:28Z</time>
      </trkpt>
      <trkpt lat="47.44133" lon="6.54682">
        <ele>294.108</ele>
        <time>2015-10-03T10:12:29Z</time>
      </trkpt>
      <trkpt lat="47.44134" lon="6.54688">
        <ele>293.852</ele>
        <time>2015-10-03T10:12:30Z</time>
      </trkpt>
      <trkpt lat="47.44136" lon="6.54695">
        <ele>293.275</ele>
        <time>2015-10-03T10:12:31Z</time>
      </trkpt>
      <trkpt lat="47.44137" lon="6.547">
        <ele>292.777</ele>
        <time>2015-10-03T10:12:32Z</time>
      </trkpt>
      <trkpt lat="47.44138" lon="6.54706">
        <ele>293.495</ele>
        <time>2015-10-03T10:12:33Z</time>
      </trkpt>
      <trkpt lat="47.44139" lon="6.54712">
        <ele>293.467</ele>
        <time>2015-10-03T10:12:34Z</time>
      </trkpt>
      <trkpt lat="47.44141" lon="6.54719">
        <ele>293.069</ele>
        <time>2015-10-03T10:12:35Z</time>
      </trkpt>
      <trkpt lat="47.44142" lon="6.54726">
        <ele>293.575</ele>
        <time>2015-10-03T10:12:36Z</time>
      </trkpt>
      <trkpt lat="47.44144" lon="6.54732">
        <ele>294.833</ele>
        <time>2015-10-03T10:12:37Z</time>
      </trkpt>
      <trkpt lat="47.44145" lon="6.54738">
        <ele>295.393</ele>
        <time>2015-10-03T10:12:38Z</time>
      </trkpt>
      <trkpt lat="47.44146" lon="6.54744">
        <ele>295.845</ele>
        <time>2015-10-03T10:12:39Z</time>
      </trkpt>
      <trkpt lat="47.44148" lon="6.5475">
        <ele>296.521</ele>
        <time>2015-10-03T10:12:40Z</time>
      </trkpt>
      <trkpt lat="47.4415" lon="6.54757">
        <ele>296.314</ele>
        <time>2015-10-03T10:12:41Z</time>
      </trkpt>
      <trkpt lat="47.44152" lon="6.54765">
        <ele>296.436</ele>
        <time>2015-10-03T10:12:42Z</time>
      </trkpt>
      <trkpt lat="47.44154" lon="6.54772">
        <ele>296.357</ele>
        <time>2015-10-03T10:12:43Z</time>
      </trkpt>
      <trkpt lat="47.44154" lon="6.54778">
        <ele>296.435</ele>
        <time>2015-10-03T10:12:44Z</time>
      </trkpt>
      <trkpt lat="47.44155" lon="6.54784">
        <ele>296.718</ele>
        <time>2015-10-03T10:12:45Z</time>
      </trkpt>
      <trkpt lat="47.44157" lon="6.54791">
        <ele>296.958</ele>
        <time>2015-10-03T10:12:46Z</time>
      </trkpt>
      <trkpt lat="47.44159" lon="6.54797">
        <ele>298.032</ele>
        <time>2015-10-03T10:12:47Z</time>
      </trkpt>
      <trkpt lat="47.4416" lon="6.54805">
        <ele>298.59</ele>
        <time>2015-10-03T10:12:48Z</time>
      </trkpt>
      <trkpt lat="47.44161" lon="6.54811">
        <ele>299.239</ele>
        <time>2015-10-03T10:12:49Z</time>
      </trkpt>
      <trkpt lat="47.44162" lon="6.54817">
        <ele>298.759</ele>
        <time>2015-10-03T10:12:50Z</time>
      </trkpt>
      <trkpt lat="47.44163" lon="6.54824">
        <ele>299.2</ele>
        <time>2015-10-03T10:12:51Z</time>
      </trkpt>
      <trkpt lat="47.44164" lon="6.54831">
        <ele>299.579</ele>
        <time>2015-10-03T10:12:52Z</time>
      </trkpt>
      <trkpt lat="47.44165" lon="6.54838">
        <ele>300.158</ele>
        <time>2015-10-03T10:12:53Z</time>
      </trkpt>
      <trkpt lat="47.44166" lon="6.54844">
        <ele>301.115</ele>
        <time>2015-10-03T10:12:54Z</time>
      </trkpt>
      <trkpt lat="47.44166" lon="6.5485">
        <ele>301.006</ele>
        <time>2015-10-03T10:12:55Z</time>
      </trkpt>
      <trkpt lat="47.44167" lon="6.54857">
        <ele>300.954</ele>
        <time>2015-10-03T10:12:56Z</time>
      </trkpt>
      <trkpt lat="47.44168" lon="6.54862">
        <ele>300.472</ele>
        <time>2015-10-03T10:12:57Z</time>
      </trkpt>
      <trkpt lat="47.44169" lon="6.54869">
        <ele>300.341</ele>
        <time>2015-10-03T10:12:58Z</time>
      </trkpt>
      <trkpt lat="47.44171" lon="6.54875">
        <ele>300.275</ele>
        <time>2015-10-03T10:12:59Z</time>
      </trkpt>
      <trkpt lat="47.44172" lon="6.54882">
        <ele>300.034</ele>
        <time>2015-10-03T10:13:00Z</time>
      </trkpt>
      <trkpt lat="47.44173" lon="6.54889">
        <ele>300.23</ele>
        <time>2015-10-03T10:13:01Z</time>
      </trkpt>
      <trkpt lat="47.44173" lon="6.54896">
        <ele>300.265</ele>
        <time>2015-10-03T10:13:02Z</time>
      </trkpt>
      <trkpt lat="47.44174" lon="6.54903">
        <ele>300.517</ele>
        <time>2015-10-03T10:13:03Z</time>
      </trkpt>
      <trkpt lat="47.44175" lon="6.5491">
        <ele>301.06</ele>
        <time>2015-10-03T10:13:04Z</time>
      </trkpt>
      <trkpt lat="47.44177" lon="6.54918">
        <ele>299.974</ele>
        <time>2015-10-03T10:13:05Z</time>
      </trkpt>
      <trkpt lat="47.44177" lon="6.54925">
        <ele>300.217</ele>
        <time>2015-10-03T10:13:06Z</time>
      </trkpt>
      <trkpt lat="47.44178" lon="6.54931">
        <ele>300.593</ele>
        <time>2015-10-03T10:13:07Z</time>
      </trkpt>
      <trkpt lat="47.4418" lon="6.54938">
        <ele>300.473</ele>
        <time>2015-10-03T10:13:08Z</time>
      </trkpt>
      <trkpt lat="47.4418" lon="6.54944">
        <ele>300.601</ele>
        <time>2015-10-03T10:13:09Z</time>
      </trkpt>
      <trkpt lat="47.44182" lon="6.54952">
        <ele>300.061</ele>
        <time>2015-10-03T10:13:10Z</time>
      </trkpt>
      <trkpt lat="47.44183" lon="6.54959">
        <ele>299.854</ele>
        <time>2015-10-03T10:13:11Z</time>
      </trkpt>
      <trkpt lat="47.44184" lon="6.54966">
        <ele>299.583</ele>
        <time>2015-10-03T10:13:12Z</time>
      </trkpt>
      <trkpt lat="47.44185" lon="6.54972">
        <ele>299.541</ele>
        <time>2015-10-03T10:13:13Z</time>
      </trkpt>
      <trkpt lat="47.44187" lon="6.54979">
        <ele>298.704</ele>
        <time>2015-10-03T10:13:14Z</time>
      </trkpt>
      <trkpt lat="47.4419" lon="6.54987">
        <ele>297.865</ele>
        <time>2015-10-03T10:13:15Z</time>
      </trkpt>
      <trkpt lat="47.44191" lon="6.54994">
        <ele>298.065</ele>
        <time>2015-10-03T10:13:16Z</time>
      </trkpt>
      <trkpt lat="47.44192" lon="6.55001">
        <ele>297.792</ele>
        <time>2015-10-03T10:13:17Z</time>
      </trkpt>
      <trkpt lat="47.44192" lon="6.55007">
        <ele>297.961</ele>
        <time>2015-10-03T10:13:18Z</time>
      </trkpt>
      <trkpt lat="47.44193" lon="6.55014">
        <ele>297.911</ele>
        <time>2015-10-03T10:13:19Z</time>
      </trkpt>
      <trkpt lat="47.44193" lon="6.5502">
        <ele>297.93</ele>
        <time>2015-10-03T10:13:20Z</time>
      </trkpt>
      <trkpt lat="47.44195" lon="6.55026">
        <ele>297.822</ele>
        <time>2015-10-03T10:13:21Z</time>
      </trkpt>
      <trkpt lat="47.44196" lon="6.55031">
        <ele>298.246</ele>
        <time>2015-10-03T10:13:22Z</time>
      </trkpt>
      <trkpt lat="47.44197" lon="6.55037">
        <ele>298.252</ele>
        <time>2015-10-03T10:13:23Z</time>
      </trkpt>
      <trkpt lat="47.44198" lon="6.55043">
        <ele>298.245</ele>
        <time>2015-10-03T10:13:24Z</time>
      </trkpt>
      <trkpt lat="47.442" lon="6.5505">
        <ele>298.454</ele>
        <time>2015-10-03T10:13:25Z</time>
      </trkpt>
      <trkpt lat="47.442" lon="6.55056">
        <ele>298.557</ele>
        <time>2015-10-03T10:13:26Z</time>
      </trkpt>
      <trkpt lat="47.44201" lon="6.55062">
        <ele>298.761</ele>
        <time>2015-10-03T10:13:27Z</time>
      </trkpt>
      <trkpt lat="47.44202" lon="6.55068">
        <ele>299.132</ele>
        <time>2015-10-03T10:13:28Z</time>
      </trkpt>
      <trkpt lat="47.44202" lon="6.55075">
        <ele>299.173</ele>
        <time>2015-10-03T10:13:29Z</time>
      </trkpt>
      <trkpt lat="47.44204" lon="6.55081">
        <ele>295.626</ele>
        <time>2015-10-03T10:13:30Z</time>
      </trkpt>
      <trkpt lat="47.44204" lon="6.55087">
        <ele>295.132</ele>
        <time>2015-10-03T10:13:31Z</time>
      </trkpt>
      <trkpt lat="47.44205" lon="6.55094">
        <ele>295.299</ele>
        <time>2015-10-03T10:13:32Z</time>
      </trkpt>
      <trkpt lat="47.44206" lon="6.55101">
        <ele>294.897</ele>
        <time>2015-10-03T10:13:33Z</time>
      </trkpt>
      <trkpt lat="47.44206" lon="6.55108">
        <ele>295.662</ele>
        <time>2015-10-03T10:13:34Z</time>
      </trkpt>
      <trkpt lat="47.44208" lon="6.55117">
        <ele>294.965</ele>
        <time>2015-10-03T10:13:35Z</time>
      </trkpt>
      <trkpt lat="47.44209" lon="6.55123">
        <ele>294.971</ele>
        <time>2015-10-03T10:13:36Z</time>
      </trkpt>
      <trkpt lat="47.4421" lon="6.55129">
        <ele>295.497</ele>
        <time>2015-10-03T10:13:37Z</time>
      </trkpt>
      <trkpt lat="47.4421" lon="6.55135">
        <ele>296.617</ele>
        <time>2015-10-03T10:13:38Z</time>
      </trkpt>
      <trkpt lat="47.4421" lon="6.55142">
        <ele>296.641</ele>
        <time>2015-10-03T10:13:39Z</time>
      </trkpt>
      <trkpt lat="47.44211" lon="6.5515">
        <ele>296.529</ele>
        <time>2015-10-03T10:13:40Z</time>
      </trkpt>
      <trkpt lat="47.4421" lon="6.55157">
        <ele>297.201</ele>
        <time>2015-10-03T10:13:41Z</time>
      </trkpt>
      <trkpt lat="47.4421" lon="6.55165">
        <ele>297.162</ele>
        <time>2015-10-03T10:13:42Z</time>
      </trkpt>
      <trkpt lat="47.44211" lon="6.55171">
        <ele>297.299</ele>
        <time>2015-10-03T10:13:43Z</time>
      </trkpt>
      <trkpt lat="47.44211" lon="6.55178">
        <ele>297.51</ele>
        <time>2015-10-03T10:13:44Z</time>
      </trkpt>
      <trkpt lat="47.44211" lon="6.55184">
        <ele>296.982</ele>
        <time>2015-10-03T10:13:45Z</time>
      </trkpt>
      <trkpt lat="47.44211" lon="6.55193">
        <ele>298.433</ele>
        <time>2015-10-03T10:13:46Z</time>
      </trkpt>
      <trkpt lat="47.44211" lon="6.55199">
        <ele>299.474</ele>
        <time>2015-10-03T10:13:47Z</time>
      </trkpt>
      <trkpt lat="47.44211" lon="6.55205">
        <ele>298.839</ele>
        <time>2015-10-03T10:13:48Z</time>
      </trkpt>
      <trkpt lat="47.4421" lon="6.55211">
        <ele>299.446</ele>
        <time>2015-10-03T10:13:49Z</time>
      </trkpt>
      <trkpt lat="47.4421" lon="6.55217">
        <ele>299.888</ele>
        <time>2015-10-03T10:13:50Z</time>
      </trkpt>
      <trkpt lat="47.4421" lon="6.55225">
        <ele>298.106</ele>
        <time>2015-10-03T10:13:51Z</time>
      </trkpt>
      <trkpt lat="47.4421" lon="6.5523">
        <ele>297.835</ele>
        <time>2015-10-03T10:13:52Z</time>
      </trkpt>
      <trkpt lat="47.44211" lon="6.55236">
        <ele>297.945</ele>
        <time>2015-10-03T10:13:53Z</time>
      </trkpt>
      <trkpt lat="47.44211" lon="6.55244">
        <ele>297.216</ele>
        <time>2015-10-03T10:13:54Z</time>
      </trkpt>
      <trkpt lat="47.44211" lon="6.55249">
        <ele>296.942</ele>
        <time>2015-10-03T10:13:55Z</time>
      </trkpt>
      <trkpt lat="47.4421" lon="6.55256">
        <ele>296.429</ele>
        <time>2015-10-03T10:13:56Z</time>
      </trkpt>
      <trkpt lat="47.4421" lon="6.55264">
        <ele>297.484</ele>
        <time>2015-10-03T10:13:57Z</time>
      </trkpt>
      <trkpt lat="47.4421" lon="6.55267">
        <ele>294.946</ele>
        <time>2015-10-03T10:13:58Z</time>
      </trkpt>
      <trkpt lat="47.4421" lon="6.55275">
        <ele>294.894</ele>
        <time>2015-10-03T10:13:59Z</time>
      </trkpt>
      <trkpt lat="47.44209" lon="6.55282">
        <ele>294.167</ele>
        <time>2015-10-03T10:14:00Z</time>
      </trkpt>
      <trkpt lat="47.44209" lon="6.55288">
        <ele>294.136</ele>
        <time>2015-10-03T10:14:01Z</time>
      </trkpt>
      <trkpt lat="47.44208" lon="6.55291">
        <ele>292.59</ele>
        <time>2015-10-03T10:14:02Z</time>
      </trkpt>
      <trkpt lat="47.44209" lon="6.55299">
        <ele>293.663</ele>
        <time>2015-10-03T10:14:03Z</time>
      </trkpt>
      <trkpt lat="47.44208" lon="6.55306">
        <ele>293.88</ele>
        <time>2015-10-03T10:14:04Z</time>
      </trkpt>
      <trkpt lat="47.44207" lon="6.55312">
        <ele>294.144</ele>
        <time>2015-10-03T10:14:05Z</time>
      </trkpt>
      <trkpt lat="47.44207" lon="6.5532">
        <ele>294.623</ele>
        <time>2015-10-03T10:14:06Z</time>
      </trkpt>
      <trkpt lat="47.44205" lon="6.55321">
        <ele>292.499</ele>
        <time>2015-10-03T10:14:07Z</time>
      </trkpt>
      <trkpt lat="47.44204" lon="6.55327">
        <ele>293.116</ele>
        <time>2015-10-03T10:14:08Z</time>
      </trkpt>
      <trkpt lat="47.44202" lon="6.55333">
        <ele>292.859</ele>
        <time>2015-10-03T10:14:09Z</time>
      </trkpt>
      <trkpt lat="47.44202" lon="6.5534">
        <ele>293.374</ele>
        <time>2015-10-03T10:14:10Z</time>
      </trkpt>
      <trkpt lat="47.44201" lon="6.55346">
        <ele>293.233</ele>
        <time>2015-10-03T10:14:11Z</time>
      </trkpt>
      <trkpt lat="47.44201" lon="6.55355">
        <ele>293.533</ele>
        <time>2015-10-03T10:14:12Z</time>
      </trkpt>
      <trkpt lat="47.44201" lon="6.55365">
        <ele>293.643</ele>
        <time>2015-10-03T10:14:13Z</time>
      </trkpt>
      <trkpt lat="47.44201" lon="6.55371">
        <ele>292.94</ele>
        <time>2015-10-03T10:14:14Z</time>
      </trkpt>
      <trkpt lat="47.442" lon="6.55377">
        <ele>294.984</ele>
        <time>2015-10-03T10:14:15Z</time>
      </trkpt>
      <trkpt lat="47.442" lon="6.55385">
        <ele>295.072</ele>
        <time>2015-10-03T10:14:16Z</time>
      </trkpt>
      <trkpt lat="47.44199" lon="6.55394">
        <ele>294.156</ele>
        <time>2015-10-03T10:14:17Z</time>
      </trkpt>
      <trkpt lat="47.44199" lon="6.55403">
        <ele>294.743</ele>
        <time>2015-10-03T10:14:18Z</time>
      </trkpt>
      <trkpt lat="47.44197" lon="6.5541">
        <ele>295.418</ele>
        <time>2015-10-03T10:14:19Z</time>
      </trkpt>
      <trkpt lat="47.44197" lon="6.55413">
        <ele>293.356</ele>
        <time>2015-10-03T10:14:20Z</time>
      </trkpt>
      <trkpt lat="47.44196" lon="6.55417">
        <ele>291.217</ele>
        <time>2015-10-03T10:14:21Z</time>
      </trkpt>
      <trkpt lat="47.44195" lon="6.55424">
        <ele>291.39</ele>
        <time>2015-10-03T10:14:22Z</time>
      </trkpt>
      <trkpt lat="47.44193" lon="6.5543">
        <ele>292.525</ele>
        <time>2015-10-03T10:14:23Z</time>
      </trkpt>
      <trkpt lat="47.44192" lon="6.55436">
        <ele>292.185</ele>
        <time>2015-10-03T10:14:24Z</time>
      </trkpt>
      <trkpt lat="47.44192" lon="6.55443">
        <ele>292.08</ele>
        <time>2015-10-03T10:14:25Z</time>
      </trkpt>
      <trkpt lat="47.44192" lon="6.55449">
        <ele>291.924</ele>
        <time>2015-10-03T10:14:26Z</time>
      </trkpt>
      <trkpt lat="47.44192" lon="6.55451">
        <ele>291.166</ele>
        <time>2015-10-03T10:14:27Z</time>
      </trkpt>
      <trkpt lat="47.44191" lon="6.55456">
        <ele>291.256</ele>
        <time>2015-10-03T10:14:28Z</time>
      </trkpt>
      <trkpt lat="47.44191" lon="6.55461">
        <ele>291.749</ele>
        <time>2015-10-03T10:14:29Z</time>
      </trkpt>
      <trkpt lat="47.44192" lon="6.55463">
        <ele>292.03</ele>
        <time>2015-10-03T10:14:30Z</time>
      </trkpt>
      <trkpt lat="47.44192" lon="6.55465">
        <ele>292.457</ele>
        <time>2015-10-03T10:14:31Z</time>
      </trkpt>
      <trkpt lat="47.44193" lon="6.55465">
        <ele>294.169</ele>
        <time>2015-10-03T10:14:37Z</time>
      </trkpt>
      <trkpt lat="47.44194" lon="6.55468">
        <ele>298.517</ele>
        <time>2015-10-03T10:18:19Z</time>
      </trkpt>
      <trkpt lat="47.44196" lon="6.55472">
        <ele>300.772</ele>
        <time>2015-10-03T10:18:31Z</time>
      </trkpt>
      <trkpt lat="47.44196" lon="6.55474">
        <ele>298.819</ele>
        <time>2015-10-03T10:18:32Z</time>
      </trkpt>
      <trkpt lat="47.44196" lon="6.55475">
        <ele>299.195</ele>
        <time>2015-10-03T10:18:33Z</time>
      </trkpt>
      <trkpt lat="47.44195" lon="6.55477">
        <ele>299.484</ele>
        <time>2015-10-03T10:18:34Z</time>
      </trkpt>
      <trkpt lat="47.44194" lon="6.55476">
        <ele>298.244</ele>
        <time>2015-10-03T10:18:36Z</time>
      </trkpt>
      <trkpt lat="47.44194" lon="6.55475">
        <ele>295.848</ele>
        <time>2015-10-03T10:18:38Z</time>
      </trkpt>
      <trkpt lat="47.44192" lon="6.55473">
        <ele>294.474</ele>
        <time>2015-10-03T10:19:01Z</time>
      </trkpt>
      <trkpt lat="47.44191" lon="6.55473">
        <ele>294.055</ele>
        <time>2015-10-03T10:19:09Z</time>
      </trkpt>
      <trkpt lat="47.44191" lon="6.55472">
        <ele>293.087</ele>
        <time>2015-10-03T10:19:50Z</time>
      </trkpt>
      <trkpt lat="47.44191" lon="6.55472">
        <ele>294.726</ele>
        <time>2015-10-03T10:19:52Z</time>
      </trkpt>
      <trkpt lat="47.44193" lon="6.55473">
        <ele>295.003</ele>
        <time>2015-10-03T10:19:54Z</time>
      </trkpt>
      <trkpt lat="47.44194" lon="6.55472">
        <ele>294.716</ele>
        <time>2015-10-03T10:19:56Z</time>
      </trkpt>
      <trkpt lat="47.44195" lon="6.55471">
        <ele>294.934</ele>
        <time>2015-10-03T10:19:58Z</time>
      </trkpt>
      <trkpt lat="47.44195" lon="6.5547">
        <ele>296.06</ele>
        <time>2015-10-03T10:20:04Z</time>
      </trkpt>
      <trkpt lat="47.44193" lon="6.5547">
        <ele>296.542</ele>
        <time>2015-10-03T10:20:37Z</time>
      </trkpt>
      <trkpt lat="47.44192" lon="6.55471">
        <ele>296.458</ele>
        <time>2015-10-03T10:21:09Z</time>
      </trkpt>
      <trkpt lat="47.44192" lon="6.5547">
        <ele>295.958</ele>
        <time>2015-10-03T10:21:14Z</time>
      </trkpt>
      <trkpt lat="47.44192" lon="6.55468">
        <ele>296.112</ele>
        <time>2015-10-03T10:21:16Z</time>
      </trkpt>
      <trkpt lat="47.44191" lon="6.55467">
        <ele>295.125</ele>
        <time>2015-10-03T10:22:28Z</time>
      </trkpt>
      <trkpt lat="47.44192" lon="6.55468">
        <ele>295.285</ele>
        <time>2015-10-03T10:22:30Z</time>
      </trkpt>
      <trkpt lat="47.44193" lon="6.55469">
        <ele>297.413</ele>
        <time>2015-10-03T10:22:32Z</time>
      </trkpt>
      <trkpt lat="47.44193" lon="6.5547">
        <ele>298.848</ele>
        <time>2015-10-03T10:22:34Z</time>
      </trkpt>
      <trkpt lat="47.44192" lon="6.55469">
        <ele>298.144</ele>
        <time>2015-10-03T10:23:18Z</time>
      </trkpt>
      <trkpt lat="47.44193" lon="6.55473">
        <ele>296.291</ele>
        <time>2015-10-03T10:23:34Z</time>
      </trkpt>
      <trkpt lat="47.44191" lon="6.55472">
        <ele>293.149</ele>
        <time>2015-10-03T10:23:50Z</time>
      </trkpt>
      <trkpt lat="47.4419" lon="6.55474">
        <ele>292.3</ele>
        <time>2015-10-03T10:24:04Z</time>
      </trkpt>
      <trkpt lat="47.44191" lon="6.55476">
        <ele>292.862</ele>
        <time>2015-10-03T10:24:07Z</time>
      </trkpt>
      <trkpt lat="47.44191" lon="6.55479">
        <ele>294.714</ele>
        <time>2015-10-03T10:24:11Z</time>
      </trkpt>
      <trkpt lat="47.44191" lon="6.55481">
        <ele>295.267</ele>
        <time>2015-10-03T10:24:12Z</time>
      </trkpt>
      <trkpt lat="47.44192" lon="6.55484">
        <ele>296.264</ele>
        <time>2015-10-03T10:24:13Z</time>
      </trkpt>
      <trkpt lat="47.44193" lon="6.55487">
        <ele>297.663</ele>
        <time>2015-10-03T10:24:14Z</time>
      </trkpt>
      <trkpt lat="47.44194" lon="6.55491">
        <ele>297.086</ele>
        <time>2015-10-03T10:24:15Z</time>
      </trkpt>
      <trkpt lat="47.44196" lon="6.55495">
        <ele>296.721</ele>
        <time>2015-10-03T10:24:16Z</time>
      </trkpt>
      <trkpt lat="47.44197" lon="6.55499">
        <ele>296.77</ele>
        <time>2015-10-03T10:24:17Z</time>
      </trkpt>
      <trkpt lat="47.44199" lon="6.55504">
        <ele>297.023</ele>
        <time>2015-10-03T10:24:18Z</time>
      </trkpt>
      <trkpt lat="47.44201" lon="6.55508">
        <ele>297.063</ele>
        <time>2015-10-03T10:24:19Z</time>
      </trkpt>
      <trkpt lat="47.44203" lon="6.55513">
        <ele>296.903</ele>
        <time>2015-10-03T10:24:20Z</time>
      </trkpt>
      <trkpt lat="47.44204" lon="6.55518">
        <ele>296.908</ele>
        <time>2015-10-03T10:24:21Z</time>
      </trkpt>
      <trkpt lat="47.44206" lon="6.55522">
        <ele>295.319</ele>
        <time>2015-10-03T10:24:22Z</time>
      </trkpt>
      <trkpt lat="47.44207" lon="6.55527">
        <ele>294.439</ele>
        <time>2015-10-03T10:24:23Z</time>
      </trkpt>
      <trkpt lat="47.44209" lon="6.55533">
        <ele>293.693</ele>
        <time>2015-10-03T10:24:24Z</time>
      </trkpt>
      <trkpt lat="47.4421" lon="6.55538">
        <ele>292.416</ele>
        <time>2015-10-03T10:24:25Z</time>
      </trkpt>
      <trkpt lat="47.44211" lon="6.55543">
        <ele>292.075</ele>
        <time>2015-10-03T10:24:26Z</time>
      </trkpt>
      <trkpt lat="47.44212" lon="6.55549">
        <ele>292.662</ele>
        <time>2015-10-03T10:24:27Z</time>
      </trkpt>
      <trkpt lat="47.44213" lon="6.55555">
        <ele>292.605</ele>
        <time>2015-10-03T10:24:28Z</time>
      </trkpt>
      <trkpt lat="47.44214" lon="6.5556">
        <ele>293.1</ele>
        <time>2015-10-03T10:24:29Z</time>
      </trkpt>
      <trkpt lat="47.44215" lon="6.55567">
        <ele>292.374</ele>
        <time>2015-10-03T10:24:30Z</time>
      </trkpt>
      <trkpt lat="47.44216" lon="6.55572">
        <ele>290.987</ele>
        <time>2015-10-03T10:24:31Z</time>
      </trkpt>
      <trkpt lat="47.44216" lon="6.55578">
        <ele>291.152</ele>
        <time>2015-10-03T10:24:32Z</time>
      </trkpt>
      <trkpt lat="47.44216" lon="6.55584">
        <ele>291.526</ele>
        <time>2015-10-03T10:24:33Z</time>
      </trkpt>
      <trkpt lat="47.44217" lon="6.55591">
        <ele>291.495</ele>
        <time>2015-10-03T10:24:34Z</time>
      </trkpt>
      <trkpt lat="47.44217" lon="6.55597">
        <ele>291.04</ele>
        <time>2015-10-03T10:24:35Z</time>
      </trkpt>
      <trkpt lat="47.44217" lon="6.55602">
        <ele>289.418</ele>
        <time>2015-10-03T10:24:36Z</time>
      </trkpt>
      <trkpt lat="47.44217" lon="6.55607">
        <ele>289.419</ele>
        <time>2015-10-03T10:24:37Z</time>
      </trkpt>
      <trkpt lat="47.44217" lon="6.55612">
        <ele>290.948</ele>
        <time>2015-10-03T10:24:38Z</time>
      </trkpt>
      <trkpt lat="47.44217" lon="6.55618">
        <ele>290.474</ele>
        <time>2015-10-03T10:24:39Z</time>
      </trkpt>
      <trkpt lat="47.44218" lon="6.55624">
        <ele>293.185</ele>
        <time>2015-10-03T10:24:40Z</time>
      </trkpt>
      <trkpt lat="47.44218" lon="6.55631">
        <ele>294.909</ele>
        <time>2015-10-03T10:24:41Z</time>
      </trkpt>
      <trkpt lat="47.44218" lon="6.55636">
        <ele>295.755</ele>
        <time>2015-10-03T10:24:42Z</time>
      </trkpt>
      <trkpt lat="47.44219" lon="6.55643">
        <ele>295.918</ele>
        <time>2015-10-03T10:24:43Z</time>
      </trkpt>
      <trkpt lat="47.44219" lon="6.55649">
        <ele>296.612</ele>
        <time>2015-10-03T10:24:44Z</time>
      </trkpt>
      <trkpt lat="47.44219" lon="6.55654">
        <ele>295.118</ele>
        <time>2015-10-03T10:24:45Z</time>
      </trkpt>
      <trkpt lat="47.44218" lon="6.5566">
        <ele>297.124</ele>
        <time>2015-10-03T10:24:46Z</time>
      </trkpt>
      <trkpt lat="47.44218" lon="6.55666">
        <ele>297.132</ele>
        <time>2015-10-03T10:24:47Z</time>
      </trkpt>
      <trkpt lat="47.44218" lon="6.55672">
        <ele>295.739</ele>
        <time>2015-10-03T10:24:48Z</time>
      </trkpt>
      <trkpt lat="47.44219" lon="6.55678">
        <ele>295.392</ele>
        <time>2015-10-03T10:24:49Z</time>
      </trkpt>
      <trkpt lat="47.4422" lon="6.55686">
        <ele>293.493</ele>
        <time>2015-10-03T10:24:50Z</time>
      </trkpt>
      <trkpt lat="47.44221" lon="6.55693">
        <ele>293.437</ele>
        <time>2015-10-03T10:24:51Z</time>
      </trkpt>
      <trkpt lat="47.44221" lon="6.55701">
        <ele>293.509</ele>
        <time>2015-10-03T10:24:52Z</time>
      </trkpt>
      <trkpt lat="47.44222" lon="6.55706">
        <ele>294.073</ele>
        <time>2015-10-03T10:24:53Z</time>
      </trkpt>
      <trkpt lat="47.44221" lon="6.55712">
        <ele>292.688</ele>
        <time>2015-10-03T10:24:54Z</time>
      </trkpt>
      <trkpt lat="47.44221" lon="6.55718">
        <ele>292.793</ele>
        <time>2015-10-03T10:24:55Z</time>
      </trkpt>
      <trkpt lat="47.44222" lon="6.55726">
        <ele>292.36</ele>
        <time>2015-10-03T10:24:56Z</time>
      </trkpt>
      <trkpt lat="47.44221" lon="6.55729">
        <ele>289.587</ele>
        <time>2015-10-03T10:24:57Z</time>
      </trkpt>
      <trkpt lat="47.44222" lon="6.55736">
        <ele>288.863</ele>
        <time>2015-10-03T10:24:58Z</time>
      </trkpt>
      <trkpt lat="47.44223" lon="6.55743">
        <ele>289.85</ele>
        <time>2015-10-03T10:24:59Z</time>
      </trkpt>
      <trkpt lat="47.44223" lon="6.5575">
        <ele>290.273</ele>
        <time>2015-10-03T10:25:00Z</time>
      </trkpt>
      <trkpt lat="47.44223" lon="6.55756">
        <ele>290.005</ele>
        <time>2015-10-03T10:25:01Z</time>
      </trkpt>
      <trkpt lat="47.44224" lon="6.55762">
        <ele>289.334</ele>
        <time>2015-10-03T10:25:02Z</time>
      </trkpt>
      <trkpt lat="47.44224" lon="6.5577">
        <ele>289.553</ele>
        <time>2015-10-03T10:25:03Z</time>
      </trkpt>
      <trkpt lat="47.44225" lon="6.55777">
        <ele>290.164</ele>
        <time>2015-10-03T10:25:04Z</time>
      </trkpt>
      <trkpt lat="47.44227" lon="6.55785">
        <ele>291.531</ele>
        <time>2015-10-03T10:25:05Z</time>
      </trkpt>
      <trkpt lat="47.44228" lon="6.5579">
        <ele>292.735</ele>
        <time>2015-10-03T10:25:06Z</time>
      </trkpt>
      <trkpt lat="47.44229" lon="6.55796">
        <ele>293.335</ele>
        <time>2015-10-03T10:25:07Z</time>
      </trkpt>
      <trkpt lat="47.44232" lon="6.55804">
        <ele>297.629</ele>
        <time>2015-10-03T10:25:08Z</time>
      </trkpt>
      <trkpt lat="47.44234" lon="6.55809">
        <ele>301.135</ele>
        <time>2015-10-03T10:25:09Z</time>
      </trkpt>
      <trkpt lat="47.44235" lon="6.55814">
        <ele>300.548</ele>
        <time>2015-10-03T10:25:10Z</time>
      </trkpt>
      <trkpt lat="47.44238" lon="6.55819">
        <ele>298.112</ele>
        <time>2015-10-03T10:25:11Z</time>
      </trkpt>
      <trkpt lat="47.4424" lon="6.55824">
        <ele>297.447</ele>
        <time>2015-10-03T10:25:12Z</time>
      </trkpt>
      <trkpt lat="47.44241" lon="6.5583">
        <ele>297.113</ele>
        <time>2015-10-03T10:25:13Z</time>
      </trkpt>
      <trkpt lat="47.44243" lon="6.55835">
        <ele>296.069</ele>
        <time>2015-10-03T10:25:14Z</time>
      </trkpt>
      <trkpt lat="47.44245" lon="6.55841">
        <ele>295.538</ele>
        <time>2015-10-03T10:25:15Z</time>
      </trkpt>
      <trkpt lat="47.44248" lon="6.55845">
        <ele>294.738</ele>
        <time>2015-10-03T10:25:16Z</time>
      </trkpt>
      <trkpt lat="47.4425" lon="6.5585">
        <ele>296.421</ele>
        <time>2015-10-03T10:25:17Z</time>
      </trkpt>
      <trkpt lat="47.44252" lon="6.55854">
        <ele>296.168</ele>
        <time>2015-10-03T10:25:18Z</time>
      </trkpt>
      <trkpt lat="47.44253" lon="6.55856">
        <ele>294.746</ele>
        <time>2015-10-03T10:25:19Z</time>
      </trkpt>
      <trkpt lat="47.44255" lon="6.55859">
        <ele>292.946</ele>
        <time>2015-10-03T10:25:20Z</time>
      </trkpt>
      <trkpt lat="47.44258" lon="6.55865">
        <ele>292.626</ele>
        <time>2015-10-03T10:25:21Z</time>
      </trkpt>
      <trkpt lat="47.4426" lon="6.55871">
        <ele>293.794</ele>
        <time>2015-10-03T10:25:22Z</time>
      </trkpt>
      <trkpt lat="47.44263" lon="6.55876">
        <ele>292.323</ele>
        <time>2015-10-03T10:25:23Z</time>
      </trkpt>
      <trkpt lat="47.44266" lon="6.55883">
        <ele>290.645</ele>
        <time>2015-10-03T10:25:24Z</time>
      </trkpt>
      <trkpt lat="47.44269" lon="6.55887">
        <ele>290.292</ele>
        <time>2015-10-03T10:25:25Z</time>
      </trkpt>
      <trkpt lat="47.44271" lon="6.55894">
        <ele>287.609</ele>
        <time>2015-10-03T10:25:26Z</time>
      </trkpt>
      <trkpt lat="47.44274" lon="6.55898">
        <ele>288.509</ele>
        <time>2015-10-03T10:25:27Z</time>
      </trkpt>
      <trkpt lat="47.44275" lon="6.55903">
        <ele>289.959</ele>
        <time>2015-10-03T10:25:28Z</time>
      </trkpt>
      <trkpt lat="47.44278" lon="6.5591">
        <ele>289.805</ele>
        <time>2015-10-03T10:25:29Z</time>
      </trkpt>
      <trkpt lat="47.4428" lon="6.55915">
        <ele>290.5</ele>
        <time>2015-10-03T10:25:30Z</time>
      </trkpt>
      <trkpt lat="47.44282" lon="6.55921">
        <ele>290.902</ele>
        <time>2015-10-03T10:25:31Z</time>
      </trkpt>
      <trkpt lat="47.44284" lon="6.55926">
        <ele>291.037</ele>
        <time>2015-10-03T10:25:32Z</time>
      </trkpt>
      <trkpt lat="47.44287" lon="6.55932">
        <ele>291.406</ele>
        <time>2015-10-03T10:25:33Z</time>
      </trkpt>
      <trkpt lat="47.44289" lon="6.55938">
        <ele>291.908</ele>
        <time>2015-10-03T10:25:34Z</time>
      </trkpt>
      <trkpt lat="47.44291" lon="6.55944">
        <ele>292.277</ele>
        <time>2015-10-03T10:25:35Z</time>
      </trkpt>
      <trkpt lat="47.44293" lon="6.55948">
        <ele>292.277</ele>
        <time>2015-10-03T10:25:36Z</time>
      </trkpt>
      <trkpt lat="47.44295" lon="6.55953">
        <ele>292.104</ele>
        <time>2015-10-03T10:25:37Z</time>
      </trkpt>
      <trkpt lat="47.44297" lon="6.55958">
        <ele>293.313</ele>
        <time>2015-10-03T10:25:38Z</time>
      </trkpt>
      <trkpt lat="47.44301" lon="6.5596">
        <ele>293.838</ele>
        <time>2015-10-03T10:25:39Z</time>
      </trkpt>
      <trkpt lat="47.44304" lon="6.55965">
        <ele>294.504</ele>
        <time>2015-10-03T10:25:40Z</time>
      </trkpt>
      <trkpt lat="47.44307" lon="6.55967">
        <ele>293.401</ele>
        <time>2015-10-03T10:25:41Z</time>
      </trkpt>
      <trkpt lat="47.44309" lon="6.55971">
        <ele>294.052</ele>
        <time>2015-10-03T10:25:42Z</time>
      </trkpt>
      <trkpt lat="47.44312" lon="6.55976">
        <ele>295.482</ele>
        <time>2015-10-03T10:25:43Z</time>
      </trkpt>
      <trkpt lat="47.44312" lon="6.55981">
        <ele>300.809</ele>
        <time>2015-10-03T10:25:44Z</time>
      </trkpt>
      <trkpt lat="47.44315" lon="6.55987">
        <ele>300.661</ele>
        <time>2015-10-03T10:25:45Z</time>
      </trkpt>
      <trkpt lat="47.44317" lon="6.55992">
        <ele>301.427</ele>
        <time>2015-10-03T10:25:46Z</time>
      </trkpt>
      <trkpt lat="47.4432" lon="6.55996">
        <ele>302.192</ele>
        <time>2015-10-03T10:25:47Z</time>
      </trkpt>
      <trkpt lat="47.44322" lon="6.56">
        <ele>300.523</ele>
        <time>2015-10-03T10:25:48Z</time>
      </trkpt>
      <trkpt lat="47.44325" lon="6.56005">
        <ele>299.665</ele>
        <time>2015-10-03T10:25:49Z</time>
      </trkpt>
      <trkpt lat="47.44327" lon="6.5601">
        <ele>298.965</ele>
        <time>2015-10-03T10:25:50Z</time>
      </trkpt>
      <trkpt lat="47.44329" lon="6.56015">
        <ele>299.036</ele>
        <time>2015-10-03T10:25:51Z</time>
      </trkpt>
      <trkpt lat="47.44332" lon="6.5602">
        <ele>298.007</ele>
        <time>2015-10-03T10:25:52Z</time>
      </trkpt>
      <trkpt lat="47.44333" lon="6.56024">
        <ele>299.14</ele>
        <time>2015-10-03T10:25:53Z</time>
      </trkpt>
      <trkpt lat="47.44335" lon="6.56028">
        <ele>300.959</ele>
        <time>2015-10-03T10:25:54Z</time>
      </trkpt>
      <trkpt lat="47.44337" lon="6.56032">
        <ele>300.394</ele>
        <time>2015-10-03T10:25:55Z</time>
      </trkpt>
      <trkpt lat="47.4434" lon="6.56034">
        <ele>300.797</ele>
        <time>2015-10-03T10:25:56Z</time>
      </trkpt>
      <trkpt lat="47.44342" lon="6.56037">
        <ele>300.329</ele>
        <time>2015-10-03T10:25:57Z</time>
      </trkpt>
      <trkpt lat="47.44343" lon="6.5604">
        <ele>296.85</ele>
        <time>2015-10-03T10:25:58Z</time>
      </trkpt>
      <trkpt lat="47.44345" lon="6.56044">
        <ele>296.375</ele>
        <time>2015-10-03T10:25:59Z</time>
      </trkpt>
      <trkpt lat="47.44346" lon="6.56049">
        <ele>295.939</ele>
        <time>2015-10-03T10:26:00Z</time>
      </trkpt>
      <trkpt lat="47.44347" lon="6.56054">
        <ele>294.936</ele>
        <time>2015-10-03T10:26:01Z</time>
      </trkpt>
      <trkpt lat="47.44349" lon="6.5606">
        <ele>295.319</ele>
        <time>2015-10-03T10:26:02Z</time>
      </trkpt>
      <trkpt lat="47.44349" lon="6.56065">
        <ele>295.08</ele>
        <time>2015-10-03T10:26:03Z</time>
      </trkpt>
      <trkpt lat="47.44351" lon="6.56071">
        <ele>295.343</ele>
        <time>2015-10-03T10:26:04Z</time>
      </trkpt>
      <trkpt lat="47.44352" lon="6.56077">
        <ele>295.02</ele>
        <time>2015-10-03T10:26:05Z</time>
      </trkpt>
      <trkpt lat="47.44354" lon="6.56083">
        <ele>293.623</ele>
        <time>2015-10-03T10:26:06Z</time>
      </trkpt>
      <trkpt lat="47.44355" lon="6.56089">
        <ele>292.283</ele>
        <time>2015-10-03T10:26:07Z</time>
      </trkpt>
      <trkpt lat="47.44357" lon="6.56094">
        <ele>292.584</ele>
        <time>2015-10-03T10:26:08Z</time>
      </trkpt>
      <trkpt lat="47.44358" lon="6.561">
        <ele>292.297</ele>
        <time>2015-10-03T10:26:09Z</time>
      </trkpt>
      <trkpt lat="47.44359" lon="6.56106">
        <ele>293.208</ele>
        <time>2015-10-03T10:26:10Z</time>
      </trkpt>
      <trkpt lat="47.44361" lon="6.56111">
        <ele>294.265</ele>
        <time>2015-10-03T10:26:11Z</time>
      </trkpt>
      <trkpt lat="47.44362" lon="6.56116">
        <ele>294.867</ele>
        <time>2015-10-03T10:26:12Z</time>
      </trkpt>
      <trkpt lat="47.44363" lon="6.56122">
        <ele>295.418</ele>
        <time>2015-10-03T10:26:13Z</time>
      </trkpt>
      <trkpt lat="47.44364" lon="6.56127">
        <ele>295.663</ele>
        <time>2015-10-03T10:26:14Z</time>
      </trkpt>
      <trkpt lat="47.44365" lon="6.56133">
        <ele>295.607</ele>
        <time>2015-10-03T10:26:15Z</time>
      </trkpt>
      <trkpt lat="47.44366" lon="6.56139">
        <ele>296.577</ele>
        <time>2015-10-03T10:26:16Z</time>
      </trkpt>
      <trkpt lat="47.44367" lon="6.56145">
        <ele>298.055</ele>
        <time>2015-10-03T10:26:17Z</time>
      </trkpt>
      <trkpt lat="47.44367" lon="6.5615">
        <ele>297.704</ele>
        <time>2015-10-03T10:26:18Z</time>
      </trkpt>
      <trkpt lat="47.44368" lon="6.56155">
        <ele>296.63</ele>
        <time>2015-10-03T10:26:19Z</time>
      </trkpt>
      <trkpt lat="47.44368" lon="6.56161">
        <ele>296.983</ele>
        <time>2015-10-03T10:26:20Z</time>
      </trkpt>
      <trkpt lat="47.44368" lon="6.56167">
        <ele>296.693</ele>
        <time>2015-10-03T10:26:21Z</time>
      </trkpt>
      <trkpt lat="47.44368" lon="6.56172">
        <ele>296.204</ele>
        <time>2015-10-03T10:26:22Z</time>
      </trkpt>
      <trkpt lat="47.44368" lon="6.56178">
        <ele>296.637</ele>
        <time>2015-10-03T10:26:23Z</time>
      </trkpt>
      <trkpt lat="47.44368" lon="6.56184">
        <ele>295.695</ele>
        <time>2015-10-03T10:26:24Z</time>
      </trkpt>
      <trkpt lat="47.44368" lon="6.5619">
        <ele>294.277</ele>
        <time>2015-10-03T10:26:25Z</time>
      </trkpt>
      <trkpt lat="47.44367" lon="6.56196">
        <ele>293.806</ele>
        <time>2015-10-03T10:26:26Z</time>
      </trkpt>
      <trkpt lat="47.44367" lon="6.56201">
        <ele>292.992</ele>
        <time>2015-10-03T10:26:27Z</time>
      </trkpt>
      <trkpt lat="47.44366" lon="6.56206">
        <ele>291.948</ele>
        <time>2015-10-03T10:26:28Z</time>
      </trkpt>
      <trkpt lat="47.44365" lon="6.56212">
        <ele>291.9</ele>
        <time>2015-10-03T10:26:29Z</time>
      </trkpt>
      <trkpt lat="47.44363" lon="6.56216">
        <ele>290.341</ele>
        <time>2015-10-03T10:26:30Z</time>
      </trkpt>
      <trkpt lat="47.44362" lon="6.56223">
        <ele>290.204</ele>
        <time>2015-10-03T10:26:31Z</time>
      </trkpt>
      <trkpt lat="47.4436" lon="6.56227">
        <ele>289.483</ele>
        <time>2015-10-03T10:26:32Z</time>
      </trkpt>
      <trkpt lat="47.44359" lon="6.56237">
        <ele>287.937</ele>
        <time>2015-10-03T10:26:33Z</time>
      </trkpt>
      <trkpt lat="47.44359" lon="6.56244">
        <ele>286.013</ele>
        <time>2015-10-03T10:26:34Z</time>
      </trkpt>
      <trkpt lat="47.44359" lon="6.56252">
        <ele>286.601</ele>
        <time>2015-10-03T10:26:35Z</time>
      </trkpt>
      <trkpt lat="47.44357" lon="6.56257">
        <ele>286.488</ele>
        <time>2015-10-03T10:26:36Z</time>
      </trkpt>
      <trkpt lat="47.44354" lon="6.56263">
        <ele>287.425</ele>
        <time>2015-10-03T10:26:37Z</time>
      </trkpt>
      <trkpt lat="47.4435" lon="6.56267">
        <ele>288.676</ele>
        <time>2015-10-03T10:26:38Z</time>
      </trkpt>
      <trkpt lat="47.44348" lon="6.56273">
        <ele>288.924</ele>
        <time>2015-10-03T10:26:39Z</time>
      </trkpt>
      <trkpt lat="47.44345" lon="6.56276">
        <ele>288.514</ele>
        <time>2015-10-03T10:26:40Z</time>
      </trkpt>
      <trkpt lat="47.44341" lon="6.5628">
        <ele>289.291</ele>
        <time>2015-10-03T10:26:41Z</time>
      </trkpt>
      <trkpt lat="47.44338" lon="6.56283">
        <ele>289.667</ele>
        <time>2015-10-03T10:26:42Z</time>
      </trkpt>
      <trkpt lat="47.44335" lon="6.56286">
        <ele>289.652</ele>
        <time>2015-10-03T10:26:43Z</time>
      </trkpt>
      <trkpt lat="47.44331" lon="6.56288">
        <ele>289.717</ele>
        <time>2015-10-03T10:26:44Z</time>
      </trkpt>
      <trkpt lat="47.44327" lon="6.56292">
        <ele>289.466</ele>
        <time>2015-10-03T10:26:45Z</time>
      </trkpt>
      <trkpt lat="47.44324" lon="6.56293">
        <ele>290.151</ele>
        <time>2015-10-03T10:26:46Z</time>
      </trkpt>
      <trkpt lat="47.44321" lon="6.56295">
        <ele>291.435</ele>
        <time>2015-10-03T10:26:47Z</time>
      </trkpt>
      <trkpt lat="47.44318" lon="6.56296">
        <ele>292.116</ele>
        <time>2015-10-03T10:26:48Z</time>
      </trkpt>
      <trkpt lat="47.44311" lon="6.56296">
        <ele>292.379</ele>
        <time>2015-10-03T10:26:49Z</time>
      </trkpt>
      <trkpt lat="47.44307" lon="6.56297">
        <ele>291.868</ele>
        <time>2015-10-03T10:26:50Z</time>
      </trkpt>
      <trkpt lat="47.44303" lon="6.56299">
        <ele>291.942</ele>
        <time>2015-10-03T10:26:51Z</time>
      </trkpt>
      <trkpt lat="47.44297" lon="6.56301">
        <ele>291.685</ele>
        <time>2015-10-03T10:26:52Z</time>
      </trkpt>
      <trkpt lat="47.44294" lon="6.56305">
        <ele>291.085</ele>
        <time>2015-10-03T10:26:53Z</time>
      </trkpt>
      <trkpt lat="47.44292" lon="6.5631">
        <ele>291.468</ele>
        <time>2015-10-03T10:26:54Z</time>
      </trkpt>
      <trkpt lat="47.44286" lon="6.56311">
        <ele>289.94</ele>
        <time>2015-10-03T10:26:55Z</time>
      </trkpt>
      <trkpt lat="47.44282" lon="6.56311">
        <ele>291.101</ele>
        <time>2015-10-03T10:26:56Z</time>
      </trkpt>
      <trkpt lat="47.44278" lon="6.56311">
        <ele>292.169</ele>
        <time>2015-10-03T10:26:57Z</time>
      </trkpt>
      <trkpt lat="47.44272" lon="6.56311">
        <ele>291.376</ele>
        <time>2015-10-03T10:26:58Z</time>
      </trkpt>
      <trkpt lat="47.44269" lon="6.5631">
        <ele>291.318</ele>
        <time>2015-10-03T10:26:59Z</time>
      </trkpt>
      <trkpt lat="47.44264" lon="6.56309">
        <ele>291.634</ele>
        <time>2015-10-03T10:27:00Z</time>
      </trkpt>
      <trkpt lat="47.4426" lon="6.56308">
        <ele>291.43</ele>
        <time>2015-10-03T10:27:01Z</time>
      </trkpt>
      <trkpt lat="47.44256" lon="6.56307">
        <ele>292.01</ele>
        <time>2015-10-03T10:27:02Z</time>
      </trkpt>
      <trkpt lat="47.44252" lon="6.56305">
        <ele>292.835</ele>
        <time>2015-10-03T10:27:03Z</time>
      </trkpt>
      <trkpt lat="47.44248" lon="6.56304">
        <ele>293.791</ele>
        <time>2015-10-03T10:27:04Z</time>
      </trkpt>
      <trkpt lat="47.44243" lon="6.56302">
        <ele>292.669</ele>
        <time>2015-10-03T10:27:05Z</time>
      </trkpt>
      <trkpt lat="47.44238" lon="6.56302">
        <ele>291.783</ele>
        <time>2015-10-03T10:27:06Z</time>
      </trkpt>
      <trkpt lat="47.44234" lon="6.56304">
        <ele>292.249</ele>
        <time>2015-10-03T10:27:07Z</time>
      </trkpt>
      <trkpt lat="47.4423" lon="6.56305">
        <ele>293.127</ele>
        <time>2015-10-03T10:27:08Z</time>
      </trkpt>
      <trkpt lat="47.44226" lon="6.56308">
        <ele>292.617</ele>
        <time>2015-10-03T10:27:09Z</time>
      </trkpt>
      <trkpt lat="47.44223" lon="6.56312">
        <ele>293.093</ele>
        <time>2015-10-03T10:27:10Z</time>
      </trkpt>
      <trkpt lat="47.44221" lon="6.56317">
        <ele>293.099</ele>
        <time>2015-10-03T10:27:11Z</time>
      </trkpt>
      <trkpt lat="47.4422" lon="6.56323">
        <ele>294.161</ele>
        <time>2015-10-03T10:27:12Z</time>
      </trkpt>
      <trkpt lat="47.4422" lon="6.56329">
        <ele>294.064</ele>
        <time>2015-10-03T10:27:13Z</time>
      </trkpt>
      <trkpt lat="47.44219" lon="6.56335">
        <ele>293.948</ele>
        <time>2015-10-03T10:27:14Z</time>
      </trkpt>
      <trkpt lat="47.44219" lon="6.5634">
        <ele>294.804</ele>
        <time>2015-10-03T10:27:15Z</time>
      </trkpt>
      <trkpt lat="47.4422" lon="6.56346">
        <ele>296.009</ele>
        <time>2015-10-03T10:27:16Z</time>
      </trkpt>
      <trkpt lat="47.4422" lon="6.56352">
        <ele>295.305</ele>
        <time>2015-10-03T10:27:17Z</time>
      </trkpt>
      <trkpt lat="47.4422" lon="6.56358">
        <ele>295.806</ele>
        <time>2015-10-03T10:27:18Z</time>
      </trkpt>
      <trkpt lat="47.4422" lon="6.56363">
        <ele>295.737</ele>
        <time>2015-10-03T10:27:19Z</time>
      </trkpt>
      <trkpt lat="47.4422" lon="6.56369">
        <ele>296.38</ele>
        <time>2015-10-03T10:27:20Z</time>
      </trkpt>
      <trkpt lat="47.4422" lon="6.56376">
        <ele>296.951</ele>
        <time>2015-10-03T10:27:21Z</time>
      </trkpt>
      <trkpt lat="47.4422" lon="6.56383">
        <ele>296.237</ele>
        <time>2015-10-03T10:27:22Z</time>
      </trkpt>
      <trkpt lat="47.44224" lon="6.56398">
        <ele>296.854</ele>
        <time>2015-10-03T10:27:23Z</time>
      </trkpt>
      <trkpt lat="47.44225" lon="6.56405">
        <ele>296.337</ele>
        <time>2015-10-03T10:27:24Z</time>
      </trkpt>
      <trkpt lat="47.44225" lon="6.56414">
        <ele>298.128</ele>
        <time>2015-10-03T10:27:25Z</time>
      </trkpt>
      <trkpt lat="47.44224" lon="6.56418">
        <ele>297.951</ele>
        <time>2015-10-03T10:27:26Z</time>
      </trkpt>
      <trkpt lat="47.44225" lon="6.56425">
        <ele>296.486</ele>
        <time>2015-10-03T10:27:27Z</time>
      </trkpt>
      <trkpt lat="47.44224" lon="6.56429">
        <ele>294.247</ele>
        <time>2015-10-03T10:27:28Z</time>
      </trkpt>
      <trkpt lat="47.44224" lon="6.56436">
        <ele>294.151</ele>
        <time>2015-10-03T10:27:29Z</time>
      </trkpt>
      <trkpt lat="47.44224" lon="6.56442">
        <ele>294.327</ele>
        <time>2015-10-03T10:27:30Z</time>
      </trkpt>
      <trkpt lat="47.44224" lon="6.56448">
        <ele>294.459</ele>
        <time>2015-10-03T10:27:31Z</time>
      </trkpt>
      <trkpt lat="47.44225" lon="6.56454">
        <ele>294.51</ele>
        <time>2015-10-03T10:27:32Z</time>
      </trkpt>
      <trkpt lat="47.44225" lon="6.5646">
        <ele>295.164</ele>
        <time>2015-10-03T10:27:33Z</time>
      </trkpt>
      <trkpt lat="47.44225" lon="6.56466">
        <ele>295.166</ele>
        <time>2015-10-03T10:27:34Z</time>
      </trkpt>
      <trkpt lat="47.44225" lon="6.56471">
        <ele>294.389</ele>
        <time>2015-10-03T10:27:35Z</time>
      </trkpt>
      <trkpt lat="47.44225" lon="6.56476">
        <ele>294.868</ele>
        <time>2015-10-03T10:27:36Z</time>
      </trkpt>
      <trkpt lat="47.44225" lon="6.56481">
        <ele>295.46</ele>
        <time>2015-10-03T10:27:37Z</time>
      </trkpt>
      <trkpt lat="47.44225" lon="6.56487">
        <ele>297.075</ele>
        <time>2015-10-03T10:27:38Z</time>
      </trkpt>
      <trkpt lat="47.44225" lon="6.56492">
        <ele>297.215</ele>
        <time>2015-10-03T10:27:39Z</time>
      </trkpt>
      <trkpt lat="47.44226" lon="6.56499">
        <ele>296.649</ele>
        <time>2015-10-03T10:27:40Z</time>
      </trkpt>
      <trkpt lat="47.44226" lon="6.56506">
        <ele>295.827</ele>
        <time>2015-10-03T10:27:41Z</time>
      </trkpt>
      <trkpt lat="47.44227" lon="6.56513">
        <ele>293.348</ele>
        <time>2015-10-03T10:27:42Z</time>
      </trkpt>
      <trkpt lat="47.44229" lon="6.56522">
        <ele>293.567</ele>
        <time>2015-10-03T10:27:43Z</time>
      </trkpt>
      <trkpt lat="47.44229" lon="6.56528">
        <ele>293.003</ele>
        <time>2015-10-03T10:27:44Z</time>
      </trkpt>
      <trkpt lat="47.44228" lon="6.56533">
        <ele>293.159</ele>
        <time>2015-10-03T10:27:45Z</time>
      </trkpt>
      <trkpt lat="47.44229" lon="6.56538">
        <ele>293.239</ele>
        <time>2015-10-03T10:27:46Z</time>
      </trkpt>
      <trkpt lat="47.44229" lon="6.56544">
        <ele>293.312</ele>
        <time>2015-10-03T10:27:47Z</time>
      </trkpt>
      <trkpt lat="47.44228" lon="6.56546">
        <ele>291.629</ele>
        <time>2015-10-03T10:27:48Z</time>
      </trkpt>
      <trkpt lat="47.44229" lon="6.56555">
        <ele>293.791</ele>
        <time>2015-10-03T10:27:49Z</time>
      </trkpt>
      <trkpt lat="47.44229" lon="6.56561">
        <ele>293.166</ele>
        <time>2015-10-03T10:27:50Z</time>
      </trkpt>
      <trkpt lat="47.4423" lon="6.56567">
        <ele>293.78</ele>
        <time>2015-10-03T10:27:51Z</time>
      </trkpt>
      <trkpt lat="47.44229" lon="6.56574">
        <ele>294.362</ele>
        <time>2015-10-03T10:27:52Z</time>
      </trkpt>
      <trkpt lat="47.44228" lon="6.56578">
        <ele>294.981</ele>
        <time>2015-10-03T10:27:53Z</time>
      </trkpt>
      <trkpt lat="47.44227" lon="6.56583">
        <ele>296.055</ele>
        <time>2015-10-03T10:27:54Z</time>
      </trkpt>
      <trkpt lat="47.44226" lon="6.56589">
        <ele>295.625</ele>
        <time>2015-10-03T10:27:55Z</time>
      </trkpt>
      <trkpt lat="47.44225" lon="6.56595">
        <ele>294.956</ele>
        <time>2015-10-03T10:27:56Z</time>
      </trkpt>
      <trkpt lat="47.44225" lon="6.56601">
        <ele>293.512</ele>
        <time>2015-10-03T10:27:57Z</time>
      </trkpt>
      <trkpt lat="47.44224" lon="6.56607">
        <ele>293.595</ele>
        <time>2015-10-03T10:27:58Z</time>
      </trkpt>
      <trkpt lat="47.44223" lon="6.56612">
        <ele>291.941</ele>
        <time>2015-10-03T10:27:59Z</time>
      </trkpt>
      <trkpt lat="47.44222" lon="6.56618">
        <ele>290.402</ele>
        <time>2015-10-03T10:28:00Z</time>
      </trkpt>
      <trkpt lat="47.44221" lon="6.56624">
        <ele>290.307</ele>
        <time>2015-10-03T10:28:01Z</time>
      </trkpt>
      <trkpt lat="47.4422" lon="6.56631">
        <ele>288.72</ele>
        <time>2015-10-03T10:28:02Z</time>
      </trkpt>
      <trkpt lat="47.4422" lon="6.56637">
        <ele>288.229</ele>
        <time>2015-10-03T10:28:03Z</time>
      </trkpt>
      <trkpt lat="47.4422" lon="6.56645">
        <ele>288.761</ele>
        <time>2015-10-03T10:28:04Z</time>
      </trkpt>
      <trkpt lat="47.44217" lon="6.56652">
        <ele>288.745</ele>
        <time>2015-10-03T10:28:05Z</time>
      </trkpt>
      <trkpt lat="47.44218" lon="6.56655">
        <ele>289.427</ele>
        <time>2015-10-03T10:28:06Z</time>
      </trkpt>
      <trkpt lat="47.44217" lon="6.56661">
        <ele>289.047</ele>
        <time>2015-10-03T10:28:07Z</time>
      </trkpt>
      <trkpt lat="47.44219" lon="6.5667">
        <ele>288.882</ele>
        <time>2015-10-03T10:28:08Z</time>
      </trkpt>
      <trkpt lat="47.44218" lon="6.56678">
        <ele>290.108</ele>
        <time>2015-10-03T10:28:09Z</time>
      </trkpt>
      <trkpt lat="47.44217" lon="6.56683">
        <ele>290.046</ele>
        <time>2015-10-03T10:28:10Z</time>
      </trkpt>
      <trkpt lat="47.44217" lon="6.56691">
        <ele>292.397</ele>
        <time>2015-10-03T10:28:11Z</time>
      </trkpt>
      <trkpt lat="47.44216" lon="6.56697">
        <ele>292.567</ele>
        <time>2015-10-03T10:28:12Z</time>
      </trkpt>
      <trkpt lat="47.44215" lon="6.56703">
        <ele>292.745</ele>
        <time>2015-10-03T10:28:13Z</time>
      </trkpt>
      <trkpt lat="47.44214" lon="6.56705">
        <ele>291.489</ele>
        <time>2015-10-03T10:28:14Z</time>
      </trkpt>
      <trkpt lat="47.44212" lon="6.56713">
        <ele>292.045</ele>
        <time>2015-10-03T10:28:15Z</time>
      </trkpt>
      <trkpt lat="47.44213" lon="6.56721">
        <ele>292.552</ele>
        <time>2015-10-03T10:28:16Z</time>
      </trkpt>
      <trkpt lat="47.44214" lon="6.56728">
        <ele>294.709</ele>
        <time>2015-10-03T10:28:17Z</time>
      </trkpt>
      <trkpt lat="47.44213" lon="6.56736">
        <ele>295.651</ele>
        <time>2015-10-03T10:28:18Z</time>
      </trkpt>
      <trkpt lat="47.44214" lon="6.56741">
        <ele>294.921</ele>
        <time>2015-10-03T10:28:19Z</time>
      </trkpt>
      <trkpt lat="47.44215" lon="6.56751">
        <ele>294.806</ele>
        <time>2015-10-03T10:28:20Z</time>
      </trkpt>
      <trkpt lat="47.44215" lon="6.56757">
        <ele>294.564</ele>
        <time>2015-10-03T10:28:21Z</time>
      </trkpt>
      <trkpt lat="47.44215" lon="6.56764">
        <ele>295.808</ele>
        <time>2015-10-03T10:28:22Z</time>
      </trkpt>
      <trkpt lat="47.44215" lon="6.5677">
        <ele>296.357</ele>
        <time>2015-10-03T10:28:23Z</time>
      </trkpt>
      <trkpt lat="47.44216" lon="6.56777">
        <ele>296.417</ele>
        <time>2015-10-03T10:28:24Z</time>
      </trkpt>
      <trkpt lat="47.44216" lon="6.56783">
        <ele>296.132</ele>
        <time>2015-10-03T10:28:25Z</time>
      </trkpt>
      <trkpt lat="47.44216" lon="6.56789">
        <ele>296.597</ele>
        <time>2015-10-03T10:28:26Z</time>
      </trkpt>
      <trkpt lat="47.44217" lon="6.56795">
        <ele>296.404</ele>
        <time>2015-10-03T10:28:27Z</time>
      </trkpt>
      <trkpt lat="47.4422" lon="6.56803">
        <ele>296.326</ele>
        <time>2015-10-03T10:28:28Z</time>
      </trkpt>
      <trkpt lat="47.44221" lon="6.56809">
        <ele>297.23</ele>
        <time>2015-10-03T10:28:29Z</time>
      </trkpt>
      <trkpt lat="47.44221" lon="6.56814">
        <ele>297.795</ele>
        <time>2015-10-03T10:28:30Z</time>
      </trkpt>
      <trkpt lat="47.44222" lon="6.56821">
        <ele>298.009</ele>
        <time>2015-10-03T10:28:31Z</time>
      </trkpt>
      <trkpt lat="47.44223" lon="6.56827">
        <ele>298.212</ele>
        <time>2015-10-03T10:28:32Z</time>
      </trkpt>
      <trkpt lat="47.44224" lon="6.56832">
        <ele>298.433</ele>
        <time>2015-10-03T10:28:33Z</time>
      </trkpt>
      <trkpt lat="47.44224" lon="6.56838">
        <ele>298.517</ele>
        <time>2015-10-03T10:28:34Z</time>
      </trkpt>
      <trkpt lat="47.44225" lon="6.56843">
        <ele>298.69</ele>
        <time>2015-10-03T10:28:35Z</time>
      </trkpt>
      <trkpt lat="47.44227" lon="6.5685">
        <ele>299.741</ele>
        <time>2015-10-03T10:28:36Z</time>
      </trkpt>
      <trkpt lat="47.44228" lon="6.56855">
        <ele>299.41</ele>
        <time>2015-10-03T10:28:37Z</time>
      </trkpt>
      <trkpt lat="47.4423" lon="6.56861">
        <ele>299.085</ele>
        <time>2015-10-03T10:28:38Z</time>
      </trkpt>
      <trkpt lat="47.44231" lon="6.56867">
        <ele>298.41</ele>
        <time>2015-10-03T10:28:39Z</time>
      </trkpt>
      <trkpt lat="47.44232" lon="6.56872">
        <ele>297.248</ele>
        <time>2015-10-03T10:28:40Z</time>
      </trkpt>
      <trkpt lat="47.44234" lon="6.56877">
        <ele>298.285</ele>
        <time>2015-10-03T10:28:41Z</time>
      </trkpt>
      <trkpt lat="47.44235" lon="6.56882">
        <ele>299.416</ele>
        <time>2015-10-03T10:28:42Z</time>
      </trkpt>
      <trkpt lat="47.44237" lon="6.56887">
        <ele>298.251</ele>
        <time>2015-10-03T10:28:43Z</time>
      </trkpt>
      <trkpt lat="47.44239" lon="6.56893">
        <ele>298.631</ele>
        <time>2015-10-03T10:28:44Z</time>
      </trkpt>
      <trkpt lat="47.44241" lon="6.56898">
        <ele>297.821</ele>
        <time>2015-10-03T10:28:45Z</time>
      </trkpt>
      <trkpt lat="47.44243" lon="6.56903">
        <ele>297.329</ele>
        <time>2015-10-03T10:28:46Z</time>
      </trkpt>
      <trkpt lat="47.44245" lon="6.56908">
        <ele>296.826</ele>
        <time>2015-10-03T10:28:47Z</time>
      </trkpt>
      <trkpt lat="47.44247" lon="6.56913">
        <ele>296.205</ele>
        <time>2015-10-03T10:28:48Z</time>
      </trkpt>
      <trkpt lat="47.4425" lon="6.56919">
        <ele>296.73</ele>
        <time>2015-10-03T10:28:49Z</time>
      </trkpt>
      <trkpt lat="47.44253" lon="6.56924">
        <ele>295.653</ele>
        <time>2015-10-03T10:28:50Z</time>
      </trkpt>
      <trkpt lat="47.44255" lon="6.56929">
        <ele>295.63</ele>
        <time>2015-10-03T10:28:51Z</time>
      </trkpt>
      <trkpt lat="47.44258" lon="6.56934">
        <ele>294.257</ele>
        <time>2015-10-03T10:28:52Z</time>
      </trkpt>
      <trkpt lat="47.4426" lon="6.56939">
        <ele>295.722</ele>
        <time>2015-10-03T10:28:53Z</time>
      </trkpt>
      <trkpt lat="47.44262" lon="6.56944">
        <ele>296.829</ele>
        <time>2015-10-03T10:28:54Z</time>
      </trkpt>
      <trkpt lat="47.44264" lon="6.56949">
        <ele>296.73</ele>
        <time>2015-10-03T10:28:55Z</time>
      </trkpt>
      <trkpt lat="47.44266" lon="6.56954">
        <ele>297.244</ele>
        <time>2015-10-03T10:28:56Z</time>
      </trkpt>
      <trkpt lat="47.44268" lon="6.56959">
        <ele>298.058</ele>
        <time>2015-10-03T10:28:57Z</time>
      </trkpt>
      <trkpt lat="47.4427" lon="6.56964">
        <ele>297.975</ele>
        <time>2015-10-03T10:28:58Z</time>
      </trkpt>
      <trkpt lat="47.44272" lon="6.56969">
        <ele>297.96</ele>
        <time>2015-10-03T10:28:59Z</time>
      </trkpt>
      <trkpt lat="47.44274" lon="6.56974">
        <ele>298.152</ele>
        <time>2015-10-03T10:29:00Z</time>
      </trkpt>
      <trkpt lat="47.44275" lon="6.56974">
        <ele>296.22</ele>
        <time>2015-10-03T10:29:01Z</time>
      </trkpt>
      <trkpt lat="47.44278" lon="6.56979">
        <ele>295.915</ele>
        <time>2015-10-03T10:29:02Z</time>
      </trkpt>
      <trkpt lat="47.44281" lon="6.56985">
        <ele>296.692</ele>
        <time>2015-10-03T10:29:03Z</time>
      </trkpt>
      <trkpt lat="47.44283" lon="6.56989">
        <ele>297.259</ele>
        <time>2015-10-03T10:29:04Z</time>
      </trkpt>
      <trkpt lat="47.44285" lon="6.56994">
        <ele>298.094</ele>
        <time>2015-10-03T10:29:05Z</time>
      </trkpt>
      <trkpt lat="47.44288" lon="6.57">
        <ele>298.649</ele>
        <time>2015-10-03T10:29:06Z</time>
      </trkpt>
      <trkpt lat="47.44291" lon="6.57005">
        <ele>298.1</ele>
        <time>2015-10-03T10:29:07Z</time>
      </trkpt>
      <trkpt lat="47.44293" lon="6.5701">
        <ele>299.243</ele>
        <time>2015-10-03T10:29:08Z</time>
      </trkpt>
      <trkpt lat="47.44295" lon="6.57014">
        <ele>299.876</ele>
        <time>2015-10-03T10:29:09Z</time>
      </trkpt>
      <trkpt lat="47.443" lon="6.5702">
        <ele>297.96</ele>
        <time>2015-10-03T10:29:10Z</time>
      </trkpt>
      <trkpt lat="47.44303" lon="6.57025">
        <ele>299.007</ele>
        <time>2015-10-03T10:29:11Z</time>
      </trkpt>
      <trkpt lat="47.44306" lon="6.57031">
        <ele>299.779</ele>
        <time>2015-10-03T10:29:12Z</time>
      </trkpt>
      <trkpt lat="47.44308" lon="6.57037">
        <ele>299.508</ele>
        <time>2015-10-03T10:29:13Z</time>
      </trkpt>
      <trkpt lat="47.4431" lon="6.57037">
        <ele>294.433</ele>
        <time>2015-10-03T10:29:14Z</time>
      </trkpt>
      <trkpt lat="47.44312" lon="6.57041">
        <ele>292.477</ele>
        <time>2015-10-03T10:29:15Z</time>
      </trkpt>
      <trkpt lat="47.44315" lon="6.57045">
        <ele>292.993</ele>
        <time>2015-10-03T10:29:16Z</time>
      </trkpt>
      <trkpt lat="47.44318" lon="6.57051">
        <ele>292.664</ele>
        <time>2015-10-03T10:29:17Z</time>
      </trkpt>
      <trkpt lat="47.4432" lon="6.57051">
        <ele>288.118</ele>
        <time>2015-10-03T10:29:18Z</time>
      </trkpt>
      <trkpt lat="47.44323" lon="6.57057">
        <ele>287.918</ele>
        <time>2015-10-03T10:29:19Z</time>
      </trkpt>
      <trkpt lat="47.44326" lon="6.57063">
        <ele>288.051</ele>
        <time>2015-10-03T10:29:20Z</time>
      </trkpt>
      <trkpt lat="47.44329" lon="6.57067">
        <ele>288.594</ele>
        <time>2015-10-03T10:29:21Z</time>
      </trkpt>
      <trkpt lat="47.44331" lon="6.57072">
        <ele>289.419</ele>
        <time>2015-10-03T10:29:22Z</time>
      </trkpt>
      <trkpt lat="47.44334" lon="6.57078">
        <ele>290.327</ele>
        <time>2015-10-03T10:29:23Z</time>
      </trkpt>
      <trkpt lat="47.44337" lon="6.57084">
        <ele>288.89</ele>
        <time>2015-10-03T10:29:24Z</time>
      </trkpt>
      <trkpt lat="47.44341" lon="6.57092">
        <ele>289.804</ele>
        <time>2015-10-03T10:29:25Z</time>
      </trkpt>
      <trkpt lat="47.44344" lon="6.57096">
        <ele>291.52</ele>
        <time>2015-10-03T10:29:26Z</time>
      </trkpt>
      <trkpt lat="47.44345" lon="6.571">
        <ele>290.862</ele>
        <time>2015-10-03T10:29:27Z</time>
      </trkpt>
      <trkpt lat="47.44348" lon="6.57105">
        <ele>291.575</ele>
        <time>2015-10-03T10:29:28Z</time>
      </trkpt>
      <trkpt lat="47.44351" lon="6.57112">
        <ele>294.092</ele>
        <time>2015-10-03T10:29:29Z</time>
      </trkpt>
      <trkpt lat="47.44355" lon="6.57118">
        <ele>293.736</ele>
        <time>2015-10-03T10:29:30Z</time>
      </trkpt>
      <trkpt lat="47.44358" lon="6.57122">
        <ele>294.509</ele>
        <time>2015-10-03T10:29:31Z</time>
      </trkpt>
      <trkpt lat="47.44361" lon="6.57121">
        <ele>287.216</ele>
        <time>2015-10-03T10:29:32Z</time>
      </trkpt>
      <trkpt lat="47.44364" lon="6.57124">
        <ele>287.964</ele>
        <time>2015-10-03T10:29:33Z</time>
      </trkpt>
      <trkpt lat="47.44367" lon="6.57128">
        <ele>288.456</ele>
        <time>2015-10-03T10:29:34Z</time>
      </trkpt>
      <trkpt lat="47.4437" lon="6.5713">
        <ele>288.835</ele>
        <time>2015-10-03T10:29:35Z</time>
      </trkpt>
      <trkpt lat="47.44373" lon="6.57135">
        <ele>289.129</ele>
        <time>2015-10-03T10:29:36Z</time>
      </trkpt>
      <trkpt lat="47.44376" lon="6.57142">
        <ele>291.628</ele>
        <time>2015-10-03T10:29:37Z</time>
      </trkpt>
      <trkpt lat="47.44378" lon="6.57146">
        <ele>291.979</ele>
        <time>2015-10-03T10:29:38Z</time>
      </trkpt>
      <trkpt lat="47.4438" lon="6.57148">
        <ele>293.362</ele>
        <time>2015-10-03T10:29:39Z</time>
      </trkpt>
      <trkpt lat="47.44383" lon="6.57151">
        <ele>291.433</ele>
        <time>2015-10-03T10:29:40Z</time>
      </trkpt>
      <trkpt lat="47.44386" lon="6.57153">
        <ele>288.805</ele>
        <time>2015-10-03T10:29:41Z</time>
      </trkpt>
      <trkpt lat="47.44389" lon="6.57156">
        <ele>290.754</ele>
        <time>2015-10-03T10:29:42Z</time>
      </trkpt>
      <trkpt lat="47.44391" lon="6.57158">
        <ele>293.907</ele>
        <time>2015-10-03T10:29:43Z</time>
      </trkpt>
      <trkpt lat="47.44393" lon="6.5716">
        <ele>292.085</ele>
        <time>2015-10-03T10:29:44Z</time>
      </trkpt>
      <trkpt lat="47.44396" lon="6.57163">
        <ele>293.096</ele>
        <time>2015-10-03T10:29:45Z</time>
      </trkpt>
      <trkpt lat="47.44399" lon="6.57166">
        <ele>294.38</ele>
        <time>2015-10-03T10:29:46Z</time>
      </trkpt>
      <trkpt lat="47.44402" lon="6.57169">
        <ele>295.37</ele>
        <time>2015-10-03T10:29:47Z</time>
      </trkpt>
      <trkpt lat="47.44405" lon="6.57172">
        <ele>295.954</ele>
        <time>2015-10-03T10:29:48Z</time>
      </trkpt>
      <trkpt lat="47.44408" lon="6.57175">
        <ele>295.556</ele>
        <time>2015-10-03T10:29:49Z</time>
      </trkpt>
      <trkpt lat="47.44411" lon="6.57178">
        <ele>294.527</ele>
        <time>2015-10-03T10:29:50Z</time>
      </trkpt>
      <trkpt lat="47.44415" lon="6.5718">
        <ele>294.644</ele>
        <time>2015-10-03T10:29:51Z</time>
      </trkpt>
      <trkpt lat="47.44418" lon="6.57183">
        <ele>295.048</ele>
        <time>2015-10-03T10:29:52Z</time>
      </trkpt>
      <trkpt lat="47.44421" lon="6.57186">
        <ele>295.648</ele>
        <time>2015-10-03T10:29:53Z</time>
      </trkpt>
      <trkpt lat="47.44425" lon="6.57189">
        <ele>294.651</ele>
        <time>2015-10-03T10:29:54Z</time>
      </trkpt>
      <trkpt lat="47.44428" lon="6.57192">
        <ele>295.165</ele>
        <time>2015-10-03T10:29:55Z</time>
      </trkpt>
      <trkpt lat="47.44431" lon="6.57196">
        <ele>296.676</ele>
        <time>2015-10-03T10:29:56Z</time>
      </trkpt>
      <trkpt lat="47.44435" lon="6.57199">
        <ele>295.617</ele>
        <time>2015-10-03T10:29:57Z</time>
      </trkpt>
      <trkpt lat="47.44439" lon="6.57203">
        <ele>296.271</ele>
        <time>2015-10-03T10:29:58Z</time>
      </trkpt>
      <trkpt lat="47.44443" lon="6.57206">
        <ele>295.406</ele>
        <time>2015-10-03T10:29:59Z</time>
      </trkpt>
      <trkpt lat="47.44447" lon="6.5721">
        <ele>295.857</ele>
        <time>2015-10-03T10:30:00Z</time>
      </trkpt>
      <trkpt lat="47.44451" lon="6.57214">
        <ele>297.145</ele>
        <time>2015-10-03T10:30:01Z</time>
      </trkpt>
      <trkpt lat="47.44454" lon="6.57217">
        <ele>297.687</ele>
        <time>2015-10-03T10:30:02Z</time>
      </trkpt>
      <trkpt lat="47.44457" lon="6.57221">
        <ele>297.394</ele>
        <time>2015-10-03T10:30:03Z</time>
      </trkpt>
      <trkpt lat="47.44461" lon="6.57226">
        <ele>297.547</ele>
        <time>2015-10-03T10:30:04Z</time>
      </trkpt>
      <trkpt lat="47.44464" lon="6.57229">
        <ele>297.246</ele>
        <time>2015-10-03T10:30:05Z</time>
      </trkpt>
      <trkpt lat="47.44467" lon="6.57233">
        <ele>297.791</ele>
        <time>2015-10-03T10:30:06Z</time>
      </trkpt>
      <trkpt lat="47.44469" lon="6.57237">
        <ele>296.414</ele>
        <time>2015-10-03T10:30:07Z</time>
      </trkpt>
      <trkpt lat="47.44471" lon="6.57242">
        <ele>296.778</ele>
        <time>2015-10-03T10:30:08Z</time>
      </trkpt>
      <trkpt lat="47.44474" lon="6.57246">
        <ele>296.823</ele>
        <time>2015-10-03T10:30:09Z</time>
      </trkpt>
      <trkpt lat="47.44477" lon="6.57251">
        <ele>296.46</ele>
        <time>2015-10-03T10:30:10Z</time>
      </trkpt>
      <trkpt lat="47.4448" lon="6.57256">
        <ele>297.056</ele>
        <time>2015-10-03T10:30:11Z</time>
      </trkpt>
      <trkpt lat="47.44482" lon="6.57261">
        <ele>297.752</ele>
        <time>2015-10-03T10:30:12Z</time>
      </trkpt>
      <trkpt lat="47.44484" lon="6.57267">
        <ele>298.783</ele>
        <time>2015-10-03T10:30:13Z</time>
      </trkpt>
      <trkpt lat="47.44487" lon="6.57271">
        <ele>299.022</ele>
        <time>2015-10-03T10:30:14Z</time>
      </trkpt>
      <trkpt lat="47.44489" lon="6.57276">
        <ele>299.73</ele>
        <time>2015-10-03T10:30:15Z</time>
      </trkpt>
      <trkpt lat="47.44492" lon="6.5728">
        <ele>300.077</ele>
        <time>2015-10-03T10:30:16Z</time>
      </trkpt>
      <trkpt lat="47.44494" lon="6.57285">
        <ele>300.932</ele>
        <time>2015-10-03T10:30:17Z</time>
      </trkpt>
      <trkpt lat="47.44496" lon="6.57291">
        <ele>300.984</ele>
        <time>2015-10-03T10:30:18Z</time>
      </trkpt>
      <trkpt lat="47.44499" lon="6.57296">
        <ele>300.522</ele>
        <time>2015-10-03T10:30:19Z</time>
      </trkpt>
      <trkpt lat="47.44502" lon="6.57303">
        <ele>300.807</ele>
        <time>2015-10-03T10:30:20Z</time>
      </trkpt>
      <trkpt lat="47.44504" lon="6.57309">
        <ele>299.062</ele>
        <time>2015-10-03T10:30:21Z</time>
      </trkpt>
      <trkpt lat="47.44507" lon="6.57315">
        <ele>300.218</ele>
        <time>2015-10-03T10:30:22Z</time>
      </trkpt>
      <trkpt lat="47.4451" lon="6.57319">
        <ele>299.384</ele>
        <time>2015-10-03T10:30:23Z</time>
      </trkpt>
      <trkpt lat="47.44512" lon="6.57325">
        <ele>299.986</ele>
        <time>2015-10-03T10:30:24Z</time>
      </trkpt>
      <trkpt lat="47.44516" lon="6.57328">
        <ele>298.885</ele>
        <time>2015-10-03T10:30:25Z</time>
      </trkpt>
      <trkpt lat="47.44518" lon="6.57334">
        <ele>300.186</ele>
        <time>2015-10-03T10:30:26Z</time>
      </trkpt>
      <trkpt lat="47.4452" lon="6.57339">
        <ele>300.636</ele>
        <time>2015-10-03T10:30:27Z</time>
      </trkpt>
      <trkpt lat="47.44523" lon="6.57344">
        <ele>300.877</ele>
        <time>2015-10-03T10:30:28Z</time>
      </trkpt>
      <trkpt lat="47.44525" lon="6.57349">
        <ele>300.569</ele>
        <time>2015-10-03T10:30:29Z</time>
      </trkpt>
      <trkpt lat="47.44528" lon="6.57354">
        <ele>300.121</ele>
        <time>2015-10-03T10:30:30Z</time>
      </trkpt>
      <trkpt lat="47.44531" lon="6.57359">
        <ele>300.467</ele>
        <time>2015-10-03T10:30:31Z</time>
      </trkpt>
      <trkpt lat="47.44533" lon="6.57364">
        <ele>300.116</ele>
        <time>2015-10-03T10:30:32Z</time>
      </trkpt>
      <trkpt lat="47.44535" lon="6.57369">
        <ele>299.86</ele>
        <time>2015-10-03T10:30:33Z</time>
      </trkpt>
      <trkpt lat="47.44539" lon="6.57376">
        <ele>300.586</ele>
        <time>2015-10-03T10:30:34Z</time>
      </trkpt>
      <trkpt lat="47.4454" lon="6.5738">
        <ele>300.002</ele>
        <time>2015-10-03T10:30:35Z</time>
      </trkpt>
      <trkpt lat="47.44546" lon="6.57383">
        <ele>298.278</ele>
        <time>2015-10-03T10:30:36Z</time>
      </trkpt>
      <trkpt lat="47.44543" lon="6.57389">
        <ele>306.299</ele>
        <time>2015-10-03T10:30:37Z</time>
      </trkpt>
      <trkpt lat="47.44539" lon="6.57393">
        <ele>313.558</ele>
        <time>2015-10-03T10:30:38Z</time>
      </trkpt>
      <trkpt lat="47.44534" lon="6.57387">
        <ele>316.896</ele>
        <time>2015-10-03T10:30:39Z</time>
      </trkpt>
      <trkpt lat="47.44533" lon="6.57395">
        <ele>322.475</ele>
        <time>2015-10-03T10:30:40Z</time>
      </trkpt>
      <trkpt lat="47.44528" lon="6.574">
        <ele>328.057</ele>
        <time>2015-10-03T10:30:41Z</time>
      </trkpt>
      <trkpt lat="47.44526" lon="6.57409">
        <ele>335.625</ele>
        <time>2015-10-03T10:30:42Z</time>
      </trkpt>
      <trkpt lat="47.44527" lon="6.57408">
        <ele>342.842</ele>
        <time>2015-10-03T10:30:43Z</time>
      </trkpt>
      <trkpt lat="47.44526" lon="6.5741">
        <ele>349.201</ele>
        <time>2015-10-03T10:30:44Z</time>
      </trkpt>
      <trkpt lat="47.44527" lon="6.57415">
        <ele>354.23</ele>
        <time>2015-10-03T10:30:45Z</time>
      </trkpt>
      <trkpt lat="47.44526" lon="6.57417">
        <ele>357.637</ele>
        <time>2015-10-03T10:30:46Z</time>
      </trkpt>
      <trkpt lat="47.44529" lon="6.57424">
        <ele>359.322</ele>
        <time>2015-10-03T10:30:47Z</time>
      </trkpt>
      <trkpt lat="47.44537" lon="6.57434">
        <ele>360.127</ele>
        <time>2015-10-03T10:30:48Z</time>
      </trkpt>
      <trkpt lat="47.44539" lon="6.57442">
        <ele>357.619</ele>
        <time>2015-10-03T10:30:49Z</time>
      </trkpt>
      <trkpt lat="47.44543" lon="6.57449">
        <ele>357.542</ele>
        <time>2015-10-03T10:30:50Z</time>
      </trkpt>
      <trkpt lat="47.44546" lon="6.57455">
        <ele>357.612</ele>
        <time>2015-10-03T10:30:51Z</time>
      </trkpt>
      <trkpt lat="47.44553" lon="6.57461">
        <ele>356.771</ele>
        <time>2015-10-03T10:30:52Z</time>
      </trkpt>
      <trkpt lat="47.44556" lon="6.57466">
        <ele>355.734</ele>
        <time>2015-10-03T10:30:53Z</time>
      </trkpt>
      <trkpt lat="47.44561" lon="6.57473">
        <ele>355.341</ele>
        <time>2015-10-03T10:30:54Z</time>
      </trkpt>
      <trkpt lat="47.44564" lon="6.57479">
        <ele>354.711</ele>
        <time>2015-10-03T10:30:55Z</time>
      </trkpt>
      <trkpt lat="47.44569" lon="6.57485">
        <ele>355.033</ele>
        <time>2015-10-03T10:30:56Z</time>
      </trkpt>
      <trkpt lat="47.44571" lon="6.5749">
        <ele>354.835</ele>
        <time>2015-10-03T10:30:57Z</time>
      </trkpt>
      <trkpt lat="47.44575" lon="6.57496">
        <ele>355</ele>
        <time>2015-10-03T10:30:58Z</time>
      </trkpt>
      <trkpt lat="47.44578" lon="6.57502">
        <ele>354.286</ele>
        <time>2015-10-03T10:30:59Z</time>
      </trkpt>
      <trkpt lat="47.44582" lon="6.57507">
        <ele>351.917</ele>
        <time>2015-10-03T10:31:00Z</time>
      </trkpt>
      <trkpt lat="47.44585" lon="6.57512">
        <ele>351.905</ele>
        <time>2015-10-03T10:31:01Z</time>
      </trkpt>
      <trkpt lat="47.44588" lon="6.57517">
        <ele>351.582</ele>
        <time>2015-10-03T10:31:02Z</time>
      </trkpt>
      <trkpt lat="47.44592" lon="6.57522">
        <ele>351.327</ele>
        <time>2015-10-03T10:31:03Z</time>
      </trkpt>
      <trkpt lat="47.44595" lon="6.57527">
        <ele>349.049</ele>
        <time>2015-10-03T10:31:04Z</time>
      </trkpt>
      <trkpt lat="47.44599" lon="6.57532">
        <ele>347.175</ele>
        <time>2015-10-03T10:31:05Z</time>
      </trkpt>
      <trkpt lat="47.44603" lon="6.57536">
        <ele>345.909</ele>
        <time>2015-10-03T10:31:06Z</time>
      </trkpt>
      <trkpt lat="47.44608" lon="6.5754">
        <ele>345.173</ele>
        <time>2015-10-03T10:31:07Z</time>
      </trkpt>
      <trkpt lat="47.44612" lon="6.57544">
        <ele>345.062</ele>
        <time>2015-10-03T10:31:08Z</time>
      </trkpt>
      <trkpt lat="47.44617" lon="6.57547">
        <ele>343.817</ele>
        <time>2015-10-03T10:31:09Z</time>
      </trkpt>
      <trkpt lat="47.44621" lon="6.57551">
        <ele>342.091</ele>
        <time>2015-10-03T10:31:10Z</time>
      </trkpt>
      <trkpt lat="47.44626" lon="6.57555">
        <ele>341.525</ele>
        <time>2015-10-03T10:31:11Z</time>
      </trkpt>
      <trkpt lat="47.4463" lon="6.57558">
        <ele>341.095</ele>
        <time>2015-10-03T10:31:12Z</time>
      </trkpt>
      <trkpt lat="47.44635" lon="6.57562">
        <ele>340.226</ele>
        <time>2015-10-03T10:31:13Z</time>
      </trkpt>
      <trkpt lat="47.44639" lon="6.57566">
        <ele>338.924</ele>
        <time>2015-10-03T10:31:14Z</time>
      </trkpt>
      <trkpt lat="47.44642" lon="6.57569">
        <ele>336.418</ele>
        <time>2015-10-03T10:31:15Z</time>
      </trkpt>
      <trkpt lat="47.44647" lon="6.57573">
        <ele>331.051</ele>
        <time>2015-10-03T10:31:16Z</time>
      </trkpt>
      <trkpt lat="47.44652" lon="6.57576">
        <ele>330.249</ele>
        <time>2015-10-03T10:31:17Z</time>
      </trkpt>
      <trkpt lat="47.44656" lon="6.57579">
        <ele>327.307</ele>
        <time>2015-10-03T10:31:18Z</time>
      </trkpt>
      <trkpt lat="47.4466" lon="6.57583">
        <ele>326.374</ele>
        <time>2015-10-03T10:31:19Z</time>
      </trkpt>
      <trkpt lat="47.44665" lon="6.57586">
        <ele>327.394</ele>
        <time>2015-10-03T10:31:20Z</time>
      </trkpt>
      <trkpt lat="47.44669" lon="6.5759">
        <ele>327.401</ele>
        <time>2015-10-03T10:31:21Z</time>
      </trkpt>
      <trkpt lat="47.44673" lon="6.57593">
        <ele>326.908</ele>
        <time>2015-10-03T10:31:22Z</time>
      </trkpt>
      <trkpt lat="47.44677" lon="6.57597">
        <ele>326.52</ele>
        <time>2015-10-03T10:31:23Z</time>
      </trkpt>
      <trkpt lat="47.44681" lon="6.576">
        <ele>325.139</ele>
        <time>2015-10-03T10:31:24Z</time>
      </trkpt>
      <trkpt lat="47.44685" lon="6.57604">
        <ele>324.426</ele>
        <time>2015-10-03T10:31:25Z</time>
      </trkpt>
      <trkpt lat="47.4469" lon="6.57607">
        <ele>324.121</ele>
        <time>2015-10-03T10:31:26Z</time>
      </trkpt>
      <trkpt lat="47.44695" lon="6.57611">
        <ele>324.193</ele>
        <time>2015-10-03T10:31:27Z</time>
      </trkpt>
      <trkpt lat="47.44699" lon="6.57614">
        <ele>323.831</ele>
        <time>2015-10-03T10:31:28Z</time>
      </trkpt>
      <trkpt lat="47.44706" lon="6.57611">
        <ele>320.436</ele>
        <time>2015-10-03T10:31:29Z</time>
      </trkpt>
      <trkpt lat="47.4471" lon="6.57615">
        <ele>318.777</ele>
        <time>2015-10-03T10:31:30Z</time>
      </trkpt>
      <trkpt lat="47.44714" lon="6.57616">
        <ele>317.254</ele>
        <time>2015-10-03T10:31:31Z</time>
      </trkpt>
      <trkpt lat="47.4472" lon="6.57616">
        <ele>312.431</ele>
        <time>2015-10-03T10:31:32Z</time>
      </trkpt>
      <trkpt lat="47.44727" lon="6.57612">
        <ele>307.564</ele>
        <time>2015-10-03T10:31:33Z</time>
      </trkpt>
      <trkpt lat="47.44731" lon="6.57611">
        <ele>307.754</ele>
        <time>2015-10-03T10:31:34Z</time>
      </trkpt>
      <trkpt lat="47.44734" lon="6.57614">
        <ele>306.243</ele>
        <time>2015-10-03T10:31:35Z</time>
      </trkpt>
      <trkpt lat="47.4474" lon="6.57615">
        <ele>305.667</ele>
        <time>2015-10-03T10:31:36Z</time>
      </trkpt>
      <trkpt lat="47.44744" lon="6.57618">
        <ele>306.598</ele>
        <time>2015-10-03T10:31:37Z</time>
      </trkpt>
      <trkpt lat="47.44747" lon="6.5762">
        <ele>307.315</ele>
        <time>2015-10-03T10:31:38Z</time>
      </trkpt>
      <trkpt lat="47.44751" lon="6.57623">
        <ele>308.487</ele>
        <time>2015-10-03T10:31:39Z</time>
      </trkpt>
      <trkpt lat="47.44755" lon="6.57626">
        <ele>307.565</ele>
        <time>2015-10-03T10:31:40Z</time>
      </trkpt>
      <trkpt lat="47.44761" lon="6.57628">
        <ele>307.939</ele>
        <time>2015-10-03T10:31:41Z</time>
      </trkpt>
      <trkpt lat="47.44764" lon="6.57628">
        <ele>307.083</ele>
        <time>2015-10-03T10:31:42Z</time>
      </trkpt>
      <trkpt lat="47.44768" lon="6.5763">
        <ele>308.618</ele>
        <time>2015-10-03T10:31:43Z</time>
      </trkpt>
      <trkpt lat="47.44773" lon="6.5763">
        <ele>306.181</ele>
        <time>2015-10-03T10:31:44Z</time>
      </trkpt>
      <trkpt lat="47.44778" lon="6.57631">
        <ele>304.777</ele>
        <time>2015-10-03T10:31:45Z</time>
      </trkpt>
      <trkpt lat="47.44783" lon="6.57631">
        <ele>302.547</ele>
        <time>2015-10-03T10:31:46Z</time>
      </trkpt>
      <trkpt lat="47.44787" lon="6.57631">
        <ele>300.792</ele>
        <time>2015-10-03T10:31:47Z</time>
      </trkpt>
      <trkpt lat="47.44792" lon="6.57632">
        <ele>301.15</ele>
        <time>2015-10-03T10:31:48Z</time>
      </trkpt>
      <trkpt lat="47.44796" lon="6.57631">
        <ele>300.161</ele>
        <time>2015-10-03T10:31:49Z</time>
      </trkpt>
      <trkpt lat="47.44801" lon="6.57632">
        <ele>299.912</ele>
        <time>2015-10-03T10:31:50Z</time>
      </trkpt>
      <trkpt lat="47.44805" lon="6.57634">
        <ele>300.414</ele>
        <time>2015-10-03T10:31:51Z</time>
      </trkpt>
      <trkpt lat="47.44809" lon="6.57635">
        <ele>300.79</ele>
        <time>2015-10-03T10:31:52Z</time>
      </trkpt>
      <trkpt lat="47.44813" lon="6.57637">
        <ele>299.481</ele>
        <time>2015-10-03T10:31:53Z</time>
      </trkpt>
      <trkpt lat="47.44819" lon="6.57634">
        <ele>301.8</ele>
        <time>2015-10-03T10:31:54Z</time>
      </trkpt>
      <trkpt lat="47.44822" lon="6.57636">
        <ele>301.087</ele>
        <time>2015-10-03T10:31:55Z</time>
      </trkpt>
      <trkpt lat="47.44827" lon="6.57638">
        <ele>302.027</ele>
        <time>2015-10-03T10:31:56Z</time>
      </trkpt>
      <trkpt lat="47.44831" lon="6.5764">
        <ele>302.755</ele>
        <time>2015-10-03T10:31:57Z</time>
      </trkpt>
      <trkpt lat="47.44836" lon="6.57641">
        <ele>304.08</ele>
        <time>2015-10-03T10:31:58Z</time>
      </trkpt>
      <trkpt lat="47.44841" lon="6.57643">
        <ele>304.306</ele>
        <time>2015-10-03T10:31:59Z</time>
      </trkpt>
      <trkpt lat="47.44845" lon="6.57643">
        <ele>303.805</ele>
        <time>2015-10-03T10:32:00Z</time>
      </trkpt>
      <trkpt lat="47.44849" lon="6.57643">
        <ele>302.347</ele>
        <time>2015-10-03T10:32:01Z</time>
      </trkpt>
      <trkpt lat="47.44854" lon="6.57644">
        <ele>301.41</ele>
        <time>2015-10-03T10:32:02Z</time>
      </trkpt>
      <trkpt lat="47.44858" lon="6.57644">
        <ele>300.955</ele>
        <time>2015-10-03T10:32:03Z</time>
      </trkpt>
      <trkpt lat="47.44864" lon="6.57644">
        <ele>301.628</ele>
        <time>2015-10-03T10:32:04Z</time>
      </trkpt>
      <trkpt lat="47.44868" lon="6.57646">
        <ele>303.099</ele>
        <time>2015-10-03T10:32:05Z</time>
      </trkpt>
      <trkpt lat="47.44873" lon="6.57647">
        <ele>302.755</ele>
        <time>2015-10-03T10:32:06Z</time>
      </trkpt>
      <trkpt lat="47.44877" lon="6.57648">
        <ele>302.115</ele>
        <time>2015-10-03T10:32:07Z</time>
      </trkpt>
      <trkpt lat="47.44882" lon="6.57649">
        <ele>302.567</ele>
        <time>2015-10-03T10:32:08Z</time>
      </trkpt>
      <trkpt lat="47.44887" lon="6.57648">
        <ele>301.024</ele>
        <time>2015-10-03T10:32:09Z</time>
      </trkpt>
      <trkpt lat="47.44892" lon="6.5765">
        <ele>301.232</ele>
        <time>2015-10-03T10:32:10Z</time>
      </trkpt>
      <trkpt lat="47.44898" lon="6.5765">
        <ele>297.802</ele>
        <time>2015-10-03T10:32:11Z</time>
      </trkpt>
      <trkpt lat="47.44903" lon="6.57652">
        <ele>297.184</ele>
        <time>2015-10-03T10:32:12Z</time>
      </trkpt>
      <trkpt lat="47.44907" lon="6.57654">
        <ele>296.694</ele>
        <time>2015-10-03T10:32:13Z</time>
      </trkpt>
      <trkpt lat="47.44912" lon="6.57656">
        <ele>294.135</ele>
        <time>2015-10-03T10:32:14Z</time>
      </trkpt>
      <trkpt lat="47.44916" lon="6.57659">
        <ele>294.309</ele>
        <time>2015-10-03T10:32:15Z</time>
      </trkpt>
      <trkpt lat="47.4492" lon="6.57661">
        <ele>292.84</ele>
        <time>2015-10-03T10:32:16Z</time>
      </trkpt>
      <trkpt lat="47.44923" lon="6.57665">
        <ele>293.317</ele>
        <time>2015-10-03T10:32:17Z</time>
      </trkpt>
      <trkpt lat="47.44927" lon="6.57669">
        <ele>293.477</ele>
        <time>2015-10-03T10:32:18Z</time>
      </trkpt>
      <trkpt lat="47.44931" lon="6.57672">
        <ele>294.942</ele>
        <time>2015-10-03T10:32:19Z</time>
      </trkpt>
      <trkpt lat="47.44935" lon="6.57674">
        <ele>295.384</ele>
        <time>2015-10-03T10:32:20Z</time>
      </trkpt>
      <trkpt lat="47.4494" lon="6.57674">
        <ele>295.334</ele>
        <time>2015-10-03T10:32:21Z</time>
      </trkpt>
      <trkpt lat="47.44945" lon="6.57676">
        <ele>294.322</ele>
        <time>2015-10-03T10:32:22Z</time>
      </trkpt>
      <trkpt lat="47.44948" lon="6.57678">
        <ele>295.392</ele>
        <time>2015-10-03T10:32:23Z</time>
      </trkpt>
      <trkpt lat="47.44953" lon="6.5768">
        <ele>297.015</ele>
        <time>2015-10-03T10:32:24Z</time>
      </trkpt>
      <trkpt lat="47.44958" lon="6.57683">
        <ele>297.655</ele>
        <time>2015-10-03T10:32:25Z</time>
      </trkpt>
      <trkpt lat="47.44963" lon="6.57683">
        <ele>295.657</ele>
        <time>2015-10-03T10:32:26Z</time>
      </trkpt>
      <trkpt lat="47.44967" lon="6.57684">
        <ele>295.295</ele>
        <time>2015-10-03T10:32:27Z</time>
      </trkpt>
      <trkpt lat="47.44972" lon="6.57686">
        <ele>293.798</ele>
        <time>2015-10-03T10:32:28Z</time>
      </trkpt>
      <trkpt lat="47.44977" lon="6.57687">
        <ele>292.617</ele>
        <time>2015-10-03T10:32:29Z</time>
      </trkpt>
      <trkpt lat="47.44982" lon="6.57688">
        <ele>292.149</ele>
        <time>2015-10-03T10:32:30Z</time>
      </trkpt>
      <trkpt lat="47.44986" lon="6.5769">
        <ele>292.667</ele>
        <time>2015-10-03T10:32:31Z</time>
      </trkpt>
      <trkpt lat="47.44991" lon="6.5769">
        <ele>289.243</ele>
        <time>2015-10-03T10:32:32Z</time>
      </trkpt>
      <trkpt lat="47.44996" lon="6.57691">
        <ele>286.475</ele>
        <time>2015-10-03T10:32:33Z</time>
      </trkpt>
      <trkpt lat="47.45" lon="6.57693">
        <ele>286.952</ele>
        <time>2015-10-03T10:32:34Z</time>
      </trkpt>
      <trkpt lat="47.45004" lon="6.57694">
        <ele>286.073</ele>
        <time>2015-10-03T10:32:35Z</time>
      </trkpt>
      <trkpt lat="47.45008" lon="6.57696">
        <ele>286.236</ele>
        <time>2015-10-03T10:32:36Z</time>
      </trkpt>
      <trkpt lat="47.45012" lon="6.57697">
        <ele>285.931</ele>
        <time>2015-10-03T10:32:37Z</time>
      </trkpt>
      <trkpt lat="47.45016" lon="6.57698">
        <ele>286.161</ele>
        <time>2015-10-03T10:32:38Z</time>
      </trkpt>
      <trkpt lat="47.4502" lon="6.57701">
        <ele>287.262</ele>
        <time>2015-10-03T10:32:39Z</time>
      </trkpt>
      <trkpt lat="47.45025" lon="6.57702">
        <ele>285.148</ele>
        <time>2015-10-03T10:32:40Z</time>
      </trkpt>
      <trkpt lat="47.45029" lon="6.57704">
        <ele>286.087</ele>
        <time>2015-10-03T10:32:41Z</time>
      </trkpt>
      <trkpt lat="47.45033" lon="6.57707">
        <ele>286.621</ele>
        <time>2015-10-03T10:32:42Z</time>
      </trkpt>
      <trkpt lat="47.45036" lon="6.57711">
        <ele>287.258</ele>
        <time>2015-10-03T10:32:43Z</time>
      </trkpt>
      <trkpt lat="47.4504" lon="6.57714">
        <ele>287.392</ele>
        <time>2015-10-03T10:32:44Z</time>
      </trkpt>
      <trkpt lat="47.45044" lon="6.57717">
        <ele>285.031</ele>
        <time>2015-10-03T10:32:45Z</time>
      </trkpt>
      <trkpt lat="47.45047" lon="6.57719">
        <ele>285.086</ele>
        <time>2015-10-03T10:32:46Z</time>
      </trkpt>
      <trkpt lat="47.45051" lon="6.57721">
        <ele>284.698</ele>
        <time>2015-10-03T10:32:47Z</time>
      </trkpt>
      <trkpt lat="47.45056" lon="6.57722">
        <ele>284.937</ele>
        <time>2015-10-03T10:32:48Z</time>
      </trkpt>
      <trkpt lat="47.4506" lon="6.57724">
        <ele>286.865</ele>
        <time>2015-10-03T10:32:49Z</time>
      </trkpt>
      <trkpt lat="47.45065" lon="6.57726">
        <ele>284.961</ele>
        <time>2015-10-03T10:32:50Z</time>
      </trkpt>
      <trkpt lat="47.45068" lon="6.57731">
        <ele>284.423</ele>
        <time>2015-10-03T10:32:51Z</time>
      </trkpt>
      <trkpt lat="47.4507" lon="6.57737">
        <ele>290.876</ele>
        <time>2015-10-03T10:32:52Z</time>
      </trkpt>
      <trkpt lat="47.45074" lon="6.5774">
        <ele>291.116</ele>
        <time>2015-10-03T10:32:53Z</time>
      </trkpt>
      <trkpt lat="47.45081" lon="6.57744">
        <ele>287.245</ele>
        <time>2015-10-03T10:32:54Z</time>
      </trkpt>
      <trkpt lat="47.45085" lon="6.57749">
        <ele>286.552</ele>
        <time>2015-10-03T10:32:55Z</time>
      </trkpt>
      <trkpt lat="47.45088" lon="6.57753">
        <ele>286.157</ele>
        <time>2015-10-03T10:32:56Z</time>
      </trkpt>
      <trkpt lat="47.45094" lon="6.57754">
        <ele>284.972</ele>
        <time>2015-10-03T10:32:57Z</time>
      </trkpt>
      <trkpt lat="47.45099" lon="6.57757">
        <ele>283.641</ele>
        <time>2015-10-03T10:32:58Z</time>
      </trkpt>
      <trkpt lat="47.45104" lon="6.57759">
        <ele>283.574</ele>
        <time>2015-10-03T10:32:59Z</time>
      </trkpt>
      <trkpt lat="47.45108" lon="6.5776">
        <ele>281.82</ele>
        <time>2015-10-03T10:33:00Z</time>
      </trkpt>
      <trkpt lat="47.45114" lon="6.57762">
        <ele>281.178</ele>
        <time>2015-10-03T10:33:01Z</time>
      </trkpt>
      <trkpt lat="47.45118" lon="6.57767">
        <ele>281.257</ele>
        <time>2015-10-03T10:33:02Z</time>
      </trkpt>
      <trkpt lat="47.45121" lon="6.57772">
        <ele>282.977</ele>
        <time>2015-10-03T10:33:03Z</time>
      </trkpt>
      <trkpt lat="47.45127" lon="6.57774">
        <ele>283.653</ele>
        <time>2015-10-03T10:33:04Z</time>
      </trkpt>
      <trkpt lat="47.45131" lon="6.57776">
        <ele>283.823</ele>
        <time>2015-10-03T10:33:05Z</time>
      </trkpt>
      <trkpt lat="47.45133" lon="6.5778">
        <ele>283.039</ele>
        <time>2015-10-03T10:33:06Z</time>
      </trkpt>
      <trkpt lat="47.45135" lon="6.57785">
        <ele>283.308</ele>
        <time>2015-10-03T10:33:07Z</time>
      </trkpt>
      <trkpt lat="47.45138" lon="6.57787">
        <ele>283.997</ele>
        <time>2015-10-03T10:33:08Z</time>
      </trkpt>
      <trkpt lat="47.45142" lon="6.57789">
        <ele>284.614</ele>
        <time>2015-10-03T10:33:09Z</time>
      </trkpt>
      <trkpt lat="47.45144" lon="6.57789">
        <ele>284.335</ele>
        <time>2015-10-03T10:33:10Z</time>
      </trkpt>
      <trkpt lat="47.45146" lon="6.57791">
        <ele>286.624</ele>
        <time>2015-10-03T10:33:11Z</time>
      </trkpt>
      <trkpt lat="47.45147" lon="6.57792">
        <ele>289.016</ele>
        <time>2015-10-03T10:33:12Z</time>
      </trkpt>
      <trkpt lat="47.45148" lon="6.57792">
        <ele>291.549</ele>
        <time>2015-10-03T10:33:13Z</time>
      </trkpt>
      <trkpt lat="47.45149" lon="6.57793">
        <ele>286.365</ele>
        <time>2015-10-03T10:33:16Z</time>
      </trkpt>
      <trkpt lat="47.45151" lon="6.5779">
        <ele>286.607</ele>
        <time>2015-10-03T10:33:20Z</time>
      </trkpt>
      <trkpt lat="47.45152" lon="6.57789">
        <ele>288.39</ele>
        <time>2015-10-03T10:33:21Z</time>
      </trkpt>
      <trkpt lat="47.45153" lon="6.57788">
        <ele>289.643</ele>
        <time>2015-10-03T10:33:23Z</time>
      </trkpt>
      <trkpt lat="47.45154" lon="6.57787">
        <ele>293.978</ele>
        <time>2015-10-03T10:33:26Z</time>
      </trkpt>
      <trkpt lat="47.45155" lon="6.57786">
        <ele>296.614</ele>
        <time>2015-10-03T10:33:28Z</time>
      </trkpt>
      <trkpt lat="47.45154" lon="6.57787">
        <ele>294.191</ele>
        <time>2015-10-03T10:33:31Z</time>
      </trkpt>
      <trkpt lat="47.45154" lon="6.57787">
        <ele>294.507</ele>
        <time>2015-10-03T10:33:32Z</time>
      </trkpt>
      <trkpt lat="47.45152" lon="6.5779">
        <ele>295.181</ele>
        <time>2015-10-03T10:33:34Z</time>
      </trkpt>
      <trkpt lat="47.45151" lon="6.57792">
        <ele>295.783</ele>
        <time>2015-10-03T10:33:35Z</time>
      </trkpt>
      <trkpt lat="47.4515" lon="6.57793">
        <ele>295.445</ele>
        <time>2015-10-03T10:33:36Z</time>
      </trkpt>
      <trkpt lat="47.45148" lon="6.57798">
        <ele>297.85</ele>
        <time>2015-10-03T10:33:38Z</time>
      </trkpt>
      <trkpt lat="47.45147" lon="6.57799">
        <ele>302.537</ele>
        <time>2015-10-03T10:33:40Z</time>
      </trkpt>
      <trkpt lat="47.45148" lon="6.57801">
        <ele>304.152</ele>
        <time>2015-10-03T10:33:43Z</time>
      </trkpt>
      <trkpt lat="47.45148" lon="6.57801">
        <ele>304.306</ele>
        <time>2015-10-03T10:33:46Z</time>
      </trkpt>
      <trkpt lat="47.45149" lon="6.57802">
        <ele>302.498</ele>
        <time>2015-10-03T10:33:47Z</time>
      </trkpt>
      <trkpt lat="47.45152" lon="6.57801">
        <ele>301.391</ele>
        <time>2015-10-03T10:33:51Z</time>
      </trkpt>
      <trkpt lat="47.45153" lon="6.57801">
        <ele>300.019</ele>
        <time>2015-10-03T10:33:54Z</time>
      </trkpt>
      <trkpt lat="47.45154" lon="6.57802">
        <ele>300.18</ele>
        <time>2015-10-03T10:33:55Z</time>
      </trkpt>
      <trkpt lat="47.45155" lon="6.57804">
        <ele>300.678</ele>
        <time>2015-10-03T10:33:56Z</time>
      </trkpt>
      <trkpt lat="47.45156" lon="6.57806">
        <ele>299.259</ele>
        <time>2015-10-03T10:33:57Z</time>
      </trkpt>
      <trkpt lat="47.45156" lon="6.57808">
        <ele>298.444</ele>
        <time>2015-10-03T10:33:58Z</time>
      </trkpt>
      <trkpt lat="47.45156" lon="6.57811">
        <ele>298.496</ele>
        <time>2015-10-03T10:33:59Z</time>
      </trkpt>
      <trkpt lat="47.45154" lon="6.57815">
        <ele>295.656</ele>
        <time>2015-10-03T10:34:00Z</time>
      </trkpt>
      <trkpt lat="47.45151" lon="6.57819">
        <ele>295.685</ele>
        <time>2015-10-03T10:34:01Z</time>
      </trkpt>
      <trkpt lat="47.45148" lon="6.57824">
        <ele>293.82</ele>
        <time>2015-10-03T10:34:02Z</time>
      </trkpt>
      <trkpt lat="47.45145" lon="6.57828">
        <ele>292.462</ele>
        <time>2015-10-03T10:34:03Z</time>
      </trkpt>
      <trkpt lat="47.45141" lon="6.57833">
        <ele>292.149</ele>
        <time>2015-10-03T10:34:04Z</time>
      </trkpt>
      <trkpt lat="47.45138" lon="6.57838">
        <ele>289.931</ele>
        <time>2015-10-03T10:34:05Z</time>
      </trkpt>
      <trkpt lat="47.45135" lon="6.57842">
        <ele>288.606</ele>
        <time>2015-10-03T10:34:06Z</time>
      </trkpt>
      <trkpt lat="47.45132" lon="6.57847">
        <ele>286.606</ele>
        <time>2015-10-03T10:34:07Z</time>
      </trkpt>
      <trkpt lat="47.45127" lon="6.57853">
        <ele>286.407</ele>
        <time>2015-10-03T10:34:08Z</time>
      </trkpt>
      <trkpt lat="47.45124" lon="6.5786">
        <ele>287.719</ele>
        <time>2015-10-03T10:34:09Z</time>
      </trkpt>
      <trkpt lat="47.45121" lon="6.57867">
        <ele>288.014</ele>
        <time>2015-10-03T10:34:10Z</time>
      </trkpt>
      <trkpt lat="47.45117" lon="6.57874">
        <ele>288.357</ele>
        <time>2015-10-03T10:34:11Z</time>
      </trkpt>
      <trkpt lat="47.45114" lon="6.57879">
        <ele>288.135</ele>
        <time>2015-10-03T10:34:12Z</time>
      </trkpt>
      <trkpt lat="47.4511" lon="6.57885">
        <ele>287.581</ele>
        <time>2015-10-03T10:34:13Z</time>
      </trkpt>
      <trkpt lat="47.45109" lon="6.57891">
        <ele>286.85</ele>
        <time>2015-10-03T10:34:14Z</time>
      </trkpt>
      <trkpt lat="47.45106" lon="6.57896">
        <ele>287.433</ele>
        <time>2015-10-03T10:34:15Z</time>
      </trkpt>
      <trkpt lat="47.45102" lon="6.579">
        <ele>287.522</ele>
        <time>2015-10-03T10:34:16Z</time>
      </trkpt>
      <trkpt lat="47.45099" lon="6.57906">
        <ele>287.716</ele>
        <time>2015-10-03T10:34:17Z</time>
      </trkpt>
      <trkpt lat="47.45095" lon="6.57914">
        <ele>289.644</ele>
        <time>2015-10-03T10:34:18Z</time>
      </trkpt>
      <trkpt lat="47.45092" lon="6.57921">
        <ele>292.837</ele>
        <time>2015-10-03T10:34:19Z</time>
      </trkpt>
      <trkpt lat="47.4509" lon="6.57928">
        <ele>294.554</ele>
        <time>2015-10-03T10:34:20Z</time>
      </trkpt>
      <trkpt lat="47.45088" lon="6.57934">
        <ele>295.408</ele>
        <time>2015-10-03T10:34:21Z</time>
      </trkpt>
      <trkpt lat="47.45085" lon="6.57939">
        <ele>296.955</ele>
        <time>2015-10-03T10:34:22Z</time>
      </trkpt>
      <trkpt lat="47.45082" lon="6.57944">
        <ele>297.622</ele>
        <time>2015-10-03T10:34:23Z</time>
      </trkpt>
      <trkpt lat="47.45079" lon="6.57948">
        <ele>297.969</ele>
        <time>2015-10-03T10:34:24Z</time>
      </trkpt>
      <trkpt lat="47.45077" lon="6.57952">
        <ele>297.056</ele>
        <time>2015-10-03T10:34:25Z</time>
      </trkpt>
      <trkpt lat="47.45074" lon="6.57957">
        <ele>296.748</ele>
        <time>2015-10-03T10:34:26Z</time>
      </trkpt>
      <trkpt lat="47.45071" lon="6.5796">
        <ele>296.498</ele>
        <time>2015-10-03T10:34:27Z</time>
      </trkpt>
      <trkpt lat="47.45069" lon="6.57964">
        <ele>300.153</ele>
        <time>2015-10-03T10:34:28Z</time>
      </trkpt>
      <trkpt lat="47.45065" lon="6.57968">
        <ele>301.784</ele>
        <time>2015-10-03T10:34:29Z</time>
      </trkpt>
      <trkpt lat="47.45062" lon="6.57972">
        <ele>300.771</ele>
        <time>2015-10-03T10:34:30Z</time>
      </trkpt>
      <trkpt lat="47.4506" lon="6.57978">
        <ele>300.077</ele>
        <time>2015-10-03T10:34:31Z</time>
      </trkpt>
      <trkpt lat="47.45058" lon="6.57985">
        <ele>299.144</ele>
        <time>2015-10-03T10:34:32Z</time>
      </trkpt>
      <trkpt lat="47.45056" lon="6.57993">
        <ele>300.435</ele>
        <time>2015-10-03T10:34:33Z</time>
      </trkpt>
      <trkpt lat="47.45054" lon="6.57997">
        <ele>301.088</ele>
        <time>2015-10-03T10:34:34Z</time>
      </trkpt>
      <trkpt lat="47.4505" lon="6.58002">
        <ele>301.192</ele>
        <time>2015-10-03T10:34:35Z</time>
      </trkpt>
      <trkpt lat="47.45047" lon="6.58006">
        <ele>300.634</ele>
        <time>2015-10-03T10:34:36Z</time>
      </trkpt>
      <trkpt lat="47.45044" lon="6.58012">
        <ele>300.336</ele>
        <time>2015-10-03T10:34:37Z</time>
      </trkpt>
      <trkpt lat="47.45041" lon="6.58016">
        <ele>298.699</ele>
        <time>2015-10-03T10:34:38Z</time>
      </trkpt>
      <trkpt lat="47.45037" lon="6.58019">
        <ele>298.19</ele>
        <time>2015-10-03T10:34:39Z</time>
      </trkpt>
      <trkpt lat="47.45035" lon="6.58022">
        <ele>299.041</ele>
        <time>2015-10-03T10:34:40Z</time>
      </trkpt>
      <trkpt lat="47.45032" lon="6.58025">
        <ele>299.063</ele>
        <time>2015-10-03T10:34:41Z</time>
      </trkpt>
      <trkpt lat="47.45029" lon="6.58028">
        <ele>300.848</ele>
        <time>2015-10-03T10:34:42Z</time>
      </trkpt>
      <trkpt lat="47.45028" lon="6.5803">
        <ele>301.223</ele>
        <time>2015-10-03T10:34:43Z</time>
      </trkpt>
      <trkpt lat="47.45026" lon="6.58031">
        <ele>300.844</ele>
        <time>2015-10-03T10:34:46Z</time>
      </trkpt>
      <trkpt lat="47.45027" lon="6.58032">
        <ele>298.387</ele>
        <time>2015-10-03T10:34:49Z</time>
      </trkpt>
      <trkpt lat="47.45028" lon="6.58033">
        <ele>296.562</ele>
        <time>2015-10-03T10:34:55Z</time>
      </trkpt>
      <trkpt lat="47.45027" lon="6.58035">
        <ele>298.804</ele>
        <time>2015-10-03T10:34:56Z</time>
      </trkpt>
      <trkpt lat="47.45026" lon="6.58038">
        <ele>300.447</ele>
        <time>2015-10-03T10:34:57Z</time>
      </trkpt>
      <trkpt lat="47.45025" lon="6.58041">
        <ele>299.073</ele>
        <time>2015-10-03T10:34:58Z</time>
      </trkpt>
      <trkpt lat="47.45024" lon="6.58045">
        <ele>298.271</ele>
        <time>2015-10-03T10:34:59Z</time>
      </trkpt>
      <trkpt lat="47.45023" lon="6.58049">
        <ele>296.276</ele>
        <time>2015-10-03T10:35:00Z</time>
      </trkpt>
      <trkpt lat="47.45021" lon="6.58053">
        <ele>295.418</ele>
        <time>2015-10-03T10:35:01Z</time>
      </trkpt>
      <trkpt lat="47.45019" lon="6.58056">
        <ele>295.252</ele>
        <time>2015-10-03T10:35:02Z</time>
      </trkpt>
      <trkpt lat="47.45016" lon="6.5806">
        <ele>294.074</ele>
        <time>2015-10-03T10:35:03Z</time>
      </trkpt>
      <trkpt lat="47.45014" lon="6.58064">
        <ele>294.007</ele>
        <time>2015-10-03T10:35:04Z</time>
      </trkpt>
      <trkpt lat="47.45012" lon="6.58069">
        <ele>293.577</ele>
        <time>2015-10-03T10:35:05Z</time>
      </trkpt>
      <trkpt lat="47.4501" lon="6.58073">
        <ele>292.562</ele>
        <time>2015-10-03T10:35:06Z</time>
      </trkpt>
      <trkpt lat="47.45007" lon="6.58076">
        <ele>291.788</ele>
        <time>2015-10-03T10:35:07Z</time>
      </trkpt>
      <trkpt lat="47.45004" lon="6.58079">
        <ele>290.755</ele>
        <time>2015-10-03T10:35:08Z</time>
      </trkpt>
      <trkpt lat="47.45" lon="6.58081">
        <ele>291.879</ele>
        <time>2015-10-03T10:35:09Z</time>
      </trkpt>
      <trkpt lat="47.44997" lon="6.58083">
        <ele>292.91</ele>
        <time>2015-10-03T10:35:10Z</time>
      </trkpt>
      <trkpt lat="47.44993" lon="6.58086">
        <ele>292.77</ele>
        <time>2015-10-03T10:35:11Z</time>
      </trkpt>
      <trkpt lat="47.44989" lon="6.58089">
        <ele>295.853</ele>
        <time>2015-10-03T10:35:12Z</time>
      </trkpt>
      <trkpt lat="47.44986" lon="6.58092">
        <ele>295.689</ele>
        <time>2015-10-03T10:35:13Z</time>
      </trkpt>
      <trkpt lat="47.44983" lon="6.58096">
        <ele>295.208</ele>
        <time>2015-10-03T10:35:14Z</time>
      </trkpt>
      <trkpt lat="47.4498" lon="6.581">
        <ele>295.34</ele>
        <time>2015-10-03T10:35:15Z</time>
      </trkpt>
      <trkpt lat="47.44977" lon="6.58104">
        <ele>296.322</ele>
        <time>2015-10-03T10:35:16Z</time>
      </trkpt>
      <trkpt lat="47.44974" lon="6.58108">
        <ele>295.633</ele>
        <time>2015-10-03T10:35:17Z</time>
      </trkpt>
      <trkpt lat="47.44972" lon="6.58113">
        <ele>294.722</ele>
        <time>2015-10-03T10:35:18Z</time>
      </trkpt>
      <trkpt lat="47.4497" lon="6.58117">
        <ele>294.459</ele>
        <time>2015-10-03T10:35:19Z</time>
      </trkpt>
      <trkpt lat="47.44969" lon="6.58121">
        <ele>294.005</ele>
        <time>2015-10-03T10:35:20Z</time>
      </trkpt>
      <trkpt lat="47.44966" lon="6.58126">
        <ele>295.596</ele>
        <time>2015-10-03T10:35:21Z</time>
      </trkpt>
      <trkpt lat="47.44964" lon="6.58131">
        <ele>295.011</ele>
        <time>2015-10-03T10:35:22Z</time>
      </trkpt>
      <trkpt lat="47.44961" lon="6.58136">
        <ele>295.181</ele>
        <time>2015-10-03T10:35:23Z</time>
      </trkpt>
      <trkpt lat="47.44959" lon="6.58141">
        <ele>293.451</ele>
        <time>2015-10-03T10:35:24Z</time>
      </trkpt>
      <trkpt lat="47.44956" lon="6.58145">
        <ele>293.988</ele>
        <time>2015-10-03T10:35:25Z</time>
      </trkpt>
      <trkpt lat="47.44954" lon="6.5815">
        <ele>293.708</ele>
        <time>2015-10-03T10:35:26Z</time>
      </trkpt>
      <trkpt lat="47.44951" lon="6.58153">
        <ele>293.473</ele>
        <time>2015-10-03T10:35:27Z</time>
      </trkpt>
      <trkpt lat="47.44948" lon="6.58157">
        <ele>292.633</ele>
        <time>2015-10-03T10:35:28Z</time>
      </trkpt>
      <trkpt lat="47.44946" lon="6.58161">
        <ele>293.367</ele>
        <time>2015-10-03T10:35:29Z</time>
      </trkpt>
      <trkpt lat="47.44943" lon="6.58164">
        <ele>296.603</ele>
        <time>2015-10-03T10:35:30Z</time>
      </trkpt>
      <trkpt lat="47.4494" lon="6.58168">
        <ele>296.321</ele>
        <time>2015-10-03T10:35:31Z</time>
      </trkpt>
      <trkpt lat="47.44937" lon="6.58173">
        <ele>295.794</ele>
        <time>2015-10-03T10:35:32Z</time>
      </trkpt>
      <trkpt lat="47.44935" lon="6.58176">
        <ele>296.105</ele>
        <time>2015-10-03T10:35:33Z</time>
      </trkpt>
      <trkpt lat="47.44932" lon="6.5818">
        <ele>296.672</ele>
        <time>2015-10-03T10:35:34Z</time>
      </trkpt>
      <trkpt lat="47.4493" lon="6.58184">
        <ele>297.258</ele>
        <time>2015-10-03T10:35:35Z</time>
      </trkpt>
      <trkpt lat="47.44927" lon="6.58188">
        <ele>297.01</ele>
        <time>2015-10-03T10:35:36Z</time>
      </trkpt>
      <trkpt lat="47.44925" lon="6.58191">
        <ele>297.028</ele>
        <time>2015-10-03T10:35:37Z</time>
      </trkpt>
      <trkpt lat="47.44922" lon="6.58195">
        <ele>296.667</ele>
        <time>2015-10-03T10:35:38Z</time>
      </trkpt>
      <trkpt lat="47.44919" lon="6.58198">
        <ele>297.179</ele>
        <time>2015-10-03T10:35:39Z</time>
      </trkpt>
      <trkpt lat="47.44917" lon="6.58201">
        <ele>296.893</ele>
        <time>2015-10-03T10:35:40Z</time>
      </trkpt>
      <trkpt lat="47.44914" lon="6.58206">
        <ele>296.842</ele>
        <time>2015-10-03T10:35:41Z</time>
      </trkpt>
      <trkpt lat="47.44912" lon="6.5821">
        <ele>296.627</ele>
        <time>2015-10-03T10:35:42Z</time>
      </trkpt>
      <trkpt lat="47.4491" lon="6.58214">
        <ele>295.395</ele>
        <time>2015-10-03T10:35:43Z</time>
      </trkpt>
      <trkpt lat="47.44908" lon="6.58217">
        <ele>295.274</ele>
        <time>2015-10-03T10:35:44Z</time>
      </trkpt>
      <trkpt lat="47.44906" lon="6.58219">
        <ele>296.99</ele>
        <time>2015-10-03T10:35:45Z</time>
      </trkpt>
      <trkpt lat="47.44905" lon="6.58222">
        <ele>294.826</ele>
        <time>2015-10-03T10:35:46Z</time>
      </trkpt>
      <trkpt lat="47.44904" lon="6.58225">
        <ele>297.103</ele>
        <time>2015-10-03T10:35:47Z</time>
      </trkpt>
      <trkpt lat="47.44905" lon="6.58228">
        <ele>298.285</ele>
        <time>2015-10-03T10:35:48Z</time>
      </trkpt>
      <trkpt lat="47.44906" lon="6.58232">
        <ele>298.988</ele>
        <time>2015-10-03T10:35:49Z</time>
      </trkpt>
      <trkpt lat="47.44909" lon="6.58237">
        <ele>298.257</ele>
        <time>2015-10-03T10:35:50Z</time>
      </trkpt>
      <trkpt lat="47.44912" lon="6.58241">
        <ele>298.23</ele>
        <time>2015-10-03T10:35:51Z</time>
      </trkpt>
      <trkpt lat="47.44916" lon="6.58246">
        <ele>297.404</ele>
        <time>2015-10-03T10:35:52Z</time>
      </trkpt>
      <trkpt lat="47.44919" lon="6.58251">
        <ele>294.348</ele>
        <time>2015-10-03T10:35:53Z</time>
      </trkpt>
      <trkpt lat="47.44922" lon="6.58256">
        <ele>294.562</ele>
        <time>2015-10-03T10:35:54Z</time>
      </trkpt>
      <trkpt lat="47.44925" lon="6.58261">
        <ele>294.588</ele>
        <time>2015-10-03T10:35:55Z</time>
      </trkpt>
      <trkpt lat="47.44928" lon="6.58266">
        <ele>294.5</ele>
        <time>2015-10-03T10:35:56Z</time>
      </trkpt>
      <trkpt lat="47.44931" lon="6.5827">
        <ele>294.67</ele>
        <time>2015-10-03T10:35:57Z</time>
      </trkpt>
      <trkpt lat="47.44933" lon="6.58274">
        <ele>296.369</ele>
        <time>2015-10-03T10:35:58Z</time>
      </trkpt>
      <trkpt lat="47.44936" lon="6.58277">
        <ele>296.64</ele>
        <time>2015-10-03T10:35:59Z</time>
      </trkpt>
      <trkpt lat="47.44939" lon="6.58281">
        <ele>294.741</ele>
        <time>2015-10-03T10:36:00Z</time>
      </trkpt>
      <trkpt lat="47.44941" lon="6.58284">
        <ele>295.533</ele>
        <time>2015-10-03T10:36:01Z</time>
      </trkpt>
      <trkpt lat="47.44944" lon="6.58288">
        <ele>295.85</ele>
        <time>2015-10-03T10:36:02Z</time>
      </trkpt>
      <trkpt lat="47.44947" lon="6.58292">
        <ele>296.465</ele>
        <time>2015-10-03T10:36:03Z</time>
      </trkpt>
      <trkpt lat="47.44949" lon="6.58296">
        <ele>297.647</ele>
        <time>2015-10-03T10:36:04Z</time>
      </trkpt>
      <trkpt lat="47.44952" lon="6.583">
        <ele>302.13</ele>
        <time>2015-10-03T10:36:05Z</time>
      </trkpt>
      <trkpt lat="47.44954" lon="6.58304">
        <ele>304.187</ele>
        <time>2015-10-03T10:36:06Z</time>
      </trkpt>
      <trkpt lat="47.44957" lon="6.58308">
        <ele>303.167</ele>
        <time>2015-10-03T10:36:07Z</time>
      </trkpt>
      <trkpt lat="47.4496" lon="6.58311">
        <ele>303.367</ele>
        <time>2015-10-03T10:36:08Z</time>
      </trkpt>
      <trkpt lat="47.44964" lon="6.58315">
        <ele>303.058</ele>
        <time>2015-10-03T10:36:09Z</time>
      </trkpt>
      <trkpt lat="47.44967" lon="6.58319">
        <ele>300.827</ele>
        <time>2015-10-03T10:36:10Z</time>
      </trkpt>
      <trkpt lat="47.44969" lon="6.58323">
        <ele>300.3</ele>
        <time>2015-10-03T10:36:11Z</time>
      </trkpt>
      <trkpt lat="47.44972" lon="6.58327">
        <ele>300.694</ele>
        <time>2015-10-03T10:36:12Z</time>
      </trkpt>
      <trkpt lat="47.44975" lon="6.58331">
        <ele>301.954</ele>
        <time>2015-10-03T10:36:13Z</time>
      </trkpt>
      <trkpt lat="47.44978" lon="6.58335">
        <ele>302.008</ele>
        <time>2015-10-03T10:36:14Z</time>
      </trkpt>
      <trkpt lat="47.44981" lon="6.5834">
        <ele>303.115</ele>
        <time>2015-10-03T10:36:15Z</time>
      </trkpt>
      <trkpt lat="47.44983" lon="6.58344">
        <ele>303.023</ele>
        <time>2015-10-03T10:36:16Z</time>
      </trkpt>
      <trkpt lat="47.44986" lon="6.58348">
        <ele>302.61</ele>
        <time>2015-10-03T10:36:17Z</time>
      </trkpt>
      <trkpt lat="47.44988" lon="6.58353">
        <ele>303.56</ele>
        <time>2015-10-03T10:36:18Z</time>
      </trkpt>
      <trkpt lat="47.44991" lon="6.58357">
        <ele>303.462</ele>
        <time>2015-10-03T10:36:19Z</time>
      </trkpt>
      <trkpt lat="47.44994" lon="6.58361">
        <ele>302.036</ele>
        <time>2015-10-03T10:36:20Z</time>
      </trkpt>
      <trkpt lat="47.44997" lon="6.58365">
        <ele>301.335</ele>
        <time>2015-10-03T10:36:21Z</time>
      </trkpt>
      <trkpt lat="47.45" lon="6.5837">
        <ele>301.703</ele>
        <time>2015-10-03T10:36:22Z</time>
      </trkpt>
      <trkpt lat="47.45003" lon="6.58374">
        <ele>301.632</ele>
        <time>2015-10-03T10:36:23Z</time>
      </trkpt>
      <trkpt lat="47.45006" lon="6.58379">
        <ele>301.507</ele>
        <time>2015-10-03T10:36:24Z</time>
      </trkpt>
      <trkpt lat="47.45009" lon="6.58383">
        <ele>301.874</ele>
        <time>2015-10-03T10:36:25Z</time>
      </trkpt>
      <trkpt lat="47.45012" lon="6.58387">
        <ele>302.102</ele>
        <time>2015-10-03T10:36:26Z</time>
      </trkpt>
      <trkpt lat="47.45015" lon="6.58392">
        <ele>302.482</ele>
        <time>2015-10-03T10:36:27Z</time>
      </trkpt>
      <trkpt lat="47.45017" lon="6.58396">
        <ele>303.431</ele>
        <time>2015-10-03T10:36:28Z</time>
      </trkpt>
      <trkpt lat="47.4502" lon="6.584">
        <ele>303.329</ele>
        <time>2015-10-03T10:36:29Z</time>
      </trkpt>
      <trkpt lat="47.45023" lon="6.58404">
        <ele>303.048</ele>
        <time>2015-10-03T10:36:30Z</time>
      </trkpt>
      <trkpt lat="47.45025" lon="6.58408">
        <ele>302.828</ele>
        <time>2015-10-03T10:36:31Z</time>
      </trkpt>
      <trkpt lat="47.45028" lon="6.58412">
        <ele>302.498</ele>
        <time>2015-10-03T10:36:32Z</time>
      </trkpt>
      <trkpt lat="47.4503" lon="6.58417">
        <ele>301.769</ele>
        <time>2015-10-03T10:36:33Z</time>
      </trkpt>
      <trkpt lat="47.45033" lon="6.58422">
        <ele>302.395</ele>
        <time>2015-10-03T10:36:34Z</time>
      </trkpt>
      <trkpt lat="47.45035" lon="6.58426">
        <ele>302.972</ele>
        <time>2015-10-03T10:36:35Z</time>
      </trkpt>
      <trkpt lat="47.45038" lon="6.58431">
        <ele>302.933</ele>
        <time>2015-10-03T10:36:36Z</time>
      </trkpt>
      <trkpt lat="47.45041" lon="6.58435">
        <ele>301.748</ele>
        <time>2015-10-03T10:36:37Z</time>
      </trkpt>
      <trkpt lat="47.45044" lon="6.5844">
        <ele>301.923</ele>
        <time>2015-10-03T10:36:38Z</time>
      </trkpt>
      <trkpt lat="47.45046" lon="6.58446">
        <ele>302.342</ele>
        <time>2015-10-03T10:36:39Z</time>
      </trkpt>
      <trkpt lat="47.45049" lon="6.58451">
        <ele>302.075</ele>
        <time>2015-10-03T10:36:40Z</time>
      </trkpt>
      <trkpt lat="47.45051" lon="6.58456">
        <ele>301.869</ele>
        <time>2015-10-03T10:36:41Z</time>
      </trkpt>
      <trkpt lat="47.45054" lon="6.58461">
        <ele>303.399</ele>
        <time>2015-10-03T10:36:42Z</time>
      </trkpt>
      <trkpt lat="47.45057" lon="6.58466">
        <ele>303.013</ele>
        <time>2015-10-03T10:36:43Z</time>
      </trkpt>
      <trkpt lat="47.45059" lon="6.58471">
        <ele>304.513</ele>
        <time>2015-10-03T10:36:44Z</time>
      </trkpt>
      <trkpt lat="47.45061" lon="6.58476">
        <ele>304.244</ele>
        <time>2015-10-03T10:36:45Z</time>
      </trkpt>
      <trkpt lat="47.45063" lon="6.58482">
        <ele>304.314</ele>
        <time>2015-10-03T10:36:46Z</time>
      </trkpt>
      <trkpt lat="47.45066" lon="6.58487">
        <ele>304.905</ele>
        <time>2015-10-03T10:36:47Z</time>
      </trkpt>
      <trkpt lat="47.45068" lon="6.58491">
        <ele>303.777</ele>
        <time>2015-10-03T10:36:48Z</time>
      </trkpt>
      <trkpt lat="47.45071" lon="6.58496">
        <ele>303.767</ele>
        <time>2015-10-03T10:36:49Z</time>
      </trkpt>
      <trkpt lat="47.45074" lon="6.58502">
        <ele>304.263</ele>
        <time>2015-10-03T10:36:50Z</time>
      </trkpt>
      <trkpt lat="47.45076" lon="6.58508">
        <ele>306.917</ele>
        <time>2015-10-03T10:36:51Z</time>
      </trkpt>
      <trkpt lat="47.45079" lon="6.58513">
        <ele>306.445</ele>
        <time>2015-10-03T10:36:52Z</time>
      </trkpt>
      <trkpt lat="47.45082" lon="6.58517">
        <ele>305.789</ele>
        <time>2015-10-03T10:36:53Z</time>
      </trkpt>
      <trkpt lat="47.45084" lon="6.58522">
        <ele>304.878</ele>
        <time>2015-10-03T10:36:54Z</time>
      </trkpt>
      <trkpt lat="47.45087" lon="6.58528">
        <ele>305.719</ele>
        <time>2015-10-03T10:36:55Z</time>
      </trkpt>
      <trkpt lat="47.45089" lon="6.58534">
        <ele>305.388</ele>
        <time>2015-10-03T10:36:56Z</time>
      </trkpt>
      <trkpt lat="47.45091" lon="6.58539">
        <ele>305.656</ele>
        <time>2015-10-03T10:36:57Z</time>
      </trkpt>
      <trkpt lat="47.45093" lon="6.58544">
        <ele>306.127</ele>
        <time>2015-10-03T10:36:58Z</time>
      </trkpt>
      <trkpt lat="47.45095" lon="6.5855">
        <ele>305.693</ele>
        <time>2015-10-03T10:36:59Z</time>
      </trkpt>
      <trkpt lat="47.45098" lon="6.58555">
        <ele>305.573</ele>
        <time>2015-10-03T10:37:00Z</time>
      </trkpt>
      <trkpt lat="47.45099" lon="6.58561">
        <ele>305.068</ele>
        <time>2015-10-03T10:37:01Z</time>
      </trkpt>
      <trkpt lat="47.45101" lon="6.58566">
        <ele>305.032</ele>
        <time>2015-10-03T10:37:02Z</time>
      </trkpt>
      <trkpt lat="47.45104" lon="6.58572">
        <ele>305.461</ele>
        <time>2015-10-03T10:37:03Z</time>
      </trkpt>
      <trkpt lat="47.45106" lon="6.58577">
        <ele>304.495</ele>
        <time>2015-10-03T10:37:04Z</time>
      </trkpt>
      <trkpt lat="47.45109" lon="6.58582">
        <ele>303.593</ele>
        <time>2015-10-03T10:37:05Z</time>
      </trkpt>
      <trkpt lat="47.45111" lon="6.58588">
        <ele>304.729</ele>
        <time>2015-10-03T10:37:06Z</time>
      </trkpt>
      <trkpt lat="47.45112" lon="6.58593">
        <ele>304.432</ele>
        <time>2015-10-03T10:37:07Z</time>
      </trkpt>
      <trkpt lat="47.45114" lon="6.58598">
        <ele>303.974</ele>
        <time>2015-10-03T10:37:08Z</time>
      </trkpt>
      <trkpt lat="47.45116" lon="6.58604">
        <ele>303.452</ele>
        <time>2015-10-03T10:37:09Z</time>
      </trkpt>
      <trkpt lat="47.45118" lon="6.58609">
        <ele>303.117</ele>
        <time>2015-10-03T10:37:10Z</time>
      </trkpt>
      <trkpt lat="47.4512" lon="6.58616">
        <ele>303.713</ele>
        <time>2015-10-03T10:37:11Z</time>
      </trkpt>
      <trkpt lat="47.45121" lon="6.58622">
        <ele>305.91</ele>
        <time>2015-10-03T10:37:12Z</time>
      </trkpt>
      <trkpt lat="47.45123" lon="6.58629">
        <ele>305.325</ele>
        <time>2015-10-03T10:37:13Z</time>
      </trkpt>
      <trkpt lat="47.45125" lon="6.58636">
        <ele>304.731</ele>
        <time>2015-10-03T10:37:14Z</time>
      </trkpt>
      <trkpt lat="47.45127" lon="6.58642">
        <ele>303.879</ele>
        <time>2015-10-03T10:37:15Z</time>
      </trkpt>
      <trkpt lat="47.45129" lon="6.58647">
        <ele>303.275</ele>
        <time>2015-10-03T10:37:16Z</time>
      </trkpt>
      <trkpt lat="47.4513" lon="6.58651">
        <ele>302.83</ele>
        <time>2015-10-03T10:37:17Z</time>
      </trkpt>
      <trkpt lat="47.45132" lon="6.58658">
        <ele>303.228</ele>
        <time>2015-10-03T10:37:18Z</time>
      </trkpt>
      <trkpt lat="47.45133" lon="6.58664">
        <ele>302.961</ele>
        <time>2015-10-03T10:37:19Z</time>
      </trkpt>
      <trkpt lat="47.45136" lon="6.58669">
        <ele>301.392</ele>
        <time>2015-10-03T10:37:20Z</time>
      </trkpt>
      <trkpt lat="47.45138" lon="6.58674">
        <ele>301.776</ele>
        <time>2015-10-03T10:37:21Z</time>
      </trkpt>
      <trkpt lat="47.45139" lon="6.58678">
        <ele>302.547</ele>
        <time>2015-10-03T10:37:22Z</time>
      </trkpt>
      <trkpt lat="47.45141" lon="6.58683">
        <ele>301.752</ele>
        <time>2015-10-03T10:37:23Z</time>
      </trkpt>
      <trkpt lat="47.45143" lon="6.5869">
        <ele>300.111</ele>
        <time>2015-10-03T10:37:24Z</time>
      </trkpt>
      <trkpt lat="47.45145" lon="6.58696">
        <ele>299.415</ele>
        <time>2015-10-03T10:37:25Z</time>
      </trkpt>
      <trkpt lat="47.45148" lon="6.58702">
        <ele>298.861</ele>
        <time>2015-10-03T10:37:26Z</time>
      </trkpt>
      <trkpt lat="47.45149" lon="6.58706">
        <ele>299.031</ele>
        <time>2015-10-03T10:37:27Z</time>
      </trkpt>
      <trkpt lat="47.4515" lon="6.58711">
        <ele>299.339</ele>
        <time>2015-10-03T10:37:28Z</time>
      </trkpt>
      <trkpt lat="47.45152" lon="6.58716">
        <ele>299.349</ele>
        <time>2015-10-03T10:37:29Z</time>
      </trkpt>
      <trkpt lat="47.45154" lon="6.58722">
        <ele>300.116</ele>
        <time>2015-10-03T10:37:30Z</time>
      </trkpt>
      <trkpt lat="47.45156" lon="6.58727">
        <ele>299.275</ele>
        <time>2015-10-03T10:37:31Z</time>
      </trkpt>
      <trkpt lat="47.45158" lon="6.58732">
        <ele>299.237</ele>
        <time>2015-10-03T10:37:32Z</time>
      </trkpt>
      <trkpt lat="47.4516" lon="6.58738">
        <ele>299.296</ele>
        <time>2015-10-03T10:37:33Z</time>
      </trkpt>
      <trkpt lat="47.45162" lon="6.58743">
        <ele>298.974</ele>
        <time>2015-10-03T10:37:34Z</time>
      </trkpt>
      <trkpt lat="47.45163" lon="6.58749">
        <ele>299.636</ele>
        <time>2015-10-03T10:37:35Z</time>
      </trkpt>
      <trkpt lat="47.45165" lon="6.58755">
        <ele>300.593</ele>
        <time>2015-10-03T10:37:36Z</time>
      </trkpt>
      <trkpt lat="47.45167" lon="6.58761">
        <ele>299.106</ele>
        <time>2015-10-03T10:37:37Z</time>
      </trkpt>
      <trkpt lat="47.4517" lon="6.58766">
        <ele>298.922</ele>
        <time>2015-10-03T10:37:38Z</time>
      </trkpt>
      <trkpt lat="47.45171" lon="6.58772">
        <ele>299.058</ele>
        <time>2015-10-03T10:37:39Z</time>
      </trkpt>
      <trkpt lat="47.45173" lon="6.58778">
        <ele>299.243</ele>
        <time>2015-10-03T10:37:40Z</time>
      </trkpt>
      <trkpt lat="47.45175" lon="6.58784">
        <ele>299.436</ele>
        <time>2015-10-03T10:37:41Z</time>
      </trkpt>
      <trkpt lat="47.45176" lon="6.58789">
        <ele>300.022</ele>
        <time>2015-10-03T10:37:42Z</time>
      </trkpt>
      <trkpt lat="47.45179" lon="6.58797">
        <ele>300.588</ele>
        <time>2015-10-03T10:37:43Z</time>
      </trkpt>
      <trkpt lat="47.45181" lon="6.58803">
        <ele>301.153</ele>
        <time>2015-10-03T10:37:44Z</time>
      </trkpt>
      <trkpt lat="47.45183" lon="6.5881">
        <ele>301.604</ele>
        <time>2015-10-03T10:37:45Z</time>
      </trkpt>
      <trkpt lat="47.45184" lon="6.58815">
        <ele>302.771</ele>
        <time>2015-10-03T10:37:46Z</time>
      </trkpt>
      <trkpt lat="47.45186" lon="6.5882">
        <ele>302.436</ele>
        <time>2015-10-03T10:37:47Z</time>
      </trkpt>
      <trkpt lat="47.45188" lon="6.58825">
        <ele>302.514</ele>
        <time>2015-10-03T10:37:48Z</time>
      </trkpt>
      <trkpt lat="47.4519" lon="6.5883">
        <ele>301.615</ele>
        <time>2015-10-03T10:37:49Z</time>
      </trkpt>
      <trkpt lat="47.45191" lon="6.58835">
        <ele>300.923</ele>
        <time>2015-10-03T10:37:50Z</time>
      </trkpt>
      <trkpt lat="47.45193" lon="6.58841">
        <ele>300.122</ele>
        <time>2015-10-03T10:37:51Z</time>
      </trkpt>
      <trkpt lat="47.45194" lon="6.58847">
        <ele>300.854</ele>
        <time>2015-10-03T10:37:52Z</time>
      </trkpt>
      <trkpt lat="47.45196" lon="6.58854">
        <ele>300.366</ele>
        <time>2015-10-03T10:37:53Z</time>
      </trkpt>
      <trkpt lat="47.45198" lon="6.5886">
        <ele>299.051</ele>
        <time>2015-10-03T10:37:54Z</time>
      </trkpt>
      <trkpt lat="47.452" lon="6.58865">
        <ele>299.157</ele>
        <time>2015-10-03T10:37:55Z</time>
      </trkpt>
      <trkpt lat="47.45201" lon="6.58871">
        <ele>299.983</ele>
        <time>2015-10-03T10:37:56Z</time>
      </trkpt>
      <trkpt lat="47.45203" lon="6.58876">
        <ele>300.645</ele>
        <time>2015-10-03T10:37:57Z</time>
      </trkpt>
      <trkpt lat="47.45204" lon="6.58882">
        <ele>300.457</ele>
        <time>2015-10-03T10:37:58Z</time>
      </trkpt>
      <trkpt lat="47.45206" lon="6.58888">
        <ele>300.426</ele>
        <time>2015-10-03T10:37:59Z</time>
      </trkpt>
      <trkpt lat="47.45209" lon="6.58893">
        <ele>299.567</ele>
        <time>2015-10-03T10:38:00Z</time>
      </trkpt>
      <trkpt lat="47.4521" lon="6.58897">
        <ele>301.174</ele>
        <time>2015-10-03T10:38:01Z</time>
      </trkpt>
      <trkpt lat="47.45212" lon="6.58902">
        <ele>301.768</ele>
        <time>2015-10-03T10:38:02Z</time>
      </trkpt>
      <trkpt lat="47.45214" lon="6.58908">
        <ele>303.976</ele>
        <time>2015-10-03T10:38:03Z</time>
      </trkpt>
      <trkpt lat="47.45217" lon="6.58914">
        <ele>304.495</ele>
        <time>2015-10-03T10:38:04Z</time>
      </trkpt>
      <trkpt lat="47.45221" lon="6.58919">
        <ele>305.214</ele>
        <time>2015-10-03T10:38:05Z</time>
      </trkpt>
      <trkpt lat="47.45224" lon="6.58926">
        <ele>304.734</ele>
        <time>2015-10-03T10:38:06Z</time>
      </trkpt>
      <trkpt lat="47.45227" lon="6.5893">
        <ele>303.001</ele>
        <time>2015-10-03T10:38:07Z</time>
      </trkpt>
      <trkpt lat="47.4523" lon="6.58937">
        <ele>303.336</ele>
        <time>2015-10-03T10:38:08Z</time>
      </trkpt>
      <trkpt lat="47.4523" lon="6.58943">
        <ele>302.011</ele>
        <time>2015-10-03T10:38:09Z</time>
      </trkpt>
      <trkpt lat="47.4523" lon="6.58948">
        <ele>300.91</ele>
        <time>2015-10-03T10:38:10Z</time>
      </trkpt>
      <trkpt lat="47.4523" lon="6.58953">
        <ele>300.761</ele>
        <time>2015-10-03T10:38:11Z</time>
      </trkpt>
      <trkpt lat="47.45229" lon="6.58959">
        <ele>300.595</ele>
        <time>2015-10-03T10:38:12Z</time>
      </trkpt>
      <trkpt lat="47.4523" lon="6.58965">
        <ele>300.026</ele>
        <time>2015-10-03T10:38:13Z</time>
      </trkpt>
      <trkpt lat="47.45228" lon="6.58971">
        <ele>300.03</ele>
        <time>2015-10-03T10:38:14Z</time>
      </trkpt>
      <trkpt lat="47.45227" lon="6.58977">
        <ele>298.573</ele>
        <time>2015-10-03T10:38:15Z</time>
      </trkpt>
      <trkpt lat="47.45225" lon="6.58983">
        <ele>297.943</ele>
        <time>2015-10-03T10:38:16Z</time>
      </trkpt>
      <trkpt lat="47.45226" lon="6.58989">
        <ele>297.233</ele>
        <time>2015-10-03T10:38:17Z</time>
      </trkpt>
      <trkpt lat="47.45225" lon="6.58996">
        <ele>297.226</ele>
        <time>2015-10-03T10:38:18Z</time>
      </trkpt>
      <trkpt lat="47.45223" lon="6.59001">
        <ele>297.348</ele>
        <time>2015-10-03T10:38:19Z</time>
      </trkpt>
      <trkpt lat="47.45221" lon="6.59007">
        <ele>297.11</ele>
        <time>2015-10-03T10:38:20Z</time>
      </trkpt>
      <trkpt lat="47.4522" lon="6.59012">
        <ele>297.246</ele>
        <time>2015-10-03T10:38:21Z</time>
      </trkpt>
      <trkpt lat="47.4522" lon="6.59018">
        <ele>297.156</ele>
        <time>2015-10-03T10:38:22Z</time>
      </trkpt>
      <trkpt lat="47.45219" lon="6.59024">
        <ele>296.462</ele>
        <time>2015-10-03T10:38:23Z</time>
      </trkpt>
      <trkpt lat="47.45217" lon="6.59029">
        <ele>297.527</ele>
        <time>2015-10-03T10:38:24Z</time>
      </trkpt>
      <trkpt lat="47.4522" lon="6.59037">
        <ele>294.829</ele>
        <time>2015-10-03T10:38:25Z</time>
      </trkpt>
      <trkpt lat="47.45219" lon="6.59043">
        <ele>294.665</ele>
        <time>2015-10-03T10:38:26Z</time>
      </trkpt>
      <trkpt lat="47.45219" lon="6.5905">
        <ele>294.195</ele>
        <time>2015-10-03T10:38:27Z</time>
      </trkpt>
      <trkpt lat="47.45219" lon="6.59056">
        <ele>293.936</ele>
        <time>2015-10-03T10:38:28Z</time>
      </trkpt>
      <trkpt lat="47.45219" lon="6.59063">
        <ele>294.176</ele>
        <time>2015-10-03T10:38:29Z</time>
      </trkpt>
      <trkpt lat="47.45219" lon="6.59069">
        <ele>295.818</ele>
        <time>2015-10-03T10:38:30Z</time>
      </trkpt>
      <trkpt lat="47.45221" lon="6.59076">
        <ele>295.163</ele>
        <time>2015-10-03T10:38:31Z</time>
      </trkpt>
      <trkpt lat="47.4522" lon="6.59082">
        <ele>295.292</ele>
        <time>2015-10-03T10:38:32Z</time>
      </trkpt>
      <trkpt lat="47.45219" lon="6.59088">
        <ele>295.221</ele>
        <time>2015-10-03T10:38:33Z</time>
      </trkpt>
      <trkpt lat="47.45218" lon="6.59095">
        <ele>295.372</ele>
        <time>2015-10-03T10:38:34Z</time>
      </trkpt>
      <trkpt lat="47.45217" lon="6.59102">
        <ele>295.311</ele>
        <time>2015-10-03T10:38:35Z</time>
      </trkpt>
      <trkpt lat="47.45217" lon="6.59108">
        <ele>295.885</ele>
        <time>2015-10-03T10:38:36Z</time>
      </trkpt>
      <trkpt lat="47.45216" lon="6.59113">
        <ele>295.189</ele>
        <time>2015-10-03T10:38:37Z</time>
      </trkpt>
      <trkpt lat="47.45217" lon="6.59121">
        <ele>294.191</ele>
        <time>2015-10-03T10:38:38Z</time>
      </trkpt>
      <trkpt lat="47.45217" lon="6.59129">
        <ele>294.887</ele>
        <time>2015-10-03T10:38:39Z</time>
      </trkpt>
      <trkpt lat="47.45216" lon="6.59134">
        <ele>294.844</ele>
        <time>2015-10-03T10:38:40Z</time>
      </trkpt>
      <trkpt lat="47.45215" lon="6.59141">
        <ele>294.417</ele>
        <time>2015-10-03T10:38:41Z</time>
      </trkpt>
      <trkpt lat="47.45214" lon="6.59146">
        <ele>294.332</ele>
        <time>2015-10-03T10:38:42Z</time>
      </trkpt>
      <trkpt lat="47.45214" lon="6.59155">
        <ele>292.724</ele>
        <time>2015-10-03T10:38:43Z</time>
      </trkpt>
      <trkpt lat="47.45213" lon="6.59162">
        <ele>292.146</ele>
        <time>2015-10-03T10:38:44Z</time>
      </trkpt>
      <trkpt lat="47.45212" lon="6.59169">
        <ele>291.082</ele>
        <time>2015-10-03T10:38:45Z</time>
      </trkpt>
      <trkpt lat="47.45211" lon="6.59174">
        <ele>291.452</ele>
        <time>2015-10-03T10:38:46Z</time>
      </trkpt>
      <trkpt lat="47.4521" lon="6.5918">
        <ele>291.198</ele>
        <time>2015-10-03T10:38:47Z</time>
      </trkpt>
      <trkpt lat="47.45208" lon="6.59187">
        <ele>291.303</ele>
        <time>2015-10-03T10:38:48Z</time>
      </trkpt>
      <trkpt lat="47.45206" lon="6.59193">
        <ele>291.069</ele>
        <time>2015-10-03T10:38:49Z</time>
      </trkpt>
      <trkpt lat="47.45206" lon="6.59198">
        <ele>291.595</ele>
        <time>2015-10-03T10:38:50Z</time>
      </trkpt>
      <trkpt lat="47.45205" lon="6.59204">
        <ele>291.92</ele>
        <time>2015-10-03T10:38:51Z</time>
      </trkpt>
      <trkpt lat="47.45204" lon="6.59211">
        <ele>290.91</ele>
        <time>2015-10-03T10:38:52Z</time>
      </trkpt>
      <trkpt lat="47.45203" lon="6.59217">
        <ele>291.209</ele>
        <time>2015-10-03T10:38:53Z</time>
      </trkpt>
      <trkpt lat="47.45202" lon="6.59223">
        <ele>291.635</ele>
        <time>2015-10-03T10:38:54Z</time>
      </trkpt>
      <trkpt lat="47.452" lon="6.59228">
        <ele>291.519</ele>
        <time>2015-10-03T10:38:55Z</time>
      </trkpt>
      <trkpt lat="47.45199" lon="6.59234">
        <ele>291.881</ele>
        <time>2015-10-03T10:38:56Z</time>
      </trkpt>
      <trkpt lat="47.45197" lon="6.5924">
        <ele>291.844</ele>
        <time>2015-10-03T10:38:57Z</time>
      </trkpt>
      <trkpt lat="47.45196" lon="6.59248">
        <ele>291.221</ele>
        <time>2015-10-03T10:38:58Z</time>
      </trkpt>
      <trkpt lat="47.45195" lon="6.59255">
        <ele>290.935</ele>
        <time>2015-10-03T10:38:59Z</time>
      </trkpt>
      <trkpt lat="47.45194" lon="6.59262">
        <ele>290.866</ele>
        <time>2015-10-03T10:39:00Z</time>
      </trkpt>
      <trkpt lat="47.45192" lon="6.59267">
        <ele>290.777</ele>
        <time>2015-10-03T10:39:01Z</time>
      </trkpt>
      <trkpt lat="47.45191" lon="6.59273">
        <ele>291.177</ele>
        <time>2015-10-03T10:39:02Z</time>
      </trkpt>
      <trkpt lat="47.45189" lon="6.5928">
        <ele>292.253</ele>
        <time>2015-10-03T10:39:03Z</time>
      </trkpt>
      <trkpt lat="47.45187" lon="6.59286">
        <ele>292.513</ele>
        <time>2015-10-03T10:39:04Z</time>
      </trkpt>
      <trkpt lat="47.45185" lon="6.59292">
        <ele>292.862</ele>
        <time>2015-10-03T10:39:05Z</time>
      </trkpt>
      <trkpt lat="47.45183" lon="6.59297">
        <ele>293.592</ele>
        <time>2015-10-03T10:39:06Z</time>
      </trkpt>
      <trkpt lat="47.45183" lon="6.59304">
        <ele>292.774</ele>
        <time>2015-10-03T10:39:07Z</time>
      </trkpt>
      <trkpt lat="47.45181" lon="6.59312">
        <ele>292.745</ele>
        <time>2015-10-03T10:39:08Z</time>
      </trkpt>
      <trkpt lat="47.4518" lon="6.59321">
        <ele>291.382</ele>
        <time>2015-10-03T10:39:09Z</time>
      </trkpt>
      <trkpt lat="47.45178" lon="6.59326">
        <ele>291.282</ele>
        <time>2015-10-03T10:39:10Z</time>
      </trkpt>
      <trkpt lat="47.45176" lon="6.59331">
        <ele>291.784</ele>
        <time>2015-10-03T10:39:11Z</time>
      </trkpt>
      <trkpt lat="47.45173" lon="6.59336">
        <ele>291.699</ele>
        <time>2015-10-03T10:39:12Z</time>
      </trkpt>
      <trkpt lat="47.45171" lon="6.59342">
        <ele>293.577</ele>
        <time>2015-10-03T10:39:13Z</time>
      </trkpt>
      <trkpt lat="47.45168" lon="6.59348">
        <ele>294.227</ele>
        <time>2015-10-03T10:39:14Z</time>
      </trkpt>
      <trkpt lat="47.45166" lon="6.59353">
        <ele>294.679</ele>
        <time>2015-10-03T10:39:15Z</time>
      </trkpt>
      <trkpt lat="47.45163" lon="6.59359">
        <ele>295.379</ele>
        <time>2015-10-03T10:39:16Z</time>
      </trkpt>
      <trkpt lat="47.45161" lon="6.59364">
        <ele>295.162</ele>
        <time>2015-10-03T10:39:17Z</time>
      </trkpt>
      <trkpt lat="47.45158" lon="6.59369">
        <ele>294.233</ele>
        <time>2015-10-03T10:39:18Z</time>
      </trkpt>
      <trkpt lat="47.45156" lon="6.59374">
        <ele>292.852</ele>
        <time>2015-10-03T10:39:19Z</time>
      </trkpt>
      <trkpt lat="47.45154" lon="6.59379">
        <ele>292.852</ele>
        <time>2015-10-03T10:39:20Z</time>
      </trkpt>
      <trkpt lat="47.45151" lon="6.59384">
        <ele>292.182</ele>
        <time>2015-10-03T10:39:21Z</time>
      </trkpt>
      <trkpt lat="47.45149" lon="6.59389">
        <ele>292.697</ele>
        <time>2015-10-03T10:39:22Z</time>
      </trkpt>
      <trkpt lat="47.45146" lon="6.59393">
        <ele>293.27</ele>
        <time>2015-10-03T10:39:23Z</time>
      </trkpt>
      <trkpt lat="47.45144" lon="6.59398">
        <ele>293.688</ele>
        <time>2015-10-03T10:39:24Z</time>
      </trkpt>
      <trkpt lat="47.45141" lon="6.59402">
        <ele>293.637</ele>
        <time>2015-10-03T10:39:25Z</time>
      </trkpt>
      <trkpt lat="47.45137" lon="6.59406">
        <ele>293.069</ele>
        <time>2015-10-03T10:39:26Z</time>
      </trkpt>
      <trkpt lat="47.45134" lon="6.59411">
        <ele>291.994</ele>
        <time>2015-10-03T10:39:27Z</time>
      </trkpt>
      <trkpt lat="47.4513" lon="6.59415">
        <ele>291.496</ele>
        <time>2015-10-03T10:39:28Z</time>
      </trkpt>
      <trkpt lat="47.45125" lon="6.5942">
        <ele>291.178</ele>
        <time>2015-10-03T10:39:29Z</time>
      </trkpt>
      <trkpt lat="47.4512" lon="6.59423">
        <ele>290.393</ele>
        <time>2015-10-03T10:39:30Z</time>
      </trkpt>
      <trkpt lat="47.45116" lon="6.59426">
        <ele>290.307</ele>
        <time>2015-10-03T10:39:31Z</time>
      </trkpt>
      <trkpt lat="47.45111" lon="6.59429">
        <ele>290.3</ele>
        <time>2015-10-03T10:39:32Z</time>
      </trkpt>
      <trkpt lat="47.45106" lon="6.59435">
        <ele>289.67</ele>
        <time>2015-10-03T10:39:33Z</time>
      </trkpt>
      <trkpt lat="47.45102" lon="6.59439">
        <ele>289.756</ele>
        <time>2015-10-03T10:39:34Z</time>
      </trkpt>
      <trkpt lat="47.45098" lon="6.59444">
        <ele>289.496</ele>
        <time>2015-10-03T10:39:35Z</time>
      </trkpt>
      <trkpt lat="47.45096" lon="6.59451">
        <ele>290.22</ele>
        <time>2015-10-03T10:39:36Z</time>
      </trkpt>
      <trkpt lat="47.45093" lon="6.59458">
        <ele>290.389</ele>
        <time>2015-10-03T10:39:37Z</time>
      </trkpt>
      <trkpt lat="47.45089" lon="6.5946">
        <ele>292.054</ele>
        <time>2015-10-03T10:39:38Z</time>
      </trkpt>
      <trkpt lat="47.45086" lon="6.59465">
        <ele>292.227</ele>
        <time>2015-10-03T10:39:39Z</time>
      </trkpt>
      <trkpt lat="47.45083" lon="6.59469">
        <ele>292.679</ele>
        <time>2015-10-03T10:39:40Z</time>
      </trkpt>
      <trkpt lat="47.4508" lon="6.59474">
        <ele>293.785</ele>
        <time>2015-10-03T10:39:41Z</time>
      </trkpt>
      <trkpt lat="47.45077" lon="6.59476">
        <ele>293.226</ele>
        <time>2015-10-03T10:39:42Z</time>
      </trkpt>
      <trkpt lat="47.45074" lon="6.59478">
        <ele>293.573</ele>
        <time>2015-10-03T10:39:43Z</time>
      </trkpt>
      <trkpt lat="47.4507" lon="6.59481">
        <ele>293.755</ele>
        <time>2015-10-03T10:39:44Z</time>
      </trkpt>
      <trkpt lat="47.45066" lon="6.59484">
        <ele>292.965</ele>
        <time>2015-10-03T10:39:45Z</time>
      </trkpt>
      <trkpt lat="47.45062" lon="6.59486">
        <ele>293.423</ele>
        <time>2015-10-03T10:39:46Z</time>
      </trkpt>
      <trkpt lat="47.45058" lon="6.59489">
        <ele>293.766</ele>
        <time>2015-10-03T10:39:47Z</time>
      </trkpt>
      <trkpt lat="47.45055" lon="6.59492">
        <ele>294.574</ele>
        <time>2015-10-03T10:39:48Z</time>
      </trkpt>
      <trkpt lat="47.45051" lon="6.59495">
        <ele>294.396</ele>
        <time>2015-10-03T10:39:49Z</time>
      </trkpt>
      <trkpt lat="47.45048" lon="6.59498">
        <ele>294.972</ele>
        <time>2015-10-03T10:39:50Z</time>
      </trkpt>
      <trkpt lat="47.45044" lon="6.59502">
        <ele>294.503</ele>
        <time>2015-10-03T10:39:51Z</time>
      </trkpt>
      <trkpt lat="47.4504" lon="6.59505">
        <ele>294.352</ele>
        <time>2015-10-03T10:39:52Z</time>
      </trkpt>
      <trkpt lat="47.45036" lon="6.59508">
        <ele>294.531</ele>
        <time>2015-10-03T10:39:53Z</time>
      </trkpt>
      <trkpt lat="47.45033" lon="6.59512">
        <ele>294.901</ele>
        <time>2015-10-03T10:39:54Z</time>
      </trkpt>
      <trkpt lat="47.45029" lon="6.59515">
        <ele>295.499</ele>
        <time>2015-10-03T10:39:55Z</time>
      </trkpt>
      <trkpt lat="47.45025" lon="6.59518">
        <ele>295.655</ele>
        <time>2015-10-03T10:39:56Z</time>
      </trkpt>
      <trkpt lat="47.45021" lon="6.59521">
        <ele>295.735</ele>
        <time>2015-10-03T10:39:57Z</time>
      </trkpt>
      <trkpt lat="47.45017" lon="6.59524">
        <ele>295.92</ele>
        <time>2015-10-03T10:39:58Z</time>
      </trkpt>
      <trkpt lat="47.45013" lon="6.59526">
        <ele>296.416</ele>
        <time>2015-10-03T10:39:59Z</time>
      </trkpt>
      <trkpt lat="47.45009" lon="6.59529">
        <ele>296.499</ele>
        <time>2015-10-03T10:40:00Z</time>
      </trkpt>
      <trkpt lat="47.45006" lon="6.59532">
        <ele>296.679</ele>
        <time>2015-10-03T10:40:01Z</time>
      </trkpt>
      <trkpt lat="47.45002" lon="6.59536">
        <ele>297.3</ele>
        <time>2015-10-03T10:40:02Z</time>
      </trkpt>
      <trkpt lat="47.44998" lon="6.59539">
        <ele>297.088</ele>
        <time>2015-10-03T10:40:03Z</time>
      </trkpt>
      <trkpt lat="47.44995" lon="6.59545">
        <ele>298.352</ele>
        <time>2015-10-03T10:40:04Z</time>
      </trkpt>
      <trkpt lat="47.44991" lon="6.59547">
        <ele>298.397</ele>
        <time>2015-10-03T10:40:05Z</time>
      </trkpt>
      <trkpt lat="47.44987" lon="6.59551">
        <ele>298.856</ele>
        <time>2015-10-03T10:40:06Z</time>
      </trkpt>
      <trkpt lat="47.44983" lon="6.59553">
        <ele>298.381</ele>
        <time>2015-10-03T10:40:07Z</time>
      </trkpt>
      <trkpt lat="47.44979" lon="6.59556">
        <ele>298.435</ele>
        <time>2015-10-03T10:40:08Z</time>
      </trkpt>
      <trkpt lat="47.44975" lon="6.59559">
        <ele>297.998</ele>
        <time>2015-10-03T10:40:09Z</time>
      </trkpt>
      <trkpt lat="47.44971" lon="6.5956">
        <ele>298.536</ele>
        <time>2015-10-03T10:40:10Z</time>
      </trkpt>
      <trkpt lat="47.44967" lon="6.59565">
        <ele>298.077</ele>
        <time>2015-10-03T10:40:11Z</time>
      </trkpt>
      <trkpt lat="47.44965" lon="6.59572">
        <ele>296.972</ele>
        <time>2015-10-03T10:40:12Z</time>
      </trkpt>
      <trkpt lat="47.44961" lon="6.59574">
        <ele>299.153</ele>
        <time>2015-10-03T10:40:13Z</time>
      </trkpt>
      <trkpt lat="47.44957" lon="6.59577">
        <ele>299.695</ele>
        <time>2015-10-03T10:40:14Z</time>
      </trkpt>
      <trkpt lat="47.44955" lon="6.5958">
        <ele>300.207</ele>
        <time>2015-10-03T10:40:15Z</time>
      </trkpt>
      <trkpt lat="47.44951" lon="6.59582">
        <ele>300.929</ele>
        <time>2015-10-03T10:40:16Z</time>
      </trkpt>
      <trkpt lat="47.44951" lon="6.59589">
        <ele>299.279</ele>
        <time>2015-10-03T10:40:17Z</time>
      </trkpt>
      <trkpt lat="47.44947" lon="6.59593">
        <ele>299.908</ele>
        <time>2015-10-03T10:40:18Z</time>
      </trkpt>
      <trkpt lat="47.44943" lon="6.59596">
        <ele>299.839</ele>
        <time>2015-10-03T10:40:19Z</time>
      </trkpt>
      <trkpt lat="47.44939" lon="6.59601">
        <ele>299.972</ele>
        <time>2015-10-03T10:40:20Z</time>
      </trkpt>
      <trkpt lat="47.44935" lon="6.59604">
        <ele>299.681</ele>
        <time>2015-10-03T10:40:21Z</time>
      </trkpt>
      <trkpt lat="47.4493" lon="6.59607">
        <ele>298.602</ele>
        <time>2015-10-03T10:40:22Z</time>
      </trkpt>
      <trkpt lat="47.44926" lon="6.5961">
        <ele>299.751</ele>
        <time>2015-10-03T10:40:23Z</time>
      </trkpt>
      <trkpt lat="47.44922" lon="6.59612">
        <ele>300.021</ele>
        <time>2015-10-03T10:40:24Z</time>
      </trkpt>
      <trkpt lat="47.44918" lon="6.59614">
        <ele>299.941</ele>
        <time>2015-10-03T10:40:25Z</time>
      </trkpt>
      <trkpt lat="47.44914" lon="6.59616">
        <ele>299.398</ele>
        <time>2015-10-03T10:40:26Z</time>
      </trkpt>
      <trkpt lat="47.4491" lon="6.59615">
        <ele>300.291</ele>
        <time>2015-10-03T10:40:27Z</time>
      </trkpt>
      <trkpt lat="47.44905" lon="6.59617">
        <ele>300.694</ele>
        <time>2015-10-03T10:40:28Z</time>
      </trkpt>
      <trkpt lat="47.44901" lon="6.59619">
        <ele>301.107</ele>
        <time>2015-10-03T10:40:29Z</time>
      </trkpt>
      <trkpt lat="47.44895" lon="6.5962">
        <ele>300.015</ele>
        <time>2015-10-03T10:40:30Z</time>
      </trkpt>
      <trkpt lat="47.44889" lon="6.59625">
        <ele>298.53</ele>
        <time>2015-10-03T10:40:31Z</time>
      </trkpt>
      <trkpt lat="47.44883" lon="6.59626">
        <ele>297.698</ele>
        <time>2015-10-03T10:40:32Z</time>
      </trkpt>
      <trkpt lat="47.44879" lon="6.59629">
        <ele>296.963</ele>
        <time>2015-10-03T10:40:33Z</time>
      </trkpt>
      <trkpt lat="47.44875" lon="6.59631">
        <ele>297.56</ele>
        <time>2015-10-03T10:40:34Z</time>
      </trkpt>
      <trkpt lat="47.44871" lon="6.59633">
        <ele>296.976</ele>
        <time>2015-10-03T10:40:35Z</time>
      </trkpt>
      <trkpt lat="47.44867" lon="6.59637">
        <ele>296.531</ele>
        <time>2015-10-03T10:40:36Z</time>
      </trkpt>
      <trkpt lat="47.44864" lon="6.5964">
        <ele>297.082</ele>
        <time>2015-10-03T10:40:37Z</time>
      </trkpt>
      <trkpt lat="47.4486" lon="6.59641">
        <ele>298.053</ele>
        <time>2015-10-03T10:40:38Z</time>
      </trkpt>
      <trkpt lat="47.44856" lon="6.59644">
        <ele>298.548</ele>
        <time>2015-10-03T10:40:39Z</time>
      </trkpt>
      <trkpt lat="47.44852" lon="6.59647">
        <ele>298.968</ele>
        <time>2015-10-03T10:40:40Z</time>
      </trkpt>
      <trkpt lat="47.44848" lon="6.5965">
        <ele>298.865</ele>
        <time>2015-10-03T10:40:41Z</time>
      </trkpt>
      <trkpt lat="47.44845" lon="6.59656">
        <ele>298.544</ele>
        <time>2015-10-03T10:40:42Z</time>
      </trkpt>
      <trkpt lat="47.44841" lon="6.59658">
        <ele>298.693</ele>
        <time>2015-10-03T10:40:43Z</time>
      </trkpt>
      <trkpt lat="47.44837" lon="6.59661">
        <ele>298.508</ele>
        <time>2015-10-03T10:40:44Z</time>
      </trkpt>
      <trkpt lat="47.44833" lon="6.59664">
        <ele>298.589</ele>
        <time>2015-10-03T10:40:45Z</time>
      </trkpt>
      <trkpt lat="47.44829" lon="6.59667">
        <ele>297.975</ele>
        <time>2015-10-03T10:40:46Z</time>
      </trkpt>
      <trkpt lat="47.44824" lon="6.59668">
        <ele>298.459</ele>
        <time>2015-10-03T10:40:47Z</time>
      </trkpt>
      <trkpt lat="47.44821" lon="6.59671">
        <ele>299.161</ele>
        <time>2015-10-03T10:40:48Z</time>
      </trkpt>
      <trkpt lat="47.44817" lon="6.59673">
        <ele>299.117</ele>
        <time>2015-10-03T10:40:49Z</time>
      </trkpt>
      <trkpt lat="47.44814" lon="6.59677">
        <ele>299.364</ele>
        <time>2015-10-03T10:40:50Z</time>
      </trkpt>
      <trkpt lat="47.44809" lon="6.59679">
        <ele>299.237</ele>
        <time>2015-10-03T10:40:51Z</time>
      </trkpt>
      <trkpt lat="47.44805" lon="6.59681">
        <ele>298.324</ele>
        <time>2015-10-03T10:40:52Z</time>
      </trkpt>
      <trkpt lat="47.44801" lon="6.59683">
        <ele>297.197</ele>
        <time>2015-10-03T10:40:53Z</time>
      </trkpt>
      <trkpt lat="47.44797" lon="6.59688">
        <ele>297.599</ele>
        <time>2015-10-03T10:40:54Z</time>
      </trkpt>
      <trkpt lat="47.44794" lon="6.5969">
        <ele>299.34</ele>
        <time>2015-10-03T10:40:55Z</time>
      </trkpt>
      <trkpt lat="47.4479" lon="6.59693">
        <ele>299.298</ele>
        <time>2015-10-03T10:40:56Z</time>
      </trkpt>
      <trkpt lat="47.44785" lon="6.59693">
        <ele>299.283</ele>
        <time>2015-10-03T10:40:57Z</time>
      </trkpt>
      <trkpt lat="47.44781" lon="6.59694">
        <ele>299.606</ele>
        <time>2015-10-03T10:40:58Z</time>
      </trkpt>
      <trkpt lat="47.44777" lon="6.59694">
        <ele>299.933</ele>
        <time>2015-10-03T10:40:59Z</time>
      </trkpt>
      <trkpt lat="47.44774" lon="6.59697">
        <ele>298.715</ele>
        <time>2015-10-03T10:41:00Z</time>
      </trkpt>
      <trkpt lat="47.4477" lon="6.59701">
        <ele>297.987</ele>
        <time>2015-10-03T10:41:01Z</time>
      </trkpt>
      <trkpt lat="47.44764" lon="6.59704">
        <ele>295.573</ele>
        <time>2015-10-03T10:41:02Z</time>
      </trkpt>
      <trkpt lat="47.44759" lon="6.59706">
        <ele>294.2</ele>
        <time>2015-10-03T10:41:03Z</time>
      </trkpt>
      <trkpt lat="47.44754" lon="6.59707">
        <ele>294.229</ele>
        <time>2015-10-03T10:41:04Z</time>
      </trkpt>
      <trkpt lat="47.4475" lon="6.59707">
        <ele>296.574</ele>
        <time>2015-10-03T10:41:05Z</time>
      </trkpt>
      <trkpt lat="47.44745" lon="6.59707">
        <ele>297.115</ele>
        <time>2015-10-03T10:41:06Z</time>
      </trkpt>
      <trkpt lat="47.44742" lon="6.59707">
        <ele>297.7</ele>
        <time>2015-10-03T10:41:07Z</time>
      </trkpt>
      <trkpt lat="47.44737" lon="6.59709">
        <ele>297.712</ele>
        <time>2015-10-03T10:41:08Z</time>
      </trkpt>
      <trkpt lat="47.44732" lon="6.59711">
        <ele>294.947</ele>
        <time>2015-10-03T10:41:09Z</time>
      </trkpt>
      <trkpt lat="47.44727" lon="6.59713">
        <ele>293.24</ele>
        <time>2015-10-03T10:41:10Z</time>
      </trkpt>
      <trkpt lat="47.44724" lon="6.59714">
        <ele>293.67</ele>
        <time>2015-10-03T10:41:11Z</time>
      </trkpt>
      <trkpt lat="47.44719" lon="6.59713">
        <ele>295.16</ele>
        <time>2015-10-03T10:41:12Z</time>
      </trkpt>
      <trkpt lat="47.44714" lon="6.59713">
        <ele>294.857</ele>
        <time>2015-10-03T10:41:13Z</time>
      </trkpt>
      <trkpt lat="47.4471" lon="6.59713">
        <ele>294.606</ele>
        <time>2015-10-03T10:41:14Z</time>
      </trkpt>
      <trkpt lat="47.44704" lon="6.59714">
        <ele>292.764</ele>
        <time>2015-10-03T10:41:15Z</time>
      </trkpt>
      <trkpt lat="47.44702" lon="6.59715">
        <ele>293.04</ele>
        <time>2015-10-03T10:41:16Z</time>
      </trkpt>
      <trkpt lat="47.44698" lon="6.59716">
        <ele>293.378</ele>
        <time>2015-10-03T10:41:17Z</time>
      </trkpt>
      <trkpt lat="47.44694" lon="6.59716">
        <ele>295.339</ele>
        <time>2015-10-03T10:41:18Z</time>
      </trkpt>
      <trkpt lat="47.44691" lon="6.59718">
        <ele>293.408</ele>
        <time>2015-10-03T10:41:19Z</time>
      </trkpt>
      <trkpt lat="47.44687" lon="6.59718">
        <ele>294.786</ele>
        <time>2015-10-03T10:41:20Z</time>
      </trkpt>
      <trkpt lat="47.44682" lon="6.59717">
        <ele>295.241</ele>
        <time>2015-10-03T10:41:21Z</time>
      </trkpt>
      <trkpt lat="47.44677" lon="6.59716">
        <ele>295.786</ele>
        <time>2015-10-03T10:41:22Z</time>
      </trkpt>
      <trkpt lat="47.4467" lon="6.59714">
        <ele>293.868</ele>
        <time>2015-10-03T10:41:23Z</time>
      </trkpt>
      <trkpt lat="47.44665" lon="6.59715">
        <ele>293.249</ele>
        <time>2015-10-03T10:41:24Z</time>
      </trkpt>
      <trkpt lat="47.44661" lon="6.59716">
        <ele>292.188</ele>
        <time>2015-10-03T10:41:25Z</time>
      </trkpt>
      <trkpt lat="47.44656" lon="6.59716">
        <ele>292.353</ele>
        <time>2015-10-03T10:41:26Z</time>
      </trkpt>
      <trkpt lat="47.44651" lon="6.59715">
        <ele>292.451</ele>
        <time>2015-10-03T10:41:27Z</time>
      </trkpt>
      <trkpt lat="47.44646" lon="6.59715">
        <ele>292.295</ele>
        <time>2015-10-03T10:41:28Z</time>
      </trkpt>
      <trkpt lat="47.44643" lon="6.5971">
        <ele>289.334</ele>
        <time>2015-10-03T10:41:29Z</time>
      </trkpt>
      <trkpt lat="47.44638" lon="6.5971">
        <ele>290.18</ele>
        <time>2015-10-03T10:41:30Z</time>
      </trkpt>
      <trkpt lat="47.44634" lon="6.59711">
        <ele>291.933</ele>
        <time>2015-10-03T10:41:31Z</time>
      </trkpt>
      <trkpt lat="47.4463" lon="6.59711">
        <ele>291.366</ele>
        <time>2015-10-03T10:41:32Z</time>
      </trkpt>
      <trkpt lat="47.44626" lon="6.59711">
        <ele>291.821</ele>
        <time>2015-10-03T10:41:33Z</time>
      </trkpt>
      <trkpt lat="47.44622" lon="6.59711">
        <ele>296.089</ele>
        <time>2015-10-03T10:41:34Z</time>
      </trkpt>
      <trkpt lat="47.4462" lon="6.5971">
        <ele>296.016</ele>
        <time>2015-10-03T10:41:35Z</time>
      </trkpt>
      <trkpt lat="47.44616" lon="6.59709">
        <ele>294.476</ele>
        <time>2015-10-03T10:41:36Z</time>
      </trkpt>
      <trkpt lat="47.44612" lon="6.59709">
        <ele>294.788</ele>
        <time>2015-10-03T10:41:37Z</time>
      </trkpt>
      <trkpt lat="47.44608" lon="6.59707">
        <ele>294.223</ele>
        <time>2015-10-03T10:41:38Z</time>
      </trkpt>
      <trkpt lat="47.44604" lon="6.59706">
        <ele>293.795</ele>
        <time>2015-10-03T10:41:39Z</time>
      </trkpt>
      <trkpt lat="47.446" lon="6.59706">
        <ele>292.849</ele>
        <time>2015-10-03T10:41:40Z</time>
      </trkpt>
      <trkpt lat="47.44597" lon="6.59704">
        <ele>293.171</ele>
        <time>2015-10-03T10:41:41Z</time>
      </trkpt>
      <trkpt lat="47.44593" lon="6.59705">
        <ele>293.619</ele>
        <time>2015-10-03T10:41:42Z</time>
      </trkpt>
      <trkpt lat="47.44591" lon="6.59702">
        <ele>292.607</ele>
        <time>2015-10-03T10:41:43Z</time>
      </trkpt>
      <trkpt lat="47.44588" lon="6.597">
        <ele>295.31</ele>
        <time>2015-10-03T10:41:44Z</time>
      </trkpt>
      <trkpt lat="47.44585" lon="6.59699">
        <ele>295.072</ele>
        <time>2015-10-03T10:41:45Z</time>
      </trkpt>
      <trkpt lat="47.4458" lon="6.59696">
        <ele>294.265</ele>
        <time>2015-10-03T10:41:46Z</time>
      </trkpt>
      <trkpt lat="47.44576" lon="6.59695">
        <ele>297.099</ele>
        <time>2015-10-03T10:41:47Z</time>
      </trkpt>
      <trkpt lat="47.44573" lon="6.59693">
        <ele>298.475</ele>
        <time>2015-10-03T10:41:48Z</time>
      </trkpt>
      <trkpt lat="47.44569" lon="6.59692">
        <ele>298.303</ele>
        <time>2015-10-03T10:41:49Z</time>
      </trkpt>
      <trkpt lat="47.44565" lon="6.59691">
        <ele>296.838</ele>
        <time>2015-10-03T10:41:50Z</time>
      </trkpt>
      <trkpt lat="47.4456" lon="6.5969">
        <ele>297.819</ele>
        <time>2015-10-03T10:41:51Z</time>
      </trkpt>
      <trkpt lat="47.44547" lon="6.59685">
        <ele>296.427</ele>
        <time>2015-10-03T10:41:52Z</time>
      </trkpt>
      <trkpt lat="47.4454" lon="6.59681">
        <ele>296.88</ele>
        <time>2015-10-03T10:41:53Z</time>
      </trkpt>
      <trkpt lat="47.44531" lon="6.59681">
        <ele>297.413</ele>
        <time>2015-10-03T10:41:54Z</time>
      </trkpt>
      <trkpt lat="47.44527" lon="6.59678">
        <ele>297.967</ele>
        <time>2015-10-03T10:41:55Z</time>
      </trkpt>
      <trkpt lat="47.44522" lon="6.59676">
        <ele>294.775</ele>
        <time>2015-10-03T10:41:56Z</time>
      </trkpt>
      <trkpt lat="47.44517" lon="6.59676">
        <ele>295.697</ele>
        <time>2015-10-03T10:41:57Z</time>
      </trkpt>
      <trkpt lat="47.44514" lon="6.59678">
        <ele>297.446</ele>
        <time>2015-10-03T10:41:58Z</time>
      </trkpt>
      <trkpt lat="47.44511" lon="6.59678">
        <ele>298.36</ele>
        <time>2015-10-03T10:41:59Z</time>
      </trkpt>
      <trkpt lat="47.44505" lon="6.59682">
        <ele>299.061</ele>
        <time>2015-10-03T10:42:00Z</time>
      </trkpt>
      <trkpt lat="47.44501" lon="6.59683">
        <ele>298.34</ele>
        <time>2015-10-03T10:42:01Z</time>
      </trkpt>
      <trkpt lat="47.44497" lon="6.59684">
        <ele>299.005</ele>
        <time>2015-10-03T10:42:02Z</time>
      </trkpt>
      <trkpt lat="47.44491" lon="6.59684">
        <ele>299.277</ele>
        <time>2015-10-03T10:42:03Z</time>
      </trkpt>
      <trkpt lat="47.44487" lon="6.59679">
        <ele>296.694</ele>
        <time>2015-10-03T10:42:04Z</time>
      </trkpt>
      <trkpt lat="47.44485" lon="6.59679">
        <ele>297.817</ele>
        <time>2015-10-03T10:42:05Z</time>
      </trkpt>
      <trkpt lat="47.44481" lon="6.59679">
        <ele>297.801</ele>
        <time>2015-10-03T10:42:06Z</time>
      </trkpt>
      <trkpt lat="47.44482" lon="6.5968">
        <ele>299.133</ele>
        <time>2015-10-03T10:42:07Z</time>
      </trkpt>
      <trkpt lat="47.44478" lon="6.59681">
        <ele>296.708</ele>
        <time>2015-10-03T10:42:08Z</time>
      </trkpt>
      <trkpt lat="47.44472" lon="6.59681">
        <ele>293.616</ele>
        <time>2015-10-03T10:42:09Z</time>
      </trkpt>
      <trkpt lat="47.44463" lon="6.59683">
        <ele>291.326</ele>
        <time>2015-10-03T10:42:10Z</time>
      </trkpt>
      <trkpt lat="47.44457" lon="6.59684">
        <ele>290.157</ele>
        <time>2015-10-03T10:42:11Z</time>
      </trkpt>
      <trkpt lat="47.4445" lon="6.59683">
        <ele>289.548</ele>
        <time>2015-10-03T10:42:12Z</time>
      </trkpt>
      <trkpt lat="47.44444" lon="6.59685">
        <ele>287.21</ele>
        <time>2015-10-03T10:42:13Z</time>
      </trkpt>
      <trkpt lat="47.4444" lon="6.59686">
        <ele>286.514</ele>
        <time>2015-10-03T10:42:14Z</time>
      </trkpt>
      <trkpt lat="47.44437" lon="6.59688">
        <ele>287.394</ele>
        <time>2015-10-03T10:42:15Z</time>
      </trkpt>
      <trkpt lat="47.44433" lon="6.5969">
        <ele>288.606</ele>
        <time>2015-10-03T10:42:16Z</time>
      </trkpt>
      <trkpt lat="47.44431" lon="6.59691">
        <ele>289.647</ele>
        <time>2015-10-03T10:42:17Z</time>
      </trkpt>
      <trkpt lat="47.44427" lon="6.59691">
        <ele>289.391</ele>
        <time>2015-10-03T10:42:18Z</time>
      </trkpt>
      <trkpt lat="47.44424" lon="6.59692">
        <ele>289.679</ele>
        <time>2015-10-03T10:42:19Z</time>
      </trkpt>
      <trkpt lat="47.44417" lon="6.59692">
        <ele>287.305</ele>
        <time>2015-10-03T10:42:20Z</time>
      </trkpt>
      <trkpt lat="47.44411" lon="6.59695">
        <ele>286.993</ele>
        <time>2015-10-03T10:42:21Z</time>
      </trkpt>
      <trkpt lat="47.44406" lon="6.59693">
        <ele>285.56</ele>
        <time>2015-10-03T10:42:22Z</time>
      </trkpt>
      <trkpt lat="47.44403" lon="6.59693">
        <ele>284.689</ele>
        <time>2015-10-03T10:42:23Z</time>
      </trkpt>
      <trkpt lat="47.44399" lon="6.59693">
        <ele>284.243</ele>
        <time>2015-10-03T10:42:24Z</time>
      </trkpt>
      <trkpt lat="47.44395" lon="6.59694">
        <ele>284.821</ele>
        <time>2015-10-03T10:42:25Z</time>
      </trkpt>
      <trkpt lat="47.44392" lon="6.59694">
        <ele>284.108</ele>
        <time>2015-10-03T10:42:26Z</time>
      </trkpt>
      <trkpt lat="47.44387" lon="6.59694">
        <ele>281.91</ele>
        <time>2015-10-03T10:42:27Z</time>
      </trkpt>
      <trkpt lat="47.44379" lon="6.59696">
        <ele>285.313</ele>
        <time>2015-10-03T10:42:28Z</time>
      </trkpt>
      <trkpt lat="47.44373" lon="6.597">
        <ele>289.91</ele>
        <time>2015-10-03T10:42:29Z</time>
      </trkpt>
      <trkpt lat="47.44368" lon="6.59701">
        <ele>288.64</ele>
        <time>2015-10-03T10:42:30Z</time>
      </trkpt>
      <trkpt lat="47.44351" lon="6.59702">
        <ele>288.065</ele>
        <time>2015-10-03T10:42:31Z</time>
      </trkpt>
      <trkpt lat="47.44347" lon="6.59706">
        <ele>287.538</ele>
        <time>2015-10-03T10:42:32Z</time>
      </trkpt>
      <trkpt lat="47.44348" lon="6.59714">
        <ele>286.813</ele>
        <time>2015-10-03T10:42:33Z</time>
      </trkpt>
      <trkpt lat="47.44344" lon="6.59718">
        <ele>286.732</ele>
        <time>2015-10-03T10:42:34Z</time>
      </trkpt>
      <trkpt lat="47.44334" lon="6.59713">
        <ele>285.507</ele>
        <time>2015-10-03T10:42:35Z</time>
      </trkpt>
      <trkpt lat="47.44331" lon="6.59714">
        <ele>283.583</ele>
        <time>2015-10-03T10:42:36Z</time>
      </trkpt>
      <trkpt lat="47.44328" lon="6.59716">
        <ele>283.344</ele>
        <time>2015-10-03T10:42:37Z</time>
      </trkpt>
      <trkpt lat="47.44322" lon="6.5972">
        <ele>288.903</ele>
        <time>2015-10-03T10:42:38Z</time>
      </trkpt>
      <trkpt lat="47.44316" lon="6.5972">
        <ele>287.18</ele>
        <time>2015-10-03T10:42:39Z</time>
      </trkpt>
      <trkpt lat="47.44311" lon="6.5972">
        <ele>286.859</ele>
        <time>2015-10-03T10:42:40Z</time>
      </trkpt>
      <trkpt lat="47.44307" lon="6.59721">
        <ele>287.702</ele>
        <time>2015-10-03T10:42:41Z</time>
      </trkpt>
      <trkpt lat="47.44303" lon="6.59722">
        <ele>287.225</ele>
        <time>2015-10-03T10:42:42Z</time>
      </trkpt>
      <trkpt lat="47.44298" lon="6.59722">
        <ele>285.649</ele>
        <time>2015-10-03T10:42:43Z</time>
      </trkpt>
      <trkpt lat="47.44295" lon="6.59719">
        <ele>286.697</ele>
        <time>2015-10-03T10:42:44Z</time>
      </trkpt>
      <trkpt lat="47.44292" lon="6.59719">
        <ele>286.085</ele>
        <time>2015-10-03T10:42:45Z</time>
      </trkpt>
      <trkpt lat="47.44289" lon="6.59722">
        <ele>287.807</ele>
        <time>2015-10-03T10:42:46Z</time>
      </trkpt>
      <trkpt lat="47.44286" lon="6.59721">
        <ele>285.811</ele>
        <time>2015-10-03T10:42:47Z</time>
      </trkpt>
      <trkpt lat="47.4428" lon="6.5972">
        <ele>283.858</ele>
        <time>2015-10-03T10:42:48Z</time>
      </trkpt>
      <trkpt lat="47.44277" lon="6.59722">
        <ele>284.766</ele>
        <time>2015-10-03T10:42:49Z</time>
      </trkpt>
      <trkpt lat="47.44274" lon="6.59723">
        <ele>284.603</ele>
        <time>2015-10-03T10:42:50Z</time>
      </trkpt>
      <trkpt lat="47.44269" lon="6.59721">
        <ele>282.413</ele>
        <time>2015-10-03T10:42:51Z</time>
      </trkpt>
      <trkpt lat="47.44261" lon="6.59721">
        <ele>281.067</ele>
        <time>2015-10-03T10:42:52Z</time>
      </trkpt>
      <trkpt lat="47.44257" lon="6.59721">
        <ele>280.66</ele>
        <time>2015-10-03T10:42:53Z</time>
      </trkpt>
      <trkpt lat="47.4425" lon="6.59722">
        <ele>278.918</ele>
        <time>2015-10-03T10:42:54Z</time>
      </trkpt>
      <trkpt lat="47.44245" lon="6.59723">
        <ele>279.926</ele>
        <time>2015-10-03T10:42:55Z</time>
      </trkpt>
      <trkpt lat="47.4424" lon="6.59722">
        <ele>279.605</ele>
        <time>2015-10-03T10:42:56Z</time>
      </trkpt>
      <trkpt lat="47.44237" lon="6.59724">
        <ele>280.019</ele>
        <time>2015-10-03T10:42:57Z</time>
      </trkpt>
      <trkpt lat="47.44233" lon="6.59727">
        <ele>279.956</ele>
        <time>2015-10-03T10:42:58Z</time>
      </trkpt>
      <trkpt lat="47.44229" lon="6.59727">
        <ele>278.818</ele>
        <time>2015-10-03T10:42:59Z</time>
      </trkpt>
      <trkpt lat="47.44223" lon="6.59728">
        <ele>277.99</ele>
        <time>2015-10-03T10:43:00Z</time>
      </trkpt>
      <trkpt lat="47.44218" lon="6.59729">
        <ele>277.818</ele>
        <time>2015-10-03T10:43:01Z</time>
      </trkpt>
      <trkpt lat="47.44214" lon="6.59731">
        <ele>276.805</ele>
        <time>2015-10-03T10:43:02Z</time>
      </trkpt>
      <trkpt lat="47.44209" lon="6.59732">
        <ele>276.522</ele>
        <time>2015-10-03T10:43:03Z</time>
      </trkpt>
      <trkpt lat="47.44203" lon="6.59733">
        <ele>277.38</ele>
        <time>2015-10-03T10:43:04Z</time>
      </trkpt>
      <trkpt lat="47.44198" lon="6.59734">
        <ele>277.295</ele>
        <time>2015-10-03T10:43:05Z</time>
      </trkpt>
      <trkpt lat="47.44194" lon="6.59735">
        <ele>277.18</ele>
        <time>2015-10-03T10:43:06Z</time>
      </trkpt>
      <trkpt lat="47.44189" lon="6.59737">
        <ele>277.073</ele>
        <time>2015-10-03T10:43:07Z</time>
      </trkpt>
      <trkpt lat="47.44184" lon="6.59739">
        <ele>276.526</ele>
        <time>2015-10-03T10:43:08Z</time>
      </trkpt>
      <trkpt lat="47.44179" lon="6.5974">
        <ele>278.047</ele>
        <time>2015-10-03T10:43:09Z</time>
      </trkpt>
      <trkpt lat="47.44174" lon="6.5974">
        <ele>278.581</ele>
        <time>2015-10-03T10:43:10Z</time>
      </trkpt>
      <trkpt lat="47.44169" lon="6.59741">
        <ele>278.465</ele>
        <time>2015-10-03T10:43:11Z</time>
      </trkpt>
      <trkpt lat="47.44163" lon="6.5974">
        <ele>278.965</ele>
        <time>2015-10-03T10:43:12Z</time>
      </trkpt>
      <trkpt lat="47.44159" lon="6.59741">
        <ele>278.751</ele>
        <time>2015-10-03T10:43:13Z</time>
      </trkpt>
      <trkpt lat="47.44154" lon="6.59743">
        <ele>277.361</ele>
        <time>2015-10-03T10:43:14Z</time>
      </trkpt>
      <trkpt lat="47.4415" lon="6.59743">
        <ele>277.515</ele>
        <time>2015-10-03T10:43:15Z</time>
      </trkpt>
      <trkpt lat="47.44145" lon="6.59743">
        <ele>278.393</ele>
        <time>2015-10-03T10:43:16Z</time>
      </trkpt>
      <trkpt lat="47.44141" lon="6.59744">
        <ele>280.31</ele>
        <time>2015-10-03T10:43:17Z</time>
      </trkpt>
      <trkpt lat="47.44139" lon="6.59744">
        <ele>280.66</ele>
        <time>2015-10-03T10:43:18Z</time>
      </trkpt>
      <trkpt lat="47.44135" lon="6.59742">
        <ele>281.265</ele>
        <time>2015-10-03T10:43:19Z</time>
      </trkpt>
      <trkpt lat="47.44127" lon="6.59742">
        <ele>281.269</ele>
        <time>2015-10-03T10:43:20Z</time>
      </trkpt>
      <trkpt lat="47.44125" lon="6.59743">
        <ele>281.028</ele>
        <time>2015-10-03T10:43:21Z</time>
      </trkpt>
      <trkpt lat="47.44122" lon="6.59742">
        <ele>282.664</ele>
        <time>2015-10-03T10:43:22Z</time>
      </trkpt>
      <trkpt lat="47.44116" lon="6.59742">
        <ele>281.311</ele>
        <time>2015-10-03T10:43:23Z</time>
      </trkpt>
      <trkpt lat="47.44111" lon="6.59743">
        <ele>282.185</ele>
        <time>2015-10-03T10:43:24Z</time>
      </trkpt>
      <trkpt lat="47.44105" lon="6.59743">
        <ele>281.956</ele>
        <time>2015-10-03T10:43:25Z</time>
      </trkpt>
      <trkpt lat="47.44101" lon="6.59742">
        <ele>282.868</ele>
        <time>2015-10-03T10:43:26Z</time>
      </trkpt>
      <trkpt lat="47.44095" lon="6.59747">
        <ele>284.113</ele>
        <time>2015-10-03T10:43:27Z</time>
      </trkpt>
      <trkpt lat="47.44089" lon="6.59747">
        <ele>284.801</ele>
        <time>2015-10-03T10:43:28Z</time>
      </trkpt>
      <trkpt lat="47.44084" lon="6.59749">
        <ele>285.311</ele>
        <time>2015-10-03T10:43:29Z</time>
      </trkpt>
      <trkpt lat="47.44079" lon="6.59752">
        <ele>286.576</ele>
        <time>2015-10-03T10:43:30Z</time>
      </trkpt>
      <trkpt lat="47.44075" lon="6.59754">
        <ele>285.433</ele>
        <time>2015-10-03T10:43:31Z</time>
      </trkpt>
      <trkpt lat="47.44072" lon="6.59758">
        <ele>282.618</ele>
        <time>2015-10-03T10:43:32Z</time>
      </trkpt>
      <trkpt lat="47.44068" lon="6.5976">
        <ele>283.785</ele>
        <time>2015-10-03T10:43:33Z</time>
      </trkpt>
      <trkpt lat="47.44063" lon="6.59761">
        <ele>284.998</ele>
        <time>2015-10-03T10:43:34Z</time>
      </trkpt>
      <trkpt lat="47.44059" lon="6.59762">
        <ele>285.222</ele>
        <time>2015-10-03T10:43:35Z</time>
      </trkpt>
      <trkpt lat="47.44053" lon="6.59764">
        <ele>284.698</ele>
        <time>2015-10-03T10:43:36Z</time>
      </trkpt>
      <trkpt lat="47.44049" lon="6.59766">
        <ele>284.464</ele>
        <time>2015-10-03T10:43:37Z</time>
      </trkpt>
      <trkpt lat="47.44045" lon="6.59767">
        <ele>284.035</ele>
        <time>2015-10-03T10:43:38Z</time>
      </trkpt>
      <trkpt lat="47.44039" lon="6.59767">
        <ele>283.536</ele>
        <time>2015-10-03T10:43:39Z</time>
      </trkpt>
      <trkpt lat="47.44035" lon="6.59767">
        <ele>284.603</ele>
        <time>2015-10-03T10:43:40Z</time>
      </trkpt>
      <trkpt lat="47.4403" lon="6.59769">
        <ele>285.327</ele>
        <time>2015-10-03T10:43:41Z</time>
      </trkpt>
      <trkpt lat="47.44025" lon="6.5977">
        <ele>286.356</ele>
        <time>2015-10-03T10:43:42Z</time>
      </trkpt>
      <trkpt lat="47.44021" lon="6.59773">
        <ele>287.208</ele>
        <time>2015-10-03T10:43:43Z</time>
      </trkpt>
      <trkpt lat="47.44017" lon="6.59776">
        <ele>287.127</ele>
        <time>2015-10-03T10:43:44Z</time>
      </trkpt>
      <trkpt lat="47.44013" lon="6.59777">
        <ele>286.434</ele>
        <time>2015-10-03T10:43:45Z</time>
      </trkpt>
      <trkpt lat="47.44008" lon="6.59778">
        <ele>285.983</ele>
        <time>2015-10-03T10:43:46Z</time>
      </trkpt>
      <trkpt lat="47.44003" lon="6.5978">
        <ele>286.25</ele>
        <time>2015-10-03T10:43:47Z</time>
      </trkpt>
      <trkpt lat="47.43998" lon="6.59781">
        <ele>285.734</ele>
        <time>2015-10-03T10:43:48Z</time>
      </trkpt>
      <trkpt lat="47.43993" lon="6.59781">
        <ele>285.67</ele>
        <time>2015-10-03T10:43:49Z</time>
      </trkpt>
      <trkpt lat="47.43989" lon="6.59783">
        <ele>285.467</ele>
        <time>2015-10-03T10:43:50Z</time>
      </trkpt>
      <trkpt lat="47.43984" lon="6.59783">
        <ele>284.686</ele>
        <time>2015-10-03T10:43:51Z</time>
      </trkpt>
      <trkpt lat="47.43979" lon="6.59783">
        <ele>284.61</ele>
        <time>2015-10-03T10:43:52Z</time>
      </trkpt>
      <trkpt lat="47.43975" lon="6.59784">
        <ele>284.582</ele>
        <time>2015-10-03T10:43:53Z</time>
      </trkpt>
      <trkpt lat="47.4397" lon="6.59788">
        <ele>285.765</ele>
        <time>2015-10-03T10:43:54Z</time>
      </trkpt>
      <trkpt lat="47.43965" lon="6.59787">
        <ele>285.981</ele>
        <time>2015-10-03T10:43:55Z</time>
      </trkpt>
      <trkpt lat="47.43959" lon="6.59787">
        <ele>288.644</ele>
        <time>2015-10-03T10:43:56Z</time>
      </trkpt>
      <trkpt lat="47.43958" lon="6.59788">
        <ele>293.168</ele>
        <time>2015-10-03T10:43:57Z</time>
      </trkpt>
      <trkpt lat="47.43954" lon="6.5979">
        <ele>293.099</ele>
        <time>2015-10-03T10:43:58Z</time>
      </trkpt>
      <trkpt lat="47.43951" lon="6.5979">
        <ele>293.518</ele>
        <time>2015-10-03T10:43:59Z</time>
      </trkpt>
      <trkpt lat="47.43944" lon="6.59791">
        <ele>292.604</ele>
        <time>2015-10-03T10:44:00Z</time>
      </trkpt>
      <trkpt lat="47.4394" lon="6.59791">
        <ele>295.156</ele>
        <time>2015-10-03T10:44:01Z</time>
      </trkpt>
      <trkpt lat="47.43933" lon="6.598">
        <ele>292.481</ele>
        <time>2015-10-03T10:44:02Z</time>
      </trkpt>
      <trkpt lat="47.43931" lon="6.59805">
        <ele>291.217</ele>
        <time>2015-10-03T10:44:03Z</time>
      </trkpt>
      <trkpt lat="47.43927" lon="6.59806">
        <ele>291.733</ele>
        <time>2015-10-03T10:44:04Z</time>
      </trkpt>
      <trkpt lat="47.43922" lon="6.59806">
        <ele>292.76</ele>
        <time>2015-10-03T10:44:05Z</time>
      </trkpt>
      <trkpt lat="47.43918" lon="6.59808">
        <ele>292.598</ele>
        <time>2015-10-03T10:44:06Z</time>
      </trkpt>
      <trkpt lat="47.43913" lon="6.59809">
        <ele>295.669</ele>
        <time>2015-10-03T10:44:07Z</time>
      </trkpt>
      <trkpt lat="47.43908" lon="6.59808">
        <ele>296.343</ele>
        <time>2015-10-03T10:44:08Z</time>
      </trkpt>
      <trkpt lat="47.439" lon="6.59809">
        <ele>295.769</ele>
        <time>2015-10-03T10:44:09Z</time>
      </trkpt>
      <trkpt lat="47.43895" lon="6.59809">
        <ele>294.771</ele>
        <time>2015-10-03T10:44:10Z</time>
      </trkpt>
      <trkpt lat="47.4389" lon="6.59809">
        <ele>295.418</ele>
        <time>2015-10-03T10:44:11Z</time>
      </trkpt>
      <trkpt lat="47.43886" lon="6.59809">
        <ele>296.649</ele>
        <time>2015-10-03T10:44:12Z</time>
      </trkpt>
      <trkpt lat="47.43881" lon="6.59808">
        <ele>297.181</ele>
        <time>2015-10-03T10:44:13Z</time>
      </trkpt>
      <trkpt lat="47.43878" lon="6.5981">
        <ele>299.818</ele>
        <time>2015-10-03T10:44:14Z</time>
      </trkpt>
      <trkpt lat="47.43874" lon="6.59811">
        <ele>300.891</ele>
        <time>2015-10-03T10:44:15Z</time>
      </trkpt>
      <trkpt lat="47.43868" lon="6.59811">
        <ele>300.485</ele>
        <time>2015-10-03T10:44:16Z</time>
      </trkpt>
      <trkpt lat="47.43865" lon="6.59811">
        <ele>297.06</ele>
        <time>2015-10-03T10:44:17Z</time>
      </trkpt>
      <trkpt lat="47.4386" lon="6.59812">
        <ele>297.592</ele>
        <time>2015-10-03T10:44:18Z</time>
      </trkpt>
      <trkpt lat="47.43854" lon="6.59814">
        <ele>296.531</ele>
        <time>2015-10-03T10:44:19Z</time>
      </trkpt>
      <trkpt lat="47.43849" lon="6.59816">
        <ele>297.488</ele>
        <time>2015-10-03T10:44:20Z</time>
      </trkpt>
      <trkpt lat="47.43843" lon="6.59815">
        <ele>297.587</ele>
        <time>2015-10-03T10:44:21Z</time>
      </trkpt>
      <trkpt lat="47.43838" lon="6.59816">
        <ele>297.244</ele>
        <time>2015-10-03T10:44:22Z</time>
      </trkpt>
      <trkpt lat="47.43833" lon="6.59816">
        <ele>296.931</ele>
        <time>2015-10-03T10:44:23Z</time>
      </trkpt>
      <trkpt lat="47.43828" lon="6.59815">
        <ele>297.221</ele>
        <time>2015-10-03T10:44:24Z</time>
      </trkpt>
      <trkpt lat="47.43824" lon="6.59817">
        <ele>299.068</ele>
        <time>2015-10-03T10:44:25Z</time>
      </trkpt>
      <trkpt lat="47.43822" lon="6.59821">
        <ele>297.538</ele>
        <time>2015-10-03T10:44:26Z</time>
      </trkpt>
      <trkpt lat="47.43818" lon="6.59823">
        <ele>297.324</ele>
        <time>2015-10-03T10:44:27Z</time>
      </trkpt>
      <trkpt lat="47.43814" lon="6.59825">
        <ele>297.326</ele>
        <time>2015-10-03T10:44:28Z</time>
      </trkpt>
      <trkpt lat="47.43808" lon="6.59821">
        <ele>295.854</ele>
        <time>2015-10-03T10:44:29Z</time>
      </trkpt>
      <trkpt lat="47.43805" lon="6.59828">
        <ele>296.261</ele>
        <time>2015-10-03T10:44:30Z</time>
      </trkpt>
      <trkpt lat="47.43801" lon="6.59832">
        <ele>295.631</ele>
        <time>2015-10-03T10:44:31Z</time>
      </trkpt>
      <trkpt lat="47.43797" lon="6.59833">
        <ele>295.571</ele>
        <time>2015-10-03T10:44:32Z</time>
      </trkpt>
      <trkpt lat="47.43793" lon="6.59834">
        <ele>294.631</ele>
        <time>2015-10-03T10:44:33Z</time>
      </trkpt>
      <trkpt lat="47.43793" lon="6.59842">
        <ele>291.185</ele>
        <time>2015-10-03T10:44:34Z</time>
      </trkpt>
      <trkpt lat="47.43782" lon="6.59843">
        <ele>288.725</ele>
        <time>2015-10-03T10:44:35Z</time>
      </trkpt>
      <trkpt lat="47.43778" lon="6.59844">
        <ele>289.287</ele>
        <time>2015-10-03T10:44:36Z</time>
      </trkpt>
      <trkpt lat="47.43773" lon="6.59845">
        <ele>290.372</ele>
        <time>2015-10-03T10:44:37Z</time>
      </trkpt>
      <trkpt lat="47.43768" lon="6.59848">
        <ele>291.026</ele>
        <time>2015-10-03T10:44:38Z</time>
      </trkpt>
      <trkpt lat="47.43761" lon="6.59847">
        <ele>290.256</ele>
        <time>2015-10-03T10:44:39Z</time>
      </trkpt>
      <trkpt lat="47.43756" lon="6.59845">
        <ele>291.803</ele>
        <time>2015-10-03T10:44:40Z</time>
      </trkpt>
      <trkpt lat="47.43751" lon="6.59844">
        <ele>294.85</ele>
        <time>2015-10-03T10:44:41Z</time>
      </trkpt>
      <trkpt lat="47.43747" lon="6.59846">
        <ele>294</ele>
        <time>2015-10-03T10:44:42Z</time>
      </trkpt>
      <trkpt lat="47.43742" lon="6.59848">
        <ele>294.866</ele>
        <time>2015-10-03T10:44:43Z</time>
      </trkpt>
      <trkpt lat="47.43737" lon="6.59849">
        <ele>295.708</ele>
        <time>2015-10-03T10:44:44Z</time>
      </trkpt>
      <trkpt lat="47.43731" lon="6.59846">
        <ele>297.382</ele>
        <time>2015-10-03T10:44:45Z</time>
      </trkpt>
      <trkpt lat="47.43727" lon="6.59847">
        <ele>296.686</ele>
        <time>2015-10-03T10:44:46Z</time>
      </trkpt>
      <trkpt lat="47.43723" lon="6.59848">
        <ele>298.474</ele>
        <time>2015-10-03T10:44:47Z</time>
      </trkpt>
      <trkpt lat="47.43719" lon="6.59849">
        <ele>298.214</ele>
        <time>2015-10-03T10:44:48Z</time>
      </trkpt>
      <trkpt lat="47.43714" lon="6.59853">
        <ele>299.213</ele>
        <time>2015-10-03T10:44:49Z</time>
      </trkpt>
      <trkpt lat="47.43709" lon="6.59854">
        <ele>299.009</ele>
        <time>2015-10-03T10:44:50Z</time>
      </trkpt>
      <trkpt lat="47.43705" lon="6.59855">
        <ele>298.993</ele>
        <time>2015-10-03T10:44:51Z</time>
      </trkpt>
      <trkpt lat="47.437" lon="6.59857">
        <ele>300.644</ele>
        <time>2015-10-03T10:44:52Z</time>
      </trkpt>
      <trkpt lat="47.43697" lon="6.59857">
        <ele>301.755</ele>
        <time>2015-10-03T10:44:53Z</time>
      </trkpt>
      <trkpt lat="47.43691" lon="6.59858">
        <ele>302.318</ele>
        <time>2015-10-03T10:44:54Z</time>
      </trkpt>
      <trkpt lat="47.43686" lon="6.59861">
        <ele>304.87</ele>
        <time>2015-10-03T10:44:55Z</time>
      </trkpt>
      <trkpt lat="47.43683" lon="6.59864">
        <ele>305.054</ele>
        <time>2015-10-03T10:44:56Z</time>
      </trkpt>
      <trkpt lat="47.43678" lon="6.59867">
        <ele>307.844</ele>
        <time>2015-10-03T10:44:57Z</time>
      </trkpt>
      <trkpt lat="47.43674" lon="6.59869">
        <ele>306.882</ele>
        <time>2015-10-03T10:44:58Z</time>
      </trkpt>
      <trkpt lat="47.4367" lon="6.59872">
        <ele>307.956</ele>
        <time>2015-10-03T10:44:59Z</time>
      </trkpt>
      <trkpt lat="47.43665" lon="6.59874">
        <ele>308.062</ele>
        <time>2015-10-03T10:45:00Z</time>
      </trkpt>
      <trkpt lat="47.43658" lon="6.59874">
        <ele>307.849</ele>
        <time>2015-10-03T10:45:01Z</time>
      </trkpt>
      <trkpt lat="47.43653" lon="6.59875">
        <ele>305.236</ele>
        <time>2015-10-03T10:45:02Z</time>
      </trkpt>
      <trkpt lat="47.43648" lon="6.59876">
        <ele>302.842</ele>
        <time>2015-10-03T10:45:03Z</time>
      </trkpt>
      <trkpt lat="47.43643" lon="6.59876">
        <ele>303.048</ele>
        <time>2015-10-03T10:45:04Z</time>
      </trkpt>
      <trkpt lat="47.43639" lon="6.59877">
        <ele>303.561</ele>
        <time>2015-10-03T10:45:05Z</time>
      </trkpt>
      <trkpt lat="47.43634" lon="6.59879">
        <ele>303.441</ele>
        <time>2015-10-03T10:45:06Z</time>
      </trkpt>
      <trkpt lat="47.4363" lon="6.59881">
        <ele>300.201</ele>
        <time>2015-10-03T10:45:07Z</time>
      </trkpt>
      <trkpt lat="47.43626" lon="6.59883">
        <ele>299.222</ele>
        <time>2015-10-03T10:45:08Z</time>
      </trkpt>
      <trkpt lat="47.43624" lon="6.59882">
        <ele>298.508</ele>
        <time>2015-10-03T10:45:09Z</time>
      </trkpt>
      <trkpt lat="47.4362" lon="6.59883">
        <ele>297.101</ele>
        <time>2015-10-03T10:45:10Z</time>
      </trkpt>
      <trkpt lat="47.43615" lon="6.59885">
        <ele>298.704</ele>
        <time>2015-10-03T10:45:11Z</time>
      </trkpt>
      <trkpt lat="47.43612" lon="6.59885">
        <ele>300.719</ele>
        <time>2015-10-03T10:45:12Z</time>
      </trkpt>
      <trkpt lat="47.43605" lon="6.59886">
        <ele>298.353</ele>
        <time>2015-10-03T10:45:13Z</time>
      </trkpt>
      <trkpt lat="47.43601" lon="6.59888">
        <ele>296.681</ele>
        <time>2015-10-03T10:45:14Z</time>
      </trkpt>
      <trkpt lat="47.43597" lon="6.59889">
        <ele>296.532</ele>
        <time>2015-10-03T10:45:15Z</time>
      </trkpt>
      <trkpt lat="47.43597" lon="6.59885">
        <ele>296.721</ele>
        <time>2015-10-03T10:45:16Z</time>
      </trkpt>
      <trkpt lat="47.43594" lon="6.59887">
        <ele>296.242</ele>
        <time>2015-10-03T10:45:17Z</time>
      </trkpt>
      <trkpt lat="47.43587" lon="6.59892">
        <ele>293.694</ele>
        <time>2015-10-03T10:45:18Z</time>
      </trkpt>
      <trkpt lat="47.4358" lon="6.59892">
        <ele>293.573</ele>
        <time>2015-10-03T10:45:19Z</time>
      </trkpt>
      <trkpt lat="47.43575" lon="6.59896">
        <ele>295.043</ele>
        <time>2015-10-03T10:45:20Z</time>
      </trkpt>
      <trkpt lat="47.43569" lon="6.59897">
        <ele>294.97</ele>
        <time>2015-10-03T10:45:21Z</time>
      </trkpt>
      <trkpt lat="47.43567" lon="6.59899">
        <ele>292.695</ele>
        <time>2015-10-03T10:45:22Z</time>
      </trkpt>
      <trkpt lat="47.43563" lon="6.59901">
        <ele>293.119</ele>
        <time>2015-10-03T10:45:23Z</time>
      </trkpt>
      <trkpt lat="47.4356" lon="6.59902">
        <ele>291.884</ele>
        <time>2015-10-03T10:45:24Z</time>
      </trkpt>
      <trkpt lat="47.43555" lon="6.599">
        <ele>290.536</ele>
        <time>2015-10-03T10:45:25Z</time>
      </trkpt>
      <trkpt lat="47.43551" lon="6.59901">
        <ele>287.796</ele>
        <time>2015-10-03T10:45:26Z</time>
      </trkpt>
      <trkpt lat="47.43546" lon="6.599">
        <ele>286.282</ele>
        <time>2015-10-03T10:45:27Z</time>
      </trkpt>
      <trkpt lat="47.43542" lon="6.59902">
        <ele>286.847</ele>
        <time>2015-10-03T10:45:28Z</time>
      </trkpt>
      <trkpt lat="47.43537" lon="6.59904">
        <ele>287.098</ele>
        <time>2015-10-03T10:45:29Z</time>
      </trkpt>
      <trkpt lat="47.43533" lon="6.59907">
        <ele>288.618</ele>
        <time>2015-10-03T10:45:30Z</time>
      </trkpt>
      <trkpt lat="47.43525" lon="6.59907">
        <ele>287.057</ele>
        <time>2015-10-03T10:45:31Z</time>
      </trkpt>
      <trkpt lat="47.43521" lon="6.59912">
        <ele>287.758</ele>
        <time>2015-10-03T10:45:32Z</time>
      </trkpt>
      <trkpt lat="47.43518" lon="6.59918">
        <ele>282.56</ele>
        <time>2015-10-03T10:45:33Z</time>
      </trkpt>
      <trkpt lat="47.43513" lon="6.59925">
        <ele>287.076</ele>
        <time>2015-10-03T10:45:34Z</time>
      </trkpt>
      <trkpt lat="47.43508" lon="6.59928">
        <ele>287.253</ele>
        <time>2015-10-03T10:45:35Z</time>
      </trkpt>
      <trkpt lat="47.43505" lon="6.59932">
        <ele>288.079</ele>
        <time>2015-10-03T10:45:36Z</time>
      </trkpt>
      <trkpt lat="47.43502" lon="6.59935">
        <ele>286.958</ele>
        <time>2015-10-03T10:45:37Z</time>
      </trkpt>
      <trkpt lat="47.43497" lon="6.59939">
        <ele>286.978</ele>
        <time>2015-10-03T10:45:38Z</time>
      </trkpt>
      <trkpt lat="47.43495" lon="6.59942">
        <ele>287.152</ele>
        <time>2015-10-03T10:45:39Z</time>
      </trkpt>
      <trkpt lat="47.43492" lon="6.59946">
        <ele>289.311</ele>
        <time>2015-10-03T10:45:40Z</time>
      </trkpt>
      <trkpt lat="47.43486" lon="6.5995">
        <ele>289.798</ele>
        <time>2015-10-03T10:45:41Z</time>
      </trkpt>
      <trkpt lat="47.43482" lon="6.59954">
        <ele>289.653</ele>
        <time>2015-10-03T10:45:42Z</time>
      </trkpt>
      <trkpt lat="47.43476" lon="6.59957">
        <ele>291.66</ele>
        <time>2015-10-03T10:45:43Z</time>
      </trkpt>
      <trkpt lat="47.43469" lon="6.5996">
        <ele>291.481</ele>
        <time>2015-10-03T10:45:44Z</time>
      </trkpt>
      <trkpt lat="47.43466" lon="6.59962">
        <ele>291.495</ele>
        <time>2015-10-03T10:45:45Z</time>
      </trkpt>
      <trkpt lat="47.43463" lon="6.59961">
        <ele>291.949</ele>
        <time>2015-10-03T10:45:46Z</time>
      </trkpt>
      <trkpt lat="47.43459" lon="6.59966">
        <ele>293.375</ele>
        <time>2015-10-03T10:45:47Z</time>
      </trkpt>
      <trkpt lat="47.43452" lon="6.59966">
        <ele>289.064</ele>
        <time>2015-10-03T10:45:48Z</time>
      </trkpt>
      <trkpt lat="47.43447" lon="6.59967">
        <ele>288.406</ele>
        <time>2015-10-03T10:45:49Z</time>
      </trkpt>
      <trkpt lat="47.43444" lon="6.5997">
        <ele>287.941</ele>
        <time>2015-10-03T10:45:50Z</time>
      </trkpt>
      <trkpt lat="47.43444" lon="6.59973">
        <ele>289.325</ele>
        <time>2015-10-03T10:45:51Z</time>
      </trkpt>
      <trkpt lat="47.43442" lon="6.59975">
        <ele>290.119</ele>
        <time>2015-10-03T10:45:52Z</time>
      </trkpt>
      <trkpt lat="47.43434" lon="6.59977">
        <ele>288.278</ele>
        <time>2015-10-03T10:45:53Z</time>
      </trkpt>
      <trkpt lat="47.43425" lon="6.59979">
        <ele>285.397</ele>
        <time>2015-10-03T10:45:54Z</time>
      </trkpt>
      <trkpt lat="47.43419" lon="6.59982">
        <ele>285.015</ele>
        <time>2015-10-03T10:45:55Z</time>
      </trkpt>
      <trkpt lat="47.43412" lon="6.59987">
        <ele>285.96</ele>
        <time>2015-10-03T10:45:56Z</time>
      </trkpt>
      <trkpt lat="47.43407" lon="6.59989">
        <ele>286.125</ele>
        <time>2015-10-03T10:45:57Z</time>
      </trkpt>
      <trkpt lat="47.43402" lon="6.59992">
        <ele>286.583</ele>
        <time>2015-10-03T10:45:58Z</time>
      </trkpt>
      <trkpt lat="47.43396" lon="6.59994">
        <ele>284.962</ele>
        <time>2015-10-03T10:45:59Z</time>
      </trkpt>
      <trkpt lat="47.43392" lon="6.59998">
        <ele>285.922</ele>
        <time>2015-10-03T10:46:00Z</time>
      </trkpt>
      <trkpt lat="47.43387" lon="6.60002">
        <ele>287.34</ele>
        <time>2015-10-03T10:46:01Z</time>
      </trkpt>
      <trkpt lat="47.43381" lon="6.60005">
        <ele>287.092</ele>
        <time>2015-10-03T10:46:02Z</time>
      </trkpt>
      <trkpt lat="47.43377" lon="6.60009">
        <ele>288.582</ele>
        <time>2015-10-03T10:46:03Z</time>
      </trkpt>
      <trkpt lat="47.43372" lon="6.60015">
        <ele>289.638</ele>
        <time>2015-10-03T10:46:04Z</time>
      </trkpt>
      <trkpt lat="47.43368" lon="6.60019">
        <ele>288.515</ele>
        <time>2015-10-03T10:46:05Z</time>
      </trkpt>
      <trkpt lat="47.43363" lon="6.60022">
        <ele>289.769</ele>
        <time>2015-10-03T10:46:06Z</time>
      </trkpt>
      <trkpt lat="47.43359" lon="6.60025">
        <ele>288.615</ele>
        <time>2015-10-03T10:46:07Z</time>
      </trkpt>
      <trkpt lat="47.43354" lon="6.60032">
        <ele>290.15</ele>
        <time>2015-10-03T10:46:08Z</time>
      </trkpt>
      <trkpt lat="47.43352" lon="6.60038">
        <ele>289.895</ele>
        <time>2015-10-03T10:46:09Z</time>
      </trkpt>
      <trkpt lat="47.43348" lon="6.60042">
        <ele>290.493</ele>
        <time>2015-10-03T10:46:10Z</time>
      </trkpt>
      <trkpt lat="47.43343" lon="6.60045">
        <ele>288.744</ele>
        <time>2015-10-03T10:46:11Z</time>
      </trkpt>
      <trkpt lat="47.4334" lon="6.60048">
        <ele>288.555</ele>
        <time>2015-10-03T10:46:12Z</time>
      </trkpt>
      <trkpt lat="47.43336" lon="6.60052">
        <ele>289.354</ele>
        <time>2015-10-03T10:46:13Z</time>
      </trkpt>
      <trkpt lat="47.43333" lon="6.60059">
        <ele>290.042</ele>
        <time>2015-10-03T10:46:14Z</time>
      </trkpt>
      <trkpt lat="47.43328" lon="6.60071">
        <ele>294.024</ele>
        <time>2015-10-03T10:46:15Z</time>
      </trkpt>
      <trkpt lat="47.43324" lon="6.60078">
        <ele>296.24</ele>
        <time>2015-10-03T10:46:16Z</time>
      </trkpt>
      <trkpt lat="47.43322" lon="6.60084">
        <ele>297.493</ele>
        <time>2015-10-03T10:46:17Z</time>
      </trkpt>
      <trkpt lat="47.43317" lon="6.60088">
        <ele>297.838</ele>
        <time>2015-10-03T10:46:18Z</time>
      </trkpt>
      <trkpt lat="47.43316" lon="6.60095">
        <ele>298.334</ele>
        <time>2015-10-03T10:46:19Z</time>
      </trkpt>
      <trkpt lat="47.43312" lon="6.60102">
        <ele>298.581</ele>
        <time>2015-10-03T10:46:20Z</time>
      </trkpt>
      <trkpt lat="47.43308" lon="6.60104">
        <ele>300.861</ele>
        <time>2015-10-03T10:46:21Z</time>
      </trkpt>
      <trkpt lat="47.43308" lon="6.60114">
        <ele>298.832</ele>
        <time>2015-10-03T10:46:22Z</time>
      </trkpt>
      <trkpt lat="47.43304" lon="6.60118">
        <ele>299.586</ele>
        <time>2015-10-03T10:46:23Z</time>
      </trkpt>
      <trkpt lat="47.433" lon="6.60124">
        <ele>299.146</ele>
        <time>2015-10-03T10:46:24Z</time>
      </trkpt>
      <trkpt lat="47.43297" lon="6.6013">
        <ele>298.414</ele>
        <time>2015-10-03T10:46:25Z</time>
      </trkpt>
      <trkpt lat="47.43295" lon="6.60136">
        <ele>298.503</ele>
        <time>2015-10-03T10:46:26Z</time>
      </trkpt>
      <trkpt lat="47.43293" lon="6.60139">
        <ele>296.803</ele>
        <time>2015-10-03T10:46:27Z</time>
      </trkpt>
      <trkpt lat="47.4329" lon="6.60144">
        <ele>296.992</ele>
        <time>2015-10-03T10:46:28Z</time>
      </trkpt>
      <trkpt lat="47.43286" lon="6.6015">
        <ele>296.87</ele>
        <time>2015-10-03T10:46:29Z</time>
      </trkpt>
      <trkpt lat="47.43284" lon="6.60158">
        <ele>295.898</ele>
        <time>2015-10-03T10:46:30Z</time>
      </trkpt>
      <trkpt lat="47.43281" lon="6.60164">
        <ele>295.612</ele>
        <time>2015-10-03T10:46:31Z</time>
      </trkpt>
      <trkpt lat="47.43278" lon="6.60172">
        <ele>296.508</ele>
        <time>2015-10-03T10:46:32Z</time>
      </trkpt>
      <trkpt lat="47.43276" lon="6.60178">
        <ele>296.657</ele>
        <time>2015-10-03T10:46:33Z</time>
      </trkpt>
      <trkpt lat="47.43273" lon="6.60189">
        <ele>300.657</ele>
        <time>2015-10-03T10:46:34Z</time>
      </trkpt>
      <trkpt lat="47.43278" lon="6.60206">
        <ele>294.248</ele>
        <time>2015-10-03T10:46:35Z</time>
      </trkpt>
      <trkpt lat="47.43275" lon="6.6021">
        <ele>294.654</ele>
        <time>2015-10-03T10:46:36Z</time>
      </trkpt>
      <trkpt lat="47.43272" lon="6.60215">
        <ele>296.05</ele>
        <time>2015-10-03T10:46:37Z</time>
      </trkpt>
      <trkpt lat="47.4327" lon="6.60222">
        <ele>296.663</ele>
        <time>2015-10-03T10:46:38Z</time>
      </trkpt>
      <trkpt lat="47.43266" lon="6.60229">
        <ele>297.9</ele>
        <time>2015-10-03T10:46:39Z</time>
      </trkpt>
      <trkpt lat="47.43264" lon="6.60233">
        <ele>296.595</ele>
        <time>2015-10-03T10:46:40Z</time>
      </trkpt>
      <trkpt lat="47.43262" lon="6.6024">
        <ele>298.079</ele>
        <time>2015-10-03T10:46:41Z</time>
      </trkpt>
      <trkpt lat="47.43259" lon="6.60246">
        <ele>298.281</ele>
        <time>2015-10-03T10:46:42Z</time>
      </trkpt>
      <trkpt lat="47.43256" lon="6.60254">
        <ele>297.686</ele>
        <time>2015-10-03T10:46:43Z</time>
      </trkpt>
      <trkpt lat="47.43253" lon="6.6026">
        <ele>297.886</ele>
        <time>2015-10-03T10:46:44Z</time>
      </trkpt>
      <trkpt lat="47.4325" lon="6.60265">
        <ele>296.999</ele>
        <time>2015-10-03T10:46:45Z</time>
      </trkpt>
      <trkpt lat="47.43247" lon="6.60272">
        <ele>297.479</ele>
        <time>2015-10-03T10:46:46Z</time>
      </trkpt>
      <trkpt lat="47.43245" lon="6.60278">
        <ele>297.283</ele>
        <time>2015-10-03T10:46:47Z</time>
      </trkpt>
      <trkpt lat="47.43243" lon="6.60283">
        <ele>297.143</ele>
        <time>2015-10-03T10:46:48Z</time>
      </trkpt>
      <trkpt lat="47.43241" lon="6.6029">
        <ele>297.197</ele>
        <time>2015-10-03T10:46:49Z</time>
      </trkpt>
      <trkpt lat="47.43239" lon="6.60295">
        <ele>297.343</ele>
        <time>2015-10-03T10:46:50Z</time>
      </trkpt>
      <trkpt lat="47.43237" lon="6.60302">
        <ele>296.818</ele>
        <time>2015-10-03T10:46:51Z</time>
      </trkpt>
      <trkpt lat="47.43234" lon="6.60309">
        <ele>296.3</ele>
        <time>2015-10-03T10:46:52Z</time>
      </trkpt>
      <trkpt lat="47.43231" lon="6.60315">
        <ele>296.077</ele>
        <time>2015-10-03T10:46:53Z</time>
      </trkpt>
      <trkpt lat="47.43229" lon="6.60321">
        <ele>296.308</ele>
        <time>2015-10-03T10:46:54Z</time>
      </trkpt>
      <trkpt lat="47.43226" lon="6.60326">
        <ele>295.884</ele>
        <time>2015-10-03T10:46:55Z</time>
      </trkpt>
      <trkpt lat="47.43223" lon="6.60332">
        <ele>296.411</ele>
        <time>2015-10-03T10:46:56Z</time>
      </trkpt>
      <trkpt lat="47.4322" lon="6.60338">
        <ele>296.527</ele>
        <time>2015-10-03T10:46:57Z</time>
      </trkpt>
      <trkpt lat="47.43218" lon="6.60344">
        <ele>296.285</ele>
        <time>2015-10-03T10:46:58Z</time>
      </trkpt>
      <trkpt lat="47.43215" lon="6.6035">
        <ele>296.056</ele>
        <time>2015-10-03T10:46:59Z</time>
      </trkpt>
      <trkpt lat="47.43212" lon="6.60356">
        <ele>295.673</ele>
        <time>2015-10-03T10:47:00Z</time>
      </trkpt>
      <trkpt lat="47.4321" lon="6.60361">
        <ele>295.155</ele>
        <time>2015-10-03T10:47:01Z</time>
      </trkpt>
      <trkpt lat="47.43207" lon="6.60367">
        <ele>295.101</ele>
        <time>2015-10-03T10:47:02Z</time>
      </trkpt>
      <trkpt lat="47.43205" lon="6.60373">
        <ele>295.051</ele>
        <time>2015-10-03T10:47:03Z</time>
      </trkpt>
      <trkpt lat="47.43202" lon="6.6038">
        <ele>295.089</ele>
        <time>2015-10-03T10:47:04Z</time>
      </trkpt>
      <trkpt lat="47.43199" lon="6.60386">
        <ele>294.821</ele>
        <time>2015-10-03T10:47:05Z</time>
      </trkpt>
      <trkpt lat="47.43196" lon="6.60393">
        <ele>295.001</ele>
        <time>2015-10-03T10:47:06Z</time>
      </trkpt>
      <trkpt lat="47.43194" lon="6.60398">
        <ele>295.461</ele>
        <time>2015-10-03T10:47:07Z</time>
      </trkpt>
      <trkpt lat="47.43191" lon="6.60405">
        <ele>295.644</ele>
        <time>2015-10-03T10:47:08Z</time>
      </trkpt>
      <trkpt lat="47.43188" lon="6.60411">
        <ele>296.025</ele>
        <time>2015-10-03T10:47:09Z</time>
      </trkpt>
      <trkpt lat="47.43185" lon="6.60417">
        <ele>296.078</ele>
        <time>2015-10-03T10:47:10Z</time>
      </trkpt>
      <trkpt lat="47.43182" lon="6.60423">
        <ele>295.976</ele>
        <time>2015-10-03T10:47:11Z</time>
      </trkpt>
      <trkpt lat="47.4318" lon="6.60429">
        <ele>296.31</ele>
        <time>2015-10-03T10:47:12Z</time>
      </trkpt>
      <trkpt lat="47.43177" lon="6.60435">
        <ele>296.003</ele>
        <time>2015-10-03T10:47:13Z</time>
      </trkpt>
      <trkpt lat="47.43175" lon="6.60441">
        <ele>295.837</ele>
        <time>2015-10-03T10:47:14Z</time>
      </trkpt>
      <trkpt lat="47.43172" lon="6.60448">
        <ele>295.308</ele>
        <time>2015-10-03T10:47:15Z</time>
      </trkpt>
      <trkpt lat="47.4317" lon="6.60454">
        <ele>295.325</ele>
        <time>2015-10-03T10:47:16Z</time>
      </trkpt>
      <trkpt lat="47.43167" lon="6.6046">
        <ele>295.272</ele>
        <time>2015-10-03T10:47:17Z</time>
      </trkpt>
      <trkpt lat="47.43165" lon="6.60466">
        <ele>295.066</ele>
        <time>2015-10-03T10:47:18Z</time>
      </trkpt>
      <trkpt lat="47.43162" lon="6.60472">
        <ele>295.276</ele>
        <time>2015-10-03T10:47:19Z</time>
      </trkpt>
      <trkpt lat="47.43159" lon="6.60478">
        <ele>295.387</ele>
        <time>2015-10-03T10:47:20Z</time>
      </trkpt>
      <trkpt lat="47.43157" lon="6.60483">
        <ele>295.496</ele>
        <time>2015-10-03T10:47:21Z</time>
      </trkpt>
      <trkpt lat="47.43155" lon="6.60489">
        <ele>295.487</ele>
        <time>2015-10-03T10:47:22Z</time>
      </trkpt>
      <trkpt lat="47.43152" lon="6.60494">
        <ele>295.938</ele>
        <time>2015-10-03T10:47:23Z</time>
      </trkpt>
      <trkpt lat="47.43149" lon="6.605">
        <ele>295.75</ele>
        <time>2015-10-03T10:47:24Z</time>
      </trkpt>
      <trkpt lat="47.43147" lon="6.60506">
        <ele>295.925</ele>
        <time>2015-10-03T10:47:25Z</time>
      </trkpt>
      <trkpt lat="47.43144" lon="6.60511">
        <ele>295.616</ele>
        <time>2015-10-03T10:47:26Z</time>
      </trkpt>
      <trkpt lat="47.43142" lon="6.60517">
        <ele>295.762</ele>
        <time>2015-10-03T10:47:27Z</time>
      </trkpt>
      <trkpt lat="47.4314" lon="6.60523">
        <ele>295.676</ele>
        <time>2015-10-03T10:47:28Z</time>
      </trkpt>
      <trkpt lat="47.43136" lon="6.60529">
        <ele>296.89</ele>
        <time>2015-10-03T10:47:29Z</time>
      </trkpt>
      <trkpt lat="47.43134" lon="6.60535">
        <ele>297.143</ele>
        <time>2015-10-03T10:47:30Z</time>
      </trkpt>
      <trkpt lat="47.43132" lon="6.60541">
        <ele>297.103</ele>
        <time>2015-10-03T10:47:31Z</time>
      </trkpt>
      <trkpt lat="47.43128" lon="6.60546">
        <ele>299.854</ele>
        <time>2015-10-03T10:47:32Z</time>
      </trkpt>
      <trkpt lat="47.43126" lon="6.60551">
        <ele>300.56</ele>
        <time>2015-10-03T10:47:33Z</time>
      </trkpt>
      <trkpt lat="47.43124" lon="6.60554">
        <ele>301.718</ele>
        <time>2015-10-03T10:47:34Z</time>
      </trkpt>
      <trkpt lat="47.43121" lon="6.60559">
        <ele>303.136</ele>
        <time>2015-10-03T10:47:35Z</time>
      </trkpt>
      <trkpt lat="47.43119" lon="6.60565">
        <ele>302.947</ele>
        <time>2015-10-03T10:47:36Z</time>
      </trkpt>
      <trkpt lat="47.43118" lon="6.60572">
        <ele>301.978</ele>
        <time>2015-10-03T10:47:37Z</time>
      </trkpt>
      <trkpt lat="47.43115" lon="6.60578">
        <ele>301.601</ele>
        <time>2015-10-03T10:47:38Z</time>
      </trkpt>
      <trkpt lat="47.43113" lon="6.60583">
        <ele>301.93</ele>
        <time>2015-10-03T10:47:39Z</time>
      </trkpt>
      <trkpt lat="47.4311" lon="6.60587">
        <ele>302.765</ele>
        <time>2015-10-03T10:47:40Z</time>
      </trkpt>
      <trkpt lat="47.43107" lon="6.60593">
        <ele>304.019</ele>
        <time>2015-10-03T10:47:41Z</time>
      </trkpt>
      <trkpt lat="47.43105" lon="6.60599">
        <ele>304.086</ele>
        <time>2015-10-03T10:47:42Z</time>
      </trkpt>
      <trkpt lat="47.43102" lon="6.60605">
        <ele>305.003</ele>
        <time>2015-10-03T10:47:43Z</time>
      </trkpt>
      <trkpt lat="47.431" lon="6.60612">
        <ele>304.316</ele>
        <time>2015-10-03T10:47:44Z</time>
      </trkpt>
      <trkpt lat="47.43098" lon="6.60616">
        <ele>303.419</ele>
        <time>2015-10-03T10:47:45Z</time>
      </trkpt>
      <trkpt lat="47.43095" lon="6.60622">
        <ele>303.964</ele>
        <time>2015-10-03T10:47:46Z</time>
      </trkpt>
      <trkpt lat="47.43092" lon="6.60629">
        <ele>303.029</ele>
        <time>2015-10-03T10:47:47Z</time>
      </trkpt>
      <trkpt lat="47.43089" lon="6.60634">
        <ele>306</ele>
        <time>2015-10-03T10:47:48Z</time>
      </trkpt>
      <trkpt lat="47.43086" lon="6.60638">
        <ele>307.464</ele>
        <time>2015-10-03T10:47:49Z</time>
      </trkpt>
      <trkpt lat="47.43084" lon="6.60645">
        <ele>306.721</ele>
        <time>2015-10-03T10:47:50Z</time>
      </trkpt>
      <trkpt lat="47.43082" lon="6.6065">
        <ele>307.06</ele>
        <time>2015-10-03T10:47:51Z</time>
      </trkpt>
      <trkpt lat="47.4308" lon="6.60655">
        <ele>307.496</ele>
        <time>2015-10-03T10:47:52Z</time>
      </trkpt>
      <trkpt lat="47.43077" lon="6.60657">
        <ele>307.773</ele>
        <time>2015-10-03T10:47:53Z</time>
      </trkpt>
      <trkpt lat="47.43075" lon="6.60665">
        <ele>308.323</ele>
        <time>2015-10-03T10:47:54Z</time>
      </trkpt>
      <trkpt lat="47.43073" lon="6.60672">
        <ele>307.734</ele>
        <time>2015-10-03T10:47:55Z</time>
      </trkpt>
      <trkpt lat="47.43071" lon="6.60678">
        <ele>307.986</ele>
        <time>2015-10-03T10:47:56Z</time>
      </trkpt>
      <trkpt lat="47.43068" lon="6.60683">
        <ele>308.047</ele>
        <time>2015-10-03T10:47:57Z</time>
      </trkpt>
      <trkpt lat="47.43065" lon="6.60687">
        <ele>308.875</ele>
        <time>2015-10-03T10:47:58Z</time>
      </trkpt>
      <trkpt lat="47.43063" lon="6.60693">
        <ele>309.051</ele>
        <time>2015-10-03T10:47:59Z</time>
      </trkpt>
      <trkpt lat="47.4306" lon="6.60702">
        <ele>309.775</ele>
        <time>2015-10-03T10:48:00Z</time>
      </trkpt>
      <trkpt lat="47.43056" lon="6.60711">
        <ele>309.156</ele>
        <time>2015-10-03T10:48:01Z</time>
      </trkpt>
      <trkpt lat="47.43053" lon="6.60716">
        <ele>308.67</ele>
        <time>2015-10-03T10:48:02Z</time>
      </trkpt>
      <trkpt lat="47.4305" lon="6.6072">
        <ele>309.972</ele>
        <time>2015-10-03T10:48:03Z</time>
      </trkpt>
      <trkpt lat="47.43046" lon="6.60725">
        <ele>309.541</ele>
        <time>2015-10-03T10:48:04Z</time>
      </trkpt>
      <trkpt lat="47.43044" lon="6.60732">
        <ele>309.453</ele>
        <time>2015-10-03T10:48:05Z</time>
      </trkpt>
      <trkpt lat="47.43042" lon="6.60737">
        <ele>309.081</ele>
        <time>2015-10-03T10:48:06Z</time>
      </trkpt>
      <trkpt lat="47.4304" lon="6.60742">
        <ele>308.529</ele>
        <time>2015-10-03T10:48:07Z</time>
      </trkpt>
      <trkpt lat="47.43039" lon="6.60749">
        <ele>307.87</ele>
        <time>2015-10-03T10:48:08Z</time>
      </trkpt>
      <trkpt lat="47.43037" lon="6.60756">
        <ele>308.187</ele>
        <time>2015-10-03T10:48:09Z</time>
      </trkpt>
      <trkpt lat="47.43035" lon="6.60763">
        <ele>308.94</ele>
        <time>2015-10-03T10:48:10Z</time>
      </trkpt>
      <trkpt lat="47.43032" lon="6.60769">
        <ele>309.142</ele>
        <time>2015-10-03T10:48:11Z</time>
      </trkpt>
      <trkpt lat="47.43028" lon="6.60774">
        <ele>307.184</ele>
        <time>2015-10-03T10:48:12Z</time>
      </trkpt>
      <trkpt lat="47.43025" lon="6.60777">
        <ele>306.062</ele>
        <time>2015-10-03T10:48:13Z</time>
      </trkpt>
      <trkpt lat="47.43023" lon="6.60784">
        <ele>305.121</ele>
        <time>2015-10-03T10:48:14Z</time>
      </trkpt>
      <trkpt lat="47.43021" lon="6.6079">
        <ele>304.174</ele>
        <time>2015-10-03T10:48:15Z</time>
      </trkpt>
      <trkpt lat="47.43019" lon="6.60797">
        <ele>303.431</ele>
        <time>2015-10-03T10:48:16Z</time>
      </trkpt>
      <trkpt lat="47.43017" lon="6.60803">
        <ele>304.911</ele>
        <time>2015-10-03T10:48:17Z</time>
      </trkpt>
      <trkpt lat="47.43015" lon="6.60809">
        <ele>304.232</ele>
        <time>2015-10-03T10:48:18Z</time>
      </trkpt>
      <trkpt lat="47.43012" lon="6.60813">
        <ele>304.121</ele>
        <time>2015-10-03T10:48:19Z</time>
      </trkpt>
      <trkpt lat="47.43009" lon="6.60818">
        <ele>303.149</ele>
        <time>2015-10-03T10:48:20Z</time>
      </trkpt>
      <trkpt lat="47.43006" lon="6.60824">
        <ele>303.235</ele>
        <time>2015-10-03T10:48:21Z</time>
      </trkpt>
      <trkpt lat="47.43003" lon="6.6083">
        <ele>302.694</ele>
        <time>2015-10-03T10:48:22Z</time>
      </trkpt>
      <trkpt lat="47.43002" lon="6.60837">
        <ele>301.222</ele>
        <time>2015-10-03T10:48:23Z</time>
      </trkpt>
      <trkpt lat="47.43" lon="6.60842">
        <ele>301.131</ele>
        <time>2015-10-03T10:48:24Z</time>
      </trkpt>
      <trkpt lat="47.42997" lon="6.60848">
        <ele>300.335</ele>
        <time>2015-10-03T10:48:25Z</time>
      </trkpt>
      <trkpt lat="47.42996" lon="6.6085">
        <ele>300.412</ele>
        <time>2015-10-03T10:48:26Z</time>
      </trkpt>
      <trkpt lat="47.42993" lon="6.60854">
        <ele>299.438</ele>
        <time>2015-10-03T10:48:27Z</time>
      </trkpt>
      <trkpt lat="47.42991" lon="6.60861">
        <ele>298.747</ele>
        <time>2015-10-03T10:48:28Z</time>
      </trkpt>
      <trkpt lat="47.42987" lon="6.60865">
        <ele>299.002</ele>
        <time>2015-10-03T10:48:29Z</time>
      </trkpt>
      <trkpt lat="47.42985" lon="6.60872">
        <ele>298.23</ele>
        <time>2015-10-03T10:48:30Z</time>
      </trkpt>
      <trkpt lat="47.42982" lon="6.60877">
        <ele>297.379</ele>
        <time>2015-10-03T10:48:31Z</time>
      </trkpt>
      <trkpt lat="47.42978" lon="6.60884">
        <ele>296.975</ele>
        <time>2015-10-03T10:48:32Z</time>
      </trkpt>
      <trkpt lat="47.42976" lon="6.60889">
        <ele>296.933</ele>
        <time>2015-10-03T10:48:33Z</time>
      </trkpt>
      <trkpt lat="47.42973" lon="6.60895">
        <ele>296.689</ele>
        <time>2015-10-03T10:48:34Z</time>
      </trkpt>
      <trkpt lat="47.42971" lon="6.60902">
        <ele>296.469</ele>
        <time>2015-10-03T10:48:35Z</time>
      </trkpt>
      <trkpt lat="47.4297" lon="6.60907">
        <ele>296.572</ele>
        <time>2015-10-03T10:48:36Z</time>
      </trkpt>
      <trkpt lat="47.42967" lon="6.60913">
        <ele>296.81</ele>
        <time>2015-10-03T10:48:37Z</time>
      </trkpt>
      <trkpt lat="47.42965" lon="6.60919">
        <ele>297.033</ele>
        <time>2015-10-03T10:48:38Z</time>
      </trkpt>
      <trkpt lat="47.42962" lon="6.60925">
        <ele>297.247</ele>
        <time>2015-10-03T10:48:39Z</time>
      </trkpt>
      <trkpt lat="47.42959" lon="6.60932">
        <ele>297.241</ele>
        <time>2015-10-03T10:48:40Z</time>
      </trkpt>
      <trkpt lat="47.42956" lon="6.60938">
        <ele>297.001</ele>
        <time>2015-10-03T10:48:41Z</time>
      </trkpt>
      <trkpt lat="47.42953" lon="6.60943">
        <ele>296.688</ele>
        <time>2015-10-03T10:48:42Z</time>
      </trkpt>
      <trkpt lat="47.4295" lon="6.60949">
        <ele>296.34</ele>
        <time>2015-10-03T10:48:43Z</time>
      </trkpt>
      <trkpt lat="47.42947" lon="6.60954">
        <ele>296.195</ele>
        <time>2015-10-03T10:48:44Z</time>
      </trkpt>
      <trkpt lat="47.42944" lon="6.60961">
        <ele>294.55</ele>
        <time>2015-10-03T10:48:45Z</time>
      </trkpt>
      <trkpt lat="47.42941" lon="6.60967">
        <ele>294.303</ele>
        <time>2015-10-03T10:48:46Z</time>
      </trkpt>
      <trkpt lat="47.42939" lon="6.60973">
        <ele>294.252</ele>
        <time>2015-10-03T10:48:47Z</time>
      </trkpt>
      <trkpt lat="47.42935" lon="6.60979">
        <ele>294.251</ele>
        <time>2015-10-03T10:48:48Z</time>
      </trkpt>
      <trkpt lat="47.42933" lon="6.60986">
        <ele>294.773</ele>
        <time>2015-10-03T10:48:49Z</time>
      </trkpt>
      <trkpt lat="47.4293" lon="6.60992">
        <ele>294.824</ele>
        <time>2015-10-03T10:48:50Z</time>
      </trkpt>
      <trkpt lat="47.42927" lon="6.60998">
        <ele>294.726</ele>
        <time>2015-10-03T10:48:51Z</time>
      </trkpt>
      <trkpt lat="47.42924" lon="6.61004">
        <ele>295.13</ele>
        <time>2015-10-03T10:48:52Z</time>
      </trkpt>
      <trkpt lat="47.42922" lon="6.61011">
        <ele>294.5</ele>
        <time>2015-10-03T10:48:53Z</time>
      </trkpt>
      <trkpt lat="47.42919" lon="6.61017">
        <ele>295.151</ele>
        <time>2015-10-03T10:48:54Z</time>
      </trkpt>
      <trkpt lat="47.42917" lon="6.61023">
        <ele>295.569</ele>
        <time>2015-10-03T10:48:55Z</time>
      </trkpt>
      <trkpt lat="47.42915" lon="6.61029">
        <ele>296.535</ele>
        <time>2015-10-03T10:48:56Z</time>
      </trkpt>
      <trkpt lat="47.42913" lon="6.61035">
        <ele>296.846</ele>
        <time>2015-10-03T10:48:57Z</time>
      </trkpt>
      <trkpt lat="47.4291" lon="6.6104">
        <ele>297.026</ele>
        <time>2015-10-03T10:48:58Z</time>
      </trkpt>
      <trkpt lat="47.42909" lon="6.61046">
        <ele>297.616</ele>
        <time>2015-10-03T10:48:59Z</time>
      </trkpt>
      <trkpt lat="47.42907" lon="6.61052">
        <ele>297.556</ele>
        <time>2015-10-03T10:49:00Z</time>
      </trkpt>
      <trkpt lat="47.42904" lon="6.61058">
        <ele>297.599</ele>
        <time>2015-10-03T10:49:00Z</time>
      </trkpt>
      <trkpt lat="47.42901" lon="6.61063">
        <ele>297.359</ele>
        <time>2015-10-03T10:49:01Z</time>
      </trkpt>
      <trkpt lat="47.42899" lon="6.6107">
        <ele>297.136</ele>
        <time>2015-10-03T10:49:02Z</time>
      </trkpt>
      <trkpt lat="47.42896" lon="6.61076">
        <ele>296.535</ele>
        <time>2015-10-03T10:49:03Z</time>
      </trkpt>
      <trkpt lat="47.42894" lon="6.61082">
        <ele>296.269</ele>
        <time>2015-10-03T10:49:04Z</time>
      </trkpt>
      <trkpt lat="47.42892" lon="6.61087">
        <ele>296.835</ele>
        <time>2015-10-03T10:49:05Z</time>
      </trkpt>
      <trkpt lat="47.4289" lon="6.61094">
        <ele>295.934</ele>
        <time>2015-10-03T10:49:06Z</time>
      </trkpt>
      <trkpt lat="47.42889" lon="6.61101">
        <ele>294.334</ele>
        <time>2015-10-03T10:49:07Z</time>
      </trkpt>
      <trkpt lat="47.42887" lon="6.61106">
        <ele>294.685</ele>
        <time>2015-10-03T10:49:08Z</time>
      </trkpt>
      <trkpt lat="47.42884" lon="6.61113">
        <ele>294.807</ele>
        <time>2015-10-03T10:49:09Z</time>
      </trkpt>
      <trkpt lat="47.42882" lon="6.61119">
        <ele>295.93</ele>
        <time>2015-10-03T10:49:10Z</time>
      </trkpt>
      <trkpt lat="47.42879" lon="6.61125">
        <ele>295.987</ele>
        <time>2015-10-03T10:49:11Z</time>
      </trkpt>
      <trkpt lat="47.42878" lon="6.6113">
        <ele>296.157</ele>
        <time>2015-10-03T10:49:12Z</time>
      </trkpt>
      <trkpt lat="47.42875" lon="6.61135">
        <ele>296.445</ele>
        <time>2015-10-03T10:49:13Z</time>
      </trkpt>
      <trkpt lat="47.42871" lon="6.6114">
        <ele>297.582</ele>
        <time>2015-10-03T10:49:14Z</time>
      </trkpt>
      <trkpt lat="47.42869" lon="6.61147">
        <ele>300.217</ele>
        <time>2015-10-03T10:49:15Z</time>
      </trkpt>
      <trkpt lat="47.42865" lon="6.61153">
        <ele>299.95</ele>
        <time>2015-10-03T10:49:16Z</time>
      </trkpt>
      <trkpt lat="47.42863" lon="6.61159">
        <ele>299.542</ele>
        <time>2015-10-03T10:49:17Z</time>
      </trkpt>
      <trkpt lat="47.42861" lon="6.61166">
        <ele>298.84</ele>
        <time>2015-10-03T10:49:18Z</time>
      </trkpt>
      <trkpt lat="47.42859" lon="6.61172">
        <ele>297.724</ele>
        <time>2015-10-03T10:49:19Z</time>
      </trkpt>
      <trkpt lat="47.42857" lon="6.61177">
        <ele>297.899</ele>
        <time>2015-10-03T10:49:20Z</time>
      </trkpt>
      <trkpt lat="47.42854" lon="6.61183">
        <ele>297.884</ele>
        <time>2015-10-03T10:49:21Z</time>
      </trkpt>
      <trkpt lat="47.42852" lon="6.61189">
        <ele>297.401</ele>
        <time>2015-10-03T10:49:22Z</time>
      </trkpt>
      <trkpt lat="47.42849" lon="6.61196">
        <ele>297.657</ele>
        <time>2015-10-03T10:49:23Z</time>
      </trkpt>
      <trkpt lat="47.42846" lon="6.61202">
        <ele>297.554</ele>
        <time>2015-10-03T10:49:24Z</time>
      </trkpt>
      <trkpt lat="47.42843" lon="6.6121">
        <ele>297.385</ele>
        <time>2015-10-03T10:49:25Z</time>
      </trkpt>
      <trkpt lat="47.4284" lon="6.61216">
        <ele>297.442</ele>
        <time>2015-10-03T10:49:26Z</time>
      </trkpt>
      <trkpt lat="47.42837" lon="6.61222">
        <ele>299.128</ele>
        <time>2015-10-03T10:49:27Z</time>
      </trkpt>
      <trkpt lat="47.42834" lon="6.61229">
        <ele>299.498</ele>
        <time>2015-10-03T10:49:28Z</time>
      </trkpt>
      <trkpt lat="47.42832" lon="6.61237">
        <ele>299.054</ele>
        <time>2015-10-03T10:49:29Z</time>
      </trkpt>
      <trkpt lat="47.4283" lon="6.61245">
        <ele>298.547</ele>
        <time>2015-10-03T10:49:30Z</time>
      </trkpt>
      <trkpt lat="47.42826" lon="6.61254">
        <ele>299.272</ele>
        <time>2015-10-03T10:49:31Z</time>
      </trkpt>
      <trkpt lat="47.42824" lon="6.61262">
        <ele>300.175</ele>
        <time>2015-10-03T10:49:32Z</time>
      </trkpt>
      <trkpt lat="47.42823" lon="6.6127">
        <ele>300.358</ele>
        <time>2015-10-03T10:49:33Z</time>
      </trkpt>
      <trkpt lat="47.42821" lon="6.61277">
        <ele>301.262</ele>
        <time>2015-10-03T10:49:34Z</time>
      </trkpt>
      <trkpt lat="47.4282" lon="6.61284">
        <ele>301.425</ele>
        <time>2015-10-03T10:49:35Z</time>
      </trkpt>
      <trkpt lat="47.42819" lon="6.6129">
        <ele>301.24</ele>
        <time>2015-10-03T10:49:36Z</time>
      </trkpt>
      <trkpt lat="47.42816" lon="6.61295">
        <ele>301.796</ele>
        <time>2015-10-03T10:49:37Z</time>
      </trkpt>
      <trkpt lat="47.42814" lon="6.61299">
        <ele>301.964</ele>
        <time>2015-10-03T10:49:38Z</time>
      </trkpt>
      <trkpt lat="47.42812" lon="6.61301">
        <ele>301.685</ele>
        <time>2015-10-03T10:49:39Z</time>
      </trkpt>
      <trkpt lat="47.42808" lon="6.61303">
        <ele>302.891</ele>
        <time>2015-10-03T10:49:40Z</time>
      </trkpt>
      <trkpt lat="47.42806" lon="6.61299">
        <ele>303.081</ele>
        <time>2015-10-03T10:49:41Z</time>
      </trkpt>
      <trkpt lat="47.42804" lon="6.61296">
        <ele>303.871</ele>
        <time>2015-10-03T10:49:42Z</time>
      </trkpt>
      <trkpt lat="47.42802" lon="6.61295">
        <ele>303.141</ele>
        <time>2015-10-03T10:49:43Z</time>
      </trkpt>
      <trkpt lat="47.42801" lon="6.61296">
        <ele>302.717</ele>
        <time>2015-10-03T10:49:44Z</time>
      </trkpt>
      <trkpt lat="47.42799" lon="6.61296">
        <ele>303.69</ele>
        <time>2015-10-03T10:49:45Z</time>
      </trkpt>
      <trkpt lat="47.42797" lon="6.61295">
        <ele>303.305</ele>
        <time>2015-10-03T10:49:46Z</time>
      </trkpt>
      <trkpt lat="47.42797" lon="6.61294">
        <ele>305.986</ele>
        <time>2015-10-03T10:49:49Z</time>
      </trkpt>
      <trkpt lat="47.42795" lon="6.61294">
        <ele>305.931</ele>
        <time>2015-10-03T10:49:53Z</time>
      </trkpt>
      <trkpt lat="47.42795" lon="6.61293">
        <ele>307.285</ele>
        <time>2015-10-03T10:49:58Z</time>
      </trkpt>
      <trkpt lat="47.42793" lon="6.61291">
        <ele>307.647</ele>
        <time>2015-10-03T10:50:00Z</time>
      </trkpt>
      <trkpt lat="47.42792" lon="6.61291">
        <ele>307.715</ele>
        <time>2015-10-03T10:50:01Z</time>
      </trkpt>
      <trkpt lat="47.42791" lon="6.6129">
        <ele>307.07</ele>
        <time>2015-10-03T10:50:03Z</time>
      </trkpt>
      <trkpt lat="47.42792" lon="6.61293">
        <ele>304.231</ele>
        <time>2015-10-03T10:50:20Z</time>
      </trkpt>
      <trkpt lat="47.42794" lon="6.61291">
        <ele>302.879</ele>
        <time>2015-10-03T10:50:33Z</time>
      </trkpt>
      <trkpt lat="47.42795" lon="6.6129">
        <ele>307.958</ele>
        <time>2015-10-03T10:50:41Z</time>
      </trkpt>
      <trkpt lat="47.42794" lon="6.61289">
        <ele>302.42</ele>
        <time>2015-10-03T10:50:50Z</time>
      </trkpt>
      <trkpt lat="47.42794" lon="6.61291">
        <ele>302.197</ele>
        <time>2015-10-03T10:50:55Z</time>
      </trkpt>
      <trkpt lat="47.42797" lon="6.61295">
        <ele>305.52</ele>
        <time>2015-10-03T10:51:02Z</time>
      </trkpt>
      <trkpt lat="47.42796" lon="6.61293">
        <ele>313.179</ele>
        <time>2015-10-03T10:51:16Z</time>
      </trkpt>
      <trkpt lat="47.42796" lon="6.61291">
        <ele>314.939</ele>
        <time>2015-10-03T10:51:21Z</time>
      </trkpt>
      <trkpt lat="47.42795" lon="6.61293">
        <ele>315.561</ele>
        <time>2015-10-03T10:51:37Z</time>
      </trkpt>
      <trkpt lat="47.42797" lon="6.61293">
        <ele>310.997</ele>
        <time>2015-10-03T10:51:44Z</time>
      </trkpt>
      <trkpt lat="47.42799" lon="6.61293">
        <ele>305.541</ele>
        <time>2015-10-03T10:51:53Z</time>
      </trkpt>
      <trkpt lat="47.42796" lon="6.61288">
        <ele>313.498</ele>
        <time>2015-10-03T10:51:57Z</time>
      </trkpt>
      <trkpt lat="47.42795" lon="6.61285">
        <ele>310.793</ele>
        <time>2015-10-03T10:52:02Z</time>
      </trkpt>
      <trkpt lat="47.42794" lon="6.61287">
        <ele>309.117</ele>
        <time>2015-10-03T10:52:08Z</time>
      </trkpt>
      <trkpt lat="47.42795" lon="6.61289">
        <ele>307.193</ele>
        <time>2015-10-03T10:52:13Z</time>
      </trkpt>
      <trkpt lat="47.42795" lon="6.6129">
        <ele>306.509</ele>
        <time>2015-10-03T10:52:15Z</time>
      </trkpt>
      <trkpt lat="47.42796" lon="6.61292">
        <ele>308.676</ele>
        <time>2015-10-03T10:52:17Z</time>
      </trkpt>
      <trkpt lat="47.42797" lon="6.61293">
        <ele>309.493</ele>
        <time>2015-10-03T10:52:21Z</time>
      </trkpt>
      <trkpt lat="47.42799" lon="6.61293">
        <ele>305.57</ele>
        <time>2015-10-03T10:52:24Z</time>
      </trkpt>
      <trkpt lat="47.42801" lon="6.61296">
        <ele>305.428</ele>
        <time>2015-10-03T10:52:34Z</time>
      </trkpt>
      <trkpt lat="47.42802" lon="6.61299">
        <ele>305.319</ele>
        <time>2015-10-03T10:52:39Z</time>
      </trkpt>
      <trkpt lat="47.42802" lon="6.61301">
        <ele>306.717</ele>
        <time>2015-10-03T10:52:42Z</time>
      </trkpt>
      <trkpt lat="47.42803" lon="6.61303">
        <ele>306.45</ele>
        <time>2015-10-03T10:52:44Z</time>
      </trkpt>
      <trkpt lat="47.42803" lon="6.61304">
        <ele>305.439</ele>
        <time>2015-10-03T10:52:47Z</time>
      </trkpt>
      <trkpt lat="47.42804" lon="6.61306">
        <ele>305.293</ele>
        <time>2015-10-03T10:52:49Z</time>
      </trkpt>
      <trkpt lat="47.42805" lon="6.61306">
        <ele>309.52</ele>
        <time>2015-10-03T10:52:52Z</time>
      </trkpt>
      <trkpt lat="47.42805" lon="6.61306">
        <ele>308.665</ele>
        <time>2015-10-03T10:52:56Z</time>
      </trkpt>
      <trkpt lat="47.42805" lon="6.61302">
        <ele>308.556</ele>
        <time>2015-10-03T10:52:57Z</time>
      </trkpt>
      <trkpt lat="47.42803" lon="6.61299">
        <ele>307.714</ele>
        <time>2015-10-03T10:53:01Z</time>
      </trkpt>
      <trkpt lat="47.42802" lon="6.61301">
        <ele>307.932</ele>
        <time>2015-10-03T10:53:04Z</time>
      </trkpt>
      <trkpt lat="47.42802" lon="6.61303">
        <ele>306.548</ele>
        <time>2015-10-03T10:53:07Z</time>
      </trkpt>
      <trkpt lat="47.42801" lon="6.61305">
        <ele>306.017</ele>
        <time>2015-10-03T10:53:13Z</time>
      </trkpt>
      <trkpt lat="47.42801" lon="6.61307">
        <ele>306.078</ele>
        <time>2015-10-03T10:53:18Z</time>
      </trkpt>
      <trkpt lat="47.42803" lon="6.61309">
        <ele>302.351</ele>
        <time>2015-10-03T10:53:20Z</time>
      </trkpt>
      <trkpt lat="47.42804" lon="6.61309">
        <ele>301.449</ele>
        <time>2015-10-03T10:53:21Z</time>
      </trkpt>
      <trkpt lat="47.42803" lon="6.6131">
        <ele>304.049</ele>
        <time>2015-10-03T10:53:33Z</time>
      </trkpt>
      <trkpt lat="47.42805" lon="6.61313">
        <ele>293.461</ele>
        <time>2015-10-03T10:53:45Z</time>
      </trkpt>
      <trkpt lat="47.42804" lon="6.61317">
        <ele>295.505</ele>
        <time>2015-10-03T10:53:52Z</time>
      </trkpt>
      <trkpt lat="47.42803" lon="6.61316">
        <ele>296.821</ele>
        <time>2015-10-03T10:53:54Z</time>
      </trkpt>
      <trkpt lat="47.42802" lon="6.61317">
        <ele>300.001</ele>
        <time>2015-10-03T10:53:57Z</time>
      </trkpt>
      <trkpt lat="47.428" lon="6.61317">
        <ele>301.312</ele>
        <time>2015-10-03T10:53:59Z</time>
      </trkpt>
      <trkpt lat="47.42798" lon="6.61315">
        <ele>302.35</ele>
        <time>2015-10-03T10:54:02Z</time>
      </trkpt>
      <trkpt lat="47.42797" lon="6.61313">
        <ele>300.837</ele>
        <time>2015-10-03T10:54:04Z</time>
      </trkpt>
      <trkpt lat="47.42796" lon="6.61312">
        <ele>300.481</ele>
        <time>2015-10-03T10:54:05Z</time>
      </trkpt>
      <trkpt lat="47.42796" lon="6.6131">
        <ele>299.348</ele>
        <time>2015-10-03T10:54:07Z</time>
      </trkpt>
      <trkpt lat="47.42795" lon="6.61306">
        <ele>298.514</ele>
        <time>2015-10-03T10:54:12Z</time>
      </trkpt>
      <trkpt lat="47.42795" lon="6.61305">
        <ele>297.433</ele>
        <time>2015-10-03T10:54:14Z</time>
      </trkpt>
      <trkpt lat="47.42795" lon="6.61303">
        <ele>299.75</ele>
        <time>2015-10-03T10:54:20Z</time>
      </trkpt>
      <trkpt lat="47.42795" lon="6.61302">
        <ele>298.087</ele>
        <time>2015-10-03T10:54:26Z</time>
      </trkpt>
      <trkpt lat="47.42795" lon="6.61303">
        <ele>298.697</ele>
        <time>2015-10-03T10:54:32Z</time>
      </trkpt>
      <trkpt lat="47.42794" lon="6.61303">
        <ele>302.741</ele>
        <time>2015-10-03T10:54:41Z</time>
      </trkpt>
      <trkpt lat="47.42795" lon="6.61306">
        <ele>298.73</ele>
        <time>2015-10-03T10:54:47Z</time>
      </trkpt>
      <trkpt lat="47.42793" lon="6.61308">
        <ele>299.257</ele>
        <time>2015-10-03T10:54:51Z</time>
      </trkpt>
      <trkpt lat="47.42792" lon="6.61308">
        <ele>298.803</ele>
        <time>2015-10-03T10:55:01Z</time>
      </trkpt>
      <trkpt lat="47.42795" lon="6.61302">
        <ele>303.865</ele>
        <time>2015-10-03T10:55:12Z</time>
      </trkpt>
      <trkpt lat="47.42795" lon="6.61299">
        <ele>303.14</ele>
        <time>2015-10-03T10:55:20Z</time>
      </trkpt>
      <trkpt lat="47.42793" lon="6.61298">
        <ele>306.17</ele>
        <time>2015-10-03T10:55:27Z</time>
      </trkpt>
      <trkpt lat="47.42793" lon="6.61296">
        <ele>305.989</ele>
        <time>2015-10-03T10:55:31Z</time>
      </trkpt>
      <trkpt lat="47.4279" lon="6.61292">
        <ele>308.405</ele>
        <time>2015-10-03T10:55:42Z</time>
      </trkpt>
      <trkpt lat="47.42791" lon="6.61289">
        <ele>308.376</ele>
        <time>2015-10-03T10:55:54Z</time>
      </trkpt>
      <trkpt lat="47.42792" lon="6.61296">
        <ele>310.552</ele>
        <time>2015-10-03T10:56:06Z</time>
      </trkpt>
      <trkpt lat="47.42791" lon="6.61295">
        <ele>312.646</ele>
        <time>2015-10-03T10:56:13Z</time>
      </trkpt>
      <trkpt lat="47.4279" lon="6.61294">
        <ele>312.311</ele>
        <time>2015-10-03T10:56:15Z</time>
      </trkpt>
      <trkpt lat="47.42789" lon="6.61294">
        <ele>311.438</ele>
        <time>2015-10-03T10:56:17Z</time>
      </trkpt>
      <trkpt lat="47.42788" lon="6.61295">
        <ele>311.093</ele>
        <time>2015-10-03T10:56:18Z</time>
      </trkpt>
      <trkpt lat="47.42787" lon="6.61297">
        <ele>310.709</ele>
        <time>2015-10-03T10:56:19Z</time>
      </trkpt>
      <trkpt lat="47.42786" lon="6.61299">
        <ele>309.104</ele>
        <time>2015-10-03T10:56:20Z</time>
      </trkpt>
      <trkpt lat="47.42785" lon="6.61303">
        <ele>307.204</ele>
        <time>2015-10-03T10:56:21Z</time>
      </trkpt>
      <trkpt lat="47.42784" lon="6.61307">
        <ele>306.171</ele>
        <time>2015-10-03T10:56:22Z</time>
      </trkpt>
      <trkpt lat="47.42783" lon="6.61311">
        <ele>306.637</ele>
        <time>2015-10-03T10:56:23Z</time>
      </trkpt>
      <trkpt lat="47.42781" lon="6.61316">
        <ele>306.451</ele>
        <time>2015-10-03T10:56:24Z</time>
      </trkpt>
      <trkpt lat="47.4278" lon="6.6132">
        <ele>307.121</ele>
        <time>2015-10-03T10:56:25Z</time>
      </trkpt>
      <trkpt lat="47.42779" lon="6.61325">
        <ele>307.052</ele>
        <time>2015-10-03T10:56:26Z</time>
      </trkpt>
      <trkpt lat="47.42778" lon="6.61329">
        <ele>306.465</ele>
        <time>2015-10-03T10:56:27Z</time>
      </trkpt>
      <trkpt lat="47.42776" lon="6.61334">
        <ele>305.137</ele>
        <time>2015-10-03T10:56:28Z</time>
      </trkpt>
      <trkpt lat="47.42775" lon="6.61339">
        <ele>304.795</ele>
        <time>2015-10-03T10:56:29Z</time>
      </trkpt>
      <trkpt lat="47.42773" lon="6.61343">
        <ele>304.196</ele>
        <time>2015-10-03T10:56:30Z</time>
      </trkpt>
      <trkpt lat="47.42771" lon="6.61346">
        <ele>304.002</ele>
        <time>2015-10-03T10:56:31Z</time>
      </trkpt>
      <trkpt lat="47.42769" lon="6.6135">
        <ele>303.524</ele>
        <time>2015-10-03T10:56:32Z</time>
      </trkpt>
      <trkpt lat="47.42767" lon="6.61354">
        <ele>302.699</ele>
        <time>2015-10-03T10:56:33Z</time>
      </trkpt>
      <trkpt lat="47.42766" lon="6.61359">
        <ele>303.279</ele>
        <time>2015-10-03T10:56:34Z</time>
      </trkpt>
      <trkpt lat="47.42764" lon="6.61364">
        <ele>303.304</ele>
        <time>2015-10-03T10:56:35Z</time>
      </trkpt>
      <trkpt lat="47.42762" lon="6.61369">
        <ele>302.551</ele>
        <time>2015-10-03T10:56:36Z</time>
      </trkpt>
      <trkpt lat="47.4276" lon="6.61375">
        <ele>301.748</ele>
        <time>2015-10-03T10:56:37Z</time>
      </trkpt>
      <trkpt lat="47.42759" lon="6.6138">
        <ele>301.618</ele>
        <time>2015-10-03T10:56:38Z</time>
      </trkpt>
      <trkpt lat="47.42757" lon="6.61385">
        <ele>301.255</ele>
        <time>2015-10-03T10:56:39Z</time>
      </trkpt>
      <trkpt lat="47.42755" lon="6.6139">
        <ele>300.902</ele>
        <time>2015-10-03T10:56:40Z</time>
      </trkpt>
      <trkpt lat="47.42753" lon="6.61396">
        <ele>301.961</ele>
        <time>2015-10-03T10:56:41Z</time>
      </trkpt>
      <trkpt lat="47.42751" lon="6.61401">
        <ele>301.614</ele>
        <time>2015-10-03T10:56:42Z</time>
      </trkpt>
      <trkpt lat="47.42749" lon="6.61406">
        <ele>302.159</ele>
        <time>2015-10-03T10:56:43Z</time>
      </trkpt>
      <trkpt lat="47.42747" lon="6.61412">
        <ele>302.446</ele>
        <time>2015-10-03T10:56:44Z</time>
      </trkpt>
      <trkpt lat="47.42745" lon="6.61417">
        <ele>301.295</ele>
        <time>2015-10-03T10:56:45Z</time>
      </trkpt>
      <trkpt lat="47.42743" lon="6.61423">
        <ele>301.956</ele>
        <time>2015-10-03T10:56:46Z</time>
      </trkpt>
      <trkpt lat="47.42741" lon="6.61428">
        <ele>302.097</ele>
        <time>2015-10-03T10:56:47Z</time>
      </trkpt>
      <trkpt lat="47.42739" lon="6.61433">
        <ele>302.53</ele>
        <time>2015-10-03T10:56:48Z</time>
      </trkpt>
      <trkpt lat="47.42736" lon="6.6144">
        <ele>302.505</ele>
        <time>2015-10-03T10:56:49Z</time>
      </trkpt>
      <trkpt lat="47.42735" lon="6.61445">
        <ele>302.219</ele>
        <time>2015-10-03T10:56:50Z</time>
      </trkpt>
      <trkpt lat="47.42733" lon="6.61451">
        <ele>302.712</ele>
        <time>2015-10-03T10:56:51Z</time>
      </trkpt>
      <trkpt lat="47.42732" lon="6.61456">
        <ele>301.912</ele>
        <time>2015-10-03T10:56:52Z</time>
      </trkpt>
      <trkpt lat="47.4273" lon="6.61461">
        <ele>300.641</ele>
        <time>2015-10-03T10:56:53Z</time>
      </trkpt>
      <trkpt lat="47.42728" lon="6.61468">
        <ele>300.019</ele>
        <time>2015-10-03T10:56:54Z</time>
      </trkpt>
      <trkpt lat="47.42727" lon="6.61474">
        <ele>300.215</ele>
        <time>2015-10-03T10:56:55Z</time>
      </trkpt>
      <trkpt lat="47.42725" lon="6.6148">
        <ele>300.126</ele>
        <time>2015-10-03T10:56:56Z</time>
      </trkpt>
      <trkpt lat="47.42723" lon="6.61486">
        <ele>300.59</ele>
        <time>2015-10-03T10:56:57Z</time>
      </trkpt>
      <trkpt lat="47.42722" lon="6.61493">
        <ele>298.328</ele>
        <time>2015-10-03T10:56:58Z</time>
      </trkpt>
      <trkpt lat="47.4272" lon="6.61498">
        <ele>298.198</ele>
        <time>2015-10-03T10:56:59Z</time>
      </trkpt>
      <trkpt lat="47.42718" lon="6.61504">
        <ele>298.496</ele>
        <time>2015-10-03T10:57:00Z</time>
      </trkpt>
      <trkpt lat="47.42717" lon="6.61513">
        <ele>298.634</ele>
        <time>2015-10-03T10:57:01Z</time>
      </trkpt>
      <trkpt lat="47.42716" lon="6.61521">
        <ele>298.667</ele>
        <time>2015-10-03T10:57:02Z</time>
      </trkpt>
      <trkpt lat="47.42714" lon="6.61527">
        <ele>299.427</ele>
        <time>2015-10-03T10:57:03Z</time>
      </trkpt>
      <trkpt lat="47.42713" lon="6.61535">
        <ele>299.321</ele>
        <time>2015-10-03T10:57:04Z</time>
      </trkpt>
      <trkpt lat="47.42712" lon="6.61541">
        <ele>297.582</ele>
        <time>2015-10-03T10:57:05Z</time>
      </trkpt>
      <trkpt lat="47.42711" lon="6.61548">
        <ele>297.842</ele>
        <time>2015-10-03T10:57:06Z</time>
      </trkpt>
      <trkpt lat="47.42709" lon="6.61554">
        <ele>297.662</ele>
        <time>2015-10-03T10:57:07Z</time>
      </trkpt>
      <trkpt lat="47.42707" lon="6.61562">
        <ele>297.769</ele>
        <time>2015-10-03T10:57:08Z</time>
      </trkpt>
      <trkpt lat="47.42705" lon="6.61568">
        <ele>298.13</ele>
        <time>2015-10-03T10:57:09Z</time>
      </trkpt>
      <trkpt lat="47.42703" lon="6.61576">
        <ele>298.598</ele>
        <time>2015-10-03T10:57:10Z</time>
      </trkpt>
      <trkpt lat="47.42702" lon="6.6158">
        <ele>297.89</ele>
        <time>2015-10-03T10:57:11Z</time>
      </trkpt>
      <trkpt lat="47.427" lon="6.61586">
        <ele>297.315</ele>
        <time>2015-10-03T10:57:12Z</time>
      </trkpt>
      <trkpt lat="47.42699" lon="6.61593">
        <ele>296.697</ele>
        <time>2015-10-03T10:57:13Z</time>
      </trkpt>
      <trkpt lat="47.42698" lon="6.61599">
        <ele>297.477</ele>
        <time>2015-10-03T10:57:14Z</time>
      </trkpt>
      <trkpt lat="47.42697" lon="6.61605">
        <ele>297.012</ele>
        <time>2015-10-03T10:57:15Z</time>
      </trkpt>
      <trkpt lat="47.42695" lon="6.61614">
        <ele>297.789</ele>
        <time>2015-10-03T10:57:16Z</time>
      </trkpt>
      <trkpt lat="47.42694" lon="6.61619">
        <ele>297.249</ele>
        <time>2015-10-03T10:57:17Z</time>
      </trkpt>
      <trkpt lat="47.42692" lon="6.61626">
        <ele>296.917</ele>
        <time>2015-10-03T10:57:18Z</time>
      </trkpt>
      <trkpt lat="47.42691" lon="6.61633">
        <ele>296.749</ele>
        <time>2015-10-03T10:57:19Z</time>
      </trkpt>
      <trkpt lat="47.4269" lon="6.61637">
        <ele>295.198</ele>
        <time>2015-10-03T10:57:20Z</time>
      </trkpt>
      <trkpt lat="47.42688" lon="6.61643">
        <ele>294.26</ele>
        <time>2015-10-03T10:57:21Z</time>
      </trkpt>
      <trkpt lat="47.42687" lon="6.61649">
        <ele>294.786</ele>
        <time>2015-10-03T10:57:22Z</time>
      </trkpt>
      <trkpt lat="47.42684" lon="6.61653">
        <ele>296.189</ele>
        <time>2015-10-03T10:57:23Z</time>
      </trkpt>
      <trkpt lat="47.42683" lon="6.61658">
        <ele>295.659</ele>
        <time>2015-10-03T10:57:24Z</time>
      </trkpt>
      <trkpt lat="47.42681" lon="6.61664">
        <ele>296.738</ele>
        <time>2015-10-03T10:57:25Z</time>
      </trkpt>
      <trkpt lat="47.4268" lon="6.6167">
        <ele>297.098</ele>
        <time>2015-10-03T10:57:26Z</time>
      </trkpt>
      <trkpt lat="47.42678" lon="6.61677">
        <ele>297.87</ele>
        <time>2015-10-03T10:57:27Z</time>
      </trkpt>
      <trkpt lat="47.42677" lon="6.61684">
        <ele>298.186</ele>
        <time>2015-10-03T10:57:28Z</time>
      </trkpt>
      <trkpt lat="47.42674" lon="6.6169">
        <ele>298.53</ele>
        <time>2015-10-03T10:57:29Z</time>
      </trkpt>
      <trkpt lat="47.42672" lon="6.61697">
        <ele>298.924</ele>
        <time>2015-10-03T10:57:30Z</time>
      </trkpt>
      <trkpt lat="47.4267" lon="6.61702">
        <ele>297.987</ele>
        <time>2015-10-03T10:57:31Z</time>
      </trkpt>
      <trkpt lat="47.42668" lon="6.61709">
        <ele>297.523</ele>
        <time>2015-10-03T10:57:32Z</time>
      </trkpt>
      <trkpt lat="47.42667" lon="6.61714">
        <ele>297.319</ele>
        <time>2015-10-03T10:57:33Z</time>
      </trkpt>
      <trkpt lat="47.42666" lon="6.61721">
        <ele>298.6</ele>
        <time>2015-10-03T10:57:34Z</time>
      </trkpt>
      <trkpt lat="47.42665" lon="6.61728">
        <ele>297.784</ele>
        <time>2015-10-03T10:57:35Z</time>
      </trkpt>
      <trkpt lat="47.42664" lon="6.61733">
        <ele>297.882</ele>
        <time>2015-10-03T10:57:36Z</time>
      </trkpt>
      <trkpt lat="47.42662" lon="6.6174">
        <ele>297.728</ele>
        <time>2015-10-03T10:57:37Z</time>
      </trkpt>
      <trkpt lat="47.42661" lon="6.61748">
        <ele>297.145</ele>
        <time>2015-10-03T10:57:38Z</time>
      </trkpt>
      <trkpt lat="47.42659" lon="6.61755">
        <ele>296.684</ele>
        <time>2015-10-03T10:57:39Z</time>
      </trkpt>
      <trkpt lat="47.42658" lon="6.6176">
        <ele>296.227</ele>
        <time>2015-10-03T10:57:40Z</time>
      </trkpt>
      <trkpt lat="47.42657" lon="6.61767">
        <ele>296.037</ele>
        <time>2015-10-03T10:57:41Z</time>
      </trkpt>
      <trkpt lat="47.42656" lon="6.61775">
        <ele>295.629</ele>
        <time>2015-10-03T10:57:42Z</time>
      </trkpt>
      <trkpt lat="47.42655" lon="6.61782">
        <ele>294.232</ele>
        <time>2015-10-03T10:57:43Z</time>
      </trkpt>
      <trkpt lat="47.42653" lon="6.61788">
        <ele>295.427</ele>
        <time>2015-10-03T10:57:44Z</time>
      </trkpt>
      <trkpt lat="47.42652" lon="6.61795">
        <ele>295.363</ele>
        <time>2015-10-03T10:57:45Z</time>
      </trkpt>
      <trkpt lat="47.42651" lon="6.61802">
        <ele>295.598</ele>
        <time>2015-10-03T10:57:46Z</time>
      </trkpt>
      <trkpt lat="47.42649" lon="6.61809">
        <ele>295.748</ele>
        <time>2015-10-03T10:57:47Z</time>
      </trkpt>
      <trkpt lat="47.42648" lon="6.61815">
        <ele>297.915</ele>
        <time>2015-10-03T10:57:48Z</time>
      </trkpt>
      <trkpt lat="47.42647" lon="6.61822">
        <ele>298.114</ele>
        <time>2015-10-03T10:57:49Z</time>
      </trkpt>
      <trkpt lat="47.42645" lon="6.61829">
        <ele>298.592</ele>
        <time>2015-10-03T10:57:50Z</time>
      </trkpt>
      <trkpt lat="47.42644" lon="6.61834">
        <ele>297.699</ele>
        <time>2015-10-03T10:57:51Z</time>
      </trkpt>
      <trkpt lat="47.42642" lon="6.61842">
        <ele>295.583</ele>
        <time>2015-10-03T10:57:52Z</time>
      </trkpt>
      <trkpt lat="47.42641" lon="6.61849">
        <ele>296.508</ele>
        <time>2015-10-03T10:57:53Z</time>
      </trkpt>
      <trkpt lat="47.42641" lon="6.61856">
        <ele>296.573</ele>
        <time>2015-10-03T10:57:54Z</time>
      </trkpt>
      <trkpt lat="47.4264" lon="6.61862">
        <ele>296.848</ele>
        <time>2015-10-03T10:57:55Z</time>
      </trkpt>
      <trkpt lat="47.42638" lon="6.61868">
        <ele>296.466</ele>
        <time>2015-10-03T10:57:56Z</time>
      </trkpt>
      <trkpt lat="47.42637" lon="6.61875">
        <ele>298.071</ele>
        <time>2015-10-03T10:57:57Z</time>
      </trkpt>
      <trkpt lat="47.42637" lon="6.61881">
        <ele>297.892</ele>
        <time>2015-10-03T10:57:58Z</time>
      </trkpt>
      <trkpt lat="47.42635" lon="6.61887">
        <ele>298.746</ele>
        <time>2015-10-03T10:57:59Z</time>
      </trkpt>
      <trkpt lat="47.42634" lon="6.61894">
        <ele>299.23</ele>
        <time>2015-10-03T10:58:00Z</time>
      </trkpt>
      <trkpt lat="47.42633" lon="6.619">
        <ele>299.14</ele>
        <time>2015-10-03T10:58:01Z</time>
      </trkpt>
      <trkpt lat="47.42633" lon="6.61907">
        <ele>298.998</ele>
        <time>2015-10-03T10:58:02Z</time>
      </trkpt>
      <trkpt lat="47.42632" lon="6.61915">
        <ele>300.076</ele>
        <time>2015-10-03T10:58:03Z</time>
      </trkpt>
      <trkpt lat="47.42632" lon="6.61921">
        <ele>299.971</ele>
        <time>2015-10-03T10:58:04Z</time>
      </trkpt>
      <trkpt lat="47.42632" lon="6.6193">
        <ele>299.942</ele>
        <time>2015-10-03T10:58:05Z</time>
      </trkpt>
      <trkpt lat="47.42631" lon="6.61935">
        <ele>300.273</ele>
        <time>2015-10-03T10:58:06Z</time>
      </trkpt>
      <trkpt lat="47.42629" lon="6.61941">
        <ele>300.495</ele>
        <time>2015-10-03T10:58:07Z</time>
      </trkpt>
      <trkpt lat="47.42628" lon="6.61948">
        <ele>299.509</ele>
        <time>2015-10-03T10:58:08Z</time>
      </trkpt>
      <trkpt lat="47.42628" lon="6.61955">
        <ele>298.829</ele>
        <time>2015-10-03T10:58:09Z</time>
      </trkpt>
      <trkpt lat="47.42627" lon="6.61961">
        <ele>299.36</ele>
        <time>2015-10-03T10:58:10Z</time>
      </trkpt>
      <trkpt lat="47.42628" lon="6.61968">
        <ele>300.202</ele>
        <time>2015-10-03T10:58:11Z</time>
      </trkpt>
      <trkpt lat="47.42627" lon="6.61974">
        <ele>300.141</ele>
        <time>2015-10-03T10:58:12Z</time>
      </trkpt>
      <trkpt lat="47.42626" lon="6.61981">
        <ele>301.431</ele>
        <time>2015-10-03T10:58:13Z</time>
      </trkpt>
      <trkpt lat="47.42626" lon="6.61988">
        <ele>301.633</ele>
        <time>2015-10-03T10:58:14Z</time>
      </trkpt>
      <trkpt lat="47.42626" lon="6.61995">
        <ele>301.261</ele>
        <time>2015-10-03T10:58:15Z</time>
      </trkpt>
      <trkpt lat="47.42626" lon="6.62003">
        <ele>301.693</ele>
        <time>2015-10-03T10:58:16Z</time>
      </trkpt>
      <trkpt lat="47.42626" lon="6.62009">
        <ele>301.916</ele>
        <time>2015-10-03T10:58:17Z</time>
      </trkpt>
      <trkpt lat="47.42625" lon="6.62016">
        <ele>302.007</ele>
        <time>2015-10-03T10:58:18Z</time>
      </trkpt>
      <trkpt lat="47.42625" lon="6.62024">
        <ele>301.108</ele>
        <time>2015-10-03T10:58:19Z</time>
      </trkpt>
      <trkpt lat="47.42625" lon="6.6203">
        <ele>300.817</ele>
        <time>2015-10-03T10:58:20Z</time>
      </trkpt>
      <trkpt lat="47.42624" lon="6.62036">
        <ele>300.174</ele>
        <time>2015-10-03T10:58:21Z</time>
      </trkpt>
      <trkpt lat="47.42624" lon="6.62041">
        <ele>300.77</ele>
        <time>2015-10-03T10:58:22Z</time>
      </trkpt>
      <trkpt lat="47.42623" lon="6.62047">
        <ele>300.809</ele>
        <time>2015-10-03T10:58:23Z</time>
      </trkpt>
      <trkpt lat="47.42623" lon="6.62054">
        <ele>301.131</ele>
        <time>2015-10-03T10:58:24Z</time>
      </trkpt>
      <trkpt lat="47.42624" lon="6.62061">
        <ele>300.525</ele>
        <time>2015-10-03T10:58:25Z</time>
      </trkpt>
      <trkpt lat="47.42624" lon="6.6207">
        <ele>300.078</ele>
        <time>2015-10-03T10:58:26Z</time>
      </trkpt>
      <trkpt lat="47.42624" lon="6.62077">
        <ele>300.801</ele>
        <time>2015-10-03T10:58:27Z</time>
      </trkpt>
      <trkpt lat="47.42622" lon="6.62082">
        <ele>301.822</ele>
        <time>2015-10-03T10:58:28Z</time>
      </trkpt>
      <trkpt lat="47.42623" lon="6.6209">
        <ele>301.917</ele>
        <time>2015-10-03T10:58:29Z</time>
      </trkpt>
      <trkpt lat="47.42623" lon="6.62096">
        <ele>301.849</ele>
        <time>2015-10-03T10:58:30Z</time>
      </trkpt>
      <trkpt lat="47.42624" lon="6.62103">
        <ele>302.021</ele>
        <time>2015-10-03T10:58:31Z</time>
      </trkpt>
      <trkpt lat="47.42626" lon="6.62113">
        <ele>300.663</ele>
        <time>2015-10-03T10:58:32Z</time>
      </trkpt>
      <trkpt lat="47.42626" lon="6.62119">
        <ele>300.735</ele>
        <time>2015-10-03T10:58:33Z</time>
      </trkpt>
      <trkpt lat="47.42626" lon="6.62125">
        <ele>300.226</ele>
        <time>2015-10-03T10:58:34Z</time>
      </trkpt>
      <trkpt lat="47.42625" lon="6.62132">
        <ele>300.5</ele>
        <time>2015-10-03T10:58:35Z</time>
      </trkpt>
      <trkpt lat="47.42625" lon="6.62137">
        <ele>300.904</ele>
        <time>2015-10-03T10:58:36Z</time>
      </trkpt>
      <trkpt lat="47.42627" lon="6.62147">
        <ele>299.291</ele>
        <time>2015-10-03T10:58:37Z</time>
      </trkpt>
      <trkpt lat="47.42627" lon="6.62153">
        <ele>299.675</ele>
        <time>2015-10-03T10:58:38Z</time>
      </trkpt>
      <trkpt lat="47.42627" lon="6.6216">
        <ele>300.448</ele>
        <time>2015-10-03T10:58:39Z</time>
      </trkpt>
      <trkpt lat="47.42628" lon="6.62167">
        <ele>300.136</ele>
        <time>2015-10-03T10:58:40Z</time>
      </trkpt>
      <trkpt lat="47.42627" lon="6.62174">
        <ele>299.521</ele>
        <time>2015-10-03T10:58:41Z</time>
      </trkpt>
      <trkpt lat="47.42628" lon="6.62181">
        <ele>300.077</ele>
        <time>2015-10-03T10:58:42Z</time>
      </trkpt>
      <trkpt lat="47.42629" lon="6.62187">
        <ele>299.937</ele>
        <time>2015-10-03T10:58:43Z</time>
      </trkpt>
      <trkpt lat="47.42629" lon="6.62193">
        <ele>300.606</ele>
        <time>2015-10-03T10:58:44Z</time>
      </trkpt>
      <trkpt lat="47.4263" lon="6.62199">
        <ele>300</ele>
        <time>2015-10-03T10:58:45Z</time>
      </trkpt>
      <trkpt lat="47.4263" lon="6.62205">
        <ele>299.903</ele>
        <time>2015-10-03T10:58:46Z</time>
      </trkpt>
      <trkpt lat="47.42631" lon="6.62212">
        <ele>299.242</ele>
        <time>2015-10-03T10:58:47Z</time>
      </trkpt>
      <trkpt lat="47.42632" lon="6.62218">
        <ele>298.737</ele>
        <time>2015-10-03T10:58:48Z</time>
      </trkpt>
      <trkpt lat="47.42632" lon="6.62224">
        <ele>300.196</ele>
        <time>2015-10-03T10:58:49Z</time>
      </trkpt>
      <trkpt lat="47.42632" lon="6.6223">
        <ele>300.681</ele>
        <time>2015-10-03T10:58:50Z</time>
      </trkpt>
      <trkpt lat="47.42633" lon="6.62236">
        <ele>300.806</ele>
        <time>2015-10-03T10:58:51Z</time>
      </trkpt>
      <trkpt lat="47.42633" lon="6.62242">
        <ele>300.286</ele>
        <time>2015-10-03T10:58:52Z</time>
      </trkpt>
      <trkpt lat="47.42633" lon="6.62248">
        <ele>300.455</ele>
        <time>2015-10-03T10:58:53Z</time>
      </trkpt>
      <trkpt lat="47.42634" lon="6.62255">
        <ele>301.272</ele>
        <time>2015-10-03T10:58:54Z</time>
      </trkpt>
      <trkpt lat="47.42634" lon="6.62263">
        <ele>301.701</ele>
        <time>2015-10-03T10:58:55Z</time>
      </trkpt>
      <trkpt lat="47.42635" lon="6.6227">
        <ele>302.077</ele>
        <time>2015-10-03T10:58:56Z</time>
      </trkpt>
      <trkpt lat="47.42636" lon="6.62279">
        <ele>301.866</ele>
        <time>2015-10-03T10:58:57Z</time>
      </trkpt>
      <trkpt lat="47.42637" lon="6.62285">
        <ele>302.652</ele>
        <time>2015-10-03T10:58:58Z</time>
      </trkpt>
      <trkpt lat="47.42638" lon="6.62292">
        <ele>302.775</ele>
        <time>2015-10-03T10:58:59Z</time>
      </trkpt>
      <trkpt lat="47.42638" lon="6.62298">
        <ele>303.029</ele>
        <time>2015-10-03T10:59:00Z</time>
      </trkpt>
      <trkpt lat="47.42638" lon="6.62303">
        <ele>302.706</ele>
        <time>2015-10-03T10:59:01Z</time>
      </trkpt>
      <trkpt lat="47.42638" lon="6.6231">
        <ele>302.638</ele>
        <time>2015-10-03T10:59:02Z</time>
      </trkpt>
      <trkpt lat="47.42638" lon="6.62316">
        <ele>303.648</ele>
        <time>2015-10-03T10:59:03Z</time>
      </trkpt>
      <trkpt lat="47.42639" lon="6.62322">
        <ele>303.991</ele>
        <time>2015-10-03T10:59:04Z</time>
      </trkpt>
      <trkpt lat="47.42639" lon="6.62329">
        <ele>303.751</ele>
        <time>2015-10-03T10:59:05Z</time>
      </trkpt>
      <trkpt lat="47.42639" lon="6.62334">
        <ele>303.074</ele>
        <time>2015-10-03T10:59:06Z</time>
      </trkpt>
      <trkpt lat="47.4264" lon="6.62341">
        <ele>302.159</ele>
        <time>2015-10-03T10:59:07Z</time>
      </trkpt>
      <trkpt lat="47.42641" lon="6.62347">
        <ele>301.347</ele>
        <time>2015-10-03T10:59:08Z</time>
      </trkpt>
      <trkpt lat="47.42642" lon="6.62354">
        <ele>301.136</ele>
        <time>2015-10-03T10:59:09Z</time>
      </trkpt>
      <trkpt lat="47.42642" lon="6.62358">
        <ele>300.071</ele>
        <time>2015-10-03T10:59:10Z</time>
      </trkpt>
      <trkpt lat="47.42643" lon="6.62364">
        <ele>299.774</ele>
        <time>2015-10-03T10:59:11Z</time>
      </trkpt>
      <trkpt lat="47.42644" lon="6.62371">
        <ele>299.033</ele>
        <time>2015-10-03T10:59:12Z</time>
      </trkpt>
      <trkpt lat="47.42645" lon="6.62378">
        <ele>297.584</ele>
        <time>2015-10-03T10:59:13Z</time>
      </trkpt>
      <trkpt lat="47.42645" lon="6.62384">
        <ele>298.872</ele>
        <time>2015-10-03T10:59:14Z</time>
      </trkpt>
      <trkpt lat="47.42646" lon="6.62392">
        <ele>298.916</ele>
        <time>2015-10-03T10:59:15Z</time>
      </trkpt>
      <trkpt lat="47.42647" lon="6.62398">
        <ele>298</ele>
        <time>2015-10-03T10:59:16Z</time>
      </trkpt>
      <trkpt lat="47.42646" lon="6.62404">
        <ele>299.19</ele>
        <time>2015-10-03T10:59:17Z</time>
      </trkpt>
      <trkpt lat="47.42648" lon="6.62411">
        <ele>297.651</ele>
        <time>2015-10-03T10:59:18Z</time>
      </trkpt>
      <trkpt lat="47.42648" lon="6.62418">
        <ele>296.74</ele>
        <time>2015-10-03T10:59:19Z</time>
      </trkpt>
      <trkpt lat="47.42649" lon="6.62426">
        <ele>296.587</ele>
        <time>2015-10-03T10:59:20Z</time>
      </trkpt>
      <trkpt lat="47.4265" lon="6.62432">
        <ele>295.556</ele>
        <time>2015-10-03T10:59:21Z</time>
      </trkpt>
      <trkpt lat="47.42651" lon="6.6244">
        <ele>295.993</ele>
        <time>2015-10-03T10:59:22Z</time>
      </trkpt>
      <trkpt lat="47.42653" lon="6.62446">
        <ele>296.21</ele>
        <time>2015-10-03T10:59:23Z</time>
      </trkpt>
      <trkpt lat="47.42654" lon="6.62452">
        <ele>296.526</ele>
        <time>2015-10-03T10:59:24Z</time>
      </trkpt>
      <trkpt lat="47.42655" lon="6.6246">
        <ele>297.143</ele>
        <time>2015-10-03T10:59:25Z</time>
      </trkpt>
      <trkpt lat="47.42657" lon="6.62466">
        <ele>296.769</ele>
        <time>2015-10-03T10:59:26Z</time>
      </trkpt>
      <trkpt lat="47.42658" lon="6.62473">
        <ele>296.084</ele>
        <time>2015-10-03T10:59:27Z</time>
      </trkpt>
      <trkpt lat="47.42659" lon="6.62478">
        <ele>295.609</ele>
        <time>2015-10-03T10:59:28Z</time>
      </trkpt>
      <trkpt lat="47.4266" lon="6.62483">
        <ele>296.16</ele>
        <time>2015-10-03T10:59:29Z</time>
      </trkpt>
      <trkpt lat="47.42662" lon="6.62492">
        <ele>295.494</ele>
        <time>2015-10-03T10:59:30Z</time>
      </trkpt>
      <trkpt lat="47.42663" lon="6.62497">
        <ele>296.076</ele>
        <time>2015-10-03T10:59:31Z</time>
      </trkpt>
      <trkpt lat="47.42663" lon="6.62502">
        <ele>296.856</ele>
        <time>2015-10-03T10:59:32Z</time>
      </trkpt>
      <trkpt lat="47.42664" lon="6.62509">
        <ele>296.123</ele>
        <time>2015-10-03T10:59:33Z</time>
      </trkpt>
      <trkpt lat="47.42665" lon="6.62515">
        <ele>296.289</ele>
        <time>2015-10-03T10:59:34Z</time>
      </trkpt>
      <trkpt lat="47.42666" lon="6.62522">
        <ele>296.93</ele>
        <time>2015-10-03T10:59:35Z</time>
      </trkpt>
      <trkpt lat="47.42668" lon="6.62529">
        <ele>296.855</ele>
        <time>2015-10-03T10:59:36Z</time>
      </trkpt>
      <trkpt lat="47.42669" lon="6.62537">
        <ele>297.598</ele>
        <time>2015-10-03T10:59:37Z</time>
      </trkpt>
      <trkpt lat="47.42671" lon="6.62545">
        <ele>296.813</ele>
        <time>2015-10-03T10:59:38Z</time>
      </trkpt>
      <trkpt lat="47.42672" lon="6.62551">
        <ele>296.846</ele>
        <time>2015-10-03T10:59:39Z</time>
      </trkpt>
      <trkpt lat="47.42673" lon="6.62558">
        <ele>296.407</ele>
        <time>2015-10-03T10:59:40Z</time>
      </trkpt>
      <trkpt lat="47.42674" lon="6.62564">
        <ele>296.989</ele>
        <time>2015-10-03T10:59:41Z</time>
      </trkpt>
      <trkpt lat="47.42675" lon="6.6257">
        <ele>296.961</ele>
        <time>2015-10-03T10:59:42Z</time>
      </trkpt>
      <trkpt lat="47.42678" lon="6.62578">
        <ele>296.328</ele>
        <time>2015-10-03T10:59:43Z</time>
      </trkpt>
      <trkpt lat="47.42679" lon="6.62584">
        <ele>296.131</ele>
        <time>2015-10-03T10:59:44Z</time>
      </trkpt>
      <trkpt lat="47.4268" lon="6.62591">
        <ele>296.226</ele>
        <time>2015-10-03T10:59:45Z</time>
      </trkpt>
      <trkpt lat="47.42682" lon="6.62598">
        <ele>297.498</ele>
        <time>2015-10-03T10:59:46Z</time>
      </trkpt>
      <trkpt lat="47.42682" lon="6.62603">
        <ele>297.883</ele>
        <time>2015-10-03T10:59:47Z</time>
      </trkpt>
      <trkpt lat="47.42683" lon="6.62609">
        <ele>298.009</ele>
        <time>2015-10-03T10:59:48Z</time>
      </trkpt>
      <trkpt lat="47.42685" lon="6.62615">
        <ele>298.734</ele>
        <time>2015-10-03T10:59:49Z</time>
      </trkpt>
      <trkpt lat="47.42686" lon="6.62618">
        <ele>298.034</ele>
        <time>2015-10-03T10:59:50Z</time>
      </trkpt>
      <trkpt lat="47.42688" lon="6.62625">
        <ele>297.682</ele>
        <time>2015-10-03T10:59:51Z</time>
      </trkpt>
      <trkpt lat="47.4269" lon="6.62633">
        <ele>297.01</ele>
        <time>2015-10-03T10:59:52Z</time>
      </trkpt>
      <trkpt lat="47.42692" lon="6.62638">
        <ele>296.784</ele>
        <time>2015-10-03T10:59:53Z</time>
      </trkpt>
      <trkpt lat="47.42694" lon="6.62646">
        <ele>295.684</ele>
        <time>2015-10-03T10:59:54Z</time>
      </trkpt>
      <trkpt lat="47.42696" lon="6.62653">
        <ele>295.654</ele>
        <time>2015-10-03T10:59:55Z</time>
      </trkpt>
      <trkpt lat="47.42696" lon="6.62658">
        <ele>297.438</ele>
        <time>2015-10-03T10:59:56Z</time>
      </trkpt>
      <trkpt lat="47.42696" lon="6.62664">
        <ele>298.343</ele>
        <time>2015-10-03T10:59:57Z</time>
      </trkpt>
      <trkpt lat="47.42698" lon="6.6267">
        <ele>298.669</ele>
        <time>2015-10-03T10:59:58Z</time>
      </trkpt>
      <trkpt lat="47.42702" lon="6.62678">
        <ele>296.717</ele>
        <time>2015-10-03T10:59:59Z</time>
      </trkpt>
      <trkpt lat="47.42704" lon="6.62684">
        <ele>296.676</ele>
        <time>2015-10-03T11:00:00Z</time>
      </trkpt>
      <trkpt lat="47.42706" lon="6.6269">
        <ele>297.495</ele>
        <time>2015-10-03T11:00:01Z</time>
      </trkpt>
      <trkpt lat="47.42707" lon="6.62696">
        <ele>296.883</ele>
        <time>2015-10-03T11:00:02Z</time>
      </trkpt>
      <trkpt lat="47.4271" lon="6.62703">
        <ele>296.265</ele>
        <time>2015-10-03T11:00:03Z</time>
      </trkpt>
      <trkpt lat="47.42711" lon="6.62709">
        <ele>295.649</ele>
        <time>2015-10-03T11:00:04Z</time>
      </trkpt>
      <trkpt lat="47.42713" lon="6.62715">
        <ele>296.55</ele>
        <time>2015-10-03T11:00:05Z</time>
      </trkpt>
      <trkpt lat="47.42715" lon="6.62723">
        <ele>295.326</ele>
        <time>2015-10-03T11:00:06Z</time>
      </trkpt>
      <trkpt lat="47.42717" lon="6.62728">
        <ele>295.93</ele>
        <time>2015-10-03T11:00:07Z</time>
      </trkpt>
      <trkpt lat="47.42719" lon="6.62734">
        <ele>297.243</ele>
        <time>2015-10-03T11:00:08Z</time>
      </trkpt>
      <trkpt lat="47.42721" lon="6.6274">
        <ele>296.332</ele>
        <time>2015-10-03T11:00:09Z</time>
      </trkpt>
      <trkpt lat="47.42722" lon="6.62746">
        <ele>295.96</ele>
        <time>2015-10-03T11:00:10Z</time>
      </trkpt>
      <trkpt lat="47.42723" lon="6.62752">
        <ele>297.186</ele>
        <time>2015-10-03T11:00:11Z</time>
      </trkpt>
      <trkpt lat="47.42724" lon="6.62758">
        <ele>297.387</ele>
        <time>2015-10-03T11:00:12Z</time>
      </trkpt>
      <trkpt lat="47.42726" lon="6.62764">
        <ele>296.716</ele>
        <time>2015-10-03T11:00:13Z</time>
      </trkpt>
      <trkpt lat="47.42728" lon="6.62769">
        <ele>297.618</ele>
        <time>2015-10-03T11:00:14Z</time>
      </trkpt>
      <trkpt lat="47.4273" lon="6.62774">
        <ele>297.478</ele>
        <time>2015-10-03T11:00:15Z</time>
      </trkpt>
      <trkpt lat="47.42733" lon="6.62779">
        <ele>296.76</ele>
        <time>2015-10-03T11:00:16Z</time>
      </trkpt>
      <trkpt lat="47.42735" lon="6.62785">
        <ele>295.857</ele>
        <time>2015-10-03T11:00:17Z</time>
      </trkpt>
      <trkpt lat="47.42736" lon="6.62791">
        <ele>296.545</ele>
        <time>2015-10-03T11:00:18Z</time>
      </trkpt>
      <trkpt lat="47.42738" lon="6.62797">
        <ele>296.915</ele>
        <time>2015-10-03T11:00:19Z</time>
      </trkpt>
      <trkpt lat="47.4274" lon="6.62802">
        <ele>297.288</ele>
        <time>2015-10-03T11:00:20Z</time>
      </trkpt>
      <trkpt lat="47.42742" lon="6.62807">
        <ele>297.116</ele>
        <time>2015-10-03T11:00:21Z</time>
      </trkpt>
      <trkpt lat="47.42746" lon="6.62814">
        <ele>295.636</ele>
        <time>2015-10-03T11:00:22Z</time>
      </trkpt>
      <trkpt lat="47.42748" lon="6.62818">
        <ele>295.305</ele>
        <time>2015-10-03T11:00:23Z</time>
      </trkpt>
      <trkpt lat="47.42751" lon="6.62826">
        <ele>295.379</ele>
        <time>2015-10-03T11:00:24Z</time>
      </trkpt>
      <trkpt lat="47.42754" lon="6.6283">
        <ele>294.097</ele>
        <time>2015-10-03T11:00:25Z</time>
      </trkpt>
      <trkpt lat="47.42756" lon="6.62835">
        <ele>294.43</ele>
        <time>2015-10-03T11:00:26Z</time>
      </trkpt>
      <trkpt lat="47.42759" lon="6.62841">
        <ele>294.3</ele>
        <time>2015-10-03T11:00:27Z</time>
      </trkpt>
      <trkpt lat="47.42762" lon="6.62847">
        <ele>294.662</ele>
        <time>2015-10-03T11:00:28Z</time>
      </trkpt>
      <trkpt lat="47.42765" lon="6.62852">
        <ele>294.829</ele>
        <time>2015-10-03T11:00:29Z</time>
      </trkpt>
      <trkpt lat="47.42768" lon="6.62857">
        <ele>296.138</ele>
        <time>2015-10-03T11:00:30Z</time>
      </trkpt>
      <trkpt lat="47.42771" lon="6.62863">
        <ele>296.734</ele>
        <time>2015-10-03T11:00:31Z</time>
      </trkpt>
      <trkpt lat="47.42774" lon="6.62868">
        <ele>295.776</ele>
        <time>2015-10-03T11:00:32Z</time>
      </trkpt>
      <trkpt lat="47.42777" lon="6.62875">
        <ele>295.812</ele>
        <time>2015-10-03T11:00:33Z</time>
      </trkpt>
      <trkpt lat="47.4278" lon="6.62882">
        <ele>295.196</ele>
        <time>2015-10-03T11:00:34Z</time>
      </trkpt>
      <trkpt lat="47.42783" lon="6.62887">
        <ele>295.389</ele>
        <time>2015-10-03T11:00:35Z</time>
      </trkpt>
      <trkpt lat="47.42786" lon="6.62891">
        <ele>295.639</ele>
        <time>2015-10-03T11:00:36Z</time>
      </trkpt>
      <trkpt lat="47.42789" lon="6.62896">
        <ele>295.218</ele>
        <time>2015-10-03T11:00:37Z</time>
      </trkpt>
      <trkpt lat="47.42793" lon="6.62901">
        <ele>295.751</ele>
        <time>2015-10-03T11:00:38Z</time>
      </trkpt>
      <trkpt lat="47.42796" lon="6.62905">
        <ele>295.962</ele>
        <time>2015-10-03T11:00:39Z</time>
      </trkpt>
      <trkpt lat="47.42799" lon="6.6291">
        <ele>296.317</ele>
        <time>2015-10-03T11:00:40Z</time>
      </trkpt>
      <trkpt lat="47.42802" lon="6.62916">
        <ele>295.525</ele>
        <time>2015-10-03T11:00:41Z</time>
      </trkpt>
      <trkpt lat="47.42805" lon="6.62919">
        <ele>296.137</ele>
        <time>2015-10-03T11:00:42Z</time>
      </trkpt>
      <trkpt lat="47.42808" lon="6.62923">
        <ele>295.84</ele>
        <time>2015-10-03T11:00:43Z</time>
      </trkpt>
      <trkpt lat="47.42812" lon="6.62928">
        <ele>295.924</ele>
        <time>2015-10-03T11:00:44Z</time>
      </trkpt>
      <trkpt lat="47.42815" lon="6.62933">
        <ele>296.276</ele>
        <time>2015-10-03T11:00:45Z</time>
      </trkpt>
      <trkpt lat="47.42819" lon="6.62939">
        <ele>298.614</ele>
        <time>2015-10-03T11:00:46Z</time>
      </trkpt>
      <trkpt lat="47.42822" lon="6.62943">
        <ele>298.69</ele>
        <time>2015-10-03T11:00:47Z</time>
      </trkpt>
      <trkpt lat="47.42825" lon="6.62947">
        <ele>299.351</ele>
        <time>2015-10-03T11:00:48Z</time>
      </trkpt>
      <trkpt lat="47.42828" lon="6.62952">
        <ele>299.192</ele>
        <time>2015-10-03T11:00:49Z</time>
      </trkpt>
      <trkpt lat="47.42832" lon="6.62956">
        <ele>298.938</ele>
        <time>2015-10-03T11:00:50Z</time>
      </trkpt>
      <trkpt lat="47.42835" lon="6.6296">
        <ele>298.162</ele>
        <time>2015-10-03T11:00:51Z</time>
      </trkpt>
      <trkpt lat="47.42839" lon="6.62965">
        <ele>297.835</ele>
        <time>2015-10-03T11:00:52Z</time>
      </trkpt>
      <trkpt lat="47.42842" lon="6.62968">
        <ele>297.292</ele>
        <time>2015-10-03T11:00:53Z</time>
      </trkpt>
      <trkpt lat="47.42846" lon="6.62971">
        <ele>298.506</ele>
        <time>2015-10-03T11:00:54Z</time>
      </trkpt>
      <trkpt lat="47.4285" lon="6.62975">
        <ele>298.423</ele>
        <time>2015-10-03T11:00:55Z</time>
      </trkpt>
      <trkpt lat="47.42854" lon="6.62979">
        <ele>299.132</ele>
        <time>2015-10-03T11:00:56Z</time>
      </trkpt>
      <trkpt lat="47.42858" lon="6.62983">
        <ele>299.303</ele>
        <time>2015-10-03T11:00:57Z</time>
      </trkpt>
      <trkpt lat="47.42862" lon="6.62989">
        <ele>299.154</ele>
        <time>2015-10-03T11:00:58Z</time>
      </trkpt>
      <trkpt lat="47.42866" lon="6.62992">
        <ele>298.099</ele>
        <time>2015-10-03T11:00:59Z</time>
      </trkpt>
      <trkpt lat="47.42869" lon="6.62995">
        <ele>297.494</ele>
        <time>2015-10-03T11:01:00Z</time>
      </trkpt>
      <trkpt lat="47.42872" lon="6.62999">
        <ele>298.316</ele>
        <time>2015-10-03T11:01:01Z</time>
      </trkpt>
      <trkpt lat="47.42876" lon="6.63002">
        <ele>299.168</ele>
        <time>2015-10-03T11:01:02Z</time>
      </trkpt>
      <trkpt lat="47.4288" lon="6.63005">
        <ele>298.849</ele>
        <time>2015-10-03T11:01:03Z</time>
      </trkpt>
      <trkpt lat="47.42883" lon="6.63009">
        <ele>299.417</ele>
        <time>2015-10-03T11:01:04Z</time>
      </trkpt>
      <trkpt lat="47.42886" lon="6.63013">
        <ele>300.394</ele>
        <time>2015-10-03T11:01:05Z</time>
      </trkpt>
      <trkpt lat="47.4289" lon="6.63017">
        <ele>300.866</ele>
        <time>2015-10-03T11:01:06Z</time>
      </trkpt>
      <trkpt lat="47.42894" lon="6.63022">
        <ele>301.166</ele>
        <time>2015-10-03T11:01:07Z</time>
      </trkpt>
      <trkpt lat="47.42897" lon="6.63025">
        <ele>301.291</ele>
        <time>2015-10-03T11:01:08Z</time>
      </trkpt>
      <trkpt lat="47.42901" lon="6.63028">
        <ele>299.732</ele>
        <time>2015-10-03T11:01:09Z</time>
      </trkpt>
      <trkpt lat="47.42905" lon="6.63032">
        <ele>299.705</ele>
        <time>2015-10-03T11:01:10Z</time>
      </trkpt>
      <trkpt lat="47.42909" lon="6.63034">
        <ele>299.412</ele>
        <time>2015-10-03T11:01:11Z</time>
      </trkpt>
      <trkpt lat="47.42913" lon="6.63037">
        <ele>298.91</ele>
        <time>2015-10-03T11:01:12Z</time>
      </trkpt>
      <trkpt lat="47.42917" lon="6.63039">
        <ele>299.235</ele>
        <time>2015-10-03T11:01:13Z</time>
      </trkpt>
      <trkpt lat="47.42921" lon="6.63042">
        <ele>298.932</ele>
        <time>2015-10-03T11:01:14Z</time>
      </trkpt>
      <trkpt lat="47.42925" lon="6.63046">
        <ele>298.33</ele>
        <time>2015-10-03T11:01:15Z</time>
      </trkpt>
      <trkpt lat="47.42927" lon="6.63051">
        <ele>300.295</ele>
        <time>2015-10-03T11:01:16Z</time>
      </trkpt>
      <trkpt lat="47.42931" lon="6.63054">
        <ele>299.815</ele>
        <time>2015-10-03T11:01:17Z</time>
      </trkpt>
      <trkpt lat="47.42935" lon="6.63058">
        <ele>299.764</ele>
        <time>2015-10-03T11:01:18Z</time>
      </trkpt>
      <trkpt lat="47.42939" lon="6.63059">
        <ele>299.943</ele>
        <time>2015-10-03T11:01:19Z</time>
      </trkpt>
      <trkpt lat="47.42943" lon="6.63062">
        <ele>299.297</ele>
        <time>2015-10-03T11:01:20Z</time>
      </trkpt>
      <trkpt lat="47.42948" lon="6.63065">
        <ele>299.202</ele>
        <time>2015-10-03T11:01:21Z</time>
      </trkpt>
      <trkpt lat="47.42952" lon="6.63069">
        <ele>299.706</ele>
        <time>2015-10-03T11:01:22Z</time>
      </trkpt>
      <trkpt lat="47.42955" lon="6.63071">
        <ele>301.375</ele>
        <time>2015-10-03T11:01:23Z</time>
      </trkpt>
      <trkpt lat="47.42959" lon="6.63075">
        <ele>301.153</ele>
        <time>2015-10-03T11:01:24Z</time>
      </trkpt>
      <trkpt lat="47.42963" lon="6.63079">
        <ele>302.057</ele>
        <time>2015-10-03T11:01:25Z</time>
      </trkpt>
      <trkpt lat="47.42967" lon="6.63082">
        <ele>302.439</ele>
        <time>2015-10-03T11:01:26Z</time>
      </trkpt>
      <trkpt lat="47.4297" lon="6.63084">
        <ele>302.638</ele>
        <time>2015-10-03T11:01:27Z</time>
      </trkpt>
      <trkpt lat="47.42974" lon="6.63088">
        <ele>302.657</ele>
        <time>2015-10-03T11:01:28Z</time>
      </trkpt>
      <trkpt lat="47.42977" lon="6.63091">
        <ele>303.076</ele>
        <time>2015-10-03T11:01:29Z</time>
      </trkpt>
      <trkpt lat="47.42981" lon="6.63093">
        <ele>303.36</ele>
        <time>2015-10-03T11:01:30Z</time>
      </trkpt>
      <trkpt lat="47.42985" lon="6.63097">
        <ele>303.371</ele>
        <time>2015-10-03T11:01:31Z</time>
      </trkpt>
      <trkpt lat="47.4299" lon="6.63096">
        <ele>299.957</ele>
        <time>2015-10-03T11:01:32Z</time>
      </trkpt>
      <trkpt lat="47.42995" lon="6.63099">
        <ele>299.571</ele>
        <time>2015-10-03T11:01:33Z</time>
      </trkpt>
      <trkpt lat="47.42998" lon="6.63103">
        <ele>300.369</ele>
        <time>2015-10-03T11:01:34Z</time>
      </trkpt>
      <trkpt lat="47.43003" lon="6.63106">
        <ele>299.511</ele>
        <time>2015-10-03T11:01:35Z</time>
      </trkpt>
      <trkpt lat="47.43007" lon="6.63109">
        <ele>300.271</ele>
        <time>2015-10-03T11:01:36Z</time>
      </trkpt>
      <trkpt lat="47.43012" lon="6.6311">
        <ele>298.029</ele>
        <time>2015-10-03T11:01:37Z</time>
      </trkpt>
      <trkpt lat="47.43015" lon="6.63112">
        <ele>297.838</ele>
        <time>2015-10-03T11:01:38Z</time>
      </trkpt>
      <trkpt lat="47.43019" lon="6.63115">
        <ele>297.367</ele>
        <time>2015-10-03T11:01:39Z</time>
      </trkpt>
      <trkpt lat="47.43025" lon="6.63116">
        <ele>296.033</ele>
        <time>2015-10-03T11:01:40Z</time>
      </trkpt>
      <trkpt lat="47.43028" lon="6.6312">
        <ele>295.962</ele>
        <time>2015-10-03T11:01:41Z</time>
      </trkpt>
      <trkpt lat="47.43032" lon="6.63121">
        <ele>296.261</ele>
        <time>2015-10-03T11:01:42Z</time>
      </trkpt>
      <trkpt lat="47.43037" lon="6.63122">
        <ele>295.235</ele>
        <time>2015-10-03T11:01:43Z</time>
      </trkpt>
      <trkpt lat="47.43042" lon="6.63123">
        <ele>294.889</ele>
        <time>2015-10-03T11:01:44Z</time>
      </trkpt>
      <trkpt lat="47.43045" lon="6.63126">
        <ele>294.938</ele>
        <time>2015-10-03T11:01:45Z</time>
      </trkpt>
      <trkpt lat="47.43048" lon="6.63128">
        <ele>297.18</ele>
        <time>2015-10-03T11:01:46Z</time>
      </trkpt>
      <trkpt lat="47.43052" lon="6.63128">
        <ele>297.304</ele>
        <time>2015-10-03T11:01:47Z</time>
      </trkpt>
      <trkpt lat="47.43056" lon="6.6313">
        <ele>297.068</ele>
        <time>2015-10-03T11:01:48Z</time>
      </trkpt>
      <trkpt lat="47.43061" lon="6.63131">
        <ele>297.655</ele>
        <time>2015-10-03T11:01:49Z</time>
      </trkpt>
      <trkpt lat="47.43064" lon="6.63133">
        <ele>296.937</ele>
        <time>2015-10-03T11:01:50Z</time>
      </trkpt>
      <trkpt lat="47.43068" lon="6.63136">
        <ele>298.511</ele>
        <time>2015-10-03T11:01:51Z</time>
      </trkpt>
      <trkpt lat="47.43074" lon="6.63139">
        <ele>297.226</ele>
        <time>2015-10-03T11:01:52Z</time>
      </trkpt>
      <trkpt lat="47.43078" lon="6.63142">
        <ele>297.448</ele>
        <time>2015-10-03T11:01:53Z</time>
      </trkpt>
      <trkpt lat="47.43083" lon="6.63144">
        <ele>295.329</ele>
        <time>2015-10-03T11:01:54Z</time>
      </trkpt>
      <trkpt lat="47.43086" lon="6.63146">
        <ele>294.393</ele>
        <time>2015-10-03T11:01:55Z</time>
      </trkpt>
      <trkpt lat="47.43091" lon="6.63146">
        <ele>293.346</ele>
        <time>2015-10-03T11:01:56Z</time>
      </trkpt>
      <trkpt lat="47.43095" lon="6.6315">
        <ele>293.263</ele>
        <time>2015-10-03T11:01:57Z</time>
      </trkpt>
      <trkpt lat="47.43097" lon="6.63153">
        <ele>292.319</ele>
        <time>2015-10-03T11:01:58Z</time>
      </trkpt>
      <trkpt lat="47.43101" lon="6.63156">
        <ele>292.576</ele>
        <time>2015-10-03T11:01:59Z</time>
      </trkpt>
      <trkpt lat="47.43106" lon="6.63155">
        <ele>292.565</ele>
        <time>2015-10-03T11:02:00Z</time>
      </trkpt>
      <trkpt lat="47.4311" lon="6.63155">
        <ele>291.42</ele>
        <time>2015-10-03T11:02:01Z</time>
      </trkpt>
      <trkpt lat="47.43115" lon="6.63157">
        <ele>291.761</ele>
        <time>2015-10-03T11:02:02Z</time>
      </trkpt>
      <trkpt lat="47.4312" lon="6.63158">
        <ele>292.876</ele>
        <time>2015-10-03T11:02:03Z</time>
      </trkpt>
      <trkpt lat="47.43124" lon="6.6316">
        <ele>294.261</ele>
        <time>2015-10-03T11:02:04Z</time>
      </trkpt>
      <trkpt lat="47.43128" lon="6.63162">
        <ele>295.616</ele>
        <time>2015-10-03T11:02:05Z</time>
      </trkpt>
      <trkpt lat="47.43134" lon="6.63163">
        <ele>296.676</ele>
        <time>2015-10-03T11:02:06Z</time>
      </trkpt>
      <trkpt lat="47.43138" lon="6.63163">
        <ele>296.48</ele>
        <time>2015-10-03T11:02:07Z</time>
      </trkpt>
      <trkpt lat="47.43143" lon="6.63163">
        <ele>297.725</ele>
        <time>2015-10-03T11:02:08Z</time>
      </trkpt>
      <trkpt lat="47.43147" lon="6.63164">
        <ele>297.137</ele>
        <time>2015-10-03T11:02:09Z</time>
      </trkpt>
      <trkpt lat="47.43151" lon="6.63164">
        <ele>296.824</ele>
        <time>2015-10-03T11:02:10Z</time>
      </trkpt>
      <trkpt lat="47.43156" lon="6.63165">
        <ele>297.201</ele>
        <time>2015-10-03T11:02:11Z</time>
      </trkpt>
      <trkpt lat="47.43161" lon="6.63166">
        <ele>297.2</ele>
        <time>2015-10-03T11:02:12Z</time>
      </trkpt>
      <trkpt lat="47.43166" lon="6.63165">
        <ele>296.284</ele>
        <time>2015-10-03T11:02:13Z</time>
      </trkpt>
      <trkpt lat="47.43172" lon="6.63165">
        <ele>293.807</ele>
        <time>2015-10-03T11:02:14Z</time>
      </trkpt>
      <trkpt lat="47.43177" lon="6.63166">
        <ele>293.397</ele>
        <time>2015-10-03T11:02:15Z</time>
      </trkpt>
      <trkpt lat="47.43181" lon="6.63167">
        <ele>293.581</ele>
        <time>2015-10-03T11:02:16Z</time>
      </trkpt>
      <trkpt lat="47.43186" lon="6.63167">
        <ele>294.702</ele>
        <time>2015-10-03T11:02:17Z</time>
      </trkpt>
      <trkpt lat="47.43191" lon="6.63168">
        <ele>294.272</ele>
        <time>2015-10-03T11:02:18Z</time>
      </trkpt>
      <trkpt lat="47.43196" lon="6.63169">
        <ele>294.695</ele>
        <time>2015-10-03T11:02:19Z</time>
      </trkpt>
      <trkpt lat="47.432" lon="6.6317">
        <ele>294.305</ele>
        <time>2015-10-03T11:02:20Z</time>
      </trkpt>
      <trkpt lat="47.43205" lon="6.63171">
        <ele>294.871</ele>
        <time>2015-10-03T11:02:21Z</time>
      </trkpt>
      <trkpt lat="47.43209" lon="6.6317">
        <ele>294.795</ele>
        <time>2015-10-03T11:02:22Z</time>
      </trkpt>
      <trkpt lat="47.43214" lon="6.63172">
        <ele>296.083</ele>
        <time>2015-10-03T11:02:23Z</time>
      </trkpt>
      <trkpt lat="47.43218" lon="6.6317">
        <ele>297.089</ele>
        <time>2015-10-03T11:02:24Z</time>
      </trkpt>
      <trkpt lat="47.43222" lon="6.63171">
        <ele>297.066</ele>
        <time>2015-10-03T11:02:25Z</time>
      </trkpt>
      <trkpt lat="47.43227" lon="6.63171">
        <ele>298.037</ele>
        <time>2015-10-03T11:02:26Z</time>
      </trkpt>
      <trkpt lat="47.43231" lon="6.63174">
        <ele>300.55</ele>
        <time>2015-10-03T11:02:27Z</time>
      </trkpt>
      <trkpt lat="47.43236" lon="6.63175">
        <ele>300.295</ele>
        <time>2015-10-03T11:02:28Z</time>
      </trkpt>
      <trkpt lat="47.4324" lon="6.63174">
        <ele>300.385</ele>
        <time>2015-10-03T11:02:29Z</time>
      </trkpt>
      <trkpt lat="47.43245" lon="6.63172">
        <ele>299.848</ele>
        <time>2015-10-03T11:02:30Z</time>
      </trkpt>
      <trkpt lat="47.4325" lon="6.63173">
        <ele>299.34</ele>
        <time>2015-10-03T11:02:31Z</time>
      </trkpt>
      <trkpt lat="47.43254" lon="6.63173">
        <ele>300.422</ele>
        <time>2015-10-03T11:02:32Z</time>
      </trkpt>
      <trkpt lat="47.43259" lon="6.63173">
        <ele>301.657</ele>
        <time>2015-10-03T11:02:33Z</time>
      </trkpt>
      <trkpt lat="47.43264" lon="6.63173">
        <ele>302.131</ele>
        <time>2015-10-03T11:02:34Z</time>
      </trkpt>
      <trkpt lat="47.43269" lon="6.63173">
        <ele>301.335</ele>
        <time>2015-10-03T11:02:35Z</time>
      </trkpt>
      <trkpt lat="47.43272" lon="6.63171">
        <ele>299.749</ele>
        <time>2015-10-03T11:02:36Z</time>
      </trkpt>
      <trkpt lat="47.43277" lon="6.6317">
        <ele>296.39</ele>
        <time>2015-10-03T11:02:38Z</time>
      </trkpt>
      <trkpt lat="47.43282" lon="6.63169">
        <ele>297.122</ele>
        <time>2015-10-03T11:02:39Z</time>
      </trkpt>
      <trkpt lat="47.43288" lon="6.63167">
        <ele>298.392</ele>
        <time>2015-10-03T11:02:40Z</time>
      </trkpt>
      <trkpt lat="47.43293" lon="6.63168">
        <ele>297.969</ele>
        <time>2015-10-03T11:02:41Z</time>
      </trkpt>
      <trkpt lat="47.43298" lon="6.63169">
        <ele>299.661</ele>
        <time>2015-10-03T11:02:42Z</time>
      </trkpt>
      <trkpt lat="47.43304" lon="6.63168">
        <ele>300.526</ele>
        <time>2015-10-03T11:02:43Z</time>
      </trkpt>
      <trkpt lat="47.43309" lon="6.63168">
        <ele>301.636</ele>
        <time>2015-10-03T11:02:44Z</time>
      </trkpt>
      <trkpt lat="47.43314" lon="6.63167">
        <ele>301.811</ele>
        <time>2015-10-03T11:02:45Z</time>
      </trkpt>
      <trkpt lat="47.43319" lon="6.63166">
        <ele>301.221</ele>
        <time>2015-10-03T11:02:46Z</time>
      </trkpt>
      <trkpt lat="47.43322" lon="6.63166">
        <ele>303.373</ele>
        <time>2015-10-03T11:02:47Z</time>
      </trkpt>
      <trkpt lat="47.43328" lon="6.63164">
        <ele>302.636</ele>
        <time>2015-10-03T11:02:48Z</time>
      </trkpt>
      <trkpt lat="47.43332" lon="6.63162">
        <ele>303.939</ele>
        <time>2015-10-03T11:02:49Z</time>
      </trkpt>
      <trkpt lat="47.43338" lon="6.6316">
        <ele>302.273</ele>
        <time>2015-10-03T11:02:50Z</time>
      </trkpt>
      <trkpt lat="47.43344" lon="6.63159">
        <ele>301.544</ele>
        <time>2015-10-03T11:02:51Z</time>
      </trkpt>
      <trkpt lat="47.43347" lon="6.63159">
        <ele>300.246</ele>
        <time>2015-10-03T11:02:52Z</time>
      </trkpt>
      <trkpt lat="47.43353" lon="6.63158">
        <ele>300.172</ele>
        <time>2015-10-03T11:02:53Z</time>
      </trkpt>
      <trkpt lat="47.43357" lon="6.63157">
        <ele>301.287</ele>
        <time>2015-10-03T11:02:54Z</time>
      </trkpt>
      <trkpt lat="47.43362" lon="6.63156">
        <ele>302.034</ele>
        <time>2015-10-03T11:02:55Z</time>
      </trkpt>
      <trkpt lat="47.43368" lon="6.63152">
        <ele>301.971</ele>
        <time>2015-10-03T11:02:56Z</time>
      </trkpt>
      <trkpt lat="47.43373" lon="6.63149">
        <ele>301.89</ele>
        <time>2015-10-03T11:02:57Z</time>
      </trkpt>
      <trkpt lat="47.43377" lon="6.63147">
        <ele>302.387</ele>
        <time>2015-10-03T11:02:58Z</time>
      </trkpt>
      <trkpt lat="47.43383" lon="6.63146">
        <ele>302.725</ele>
        <time>2015-10-03T11:02:59Z</time>
      </trkpt>
      <trkpt lat="47.43387" lon="6.63143">
        <ele>301.29</ele>
        <time>2015-10-03T11:03:00Z</time>
      </trkpt>
      <trkpt lat="47.43393" lon="6.63142">
        <ele>301.019</ele>
        <time>2015-10-03T11:03:01Z</time>
      </trkpt>
      <trkpt lat="47.43398" lon="6.63141">
        <ele>300.578</ele>
        <time>2015-10-03T11:03:02Z</time>
      </trkpt>
      <trkpt lat="47.43402" lon="6.6314">
        <ele>300.478</ele>
        <time>2015-10-03T11:03:03Z</time>
      </trkpt>
      <trkpt lat="47.43406" lon="6.63137">
        <ele>301.266</ele>
        <time>2015-10-03T11:03:04Z</time>
      </trkpt>
      <trkpt lat="47.43411" lon="6.63135">
        <ele>302.251</ele>
        <time>2015-10-03T11:03:05Z</time>
      </trkpt>
      <trkpt lat="47.43416" lon="6.63133">
        <ele>301.706</ele>
        <time>2015-10-03T11:03:06Z</time>
      </trkpt>
      <trkpt lat="47.43421" lon="6.6313">
        <ele>300.469</ele>
        <time>2015-10-03T11:03:07Z</time>
      </trkpt>
      <trkpt lat="47.43426" lon="6.63128">
        <ele>300.67</ele>
        <time>2015-10-03T11:03:08Z</time>
      </trkpt>
      <trkpt lat="47.43431" lon="6.63126">
        <ele>299.888</ele>
        <time>2015-10-03T11:03:09Z</time>
      </trkpt>
      <trkpt lat="47.43434" lon="6.63126">
        <ele>300.254</ele>
        <time>2015-10-03T11:03:10Z</time>
      </trkpt>
      <trkpt lat="47.43439" lon="6.63123">
        <ele>300.226</ele>
        <time>2015-10-03T11:03:11Z</time>
      </trkpt>
      <trkpt lat="47.43444" lon="6.6312">
        <ele>301.431</ele>
        <time>2015-10-03T11:03:12Z</time>
      </trkpt>
      <trkpt lat="47.43448" lon="6.63117">
        <ele>300.509</ele>
        <time>2015-10-03T11:03:13Z</time>
      </trkpt>
      <trkpt lat="47.43453" lon="6.63116">
        <ele>299.532</ele>
        <time>2015-10-03T11:03:14Z</time>
      </trkpt>
      <trkpt lat="47.43457" lon="6.63113">
        <ele>299.362</ele>
        <time>2015-10-03T11:03:15Z</time>
      </trkpt>
      <trkpt lat="47.43462" lon="6.63111">
        <ele>298.662</ele>
        <time>2015-10-03T11:03:16Z</time>
      </trkpt>
      <trkpt lat="47.43466" lon="6.63109">
        <ele>297.753</ele>
        <time>2015-10-03T11:03:17Z</time>
      </trkpt>
      <trkpt lat="47.4347" lon="6.63106">
        <ele>299.2</ele>
        <time>2015-10-03T11:03:18Z</time>
      </trkpt>
      <trkpt lat="47.43474" lon="6.63101">
        <ele>296.568</ele>
        <time>2015-10-03T11:03:19Z</time>
      </trkpt>
      <trkpt lat="47.43479" lon="6.63097">
        <ele>296.932</ele>
        <time>2015-10-03T11:03:20Z</time>
      </trkpt>
      <trkpt lat="47.43484" lon="6.63095">
        <ele>296.433</ele>
        <time>2015-10-03T11:03:21Z</time>
      </trkpt>
      <trkpt lat="47.43489" lon="6.63093">
        <ele>295.535</ele>
        <time>2015-10-03T11:03:22Z</time>
      </trkpt>
      <trkpt lat="47.43493" lon="6.63092">
        <ele>295.714</ele>
        <time>2015-10-03T11:03:23Z</time>
      </trkpt>
      <trkpt lat="47.43498" lon="6.6309">
        <ele>295.716</ele>
        <time>2015-10-03T11:03:24Z</time>
      </trkpt>
      <trkpt lat="47.43502" lon="6.63088">
        <ele>296.767</ele>
        <time>2015-10-03T11:03:25Z</time>
      </trkpt>
      <trkpt lat="47.43506" lon="6.63085">
        <ele>298.451</ele>
        <time>2015-10-03T11:03:26Z</time>
      </trkpt>
      <trkpt lat="47.43512" lon="6.63082">
        <ele>297.534</ele>
        <time>2015-10-03T11:03:27Z</time>
      </trkpt>
      <trkpt lat="47.43518" lon="6.63078">
        <ele>297.581</ele>
        <time>2015-10-03T11:03:28Z</time>
      </trkpt>
      <trkpt lat="47.43522" lon="6.63076">
        <ele>298.139</ele>
        <time>2015-10-03T11:03:29Z</time>
      </trkpt>
      <trkpt lat="47.43527" lon="6.63072">
        <ele>298.317</ele>
        <time>2015-10-03T11:03:30Z</time>
      </trkpt>
      <trkpt lat="47.43532" lon="6.63069">
        <ele>298.972</ele>
        <time>2015-10-03T11:03:31Z</time>
      </trkpt>
      <trkpt lat="47.43536" lon="6.63066">
        <ele>298.987</ele>
        <time>2015-10-03T11:03:32Z</time>
      </trkpt>
      <trkpt lat="47.43541" lon="6.63063">
        <ele>297.286</ele>
        <time>2015-10-03T11:03:33Z</time>
      </trkpt>
      <trkpt lat="47.43544" lon="6.63061">
        <ele>298.088</ele>
        <time>2015-10-03T11:03:34Z</time>
      </trkpt>
      <trkpt lat="47.43549" lon="6.63059">
        <ele>298.471</ele>
        <time>2015-10-03T11:03:35Z</time>
      </trkpt>
      <trkpt lat="47.43554" lon="6.63056">
        <ele>299.018</ele>
        <time>2015-10-03T11:03:36Z</time>
      </trkpt>
      <trkpt lat="47.43557" lon="6.63053">
        <ele>299.565</ele>
        <time>2015-10-03T11:03:37Z</time>
      </trkpt>
      <trkpt lat="47.43562" lon="6.63051">
        <ele>300.037</ele>
        <time>2015-10-03T11:03:38Z</time>
      </trkpt>
      <trkpt lat="47.43564" lon="6.63052">
        <ele>302.952</ele>
        <time>2015-10-03T11:03:39Z</time>
      </trkpt>
      <trkpt lat="47.43569" lon="6.63047">
        <ele>302.228</ele>
        <time>2015-10-03T11:03:40Z</time>
      </trkpt>
      <trkpt lat="47.43572" lon="6.63047">
        <ele>301.872</ele>
        <time>2015-10-03T11:03:41Z</time>
      </trkpt>
      <trkpt lat="47.43577" lon="6.63045">
        <ele>300.636</ele>
        <time>2015-10-03T11:03:42Z</time>
      </trkpt>
      <trkpt lat="47.4358" lon="6.63041">
        <ele>302.276</ele>
        <time>2015-10-03T11:03:43Z</time>
      </trkpt>
      <trkpt lat="47.43583" lon="6.6304">
        <ele>302.229</ele>
        <time>2015-10-03T11:03:44Z</time>
      </trkpt>
      <trkpt lat="47.43589" lon="6.63037">
        <ele>302.148</ele>
        <time>2015-10-03T11:03:45Z</time>
      </trkpt>
      <trkpt lat="47.43593" lon="6.63033">
        <ele>302.023</ele>
        <time>2015-10-03T11:03:46Z</time>
      </trkpt>
      <trkpt lat="47.43597" lon="6.63028">
        <ele>301.417</ele>
        <time>2015-10-03T11:03:47Z</time>
      </trkpt>
      <trkpt lat="47.43602" lon="6.63025">
        <ele>299.838</ele>
        <time>2015-10-03T11:03:48Z</time>
      </trkpt>
      <trkpt lat="47.43607" lon="6.63021">
        <ele>299.894</ele>
        <time>2015-10-03T11:03:49Z</time>
      </trkpt>
      <trkpt lat="47.43611" lon="6.63019">
        <ele>299.044</ele>
        <time>2015-10-03T11:03:50Z</time>
      </trkpt>
      <trkpt lat="47.43615" lon="6.63016">
        <ele>299.154</ele>
        <time>2015-10-03T11:03:51Z</time>
      </trkpt>
      <trkpt lat="47.4362" lon="6.63012">
        <ele>299.591</ele>
        <time>2015-10-03T11:03:52Z</time>
      </trkpt>
      <trkpt lat="47.43625" lon="6.6301">
        <ele>299.784</ele>
        <time>2015-10-03T11:03:53Z</time>
      </trkpt>
      <trkpt lat="47.43628" lon="6.63009">
        <ele>298.335</ele>
        <time>2015-10-03T11:03:54Z</time>
      </trkpt>
      <trkpt lat="47.43633" lon="6.63006">
        <ele>299.072</ele>
        <time>2015-10-03T11:03:55Z</time>
      </trkpt>
      <trkpt lat="47.43637" lon="6.63002">
        <ele>299.354</ele>
        <time>2015-10-03T11:03:56Z</time>
      </trkpt>
      <trkpt lat="47.43641" lon="6.62999">
        <ele>298.511</ele>
        <time>2015-10-03T11:03:57Z</time>
      </trkpt>
      <trkpt lat="47.43646" lon="6.62996">
        <ele>298.863</ele>
        <time>2015-10-03T11:03:58Z</time>
      </trkpt>
      <trkpt lat="47.4365" lon="6.62993">
        <ele>299.102</ele>
        <time>2015-10-03T11:03:59Z</time>
      </trkpt>
      <trkpt lat="47.43654" lon="6.62991">
        <ele>299.286</ele>
        <time>2015-10-03T11:04:00Z</time>
      </trkpt>
      <trkpt lat="47.4366" lon="6.62985">
        <ele>297.86</ele>
        <time>2015-10-03T11:04:01Z</time>
      </trkpt>
      <trkpt lat="47.43665" lon="6.62981">
        <ele>298.087</ele>
        <time>2015-10-03T11:04:02Z</time>
      </trkpt>
      <trkpt lat="47.43668" lon="6.62979">
        <ele>296.312</ele>
        <time>2015-10-03T11:04:03Z</time>
      </trkpt>
      <trkpt lat="47.43672" lon="6.62976">
        <ele>296.576</ele>
        <time>2015-10-03T11:04:04Z</time>
      </trkpt>
      <trkpt lat="47.43678" lon="6.62975">
        <ele>294.609</ele>
        <time>2015-10-03T11:04:05Z</time>
      </trkpt>
      <trkpt lat="47.43681" lon="6.62972">
        <ele>294.899</ele>
        <time>2015-10-03T11:04:06Z</time>
      </trkpt>
      <trkpt lat="47.43685" lon="6.62967">
        <ele>295.963</ele>
        <time>2015-10-03T11:04:07Z</time>
      </trkpt>
      <trkpt lat="47.43687" lon="6.62964">
        <ele>293.759</ele>
        <time>2015-10-03T11:04:08Z</time>
      </trkpt>
      <trkpt lat="47.43692" lon="6.62962">
        <ele>293.955</ele>
        <time>2015-10-03T11:04:09Z</time>
      </trkpt>
      <trkpt lat="47.43695" lon="6.6296">
        <ele>291.931</ele>
        <time>2015-10-03T11:04:10Z</time>
      </trkpt>
      <trkpt lat="47.43699" lon="6.62959">
        <ele>291.658</ele>
        <time>2015-10-03T11:04:11Z</time>
      </trkpt>
      <trkpt lat="47.43704" lon="6.62956">
        <ele>291.401</ele>
        <time>2015-10-03T11:04:12Z</time>
      </trkpt>
      <trkpt lat="47.43707" lon="6.62954">
        <ele>290.762</ele>
        <time>2015-10-03T11:04:13Z</time>
      </trkpt>
      <trkpt lat="47.43711" lon="6.62951">
        <ele>291.014</ele>
        <time>2015-10-03T11:04:14Z</time>
      </trkpt>
      <trkpt lat="47.43715" lon="6.62949">
        <ele>291.601</ele>
        <time>2015-10-03T11:04:15Z</time>
      </trkpt>
      <trkpt lat="47.43722" lon="6.62943">
        <ele>290.537</ele>
        <time>2015-10-03T11:04:16Z</time>
      </trkpt>
      <trkpt lat="47.43727" lon="6.6294">
        <ele>292.013</ele>
        <time>2015-10-03T11:04:17Z</time>
      </trkpt>
      <trkpt lat="47.43732" lon="6.62936">
        <ele>292.894</ele>
        <time>2015-10-03T11:04:18Z</time>
      </trkpt>
      <trkpt lat="47.43735" lon="6.62935">
        <ele>293.911</ele>
        <time>2015-10-03T11:04:19Z</time>
      </trkpt>
      <trkpt lat="47.4374" lon="6.62931">
        <ele>293.348</ele>
        <time>2015-10-03T11:04:20Z</time>
      </trkpt>
      <trkpt lat="47.43744" lon="6.62929">
        <ele>294.304</ele>
        <time>2015-10-03T11:04:21Z</time>
      </trkpt>
      <trkpt lat="47.4375" lon="6.62925">
        <ele>292.224</ele>
        <time>2015-10-03T11:04:22Z</time>
      </trkpt>
      <trkpt lat="47.43754" lon="6.62922">
        <ele>294.233</ele>
        <time>2015-10-03T11:04:23Z</time>
      </trkpt>
      <trkpt lat="47.43758" lon="6.62918">
        <ele>295.745</ele>
        <time>2015-10-03T11:04:24Z</time>
      </trkpt>
      <trkpt lat="47.43762" lon="6.62917">
        <ele>295.08</ele>
        <time>2015-10-03T11:04:25Z</time>
      </trkpt>
      <trkpt lat="47.43765" lon="6.62916">
        <ele>294.889</ele>
        <time>2015-10-03T11:04:26Z</time>
      </trkpt>
      <trkpt lat="47.4377" lon="6.62914">
        <ele>296.712</ele>
        <time>2015-10-03T11:04:27Z</time>
      </trkpt>
      <trkpt lat="47.43774" lon="6.62913">
        <ele>296.425</ele>
        <time>2015-10-03T11:04:28Z</time>
      </trkpt>
      <trkpt lat="47.43778" lon="6.6291">
        <ele>297.314</ele>
        <time>2015-10-03T11:04:29Z</time>
      </trkpt>
      <trkpt lat="47.43783" lon="6.62908">
        <ele>298.034</ele>
        <time>2015-10-03T11:04:30Z</time>
      </trkpt>
      <trkpt lat="47.43787" lon="6.62906">
        <ele>298.708</ele>
        <time>2015-10-03T11:04:31Z</time>
      </trkpt>
      <trkpt lat="47.43792" lon="6.62902">
        <ele>299.46</ele>
        <time>2015-10-03T11:04:32Z</time>
      </trkpt>
      <trkpt lat="47.43799" lon="6.62898">
        <ele>298.55</ele>
        <time>2015-10-03T11:04:33Z</time>
      </trkpt>
      <trkpt lat="47.43804" lon="6.62896">
        <ele>298.469</ele>
        <time>2015-10-03T11:04:34Z</time>
      </trkpt>
      <trkpt lat="47.43808" lon="6.62894">
        <ele>297.761</ele>
        <time>2015-10-03T11:04:35Z</time>
      </trkpt>
      <trkpt lat="47.43812" lon="6.62891">
        <ele>297.496</ele>
        <time>2015-10-03T11:04:36Z</time>
      </trkpt>
      <trkpt lat="47.43815" lon="6.62889">
        <ele>298.897</ele>
        <time>2015-10-03T11:04:37Z</time>
      </trkpt>
      <trkpt lat="47.43818" lon="6.62885">
        <ele>297.36</ele>
        <time>2015-10-03T11:04:38Z</time>
      </trkpt>
      <trkpt lat="47.43822" lon="6.62882">
        <ele>297.405</ele>
        <time>2015-10-03T11:04:39Z</time>
      </trkpt>
      <trkpt lat="47.43826" lon="6.62878">
        <ele>297.42</ele>
        <time>2015-10-03T11:04:40Z</time>
      </trkpt>
      <trkpt lat="47.4383" lon="6.62875">
        <ele>297.288</ele>
        <time>2015-10-03T11:04:41Z</time>
      </trkpt>
      <trkpt lat="47.43834" lon="6.62871">
        <ele>297.036</ele>
        <time>2015-10-03T11:04:42Z</time>
      </trkpt>
      <trkpt lat="47.43839" lon="6.62866">
        <ele>297.252</ele>
        <time>2015-10-03T11:04:43Z</time>
      </trkpt>
      <trkpt lat="47.43845" lon="6.62863">
        <ele>298.434</ele>
        <time>2015-10-03T11:04:44Z</time>
      </trkpt>
      <trkpt lat="47.43852" lon="6.62859">
        <ele>298.364</ele>
        <time>2015-10-03T11:04:45Z</time>
      </trkpt>
      <trkpt lat="47.43857" lon="6.62856">
        <ele>298.913</ele>
        <time>2015-10-03T11:04:46Z</time>
      </trkpt>
      <trkpt lat="47.43861" lon="6.62855">
        <ele>298.504</ele>
        <time>2015-10-03T11:04:47Z</time>
      </trkpt>
      <trkpt lat="47.43867" lon="6.62851">
        <ele>297.224</ele>
        <time>2015-10-03T11:04:48Z</time>
      </trkpt>
      <trkpt lat="47.43872" lon="6.62848">
        <ele>296.571</ele>
        <time>2015-10-03T11:04:49Z</time>
      </trkpt>
      <trkpt lat="47.43878" lon="6.62845">
        <ele>296.927</ele>
        <time>2015-10-03T11:04:50Z</time>
      </trkpt>
      <trkpt lat="47.43883" lon="6.6284">
        <ele>298.721</ele>
        <time>2015-10-03T11:04:51Z</time>
      </trkpt>
      <trkpt lat="47.43887" lon="6.62837">
        <ele>300.93</ele>
        <time>2015-10-03T11:04:52Z</time>
      </trkpt>
      <trkpt lat="47.43893" lon="6.62833">
        <ele>299.862</ele>
        <time>2015-10-03T11:04:53Z</time>
      </trkpt>
      <trkpt lat="47.43898" lon="6.62828">
        <ele>298.96</ele>
        <time>2015-10-03T11:04:54Z</time>
      </trkpt>
      <trkpt lat="47.43902" lon="6.62823">
        <ele>298.815</ele>
        <time>2015-10-03T11:04:55Z</time>
      </trkpt>
      <trkpt lat="47.43907" lon="6.6282">
        <ele>297.696</ele>
        <time>2015-10-03T11:04:56Z</time>
      </trkpt>
      <trkpt lat="47.43912" lon="6.62818">
        <ele>295.067</ele>
        <time>2015-10-03T11:04:57Z</time>
      </trkpt>
      <trkpt lat="47.43916" lon="6.62817">
        <ele>296.077</ele>
        <time>2015-10-03T11:04:58Z</time>
      </trkpt>
      <trkpt lat="47.43921" lon="6.62815">
        <ele>295.679</ele>
        <time>2015-10-03T11:04:59Z</time>
      </trkpt>
      <trkpt lat="47.43927" lon="6.62811">
        <ele>295.194</ele>
        <time>2015-10-03T11:05:00Z</time>
      </trkpt>
      <trkpt lat="47.43931" lon="6.62811">
        <ele>296.439</ele>
        <time>2015-10-03T11:05:01Z</time>
      </trkpt>
      <trkpt lat="47.43936" lon="6.6281">
        <ele>296.56</ele>
        <time>2015-10-03T11:05:02Z</time>
      </trkpt>
      <trkpt lat="47.43941" lon="6.62808">
        <ele>297.796</ele>
        <time>2015-10-03T11:05:03Z</time>
      </trkpt>
      <trkpt lat="47.43946" lon="6.62807">
        <ele>298.267</ele>
        <time>2015-10-03T11:05:04Z</time>
      </trkpt>
      <trkpt lat="47.43951" lon="6.62807">
        <ele>298.414</ele>
        <time>2015-10-03T11:05:05Z</time>
      </trkpt>
      <trkpt lat="47.43959" lon="6.62807">
        <ele>296.605</ele>
        <time>2015-10-03T11:05:06Z</time>
      </trkpt>
      <trkpt lat="47.43963" lon="6.62806">
        <ele>296.517</ele>
        <time>2015-10-03T11:05:07Z</time>
      </trkpt>
      <trkpt lat="47.43969" lon="6.62807">
        <ele>296.527</ele>
        <time>2015-10-03T11:05:08Z</time>
      </trkpt>
      <trkpt lat="47.43971" lon="6.62811">
        <ele>297.618</ele>
        <time>2015-10-03T11:05:09Z</time>
      </trkpt>
      <trkpt lat="47.43974" lon="6.62816">
        <ele>297.399</ele>
        <time>2015-10-03T11:05:10Z</time>
      </trkpt>
      <trkpt lat="47.43977" lon="6.62819">
        <ele>297.517</ele>
        <time>2015-10-03T11:05:11Z</time>
      </trkpt>
      <trkpt lat="47.43982" lon="6.62821">
        <ele>298.01</ele>
        <time>2015-10-03T11:05:12Z</time>
      </trkpt>
      <trkpt lat="47.43985" lon="6.62823">
        <ele>298.462</ele>
        <time>2015-10-03T11:05:13Z</time>
      </trkpt>
      <trkpt lat="47.43989" lon="6.62825">
        <ele>299.04</ele>
        <time>2015-10-03T11:05:14Z</time>
      </trkpt>
      <trkpt lat="47.43993" lon="6.62824">
        <ele>298.537</ele>
        <time>2015-10-03T11:05:15Z</time>
      </trkpt>
      <trkpt lat="47.43997" lon="6.62825">
        <ele>298.232</ele>
        <time>2015-10-03T11:05:16Z</time>
      </trkpt>
      <trkpt lat="47.44001" lon="6.62829">
        <ele>298.82</ele>
        <time>2015-10-03T11:05:17Z</time>
      </trkpt>
      <trkpt lat="47.44006" lon="6.6283">
        <ele>297.241</ele>
        <time>2015-10-03T11:05:18Z</time>
      </trkpt>
      <trkpt lat="47.44011" lon="6.62831">
        <ele>297.123</ele>
        <time>2015-10-03T11:05:19Z</time>
      </trkpt>
      <trkpt lat="47.44016" lon="6.62834">
        <ele>297.516</ele>
        <time>2015-10-03T11:05:20Z</time>
      </trkpt>
      <trkpt lat="47.44021" lon="6.62834">
        <ele>297.951</ele>
        <time>2015-10-03T11:05:21Z</time>
      </trkpt>
      <trkpt lat="47.44024" lon="6.62836">
        <ele>298.642</ele>
        <time>2015-10-03T11:05:22Z</time>
      </trkpt>
      <trkpt lat="47.4403" lon="6.62835">
        <ele>298.181</ele>
        <time>2015-10-03T11:05:23Z</time>
      </trkpt>
      <trkpt lat="47.44037" lon="6.62836">
        <ele>299.47</ele>
        <time>2015-10-03T11:05:24Z</time>
      </trkpt>
      <trkpt lat="47.44041" lon="6.62838">
        <ele>298.741</ele>
        <time>2015-10-03T11:05:25Z</time>
      </trkpt>
      <trkpt lat="47.44045" lon="6.6284">
        <ele>298.462</ele>
        <time>2015-10-03T11:05:26Z</time>
      </trkpt>
      <trkpt lat="47.4405" lon="6.62842">
        <ele>298.131</ele>
        <time>2015-10-03T11:05:27Z</time>
      </trkpt>
      <trkpt lat="47.44055" lon="6.62845">
        <ele>298.867</ele>
        <time>2015-10-03T11:05:28Z</time>
      </trkpt>
      <trkpt lat="47.4406" lon="6.62847">
        <ele>299.206</ele>
        <time>2015-10-03T11:05:29Z</time>
      </trkpt>
      <trkpt lat="47.44064" lon="6.62849">
        <ele>297.324</ele>
        <time>2015-10-03T11:05:30Z</time>
      </trkpt>
      <trkpt lat="47.44069" lon="6.62851">
        <ele>298.783</ele>
        <time>2015-10-03T11:05:31Z</time>
      </trkpt>
      <trkpt lat="47.44073" lon="6.62854">
        <ele>298.253</ele>
        <time>2015-10-03T11:05:32Z</time>
      </trkpt>
      <trkpt lat="47.44076" lon="6.62856">
        <ele>298.062</ele>
        <time>2015-10-03T11:05:33Z</time>
      </trkpt>
      <trkpt lat="47.4408" lon="6.62861">
        <ele>296.545</ele>
        <time>2015-10-03T11:05:34Z</time>
      </trkpt>
      <trkpt lat="47.44084" lon="6.62864">
        <ele>296.588</ele>
        <time>2015-10-03T11:05:35Z</time>
      </trkpt>
      <trkpt lat="47.44089" lon="6.62868">
        <ele>298.003</ele>
        <time>2015-10-03T11:05:36Z</time>
      </trkpt>
      <trkpt lat="47.44092" lon="6.6287">
        <ele>298.644</ele>
        <time>2015-10-03T11:05:37Z</time>
      </trkpt>
      <trkpt lat="47.44096" lon="6.62873">
        <ele>299.084</ele>
        <time>2015-10-03T11:05:38Z</time>
      </trkpt>
      <trkpt lat="47.441" lon="6.62875">
        <ele>298.61</ele>
        <time>2015-10-03T11:05:39Z</time>
      </trkpt>
      <trkpt lat="47.44106" lon="6.62876">
        <ele>298.611</ele>
        <time>2015-10-03T11:05:40Z</time>
      </trkpt>
      <trkpt lat="47.44109" lon="6.62877">
        <ele>298.641</ele>
        <time>2015-10-03T11:05:41Z</time>
      </trkpt>
      <trkpt lat="47.44112" lon="6.62879">
        <ele>300.995</ele>
        <time>2015-10-03T11:05:42Z</time>
      </trkpt>
      <trkpt lat="47.44118" lon="6.62882">
        <ele>300.873</ele>
        <time>2015-10-03T11:05:43Z</time>
      </trkpt>
      <trkpt lat="47.44122" lon="6.62882">
        <ele>299.974</ele>
        <time>2015-10-03T11:05:44Z</time>
      </trkpt>
      <trkpt lat="47.44125" lon="6.62883">
        <ele>301.016</ele>
        <time>2015-10-03T11:05:45Z</time>
      </trkpt>
      <trkpt lat="47.4413" lon="6.62884">
        <ele>301.86</ele>
        <time>2015-10-03T11:05:46Z</time>
      </trkpt>
      <trkpt lat="47.44133" lon="6.62888">
        <ele>304.365</ele>
        <time>2015-10-03T11:05:47Z</time>
      </trkpt>
      <trkpt lat="47.44137" lon="6.62889">
        <ele>303.628</ele>
        <time>2015-10-03T11:05:48Z</time>
      </trkpt>
      <trkpt lat="47.44142" lon="6.62889">
        <ele>304.286</ele>
        <time>2015-10-03T11:05:49Z</time>
      </trkpt>
      <trkpt lat="47.44146" lon="6.62889">
        <ele>304.741</ele>
        <time>2015-10-03T11:05:50Z</time>
      </trkpt>
      <trkpt lat="47.44151" lon="6.6289">
        <ele>306.066</ele>
        <time>2015-10-03T11:05:51Z</time>
      </trkpt>
      <trkpt lat="47.44157" lon="6.62892">
        <ele>306.303</ele>
        <time>2015-10-03T11:05:52Z</time>
      </trkpt>
      <trkpt lat="47.44161" lon="6.62895">
        <ele>305.732</ele>
        <time>2015-10-03T11:05:53Z</time>
      </trkpt>
      <trkpt lat="47.44165" lon="6.62893">
        <ele>306.848</ele>
        <time>2015-10-03T11:05:54Z</time>
      </trkpt>
      <trkpt lat="47.44169" lon="6.62891">
        <ele>305.949</ele>
        <time>2015-10-03T11:05:55Z</time>
      </trkpt>
      <trkpt lat="47.44175" lon="6.62891">
        <ele>307.508</ele>
        <time>2015-10-03T11:05:56Z</time>
      </trkpt>
      <trkpt lat="47.4418" lon="6.62891">
        <ele>307.712</ele>
        <time>2015-10-03T11:05:57Z</time>
      </trkpt>
      <trkpt lat="47.44186" lon="6.6289">
        <ele>307.779</ele>
        <time>2015-10-03T11:05:58Z</time>
      </trkpt>
      <trkpt lat="47.44191" lon="6.62889">
        <ele>308.263</ele>
        <time>2015-10-03T11:05:59Z</time>
      </trkpt>
      <trkpt lat="47.44197" lon="6.62895">
        <ele>308.906</ele>
        <time>2015-10-03T11:06:00Z</time>
      </trkpt>
      <trkpt lat="47.44202" lon="6.62894">
        <ele>306.519</ele>
        <time>2015-10-03T11:06:01Z</time>
      </trkpt>
      <trkpt lat="47.44206" lon="6.629">
        <ele>305.728</ele>
        <time>2015-10-03T11:06:02Z</time>
      </trkpt>
      <trkpt lat="47.44212" lon="6.62906">
        <ele>305.678</ele>
        <time>2015-10-03T11:06:03Z</time>
      </trkpt>
      <trkpt lat="47.44215" lon="6.62906">
        <ele>305.338</ele>
        <time>2015-10-03T11:06:04Z</time>
      </trkpt>
      <trkpt lat="47.44219" lon="6.62908">
        <ele>303.474</ele>
        <time>2015-10-03T11:06:05Z</time>
      </trkpt>
      <trkpt lat="47.44223" lon="6.6291">
        <ele>303.282</ele>
        <time>2015-10-03T11:06:06Z</time>
      </trkpt>
      <trkpt lat="47.44228" lon="6.62913">
        <ele>303.421</ele>
        <time>2015-10-03T11:06:07Z</time>
      </trkpt>
      <trkpt lat="47.44232" lon="6.62915">
        <ele>302.414</ele>
        <time>2015-10-03T11:06:08Z</time>
      </trkpt>
      <trkpt lat="47.44234" lon="6.62913">
        <ele>303.307</ele>
        <time>2015-10-03T11:06:09Z</time>
      </trkpt>
      <trkpt lat="47.44237" lon="6.62912">
        <ele>305.96</ele>
        <time>2015-10-03T11:06:10Z</time>
      </trkpt>
      <trkpt lat="47.44241" lon="6.62912">
        <ele>307.07</ele>
        <time>2015-10-03T11:06:11Z</time>
      </trkpt>
      <trkpt lat="47.44246" lon="6.62917">
        <ele>306.11</ele>
        <time>2015-10-03T11:06:12Z</time>
      </trkpt>
      <trkpt lat="47.44251" lon="6.62921">
        <ele>305.261</ele>
        <time>2015-10-03T11:06:13Z</time>
      </trkpt>
      <trkpt lat="47.44256" lon="6.6292">
        <ele>304.834</ele>
        <time>2015-10-03T11:06:14Z</time>
      </trkpt>
      <trkpt lat="47.44261" lon="6.62919">
        <ele>304.268</ele>
        <time>2015-10-03T11:06:15Z</time>
      </trkpt>
      <trkpt lat="47.44265" lon="6.62918">
        <ele>303.951</ele>
        <time>2015-10-03T11:06:16Z</time>
      </trkpt>
      <trkpt lat="47.44269" lon="6.62918">
        <ele>303.805</ele>
        <time>2015-10-03T11:06:17Z</time>
      </trkpt>
      <trkpt lat="47.44273" lon="6.62919">
        <ele>304.007</ele>
        <time>2015-10-03T11:06:18Z</time>
      </trkpt>
      <trkpt lat="47.44276" lon="6.6292">
        <ele>307.926</ele>
        <time>2015-10-03T11:06:19Z</time>
      </trkpt>
      <trkpt lat="47.4428" lon="6.62921">
        <ele>307.064</ele>
        <time>2015-10-03T11:06:20Z</time>
      </trkpt>
      <trkpt lat="47.44284" lon="6.62923">
        <ele>306.338</ele>
        <time>2015-10-03T11:06:21Z</time>
      </trkpt>
      <trkpt lat="47.44288" lon="6.62925">
        <ele>306.636</ele>
        <time>2015-10-03T11:06:22Z</time>
      </trkpt>
      <trkpt lat="47.44293" lon="6.62927">
        <ele>304.789</ele>
        <time>2015-10-03T11:06:23Z</time>
      </trkpt>
      <trkpt lat="47.44298" lon="6.62929">
        <ele>306.87</ele>
        <time>2015-10-03T11:06:24Z</time>
      </trkpt>
      <trkpt lat="47.44303" lon="6.62932">
        <ele>302.992</ele>
        <time>2015-10-03T11:06:25Z</time>
      </trkpt>
      <trkpt lat="47.44307" lon="6.62935">
        <ele>302.95</ele>
        <time>2015-10-03T11:06:26Z</time>
      </trkpt>
      <trkpt lat="47.44312" lon="6.62939">
        <ele>301.851</ele>
        <time>2015-10-03T11:06:27Z</time>
      </trkpt>
      <trkpt lat="47.44317" lon="6.62942">
        <ele>299.489</ele>
        <time>2015-10-03T11:06:28Z</time>
      </trkpt>
      <trkpt lat="47.44321" lon="6.62946">
        <ele>299.728</ele>
        <time>2015-10-03T11:06:29Z</time>
      </trkpt>
      <trkpt lat="47.44325" lon="6.62948">
        <ele>298.879</ele>
        <time>2015-10-03T11:06:30Z</time>
      </trkpt>
      <trkpt lat="47.44329" lon="6.6295">
        <ele>300.525</ele>
        <time>2015-10-03T11:06:31Z</time>
      </trkpt>
      <trkpt lat="47.44332" lon="6.62951">
        <ele>302.37</ele>
        <time>2015-10-03T11:06:32Z</time>
      </trkpt>
      <trkpt lat="47.44335" lon="6.62953">
        <ele>300.744</ele>
        <time>2015-10-03T11:06:33Z</time>
      </trkpt>
      <trkpt lat="47.44339" lon="6.62955">
        <ele>301.161</ele>
        <time>2015-10-03T11:06:34Z</time>
      </trkpt>
      <trkpt lat="47.44342" lon="6.62956">
        <ele>301.404</ele>
        <time>2015-10-03T11:06:35Z</time>
      </trkpt>
      <trkpt lat="47.44346" lon="6.62959">
        <ele>299.461</ele>
        <time>2015-10-03T11:06:36Z</time>
      </trkpt>
      <trkpt lat="47.44353" lon="6.62963">
        <ele>299.579</ele>
        <time>2015-10-03T11:06:37Z</time>
      </trkpt>
      <trkpt lat="47.44358" lon="6.62962">
        <ele>302.732</ele>
        <time>2015-10-03T11:06:38Z</time>
      </trkpt>
      <trkpt lat="47.44362" lon="6.62965">
        <ele>303.464</ele>
        <time>2015-10-03T11:06:39Z</time>
      </trkpt>
      <trkpt lat="47.44369" lon="6.62966">
        <ele>304.844</ele>
        <time>2015-10-03T11:06:40Z</time>
      </trkpt>
      <trkpt lat="47.44374" lon="6.62967">
        <ele>302.533</ele>
        <time>2015-10-03T11:06:41Z</time>
      </trkpt>
      <trkpt lat="47.44379" lon="6.62969">
        <ele>302.624</ele>
        <time>2015-10-03T11:06:42Z</time>
      </trkpt>
      <trkpt lat="47.44384" lon="6.62974">
        <ele>301.701</ele>
        <time>2015-10-03T11:06:43Z</time>
      </trkpt>
      <trkpt lat="47.44387" lon="6.62974">
        <ele>300.322</ele>
        <time>2015-10-03T11:06:44Z</time>
      </trkpt>
      <trkpt lat="47.44393" lon="6.62974">
        <ele>301.981</ele>
        <time>2015-10-03T11:06:45Z</time>
      </trkpt>
      <trkpt lat="47.44398" lon="6.62975">
        <ele>302.897</ele>
        <time>2015-10-03T11:06:46Z</time>
      </trkpt>
      <trkpt lat="47.44403" lon="6.62976">
        <ele>305.623</ele>
        <time>2015-10-03T11:06:47Z</time>
      </trkpt>
      <trkpt lat="47.44406" lon="6.62976">
        <ele>306.206</ele>
        <time>2015-10-03T11:06:48Z</time>
      </trkpt>
      <trkpt lat="47.44408" lon="6.6298">
        <ele>304.654</ele>
        <time>2015-10-03T11:06:49Z</time>
      </trkpt>
      <trkpt lat="47.44411" lon="6.62981">
        <ele>305.306</ele>
        <time>2015-10-03T11:06:50Z</time>
      </trkpt>
      <trkpt lat="47.44414" lon="6.62983">
        <ele>304.875</ele>
        <time>2015-10-03T11:06:51Z</time>
      </trkpt>
      <trkpt lat="47.44419" lon="6.62986">
        <ele>302.28</ele>
        <time>2015-10-03T11:06:52Z</time>
      </trkpt>
      <trkpt lat="47.44425" lon="6.62991">
        <ele>301.407</ele>
        <time>2015-10-03T11:06:53Z</time>
      </trkpt>
      <trkpt lat="47.44428" lon="6.62992">
        <ele>302.096</ele>
        <time>2015-10-03T11:06:54Z</time>
      </trkpt>
      <trkpt lat="47.44433" lon="6.62996">
        <ele>299.874</ele>
        <time>2015-10-03T11:06:56Z</time>
      </trkpt>
      <trkpt lat="47.44438" lon="6.62999">
        <ele>297.535</ele>
        <time>2015-10-03T11:06:57Z</time>
      </trkpt>
      <trkpt lat="47.44443" lon="6.63001">
        <ele>297.652</ele>
        <time>2015-10-03T11:06:58Z</time>
      </trkpt>
      <trkpt lat="47.44447" lon="6.63005">
        <ele>296.477</ele>
        <time>2015-10-03T11:06:59Z</time>
      </trkpt>
      <trkpt lat="47.44451" lon="6.63009">
        <ele>297.31</ele>
        <time>2015-10-03T11:07:00Z</time>
      </trkpt>
      <trkpt lat="47.44453" lon="6.63012">
        <ele>296.351</ele>
        <time>2015-10-03T11:07:01Z</time>
      </trkpt>
      <trkpt lat="47.44457" lon="6.63015">
        <ele>296.688</ele>
        <time>2015-10-03T11:07:02Z</time>
      </trkpt>
      <trkpt lat="47.4446" lon="6.63016">
        <ele>296.513</ele>
        <time>2015-10-03T11:07:03Z</time>
      </trkpt>
      <trkpt lat="47.44465" lon="6.63018">
        <ele>298.539</ele>
        <time>2015-10-03T11:07:04Z</time>
      </trkpt>
      <trkpt lat="47.44469" lon="6.63021">
        <ele>298.336</ele>
        <time>2015-10-03T11:07:05Z</time>
      </trkpt>
      <trkpt lat="47.44474" lon="6.63023">
        <ele>297.661</ele>
        <time>2015-10-03T11:07:06Z</time>
      </trkpt>
      <trkpt lat="47.44478" lon="6.63025">
        <ele>296.91</ele>
        <time>2015-10-03T11:07:07Z</time>
      </trkpt>
      <trkpt lat="47.44482" lon="6.6303">
        <ele>295.142</ele>
        <time>2015-10-03T11:07:08Z</time>
      </trkpt>
      <trkpt lat="47.44487" lon="6.63031">
        <ele>296.371</ele>
        <time>2015-10-03T11:07:09Z</time>
      </trkpt>
      <trkpt lat="47.44493" lon="6.63034">
        <ele>297.005</ele>
        <time>2015-10-03T11:07:10Z</time>
      </trkpt>
      <trkpt lat="47.44497" lon="6.63038">
        <ele>297.473</ele>
        <time>2015-10-03T11:07:11Z</time>
      </trkpt>
      <trkpt lat="47.44502" lon="6.63039">
        <ele>297.828</ele>
        <time>2015-10-03T11:07:12Z</time>
      </trkpt>
      <trkpt lat="47.44508" lon="6.63043">
        <ele>295.714</ele>
        <time>2015-10-03T11:07:13Z</time>
      </trkpt>
      <trkpt lat="47.44511" lon="6.63045">
        <ele>295.718</ele>
        <time>2015-10-03T11:07:14Z</time>
      </trkpt>
      <trkpt lat="47.44517" lon="6.63046">
        <ele>295.261</ele>
        <time>2015-10-03T11:07:15Z</time>
      </trkpt>
      <trkpt lat="47.44522" lon="6.63048">
        <ele>295.987</ele>
        <time>2015-10-03T11:07:16Z</time>
      </trkpt>
      <trkpt lat="47.44528" lon="6.6305">
        <ele>293.321</ele>
        <time>2015-10-03T11:07:17Z</time>
      </trkpt>
      <trkpt lat="47.44532" lon="6.63052">
        <ele>293.472</ele>
        <time>2015-10-03T11:07:18Z</time>
      </trkpt>
      <trkpt lat="47.44536" lon="6.63053">
        <ele>293.29</ele>
        <time>2015-10-03T11:07:19Z</time>
      </trkpt>
      <trkpt lat="47.44538" lon="6.63055">
        <ele>293.815</ele>
        <time>2015-10-03T11:07:20Z</time>
      </trkpt>
      <trkpt lat="47.44543" lon="6.63058">
        <ele>292.042</ele>
        <time>2015-10-03T11:07:21Z</time>
      </trkpt>
      <trkpt lat="47.44548" lon="6.6306">
        <ele>292.21</ele>
        <time>2015-10-03T11:07:22Z</time>
      </trkpt>
      <trkpt lat="47.44553" lon="6.63059">
        <ele>293.196</ele>
        <time>2015-10-03T11:07:23Z</time>
      </trkpt>
      <trkpt lat="47.44558" lon="6.63059">
        <ele>295.026</ele>
        <time>2015-10-03T11:07:24Z</time>
      </trkpt>
      <trkpt lat="47.44562" lon="6.63061">
        <ele>293.776</ele>
        <time>2015-10-03T11:07:25Z</time>
      </trkpt>
      <trkpt lat="47.44567" lon="6.63063">
        <ele>295.609</ele>
        <time>2015-10-03T11:07:26Z</time>
      </trkpt>
      <trkpt lat="47.4457" lon="6.63065">
        <ele>296.536</ele>
        <time>2015-10-03T11:07:27Z</time>
      </trkpt>
      <trkpt lat="47.44573" lon="6.63067">
        <ele>296.213</ele>
        <time>2015-10-03T11:07:28Z</time>
      </trkpt>
      <trkpt lat="47.44577" lon="6.63069">
        <ele>296.33</ele>
        <time>2015-10-03T11:07:29Z</time>
      </trkpt>
      <trkpt lat="47.4458" lon="6.6307">
        <ele>295.193</ele>
        <time>2015-10-03T11:07:30Z</time>
      </trkpt>
      <trkpt lat="47.44585" lon="6.63072">
        <ele>296.074</ele>
        <time>2015-10-03T11:07:31Z</time>
      </trkpt>
      <trkpt lat="47.4459" lon="6.63076">
        <ele>296.263</ele>
        <time>2015-10-03T11:07:32Z</time>
      </trkpt>
      <trkpt lat="47.44596" lon="6.63079">
        <ele>295.956</ele>
        <time>2015-10-03T11:07:33Z</time>
      </trkpt>
      <trkpt lat="47.44601" lon="6.63083">
        <ele>296.833</ele>
        <time>2015-10-03T11:07:34Z</time>
      </trkpt>
      <trkpt lat="47.44605" lon="6.63087">
        <ele>296.935</ele>
        <time>2015-10-03T11:07:35Z</time>
      </trkpt>
      <trkpt lat="47.4461" lon="6.63091">
        <ele>297.498</ele>
        <time>2015-10-03T11:07:36Z</time>
      </trkpt>
      <trkpt lat="47.44613" lon="6.63095">
        <ele>297.892</ele>
        <time>2015-10-03T11:07:37Z</time>
      </trkpt>
      <trkpt lat="47.44617" lon="6.63099">
        <ele>298.101</ele>
        <time>2015-10-03T11:07:38Z</time>
      </trkpt>
      <trkpt lat="47.4462" lon="6.63103">
        <ele>299.715</ele>
        <time>2015-10-03T11:07:39Z</time>
      </trkpt>
      <trkpt lat="47.44623" lon="6.6311">
        <ele>299.355</ele>
        <time>2015-10-03T11:07:40Z</time>
      </trkpt>
      <trkpt lat="47.44627" lon="6.63116">
        <ele>299.341</ele>
        <time>2015-10-03T11:07:41Z</time>
      </trkpt>
      <trkpt lat="47.4463" lon="6.63123">
        <ele>301.127</ele>
        <time>2015-10-03T11:07:42Z</time>
      </trkpt>
      <trkpt lat="47.44633" lon="6.63128">
        <ele>302.031</ele>
        <time>2015-10-03T11:07:43Z</time>
      </trkpt>
      <trkpt lat="47.44634" lon="6.63134">
        <ele>303.445</ele>
        <time>2015-10-03T11:07:44Z</time>
      </trkpt>
      <trkpt lat="47.44637" lon="6.63138">
        <ele>302.747</ele>
        <time>2015-10-03T11:07:45Z</time>
      </trkpt>
      <trkpt lat="47.44639" lon="6.63143">
        <ele>302.688</ele>
        <time>2015-10-03T11:07:46Z</time>
      </trkpt>
      <trkpt lat="47.44641" lon="6.63149">
        <ele>302.286</ele>
        <time>2015-10-03T11:07:47Z</time>
      </trkpt>
      <trkpt lat="47.44644" lon="6.63155">
        <ele>300.854</ele>
        <time>2015-10-03T11:07:48Z</time>
      </trkpt>
      <trkpt lat="47.44645" lon="6.6316">
        <ele>300.836</ele>
        <time>2015-10-03T11:07:49Z</time>
      </trkpt>
      <trkpt lat="47.44646" lon="6.63165">
        <ele>301.853</ele>
        <time>2015-10-03T11:07:50Z</time>
      </trkpt>
      <trkpt lat="47.44647" lon="6.6317">
        <ele>301.81</ele>
        <time>2015-10-03T11:07:51Z</time>
      </trkpt>
      <trkpt lat="47.44648" lon="6.63177">
        <ele>301.405</ele>
        <time>2015-10-03T11:07:52Z</time>
      </trkpt>
      <trkpt lat="47.44649" lon="6.63183">
        <ele>301.504</ele>
        <time>2015-10-03T11:07:53Z</time>
      </trkpt>
      <trkpt lat="47.44649" lon="6.6319">
        <ele>301.685</ele>
        <time>2015-10-03T11:07:54Z</time>
      </trkpt>
      <trkpt lat="47.44649" lon="6.63195">
        <ele>301.506</ele>
        <time>2015-10-03T11:07:55Z</time>
      </trkpt>
      <trkpt lat="47.4465" lon="6.63201">
        <ele>301.441</ele>
        <time>2015-10-03T11:07:56Z</time>
      </trkpt>
      <trkpt lat="47.4465" lon="6.63207">
        <ele>301.516</ele>
        <time>2015-10-03T11:07:57Z</time>
      </trkpt>
      <trkpt lat="47.44651" lon="6.63213">
        <ele>302.034</ele>
        <time>2015-10-03T11:07:58Z</time>
      </trkpt>
      <trkpt lat="47.44651" lon="6.6322">
        <ele>301.707</ele>
        <time>2015-10-03T11:07:59Z</time>
      </trkpt>
      <trkpt lat="47.44651" lon="6.63226">
        <ele>302.287</ele>
        <time>2015-10-03T11:08:00Z</time>
      </trkpt>
      <trkpt lat="47.44651" lon="6.63233">
        <ele>301.971</ele>
        <time>2015-10-03T11:08:01Z</time>
      </trkpt>
      <trkpt lat="47.44652" lon="6.6324">
        <ele>302.14</ele>
        <time>2015-10-03T11:08:02Z</time>
      </trkpt>
      <trkpt lat="47.44652" lon="6.63245">
        <ele>302.516</ele>
        <time>2015-10-03T11:08:03Z</time>
      </trkpt>
      <trkpt lat="47.44652" lon="6.63252">
        <ele>302.667</ele>
        <time>2015-10-03T11:08:04Z</time>
      </trkpt>
      <trkpt lat="47.44653" lon="6.63259">
        <ele>301.305</ele>
        <time>2015-10-03T11:08:05Z</time>
      </trkpt>
      <trkpt lat="47.44653" lon="6.63265">
        <ele>300.892</ele>
        <time>2015-10-03T11:08:06Z</time>
      </trkpt>
      <trkpt lat="47.44654" lon="6.63271">
        <ele>300.331</ele>
        <time>2015-10-03T11:08:07Z</time>
      </trkpt>
      <trkpt lat="47.44655" lon="6.63278">
        <ele>300.589</ele>
        <time>2015-10-03T11:08:08Z</time>
      </trkpt>
      <trkpt lat="47.44655" lon="6.63284">
        <ele>300.342</ele>
        <time>2015-10-03T11:08:09Z</time>
      </trkpt>
      <trkpt lat="47.44655" lon="6.6329">
        <ele>300.496</ele>
        <time>2015-10-03T11:08:10Z</time>
      </trkpt>
      <trkpt lat="47.44655" lon="6.63297">
        <ele>300.549</ele>
        <time>2015-10-03T11:08:11Z</time>
      </trkpt>
      <trkpt lat="47.44656" lon="6.63303">
        <ele>301.149</ele>
        <time>2015-10-03T11:08:12Z</time>
      </trkpt>
      <trkpt lat="47.44656" lon="6.63309">
        <ele>300.77</ele>
        <time>2015-10-03T11:08:13Z</time>
      </trkpt>
      <trkpt lat="47.44657" lon="6.63316">
        <ele>300.751</ele>
        <time>2015-10-03T11:08:14Z</time>
      </trkpt>
      <trkpt lat="47.44657" lon="6.63322">
        <ele>301.321</ele>
        <time>2015-10-03T11:08:15Z</time>
      </trkpt>
      <trkpt lat="47.44658" lon="6.63328">
        <ele>301.042</ele>
        <time>2015-10-03T11:08:16Z</time>
      </trkpt>
      <trkpt lat="47.44659" lon="6.63336">
        <ele>300.447</ele>
        <time>2015-10-03T11:08:17Z</time>
      </trkpt>
      <trkpt lat="47.44661" lon="6.63343">
        <ele>299.096</ele>
        <time>2015-10-03T11:08:18Z</time>
      </trkpt>
      <trkpt lat="47.44661" lon="6.63349">
        <ele>299.888</ele>
        <time>2015-10-03T11:08:19Z</time>
      </trkpt>
      <trkpt lat="47.44661" lon="6.63355">
        <ele>300.748</ele>
        <time>2015-10-03T11:08:20Z</time>
      </trkpt>
      <trkpt lat="47.44662" lon="6.63361">
        <ele>300.515</ele>
        <time>2015-10-03T11:08:21Z</time>
      </trkpt>
      <trkpt lat="47.44662" lon="6.63367">
        <ele>300.918</ele>
        <time>2015-10-03T11:08:22Z</time>
      </trkpt>
      <trkpt lat="47.44663" lon="6.63374">
        <ele>301.145</ele>
        <time>2015-10-03T11:08:23Z</time>
      </trkpt>
      <trkpt lat="47.44663" lon="6.6338">
        <ele>301.049</ele>
        <time>2015-10-03T11:08:24Z</time>
      </trkpt>
      <trkpt lat="47.44664" lon="6.63387">
        <ele>300.438</ele>
        <time>2015-10-03T11:08:25Z</time>
      </trkpt>
      <trkpt lat="47.44665" lon="6.63395">
        <ele>300.139</ele>
        <time>2015-10-03T11:08:26Z</time>
      </trkpt>
      <trkpt lat="47.44666" lon="6.634">
        <ele>299.258</ele>
        <time>2015-10-03T11:08:27Z</time>
      </trkpt>
      <trkpt lat="47.44667" lon="6.63411">
        <ele>296.966</ele>
        <time>2015-10-03T11:08:28Z</time>
      </trkpt>
      <trkpt lat="47.44668" lon="6.63418">
        <ele>297.241</ele>
        <time>2015-10-03T11:08:29Z</time>
      </trkpt>
      <trkpt lat="47.44668" lon="6.63424">
        <ele>297.776</ele>
        <time>2015-10-03T11:08:30Z</time>
      </trkpt>
      <trkpt lat="47.44669" lon="6.63432">
        <ele>297.614</ele>
        <time>2015-10-03T11:08:31Z</time>
      </trkpt>
      <trkpt lat="47.44671" lon="6.63438">
        <ele>296.213</ele>
        <time>2015-10-03T11:08:32Z</time>
      </trkpt>
      <trkpt lat="47.44671" lon="6.63443">
        <ele>297.206</ele>
        <time>2015-10-03T11:08:33Z</time>
      </trkpt>
      <trkpt lat="47.44671" lon="6.63451">
        <ele>298.515</ele>
        <time>2015-10-03T11:08:34Z</time>
      </trkpt>
      <trkpt lat="47.44672" lon="6.63458">
        <ele>298.838</ele>
        <time>2015-10-03T11:08:35Z</time>
      </trkpt>
      <trkpt lat="47.44672" lon="6.63467">
        <ele>297.566</ele>
        <time>2015-10-03T11:08:36Z</time>
      </trkpt>
      <trkpt lat="47.44673" lon="6.63473">
        <ele>297.513</ele>
        <time>2015-10-03T11:08:37Z</time>
      </trkpt>
      <trkpt lat="47.44674" lon="6.63479">
        <ele>298.427</ele>
        <time>2015-10-03T11:08:38Z</time>
      </trkpt>
      <trkpt lat="47.44674" lon="6.63485">
        <ele>300.489</ele>
        <time>2015-10-03T11:08:39Z</time>
      </trkpt>
      <trkpt lat="47.44674" lon="6.6349">
        <ele>301.152</ele>
        <time>2015-10-03T11:08:40Z</time>
      </trkpt>
      <trkpt lat="47.44675" lon="6.63497">
        <ele>301.167</ele>
        <time>2015-10-03T11:08:41Z</time>
      </trkpt>
      <trkpt lat="47.44674" lon="6.63503">
        <ele>300.879</ele>
        <time>2015-10-03T11:08:42Z</time>
      </trkpt>
      <trkpt lat="47.44674" lon="6.63509">
        <ele>301.271</ele>
        <time>2015-10-03T11:08:43Z</time>
      </trkpt>
      <trkpt lat="47.44675" lon="6.63515">
        <ele>301.95</ele>
        <time>2015-10-03T11:08:44Z</time>
      </trkpt>
      <trkpt lat="47.44676" lon="6.63522">
        <ele>301.469</ele>
        <time>2015-10-03T11:08:45Z</time>
      </trkpt>
      <trkpt lat="47.44676" lon="6.63529">
        <ele>302.639</ele>
        <time>2015-10-03T11:08:46Z</time>
      </trkpt>
      <trkpt lat="47.44677" lon="6.63538">
        <ele>302.406</ele>
        <time>2015-10-03T11:08:47Z</time>
      </trkpt>
      <trkpt lat="47.44678" lon="6.63546">
        <ele>302.568</ele>
        <time>2015-10-03T11:08:48Z</time>
      </trkpt>
      <trkpt lat="47.44679" lon="6.63553">
        <ele>301.809</ele>
        <time>2015-10-03T11:08:49Z</time>
      </trkpt>
      <trkpt lat="47.4468" lon="6.6356">
        <ele>301.945</ele>
        <time>2015-10-03T11:08:50Z</time>
      </trkpt>
      <trkpt lat="47.4468" lon="6.63568">
        <ele>301.701</ele>
        <time>2015-10-03T11:08:51Z</time>
      </trkpt>
      <trkpt lat="47.4468" lon="6.63574">
        <ele>301.011</ele>
        <time>2015-10-03T11:08:52Z</time>
      </trkpt>
      <trkpt lat="47.44681" lon="6.63581">
        <ele>300.714</ele>
        <time>2015-10-03T11:08:53Z</time>
      </trkpt>
      <trkpt lat="47.44681" lon="6.63589">
        <ele>300.653</ele>
        <time>2015-10-03T11:08:54Z</time>
      </trkpt>
      <trkpt lat="47.44682" lon="6.63595">
        <ele>300.394</ele>
        <time>2015-10-03T11:08:55Z</time>
      </trkpt>
      <trkpt lat="47.44682" lon="6.63601">
        <ele>301.136</ele>
        <time>2015-10-03T11:08:56Z</time>
      </trkpt>
      <trkpt lat="47.44682" lon="6.63607">
        <ele>301.104</ele>
        <time>2015-10-03T11:08:57Z</time>
      </trkpt>
      <trkpt lat="47.44682" lon="6.63613">
        <ele>300.204</ele>
        <time>2015-10-03T11:08:58Z</time>
      </trkpt>
      <trkpt lat="47.44682" lon="6.63619">
        <ele>300.933</ele>
        <time>2015-10-03T11:08:59Z</time>
      </trkpt>
      <trkpt lat="47.44682" lon="6.63625">
        <ele>301.229</ele>
        <time>2015-10-03T11:09:00Z</time>
      </trkpt>
      <trkpt lat="47.44684" lon="6.63634">
        <ele>299.876</ele>
        <time>2015-10-03T11:09:01Z</time>
      </trkpt>
      <trkpt lat="47.44684" lon="6.63641">
        <ele>299.423</ele>
        <time>2015-10-03T11:09:02Z</time>
      </trkpt>
      <trkpt lat="47.44685" lon="6.63648">
        <ele>299.644</ele>
        <time>2015-10-03T11:09:03Z</time>
      </trkpt>
      <trkpt lat="47.44685" lon="6.63655">
        <ele>299.115</ele>
        <time>2015-10-03T11:09:04Z</time>
      </trkpt>
      <trkpt lat="47.44685" lon="6.63661">
        <ele>299.017</ele>
        <time>2015-10-03T11:09:05Z</time>
      </trkpt>
      <trkpt lat="47.44685" lon="6.63668">
        <ele>298.727</ele>
        <time>2015-10-03T11:09:06Z</time>
      </trkpt>
      <trkpt lat="47.44685" lon="6.63674">
        <ele>299.361</ele>
        <time>2015-10-03T11:09:07Z</time>
      </trkpt>
      <trkpt lat="47.44687" lon="6.63682">
        <ele>298.762</ele>
        <time>2015-10-03T11:09:08Z</time>
      </trkpt>
      <trkpt lat="47.44687" lon="6.63689">
        <ele>299.429</ele>
        <time>2015-10-03T11:09:09Z</time>
      </trkpt>
      <trkpt lat="47.44688" lon="6.63696">
        <ele>299.11</ele>
        <time>2015-10-03T11:09:10Z</time>
      </trkpt>
      <trkpt lat="47.44689" lon="6.63703">
        <ele>298.779</ele>
        <time>2015-10-03T11:09:11Z</time>
      </trkpt>
      <trkpt lat="47.4469" lon="6.63712">
        <ele>297.935</ele>
        <time>2015-10-03T11:09:12Z</time>
      </trkpt>
      <trkpt lat="47.4469" lon="6.63718">
        <ele>298.084</ele>
        <time>2015-10-03T11:09:13Z</time>
      </trkpt>
      <trkpt lat="47.44691" lon="6.63726">
        <ele>297.518</ele>
        <time>2015-10-03T11:09:14Z</time>
      </trkpt>
      <trkpt lat="47.44692" lon="6.63732">
        <ele>297.294</ele>
        <time>2015-10-03T11:09:15Z</time>
      </trkpt>
      <trkpt lat="47.44692" lon="6.63738">
        <ele>297.006</ele>
        <time>2015-10-03T11:09:16Z</time>
      </trkpt>
      <trkpt lat="47.44693" lon="6.63745">
        <ele>297.082</ele>
        <time>2015-10-03T11:09:17Z</time>
      </trkpt>
      <trkpt lat="47.44694" lon="6.63753">
        <ele>297.076</ele>
        <time>2015-10-03T11:09:18Z</time>
      </trkpt>
      <trkpt lat="47.44694" lon="6.63761">
        <ele>297.644</ele>
        <time>2015-10-03T11:09:19Z</time>
      </trkpt>
      <trkpt lat="47.44694" lon="6.63768">
        <ele>297.438</ele>
        <time>2015-10-03T11:09:20Z</time>
      </trkpt>
      <trkpt lat="47.44695" lon="6.63775">
        <ele>297.287</ele>
        <time>2015-10-03T11:09:21Z</time>
      </trkpt>
      <trkpt lat="47.44695" lon="6.63783">
        <ele>297.998</ele>
        <time>2015-10-03T11:09:22Z</time>
      </trkpt>
      <trkpt lat="47.44696" lon="6.6379">
        <ele>296.922</ele>
        <time>2015-10-03T11:09:23Z</time>
      </trkpt>
      <trkpt lat="47.44697" lon="6.63797">
        <ele>296.677</ele>
        <time>2015-10-03T11:09:24Z</time>
      </trkpt>
      <trkpt lat="47.44698" lon="6.63805">
        <ele>296.695</ele>
        <time>2015-10-03T11:09:25Z</time>
      </trkpt>
      <trkpt lat="47.44699" lon="6.63813">
        <ele>296.427</ele>
        <time>2015-10-03T11:09:26Z</time>
      </trkpt>
      <trkpt lat="47.44699" lon="6.6382">
        <ele>296.282</ele>
        <time>2015-10-03T11:09:27Z</time>
      </trkpt>
      <trkpt lat="47.44699" lon="6.63827">
        <ele>296.343</ele>
        <time>2015-10-03T11:09:28Z</time>
      </trkpt>
      <trkpt lat="47.447" lon="6.63833">
        <ele>297.034</ele>
        <time>2015-10-03T11:09:29Z</time>
      </trkpt>
      <trkpt lat="47.44701" lon="6.6384">
        <ele>297.093</ele>
        <time>2015-10-03T11:09:30Z</time>
      </trkpt>
      <trkpt lat="47.44701" lon="6.63846">
        <ele>297.049</ele>
        <time>2015-10-03T11:09:31Z</time>
      </trkpt>
      <trkpt lat="47.44701" lon="6.63851">
        <ele>297.078</ele>
        <time>2015-10-03T11:09:32Z</time>
      </trkpt>
      <trkpt lat="47.44702" lon="6.63858">
        <ele>297.515</ele>
        <time>2015-10-03T11:09:33Z</time>
      </trkpt>
      <trkpt lat="47.44702" lon="6.63865">
        <ele>296.814</ele>
        <time>2015-10-03T11:09:34Z</time>
      </trkpt>
      <trkpt lat="47.44702" lon="6.63871">
        <ele>296.934</ele>
        <time>2015-10-03T11:09:35Z</time>
      </trkpt>
      <trkpt lat="47.44703" lon="6.63879">
        <ele>296.889</ele>
        <time>2015-10-03T11:09:36Z</time>
      </trkpt>
      <trkpt lat="47.44704" lon="6.63884">
        <ele>297.295</ele>
        <time>2015-10-03T11:09:37Z</time>
      </trkpt>
      <trkpt lat="47.44705" lon="6.63891">
        <ele>297.934</ele>
        <time>2015-10-03T11:09:38Z</time>
      </trkpt>
      <trkpt lat="47.44705" lon="6.63897">
        <ele>297.882</ele>
        <time>2015-10-03T11:09:39Z</time>
      </trkpt>
      <trkpt lat="47.44706" lon="6.63904">
        <ele>297.543</ele>
        <time>2015-10-03T11:09:40Z</time>
      </trkpt>
      <trkpt lat="47.44707" lon="6.63911">
        <ele>298.028</ele>
        <time>2015-10-03T11:09:41Z</time>
      </trkpt>
      <trkpt lat="47.44708" lon="6.6392">
        <ele>298.764</ele>
        <time>2015-10-03T11:09:42Z</time>
      </trkpt>
      <trkpt lat="47.44708" lon="6.63926">
        <ele>299.292</ele>
        <time>2015-10-03T11:09:43Z</time>
      </trkpt>
      <trkpt lat="47.44709" lon="6.63932">
        <ele>299.202</ele>
        <time>2015-10-03T11:09:44Z</time>
      </trkpt>
      <trkpt lat="47.4471" lon="6.63938">
        <ele>299.012</ele>
        <time>2015-10-03T11:09:45Z</time>
      </trkpt>
      <trkpt lat="47.44709" lon="6.63944">
        <ele>298.721</ele>
        <time>2015-10-03T11:09:46Z</time>
      </trkpt>
      <trkpt lat="47.4471" lon="6.6395">
        <ele>298.382</ele>
        <time>2015-10-03T11:09:47Z</time>
      </trkpt>
      <trkpt lat="47.44712" lon="6.63956">
        <ele>297.725</ele>
        <time>2015-10-03T11:09:48Z</time>
      </trkpt>
      <trkpt lat="47.44712" lon="6.63962">
        <ele>299.027</ele>
        <time>2015-10-03T11:09:49Z</time>
      </trkpt>
      <trkpt lat="47.44711" lon="6.63968">
        <ele>299.585</ele>
        <time>2015-10-03T11:09:50Z</time>
      </trkpt>
      <trkpt lat="47.44712" lon="6.63974">
        <ele>299.258</ele>
        <time>2015-10-03T11:09:51Z</time>
      </trkpt>
      <trkpt lat="47.44712" lon="6.63982">
        <ele>299.353</ele>
        <time>2015-10-03T11:09:52Z</time>
      </trkpt>
      <trkpt lat="47.44712" lon="6.63988">
        <ele>299.794</ele>
        <time>2015-10-03T11:09:53Z</time>
      </trkpt>
      <trkpt lat="47.44712" lon="6.63994">
        <ele>299.761</ele>
        <time>2015-10-03T11:09:54Z</time>
      </trkpt>
      <trkpt lat="47.44713" lon="6.64001">
        <ele>299.695</ele>
        <time>2015-10-03T11:09:55Z</time>
      </trkpt>
      <trkpt lat="47.44713" lon="6.64007">
        <ele>300.481</ele>
        <time>2015-10-03T11:09:56Z</time>
      </trkpt>
      <trkpt lat="47.44713" lon="6.64013">
        <ele>300.017</ele>
        <time>2015-10-03T11:09:57Z</time>
      </trkpt>
      <trkpt lat="47.44713" lon="6.64018">
        <ele>300.649</ele>
        <time>2015-10-03T11:09:58Z</time>
      </trkpt>
      <trkpt lat="47.44714" lon="6.64026">
        <ele>300.092</ele>
        <time>2015-10-03T11:09:59Z</time>
      </trkpt>
      <trkpt lat="47.44715" lon="6.64033">
        <ele>299.613</ele>
        <time>2015-10-03T11:10:00Z</time>
      </trkpt>
      <trkpt lat="47.44715" lon="6.64039">
        <ele>299.968</ele>
        <time>2015-10-03T11:10:01Z</time>
      </trkpt>
      <trkpt lat="47.44715" lon="6.64044">
        <ele>299.544</ele>
        <time>2015-10-03T11:10:02Z</time>
      </trkpt>
      <trkpt lat="47.44717" lon="6.64051">
        <ele>299.743</ele>
        <time>2015-10-03T11:10:03Z</time>
      </trkpt>
      <trkpt lat="47.44717" lon="6.64059">
        <ele>299.931</ele>
        <time>2015-10-03T11:10:04Z</time>
      </trkpt>
      <trkpt lat="47.44718" lon="6.64065">
        <ele>299.921</ele>
        <time>2015-10-03T11:10:05Z</time>
      </trkpt>
      <trkpt lat="47.44719" lon="6.64074">
        <ele>300.104</ele>
        <time>2015-10-03T11:10:06Z</time>
      </trkpt>
      <trkpt lat="47.44719" lon="6.64081">
        <ele>300.28</ele>
        <time>2015-10-03T11:10:07Z</time>
      </trkpt>
      <trkpt lat="47.44719" lon="6.64088">
        <ele>300.745</ele>
        <time>2015-10-03T11:10:08Z</time>
      </trkpt>
      <trkpt lat="47.44719" lon="6.64095">
        <ele>301.278</ele>
        <time>2015-10-03T11:10:09Z</time>
      </trkpt>
      <trkpt lat="47.44719" lon="6.64102">
        <ele>301.219</ele>
        <time>2015-10-03T11:10:10Z</time>
      </trkpt>
      <trkpt lat="47.44722" lon="6.64111">
        <ele>298.753</ele>
        <time>2015-10-03T11:10:11Z</time>
      </trkpt>
      <trkpt lat="47.44723" lon="6.64119">
        <ele>298.158</ele>
        <time>2015-10-03T11:10:12Z</time>
      </trkpt>
      <trkpt lat="47.44723" lon="6.64125">
        <ele>298.762</ele>
        <time>2015-10-03T11:10:13Z</time>
      </trkpt>
      <trkpt lat="47.44723" lon="6.64133">
        <ele>299.221</ele>
        <time>2015-10-03T11:10:14Z</time>
      </trkpt>
      <trkpt lat="47.44725" lon="6.64139">
        <ele>298.603</ele>
        <time>2015-10-03T11:10:15Z</time>
      </trkpt>
      <trkpt lat="47.44726" lon="6.64148">
        <ele>298.477</ele>
        <time>2015-10-03T11:10:16Z</time>
      </trkpt>
      <trkpt lat="47.44726" lon="6.64154">
        <ele>298.308</ele>
        <time>2015-10-03T11:10:17Z</time>
      </trkpt>
      <trkpt lat="47.44728" lon="6.64163">
        <ele>298.459</ele>
        <time>2015-10-03T11:10:18Z</time>
      </trkpt>
      <trkpt lat="47.44728" lon="6.64169">
        <ele>298.632</ele>
        <time>2015-10-03T11:10:19Z</time>
      </trkpt>
      <trkpt lat="47.44728" lon="6.64175">
        <ele>298.792</ele>
        <time>2015-10-03T11:10:20Z</time>
      </trkpt>
      <trkpt lat="47.44729" lon="6.64182">
        <ele>298.809</ele>
        <time>2015-10-03T11:10:21Z</time>
      </trkpt>
      <trkpt lat="47.44729" lon="6.64188">
        <ele>298.833</ele>
        <time>2015-10-03T11:10:22Z</time>
      </trkpt>
      <trkpt lat="47.44731" lon="6.64197">
        <ele>297.292</ele>
        <time>2015-10-03T11:10:23Z</time>
      </trkpt>
      <trkpt lat="47.44731" lon="6.64204">
        <ele>296.83</ele>
        <time>2015-10-03T11:10:24Z</time>
      </trkpt>
      <trkpt lat="47.44731" lon="6.64211">
        <ele>297.448</ele>
        <time>2015-10-03T11:10:25Z</time>
      </trkpt>
      <trkpt lat="47.44732" lon="6.64217">
        <ele>297.939</ele>
        <time>2015-10-03T11:10:26Z</time>
      </trkpt>
      <trkpt lat="47.44732" lon="6.64223">
        <ele>297.82</ele>
        <time>2015-10-03T11:10:27Z</time>
      </trkpt>
      <trkpt lat="47.44732" lon="6.6423">
        <ele>297.092</ele>
        <time>2015-10-03T11:10:28Z</time>
      </trkpt>
      <trkpt lat="47.44733" lon="6.64238">
        <ele>297.702</ele>
        <time>2015-10-03T11:10:29Z</time>
      </trkpt>
      <trkpt lat="47.44733" lon="6.64244">
        <ele>297.567</ele>
        <time>2015-10-03T11:10:30Z</time>
      </trkpt>
      <trkpt lat="47.44733" lon="6.6425">
        <ele>298.216</ele>
        <time>2015-10-03T11:10:31Z</time>
      </trkpt>
      <trkpt lat="47.44733" lon="6.64256">
        <ele>298.673</ele>
        <time>2015-10-03T11:10:32Z</time>
      </trkpt>
      <trkpt lat="47.44734" lon="6.64263">
        <ele>297.377</ele>
        <time>2015-10-03T11:10:33Z</time>
      </trkpt>
      <trkpt lat="47.44733" lon="6.64269">
        <ele>298.196</ele>
        <time>2015-10-03T11:10:34Z</time>
      </trkpt>
      <trkpt lat="47.44734" lon="6.64275">
        <ele>299.107</ele>
        <time>2015-10-03T11:10:35Z</time>
      </trkpt>
      <trkpt lat="47.44734" lon="6.64282">
        <ele>299.693</ele>
        <time>2015-10-03T11:10:36Z</time>
      </trkpt>
      <trkpt lat="47.44735" lon="6.64289">
        <ele>299.057</ele>
        <time>2015-10-03T11:10:37Z</time>
      </trkpt>
      <trkpt lat="47.44735" lon="6.64297">
        <ele>299.752</ele>
        <time>2015-10-03T11:10:38Z</time>
      </trkpt>
      <trkpt lat="47.44737" lon="6.64304">
        <ele>299.194</ele>
        <time>2015-10-03T11:10:39Z</time>
      </trkpt>
      <trkpt lat="47.44736" lon="6.64311">
        <ele>299.32</ele>
        <time>2015-10-03T11:10:40Z</time>
      </trkpt>
      <trkpt lat="47.44737" lon="6.64318">
        <ele>299.45</ele>
        <time>2015-10-03T11:10:41Z</time>
      </trkpt>
      <trkpt lat="47.44737" lon="6.64324">
        <ele>298.857</ele>
        <time>2015-10-03T11:10:42Z</time>
      </trkpt>
      <trkpt lat="47.44738" lon="6.6433">
        <ele>298.964</ele>
        <time>2015-10-03T11:10:43Z</time>
      </trkpt>
      <trkpt lat="47.44738" lon="6.64337">
        <ele>298.52</ele>
        <time>2015-10-03T11:10:44Z</time>
      </trkpt>
      <trkpt lat="47.44739" lon="6.64345">
        <ele>298.223</ele>
        <time>2015-10-03T11:10:45Z</time>
      </trkpt>
      <trkpt lat="47.44739" lon="6.64354">
        <ele>298.113</ele>
        <time>2015-10-03T11:10:46Z</time>
      </trkpt>
      <trkpt lat="47.44739" lon="6.64361">
        <ele>297.63</ele>
        <time>2015-10-03T11:10:47Z</time>
      </trkpt>
      <trkpt lat="47.4474" lon="6.64368">
        <ele>297.38</ele>
        <time>2015-10-03T11:10:48Z</time>
      </trkpt>
      <trkpt lat="47.44741" lon="6.64374">
        <ele>297.64</ele>
        <time>2015-10-03T11:10:49Z</time>
      </trkpt>
      <trkpt lat="47.44741" lon="6.64381">
        <ele>298.274</ele>
        <time>2015-10-03T11:10:50Z</time>
      </trkpt>
      <trkpt lat="47.44741" lon="6.6439">
        <ele>298.258</ele>
        <time>2015-10-03T11:10:51Z</time>
      </trkpt>
      <trkpt lat="47.44741" lon="6.64395">
        <ele>298.583</ele>
        <time>2015-10-03T11:10:52Z</time>
      </trkpt>
      <trkpt lat="47.44742" lon="6.64402">
        <ele>298.396</ele>
        <time>2015-10-03T11:10:53Z</time>
      </trkpt>
      <trkpt lat="47.44741" lon="6.6441">
        <ele>300.55</ele>
        <time>2015-10-03T11:10:54Z</time>
      </trkpt>
      <trkpt lat="47.44741" lon="6.64416">
        <ele>301.843</ele>
        <time>2015-10-03T11:10:55Z</time>
      </trkpt>
      <trkpt lat="47.44742" lon="6.64423">
        <ele>302.251</ele>
        <time>2015-10-03T11:10:56Z</time>
      </trkpt>
      <trkpt lat="47.44742" lon="6.64431">
        <ele>303.22</ele>
        <time>2015-10-03T11:10:57Z</time>
      </trkpt>
      <trkpt lat="47.44743" lon="6.64437">
        <ele>304.215</ele>
        <time>2015-10-03T11:10:58Z</time>
      </trkpt>
      <trkpt lat="47.44745" lon="6.64445">
        <ele>302.563</ele>
        <time>2015-10-03T11:10:59Z</time>
      </trkpt>
      <trkpt lat="47.44746" lon="6.64453">
        <ele>302.627</ele>
        <time>2015-10-03T11:11:00Z</time>
      </trkpt>
      <trkpt lat="47.44747" lon="6.64458">
        <ele>302.521</ele>
        <time>2015-10-03T11:11:01Z</time>
      </trkpt>
      <trkpt lat="47.44747" lon="6.64464">
        <ele>302.496</ele>
        <time>2015-10-03T11:11:02Z</time>
      </trkpt>
      <trkpt lat="47.44747" lon="6.64471">
        <ele>302.102</ele>
        <time>2015-10-03T11:11:03Z</time>
      </trkpt>
      <trkpt lat="47.44748" lon="6.64479">
        <ele>302.769</ele>
        <time>2015-10-03T11:11:04Z</time>
      </trkpt>
      <trkpt lat="47.44749" lon="6.64486">
        <ele>302.765</ele>
        <time>2015-10-03T11:11:05Z</time>
      </trkpt>
      <trkpt lat="47.4475" lon="6.64493">
        <ele>302.713</ele>
        <time>2015-10-03T11:11:06Z</time>
      </trkpt>
      <trkpt lat="47.44751" lon="6.64499">
        <ele>303.006</ele>
        <time>2015-10-03T11:11:07Z</time>
      </trkpt>
      <trkpt lat="47.44751" lon="6.64505">
        <ele>302.797</ele>
        <time>2015-10-03T11:11:08Z</time>
      </trkpt>
      <trkpt lat="47.44751" lon="6.64512">
        <ele>302.619</ele>
        <time>2015-10-03T11:11:09Z</time>
      </trkpt>
      <trkpt lat="47.44752" lon="6.6452">
        <ele>301.778</ele>
        <time>2015-10-03T11:11:10Z</time>
      </trkpt>
      <trkpt lat="47.44753" lon="6.64525">
        <ele>301.611</ele>
        <time>2015-10-03T11:11:11Z</time>
      </trkpt>
      <trkpt lat="47.44753" lon="6.64531">
        <ele>301.55</ele>
        <time>2015-10-03T11:11:12Z</time>
      </trkpt>
      <trkpt lat="47.44754" lon="6.64538">
        <ele>301.423</ele>
        <time>2015-10-03T11:11:13Z</time>
      </trkpt>
      <trkpt lat="47.44754" lon="6.64544">
        <ele>301.272</ele>
        <time>2015-10-03T11:11:14Z</time>
      </trkpt>
      <trkpt lat="47.44754" lon="6.64552">
        <ele>302.489</ele>
        <time>2015-10-03T11:11:15Z</time>
      </trkpt>
      <trkpt lat="47.44755" lon="6.64558">
        <ele>302.274</ele>
        <time>2015-10-03T11:11:16Z</time>
      </trkpt>
      <trkpt lat="47.44755" lon="6.64565">
        <ele>302.194</ele>
        <time>2015-10-03T11:11:17Z</time>
      </trkpt>
      <trkpt lat="47.44757" lon="6.64573">
        <ele>300.92</ele>
        <time>2015-10-03T11:11:18Z</time>
      </trkpt>
      <trkpt lat="47.44758" lon="6.6458">
        <ele>300.705</ele>
        <time>2015-10-03T11:11:19Z</time>
      </trkpt>
      <trkpt lat="47.44758" lon="6.64586">
        <ele>300.255</ele>
        <time>2015-10-03T11:11:20Z</time>
      </trkpt>
      <trkpt lat="47.44759" lon="6.64593">
        <ele>300.13</ele>
        <time>2015-10-03T11:11:21Z</time>
      </trkpt>
      <trkpt lat="47.44759" lon="6.64599">
        <ele>300.388</ele>
        <time>2015-10-03T11:11:22Z</time>
      </trkpt>
      <trkpt lat="47.4476" lon="6.64606">
        <ele>300.084</ele>
        <time>2015-10-03T11:11:23Z</time>
      </trkpt>
      <trkpt lat="47.4476" lon="6.64612">
        <ele>300.136</ele>
        <time>2015-10-03T11:11:24Z</time>
      </trkpt>
      <trkpt lat="47.44761" lon="6.64619">
        <ele>299.427</ele>
        <time>2015-10-03T11:11:25Z</time>
      </trkpt>
      <trkpt lat="47.44761" lon="6.64627">
        <ele>299.862</ele>
        <time>2015-10-03T11:11:26Z</time>
      </trkpt>
      <trkpt lat="47.44762" lon="6.64632">
        <ele>300.36</ele>
        <time>2015-10-03T11:11:27Z</time>
      </trkpt>
      <trkpt lat="47.44762" lon="6.64638">
        <ele>299.329</ele>
        <time>2015-10-03T11:11:28Z</time>
      </trkpt>
      <trkpt lat="47.44763" lon="6.64645">
        <ele>298.234</ele>
        <time>2015-10-03T11:11:29Z</time>
      </trkpt>
      <trkpt lat="47.44764" lon="6.64651">
        <ele>297.968</ele>
        <time>2015-10-03T11:11:30Z</time>
      </trkpt>
      <trkpt lat="47.44764" lon="6.64658">
        <ele>297.86</ele>
        <time>2015-10-03T11:11:31Z</time>
      </trkpt>
      <trkpt lat="47.44764" lon="6.64665">
        <ele>297.668</ele>
        <time>2015-10-03T11:11:32Z</time>
      </trkpt>
      <trkpt lat="47.44766" lon="6.64673">
        <ele>295.924</ele>
        <time>2015-10-03T11:11:33Z</time>
      </trkpt>
      <trkpt lat="47.44767" lon="6.64679">
        <ele>296.69</ele>
        <time>2015-10-03T11:11:34Z</time>
      </trkpt>
      <trkpt lat="47.44767" lon="6.64685">
        <ele>296.674</ele>
        <time>2015-10-03T11:11:35Z</time>
      </trkpt>
      <trkpt lat="47.44769" lon="6.64691">
        <ele>296.774</ele>
        <time>2015-10-03T11:11:36Z</time>
      </trkpt>
      <trkpt lat="47.44769" lon="6.64698">
        <ele>297.084</ele>
        <time>2015-10-03T11:11:37Z</time>
      </trkpt>
      <trkpt lat="47.4477" lon="6.64705">
        <ele>297.256</ele>
        <time>2015-10-03T11:11:38Z</time>
      </trkpt>
      <trkpt lat="47.44771" lon="6.64713">
        <ele>297.557</ele>
        <time>2015-10-03T11:11:39Z</time>
      </trkpt>
      <trkpt lat="47.44771" lon="6.64719">
        <ele>297.244</ele>
        <time>2015-10-03T11:11:40Z</time>
      </trkpt>
      <trkpt lat="47.44772" lon="6.64726">
        <ele>297.105</ele>
        <time>2015-10-03T11:11:41Z</time>
      </trkpt>
      <trkpt lat="47.44772" lon="6.64732">
        <ele>296.889</ele>
        <time>2015-10-03T11:11:42Z</time>
      </trkpt>
      <trkpt lat="47.44773" lon="6.6474">
        <ele>297.699</ele>
        <time>2015-10-03T11:11:43Z</time>
      </trkpt>
      <trkpt lat="47.44773" lon="6.64747">
        <ele>297.571</ele>
        <time>2015-10-03T11:11:44Z</time>
      </trkpt>
      <trkpt lat="47.44774" lon="6.64754">
        <ele>298.305</ele>
        <time>2015-10-03T11:11:45Z</time>
      </trkpt>
      <trkpt lat="47.44775" lon="6.64761">
        <ele>298.475</ele>
        <time>2015-10-03T11:11:46Z</time>
      </trkpt>
      <trkpt lat="47.44775" lon="6.64767">
        <ele>299.339</ele>
        <time>2015-10-03T11:11:47Z</time>
      </trkpt>
      <trkpt lat="47.44775" lon="6.64772">
        <ele>299.334</ele>
        <time>2015-10-03T11:11:48Z</time>
      </trkpt>
      <trkpt lat="47.44775" lon="6.64778">
        <ele>299.821</ele>
        <time>2015-10-03T11:11:49Z</time>
      </trkpt>
      <trkpt lat="47.44776" lon="6.64785">
        <ele>300.688</ele>
        <time>2015-10-03T11:11:50Z</time>
      </trkpt>
      <trkpt lat="47.44776" lon="6.64791">
        <ele>301.308</ele>
        <time>2015-10-03T11:11:51Z</time>
      </trkpt>
      <trkpt lat="47.44776" lon="6.64798">
        <ele>300.833</ele>
        <time>2015-10-03T11:11:52Z</time>
      </trkpt>
      <trkpt lat="47.44776" lon="6.64806">
        <ele>300.999</ele>
        <time>2015-10-03T11:11:53Z</time>
      </trkpt>
      <trkpt lat="47.44776" lon="6.64812">
        <ele>301.165</ele>
        <time>2015-10-03T11:11:54Z</time>
      </trkpt>
      <trkpt lat="47.44777" lon="6.64821">
        <ele>300.741</ele>
        <time>2015-10-03T11:11:55Z</time>
      </trkpt>
      <trkpt lat="47.44777" lon="6.64829">
        <ele>300.483</ele>
        <time>2015-10-03T11:11:56Z</time>
      </trkpt>
      <trkpt lat="47.44777" lon="6.64836">
        <ele>300.341</ele>
        <time>2015-10-03T11:11:57Z</time>
      </trkpt>
      <trkpt lat="47.44777" lon="6.64844">
        <ele>300.061</ele>
        <time>2015-10-03T11:11:58Z</time>
      </trkpt>
      <trkpt lat="47.44778" lon="6.64853">
        <ele>300.126</ele>
        <time>2015-10-03T11:11:59Z</time>
      </trkpt>
      <trkpt lat="47.44779" lon="6.6486">
        <ele>299.936</ele>
        <time>2015-10-03T11:12:00Z</time>
      </trkpt>
      <trkpt lat="47.4478" lon="6.64868">
        <ele>299.53</ele>
        <time>2015-10-03T11:12:01Z</time>
      </trkpt>
      <trkpt lat="47.4478" lon="6.64875">
        <ele>299.653</ele>
        <time>2015-10-03T11:12:02Z</time>
      </trkpt>
      <trkpt lat="47.44782" lon="6.64882">
        <ele>298.916</ele>
        <time>2015-10-03T11:12:03Z</time>
      </trkpt>
      <trkpt lat="47.44782" lon="6.64889">
        <ele>298.838</ele>
        <time>2015-10-03T11:12:04Z</time>
      </trkpt>
      <trkpt lat="47.44782" lon="6.64896">
        <ele>299.449</ele>
        <time>2015-10-03T11:12:05Z</time>
      </trkpt>
      <trkpt lat="47.44782" lon="6.64903">
        <ele>299.864</ele>
        <time>2015-10-03T11:12:06Z</time>
      </trkpt>
      <trkpt lat="47.44783" lon="6.64909">
        <ele>300.273</ele>
        <time>2015-10-03T11:12:07Z</time>
      </trkpt>
      <trkpt lat="47.44783" lon="6.64914">
        <ele>301.202</ele>
        <time>2015-10-03T11:12:08Z</time>
      </trkpt>
      <trkpt lat="47.44784" lon="6.6492">
        <ele>301.954</ele>
        <time>2015-10-03T11:12:09Z</time>
      </trkpt>
      <trkpt lat="47.44784" lon="6.64926">
        <ele>302.446</ele>
        <time>2015-10-03T11:12:10Z</time>
      </trkpt>
      <trkpt lat="47.44784" lon="6.64931">
        <ele>303.083</ele>
        <time>2015-10-03T11:12:11Z</time>
      </trkpt>
      <trkpt lat="47.44785" lon="6.64938">
        <ele>302.264</ele>
        <time>2015-10-03T11:12:12Z</time>
      </trkpt>
      <trkpt lat="47.44784" lon="6.64943">
        <ele>302.935</ele>
        <time>2015-10-03T11:12:13Z</time>
      </trkpt>
      <trkpt lat="47.44784" lon="6.6495">
        <ele>303.111</ele>
        <time>2015-10-03T11:12:14Z</time>
      </trkpt>
      <trkpt lat="47.44784" lon="6.64953">
        <ele>303.29</ele>
        <time>2015-10-03T11:12:15Z</time>
      </trkpt>
      <trkpt lat="47.44785" lon="6.64954">
        <ele>303.775</ele>
        <time>2015-10-03T11:12:16Z</time>
      </trkpt>
      <trkpt lat="47.44784" lon="6.64954">
        <ele>303.01</ele>
        <time>2015-10-03T11:12:17Z</time>
      </trkpt>
      <trkpt lat="47.44782" lon="6.64954">
        <ele>301.841</ele>
        <time>2015-10-03T11:12:21Z</time>
      </trkpt>
      <trkpt lat="47.44782" lon="6.64956">
        <ele>304.423</ele>
        <time>2015-10-03T11:12:23Z</time>
      </trkpt>
      <trkpt lat="47.44782" lon="6.64957">
        <ele>303.761</ele>
        <time>2015-10-03T11:12:26Z</time>
      </trkpt>
      <trkpt lat="47.44783" lon="6.64959">
        <ele>304.073</ele>
        <time>2015-10-03T11:12:33Z</time>
      </trkpt>
      <trkpt lat="47.44784" lon="6.6496">
        <ele>305.559</ele>
        <time>2015-10-03T11:12:39Z</time>
      </trkpt>
      <trkpt lat="47.44786" lon="6.64966">
        <ele>302.808</ele>
        <time>2015-10-03T11:12:47Z</time>
      </trkpt>
      <trkpt lat="47.44786" lon="6.64964">
        <ele>302.166</ele>
        <time>2015-10-03T11:12:59Z</time>
      </trkpt>
      <trkpt lat="47.44784" lon="6.64966">
        <ele>306.893</ele>
        <time>2015-10-03T11:13:09Z</time>
      </trkpt>
      <trkpt lat="47.44784" lon="6.64968">
        <ele>307.027</ele>
        <time>2015-10-03T11:13:18Z</time>
      </trkpt>
      <trkpt lat="47.44785" lon="6.64969">
        <ele>304.565</ele>
        <time>2015-10-03T11:13:42Z</time>
      </trkpt>
      <trkpt lat="47.44787" lon="6.6497">
        <ele>302.46</ele>
        <time>2015-10-03T11:13:49Z</time>
      </trkpt>
      <trkpt lat="47.44787" lon="6.64972">
        <ele>301.026</ele>
        <time>2015-10-03T11:13:53Z</time>
      </trkpt>
      <trkpt lat="47.44788" lon="6.64969">
        <ele>302.004</ele>
        <time>2015-10-03T11:14:09Z</time>
      </trkpt>
      <trkpt lat="47.44789" lon="6.64969">
        <ele>301.444</ele>
        <time>2015-10-03T11:14:14Z</time>
      </trkpt>
      <trkpt lat="47.4479" lon="6.64971">
        <ele>297.526</ele>
        <time>2015-10-03T11:14:36Z</time>
      </trkpt>
      <trkpt lat="47.44786" lon="6.64973">
        <ele>298.647</ele>
        <time>2015-10-03T11:14:54Z</time>
      </trkpt>
      <trkpt lat="47.44786" lon="6.64971">
        <ele>300.819</ele>
        <time>2015-10-03T11:15:05Z</time>
      </trkpt>
      <trkpt lat="47.44786" lon="6.64965">
        <ele>299.042</ele>
        <time>2015-10-03T11:15:15Z</time>
      </trkpt>
      <trkpt lat="47.44785" lon="6.64965">
        <ele>302.429</ele>
        <time>2015-10-03T11:15:24Z</time>
      </trkpt>
      <trkpt lat="47.44785" lon="6.64967">
        <ele>301.862</ele>
        <time>2015-10-03T11:15:38Z</time>
      </trkpt>
      <trkpt lat="47.44783" lon="6.6497">
        <ele>303.686</ele>
        <time>2015-10-03T11:15:52Z</time>
      </trkpt>
      <trkpt lat="47.44783" lon="6.64971">
        <ele>304.748</ele>
        <time>2015-10-03T11:15:54Z</time>
      </trkpt>
      <trkpt lat="47.44784" lon="6.64972">
        <ele>304.09</ele>
        <time>2015-10-03T11:15:56Z</time>
      </trkpt>
      <trkpt lat="47.44785" lon="6.64975">
        <ele>302.385</ele>
        <time>2015-10-03T11:15:58Z</time>
      </trkpt>
      <trkpt lat="47.44785" lon="6.64977">
        <ele>303.735</ele>
        <time>2015-10-03T11:15:59Z</time>
      </trkpt>
      <trkpt lat="47.44785" lon="6.64978">
        <ele>303.99</ele>
        <time>2015-10-03T11:16:00Z</time>
      </trkpt>
      <trkpt lat="47.44785" lon="6.6498">
        <ele>304.707</ele>
        <time>2015-10-03T11:16:01Z</time>
      </trkpt>
      <trkpt lat="47.44784" lon="6.64982">
        <ele>304.876</ele>
        <time>2015-10-03T11:16:02Z</time>
      </trkpt>
      <trkpt lat="47.44784" lon="6.64986">
        <ele>304.725</ele>
        <time>2015-10-03T11:16:03Z</time>
      </trkpt>
      <trkpt lat="47.44784" lon="6.64989">
        <ele>305.016</ele>
        <time>2015-10-03T11:16:04Z</time>
      </trkpt>
      <trkpt lat="47.44784" lon="6.64993">
        <ele>304.572</ele>
        <time>2015-10-03T11:16:05Z</time>
      </trkpt>
      <trkpt lat="47.44785" lon="6.64997">
        <ele>303.992</ele>
        <time>2015-10-03T11:16:06Z</time>
      </trkpt>
      <trkpt lat="47.44785" lon="6.65001">
        <ele>304.343</ele>
        <time>2015-10-03T11:16:07Z</time>
      </trkpt>
      <trkpt lat="47.44786" lon="6.65005">
        <ele>303.938</ele>
        <time>2015-10-03T11:16:08Z</time>
      </trkpt>
      <trkpt lat="47.44786" lon="6.65008">
        <ele>302.401</ele>
        <time>2015-10-03T11:16:09Z</time>
      </trkpt>
      <trkpt lat="47.44786" lon="6.65012">
        <ele>302.136</ele>
        <time>2015-10-03T11:16:10Z</time>
      </trkpt>
      <trkpt lat="47.44786" lon="6.65017">
        <ele>302.63</ele>
        <time>2015-10-03T11:16:11Z</time>
      </trkpt>
      <trkpt lat="47.44787" lon="6.6502">
        <ele>302.816</ele>
        <time>2015-10-03T11:16:12Z</time>
      </trkpt>
      <trkpt lat="47.44787" lon="6.65024">
        <ele>303.166</ele>
        <time>2015-10-03T11:16:13Z</time>
      </trkpt>
      <trkpt lat="47.44788" lon="6.65028">
        <ele>304.309</ele>
        <time>2015-10-03T11:16:14Z</time>
      </trkpt>
      <trkpt lat="47.44788" lon="6.65031">
        <ele>304.483</ele>
        <time>2015-10-03T11:16:15Z</time>
      </trkpt>
      <trkpt lat="47.44789" lon="6.65035">
        <ele>304.658</ele>
        <time>2015-10-03T11:16:16Z</time>
      </trkpt>
      <trkpt lat="47.44789" lon="6.65037">
        <ele>305.986</ele>
        <time>2015-10-03T11:16:17Z</time>
      </trkpt>
      <trkpt lat="47.44789" lon="6.6504">
        <ele>306.658</ele>
        <time>2015-10-03T11:16:18Z</time>
      </trkpt>
      <trkpt lat="47.44789" lon="6.65043">
        <ele>307.787</ele>
        <time>2015-10-03T11:16:19Z</time>
      </trkpt>
      <trkpt lat="47.4479" lon="6.65046">
        <ele>307.625</ele>
        <time>2015-10-03T11:16:20Z</time>
      </trkpt>
      <trkpt lat="47.4479" lon="6.6505">
        <ele>307.467</ele>
        <time>2015-10-03T11:16:21Z</time>
      </trkpt>
      <trkpt lat="47.4479" lon="6.65054">
        <ele>308.014</ele>
        <time>2015-10-03T11:16:22Z</time>
      </trkpt>
      <trkpt lat="47.44791" lon="6.65058">
        <ele>308.104</ele>
        <time>2015-10-03T11:16:23Z</time>
      </trkpt>
      <trkpt lat="47.44791" lon="6.65061">
        <ele>308.164</ele>
        <time>2015-10-03T11:16:24Z</time>
      </trkpt>
      <trkpt lat="47.44792" lon="6.65065">
        <ele>308.544</ele>
        <time>2015-10-03T11:16:25Z</time>
      </trkpt>
      <trkpt lat="47.44792" lon="6.65068">
        <ele>308.829</ele>
        <time>2015-10-03T11:16:26Z</time>
      </trkpt>
      <trkpt lat="47.44793" lon="6.65072">
        <ele>309.176</ele>
        <time>2015-10-03T11:16:27Z</time>
      </trkpt>
      <trkpt lat="47.44793" lon="6.65075">
        <ele>307.264</ele>
        <time>2015-10-03T11:16:28Z</time>
      </trkpt>
      <trkpt lat="47.44794" lon="6.65077">
        <ele>309.103</ele>
        <time>2015-10-03T11:16:29Z</time>
      </trkpt>
      <trkpt lat="47.44794" lon="6.65079">
        <ele>310.635</ele>
        <time>2015-10-03T11:16:30Z</time>
      </trkpt>
      <trkpt lat="47.44793" lon="6.6508">
        <ele>310.287</ele>
        <time>2015-10-03T11:16:31Z</time>
      </trkpt>
      <trkpt lat="47.44793" lon="6.65083">
        <ele>310.572</ele>
        <time>2015-10-03T11:16:32Z</time>
      </trkpt>
      <trkpt lat="47.44794" lon="6.65086">
        <ele>305.963</ele>
        <time>2015-10-03T11:16:33Z</time>
      </trkpt>
      <trkpt lat="47.44794" lon="6.6509">
        <ele>305.911</ele>
        <time>2015-10-03T11:16:34Z</time>
      </trkpt>
      <trkpt lat="47.44795" lon="6.65094">
        <ele>305.899</ele>
        <time>2015-10-03T11:16:35Z</time>
      </trkpt>
      <trkpt lat="47.44796" lon="6.65098">
        <ele>306.264</ele>
        <time>2015-10-03T11:16:36Z</time>
      </trkpt>
      <trkpt lat="47.44796" lon="6.651">
        <ele>306.437</ele>
        <time>2015-10-03T11:16:37Z</time>
      </trkpt>
      <trkpt lat="47.44797" lon="6.65103">
        <ele>305.992</ele>
        <time>2015-10-03T11:16:38Z</time>
      </trkpt>
      <trkpt lat="47.44797" lon="6.65106">
        <ele>306.292</ele>
        <time>2015-10-03T11:16:39Z</time>
      </trkpt>
      <trkpt lat="47.44798" lon="6.65109">
        <ele>305.289</ele>
        <time>2015-10-03T11:16:40Z</time>
      </trkpt>
      <trkpt lat="47.44798" lon="6.65112">
        <ele>305.905</ele>
        <time>2015-10-03T11:16:41Z</time>
      </trkpt>
      <trkpt lat="47.44798" lon="6.65116">
        <ele>306.976</ele>
        <time>2015-10-03T11:16:42Z</time>
      </trkpt>
      <trkpt lat="47.44798" lon="6.65119">
        <ele>307.238</ele>
        <time>2015-10-03T11:16:43Z</time>
      </trkpt>
      <trkpt lat="47.44798" lon="6.65123">
        <ele>306.464</ele>
        <time>2015-10-03T11:16:44Z</time>
      </trkpt>
      <trkpt lat="47.44799" lon="6.65126">
        <ele>306.499</ele>
        <time>2015-10-03T11:16:45Z</time>
      </trkpt>
      <trkpt lat="47.44799" lon="6.65128">
        <ele>308.175</ele>
        <time>2015-10-03T11:16:46Z</time>
      </trkpt>
      <trkpt lat="47.44799" lon="6.65131">
        <ele>308.127</ele>
        <time>2015-10-03T11:16:47Z</time>
      </trkpt>
      <trkpt lat="47.44799" lon="6.65134">
        <ele>309.748</ele>
        <time>2015-10-03T11:16:48Z</time>
      </trkpt>
      <trkpt lat="47.44799" lon="6.65137">
        <ele>310.009</ele>
        <time>2015-10-03T11:16:49Z</time>
      </trkpt>
      <trkpt lat="47.44799" lon="6.65142">
        <ele>309.824</ele>
        <time>2015-10-03T11:16:50Z</time>
      </trkpt>
      <trkpt lat="47.44799" lon="6.65146">
        <ele>309.078</ele>
        <time>2015-10-03T11:16:51Z</time>
      </trkpt>
      <trkpt lat="47.448" lon="6.6515">
        <ele>309.489</ele>
        <time>2015-10-03T11:16:52Z</time>
      </trkpt>
      <trkpt lat="47.448" lon="6.65153">
        <ele>310.702</ele>
        <time>2015-10-03T11:16:53Z</time>
      </trkpt>
      <trkpt lat="47.448" lon="6.65156">
        <ele>310.641</ele>
        <time>2015-10-03T11:16:54Z</time>
      </trkpt>
      <trkpt lat="47.448" lon="6.6516">
        <ele>311.077</ele>
        <time>2015-10-03T11:16:55Z</time>
      </trkpt>
      <trkpt lat="47.448" lon="6.65164">
        <ele>310.395</ele>
        <time>2015-10-03T11:16:56Z</time>
      </trkpt>
      <trkpt lat="47.44801" lon="6.65168">
        <ele>309.964</ele>
        <time>2015-10-03T11:16:57Z</time>
      </trkpt>
      <trkpt lat="47.44801" lon="6.65173">
        <ele>310.358</ele>
        <time>2015-10-03T11:16:58Z</time>
      </trkpt>
      <trkpt lat="47.44801" lon="6.65177">
        <ele>309.919</ele>
        <time>2015-10-03T11:16:59Z</time>
      </trkpt>
      <trkpt lat="47.44802" lon="6.65182">
        <ele>309.066</ele>
        <time>2015-10-03T11:17:00Z</time>
      </trkpt>
      <trkpt lat="47.44803" lon="6.65187">
        <ele>308.695</ele>
        <time>2015-10-03T11:17:01Z</time>
      </trkpt>
      <trkpt lat="47.44803" lon="6.65192">
        <ele>308.373</ele>
        <time>2015-10-03T11:17:02Z</time>
      </trkpt>
      <trkpt lat="47.44804" lon="6.65197">
        <ele>307.868</ele>
        <time>2015-10-03T11:17:03Z</time>
      </trkpt>
      <trkpt lat="47.44804" lon="6.65201">
        <ele>308.405</ele>
        <time>2015-10-03T11:17:04Z</time>
      </trkpt>
      <trkpt lat="47.44804" lon="6.65206">
        <ele>307.406</ele>
        <time>2015-10-03T11:17:05Z</time>
      </trkpt>
      <trkpt lat="47.44805" lon="6.65211">
        <ele>307.103</ele>
        <time>2015-10-03T11:17:06Z</time>
      </trkpt>
      <trkpt lat="47.44806" lon="6.65215">
        <ele>306.781</ele>
        <time>2015-10-03T11:17:07Z</time>
      </trkpt>
      <trkpt lat="47.44806" lon="6.65219">
        <ele>307.759</ele>
        <time>2015-10-03T11:17:08Z</time>
      </trkpt>
      <trkpt lat="47.44807" lon="6.65223">
        <ele>306.776</ele>
        <time>2015-10-03T11:17:09Z</time>
      </trkpt>
      <trkpt lat="47.44807" lon="6.65228">
        <ele>305.208</ele>
        <time>2015-10-03T11:17:10Z</time>
      </trkpt>
      <trkpt lat="47.44807" lon="6.65232">
        <ele>305.762</ele>
        <time>2015-10-03T11:17:11Z</time>
      </trkpt>
      <trkpt lat="47.44807" lon="6.65236">
        <ele>306.565</ele>
        <time>2015-10-03T11:17:12Z</time>
      </trkpt>
      <trkpt lat="47.44807" lon="6.6524">
        <ele>307.063</ele>
        <time>2015-10-03T11:17:13Z</time>
      </trkpt>
      <trkpt lat="47.44807" lon="6.65245">
        <ele>307.181</ele>
        <time>2015-10-03T11:17:14Z</time>
      </trkpt>
      <trkpt lat="47.44807" lon="6.65252">
        <ele>306.977</ele>
        <time>2015-10-03T11:17:15Z</time>
      </trkpt>
      <trkpt lat="47.44808" lon="6.65257">
        <ele>307.24</ele>
        <time>2015-10-03T11:17:16Z</time>
      </trkpt>
      <trkpt lat="47.44808" lon="6.65263">
        <ele>307.786</ele>
        <time>2015-10-03T11:17:17Z</time>
      </trkpt>
      <trkpt lat="47.44809" lon="6.65269">
        <ele>307.617</ele>
        <time>2015-10-03T11:17:18Z</time>
      </trkpt>
      <trkpt lat="47.4481" lon="6.65275">
        <ele>307.226</ele>
        <time>2015-10-03T11:17:19Z</time>
      </trkpt>
      <trkpt lat="47.4481" lon="6.6528">
        <ele>306.875</ele>
        <time>2015-10-03T11:17:20Z</time>
      </trkpt>
      <trkpt lat="47.44811" lon="6.65286">
        <ele>307.192</ele>
        <time>2015-10-03T11:17:21Z</time>
      </trkpt>
      <trkpt lat="47.44811" lon="6.65291">
        <ele>308.317</ele>
        <time>2015-10-03T11:17:22Z</time>
      </trkpt>
      <trkpt lat="47.44812" lon="6.65296">
        <ele>307.716</ele>
        <time>2015-10-03T11:17:23Z</time>
      </trkpt>
      <trkpt lat="47.44812" lon="6.653">
        <ele>307.504</ele>
        <time>2015-10-03T11:17:24Z</time>
      </trkpt>
      <trkpt lat="47.44812" lon="6.65305">
        <ele>307.399</ele>
        <time>2015-10-03T11:17:25Z</time>
      </trkpt>
      <trkpt lat="47.44812" lon="6.65309">
        <ele>308.618</ele>
        <time>2015-10-03T11:17:26Z</time>
      </trkpt>
      <trkpt lat="47.44812" lon="6.65314">
        <ele>308.066</ele>
        <time>2015-10-03T11:17:27Z</time>
      </trkpt>
      <trkpt lat="47.44812" lon="6.65318">
        <ele>307.196</ele>
        <time>2015-10-03T11:17:28Z</time>
      </trkpt>
      <trkpt lat="47.44813" lon="6.65323">
        <ele>307.311</ele>
        <time>2015-10-03T11:17:29Z</time>
      </trkpt>
      <trkpt lat="47.44814" lon="6.65328">
        <ele>305.842</ele>
        <time>2015-10-03T11:17:30Z</time>
      </trkpt>
      <trkpt lat="47.44814" lon="6.65334">
        <ele>305.425</ele>
        <time>2015-10-03T11:17:31Z</time>
      </trkpt>
      <trkpt lat="47.44815" lon="6.65339">
        <ele>305.549</ele>
        <time>2015-10-03T11:17:32Z</time>
      </trkpt>
      <trkpt lat="47.44815" lon="6.65344">
        <ele>305.636</ele>
        <time>2015-10-03T11:17:33Z</time>
      </trkpt>
      <trkpt lat="47.44816" lon="6.6535">
        <ele>305.11</ele>
        <time>2015-10-03T11:17:34Z</time>
      </trkpt>
      <trkpt lat="47.44816" lon="6.65355">
        <ele>306.462</ele>
        <time>2015-10-03T11:17:35Z</time>
      </trkpt>
      <trkpt lat="47.44817" lon="6.6536">
        <ele>306.927</ele>
        <time>2015-10-03T11:17:36Z</time>
      </trkpt>
      <trkpt lat="47.44817" lon="6.65365">
        <ele>308.07</ele>
        <time>2015-10-03T11:17:37Z</time>
      </trkpt>
      <trkpt lat="47.44817" lon="6.65371">
        <ele>308.397</ele>
        <time>2015-10-03T11:17:38Z</time>
      </trkpt>
      <trkpt lat="47.44817" lon="6.65377">
        <ele>308.433</ele>
        <time>2015-10-03T11:17:39Z</time>
      </trkpt>
      <trkpt lat="47.44818" lon="6.65383">
        <ele>309.124</ele>
        <time>2015-10-03T11:17:40Z</time>
      </trkpt>
      <trkpt lat="47.44818" lon="6.65389">
        <ele>309.737</ele>
        <time>2015-10-03T11:17:41Z</time>
      </trkpt>
      <trkpt lat="47.44819" lon="6.65395">
        <ele>309.368</ele>
        <time>2015-10-03T11:17:42Z</time>
      </trkpt>
      <trkpt lat="47.4482" lon="6.654">
        <ele>309.049</ele>
        <time>2015-10-03T11:17:43Z</time>
      </trkpt>
      <trkpt lat="47.4482" lon="6.65406">
        <ele>309.348</ele>
        <time>2015-10-03T11:17:44Z</time>
      </trkpt>
      <trkpt lat="47.44821" lon="6.65412">
        <ele>308.755</ele>
        <time>2015-10-03T11:17:45Z</time>
      </trkpt>
      <trkpt lat="47.44821" lon="6.65418">
        <ele>308.538</ele>
        <time>2015-10-03T11:17:46Z</time>
      </trkpt>
      <trkpt lat="47.44822" lon="6.65424">
        <ele>308.519</ele>
        <time>2015-10-03T11:17:47Z</time>
      </trkpt>
      <trkpt lat="47.44823" lon="6.6543">
        <ele>308.446</ele>
        <time>2015-10-03T11:17:48Z</time>
      </trkpt>
      <trkpt lat="47.44823" lon="6.65435">
        <ele>309.014</ele>
        <time>2015-10-03T11:17:49Z</time>
      </trkpt>
      <trkpt lat="47.44824" lon="6.65441">
        <ele>308.96</ele>
        <time>2015-10-03T11:17:50Z</time>
      </trkpt>
      <trkpt lat="47.44824" lon="6.65446">
        <ele>307.769</ele>
        <time>2015-10-03T11:17:51Z</time>
      </trkpt>
      <trkpt lat="47.44825" lon="6.65452">
        <ele>307.359</ele>
        <time>2015-10-03T11:17:52Z</time>
      </trkpt>
      <trkpt lat="47.44825" lon="6.65457">
        <ele>306.468</ele>
        <time>2015-10-03T11:17:53Z</time>
      </trkpt>
      <trkpt lat="47.44826" lon="6.65463">
        <ele>306.085</ele>
        <time>2015-10-03T11:17:54Z</time>
      </trkpt>
      <trkpt lat="47.44826" lon="6.65469">
        <ele>304.664</ele>
        <time>2015-10-03T11:17:55Z</time>
      </trkpt>
      <trkpt lat="47.44827" lon="6.65474">
        <ele>303.581</ele>
        <time>2015-10-03T11:17:56Z</time>
      </trkpt>
      <trkpt lat="47.44828" lon="6.6548">
        <ele>302.998</ele>
        <time>2015-10-03T11:17:57Z</time>
      </trkpt>
      <trkpt lat="47.44828" lon="6.65486">
        <ele>303.343</ele>
        <time>2015-10-03T11:17:58Z</time>
      </trkpt>
      <trkpt lat="47.44829" lon="6.65491">
        <ele>303.069</ele>
        <time>2015-10-03T11:17:59Z</time>
      </trkpt>
      <trkpt lat="47.44829" lon="6.65497">
        <ele>303.344</ele>
        <time>2015-10-03T11:18:00Z</time>
      </trkpt>
      <trkpt lat="47.44829" lon="6.65501">
        <ele>303.118</ele>
        <time>2015-10-03T11:18:01Z</time>
      </trkpt>
      <trkpt lat="47.4483" lon="6.65507">
        <ele>302.888</ele>
        <time>2015-10-03T11:18:02Z</time>
      </trkpt>
      <trkpt lat="47.4483" lon="6.65513">
        <ele>303.705</ele>
        <time>2015-10-03T11:18:03Z</time>
      </trkpt>
      <trkpt lat="47.44831" lon="6.65519">
        <ele>303.255</ele>
        <time>2015-10-03T11:18:04Z</time>
      </trkpt>
      <trkpt lat="47.44832" lon="6.65525">
        <ele>303.053</ele>
        <time>2015-10-03T11:18:05Z</time>
      </trkpt>
      <trkpt lat="47.44832" lon="6.65531">
        <ele>302.251</ele>
        <time>2015-10-03T11:18:06Z</time>
      </trkpt>
      <trkpt lat="47.44832" lon="6.65536">
        <ele>302.281</ele>
        <time>2015-10-03T11:18:07Z</time>
      </trkpt>
      <trkpt lat="47.44833" lon="6.65542">
        <ele>301.15</ele>
        <time>2015-10-03T11:18:08Z</time>
      </trkpt>
      <trkpt lat="47.44833" lon="6.65548">
        <ele>300.042</ele>
        <time>2015-10-03T11:18:09Z</time>
      </trkpt>
      <trkpt lat="47.44834" lon="6.65553">
        <ele>300.13</ele>
        <time>2015-10-03T11:18:10Z</time>
      </trkpt>
      <trkpt lat="47.44834" lon="6.65559">
        <ele>300.458</ele>
        <time>2015-10-03T11:18:11Z</time>
      </trkpt>
      <trkpt lat="47.44835" lon="6.65565">
        <ele>301.468</ele>
        <time>2015-10-03T11:18:12Z</time>
      </trkpt>
      <trkpt lat="47.44835" lon="6.65571">
        <ele>302.263</ele>
        <time>2015-10-03T11:18:13Z</time>
      </trkpt>
      <trkpt lat="47.44835" lon="6.65577">
        <ele>302.295</ele>
        <time>2015-10-03T11:18:14Z</time>
      </trkpt>
      <trkpt lat="47.44835" lon="6.65583">
        <ele>302.294</ele>
        <time>2015-10-03T11:18:15Z</time>
      </trkpt>
      <trkpt lat="47.44836" lon="6.65589">
        <ele>302.07</ele>
        <time>2015-10-03T11:18:16Z</time>
      </trkpt>
      <trkpt lat="47.44836" lon="6.65595">
        <ele>301.709</ele>
        <time>2015-10-03T11:18:17Z</time>
      </trkpt>
      <trkpt lat="47.44837" lon="6.65601">
        <ele>301.926</ele>
        <time>2015-10-03T11:18:18Z</time>
      </trkpt>
      <trkpt lat="47.44837" lon="6.65606">
        <ele>302.858</ele>
        <time>2015-10-03T11:18:19Z</time>
      </trkpt>
      <trkpt lat="47.44838" lon="6.65612">
        <ele>301.562</ele>
        <time>2015-10-03T11:18:20Z</time>
      </trkpt>
      <trkpt lat="47.44839" lon="6.65618">
        <ele>301.968</ele>
        <time>2015-10-03T11:18:21Z</time>
      </trkpt>
      <trkpt lat="47.44839" lon="6.65624">
        <ele>302.646</ele>
        <time>2015-10-03T11:18:22Z</time>
      </trkpt>
      <trkpt lat="47.4484" lon="6.65631">
        <ele>301.395</ele>
        <time>2015-10-03T11:18:23Z</time>
      </trkpt>
      <trkpt lat="47.4484" lon="6.65637">
        <ele>300.826</ele>
        <time>2015-10-03T11:18:24Z</time>
      </trkpt>
      <trkpt lat="47.4484" lon="6.65643">
        <ele>300.557</ele>
        <time>2015-10-03T11:18:25Z</time>
      </trkpt>
      <trkpt lat="47.44841" lon="6.65648">
        <ele>300.238</ele>
        <time>2015-10-03T11:18:26Z</time>
      </trkpt>
      <trkpt lat="47.44841" lon="6.65654">
        <ele>300.369</ele>
        <time>2015-10-03T11:18:27Z</time>
      </trkpt>
      <trkpt lat="47.44842" lon="6.65659">
        <ele>300.795</ele>
        <time>2015-10-03T11:18:28Z</time>
      </trkpt>
      <trkpt lat="47.44842" lon="6.65664">
        <ele>301.771</ele>
        <time>2015-10-03T11:18:29Z</time>
      </trkpt>
      <trkpt lat="47.44843" lon="6.6567">
        <ele>302.612</ele>
        <time>2015-10-03T11:18:30Z</time>
      </trkpt>
      <trkpt lat="47.44843" lon="6.65675">
        <ele>301.815</ele>
        <time>2015-10-03T11:18:31Z</time>
      </trkpt>
      <trkpt lat="47.44843" lon="6.6568">
        <ele>301.811</ele>
        <time>2015-10-03T11:18:32Z</time>
      </trkpt>
      <trkpt lat="47.44844" lon="6.65685">
        <ele>301.771</ele>
        <time>2015-10-03T11:18:33Z</time>
      </trkpt>
      <trkpt lat="47.44844" lon="6.6569">
        <ele>302.765</ele>
        <time>2015-10-03T11:18:34Z</time>
      </trkpt>
      <trkpt lat="47.44844" lon="6.65695">
        <ele>302.502</ele>
        <time>2015-10-03T11:18:35Z</time>
      </trkpt>
      <trkpt lat="47.44844" lon="6.657">
        <ele>302.967</ele>
        <time>2015-10-03T11:18:36Z</time>
      </trkpt>
      <trkpt lat="47.44844" lon="6.65705">
        <ele>304.029</ele>
        <time>2015-10-03T11:18:37Z</time>
      </trkpt>
      <trkpt lat="47.44845" lon="6.6571">
        <ele>304.519</ele>
        <time>2015-10-03T11:18:38Z</time>
      </trkpt>
      <trkpt lat="47.44845" lon="6.65716">
        <ele>304.477</ele>
        <time>2015-10-03T11:18:39Z</time>
      </trkpt>
      <trkpt lat="47.44845" lon="6.65721">
        <ele>304.176</ele>
        <time>2015-10-03T11:18:40Z</time>
      </trkpt>
      <trkpt lat="47.44845" lon="6.65727">
        <ele>303.826</ele>
        <time>2015-10-03T11:18:41Z</time>
      </trkpt>
      <trkpt lat="47.44845" lon="6.65733">
        <ele>303.954</ele>
        <time>2015-10-03T11:18:42Z</time>
      </trkpt>
      <trkpt lat="47.44845" lon="6.65739">
        <ele>302.877</ele>
        <time>2015-10-03T11:18:43Z</time>
      </trkpt>
      <trkpt lat="47.44846" lon="6.65744">
        <ele>302.106</ele>
        <time>2015-10-03T11:18:44Z</time>
      </trkpt>
      <trkpt lat="47.44847" lon="6.65749">
        <ele>302.841</ele>
        <time>2015-10-03T11:18:45Z</time>
      </trkpt>
      <trkpt lat="47.44847" lon="6.65754">
        <ele>303.53</ele>
        <time>2015-10-03T11:18:46Z</time>
      </trkpt>
      <trkpt lat="47.44847" lon="6.65759">
        <ele>304.082</ele>
        <time>2015-10-03T11:18:47Z</time>
      </trkpt>
      <trkpt lat="47.44848" lon="6.65764">
        <ele>303.004</ele>
        <time>2015-10-03T11:18:48Z</time>
      </trkpt>
      <trkpt lat="47.44848" lon="6.65769">
        <ele>302.6</ele>
        <time>2015-10-03T11:18:49Z</time>
      </trkpt>
      <trkpt lat="47.44849" lon="6.65775">
        <ele>303.003</ele>
        <time>2015-10-03T11:18:50Z</time>
      </trkpt>
      <trkpt lat="47.4485" lon="6.6578">
        <ele>303.321</ele>
        <time>2015-10-03T11:18:51Z</time>
      </trkpt>
      <trkpt lat="47.4485" lon="6.65785">
        <ele>303.956</ele>
        <time>2015-10-03T11:18:52Z</time>
      </trkpt>
      <trkpt lat="47.44851" lon="6.6579">
        <ele>303.682</ele>
        <time>2015-10-03T11:18:53Z</time>
      </trkpt>
      <trkpt lat="47.44851" lon="6.65796">
        <ele>304.129</ele>
        <time>2015-10-03T11:18:54Z</time>
      </trkpt>
      <trkpt lat="47.44851" lon="6.65801">
        <ele>304.107</ele>
        <time>2015-10-03T11:18:55Z</time>
      </trkpt>
      <trkpt lat="47.44852" lon="6.65807">
        <ele>303.558</ele>
        <time>2015-10-03T11:18:56Z</time>
      </trkpt>
      <trkpt lat="47.44852" lon="6.65812">
        <ele>303.836</ele>
        <time>2015-10-03T11:18:57Z</time>
      </trkpt>
      <trkpt lat="47.44853" lon="6.65817">
        <ele>304.107</ele>
        <time>2015-10-03T11:18:58Z</time>
      </trkpt>
      <trkpt lat="47.44854" lon="6.65822">
        <ele>304.238</ele>
        <time>2015-10-03T11:18:59Z</time>
      </trkpt>
      <trkpt lat="47.44855" lon="6.65828">
        <ele>304.053</ele>
        <time>2015-10-03T11:19:00Z</time>
      </trkpt>
      <trkpt lat="47.44855" lon="6.65833">
        <ele>304.063</ele>
        <time>2015-10-03T11:19:01Z</time>
      </trkpt>
      <trkpt lat="47.44856" lon="6.65838">
        <ele>302.632</ele>
        <time>2015-10-03T11:19:02Z</time>
      </trkpt>
      <trkpt lat="47.44857" lon="6.65844">
        <ele>302.53</ele>
        <time>2015-10-03T11:19:03Z</time>
      </trkpt>
      <trkpt lat="47.44857" lon="6.6585">
        <ele>303.922</ele>
        <time>2015-10-03T11:19:04Z</time>
      </trkpt>
      <trkpt lat="47.44858" lon="6.65856">
        <ele>302.13</ele>
        <time>2015-10-03T11:19:05Z</time>
      </trkpt>
      <trkpt lat="47.44858" lon="6.65862">
        <ele>302.224</ele>
        <time>2015-10-03T11:19:06Z</time>
      </trkpt>
      <trkpt lat="47.44858" lon="6.65867">
        <ele>302.373</ele>
        <time>2015-10-03T11:19:07Z</time>
      </trkpt>
      <trkpt lat="47.44859" lon="6.65873">
        <ele>302.413</ele>
        <time>2015-10-03T11:19:08Z</time>
      </trkpt>
      <trkpt lat="47.44859" lon="6.65879">
        <ele>302.3</ele>
        <time>2015-10-03T11:19:09Z</time>
      </trkpt>
      <trkpt lat="47.4486" lon="6.65885">
        <ele>302.401</ele>
        <time>2015-10-03T11:19:10Z</time>
      </trkpt>
      <trkpt lat="47.4486" lon="6.65891">
        <ele>304.377</ele>
        <time>2015-10-03T11:19:11Z</time>
      </trkpt>
      <trkpt lat="47.44861" lon="6.65896">
        <ele>304.139</ele>
        <time>2015-10-03T11:19:12Z</time>
      </trkpt>
      <trkpt lat="47.44862" lon="6.65902">
        <ele>303.457</ele>
        <time>2015-10-03T11:19:13Z</time>
      </trkpt>
      <trkpt lat="47.44863" lon="6.65908">
        <ele>304.271</ele>
        <time>2015-10-03T11:19:14Z</time>
      </trkpt>
      <trkpt lat="47.44863" lon="6.65914">
        <ele>305.045</ele>
        <time>2015-10-03T11:19:15Z</time>
      </trkpt>
      <trkpt lat="47.44863" lon="6.65919">
        <ele>305.585</ele>
        <time>2015-10-03T11:19:16Z</time>
      </trkpt>
      <trkpt lat="47.44864" lon="6.65926">
        <ele>304.352</ele>
        <time>2015-10-03T11:19:17Z</time>
      </trkpt>
      <trkpt lat="47.44864" lon="6.65932">
        <ele>303.537</ele>
        <time>2015-10-03T11:19:18Z</time>
      </trkpt>
      <trkpt lat="47.44864" lon="6.65938">
        <ele>302.859</ele>
        <time>2015-10-03T11:19:19Z</time>
      </trkpt>
      <trkpt lat="47.44864" lon="6.65945">
        <ele>302.119</ele>
        <time>2015-10-03T11:19:20Z</time>
      </trkpt>
      <trkpt lat="47.44865" lon="6.65951">
        <ele>301.932</ele>
        <time>2015-10-03T11:19:21Z</time>
      </trkpt>
      <trkpt lat="47.44865" lon="6.65956">
        <ele>302.645</ele>
        <time>2015-10-03T11:19:22Z</time>
      </trkpt>
      <trkpt lat="47.44865" lon="6.65961">
        <ele>303.391</ele>
        <time>2015-10-03T11:19:23Z</time>
      </trkpt>
      <trkpt lat="47.44865" lon="6.65967">
        <ele>304.11</ele>
        <time>2015-10-03T11:19:24Z</time>
      </trkpt>
      <trkpt lat="47.44866" lon="6.65972">
        <ele>304.509</ele>
        <time>2015-10-03T11:19:25Z</time>
      </trkpt>
      <trkpt lat="47.44866" lon="6.65978">
        <ele>304.538</ele>
        <time>2015-10-03T11:19:26Z</time>
      </trkpt>
      <trkpt lat="47.44867" lon="6.65984">
        <ele>304.585</ele>
        <time>2015-10-03T11:19:27Z</time>
      </trkpt>
      <trkpt lat="47.44867" lon="6.6599">
        <ele>303.598</ele>
        <time>2015-10-03T11:19:28Z</time>
      </trkpt>
      <trkpt lat="47.44867" lon="6.65996">
        <ele>303.67</ele>
        <time>2015-10-03T11:19:29Z</time>
      </trkpt>
      <trkpt lat="47.44868" lon="6.66002">
        <ele>302.545</ele>
        <time>2015-10-03T11:19:30Z</time>
      </trkpt>
      <trkpt lat="47.44868" lon="6.66009">
        <ele>302.809</ele>
        <time>2015-10-03T11:19:31Z</time>
      </trkpt>
      <trkpt lat="47.44869" lon="6.66015">
        <ele>303.588</ele>
        <time>2015-10-03T11:19:32Z</time>
      </trkpt>
      <trkpt lat="47.44869" lon="6.6602">
        <ele>303.262</ele>
        <time>2015-10-03T11:19:33Z</time>
      </trkpt>
      <trkpt lat="47.44869" lon="6.66026">
        <ele>303.992</ele>
        <time>2015-10-03T11:19:34Z</time>
      </trkpt>
      <trkpt lat="47.4487" lon="6.66031">
        <ele>304.1</ele>
        <time>2015-10-03T11:19:35Z</time>
      </trkpt>
      <trkpt lat="47.4487" lon="6.66037">
        <ele>303.437</ele>
        <time>2015-10-03T11:19:36Z</time>
      </trkpt>
      <trkpt lat="47.4487" lon="6.66043">
        <ele>303.494</ele>
        <time>2015-10-03T11:19:37Z</time>
      </trkpt>
      <trkpt lat="47.44871" lon="6.66049">
        <ele>303.463</ele>
        <time>2015-10-03T11:19:38Z</time>
      </trkpt>
      <trkpt lat="47.44871" lon="6.66055">
        <ele>303.678</ele>
        <time>2015-10-03T11:19:39Z</time>
      </trkpt>
      <trkpt lat="47.44871" lon="6.66061">
        <ele>303.708</ele>
        <time>2015-10-03T11:19:40Z</time>
      </trkpt>
      <trkpt lat="47.44872" lon="6.66068">
        <ele>303.418</ele>
        <time>2015-10-03T11:19:41Z</time>
      </trkpt>
      <trkpt lat="47.44873" lon="6.66074">
        <ele>303.148</ele>
        <time>2015-10-03T11:19:42Z</time>
      </trkpt>
      <trkpt lat="47.44874" lon="6.6608">
        <ele>303.213</ele>
        <time>2015-10-03T11:19:43Z</time>
      </trkpt>
      <trkpt lat="47.44874" lon="6.66085">
        <ele>303.604</ele>
        <time>2015-10-03T11:19:44Z</time>
      </trkpt>
      <trkpt lat="47.44875" lon="6.6609">
        <ele>303.496</ele>
        <time>2015-10-03T11:19:45Z</time>
      </trkpt>
      <trkpt lat="47.44875" lon="6.66096">
        <ele>304.345</ele>
        <time>2015-10-03T11:19:46Z</time>
      </trkpt>
      <trkpt lat="47.44875" lon="6.66102">
        <ele>303.929</ele>
        <time>2015-10-03T11:19:47Z</time>
      </trkpt>
      <trkpt lat="47.44875" lon="6.66108">
        <ele>303.308</ele>
        <time>2015-10-03T11:19:48Z</time>
      </trkpt>
      <trkpt lat="47.44876" lon="6.66114">
        <ele>303.22</ele>
        <time>2015-10-03T11:19:49Z</time>
      </trkpt>
      <trkpt lat="47.44876" lon="6.66119">
        <ele>303.783</ele>
        <time>2015-10-03T11:19:50Z</time>
      </trkpt>
      <trkpt lat="47.44877" lon="6.66125">
        <ele>303.358</ele>
        <time>2015-10-03T11:19:51Z</time>
      </trkpt>
      <trkpt lat="47.44877" lon="6.6613">
        <ele>303.371</ele>
        <time>2015-10-03T11:19:52Z</time>
      </trkpt>
      <trkpt lat="47.44877" lon="6.66136">
        <ele>303.49</ele>
        <time>2015-10-03T11:19:53Z</time>
      </trkpt>
      <trkpt lat="47.44878" lon="6.66141">
        <ele>302.932</ele>
        <time>2015-10-03T11:19:54Z</time>
      </trkpt>
      <trkpt lat="47.44878" lon="6.66145">
        <ele>303.402</ele>
        <time>2015-10-03T11:19:55Z</time>
      </trkpt>
      <trkpt lat="47.44879" lon="6.6615">
        <ele>303.745</ele>
        <time>2015-10-03T11:19:56Z</time>
      </trkpt>
      <trkpt lat="47.4488" lon="6.66155">
        <ele>302.759</ele>
        <time>2015-10-03T11:19:57Z</time>
      </trkpt>
      <trkpt lat="47.4488" lon="6.66161">
        <ele>303.029</ele>
        <time>2015-10-03T11:19:58Z</time>
      </trkpt>
      <trkpt lat="47.44881" lon="6.66166">
        <ele>302.453</ele>
        <time>2015-10-03T11:19:59Z</time>
      </trkpt>
      <trkpt lat="47.44882" lon="6.66171">
        <ele>302.783</ele>
        <time>2015-10-03T11:20:00Z</time>
      </trkpt>
      <trkpt lat="47.44883" lon="6.66177">
        <ele>302.917</ele>
        <time>2015-10-03T11:20:01Z</time>
      </trkpt>
      <trkpt lat="47.44883" lon="6.66182">
        <ele>302.119</ele>
        <time>2015-10-03T11:20:02Z</time>
      </trkpt>
      <trkpt lat="47.44883" lon="6.66187">
        <ele>302.048</ele>
        <time>2015-10-03T11:20:03Z</time>
      </trkpt>
      <trkpt lat="47.44884" lon="6.66192">
        <ele>302.221</ele>
        <time>2015-10-03T11:20:04Z</time>
      </trkpt>
      <trkpt lat="47.44884" lon="6.66198">
        <ele>302.432</ele>
        <time>2015-10-03T11:20:05Z</time>
      </trkpt>
      <trkpt lat="47.44885" lon="6.66203">
        <ele>302.191</ele>
        <time>2015-10-03T11:20:06Z</time>
      </trkpt>
      <trkpt lat="47.44885" lon="6.66208">
        <ele>301.612</ele>
        <time>2015-10-03T11:20:07Z</time>
      </trkpt>
      <trkpt lat="47.44886" lon="6.66214">
        <ele>301.344</ele>
        <time>2015-10-03T11:20:08Z</time>
      </trkpt>
      <trkpt lat="47.44886" lon="6.66219">
        <ele>301.392</ele>
        <time>2015-10-03T11:20:09Z</time>
      </trkpt>
      <trkpt lat="47.44887" lon="6.66225">
        <ele>301.066</ele>
        <time>2015-10-03T11:20:10Z</time>
      </trkpt>
      <trkpt lat="47.44887" lon="6.6623">
        <ele>301.172</ele>
        <time>2015-10-03T11:20:11Z</time>
      </trkpt>
      <trkpt lat="47.44888" lon="6.66235">
        <ele>301.616</ele>
        <time>2015-10-03T11:20:12Z</time>
      </trkpt>
      <trkpt lat="47.44888" lon="6.66241">
        <ele>301.978</ele>
        <time>2015-10-03T11:20:13Z</time>
      </trkpt>
      <trkpt lat="47.44888" lon="6.66247">
        <ele>303.183</ele>
        <time>2015-10-03T11:20:14Z</time>
      </trkpt>
      <trkpt lat="47.44889" lon="6.66253">
        <ele>303.213</ele>
        <time>2015-10-03T11:20:15Z</time>
      </trkpt>
      <trkpt lat="47.44889" lon="6.66259">
        <ele>303.316</ele>
        <time>2015-10-03T11:20:16Z</time>
      </trkpt>
      <trkpt lat="47.4489" lon="6.66265">
        <ele>303.208</ele>
        <time>2015-10-03T11:20:17Z</time>
      </trkpt>
      <trkpt lat="47.4489" lon="6.66271">
        <ele>302.616</ele>
        <time>2015-10-03T11:20:18Z</time>
      </trkpt>
      <trkpt lat="47.44891" lon="6.66277">
        <ele>301.418</ele>
        <time>2015-10-03T11:20:19Z</time>
      </trkpt>
      <trkpt lat="47.44892" lon="6.66283">
        <ele>301.079</ele>
        <time>2015-10-03T11:20:20Z</time>
      </trkpt>
      <trkpt lat="47.44892" lon="6.66289">
        <ele>301.104</ele>
        <time>2015-10-03T11:20:21Z</time>
      </trkpt>
      <trkpt lat="47.44893" lon="6.66295">
        <ele>300.679</ele>
        <time>2015-10-03T11:20:22Z</time>
      </trkpt>
      <trkpt lat="47.44893" lon="6.66301">
        <ele>299.878</ele>
        <time>2015-10-03T11:20:23Z</time>
      </trkpt>
      <trkpt lat="47.44893" lon="6.66307">
        <ele>299.39</ele>
        <time>2015-10-03T11:20:24Z</time>
      </trkpt>
      <trkpt lat="47.44894" lon="6.66312">
        <ele>299.41</ele>
        <time>2015-10-03T11:20:25Z</time>
      </trkpt>
      <trkpt lat="47.44894" lon="6.66318">
        <ele>299.443</ele>
        <time>2015-10-03T11:20:26Z</time>
      </trkpt>
      <trkpt lat="47.44895" lon="6.66324">
        <ele>298.583</ele>
        <time>2015-10-03T11:20:27Z</time>
      </trkpt>
      <trkpt lat="47.44895" lon="6.6633">
        <ele>299.328</ele>
        <time>2015-10-03T11:20:28Z</time>
      </trkpt>
      <trkpt lat="47.44896" lon="6.66336">
        <ele>298.932</ele>
        <time>2015-10-03T11:20:29Z</time>
      </trkpt>
      <trkpt lat="47.44896" lon="6.66343">
        <ele>297.472</ele>
        <time>2015-10-03T11:20:30Z</time>
      </trkpt>
      <trkpt lat="47.44896" lon="6.66349">
        <ele>296.963</ele>
        <time>2015-10-03T11:20:31Z</time>
      </trkpt>
      <trkpt lat="47.44897" lon="6.66355">
        <ele>297.87</ele>
        <time>2015-10-03T11:20:32Z</time>
      </trkpt>
      <trkpt lat="47.44897" lon="6.66361">
        <ele>298.191</ele>
        <time>2015-10-03T11:20:33Z</time>
      </trkpt>
      <trkpt lat="47.44897" lon="6.66367">
        <ele>298.505</ele>
        <time>2015-10-03T11:20:34Z</time>
      </trkpt>
      <trkpt lat="47.44898" lon="6.66372">
        <ele>298.174</ele>
        <time>2015-10-03T11:20:35Z</time>
      </trkpt>
      <trkpt lat="47.44898" lon="6.66378">
        <ele>298.368</ele>
        <time>2015-10-03T11:20:36Z</time>
      </trkpt>
      <trkpt lat="47.44899" lon="6.66384">
        <ele>298.325</ele>
        <time>2015-10-03T11:20:37Z</time>
      </trkpt>
      <trkpt lat="47.44899" lon="6.6639">
        <ele>297.823</ele>
        <time>2015-10-03T11:20:38Z</time>
      </trkpt>
      <trkpt lat="47.449" lon="6.66395">
        <ele>298.248</ele>
        <time>2015-10-03T11:20:39Z</time>
      </trkpt>
      <trkpt lat="47.449" lon="6.664">
        <ele>298.168</ele>
        <time>2015-10-03T11:20:40Z</time>
      </trkpt>
      <trkpt lat="47.44901" lon="6.66406">
        <ele>298.608</ele>
        <time>2015-10-03T11:20:41Z</time>
      </trkpt>
      <trkpt lat="47.44901" lon="6.66412">
        <ele>297.96</ele>
        <time>2015-10-03T11:20:42Z</time>
      </trkpt>
      <trkpt lat="47.44901" lon="6.66418">
        <ele>298.568</ele>
        <time>2015-10-03T11:20:43Z</time>
      </trkpt>
      <trkpt lat="47.44901" lon="6.66423">
        <ele>300.479</ele>
        <time>2015-10-03T11:20:44Z</time>
      </trkpt>
      <trkpt lat="47.44901" lon="6.66429">
        <ele>300.64</ele>
        <time>2015-10-03T11:20:45Z</time>
      </trkpt>
      <trkpt lat="47.44902" lon="6.66436">
        <ele>298.422</ele>
        <time>2015-10-03T11:20:46Z</time>
      </trkpt>
      <trkpt lat="47.44903" lon="6.66443">
        <ele>298.004</ele>
        <time>2015-10-03T11:20:47Z</time>
      </trkpt>
      <trkpt lat="47.44903" lon="6.66448">
        <ele>297.706</ele>
        <time>2015-10-03T11:20:48Z</time>
      </trkpt>
      <trkpt lat="47.44903" lon="6.66454">
        <ele>296.983</ele>
        <time>2015-10-03T11:20:49Z</time>
      </trkpt>
      <trkpt lat="47.44904" lon="6.66459">
        <ele>296.704</ele>
        <time>2015-10-03T11:20:50Z</time>
      </trkpt>
      <trkpt lat="47.44904" lon="6.66465">
        <ele>296.994</ele>
        <time>2015-10-03T11:20:51Z</time>
      </trkpt>
      <trkpt lat="47.44904" lon="6.6647">
        <ele>296.895</ele>
        <time>2015-10-03T11:20:52Z</time>
      </trkpt>
      <trkpt lat="47.44905" lon="6.66476">
        <ele>296.549</ele>
        <time>2015-10-03T11:20:53Z</time>
      </trkpt>
      <trkpt lat="47.44905" lon="6.66481">
        <ele>296.36</ele>
        <time>2015-10-03T11:20:54Z</time>
      </trkpt>
      <trkpt lat="47.44906" lon="6.66487">
        <ele>296.403</ele>
        <time>2015-10-03T11:20:55Z</time>
      </trkpt>
      <trkpt lat="47.44906" lon="6.66492">
        <ele>296.983</ele>
        <time>2015-10-03T11:20:56Z</time>
      </trkpt>
      <trkpt lat="47.44907" lon="6.66498">
        <ele>296.672</ele>
        <time>2015-10-03T11:20:57Z</time>
      </trkpt>
      <trkpt lat="47.44908" lon="6.66503">
        <ele>296.794</ele>
        <time>2015-10-03T11:20:58Z</time>
      </trkpt>
      <trkpt lat="47.44908" lon="6.66509">
        <ele>297.042</ele>
        <time>2015-10-03T11:20:59Z</time>
      </trkpt>
      <trkpt lat="47.44909" lon="6.66514">
        <ele>297.584</ele>
        <time>2015-10-03T11:21:00Z</time>
      </trkpt>
      <trkpt lat="47.4491" lon="6.6652">
        <ele>298.261</ele>
        <time>2015-10-03T11:21:01Z</time>
      </trkpt>
      <trkpt lat="47.4491" lon="6.66526">
        <ele>298.509</ele>
        <time>2015-10-03T11:21:02Z</time>
      </trkpt>
      <trkpt lat="47.44911" lon="6.66532">
        <ele>298.333</ele>
        <time>2015-10-03T11:21:03Z</time>
      </trkpt>
      <trkpt lat="47.44911" lon="6.66537">
        <ele>298.581</ele>
        <time>2015-10-03T11:21:04Z</time>
      </trkpt>
      <trkpt lat="47.44912" lon="6.66543">
        <ele>298.757</ele>
        <time>2015-10-03T11:21:05Z</time>
      </trkpt>
      <trkpt lat="47.44912" lon="6.66548">
        <ele>298.521</ele>
        <time>2015-10-03T11:21:06Z</time>
      </trkpt>
      <trkpt lat="47.44913" lon="6.66554">
        <ele>298.468</ele>
        <time>2015-10-03T11:21:07Z</time>
      </trkpt>
      <trkpt lat="47.44913" lon="6.6656">
        <ele>298.283</ele>
        <time>2015-10-03T11:21:08Z</time>
      </trkpt>
      <trkpt lat="47.44914" lon="6.66565">
        <ele>297.861</ele>
        <time>2015-10-03T11:21:09Z</time>
      </trkpt>
      <trkpt lat="47.44914" lon="6.66571">
        <ele>296.923</ele>
        <time>2015-10-03T11:21:10Z</time>
      </trkpt>
      <trkpt lat="47.44914" lon="6.66577">
        <ele>296.796</ele>
        <time>2015-10-03T11:21:11Z</time>
      </trkpt>
      <trkpt lat="47.44915" lon="6.66583">
        <ele>296.188</ele>
        <time>2015-10-03T11:21:12Z</time>
      </trkpt>
      <trkpt lat="47.44915" lon="6.66589">
        <ele>297.592</ele>
        <time>2015-10-03T11:21:13Z</time>
      </trkpt>
      <trkpt lat="47.44915" lon="6.66595">
        <ele>299.125</ele>
        <time>2015-10-03T11:21:14Z</time>
      </trkpt>
      <trkpt lat="47.44915" lon="6.66601">
        <ele>299.207</ele>
        <time>2015-10-03T11:21:15Z</time>
      </trkpt>
      <trkpt lat="47.44916" lon="6.66607">
        <ele>297.982</ele>
        <time>2015-10-03T11:21:16Z</time>
      </trkpt>
      <trkpt lat="47.44916" lon="6.66613">
        <ele>298.758</ele>
        <time>2015-10-03T11:21:17Z</time>
      </trkpt>
      <trkpt lat="47.44916" lon="6.6662">
        <ele>298.781</ele>
        <time>2015-10-03T11:21:18Z</time>
      </trkpt>
      <trkpt lat="47.44917" lon="6.66626">
        <ele>298.508</ele>
        <time>2015-10-03T11:21:19Z</time>
      </trkpt>
      <trkpt lat="47.44917" lon="6.66632">
        <ele>298.09</ele>
        <time>2015-10-03T11:21:20Z</time>
      </trkpt>
      <trkpt lat="47.44918" lon="6.66638">
        <ele>297.673</ele>
        <time>2015-10-03T11:21:21Z</time>
      </trkpt>
      <trkpt lat="47.44918" lon="6.66644">
        <ele>297.57</ele>
        <time>2015-10-03T11:21:22Z</time>
      </trkpt>
      <trkpt lat="47.44919" lon="6.66649">
        <ele>297.534</ele>
        <time>2015-10-03T11:21:23Z</time>
      </trkpt>
      <trkpt lat="47.44919" lon="6.66655">
        <ele>297.703</ele>
        <time>2015-10-03T11:21:24Z</time>
      </trkpt>
      <trkpt lat="47.4492" lon="6.66661">
        <ele>298.277</ele>
        <time>2015-10-03T11:21:25Z</time>
      </trkpt>
      <trkpt lat="47.44921" lon="6.66667">
        <ele>298.349</ele>
        <time>2015-10-03T11:21:26Z</time>
      </trkpt>
      <trkpt lat="47.44921" lon="6.66673">
        <ele>298.394</ele>
        <time>2015-10-03T11:21:27Z</time>
      </trkpt>
      <trkpt lat="47.44922" lon="6.66679">
        <ele>298.296</ele>
        <time>2015-10-03T11:21:28Z</time>
      </trkpt>
      <trkpt lat="47.44922" lon="6.66684">
        <ele>298.445</ele>
        <time>2015-10-03T11:21:29Z</time>
      </trkpt>
      <trkpt lat="47.44923" lon="6.6669">
        <ele>298.318</ele>
        <time>2015-10-03T11:21:30Z</time>
      </trkpt>
      <trkpt lat="47.44923" lon="6.66696">
        <ele>298.029</ele>
        <time>2015-10-03T11:21:31Z</time>
      </trkpt>
      <trkpt lat="47.44924" lon="6.66702">
        <ele>298.128</ele>
        <time>2015-10-03T11:21:32Z</time>
      </trkpt>
      <trkpt lat="47.44925" lon="6.66708">
        <ele>298.365</ele>
        <time>2015-10-03T11:21:33Z</time>
      </trkpt>
      <trkpt lat="47.44925" lon="6.66713">
        <ele>298.325</ele>
        <time>2015-10-03T11:21:34Z</time>
      </trkpt>
      <trkpt lat="47.44926" lon="6.66719">
        <ele>298.203</ele>
        <time>2015-10-03T11:21:35Z</time>
      </trkpt>
      <trkpt lat="47.44926" lon="6.66725">
        <ele>299.041</ele>
        <time>2015-10-03T11:21:36Z</time>
      </trkpt>
      <trkpt lat="47.44926" lon="6.66731">
        <ele>299.238</ele>
        <time>2015-10-03T11:21:37Z</time>
      </trkpt>
      <trkpt lat="47.44927" lon="6.66737">
        <ele>298.762</ele>
        <time>2015-10-03T11:21:38Z</time>
      </trkpt>
      <trkpt lat="47.44927" lon="6.66743">
        <ele>298.389</ele>
        <time>2015-10-03T11:21:39Z</time>
      </trkpt>
      <trkpt lat="47.44927" lon="6.66749">
        <ele>298.552</ele>
        <time>2015-10-03T11:21:40Z</time>
      </trkpt>
      <trkpt lat="47.44927" lon="6.66755">
        <ele>298.335</ele>
        <time>2015-10-03T11:21:41Z</time>
      </trkpt>
      <trkpt lat="47.44928" lon="6.66761">
        <ele>298.494</ele>
        <time>2015-10-03T11:21:42Z</time>
      </trkpt>
      <trkpt lat="47.44928" lon="6.66766">
        <ele>298.127</ele>
        <time>2015-10-03T11:21:43Z</time>
      </trkpt>
      <trkpt lat="47.44929" lon="6.66771">
        <ele>298.178</ele>
        <time>2015-10-03T11:21:44Z</time>
      </trkpt>
      <trkpt lat="47.44929" lon="6.66777">
        <ele>298.371</ele>
        <time>2015-10-03T11:21:45Z</time>
      </trkpt>
      <trkpt lat="47.44929" lon="6.66782">
        <ele>298.459</ele>
        <time>2015-10-03T11:21:46Z</time>
      </trkpt>
      <trkpt lat="47.44929" lon="6.66787">
        <ele>298.282</ele>
        <time>2015-10-03T11:21:47Z</time>
      </trkpt>
      <trkpt lat="47.4493" lon="6.66793">
        <ele>297.775</ele>
        <time>2015-10-03T11:21:48Z</time>
      </trkpt>
      <trkpt lat="47.4493" lon="6.66799">
        <ele>298.7</ele>
        <time>2015-10-03T11:21:49Z</time>
      </trkpt>
      <trkpt lat="47.4493" lon="6.66804">
        <ele>298.879</ele>
        <time>2015-10-03T11:21:50Z</time>
      </trkpt>
      <trkpt lat="47.44931" lon="6.6681">
        <ele>298.193</ele>
        <time>2015-10-03T11:21:51Z</time>
      </trkpt>
      <trkpt lat="47.44931" lon="6.66815">
        <ele>297.801</ele>
        <time>2015-10-03T11:21:52Z</time>
      </trkpt>
      <trkpt lat="47.44931" lon="6.66821">
        <ele>298.214</ele>
        <time>2015-10-03T11:21:53Z</time>
      </trkpt>
      <trkpt lat="47.44932" lon="6.66826">
        <ele>298.497</ele>
        <time>2015-10-03T11:21:54Z</time>
      </trkpt>
      <trkpt lat="47.44932" lon="6.66831">
        <ele>299.865</ele>
        <time>2015-10-03T11:21:55Z</time>
      </trkpt>
      <trkpt lat="47.44933" lon="6.66837">
        <ele>299.889</ele>
        <time>2015-10-03T11:21:56Z</time>
      </trkpt>
      <trkpt lat="47.44933" lon="6.66842">
        <ele>300.347</ele>
        <time>2015-10-03T11:21:57Z</time>
      </trkpt>
      <trkpt lat="47.44934" lon="6.66848">
        <ele>299.009</ele>
        <time>2015-10-03T11:21:58Z</time>
      </trkpt>
      <trkpt lat="47.44934" lon="6.66854">
        <ele>297.636</ele>
        <time>2015-10-03T11:21:59Z</time>
      </trkpt>
      <trkpt lat="47.44935" lon="6.66859">
        <ele>297.21</ele>
        <time>2015-10-03T11:22:00Z</time>
      </trkpt>
      <trkpt lat="47.44935" lon="6.66865">
        <ele>295.91</ele>
        <time>2015-10-03T11:22:01Z</time>
      </trkpt>
      <trkpt lat="47.44936" lon="6.66871">
        <ele>295.859</ele>
        <time>2015-10-03T11:22:02Z</time>
      </trkpt>
      <trkpt lat="47.44936" lon="6.66877">
        <ele>296.526</ele>
        <time>2015-10-03T11:22:03Z</time>
      </trkpt>
      <trkpt lat="47.44937" lon="6.66883">
        <ele>296.958</ele>
        <time>2015-10-03T11:22:04Z</time>
      </trkpt>
      <trkpt lat="47.44938" lon="6.66889">
        <ele>295.411</ele>
        <time>2015-10-03T11:22:05Z</time>
      </trkpt>
      <trkpt lat="47.44938" lon="6.66895">
        <ele>296.06</ele>
        <time>2015-10-03T11:22:06Z</time>
      </trkpt>
      <trkpt lat="47.44939" lon="6.66901">
        <ele>296.858</ele>
        <time>2015-10-03T11:22:07Z</time>
      </trkpt>
      <trkpt lat="47.44939" lon="6.66907">
        <ele>298.205</ele>
        <time>2015-10-03T11:22:08Z</time>
      </trkpt>
      <trkpt lat="47.4494" lon="6.66912">
        <ele>296.694</ele>
        <time>2015-10-03T11:22:09Z</time>
      </trkpt>
      <trkpt lat="47.44941" lon="6.66918">
        <ele>296.708</ele>
        <time>2015-10-03T11:22:10Z</time>
      </trkpt>
      <trkpt lat="47.44941" lon="6.66924">
        <ele>297.117</ele>
        <time>2015-10-03T11:22:11Z</time>
      </trkpt>
      <trkpt lat="47.44942" lon="6.66929">
        <ele>296.956</ele>
        <time>2015-10-03T11:22:12Z</time>
      </trkpt>
      <trkpt lat="47.44943" lon="6.66935">
        <ele>296.858</ele>
        <time>2015-10-03T11:22:13Z</time>
      </trkpt>
      <trkpt lat="47.44943" lon="6.66941">
        <ele>298.628</ele>
        <time>2015-10-03T11:22:14Z</time>
      </trkpt>
      <trkpt lat="47.44944" lon="6.66947">
        <ele>298.239</ele>
        <time>2015-10-03T11:22:15Z</time>
      </trkpt>
      <trkpt lat="47.44944" lon="6.66953">
        <ele>299.067</ele>
        <time>2015-10-03T11:22:16Z</time>
      </trkpt>
      <trkpt lat="47.44945" lon="6.66958">
        <ele>300.004</ele>
        <time>2015-10-03T11:22:17Z</time>
      </trkpt>
      <trkpt lat="47.44945" lon="6.66964">
        <ele>299.668</ele>
        <time>2015-10-03T11:22:18Z</time>
      </trkpt>
      <trkpt lat="47.44946" lon="6.6697">
        <ele>298.841</ele>
        <time>2015-10-03T11:22:19Z</time>
      </trkpt>
      <trkpt lat="47.44946" lon="6.66976">
        <ele>297.827</ele>
        <time>2015-10-03T11:22:20Z</time>
      </trkpt>
      <trkpt lat="47.44946" lon="6.66982">
        <ele>297.392</ele>
        <time>2015-10-03T11:22:21Z</time>
      </trkpt>
      <trkpt lat="47.44946" lon="6.66988">
        <ele>297.695</ele>
        <time>2015-10-03T11:22:22Z</time>
      </trkpt>
      <trkpt lat="47.44947" lon="6.66994">
        <ele>297.513</ele>
        <time>2015-10-03T11:22:23Z</time>
      </trkpt>
      <trkpt lat="47.44947" lon="6.66999">
        <ele>298.035</ele>
        <time>2015-10-03T11:22:24Z</time>
      </trkpt>
      <trkpt lat="47.44947" lon="6.67005">
        <ele>297.76</ele>
        <time>2015-10-03T11:22:25Z</time>
      </trkpt>
      <trkpt lat="47.44948" lon="6.67011">
        <ele>297.399</ele>
        <time>2015-10-03T11:22:26Z</time>
      </trkpt>
      <trkpt lat="47.44948" lon="6.67017">
        <ele>296.831</ele>
        <time>2015-10-03T11:22:27Z</time>
      </trkpt>
      <trkpt lat="47.44948" lon="6.67023">
        <ele>296.93</ele>
        <time>2015-10-03T11:22:28Z</time>
      </trkpt>
      <trkpt lat="47.44949" lon="6.67029">
        <ele>297.217</ele>
        <time>2015-10-03T11:22:29Z</time>
      </trkpt>
      <trkpt lat="47.44949" lon="6.67035">
        <ele>296.463</ele>
        <time>2015-10-03T11:22:30Z</time>
      </trkpt>
      <trkpt lat="47.4495" lon="6.67041">
        <ele>295.811</ele>
        <time>2015-10-03T11:22:31Z</time>
      </trkpt>
      <trkpt lat="47.4495" lon="6.67047">
        <ele>295.578</ele>
        <time>2015-10-03T11:22:32Z</time>
      </trkpt>
      <trkpt lat="47.44951" lon="6.67054">
        <ele>295.273</ele>
        <time>2015-10-03T11:22:33Z</time>
      </trkpt>
      <trkpt lat="47.44951" lon="6.6706">
        <ele>294.775</ele>
        <time>2015-10-03T11:22:34Z</time>
      </trkpt>
      <trkpt lat="47.44952" lon="6.67066">
        <ele>296.048</ele>
        <time>2015-10-03T11:22:35Z</time>
      </trkpt>
      <trkpt lat="47.44952" lon="6.67072">
        <ele>295.033</ele>
        <time>2015-10-03T11:22:36Z</time>
      </trkpt>
      <trkpt lat="47.44953" lon="6.67079">
        <ele>294.933</ele>
        <time>2015-10-03T11:22:37Z</time>
      </trkpt>
      <trkpt lat="47.44953" lon="6.67085">
        <ele>294.546</ele>
        <time>2015-10-03T11:22:38Z</time>
      </trkpt>
      <trkpt lat="47.44954" lon="6.67091">
        <ele>294.339</ele>
        <time>2015-10-03T11:22:39Z</time>
      </trkpt>
      <trkpt lat="47.44955" lon="6.67097">
        <ele>294.303</ele>
        <time>2015-10-03T11:22:40Z</time>
      </trkpt>
      <trkpt lat="47.44955" lon="6.67103">
        <ele>295.05</ele>
        <time>2015-10-03T11:22:41Z</time>
      </trkpt>
      <trkpt lat="47.44956" lon="6.67109">
        <ele>294.83</ele>
        <time>2015-10-03T11:22:42Z</time>
      </trkpt>
      <trkpt lat="47.44957" lon="6.67114">
        <ele>294.385</ele>
        <time>2015-10-03T11:22:43Z</time>
      </trkpt>
      <trkpt lat="47.44957" lon="6.67119">
        <ele>295.046</ele>
        <time>2015-10-03T11:22:44Z</time>
      </trkpt>
      <trkpt lat="47.44958" lon="6.67125">
        <ele>295.062</ele>
        <time>2015-10-03T11:22:45Z</time>
      </trkpt>
      <trkpt lat="47.44958" lon="6.6713">
        <ele>295.217</ele>
        <time>2015-10-03T11:22:46Z</time>
      </trkpt>
      <trkpt lat="47.44958" lon="6.67135">
        <ele>295.895</ele>
        <time>2015-10-03T11:22:47Z</time>
      </trkpt>
      <trkpt lat="47.44959" lon="6.67141">
        <ele>296.043</ele>
        <time>2015-10-03T11:22:48Z</time>
      </trkpt>
      <trkpt lat="47.44959" lon="6.67147">
        <ele>295.507</ele>
        <time>2015-10-03T11:22:49Z</time>
      </trkpt>
      <trkpt lat="47.44959" lon="6.67153">
        <ele>295.593</ele>
        <time>2015-10-03T11:22:50Z</time>
      </trkpt>
      <trkpt lat="47.4496" lon="6.67159">
        <ele>295.479</ele>
        <time>2015-10-03T11:22:51Z</time>
      </trkpt>
      <trkpt lat="47.4496" lon="6.67165">
        <ele>294.993</ele>
        <time>2015-10-03T11:22:52Z</time>
      </trkpt>
      <trkpt lat="47.44961" lon="6.67171">
        <ele>295.655</ele>
        <time>2015-10-03T11:22:53Z</time>
      </trkpt>
      <trkpt lat="47.44961" lon="6.67178">
        <ele>295.878</ele>
        <time>2015-10-03T11:22:54Z</time>
      </trkpt>
      <trkpt lat="47.44961" lon="6.67184">
        <ele>297.759</ele>
        <time>2015-10-03T11:22:55Z</time>
      </trkpt>
      <trkpt lat="47.44962" lon="6.6719">
        <ele>297.947</ele>
        <time>2015-10-03T11:22:56Z</time>
      </trkpt>
      <trkpt lat="47.44962" lon="6.67195">
        <ele>298.714</ele>
        <time>2015-10-03T11:22:57Z</time>
      </trkpt>
      <trkpt lat="47.44963" lon="6.67201">
        <ele>298.379</ele>
        <time>2015-10-03T11:22:58Z</time>
      </trkpt>
      <trkpt lat="47.44963" lon="6.67207">
        <ele>299.052</ele>
        <time>2015-10-03T11:22:59Z</time>
      </trkpt>
      <trkpt lat="47.44964" lon="6.67213">
        <ele>298.931</ele>
        <time>2015-10-03T11:23:00Z</time>
      </trkpt>
      <trkpt lat="47.44965" lon="6.67219">
        <ele>299.066</ele>
        <time>2015-10-03T11:23:01Z</time>
      </trkpt>
      <trkpt lat="47.44965" lon="6.67225">
        <ele>299.807</ele>
        <time>2015-10-03T11:23:02Z</time>
      </trkpt>
      <trkpt lat="47.44966" lon="6.67231">
        <ele>299.729</ele>
        <time>2015-10-03T11:23:03Z</time>
      </trkpt>
      <trkpt lat="47.44967" lon="6.67237">
        <ele>299.271</ele>
        <time>2015-10-03T11:23:04Z</time>
      </trkpt>
      <trkpt lat="47.44967" lon="6.67243">
        <ele>299.016</ele>
        <time>2015-10-03T11:23:05Z</time>
      </trkpt>
      <trkpt lat="47.44968" lon="6.67248">
        <ele>299.852</ele>
        <time>2015-10-03T11:23:06Z</time>
      </trkpt>
      <trkpt lat="47.44968" lon="6.67254">
        <ele>299.597</ele>
        <time>2015-10-03T11:23:07Z</time>
      </trkpt>
      <trkpt lat="47.44969" lon="6.67259">
        <ele>299.423</ele>
        <time>2015-10-03T11:23:08Z</time>
      </trkpt>
      <trkpt lat="47.44969" lon="6.67265">
        <ele>299.745</ele>
        <time>2015-10-03T11:23:09Z</time>
      </trkpt>
      <trkpt lat="47.4497" lon="6.6727">
        <ele>299.571</ele>
        <time>2015-10-03T11:23:10Z</time>
      </trkpt>
      <trkpt lat="47.4497" lon="6.67276">
        <ele>299.333</ele>
        <time>2015-10-03T11:23:11Z</time>
      </trkpt>
      <trkpt lat="47.4497" lon="6.67281">
        <ele>298.313</ele>
        <time>2015-10-03T11:23:12Z</time>
      </trkpt>
      <trkpt lat="47.44971" lon="6.67287">
        <ele>298.287</ele>
        <time>2015-10-03T11:23:13Z</time>
      </trkpt>
      <trkpt lat="47.44971" lon="6.67293">
        <ele>297.521</ele>
        <time>2015-10-03T11:23:14Z</time>
      </trkpt>
      <trkpt lat="47.44972" lon="6.67299">
        <ele>297.728</ele>
        <time>2015-10-03T11:23:15Z</time>
      </trkpt>
      <trkpt lat="47.44972" lon="6.67304">
        <ele>297.824</ele>
        <time>2015-10-03T11:23:16Z</time>
      </trkpt>
      <trkpt lat="47.44973" lon="6.6731">
        <ele>296.987</ele>
        <time>2015-10-03T11:23:17Z</time>
      </trkpt>
      <trkpt lat="47.44973" lon="6.67316">
        <ele>297.084</ele>
        <time>2015-10-03T11:23:18Z</time>
      </trkpt>
      <trkpt lat="47.44973" lon="6.67322">
        <ele>297.237</ele>
        <time>2015-10-03T11:23:19Z</time>
      </trkpt>
      <trkpt lat="47.44973" lon="6.67328">
        <ele>297.17</ele>
        <time>2015-10-03T11:23:20Z</time>
      </trkpt>
      <trkpt lat="47.44973" lon="6.67334">
        <ele>296.5</ele>
        <time>2015-10-03T11:23:21Z</time>
      </trkpt>
      <trkpt lat="47.44974" lon="6.6734">
        <ele>296.919</ele>
        <time>2015-10-03T11:23:22Z</time>
      </trkpt>
      <trkpt lat="47.44974" lon="6.67345">
        <ele>297.116</ele>
        <time>2015-10-03T11:23:23Z</time>
      </trkpt>
      <trkpt lat="47.44975" lon="6.6735">
        <ele>297.931</ele>
        <time>2015-10-03T11:23:24Z</time>
      </trkpt>
      <trkpt lat="47.44975" lon="6.67355">
        <ele>297.986</ele>
        <time>2015-10-03T11:23:25Z</time>
      </trkpt>
      <trkpt lat="47.44975" lon="6.67361">
        <ele>298.446</ele>
        <time>2015-10-03T11:23:26Z</time>
      </trkpt>
      <trkpt lat="47.44975" lon="6.67367">
        <ele>299.767</ele>
        <time>2015-10-03T11:23:27Z</time>
      </trkpt>
      <trkpt lat="47.44976" lon="6.67372">
        <ele>299.804</ele>
        <time>2015-10-03T11:23:28Z</time>
      </trkpt>
      <trkpt lat="47.44976" lon="6.67378">
        <ele>299.938</ele>
        <time>2015-10-03T11:23:29Z</time>
      </trkpt>
      <trkpt lat="47.44977" lon="6.67384">
        <ele>299.859</ele>
        <time>2015-10-03T11:23:30Z</time>
      </trkpt>
      <trkpt lat="47.44977" lon="6.67391">
        <ele>300.094</ele>
        <time>2015-10-03T11:23:31Z</time>
      </trkpt>
      <trkpt lat="47.44978" lon="6.67397">
        <ele>300.744</ele>
        <time>2015-10-03T11:23:32Z</time>
      </trkpt>
      <trkpt lat="47.44979" lon="6.67403">
        <ele>301.623</ele>
        <time>2015-10-03T11:23:33Z</time>
      </trkpt>
      <trkpt lat="47.4498" lon="6.67409">
        <ele>301.561</ele>
        <time>2015-10-03T11:23:34Z</time>
      </trkpt>
      <trkpt lat="47.4498" lon="6.67414">
        <ele>302.211</ele>
        <time>2015-10-03T11:23:35Z</time>
      </trkpt>
      <trkpt lat="47.44981" lon="6.6742">
        <ele>302.871</ele>
        <time>2015-10-03T11:23:36Z</time>
      </trkpt>
      <trkpt lat="47.44981" lon="6.67427">
        <ele>301.764</ele>
        <time>2015-10-03T11:23:37Z</time>
      </trkpt>
      <trkpt lat="47.44982" lon="6.67433">
        <ele>301.469</ele>
        <time>2015-10-03T11:23:38Z</time>
      </trkpt>
      <trkpt lat="47.44983" lon="6.6744">
        <ele>301.425</ele>
        <time>2015-10-03T11:23:39Z</time>
      </trkpt>
      <trkpt lat="47.44984" lon="6.67446">
        <ele>301.749</ele>
        <time>2015-10-03T11:23:40Z</time>
      </trkpt>
      <trkpt lat="47.44986" lon="6.67455">
        <ele>300.629</ele>
        <time>2015-10-03T11:23:41Z</time>
      </trkpt>
      <trkpt lat="47.44986" lon="6.67461">
        <ele>300.603</ele>
        <time>2015-10-03T11:23:42Z</time>
      </trkpt>
      <trkpt lat="47.44986" lon="6.67468">
        <ele>300.758</ele>
        <time>2015-10-03T11:23:43Z</time>
      </trkpt>
      <trkpt lat="47.44986" lon="6.67474">
        <ele>301.826</ele>
        <time>2015-10-03T11:23:44Z</time>
      </trkpt>
      <trkpt lat="47.44987" lon="6.67482">
        <ele>304.655</ele>
        <time>2015-10-03T11:23:45Z</time>
      </trkpt>
      <trkpt lat="47.44987" lon="6.67489">
        <ele>304.997</ele>
        <time>2015-10-03T11:23:46Z</time>
      </trkpt>
      <trkpt lat="47.44987" lon="6.67494">
        <ele>305.088</ele>
        <time>2015-10-03T11:23:47Z</time>
      </trkpt>
      <trkpt lat="47.44988" lon="6.67501">
        <ele>304.285</ele>
        <time>2015-10-03T11:23:48Z</time>
      </trkpt>
      <trkpt lat="47.44989" lon="6.67507">
        <ele>305.087</ele>
        <time>2015-10-03T11:23:49Z</time>
      </trkpt>
      <trkpt lat="47.44989" lon="6.67513">
        <ele>304.525</ele>
        <time>2015-10-03T11:23:50Z</time>
      </trkpt>
      <trkpt lat="47.4499" lon="6.67518">
        <ele>303.769</ele>
        <time>2015-10-03T11:23:51Z</time>
      </trkpt>
      <trkpt lat="47.4499" lon="6.67525">
        <ele>302.741</ele>
        <time>2015-10-03T11:23:52Z</time>
      </trkpt>
      <trkpt lat="47.44991" lon="6.6753">
        <ele>302.794</ele>
        <time>2015-10-03T11:23:53Z</time>
      </trkpt>
      <trkpt lat="47.44991" lon="6.67535">
        <ele>302.761</ele>
        <time>2015-10-03T11:23:54Z</time>
      </trkpt>
      <trkpt lat="47.44992" lon="6.6754">
        <ele>303.826</ele>
        <time>2015-10-03T11:23:55Z</time>
      </trkpt>
      <trkpt lat="47.44993" lon="6.67545">
        <ele>303.298</ele>
        <time>2015-10-03T11:23:56Z</time>
      </trkpt>
      <trkpt lat="47.44993" lon="6.6755">
        <ele>303.068</ele>
        <time>2015-10-03T11:23:57Z</time>
      </trkpt>
      <trkpt lat="47.44994" lon="6.67555">
        <ele>301.911</ele>
        <time>2015-10-03T11:23:58Z</time>
      </trkpt>
      <trkpt lat="47.44995" lon="6.67559">
        <ele>301.363</ele>
        <time>2015-10-03T11:23:59Z</time>
      </trkpt>
      <trkpt lat="47.44995" lon="6.67564">
        <ele>299.265</ele>
        <time>2015-10-03T11:24:00Z</time>
      </trkpt>
      <trkpt lat="47.44996" lon="6.67569">
        <ele>298.547</ele>
        <time>2015-10-03T11:24:01Z</time>
      </trkpt>
      <trkpt lat="47.44996" lon="6.67575">
        <ele>298.552</ele>
        <time>2015-10-03T11:24:02Z</time>
      </trkpt>
      <trkpt lat="47.44996" lon="6.67579">
        <ele>298.012</ele>
        <time>2015-10-03T11:24:03Z</time>
      </trkpt>
      <trkpt lat="47.44996" lon="6.67584">
        <ele>298.291</ele>
        <time>2015-10-03T11:24:04Z</time>
      </trkpt>
      <trkpt lat="47.44995" lon="6.67589">
        <ele>297.759</ele>
        <time>2015-10-03T11:24:05Z</time>
      </trkpt>
      <trkpt lat="47.44995" lon="6.67595">
        <ele>297.397</ele>
        <time>2015-10-03T11:24:06Z</time>
      </trkpt>
      <trkpt lat="47.44996" lon="6.676">
        <ele>297.64</ele>
        <time>2015-10-03T11:24:07Z</time>
      </trkpt>
      <trkpt lat="47.44996" lon="6.67604">
        <ele>298.461</ele>
        <time>2015-10-03T11:24:08Z</time>
      </trkpt>
      <trkpt lat="47.44996" lon="6.67609">
        <ele>298.907</ele>
        <time>2015-10-03T11:24:09Z</time>
      </trkpt>
      <trkpt lat="47.44997" lon="6.67614">
        <ele>299.02</ele>
        <time>2015-10-03T11:24:10Z</time>
      </trkpt>
      <trkpt lat="47.44997" lon="6.67619">
        <ele>298.93</ele>
        <time>2015-10-03T11:24:11Z</time>
      </trkpt>
      <trkpt lat="47.44997" lon="6.67624">
        <ele>298.67</ele>
        <time>2015-10-03T11:24:12Z</time>
      </trkpt>
      <trkpt lat="47.44998" lon="6.6763">
        <ele>296.674</ele>
        <time>2015-10-03T11:24:13Z</time>
      </trkpt>
      <trkpt lat="47.44999" lon="6.67636">
        <ele>296.15</ele>
        <time>2015-10-03T11:24:14Z</time>
      </trkpt>
      <trkpt lat="47.45" lon="6.67642">
        <ele>296.777</ele>
        <time>2015-10-03T11:24:15Z</time>
      </trkpt>
      <trkpt lat="47.45001" lon="6.67647">
        <ele>297.789</ele>
        <time>2015-10-03T11:24:16Z</time>
      </trkpt>
      <trkpt lat="47.45001" lon="6.67652">
        <ele>298.002</ele>
        <time>2015-10-03T11:24:17Z</time>
      </trkpt>
      <trkpt lat="47.45002" lon="6.67657">
        <ele>296.5</ele>
        <time>2015-10-03T11:24:18Z</time>
      </trkpt>
      <trkpt lat="47.45002" lon="6.67662">
        <ele>296.401</ele>
        <time>2015-10-03T11:24:19Z</time>
      </trkpt>
      <trkpt lat="47.45003" lon="6.67667">
        <ele>296.118</ele>
        <time>2015-10-03T11:24:20Z</time>
      </trkpt>
      <trkpt lat="47.45003" lon="6.67672">
        <ele>296.278</ele>
        <time>2015-10-03T11:24:21Z</time>
      </trkpt>
      <trkpt lat="47.45003" lon="6.67676">
        <ele>297.437</ele>
        <time>2015-10-03T11:24:22Z</time>
      </trkpt>
      <trkpt lat="47.45004" lon="6.6768">
        <ele>296.997</ele>
        <time>2015-10-03T11:24:23Z</time>
      </trkpt>
      <trkpt lat="47.45004" lon="6.67684">
        <ele>296.769</ele>
        <time>2015-10-03T11:24:24Z</time>
      </trkpt>
      <trkpt lat="47.45005" lon="6.67689">
        <ele>297.264</ele>
        <time>2015-10-03T11:24:25Z</time>
      </trkpt>
      <trkpt lat="47.45005" lon="6.67694">
        <ele>296.538</ele>
        <time>2015-10-03T11:24:26Z</time>
      </trkpt>
      <trkpt lat="47.45006" lon="6.67699">
        <ele>296.633</ele>
        <time>2015-10-03T11:24:27Z</time>
      </trkpt>
      <trkpt lat="47.45006" lon="6.67703">
        <ele>297.038</ele>
        <time>2015-10-03T11:24:28Z</time>
      </trkpt>
      <trkpt lat="47.45006" lon="6.67708">
        <ele>297.452</ele>
        <time>2015-10-03T11:24:29Z</time>
      </trkpt>
      <trkpt lat="47.45006" lon="6.67713">
        <ele>297.208</ele>
        <time>2015-10-03T11:24:30Z</time>
      </trkpt>
      <trkpt lat="47.45006" lon="6.67717">
        <ele>297.523</ele>
        <time>2015-10-03T11:24:31Z</time>
      </trkpt>
      <trkpt lat="47.45007" lon="6.67723">
        <ele>297.036</ele>
        <time>2015-10-03T11:24:32Z</time>
      </trkpt>
      <trkpt lat="47.45007" lon="6.67728">
        <ele>297.545</ele>
        <time>2015-10-03T11:24:33Z</time>
      </trkpt>
      <trkpt lat="47.45007" lon="6.67734">
        <ele>297.764</ele>
        <time>2015-10-03T11:24:34Z</time>
      </trkpt>
      <trkpt lat="47.45007" lon="6.67739">
        <ele>298.477</ele>
        <time>2015-10-03T11:24:35Z</time>
      </trkpt>
      <trkpt lat="47.45007" lon="6.67744">
        <ele>298.123</ele>
        <time>2015-10-03T11:24:36Z</time>
      </trkpt>
      <trkpt lat="47.45008" lon="6.67749">
        <ele>298.158</ele>
        <time>2015-10-03T11:24:37Z</time>
      </trkpt>
      <trkpt lat="47.45008" lon="6.67755">
        <ele>297.878</ele>
        <time>2015-10-03T11:24:38Z</time>
      </trkpt>
      <trkpt lat="47.45008" lon="6.6776">
        <ele>298.594</ele>
        <time>2015-10-03T11:24:39Z</time>
      </trkpt>
      <trkpt lat="47.45008" lon="6.67765">
        <ele>298.71</ele>
        <time>2015-10-03T11:24:40Z</time>
      </trkpt>
      <trkpt lat="47.45009" lon="6.67771">
        <ele>298.652</ele>
        <time>2015-10-03T11:24:41Z</time>
      </trkpt>
      <trkpt lat="47.45009" lon="6.67776">
        <ele>298.809</ele>
        <time>2015-10-03T11:24:42Z</time>
      </trkpt>
      <trkpt lat="47.45009" lon="6.67781">
        <ele>299.239</ele>
        <time>2015-10-03T11:24:43Z</time>
      </trkpt>
      <trkpt lat="47.4501" lon="6.67787">
        <ele>298.811</ele>
        <time>2015-10-03T11:24:44Z</time>
      </trkpt>
      <trkpt lat="47.4501" lon="6.67793">
        <ele>298.593</ele>
        <time>2015-10-03T11:24:45Z</time>
      </trkpt>
      <trkpt lat="47.4501" lon="6.67798">
        <ele>298.41</ele>
        <time>2015-10-03T11:24:46Z</time>
      </trkpt>
      <trkpt lat="47.4501" lon="6.67803">
        <ele>298.491</ele>
        <time>2015-10-03T11:24:47Z</time>
      </trkpt>
      <trkpt lat="47.45011" lon="6.67809">
        <ele>299.131</ele>
        <time>2015-10-03T11:24:48Z</time>
      </trkpt>
      <trkpt lat="47.45011" lon="6.67814">
        <ele>299.86</ele>
        <time>2015-10-03T11:24:49Z</time>
      </trkpt>
      <trkpt lat="47.45011" lon="6.67819">
        <ele>300.132</ele>
        <time>2015-10-03T11:24:50Z</time>
      </trkpt>
      <trkpt lat="47.45012" lon="6.67824">
        <ele>300.324</ele>
        <time>2015-10-03T11:24:51Z</time>
      </trkpt>
      <trkpt lat="47.45013" lon="6.67829">
        <ele>299.664</ele>
        <time>2015-10-03T11:24:52Z</time>
      </trkpt>
      <trkpt lat="47.45013" lon="6.67834">
        <ele>300.165</ele>
        <time>2015-10-03T11:24:53Z</time>
      </trkpt>
      <trkpt lat="47.45014" lon="6.6784">
        <ele>299.872</ele>
        <time>2015-10-03T11:24:54Z</time>
      </trkpt>
      <trkpt lat="47.45014" lon="6.67845">
        <ele>300.039</ele>
        <time>2015-10-03T11:24:55Z</time>
      </trkpt>
      <trkpt lat="47.45015" lon="6.67851">
        <ele>299.48</ele>
        <time>2015-10-03T11:24:56Z</time>
      </trkpt>
      <trkpt lat="47.45016" lon="6.67856">
        <ele>298.865</ele>
        <time>2015-10-03T11:24:57Z</time>
      </trkpt>
      <trkpt lat="47.45016" lon="6.67861">
        <ele>299.189</ele>
        <time>2015-10-03T11:24:58Z</time>
      </trkpt>
      <trkpt lat="47.45017" lon="6.67866">
        <ele>300.915</ele>
        <time>2015-10-03T11:24:59Z</time>
      </trkpt>
      <trkpt lat="47.45017" lon="6.67871">
        <ele>301.225</ele>
        <time>2015-10-03T11:25:00Z</time>
      </trkpt>
      <trkpt lat="47.45018" lon="6.67877">
        <ele>301.538</ele>
        <time>2015-10-03T11:25:01Z</time>
      </trkpt>
      <trkpt lat="47.45018" lon="6.67882">
        <ele>303.646</ele>
        <time>2015-10-03T11:25:02Z</time>
      </trkpt>
      <trkpt lat="47.45019" lon="6.67887">
        <ele>304.622</ele>
        <time>2015-10-03T11:25:03Z</time>
      </trkpt>
      <trkpt lat="47.45019" lon="6.67893">
        <ele>304.482</ele>
        <time>2015-10-03T11:25:04Z</time>
      </trkpt>
      <trkpt lat="47.4502" lon="6.67898">
        <ele>304.131</ele>
        <time>2015-10-03T11:25:05Z</time>
      </trkpt>
      <trkpt lat="47.45021" lon="6.67903">
        <ele>303.721</ele>
        <time>2015-10-03T11:25:06Z</time>
      </trkpt>
      <trkpt lat="47.45022" lon="6.67909">
        <ele>303.039</ele>
        <time>2015-10-03T11:25:07Z</time>
      </trkpt>
      <trkpt lat="47.45022" lon="6.67914">
        <ele>303.3</ele>
        <time>2015-10-03T11:25:08Z</time>
      </trkpt>
      <trkpt lat="47.45023" lon="6.67919">
        <ele>303.431</ele>
        <time>2015-10-03T11:25:09Z</time>
      </trkpt>
      <trkpt lat="47.45024" lon="6.67925">
        <ele>302.948</ele>
        <time>2015-10-03T11:25:10Z</time>
      </trkpt>
      <trkpt lat="47.45025" lon="6.6793">
        <ele>303.746</ele>
        <time>2015-10-03T11:25:11Z</time>
      </trkpt>
      <trkpt lat="47.45026" lon="6.67936">
        <ele>303.161</ele>
        <time>2015-10-03T11:25:12Z</time>
      </trkpt>
      <trkpt lat="47.45027" lon="6.67941">
        <ele>303.539</ele>
        <time>2015-10-03T11:25:13Z</time>
      </trkpt>
      <trkpt lat="47.45027" lon="6.67946">
        <ele>303.871</ele>
        <time>2015-10-03T11:25:14Z</time>
      </trkpt>
      <trkpt lat="47.45028" lon="6.67952">
        <ele>303.282</ele>
        <time>2015-10-03T11:25:15Z</time>
      </trkpt>
      <trkpt lat="47.45029" lon="6.67957">
        <ele>303.527</ele>
        <time>2015-10-03T11:25:16Z</time>
      </trkpt>
      <trkpt lat="47.4503" lon="6.67962">
        <ele>304.211</ele>
        <time>2015-10-03T11:25:17Z</time>
      </trkpt>
      <trkpt lat="47.45031" lon="6.67967">
        <ele>302.477</ele>
        <time>2015-10-03T11:25:18Z</time>
      </trkpt>
      <trkpt lat="47.45032" lon="6.67973">
        <ele>303.156</ele>
        <time>2015-10-03T11:25:19Z</time>
      </trkpt>
      <trkpt lat="47.45034" lon="6.67978">
        <ele>303.759</ele>
        <time>2015-10-03T11:25:20Z</time>
      </trkpt>
      <trkpt lat="47.45035" lon="6.67983">
        <ele>304.177</ele>
        <time>2015-10-03T11:25:21Z</time>
      </trkpt>
      <trkpt lat="47.45036" lon="6.67989">
        <ele>304.124</ele>
        <time>2015-10-03T11:25:22Z</time>
      </trkpt>
      <trkpt lat="47.45037" lon="6.67995">
        <ele>303.815</ele>
        <time>2015-10-03T11:25:23Z</time>
      </trkpt>
      <trkpt lat="47.45038" lon="6.68001">
        <ele>304.836</ele>
        <time>2015-10-03T11:25:24Z</time>
      </trkpt>
      <trkpt lat="47.45039" lon="6.68006">
        <ele>304.419</ele>
        <time>2015-10-03T11:25:25Z</time>
      </trkpt>
      <trkpt lat="47.4504" lon="6.68011">
        <ele>304.449</ele>
        <time>2015-10-03T11:25:26Z</time>
      </trkpt>
      <trkpt lat="47.4504" lon="6.68017">
        <ele>305.117</ele>
        <time>2015-10-03T11:25:27Z</time>
      </trkpt>
      <trkpt lat="47.45041" lon="6.68022">
        <ele>305.313</ele>
        <time>2015-10-03T11:25:28Z</time>
      </trkpt>
      <trkpt lat="47.45042" lon="6.68028">
        <ele>305.509</ele>
        <time>2015-10-03T11:25:29Z</time>
      </trkpt>
      <trkpt lat="47.45043" lon="6.68034">
        <ele>305.36</ele>
        <time>2015-10-03T11:25:30Z</time>
      </trkpt>
      <trkpt lat="47.45044" lon="6.68039">
        <ele>305.627</ele>
        <time>2015-10-03T11:25:31Z</time>
      </trkpt>
      <trkpt lat="47.45045" lon="6.68044">
        <ele>306.72</ele>
        <time>2015-10-03T11:25:32Z</time>
      </trkpt>
      <trkpt lat="47.45045" lon="6.68049">
        <ele>307.381</ele>
        <time>2015-10-03T11:25:33Z</time>
      </trkpt>
      <trkpt lat="47.45046" lon="6.68054">
        <ele>308.003</ele>
        <time>2015-10-03T11:25:34Z</time>
      </trkpt>
      <trkpt lat="47.45047" lon="6.6806">
        <ele>307.006</ele>
        <time>2015-10-03T11:25:35Z</time>
      </trkpt>
      <trkpt lat="47.45048" lon="6.68065">
        <ele>306.776</ele>
        <time>2015-10-03T11:25:36Z</time>
      </trkpt>
      <trkpt lat="47.45049" lon="6.6807">
        <ele>307.209</ele>
        <time>2015-10-03T11:25:37Z</time>
      </trkpt>
      <trkpt lat="47.4505" lon="6.68075">
        <ele>307.178</ele>
        <time>2015-10-03T11:25:38Z</time>
      </trkpt>
      <trkpt lat="47.45051" lon="6.6808">
        <ele>308.1</ele>
        <time>2015-10-03T11:25:39Z</time>
      </trkpt>
      <trkpt lat="47.45053" lon="6.68085">
        <ele>307.438</ele>
        <time>2015-10-03T11:25:40Z</time>
      </trkpt>
      <trkpt lat="47.45054" lon="6.6809">
        <ele>307.964</ele>
        <time>2015-10-03T11:25:41Z</time>
      </trkpt>
      <trkpt lat="47.45056" lon="6.68095">
        <ele>307.768</ele>
        <time>2015-10-03T11:25:42Z</time>
      </trkpt>
      <trkpt lat="47.45057" lon="6.68101">
        <ele>306.404</ele>
        <time>2015-10-03T11:25:43Z</time>
      </trkpt>
      <trkpt lat="47.45059" lon="6.68105">
        <ele>307.487</ele>
        <time>2015-10-03T11:25:44Z</time>
      </trkpt>
      <trkpt lat="47.4506" lon="6.6811">
        <ele>307.688</ele>
        <time>2015-10-03T11:25:45Z</time>
      </trkpt>
      <trkpt lat="47.45062" lon="6.68115">
        <ele>307.704</ele>
        <time>2015-10-03T11:25:46Z</time>
      </trkpt>
      <trkpt lat="47.45063" lon="6.6812">
        <ele>307.729</ele>
        <time>2015-10-03T11:25:47Z</time>
      </trkpt>
      <trkpt lat="47.45065" lon="6.68125">
        <ele>308.169</ele>
        <time>2015-10-03T11:25:48Z</time>
      </trkpt>
      <trkpt lat="47.45066" lon="6.68131">
        <ele>308.298</ele>
        <time>2015-10-03T11:25:49Z</time>
      </trkpt>
      <trkpt lat="47.45068" lon="6.68136">
        <ele>308.436</ele>
        <time>2015-10-03T11:25:50Z</time>
      </trkpt>
      <trkpt lat="47.45069" lon="6.68141">
        <ele>307.453</ele>
        <time>2015-10-03T11:25:51Z</time>
      </trkpt>
      <trkpt lat="47.45071" lon="6.68146">
        <ele>306.873</ele>
        <time>2015-10-03T11:25:52Z</time>
      </trkpt>
      <trkpt lat="47.45073" lon="6.68152">
        <ele>306.811</ele>
        <time>2015-10-03T11:25:53Z</time>
      </trkpt>
      <trkpt lat="47.45074" lon="6.68158">
        <ele>306.575</ele>
        <time>2015-10-03T11:25:54Z</time>
      </trkpt>
      <trkpt lat="47.45076" lon="6.68163">
        <ele>306.149</ele>
        <time>2015-10-03T11:25:55Z</time>
      </trkpt>
      <trkpt lat="47.45077" lon="6.68169">
        <ele>305.958</ele>
        <time>2015-10-03T11:25:56Z</time>
      </trkpt>
      <trkpt lat="47.45079" lon="6.68174">
        <ele>306.261</ele>
        <time>2015-10-03T11:25:57Z</time>
      </trkpt>
      <trkpt lat="47.45081" lon="6.6818">
        <ele>306.493</ele>
        <time>2015-10-03T11:25:58Z</time>
      </trkpt>
      <trkpt lat="47.45083" lon="6.68186">
        <ele>306.462</ele>
        <time>2015-10-03T11:25:59Z</time>
      </trkpt>
      <trkpt lat="47.45084" lon="6.68191">
        <ele>306.322</ele>
        <time>2015-10-03T11:26:00Z</time>
      </trkpt>
      <trkpt lat="47.45086" lon="6.68196">
        <ele>305.692</ele>
        <time>2015-10-03T11:26:01Z</time>
      </trkpt>
      <trkpt lat="47.45088" lon="6.68201">
        <ele>306.545</ele>
        <time>2015-10-03T11:26:02Z</time>
      </trkpt>
      <trkpt lat="47.45089" lon="6.68206">
        <ele>306.658</ele>
        <time>2015-10-03T11:26:03Z</time>
      </trkpt>
      <trkpt lat="47.4509" lon="6.68211">
        <ele>307.656</ele>
        <time>2015-10-03T11:26:04Z</time>
      </trkpt>
      <trkpt lat="47.45092" lon="6.68216">
        <ele>307.37</ele>
        <time>2015-10-03T11:26:05Z</time>
      </trkpt>
      <trkpt lat="47.45093" lon="6.68221">
        <ele>306.832</ele>
        <time>2015-10-03T11:26:06Z</time>
      </trkpt>
      <trkpt lat="47.45095" lon="6.68226">
        <ele>307.421</ele>
        <time>2015-10-03T11:26:07Z</time>
      </trkpt>
      <trkpt lat="47.45096" lon="6.68232">
        <ele>307.69</ele>
        <time>2015-10-03T11:26:08Z</time>
      </trkpt>
      <trkpt lat="47.45098" lon="6.68237">
        <ele>307.449</ele>
        <time>2015-10-03T11:26:09Z</time>
      </trkpt>
      <trkpt lat="47.451" lon="6.68242">
        <ele>308.241</ele>
        <time>2015-10-03T11:26:10Z</time>
      </trkpt>
      <trkpt lat="47.45102" lon="6.68247">
        <ele>308.657</ele>
        <time>2015-10-03T11:26:11Z</time>
      </trkpt>
      <trkpt lat="47.45103" lon="6.68252">
        <ele>309.322</ele>
        <time>2015-10-03T11:26:12Z</time>
      </trkpt>
      <trkpt lat="47.45105" lon="6.68257">
        <ele>309.434</ele>
        <time>2015-10-03T11:26:13Z</time>
      </trkpt>
      <trkpt lat="47.45107" lon="6.68262">
        <ele>309.79</ele>
        <time>2015-10-03T11:26:14Z</time>
      </trkpt>
      <trkpt lat="47.45108" lon="6.68267">
        <ele>309.406</ele>
        <time>2015-10-03T11:26:15Z</time>
      </trkpt>
      <trkpt lat="47.4511" lon="6.68272">
        <ele>309.442</ele>
        <time>2015-10-03T11:26:16Z</time>
      </trkpt>
      <trkpt lat="47.45112" lon="6.68277">
        <ele>310.211</ele>
        <time>2015-10-03T11:26:17Z</time>
      </trkpt>
      <trkpt lat="47.45114" lon="6.68281">
        <ele>310.498</ele>
        <time>2015-10-03T11:26:18Z</time>
      </trkpt>
      <trkpt lat="47.45116" lon="6.68286">
        <ele>310.323</ele>
        <time>2015-10-03T11:26:19Z</time>
      </trkpt>
      <trkpt lat="47.45117" lon="6.6829">
        <ele>310.206</ele>
        <time>2015-10-03T11:26:20Z</time>
      </trkpt>
      <trkpt lat="47.45119" lon="6.68295">
        <ele>309.829</ele>
        <time>2015-10-03T11:26:21Z</time>
      </trkpt>
      <trkpt lat="47.45121" lon="6.683">
        <ele>310.49</ele>
        <time>2015-10-03T11:26:22Z</time>
      </trkpt>
      <trkpt lat="47.45123" lon="6.68305">
        <ele>309.353</ele>
        <time>2015-10-03T11:26:23Z</time>
      </trkpt>
      <trkpt lat="47.45125" lon="6.6831">
        <ele>308.534</ele>
        <time>2015-10-03T11:26:24Z</time>
      </trkpt>
      <trkpt lat="47.45127" lon="6.68315">
        <ele>308.64</ele>
        <time>2015-10-03T11:26:25Z</time>
      </trkpt>
      <trkpt lat="47.45129" lon="6.6832">
        <ele>307.556</ele>
        <time>2015-10-03T11:26:26Z</time>
      </trkpt>
      <trkpt lat="47.45131" lon="6.68324">
        <ele>307.688</ele>
        <time>2015-10-03T11:26:27Z</time>
      </trkpt>
      <trkpt lat="47.45133" lon="6.68329">
        <ele>308.217</ele>
        <time>2015-10-03T11:26:28Z</time>
      </trkpt>
      <trkpt lat="47.45135" lon="6.68333">
        <ele>308.681</ele>
        <time>2015-10-03T11:26:29Z</time>
      </trkpt>
      <trkpt lat="47.45137" lon="6.68337">
        <ele>308.276</ele>
        <time>2015-10-03T11:26:30Z</time>
      </trkpt>
      <trkpt lat="47.45139" lon="6.68342">
        <ele>308.566</ele>
        <time>2015-10-03T11:26:31Z</time>
      </trkpt>
      <trkpt lat="47.45141" lon="6.68347">
        <ele>308.858</ele>
        <time>2015-10-03T11:26:32Z</time>
      </trkpt>
      <trkpt lat="47.45144" lon="6.68351">
        <ele>308.875</ele>
        <time>2015-10-03T11:26:33Z</time>
      </trkpt>
      <trkpt lat="47.45146" lon="6.68356">
        <ele>309.388</ele>
        <time>2015-10-03T11:26:34Z</time>
      </trkpt>
      <trkpt lat="47.45148" lon="6.68361">
        <ele>308.339</ele>
        <time>2015-10-03T11:26:35Z</time>
      </trkpt>
      <trkpt lat="47.45151" lon="6.68366">
        <ele>307.962</ele>
        <time>2015-10-03T11:26:36Z</time>
      </trkpt>
      <trkpt lat="47.45153" lon="6.6837">
        <ele>308.487</ele>
        <time>2015-10-03T11:26:37Z</time>
      </trkpt>
      <trkpt lat="47.45155" lon="6.68375">
        <ele>308.681</ele>
        <time>2015-10-03T11:26:38Z</time>
      </trkpt>
      <trkpt lat="47.45158" lon="6.68379">
        <ele>308.42</ele>
        <time>2015-10-03T11:26:39Z</time>
      </trkpt>
      <trkpt lat="47.4516" lon="6.68383">
        <ele>308.708</ele>
        <time>2015-10-03T11:26:40Z</time>
      </trkpt>
      <trkpt lat="47.45162" lon="6.68388">
        <ele>308.191</ele>
        <time>2015-10-03T11:26:41Z</time>
      </trkpt>
      <trkpt lat="47.45164" lon="6.68393">
        <ele>308.039</ele>
        <time>2015-10-03T11:26:42Z</time>
      </trkpt>
      <trkpt lat="47.45166" lon="6.68397">
        <ele>308.144</ele>
        <time>2015-10-03T11:26:43Z</time>
      </trkpt>
      <trkpt lat="47.45168" lon="6.68401">
        <ele>308.491</ele>
        <time>2015-10-03T11:26:44Z</time>
      </trkpt>
      <trkpt lat="47.45171" lon="6.68406">
        <ele>308.804</ele>
        <time>2015-10-03T11:26:45Z</time>
      </trkpt>
      <trkpt lat="47.45173" lon="6.6841">
        <ele>309.254</ele>
        <time>2015-10-03T11:26:46Z</time>
      </trkpt>
      <trkpt lat="47.45175" lon="6.68414">
        <ele>310.437</ele>
        <time>2015-10-03T11:26:47Z</time>
      </trkpt>
      <trkpt lat="47.45177" lon="6.68419">
        <ele>310.551</ele>
        <time>2015-10-03T11:26:48Z</time>
      </trkpt>
      <trkpt lat="47.45179" lon="6.68423">
        <ele>310.938</ele>
        <time>2015-10-03T11:26:49Z</time>
      </trkpt>
      <trkpt lat="47.45181" lon="6.68427">
        <ele>309.6</ele>
        <time>2015-10-03T11:26:50Z</time>
      </trkpt>
      <trkpt lat="47.45184" lon="6.68431">
        <ele>309.824</ele>
        <time>2015-10-03T11:26:51Z</time>
      </trkpt>
      <trkpt lat="47.45186" lon="6.68435">
        <ele>308.907</ele>
        <time>2015-10-03T11:26:52Z</time>
      </trkpt>
      <trkpt lat="47.45188" lon="6.68439">
        <ele>310.384</ele>
        <time>2015-10-03T11:26:53Z</time>
      </trkpt>
      <trkpt lat="47.4519" lon="6.68444">
        <ele>309.549</ele>
        <time>2015-10-03T11:26:54Z</time>
      </trkpt>
      <trkpt lat="47.45193" lon="6.68449">
        <ele>308.854</ele>
        <time>2015-10-03T11:26:55Z</time>
      </trkpt>
      <trkpt lat="47.45195" lon="6.68454">
        <ele>308.817</ele>
        <time>2015-10-03T11:26:56Z</time>
      </trkpt>
      <trkpt lat="47.45197" lon="6.68459">
        <ele>309.092</ele>
        <time>2015-10-03T11:26:57Z</time>
      </trkpt>
      <trkpt lat="47.45199" lon="6.68463">
        <ele>309.095</ele>
        <time>2015-10-03T11:26:58Z</time>
      </trkpt>
      <trkpt lat="47.45202" lon="6.68468">
        <ele>308.342</ele>
        <time>2015-10-03T11:26:59Z</time>
      </trkpt>
      <trkpt lat="47.45205" lon="6.68472">
        <ele>309.014</ele>
        <time>2015-10-03T11:27:00Z</time>
      </trkpt>
      <trkpt lat="47.45207" lon="6.68477">
        <ele>309.261</ele>
        <time>2015-10-03T11:27:01Z</time>
      </trkpt>
      <trkpt lat="47.4521" lon="6.68481">
        <ele>309.495</ele>
        <time>2015-10-03T11:27:02Z</time>
      </trkpt>
      <trkpt lat="47.45212" lon="6.68485">
        <ele>310.403</ele>
        <time>2015-10-03T11:27:03Z</time>
      </trkpt>
      <trkpt lat="47.45214" lon="6.6849">
        <ele>310.573</ele>
        <time>2015-10-03T11:27:04Z</time>
      </trkpt>
      <trkpt lat="47.45217" lon="6.68494">
        <ele>310.238</ele>
        <time>2015-10-03T11:27:05Z</time>
      </trkpt>
      <trkpt lat="47.45219" lon="6.68498">
        <ele>310.866</ele>
        <time>2015-10-03T11:27:06Z</time>
      </trkpt>
      <trkpt lat="47.45222" lon="6.68502">
        <ele>310.725</ele>
        <time>2015-10-03T11:27:07Z</time>
      </trkpt>
      <trkpt lat="47.45225" lon="6.68506">
        <ele>310.66</ele>
        <time>2015-10-03T11:27:08Z</time>
      </trkpt>
      <trkpt lat="47.45227" lon="6.6851">
        <ele>309.837</ele>
        <time>2015-10-03T11:27:09Z</time>
      </trkpt>
      <trkpt lat="47.4523" lon="6.68514">
        <ele>310.071</ele>
        <time>2015-10-03T11:27:10Z</time>
      </trkpt>
      <trkpt lat="47.45232" lon="6.68519">
        <ele>310.465</ele>
        <time>2015-10-03T11:27:11Z</time>
      </trkpt>
      <trkpt lat="47.45235" lon="6.68524">
        <ele>310.679</ele>
        <time>2015-10-03T11:27:12Z</time>
      </trkpt>
      <trkpt lat="47.45237" lon="6.68528">
        <ele>310.279</ele>
        <time>2015-10-03T11:27:13Z</time>
      </trkpt>
      <trkpt lat="47.45238" lon="6.68532">
        <ele>310.613</ele>
        <time>2015-10-03T11:27:14Z</time>
      </trkpt>
      <trkpt lat="47.4524" lon="6.68537">
        <ele>310.644</ele>
        <time>2015-10-03T11:27:15Z</time>
      </trkpt>
      <trkpt lat="47.45243" lon="6.68541">
        <ele>310.445</ele>
        <time>2015-10-03T11:27:16Z</time>
      </trkpt>
      <trkpt lat="47.45246" lon="6.68545">
        <ele>310.963</ele>
        <time>2015-10-03T11:27:17Z</time>
      </trkpt>
      <trkpt lat="47.45249" lon="6.68549">
        <ele>311.222</ele>
        <time>2015-10-03T11:27:18Z</time>
      </trkpt>
      <trkpt lat="47.45251" lon="6.68552">
        <ele>310.862</ele>
        <time>2015-10-03T11:27:19Z</time>
      </trkpt>
      <trkpt lat="47.45254" lon="6.68555">
        <ele>309.434</ele>
        <time>2015-10-03T11:27:20Z</time>
      </trkpt>
      <trkpt lat="47.45257" lon="6.68559">
        <ele>309.338</ele>
        <time>2015-10-03T11:27:21Z</time>
      </trkpt>
      <trkpt lat="47.4526" lon="6.68562">
        <ele>308.432</ele>
        <time>2015-10-03T11:27:22Z</time>
      </trkpt>
      <trkpt lat="47.45263" lon="6.68566">
        <ele>307.949</ele>
        <time>2015-10-03T11:27:23Z</time>
      </trkpt>
      <trkpt lat="47.45266" lon="6.6857">
        <ele>308.183</ele>
        <time>2015-10-03T11:27:24Z</time>
      </trkpt>
      <trkpt lat="47.45269" lon="6.68573">
        <ele>307.63</ele>
        <time>2015-10-03T11:27:25Z</time>
      </trkpt>
      <trkpt lat="47.45272" lon="6.68577">
        <ele>308.257</ele>
        <time>2015-10-03T11:27:26Z</time>
      </trkpt>
      <trkpt lat="47.45275" lon="6.68581">
        <ele>308.079</ele>
        <time>2015-10-03T11:27:27Z</time>
      </trkpt>
      <trkpt lat="47.45278" lon="6.68585">
        <ele>307.936</ele>
        <time>2015-10-03T11:27:28Z</time>
      </trkpt>
      <trkpt lat="47.45281" lon="6.68589">
        <ele>307.52</ele>
        <time>2015-10-03T11:27:29Z</time>
      </trkpt>
      <trkpt lat="47.45284" lon="6.68593">
        <ele>307.812</ele>
        <time>2015-10-03T11:27:30Z</time>
      </trkpt>
      <trkpt lat="47.45287" lon="6.68597">
        <ele>307.809</ele>
        <time>2015-10-03T11:27:31Z</time>
      </trkpt>
      <trkpt lat="47.4529" lon="6.68601">
        <ele>308.033</ele>
        <time>2015-10-03T11:27:32Z</time>
      </trkpt>
      <trkpt lat="47.45293" lon="6.68605">
        <ele>308.828</ele>
        <time>2015-10-03T11:27:33Z</time>
      </trkpt>
      <trkpt lat="47.45296" lon="6.68609">
        <ele>308.176</ele>
        <time>2015-10-03T11:27:34Z</time>
      </trkpt>
      <trkpt lat="47.45299" lon="6.68612">
        <ele>307.261</ele>
        <time>2015-10-03T11:27:35Z</time>
      </trkpt>
      <trkpt lat="47.45302" lon="6.68616">
        <ele>306.728</ele>
        <time>2015-10-03T11:27:36Z</time>
      </trkpt>
      <trkpt lat="47.45305" lon="6.68619">
        <ele>306.579</ele>
        <time>2015-10-03T11:27:37Z</time>
      </trkpt>
      <trkpt lat="47.45309" lon="6.68622">
        <ele>306.764</ele>
        <time>2015-10-03T11:27:38Z</time>
      </trkpt>
      <trkpt lat="47.45312" lon="6.68626">
        <ele>307.079</ele>
        <time>2015-10-03T11:27:39Z</time>
      </trkpt>
      <trkpt lat="47.45315" lon="6.68629">
        <ele>306.993</ele>
        <time>2015-10-03T11:27:40Z</time>
      </trkpt>
      <trkpt lat="47.45318" lon="6.68633">
        <ele>307.155</ele>
        <time>2015-10-03T11:27:41Z</time>
      </trkpt>
      <trkpt lat="47.45321" lon="6.68636">
        <ele>307.85</ele>
        <time>2015-10-03T11:27:42Z</time>
      </trkpt>
      <trkpt lat="47.45323" lon="6.68639">
        <ele>307.235</ele>
        <time>2015-10-03T11:27:43Z</time>
      </trkpt>
      <trkpt lat="47.45326" lon="6.68642">
        <ele>307.116</ele>
        <time>2015-10-03T11:27:44Z</time>
      </trkpt>
      <trkpt lat="47.45329" lon="6.68645">
        <ele>306.999</ele>
        <time>2015-10-03T11:27:45Z</time>
      </trkpt>
      <trkpt lat="47.45332" lon="6.68648">
        <ele>306.735</ele>
        <time>2015-10-03T11:27:46Z</time>
      </trkpt>
      <trkpt lat="47.45335" lon="6.68651">
        <ele>307.012</ele>
        <time>2015-10-03T11:27:47Z</time>
      </trkpt>
      <trkpt lat="47.45338" lon="6.68655">
        <ele>306.525</ele>
        <time>2015-10-03T11:27:48Z</time>
      </trkpt>
      <trkpt lat="47.45341" lon="6.68658">
        <ele>306.661</ele>
        <time>2015-10-03T11:27:49Z</time>
      </trkpt>
      <trkpt lat="47.45344" lon="6.68661">
        <ele>305.715</ele>
        <time>2015-10-03T11:27:50Z</time>
      </trkpt>
      <trkpt lat="47.45348" lon="6.68664">
        <ele>306.782</ele>
        <time>2015-10-03T11:27:51Z</time>
      </trkpt>
      <trkpt lat="47.45351" lon="6.68667">
        <ele>307.402</ele>
        <time>2015-10-03T11:27:52Z</time>
      </trkpt>
      <trkpt lat="47.45353" lon="6.68671">
        <ele>307.549</ele>
        <time>2015-10-03T11:27:53Z</time>
      </trkpt>
      <trkpt lat="47.45356" lon="6.68674">
        <ele>308.032</ele>
        <time>2015-10-03T11:27:54Z</time>
      </trkpt>
      <trkpt lat="47.45359" lon="6.68677">
        <ele>308.298</ele>
        <time>2015-10-03T11:27:55Z</time>
      </trkpt>
      <trkpt lat="47.45362" lon="6.6868">
        <ele>308.974</ele>
        <time>2015-10-03T11:27:56Z</time>
      </trkpt>
      <trkpt lat="47.45365" lon="6.68684">
        <ele>308.924</ele>
        <time>2015-10-03T11:27:57Z</time>
      </trkpt>
      <trkpt lat="47.45369" lon="6.68687">
        <ele>308.325</ele>
        <time>2015-10-03T11:27:58Z</time>
      </trkpt>
      <trkpt lat="47.45372" lon="6.6869">
        <ele>308.243</ele>
        <time>2015-10-03T11:27:59Z</time>
      </trkpt>
      <trkpt lat="47.45375" lon="6.68693">
        <ele>308.462</ele>
        <time>2015-10-03T11:28:00Z</time>
      </trkpt>
      <trkpt lat="47.45378" lon="6.68696">
        <ele>309.013</ele>
        <time>2015-10-03T11:28:01Z</time>
      </trkpt>
      <trkpt lat="47.45381" lon="6.68699">
        <ele>310.031</ele>
        <time>2015-10-03T11:28:02Z</time>
      </trkpt>
      <trkpt lat="47.45385" lon="6.68703">
        <ele>310.132</ele>
        <time>2015-10-03T11:28:03Z</time>
      </trkpt>
      <trkpt lat="47.45388" lon="6.68706">
        <ele>309.726</ele>
        <time>2015-10-03T11:28:04Z</time>
      </trkpt>
      <trkpt lat="47.45391" lon="6.6871">
        <ele>310.469</ele>
        <time>2015-10-03T11:28:05Z</time>
      </trkpt>
      <trkpt lat="47.45394" lon="6.68713">
        <ele>310.49</ele>
        <time>2015-10-03T11:28:06Z</time>
      </trkpt>
      <trkpt lat="47.45397" lon="6.68716">
        <ele>311.004</ele>
        <time>2015-10-03T11:28:07Z</time>
      </trkpt>
      <trkpt lat="47.454" lon="6.6872">
        <ele>310.984</ele>
        <time>2015-10-03T11:28:08Z</time>
      </trkpt>
      <trkpt lat="47.45403" lon="6.68723">
        <ele>310.593</ele>
        <time>2015-10-03T11:28:09Z</time>
      </trkpt>
      <trkpt lat="47.45407" lon="6.68727">
        <ele>310.356</ele>
        <time>2015-10-03T11:28:10Z</time>
      </trkpt>
      <trkpt lat="47.4541" lon="6.6873">
        <ele>310.708</ele>
        <time>2015-10-03T11:28:11Z</time>
      </trkpt>
      <trkpt lat="47.45413" lon="6.68734">
        <ele>310.187</ele>
        <time>2015-10-03T11:28:12Z</time>
      </trkpt>
      <trkpt lat="47.45416" lon="6.68738">
        <ele>310.398</ele>
        <time>2015-10-03T11:28:13Z</time>
      </trkpt>
      <trkpt lat="47.4542" lon="6.68741">
        <ele>309.992</ele>
        <time>2015-10-03T11:28:14Z</time>
      </trkpt>
      <trkpt lat="47.45423" lon="6.68745">
        <ele>310.21</ele>
        <time>2015-10-03T11:28:15Z</time>
      </trkpt>
      <trkpt lat="47.45426" lon="6.68748">
        <ele>310.103</ele>
        <time>2015-10-03T11:28:16Z</time>
      </trkpt>
      <trkpt lat="47.45429" lon="6.68752">
        <ele>310.201</ele>
        <time>2015-10-03T11:28:17Z</time>
      </trkpt>
      <trkpt lat="47.45432" lon="6.68755">
        <ele>310.066</ele>
        <time>2015-10-03T11:28:18Z</time>
      </trkpt>
      <trkpt lat="47.45435" lon="6.68759">
        <ele>310.28</ele>
        <time>2015-10-03T11:28:19Z</time>
      </trkpt>
      <trkpt lat="47.45439" lon="6.68762">
        <ele>310.974</ele>
        <time>2015-10-03T11:28:20Z</time>
      </trkpt>
      <trkpt lat="47.45442" lon="6.68766">
        <ele>311.25</ele>
        <time>2015-10-03T11:28:21Z</time>
      </trkpt>
      <trkpt lat="47.45445" lon="6.6877">
        <ele>311.549</ele>
        <time>2015-10-03T11:28:22Z</time>
      </trkpt>
      <trkpt lat="47.45448" lon="6.68774">
        <ele>311.424</ele>
        <time>2015-10-03T11:28:23Z</time>
      </trkpt>
      <trkpt lat="47.4545" lon="6.68778">
        <ele>311.769</ele>
        <time>2015-10-03T11:28:24Z</time>
      </trkpt>
      <trkpt lat="47.45453" lon="6.68781">
        <ele>311.765</ele>
        <time>2015-10-03T11:28:25Z</time>
      </trkpt>
      <trkpt lat="47.45456" lon="6.68785">
        <ele>311.895</ele>
        <time>2015-10-03T11:28:26Z</time>
      </trkpt>
      <trkpt lat="47.45459" lon="6.68788">
        <ele>311.298</ele>
        <time>2015-10-03T11:28:27Z</time>
      </trkpt>
      <trkpt lat="47.45463" lon="6.68791">
        <ele>311.484</ele>
        <time>2015-10-03T11:28:28Z</time>
      </trkpt>
      <trkpt lat="47.45466" lon="6.68795">
        <ele>310.535</ele>
        <time>2015-10-03T11:28:29Z</time>
      </trkpt>
      <trkpt lat="47.45468" lon="6.68798">
        <ele>310.178</ele>
        <time>2015-10-03T11:28:30Z</time>
      </trkpt>
      <trkpt lat="47.45471" lon="6.68802">
        <ele>309.821</ele>
        <time>2015-10-03T11:28:31Z</time>
      </trkpt>
      <trkpt lat="47.45475" lon="6.68805">
        <ele>309.588</ele>
        <time>2015-10-03T11:28:32Z</time>
      </trkpt>
      <trkpt lat="47.45478" lon="6.68809">
        <ele>309.749</ele>
        <time>2015-10-03T11:28:33Z</time>
      </trkpt>
      <trkpt lat="47.45481" lon="6.68812">
        <ele>310.055</ele>
        <time>2015-10-03T11:28:34Z</time>
      </trkpt>
      <trkpt lat="47.45484" lon="6.68816">
        <ele>310.989</ele>
        <time>2015-10-03T11:28:35Z</time>
      </trkpt>
      <trkpt lat="47.45487" lon="6.68819">
        <ele>310.597</ele>
        <time>2015-10-03T11:28:36Z</time>
      </trkpt>
      <trkpt lat="47.4549" lon="6.68822">
        <ele>309.902</ele>
        <time>2015-10-03T11:28:37Z</time>
      </trkpt>
      <trkpt lat="47.45493" lon="6.68825">
        <ele>309.648</ele>
        <time>2015-10-03T11:28:38Z</time>
      </trkpt>
      <trkpt lat="47.45495" lon="6.68827">
        <ele>309.564</ele>
        <time>2015-10-03T11:28:39Z</time>
      </trkpt>
      <trkpt lat="47.45498" lon="6.6883">
        <ele>309.325</ele>
        <time>2015-10-03T11:28:40Z</time>
      </trkpt>
      <trkpt lat="47.45501" lon="6.68833">
        <ele>310.173</ele>
        <time>2015-10-03T11:28:41Z</time>
      </trkpt>
      <trkpt lat="47.45503" lon="6.68837">
        <ele>310.296</ele>
        <time>2015-10-03T11:28:42Z</time>
      </trkpt>
      <trkpt lat="47.45506" lon="6.6884">
        <ele>310.696</ele>
        <time>2015-10-03T11:28:43Z</time>
      </trkpt>
      <trkpt lat="47.45508" lon="6.68843">
        <ele>310.599</ele>
        <time>2015-10-03T11:28:44Z</time>
      </trkpt>
      <trkpt lat="47.45511" lon="6.68846">
        <ele>310.649</ele>
        <time>2015-10-03T11:28:45Z</time>
      </trkpt>
      <trkpt lat="47.45514" lon="6.68849">
        <ele>309.923</ele>
        <time>2015-10-03T11:28:46Z</time>
      </trkpt>
      <trkpt lat="47.45516" lon="6.68851">
        <ele>309.696</ele>
        <time>2015-10-03T11:28:47Z</time>
      </trkpt>
      <trkpt lat="47.45517" lon="6.68853">
        <ele>310.916</ele>
        <time>2015-10-03T11:28:48Z</time>
      </trkpt>
      <trkpt lat="47.45519" lon="6.68856">
        <ele>311.833</ele>
        <time>2015-10-03T11:28:49Z</time>
      </trkpt>
      <trkpt lat="47.45521" lon="6.68858">
        <ele>312.485</ele>
        <time>2015-10-03T11:28:50Z</time>
      </trkpt>
      <trkpt lat="47.45522" lon="6.68859">
        <ele>311.849</ele>
        <time>2015-10-03T11:28:51Z</time>
      </trkpt>
      <trkpt lat="47.45524" lon="6.68858">
        <ele>311.629</ele>
        <time>2015-10-03T11:28:52Z</time>
      </trkpt>
      <trkpt lat="47.45526" lon="6.68855">
        <ele>310.928</ele>
        <time>2015-10-03T11:28:53Z</time>
      </trkpt>
      <trkpt lat="47.45528" lon="6.68853">
        <ele>309.958</ele>
        <time>2015-10-03T11:28:54Z</time>
      </trkpt>
      <trkpt lat="47.45529" lon="6.68851">
        <ele>310.441</ele>
        <time>2015-10-03T11:28:55Z</time>
      </trkpt>
      <trkpt lat="47.4553" lon="6.68849">
        <ele>309.611</ele>
        <time>2015-10-03T11:28:56Z</time>
      </trkpt>
      <trkpt lat="47.45532" lon="6.68846">
        <ele>309.409</ele>
        <time>2015-10-03T11:28:57Z</time>
      </trkpt>
      <trkpt lat="47.45535" lon="6.68842">
        <ele>309.406</ele>
        <time>2015-10-03T11:28:58Z</time>
      </trkpt>
      <trkpt lat="47.45539" lon="6.68838">
        <ele>309.194</ele>
        <time>2015-10-03T11:28:59Z</time>
      </trkpt>
      <trkpt lat="47.45543" lon="6.68834">
        <ele>308.578</ele>
        <time>2015-10-03T11:29:00Z</time>
      </trkpt>
      <trkpt lat="47.45547" lon="6.68832">
        <ele>309.269</ele>
        <time>2015-10-03T11:29:01Z</time>
      </trkpt>
      <trkpt lat="47.45551" lon="6.6883">
        <ele>309.091</ele>
        <time>2015-10-03T11:29:02Z</time>
      </trkpt>
      <trkpt lat="47.45555" lon="6.68827">
        <ele>309.003</ele>
        <time>2015-10-03T11:29:03Z</time>
      </trkpt>
      <trkpt lat="47.4556" lon="6.68825">
        <ele>309.559</ele>
        <time>2015-10-03T11:29:04Z</time>
      </trkpt>
      <trkpt lat="47.45564" lon="6.68821">
        <ele>309.77</ele>
        <time>2015-10-03T11:29:05Z</time>
      </trkpt>
      <trkpt lat="47.45568" lon="6.68813">
        <ele>307.675</ele>
        <time>2015-10-03T11:29:06Z</time>
      </trkpt>
      <trkpt lat="47.45571" lon="6.68809">
        <ele>307.758</ele>
        <time>2015-10-03T11:29:07Z</time>
      </trkpt>
      <trkpt lat="47.45575" lon="6.68807">
        <ele>308.334</ele>
        <time>2015-10-03T11:29:08Z</time>
      </trkpt>
      <trkpt lat="47.45579" lon="6.68805">
        <ele>309.778</ele>
        <time>2015-10-03T11:29:09Z</time>
      </trkpt>
      <trkpt lat="47.45582" lon="6.68804">
        <ele>311.308</ele>
        <time>2015-10-03T11:29:10Z</time>
      </trkpt>
      <trkpt lat="47.45586" lon="6.688">
        <ele>311.556</ele>
        <time>2015-10-03T11:29:11Z</time>
      </trkpt>
      <trkpt lat="47.4559" lon="6.68796">
        <ele>312.963</ele>
        <time>2015-10-03T11:29:12Z</time>
      </trkpt>
      <trkpt lat="47.45594" lon="6.68791">
        <ele>312.679</ele>
        <time>2015-10-03T11:29:13Z</time>
      </trkpt>
      <trkpt lat="47.45597" lon="6.68785">
        <ele>311.001</ele>
        <time>2015-10-03T11:29:14Z</time>
      </trkpt>
      <trkpt lat="47.45601" lon="6.68782">
        <ele>310.112</ele>
        <time>2015-10-03T11:29:15Z</time>
      </trkpt>
      <trkpt lat="47.45605" lon="6.68778">
        <ele>309.322</ele>
        <time>2015-10-03T11:29:16Z</time>
      </trkpt>
      <trkpt lat="47.45608" lon="6.68774">
        <ele>308.918</ele>
        <time>2015-10-03T11:29:17Z</time>
      </trkpt>
      <trkpt lat="47.45611" lon="6.68771">
        <ele>309.216</ele>
        <time>2015-10-03T11:29:18Z</time>
      </trkpt>
      <trkpt lat="47.45613" lon="6.68769">
        <ele>309.009</ele>
        <time>2015-10-03T11:29:19Z</time>
      </trkpt>
      <trkpt lat="47.45615" lon="6.68767">
        <ele>309.609</ele>
        <time>2015-10-03T11:29:20Z</time>
      </trkpt>
      <trkpt lat="47.45617" lon="6.68766">
        <ele>309.874</ele>
        <time>2015-10-03T11:29:21Z</time>
      </trkpt>
      <trkpt lat="47.45617" lon="6.68764">
        <ele>310.789</ele>
        <time>2015-10-03T11:29:24Z</time>
      </trkpt>
      <trkpt lat="47.45616" lon="6.68767">
        <ele>309.692</ele>
        <time>2015-10-03T11:29:29Z</time>
      </trkpt>
      <trkpt lat="47.45618" lon="6.68766">
        <ele>312.584</ele>
        <time>2015-10-03T11:29:31Z</time>
      </trkpt>
      <trkpt lat="47.4562" lon="6.68765">
        <ele>313.234</ele>
        <time>2015-10-03T11:29:32Z</time>
      </trkpt>
      <trkpt lat="47.45621" lon="6.68763">
        <ele>313.271</ele>
        <time>2015-10-03T11:29:33Z</time>
      </trkpt>
      <trkpt lat="47.45623" lon="6.68762">
        <ele>313.562</ele>
        <time>2015-10-03T11:29:34Z</time>
      </trkpt>
      <trkpt lat="47.45624" lon="6.6876">
        <ele>313.317</ele>
        <time>2015-10-03T11:29:35Z</time>
      </trkpt>
      <trkpt lat="47.45625" lon="6.68757">
        <ele>312.749</ele>
        <time>2015-10-03T11:29:36Z</time>
      </trkpt>
      <trkpt lat="47.45625" lon="6.68753">
        <ele>314.885</ele>
        <time>2015-10-03T11:29:37Z</time>
      </trkpt>
      <trkpt lat="47.45623" lon="6.68749">
        <ele>314.731</ele>
        <time>2015-10-03T11:29:38Z</time>
      </trkpt>
      <trkpt lat="47.45621" lon="6.68744">
        <ele>315.037</ele>
        <time>2015-10-03T11:29:39Z</time>
      </trkpt>
      <trkpt lat="47.45618" lon="6.6874">
        <ele>314.723</ele>
        <time>2015-10-03T11:29:40Z</time>
      </trkpt>
      <trkpt lat="47.45615" lon="6.68736">
        <ele>315.447</ele>
        <time>2015-10-03T11:29:41Z</time>
      </trkpt>
      <trkpt lat="47.45612" lon="6.68733">
        <ele>315.682</ele>
        <time>2015-10-03T11:29:42Z</time>
      </trkpt>
      <trkpt lat="47.45609" lon="6.68729">
        <ele>315.711</ele>
        <time>2015-10-03T11:29:43Z</time>
      </trkpt>
      <trkpt lat="47.45606" lon="6.68724">
        <ele>315.907</ele>
        <time>2015-10-03T11:29:44Z</time>
      </trkpt>
      <trkpt lat="47.45603" lon="6.6872">
        <ele>315.107</ele>
        <time>2015-10-03T11:29:45Z</time>
      </trkpt>
      <trkpt lat="47.45601" lon="6.68715">
        <ele>315.504</ele>
        <time>2015-10-03T11:29:46Z</time>
      </trkpt>
      <trkpt lat="47.45599" lon="6.6871">
        <ele>315.28</ele>
        <time>2015-10-03T11:29:47Z</time>
      </trkpt>
      <trkpt lat="47.45597" lon="6.68705">
        <ele>315.128</ele>
        <time>2015-10-03T11:29:48Z</time>
      </trkpt>
      <trkpt lat="47.45595" lon="6.68701">
        <ele>314.889</ele>
        <time>2015-10-03T11:29:49Z</time>
      </trkpt>
      <trkpt lat="47.45593" lon="6.68697">
        <ele>314.898</ele>
        <time>2015-10-03T11:29:50Z</time>
      </trkpt>
      <trkpt lat="47.4559" lon="6.68694">
        <ele>314.211</ele>
        <time>2015-10-03T11:29:51Z</time>
      </trkpt>
      <trkpt lat="47.45588" lon="6.68689">
        <ele>313.959</ele>
        <time>2015-10-03T11:29:52Z</time>
      </trkpt>
      <trkpt lat="47.45585" lon="6.68685">
        <ele>315.206</ele>
        <time>2015-10-03T11:29:53Z</time>
      </trkpt>
      <trkpt lat="47.45581" lon="6.68681">
        <ele>314.673</ele>
        <time>2015-10-03T11:29:54Z</time>
      </trkpt>
      <trkpt lat="47.45578" lon="6.68677">
        <ele>314.354</ele>
        <time>2015-10-03T11:29:55Z</time>
      </trkpt>
      <trkpt lat="47.45575" lon="6.68672">
        <ele>311.815</ele>
        <time>2015-10-03T11:29:56Z</time>
      </trkpt>
      <trkpt lat="47.45572" lon="6.68667">
        <ele>310.966</ele>
        <time>2015-10-03T11:29:57Z</time>
      </trkpt>
      <trkpt lat="47.45569" lon="6.68663">
        <ele>310.836</ele>
        <time>2015-10-03T11:29:58Z</time>
      </trkpt>
      <trkpt lat="47.45568" lon="6.6866">
        <ele>310.747</ele>
        <time>2015-10-03T11:29:59Z</time>
      </trkpt>
      <trkpt lat="47.45567" lon="6.68656">
        <ele>309.78</ele>
        <time>2015-10-03T11:30:00Z</time>
      </trkpt>
      <trkpt lat="47.45565" lon="6.68652">
        <ele>310.54</ele>
        <time>2015-10-03T11:30:01Z</time>
      </trkpt>
      <trkpt lat="47.45563" lon="6.68648">
        <ele>309.72</ele>
        <time>2015-10-03T11:30:02Z</time>
      </trkpt>
      <trkpt lat="47.45561" lon="6.68643">
        <ele>310.625</ele>
        <time>2015-10-03T11:30:03Z</time>
      </trkpt>
      <trkpt lat="47.45559" lon="6.68639">
        <ele>309.521</ele>
        <time>2015-10-03T11:30:04Z</time>
      </trkpt>
      <trkpt lat="47.45556" lon="6.68635">
        <ele>307.671</ele>
        <time>2015-10-03T11:30:05Z</time>
      </trkpt>
      <trkpt lat="47.45554" lon="6.68631">
        <ele>306.235</ele>
        <time>2015-10-03T11:30:06Z</time>
      </trkpt>
      <trkpt lat="47.45552" lon="6.68628">
        <ele>306.531</ele>
        <time>2015-10-03T11:30:07Z</time>
      </trkpt>
      <trkpt lat="47.45549" lon="6.68623">
        <ele>305.458</ele>
        <time>2015-10-03T11:30:08Z</time>
      </trkpt>
      <trkpt lat="47.45546" lon="6.68619">
        <ele>305.308</ele>
        <time>2015-10-03T11:30:09Z</time>
      </trkpt>
      <trkpt lat="47.45544" lon="6.68615">
        <ele>306.754</ele>
        <time>2015-10-03T11:30:10Z</time>
      </trkpt>
      <trkpt lat="47.45542" lon="6.68611">
        <ele>307.331</ele>
        <time>2015-10-03T11:30:11Z</time>
      </trkpt>
      <trkpt lat="47.4554" lon="6.68606">
        <ele>307.418</ele>
        <time>2015-10-03T11:30:12Z</time>
      </trkpt>
      <trkpt lat="47.45538" lon="6.68601">
        <ele>307.026</ele>
        <time>2015-10-03T11:30:13Z</time>
      </trkpt>
      <trkpt lat="47.45536" lon="6.68596">
        <ele>305.8</ele>
        <time>2015-10-03T11:30:14Z</time>
      </trkpt>
      <trkpt lat="47.45533" lon="6.6859">
        <ele>305.894</ele>
        <time>2015-10-03T11:30:15Z</time>
      </trkpt>
      <trkpt lat="47.4553" lon="6.68584">
        <ele>303.294</ele>
        <time>2015-10-03T11:30:16Z</time>
      </trkpt>
      <trkpt lat="47.45527" lon="6.6858">
        <ele>304.265</ele>
        <time>2015-10-03T11:30:17Z</time>
      </trkpt>
      <trkpt lat="47.45523" lon="6.68575">
        <ele>305.791</ele>
        <time>2015-10-03T11:30:18Z</time>
      </trkpt>
      <trkpt lat="47.4552" lon="6.68571">
        <ele>307.766</ele>
        <time>2015-10-03T11:30:19Z</time>
      </trkpt>
      <trkpt lat="47.45517" lon="6.68566">
        <ele>307.156</ele>
        <time>2015-10-03T11:30:20Z</time>
      </trkpt>
      <trkpt lat="47.45514" lon="6.68561">
        <ele>306.582</ele>
        <time>2015-10-03T11:30:21Z</time>
      </trkpt>
      <trkpt lat="47.45511" lon="6.68556">
        <ele>305.546</ele>
        <time>2015-10-03T11:30:22Z</time>
      </trkpt>
      <trkpt lat="47.45507" lon="6.68551">
        <ele>304.885</ele>
        <time>2015-10-03T11:30:23Z</time>
      </trkpt>
      <trkpt lat="47.45504" lon="6.68546">
        <ele>305.791</ele>
        <time>2015-10-03T11:30:24Z</time>
      </trkpt>
      <trkpt lat="47.45502" lon="6.68541">
        <ele>305.977</ele>
        <time>2015-10-03T11:30:25Z</time>
      </trkpt>
      <trkpt lat="47.455" lon="6.68536">
        <ele>305.436</ele>
        <time>2015-10-03T11:30:26Z</time>
      </trkpt>
      <trkpt lat="47.45497" lon="6.68531">
        <ele>306.711</ele>
        <time>2015-10-03T11:30:27Z</time>
      </trkpt>
      <trkpt lat="47.45495" lon="6.68527">
        <ele>308.962</ele>
        <time>2015-10-03T11:30:28Z</time>
      </trkpt>
      <trkpt lat="47.45493" lon="6.68522">
        <ele>308.311</ele>
        <time>2015-10-03T11:30:29Z</time>
      </trkpt>
      <trkpt lat="47.45491" lon="6.68518">
        <ele>309.555</ele>
        <time>2015-10-03T11:30:30Z</time>
      </trkpt>
      <trkpt lat="47.45489" lon="6.68512">
        <ele>308.42</ele>
        <time>2015-10-03T11:30:31Z</time>
      </trkpt>
      <trkpt lat="47.45486" lon="6.68507">
        <ele>308.716</ele>
        <time>2015-10-03T11:30:32Z</time>
      </trkpt>
      <trkpt lat="47.45483" lon="6.68502">
        <ele>308.014</ele>
        <time>2015-10-03T11:30:33Z</time>
      </trkpt>
      <trkpt lat="47.45481" lon="6.68498">
        <ele>308.515</ele>
        <time>2015-10-03T11:30:34Z</time>
      </trkpt>
      <trkpt lat="47.45478" lon="6.68493">
        <ele>307.825</ele>
        <time>2015-10-03T11:30:35Z</time>
      </trkpt>
      <trkpt lat="47.45476" lon="6.68489">
        <ele>309.077</ele>
        <time>2015-10-03T11:30:36Z</time>
      </trkpt>
      <trkpt lat="47.45473" lon="6.68486">
        <ele>306.973</ele>
        <time>2015-10-03T11:30:37Z</time>
      </trkpt>
      <trkpt lat="47.45471" lon="6.68483">
        <ele>306.227</ele>
        <time>2015-10-03T11:30:38Z</time>
      </trkpt>
      <trkpt lat="47.45469" lon="6.6848">
        <ele>305.971</ele>
        <time>2015-10-03T11:30:39Z</time>
      </trkpt>
      <trkpt lat="47.45466" lon="6.68476">
        <ele>306.201</ele>
        <time>2015-10-03T11:30:40Z</time>
      </trkpt>
      <trkpt lat="47.45463" lon="6.6847">
        <ele>306.956</ele>
        <time>2015-10-03T11:30:41Z</time>
      </trkpt>
      <trkpt lat="47.4546" lon="6.68465">
        <ele>307.661</ele>
        <time>2015-10-03T11:30:42Z</time>
      </trkpt>
      <trkpt lat="47.45458" lon="6.6846">
        <ele>308.108</ele>
        <time>2015-10-03T11:30:43Z</time>
      </trkpt>
      <trkpt lat="47.45455" lon="6.68454">
        <ele>308.84</ele>
        <time>2015-10-03T11:30:44Z</time>
      </trkpt>
      <trkpt lat="47.45452" lon="6.68449">
        <ele>309.949</ele>
        <time>2015-10-03T11:30:45Z</time>
      </trkpt>
      <trkpt lat="47.45449" lon="6.68445">
        <ele>307.728</ele>
        <time>2015-10-03T11:30:46Z</time>
      </trkpt>
      <trkpt lat="47.45447" lon="6.6844">
        <ele>308.069</ele>
        <time>2015-10-03T11:30:47Z</time>
      </trkpt>
      <trkpt lat="47.45444" lon="6.68436">
        <ele>307.462</ele>
        <time>2015-10-03T11:30:48Z</time>
      </trkpt>
      <trkpt lat="47.45441" lon="6.68431">
        <ele>308.095</ele>
        <time>2015-10-03T11:30:49Z</time>
      </trkpt>
      <trkpt lat="47.45437" lon="6.68427">
        <ele>305.696</ele>
        <time>2015-10-03T11:30:50Z</time>
      </trkpt>
      <trkpt lat="47.45434" lon="6.68422">
        <ele>307.134</ele>
        <time>2015-10-03T11:30:51Z</time>
      </trkpt>
      <trkpt lat="47.4543" lon="6.68418">
        <ele>307.245</ele>
        <time>2015-10-03T11:30:52Z</time>
      </trkpt>
      <trkpt lat="47.45427" lon="6.68414">
        <ele>307.099</ele>
        <time>2015-10-03T11:30:53Z</time>
      </trkpt>
      <trkpt lat="47.45424" lon="6.68409">
        <ele>308.401</ele>
        <time>2015-10-03T11:30:54Z</time>
      </trkpt>
      <trkpt lat="47.4542" lon="6.68404">
        <ele>307.07</ele>
        <time>2015-10-03T11:30:55Z</time>
      </trkpt>
      <trkpt lat="47.45417" lon="6.68399">
        <ele>307.604</ele>
        <time>2015-10-03T11:30:56Z</time>
      </trkpt>
      <trkpt lat="47.45413" lon="6.68394">
        <ele>307.152</ele>
        <time>2015-10-03T11:30:57Z</time>
      </trkpt>
      <trkpt lat="47.4541" lon="6.6839">
        <ele>306.548</ele>
        <time>2015-10-03T11:30:58Z</time>
      </trkpt>
      <trkpt lat="47.45406" lon="6.68385">
        <ele>306.712</ele>
        <time>2015-10-03T11:30:59Z</time>
      </trkpt>
      <trkpt lat="47.45403" lon="6.6838">
        <ele>306.377</ele>
        <time>2015-10-03T11:31:00Z</time>
      </trkpt>
      <trkpt lat="47.454" lon="6.68375">
        <ele>306.272</ele>
        <time>2015-10-03T11:31:01Z</time>
      </trkpt>
      <trkpt lat="47.45396" lon="6.6837">
        <ele>305.302</ele>
        <time>2015-10-03T11:31:02Z</time>
      </trkpt>
      <trkpt lat="47.45393" lon="6.68365">
        <ele>303.608</ele>
        <time>2015-10-03T11:31:03Z</time>
      </trkpt>
      <trkpt lat="47.4539" lon="6.6836">
        <ele>303.646</ele>
        <time>2015-10-03T11:31:04Z</time>
      </trkpt>
      <trkpt lat="47.45387" lon="6.68355">
        <ele>305.528</ele>
        <time>2015-10-03T11:31:05Z</time>
      </trkpt>
      <trkpt lat="47.45385" lon="6.6835">
        <ele>306.394</ele>
        <time>2015-10-03T11:31:06Z</time>
      </trkpt>
      <trkpt lat="47.45383" lon="6.68346">
        <ele>309.289</ele>
        <time>2015-10-03T11:31:07Z</time>
      </trkpt>
      <trkpt lat="47.45382" lon="6.68341">
        <ele>309.996</ele>
        <time>2015-10-03T11:31:08Z</time>
      </trkpt>
      <trkpt lat="47.4538" lon="6.68336">
        <ele>311.439</ele>
        <time>2015-10-03T11:31:09Z</time>
      </trkpt>
      <trkpt lat="47.45379" lon="6.68332">
        <ele>311.931</ele>
        <time>2015-10-03T11:31:10Z</time>
      </trkpt>
      <trkpt lat="47.45378" lon="6.68326">
        <ele>312.416</ele>
        <time>2015-10-03T11:31:11Z</time>
      </trkpt>
      <trkpt lat="47.45377" lon="6.6832">
        <ele>312.735</ele>
        <time>2015-10-03T11:31:12Z</time>
      </trkpt>
      <trkpt lat="47.45378" lon="6.68311">
        <ele>312.782</ele>
        <time>2015-10-03T11:31:13Z</time>
      </trkpt>
      <trkpt lat="47.45378" lon="6.68304">
        <ele>312.794</ele>
        <time>2015-10-03T11:31:14Z</time>
      </trkpt>
      <trkpt lat="47.45379" lon="6.68298">
        <ele>313.388</ele>
        <time>2015-10-03T11:31:15Z</time>
      </trkpt>
      <trkpt lat="47.4538" lon="6.68292">
        <ele>312.412</ele>
        <time>2015-10-03T11:31:16Z</time>
      </trkpt>
      <trkpt lat="47.45381" lon="6.68288">
        <ele>311.68</ele>
        <time>2015-10-03T11:31:17Z</time>
      </trkpt>
      <trkpt lat="47.45384" lon="6.68283">
        <ele>312.136</ele>
        <time>2015-10-03T11:31:18Z</time>
      </trkpt>
      <trkpt lat="47.45387" lon="6.68281">
        <ele>313.136</ele>
        <time>2015-10-03T11:31:19Z</time>
      </trkpt>
      <trkpt lat="47.45391" lon="6.68278">
        <ele>313.595</ele>
        <time>2015-10-03T11:31:20Z</time>
      </trkpt>
      <trkpt lat="47.45395" lon="6.68272">
        <ele>311.987</ele>
        <time>2015-10-03T11:31:21Z</time>
      </trkpt>
      <trkpt lat="47.45397" lon="6.68269">
        <ele>312.541</ele>
        <time>2015-10-03T11:31:22Z</time>
      </trkpt>
      <trkpt lat="47.45399" lon="6.68266">
        <ele>312.877</ele>
        <time>2015-10-03T11:31:23Z</time>
      </trkpt>
      <trkpt lat="47.45403" lon="6.68263">
        <ele>311.922</ele>
        <time>2015-10-03T11:31:24Z</time>
      </trkpt>
      <trkpt lat="47.45407" lon="6.68259">
        <ele>311.633</ele>
        <time>2015-10-03T11:31:25Z</time>
      </trkpt>
      <trkpt lat="47.4541" lon="6.68255">
        <ele>311.029</ele>
        <time>2015-10-03T11:31:26Z</time>
      </trkpt>
      <trkpt lat="47.45414" lon="6.68251">
        <ele>311.841</ele>
        <time>2015-10-03T11:31:27Z</time>
      </trkpt>
      <trkpt lat="47.45417" lon="6.68248">
        <ele>312.149</ele>
        <time>2015-10-03T11:31:28Z</time>
      </trkpt>
      <trkpt lat="47.4542" lon="6.68245">
        <ele>311.238</ele>
        <time>2015-10-03T11:31:29Z</time>
      </trkpt>
      <trkpt lat="47.45424" lon="6.68242">
        <ele>311.754</ele>
        <time>2015-10-03T11:31:30Z</time>
      </trkpt>
      <trkpt lat="47.45427" lon="6.68238">
        <ele>311.679</ele>
        <time>2015-10-03T11:31:31Z</time>
      </trkpt>
      <trkpt lat="47.45431" lon="6.68235">
        <ele>311.586</ele>
        <time>2015-10-03T11:31:32Z</time>
      </trkpt>
      <trkpt lat="47.45434" lon="6.68232">
        <ele>311.035</ele>
        <time>2015-10-03T11:31:33Z</time>
      </trkpt>
      <trkpt lat="47.45438" lon="6.68228">
        <ele>310.646</ele>
        <time>2015-10-03T11:31:34Z</time>
      </trkpt>
      <trkpt lat="47.45441" lon="6.68225">
        <ele>310.456</ele>
        <time>2015-10-03T11:31:35Z</time>
      </trkpt>
      <trkpt lat="47.45445" lon="6.68222">
        <ele>310.205</ele>
        <time>2015-10-03T11:31:36Z</time>
      </trkpt>
      <trkpt lat="47.45448" lon="6.68218">
        <ele>309.665</ele>
        <time>2015-10-03T11:31:37Z</time>
      </trkpt>
      <trkpt lat="47.45452" lon="6.68215">
        <ele>309.232</ele>
        <time>2015-10-03T11:31:38Z</time>
      </trkpt>
      <trkpt lat="47.45455" lon="6.68211">
        <ele>309.489</ele>
        <time>2015-10-03T11:31:39Z</time>
      </trkpt>
      <trkpt lat="47.45459" lon="6.68207">
        <ele>309.415</ele>
        <time>2015-10-03T11:31:40Z</time>
      </trkpt>
      <trkpt lat="47.45463" lon="6.68203">
        <ele>310.59</ele>
        <time>2015-10-03T11:31:41Z</time>
      </trkpt>
      <trkpt lat="47.45466" lon="6.682">
        <ele>310.673</ele>
        <time>2015-10-03T11:31:42Z</time>
      </trkpt>
      <trkpt lat="47.4547" lon="6.68196">
        <ele>310.629</ele>
        <time>2015-10-03T11:31:43Z</time>
      </trkpt>
      <trkpt lat="47.45474" lon="6.68191">
        <ele>309.73</ele>
        <time>2015-10-03T11:31:44Z</time>
      </trkpt>
      <trkpt lat="47.45478" lon="6.68188">
        <ele>309.984</ele>
        <time>2015-10-03T11:31:45Z</time>
      </trkpt>
      <trkpt lat="47.45482" lon="6.68184">
        <ele>309.972</ele>
        <time>2015-10-03T11:31:46Z</time>
      </trkpt>
      <trkpt lat="47.45487" lon="6.6818">
        <ele>310.238</ele>
        <time>2015-10-03T11:31:47Z</time>
      </trkpt>
      <trkpt lat="47.45491" lon="6.68175">
        <ele>309.668</ele>
        <time>2015-10-03T11:31:48Z</time>
      </trkpt>
      <trkpt lat="47.45495" lon="6.68171">
        <ele>310.089</ele>
        <time>2015-10-03T11:31:49Z</time>
      </trkpt>
      <trkpt lat="47.45499" lon="6.68168">
        <ele>309.872</ele>
        <time>2015-10-03T11:31:50Z</time>
      </trkpt>
      <trkpt lat="47.45502" lon="6.68164">
        <ele>310.139</ele>
        <time>2015-10-03T11:31:51Z</time>
      </trkpt>
      <trkpt lat="47.45506" lon="6.68161">
        <ele>310.047</ele>
        <time>2015-10-03T11:31:52Z</time>
      </trkpt>
      <trkpt lat="47.4551" lon="6.68157">
        <ele>309.463</ele>
        <time>2015-10-03T11:31:53Z</time>
      </trkpt>
      <trkpt lat="47.45514" lon="6.68153">
        <ele>309.278</ele>
        <time>2015-10-03T11:31:54Z</time>
      </trkpt>
      <trkpt lat="47.45518" lon="6.68151">
        <ele>309.949</ele>
        <time>2015-10-03T11:31:55Z</time>
      </trkpt>
      <trkpt lat="47.45521" lon="6.68147">
        <ele>310.136</ele>
        <time>2015-10-03T11:31:56Z</time>
      </trkpt>
      <trkpt lat="47.45526" lon="6.68144">
        <ele>309.965</ele>
        <time>2015-10-03T11:31:57Z</time>
      </trkpt>
      <trkpt lat="47.45529" lon="6.6814">
        <ele>309.446</ele>
        <time>2015-10-03T11:31:58Z</time>
      </trkpt>
      <trkpt lat="47.45533" lon="6.68137">
        <ele>309.406</ele>
        <time>2015-10-03T11:31:59Z</time>
      </trkpt>
      <trkpt lat="47.45535" lon="6.68135">
        <ele>308.869</ele>
        <time>2015-10-03T11:32:00Z</time>
      </trkpt>
      <trkpt lat="47.45539" lon="6.68133">
        <ele>308.753</ele>
        <time>2015-10-03T11:32:01Z</time>
      </trkpt>
      <trkpt lat="47.45542" lon="6.68131">
        <ele>309.39</ele>
        <time>2015-10-03T11:32:02Z</time>
      </trkpt>
      <trkpt lat="47.45545" lon="6.68129">
        <ele>309.03</ele>
        <time>2015-10-03T11:32:03Z</time>
      </trkpt>
      <trkpt lat="47.45549" lon="6.68128">
        <ele>309.336</ele>
        <time>2015-10-03T11:32:04Z</time>
      </trkpt>
      <trkpt lat="47.45553" lon="6.68125">
        <ele>308.164</ele>
        <time>2015-10-03T11:32:05Z</time>
      </trkpt>
      <trkpt lat="47.45558" lon="6.68124">
        <ele>307.288</ele>
        <time>2015-10-03T11:32:06Z</time>
      </trkpt>
      <trkpt lat="47.45562" lon="6.68123">
        <ele>307.039</ele>
        <time>2015-10-03T11:32:07Z</time>
      </trkpt>
      <trkpt lat="47.45566" lon="6.68123">
        <ele>307.413</ele>
        <time>2015-10-03T11:32:08Z</time>
      </trkpt>
      <trkpt lat="47.4557" lon="6.68123">
        <ele>307.378</ele>
        <time>2015-10-03T11:32:09Z</time>
      </trkpt>
      <trkpt lat="47.45574" lon="6.68125">
        <ele>307.262</ele>
        <time>2015-10-03T11:32:10Z</time>
      </trkpt>
      <trkpt lat="47.45578" lon="6.68126">
        <ele>305.37</ele>
        <time>2015-10-03T11:32:11Z</time>
      </trkpt>
      <trkpt lat="47.45582" lon="6.68128">
        <ele>305.726</ele>
        <time>2015-10-03T11:32:12Z</time>
      </trkpt>
      <trkpt lat="47.45586" lon="6.6813">
        <ele>305.886</ele>
        <time>2015-10-03T11:32:13Z</time>
      </trkpt>
      <trkpt lat="47.4559" lon="6.68133">
        <ele>306.159</ele>
        <time>2015-10-03T11:32:14Z</time>
      </trkpt>
      <trkpt lat="47.45594" lon="6.68135">
        <ele>306.152</ele>
        <time>2015-10-03T11:32:15Z</time>
      </trkpt>
      <trkpt lat="47.45597" lon="6.68138">
        <ele>306.397</ele>
        <time>2015-10-03T11:32:16Z</time>
      </trkpt>
      <trkpt lat="47.45601" lon="6.68141">
        <ele>306.695</ele>
        <time>2015-10-03T11:32:17Z</time>
      </trkpt>
      <trkpt lat="47.45604" lon="6.68144">
        <ele>306.043</ele>
        <time>2015-10-03T11:32:18Z</time>
      </trkpt>
      <trkpt lat="47.45607" lon="6.68147">
        <ele>305.527</ele>
        <time>2015-10-03T11:32:19Z</time>
      </trkpt>
      <trkpt lat="47.45611" lon="6.6815">
        <ele>307.173</ele>
        <time>2015-10-03T11:32:20Z</time>
      </trkpt>
      <trkpt lat="47.45614" lon="6.68153">
        <ele>306.915</ele>
        <time>2015-10-03T11:32:21Z</time>
      </trkpt>
      <trkpt lat="47.45618" lon="6.68155">
        <ele>307.109</ele>
        <time>2015-10-03T11:32:22Z</time>
      </trkpt>
      <trkpt lat="47.45622" lon="6.68158">
        <ele>307.398</ele>
        <time>2015-10-03T11:32:23Z</time>
      </trkpt>
      <trkpt lat="47.45626" lon="6.68161">
        <ele>306.565</ele>
        <time>2015-10-03T11:32:24Z</time>
      </trkpt>
      <trkpt lat="47.4563" lon="6.68164">
        <ele>306.965</ele>
        <time>2015-10-03T11:32:25Z</time>
      </trkpt>
      <trkpt lat="47.45634" lon="6.68167">
        <ele>306.336</ele>
        <time>2015-10-03T11:32:26Z</time>
      </trkpt>
      <trkpt lat="47.45637" lon="6.68169">
        <ele>306.873</ele>
        <time>2015-10-03T11:32:27Z</time>
      </trkpt>
      <trkpt lat="47.45641" lon="6.68172">
        <ele>306.516</ele>
        <time>2015-10-03T11:32:28Z</time>
      </trkpt>
      <trkpt lat="47.45645" lon="6.68174">
        <ele>306.082</ele>
        <time>2015-10-03T11:32:29Z</time>
      </trkpt>
      <trkpt lat="47.45648" lon="6.68177">
        <ele>306.211</ele>
        <time>2015-10-03T11:32:30Z</time>
      </trkpt>
      <trkpt lat="47.45652" lon="6.6818">
        <ele>306.22</ele>
        <time>2015-10-03T11:32:31Z</time>
      </trkpt>
      <trkpt lat="47.45655" lon="6.68183">
        <ele>305.238</ele>
        <time>2015-10-03T11:32:32Z</time>
      </trkpt>
      <trkpt lat="47.45658" lon="6.68186">
        <ele>304.727</ele>
        <time>2015-10-03T11:32:33Z</time>
      </trkpt>
      <trkpt lat="47.45662" lon="6.68189">
        <ele>304.7</ele>
        <time>2015-10-03T11:32:34Z</time>
      </trkpt>
      <trkpt lat="47.45665" lon="6.68192">
        <ele>304.95</ele>
        <time>2015-10-03T11:32:35Z</time>
      </trkpt>
      <trkpt lat="47.45669" lon="6.68195">
        <ele>305.278</ele>
        <time>2015-10-03T11:32:36Z</time>
      </trkpt>
      <trkpt lat="47.45672" lon="6.68198">
        <ele>305.656</ele>
        <time>2015-10-03T11:32:37Z</time>
      </trkpt>
      <trkpt lat="47.45675" lon="6.68201">
        <ele>304.566</ele>
        <time>2015-10-03T11:32:38Z</time>
      </trkpt>
      <trkpt lat="47.45678" lon="6.68203">
        <ele>304.011</ele>
        <time>2015-10-03T11:32:39Z</time>
      </trkpt>
      <trkpt lat="47.45681" lon="6.68205">
        <ele>303.041</ele>
        <time>2015-10-03T11:32:40Z</time>
      </trkpt>
      <trkpt lat="47.45685" lon="6.68208">
        <ele>302.643</ele>
        <time>2015-10-03T11:32:41Z</time>
      </trkpt>
      <trkpt lat="47.45688" lon="6.6821">
        <ele>302.837</ele>
        <time>2015-10-03T11:32:42Z</time>
      </trkpt>
      <trkpt lat="47.45692" lon="6.68213">
        <ele>303.238</ele>
        <time>2015-10-03T11:32:43Z</time>
      </trkpt>
      <trkpt lat="47.45695" lon="6.68215">
        <ele>302.672</ele>
        <time>2015-10-03T11:32:44Z</time>
      </trkpt>
      <trkpt lat="47.45699" lon="6.68218">
        <ele>304.591</ele>
        <time>2015-10-03T11:32:45Z</time>
      </trkpt>
      <trkpt lat="47.45702" lon="6.6822">
        <ele>304.817</ele>
        <time>2015-10-03T11:32:46Z</time>
      </trkpt>
      <trkpt lat="47.45706" lon="6.68222">
        <ele>304.848</ele>
        <time>2015-10-03T11:32:47Z</time>
      </trkpt>
      <trkpt lat="47.4571" lon="6.68225">
        <ele>304.912</ele>
        <time>2015-10-03T11:32:48Z</time>
      </trkpt>
      <trkpt lat="47.45714" lon="6.68226">
        <ele>304.442</ele>
        <time>2015-10-03T11:32:49Z</time>
      </trkpt>
      <trkpt lat="47.45718" lon="6.68228">
        <ele>304.315</ele>
        <time>2015-10-03T11:32:50Z</time>
      </trkpt>
      <trkpt lat="47.45722" lon="6.6823">
        <ele>304.595</ele>
        <time>2015-10-03T11:32:51Z</time>
      </trkpt>
      <trkpt lat="47.45726" lon="6.68231">
        <ele>305.379</ele>
        <time>2015-10-03T11:32:52Z</time>
      </trkpt>
      <trkpt lat="47.4573" lon="6.68233">
        <ele>306.06</ele>
        <time>2015-10-03T11:32:53Z</time>
      </trkpt>
      <trkpt lat="47.45734" lon="6.68235">
        <ele>306.982</ele>
        <time>2015-10-03T11:32:54Z</time>
      </trkpt>
      <trkpt lat="47.45738" lon="6.68237">
        <ele>307.206</ele>
        <time>2015-10-03T11:32:55Z</time>
      </trkpt>
      <trkpt lat="47.45742" lon="6.68238">
        <ele>307.106</ele>
        <time>2015-10-03T11:32:56Z</time>
      </trkpt>
      <trkpt lat="47.45745" lon="6.6824">
        <ele>307.121</ele>
        <time>2015-10-03T11:32:57Z</time>
      </trkpt>
      <trkpt lat="47.45749" lon="6.68241">
        <ele>307.342</ele>
        <time>2015-10-03T11:32:58Z</time>
      </trkpt>
      <trkpt lat="47.45753" lon="6.68243">
        <ele>308.136</ele>
        <time>2015-10-03T11:32:59Z</time>
      </trkpt>
      <trkpt lat="47.45757" lon="6.68244">
        <ele>308.433</ele>
        <time>2015-10-03T11:33:00Z</time>
      </trkpt>
      <trkpt lat="47.45761" lon="6.68246">
        <ele>309.252</ele>
        <time>2015-10-03T11:33:01Z</time>
      </trkpt>
      <trkpt lat="47.45765" lon="6.68247">
        <ele>309.371</ele>
        <time>2015-10-03T11:33:02Z</time>
      </trkpt>
      <trkpt lat="47.4577" lon="6.68247">
        <ele>308.685</ele>
        <time>2015-10-03T11:33:03Z</time>
      </trkpt>
      <trkpt lat="47.45774" lon="6.68247">
        <ele>309.034</ele>
        <time>2015-10-03T11:33:04Z</time>
      </trkpt>
      <trkpt lat="47.45777" lon="6.68247">
        <ele>309.52</ele>
        <time>2015-10-03T11:33:05Z</time>
      </trkpt>
      <trkpt lat="47.45781" lon="6.68247">
        <ele>310.381</ele>
        <time>2015-10-03T11:33:06Z</time>
      </trkpt>
      <trkpt lat="47.45784" lon="6.68248">
        <ele>309.617</ele>
        <time>2015-10-03T11:33:07Z</time>
      </trkpt>
      <trkpt lat="47.45788" lon="6.68248">
        <ele>310.651</ele>
        <time>2015-10-03T11:33:08Z</time>
      </trkpt>
      <trkpt lat="47.45791" lon="6.68249">
        <ele>311.453</ele>
        <time>2015-10-03T11:33:09Z</time>
      </trkpt>
      <trkpt lat="47.45795" lon="6.6825">
        <ele>311.643</ele>
        <time>2015-10-03T11:33:10Z</time>
      </trkpt>
      <trkpt lat="47.45798" lon="6.68252">
        <ele>311.867</ele>
        <time>2015-10-03T11:33:11Z</time>
      </trkpt>
      <trkpt lat="47.45803" lon="6.68252">
        <ele>311.611</ele>
        <time>2015-10-03T11:33:12Z</time>
      </trkpt>
      <trkpt lat="47.45811" lon="6.6825">
        <ele>311.349</ele>
        <time>2015-10-03T11:33:13Z</time>
      </trkpt>
      <trkpt lat="47.45817" lon="6.68248">
        <ele>310.436</ele>
        <time>2015-10-03T11:33:14Z</time>
      </trkpt>
      <trkpt lat="47.4582" lon="6.68246">
        <ele>306.176</ele>
        <time>2015-10-03T11:33:15Z</time>
      </trkpt>
      <trkpt lat="47.45827" lon="6.68245">
        <ele>305.823</ele>
        <time>2015-10-03T11:33:16Z</time>
      </trkpt>
      <trkpt lat="47.45832" lon="6.68243">
        <ele>306.63</ele>
        <time>2015-10-03T11:33:17Z</time>
      </trkpt>
      <trkpt lat="47.45838" lon="6.68242">
        <ele>306.5</ele>
        <time>2015-10-03T11:33:18Z</time>
      </trkpt>
      <trkpt lat="47.45842" lon="6.6824">
        <ele>307.402</ele>
        <time>2015-10-03T11:33:19Z</time>
      </trkpt>
      <trkpt lat="47.45845" lon="6.6824">
        <ele>307.805</ele>
        <time>2015-10-03T11:33:20Z</time>
      </trkpt>
      <trkpt lat="47.45849" lon="6.68238">
        <ele>308.633</ele>
        <time>2015-10-03T11:33:21Z</time>
      </trkpt>
      <trkpt lat="47.45852" lon="6.68236">
        <ele>308.842</ele>
        <time>2015-10-03T11:33:22Z</time>
      </trkpt>
      <trkpt lat="47.45857" lon="6.68237">
        <ele>309.726</ele>
        <time>2015-10-03T11:33:23Z</time>
      </trkpt>
      <trkpt lat="47.45862" lon="6.68238">
        <ele>308.955</ele>
        <time>2015-10-03T11:33:24Z</time>
      </trkpt>
      <trkpt lat="47.45866" lon="6.68236">
        <ele>309.87</ele>
        <time>2015-10-03T11:33:25Z</time>
      </trkpt>
      <trkpt lat="47.45871" lon="6.68236">
        <ele>309.219</ele>
        <time>2015-10-03T11:33:26Z</time>
      </trkpt>
      <trkpt lat="47.45877" lon="6.68234">
        <ele>308.949</ele>
        <time>2015-10-03T11:33:27Z</time>
      </trkpt>
      <trkpt lat="47.45881" lon="6.68233">
        <ele>309.046</ele>
        <time>2015-10-03T11:33:28Z</time>
      </trkpt>
      <trkpt lat="47.45887" lon="6.6823">
        <ele>308.245</ele>
        <time>2015-10-03T11:33:29Z</time>
      </trkpt>
      <trkpt lat="47.45891" lon="6.68229">
        <ele>308.042</ele>
        <time>2015-10-03T11:33:30Z</time>
      </trkpt>
      <trkpt lat="47.45895" lon="6.68227">
        <ele>307.761</ele>
        <time>2015-10-03T11:33:31Z</time>
      </trkpt>
      <trkpt lat="47.45899" lon="6.68225">
        <ele>307.407</ele>
        <time>2015-10-03T11:33:32Z</time>
      </trkpt>
      <trkpt lat="47.45906" lon="6.68223">
        <ele>306.581</ele>
        <time>2015-10-03T11:33:33Z</time>
      </trkpt>
      <trkpt lat="47.45911" lon="6.68221">
        <ele>306.547</ele>
        <time>2015-10-03T11:33:34Z</time>
      </trkpt>
      <trkpt lat="47.45916" lon="6.68219">
        <ele>306.485</ele>
        <time>2015-10-03T11:33:35Z</time>
      </trkpt>
      <trkpt lat="47.4592" lon="6.68217">
        <ele>306.842</ele>
        <time>2015-10-03T11:33:36Z</time>
      </trkpt>
      <trkpt lat="47.45923" lon="6.68215">
        <ele>307.462</ele>
        <time>2015-10-03T11:33:37Z</time>
      </trkpt>
      <trkpt lat="47.45927" lon="6.68215">
        <ele>307.819</ele>
        <time>2015-10-03T11:33:38Z</time>
      </trkpt>
      <trkpt lat="47.45931" lon="6.68214">
        <ele>307.783</ele>
        <time>2015-10-03T11:33:39Z</time>
      </trkpt>
      <trkpt lat="47.45937" lon="6.68213">
        <ele>307.026</ele>
        <time>2015-10-03T11:33:40Z</time>
      </trkpt>
      <trkpt lat="47.45943" lon="6.68212">
        <ele>307.391</ele>
        <time>2015-10-03T11:33:41Z</time>
      </trkpt>
      <trkpt lat="47.45946" lon="6.68212">
        <ele>308.297</ele>
        <time>2015-10-03T11:33:42Z</time>
      </trkpt>
      <trkpt lat="47.4595" lon="6.6821">
        <ele>308.728</ele>
        <time>2015-10-03T11:33:43Z</time>
      </trkpt>
      <trkpt lat="47.45954" lon="6.68206">
        <ele>304.461</ele>
        <time>2015-10-03T11:33:44Z</time>
      </trkpt>
      <trkpt lat="47.45959" lon="6.68209">
        <ele>309.68</ele>
        <time>2015-10-03T11:33:45Z</time>
      </trkpt>
      <trkpt lat="47.45963" lon="6.68209">
        <ele>308.881</ele>
        <time>2015-10-03T11:33:46Z</time>
      </trkpt>
      <trkpt lat="47.45967" lon="6.68211">
        <ele>310.829</ele>
        <time>2015-10-03T11:33:47Z</time>
      </trkpt>
      <trkpt lat="47.45973" lon="6.68211">
        <ele>312.319</ele>
        <time>2015-10-03T11:33:48Z</time>
      </trkpt>
      <trkpt lat="47.45976" lon="6.68209">
        <ele>310.122</ele>
        <time>2015-10-03T11:33:49Z</time>
      </trkpt>
      <trkpt lat="47.4598" lon="6.68209">
        <ele>311.642</ele>
        <time>2015-10-03T11:33:50Z</time>
      </trkpt>
      <trkpt lat="47.45984" lon="6.68207">
        <ele>309.125</ele>
        <time>2015-10-03T11:33:51Z</time>
      </trkpt>
      <trkpt lat="47.45988" lon="6.68207">
        <ele>309.419</ele>
        <time>2015-10-03T11:33:52Z</time>
      </trkpt>
      <trkpt lat="47.4599" lon="6.68206">
        <ele>304.857</ele>
        <time>2015-10-03T11:33:53Z</time>
      </trkpt>
      <trkpt lat="47.45993" lon="6.68206">
        <ele>305.659</ele>
        <time>2015-10-03T11:33:54Z</time>
      </trkpt>
      <trkpt lat="47.45997" lon="6.68206">
        <ele>306.772</ele>
        <time>2015-10-03T11:33:55Z</time>
      </trkpt>
      <trkpt lat="47.46" lon="6.68206">
        <ele>307.32</ele>
        <time>2015-10-03T11:33:56Z</time>
      </trkpt>
      <trkpt lat="47.46003" lon="6.68206">
        <ele>306.833</ele>
        <time>2015-10-03T11:33:57Z</time>
      </trkpt>
      <trkpt lat="47.46007" lon="6.68206">
        <ele>309.383</ele>
        <time>2015-10-03T11:33:58Z</time>
      </trkpt>
      <trkpt lat="47.4601" lon="6.68206">
        <ele>308.819</ele>
        <time>2015-10-03T11:33:59Z</time>
      </trkpt>
      <trkpt lat="47.46014" lon="6.68206">
        <ele>309.262</ele>
        <time>2015-10-03T11:34:00Z</time>
      </trkpt>
      <trkpt lat="47.46018" lon="6.68207">
        <ele>308.065</ele>
        <time>2015-10-03T11:34:01Z</time>
      </trkpt>
      <trkpt lat="47.46023" lon="6.68207">
        <ele>305.976</ele>
        <time>2015-10-03T11:34:02Z</time>
      </trkpt>
      <trkpt lat="47.46027" lon="6.68207">
        <ele>305.297</ele>
        <time>2015-10-03T11:34:03Z</time>
      </trkpt>
      <trkpt lat="47.46031" lon="6.68207">
        <ele>306.583</ele>
        <time>2015-10-03T11:34:04Z</time>
      </trkpt>
      <trkpt lat="47.46035" lon="6.68206">
        <ele>305.903</ele>
        <time>2015-10-03T11:34:05Z</time>
      </trkpt>
      <trkpt lat="47.46039" lon="6.68206">
        <ele>306.274</ele>
        <time>2015-10-03T11:34:06Z</time>
      </trkpt>
      <trkpt lat="47.46043" lon="6.68206">
        <ele>306.195</ele>
        <time>2015-10-03T11:34:07Z</time>
      </trkpt>
      <trkpt lat="47.46046" lon="6.68206">
        <ele>307.51</ele>
        <time>2015-10-03T11:34:08Z</time>
      </trkpt>
      <trkpt lat="47.4605" lon="6.68206">
        <ele>307.681</ele>
        <time>2015-10-03T11:34:09Z</time>
      </trkpt>
      <trkpt lat="47.46054" lon="6.68205">
        <ele>304.484</ele>
        <time>2015-10-03T11:34:10Z</time>
      </trkpt>
      <trkpt lat="47.46058" lon="6.68204">
        <ele>305.799</ele>
        <time>2015-10-03T11:34:11Z</time>
      </trkpt>
      <trkpt lat="47.46063" lon="6.68204">
        <ele>306.683</ele>
        <time>2015-10-03T11:34:12Z</time>
      </trkpt>
      <trkpt lat="47.46067" lon="6.68204">
        <ele>307.679</ele>
        <time>2015-10-03T11:34:13Z</time>
      </trkpt>
      <trkpt lat="47.46071" lon="6.68203">
        <ele>309.477</ele>
        <time>2015-10-03T11:34:14Z</time>
      </trkpt>
      <trkpt lat="47.46075" lon="6.68203">
        <ele>309.201</ele>
        <time>2015-10-03T11:34:15Z</time>
      </trkpt>
      <trkpt lat="47.46081" lon="6.68201">
        <ele>309.29</ele>
        <time>2015-10-03T11:34:16Z</time>
      </trkpt>
      <trkpt lat="47.46086" lon="6.682">
        <ele>309.873</ele>
        <time>2015-10-03T11:34:17Z</time>
      </trkpt>
      <trkpt lat="47.46092" lon="6.68199">
        <ele>308.877</ele>
        <time>2015-10-03T11:34:18Z</time>
      </trkpt>
      <trkpt lat="47.46097" lon="6.68197">
        <ele>309.832</ele>
        <time>2015-10-03T11:34:19Z</time>
      </trkpt>
      <trkpt lat="47.46102" lon="6.68196">
        <ele>308.834</ele>
        <time>2015-10-03T11:34:20Z</time>
      </trkpt>
      <trkpt lat="47.46108" lon="6.68193">
        <ele>309.808</ele>
        <time>2015-10-03T11:34:21Z</time>
      </trkpt>
      <trkpt lat="47.46113" lon="6.68194">
        <ele>310.803</ele>
        <time>2015-10-03T11:34:22Z</time>
      </trkpt>
      <trkpt lat="47.46118" lon="6.68194">
        <ele>311.645</ele>
        <time>2015-10-03T11:34:23Z</time>
      </trkpt>
      <trkpt lat="47.46123" lon="6.68193">
        <ele>311.362</ele>
        <time>2015-10-03T11:34:24Z</time>
      </trkpt>
      <trkpt lat="47.46128" lon="6.68191">
        <ele>311.02</ele>
        <time>2015-10-03T11:34:25Z</time>
      </trkpt>
      <trkpt lat="47.46132" lon="6.6819">
        <ele>310.441</ele>
        <time>2015-10-03T11:34:26Z</time>
      </trkpt>
      <trkpt lat="47.46137" lon="6.6819">
        <ele>310.1</ele>
        <time>2015-10-03T11:34:27Z</time>
      </trkpt>
      <trkpt lat="47.46141" lon="6.68191">
        <ele>310.396</ele>
        <time>2015-10-03T11:34:28Z</time>
      </trkpt>
      <trkpt lat="47.46145" lon="6.68192">
        <ele>311.872</ele>
        <time>2015-10-03T11:34:29Z</time>
      </trkpt>
      <trkpt lat="47.4615" lon="6.6819">
        <ele>310.196</ele>
        <time>2015-10-03T11:34:30Z</time>
      </trkpt>
      <trkpt lat="47.46155" lon="6.68189">
        <ele>309.829</ele>
        <time>2015-10-03T11:34:31Z</time>
      </trkpt>
      <trkpt lat="47.46159" lon="6.6819">
        <ele>310.71</ele>
        <time>2015-10-03T11:34:32Z</time>
      </trkpt>
      <trkpt lat="47.4616" lon="6.68194">
        <ele>310.725</ele>
        <time>2015-10-03T11:34:33Z</time>
      </trkpt>
      <trkpt lat="47.46164" lon="6.68196">
        <ele>311.447</ele>
        <time>2015-10-03T11:34:34Z</time>
      </trkpt>
      <trkpt lat="47.46168" lon="6.68196">
        <ele>311.38</ele>
        <time>2015-10-03T11:34:35Z</time>
      </trkpt>
      <trkpt lat="47.46172" lon="6.68195">
        <ele>311.344</ele>
        <time>2015-10-03T11:34:36Z</time>
      </trkpt>
      <trkpt lat="47.46178" lon="6.68192">
        <ele>310.91</ele>
        <time>2015-10-03T11:34:37Z</time>
      </trkpt>
      <trkpt lat="47.46184" lon="6.68189">
        <ele>310.853</ele>
        <time>2015-10-03T11:34:38Z</time>
      </trkpt>
      <trkpt lat="47.46187" lon="6.68192">
        <ele>313.509</ele>
        <time>2015-10-03T11:34:39Z</time>
      </trkpt>
      <trkpt lat="47.4619" lon="6.68193">
        <ele>315.884</ele>
        <time>2015-10-03T11:34:40Z</time>
      </trkpt>
      <trkpt lat="47.46194" lon="6.68193">
        <ele>315.159</ele>
        <time>2015-10-03T11:34:41Z</time>
      </trkpt>
      <trkpt lat="47.46198" lon="6.68193">
        <ele>315.734</ele>
        <time>2015-10-03T11:34:42Z</time>
      </trkpt>
      <trkpt lat="47.46201" lon="6.68194">
        <ele>315.08</ele>
        <time>2015-10-03T11:34:43Z</time>
      </trkpt>
      <trkpt lat="47.46205" lon="6.68193">
        <ele>313.513</ele>
        <time>2015-10-03T11:34:44Z</time>
      </trkpt>
      <trkpt lat="47.46209" lon="6.68193">
        <ele>314.295</ele>
        <time>2015-10-03T11:34:45Z</time>
      </trkpt>
      <trkpt lat="47.46213" lon="6.68194">
        <ele>314.394</ele>
        <time>2015-10-03T11:34:46Z</time>
      </trkpt>
      <trkpt lat="47.46216" lon="6.68194">
        <ele>314.792</ele>
        <time>2015-10-03T11:34:47Z</time>
      </trkpt>
      <trkpt lat="47.4622" lon="6.68195">
        <ele>314.656</ele>
        <time>2015-10-03T11:34:48Z</time>
      </trkpt>
      <trkpt lat="47.46224" lon="6.68196">
        <ele>314.593</ele>
        <time>2015-10-03T11:34:49Z</time>
      </trkpt>
      <trkpt lat="47.46228" lon="6.68197">
        <ele>314.432</ele>
        <time>2015-10-03T11:34:50Z</time>
      </trkpt>
      <trkpt lat="47.46231" lon="6.68199">
        <ele>315.354</ele>
        <time>2015-10-03T11:34:51Z</time>
      </trkpt>
      <trkpt lat="47.46235" lon="6.68201">
        <ele>314.561</ele>
        <time>2015-10-03T11:34:52Z</time>
      </trkpt>
      <trkpt lat="47.4624" lon="6.68202">
        <ele>312.035</ele>
        <time>2015-10-03T11:34:53Z</time>
      </trkpt>
      <trkpt lat="47.46245" lon="6.68201">
        <ele>309.682</ele>
        <time>2015-10-03T11:34:54Z</time>
      </trkpt>
      <trkpt lat="47.46249" lon="6.68201">
        <ele>309.146</ele>
        <time>2015-10-03T11:34:55Z</time>
      </trkpt>
      <trkpt lat="47.46253" lon="6.682">
        <ele>309.424</ele>
        <time>2015-10-03T11:34:56Z</time>
      </trkpt>
      <trkpt lat="47.46257" lon="6.68199">
        <ele>309.631</ele>
        <time>2015-10-03T11:34:57Z</time>
      </trkpt>
      <trkpt lat="47.46261" lon="6.68199">
        <ele>309.799</ele>
        <time>2015-10-03T11:34:58Z</time>
      </trkpt>
      <trkpt lat="47.46265" lon="6.68199">
        <ele>310.977</ele>
        <time>2015-10-03T11:34:59Z</time>
      </trkpt>
      <trkpt lat="47.46269" lon="6.68199">
        <ele>308.795</ele>
        <time>2015-10-03T11:35:00Z</time>
      </trkpt>
      <trkpt lat="47.46272" lon="6.68199">
        <ele>309.041</ele>
        <time>2015-10-03T11:35:01Z</time>
      </trkpt>
      <trkpt lat="47.46275" lon="6.68199">
        <ele>310.036</ele>
        <time>2015-10-03T11:35:02Z</time>
      </trkpt>
      <trkpt lat="47.46278" lon="6.68199">
        <ele>311.122</ele>
        <time>2015-10-03T11:35:03Z</time>
      </trkpt>
      <trkpt lat="47.46281" lon="6.68199">
        <ele>312.617</ele>
        <time>2015-10-03T11:35:04Z</time>
      </trkpt>
      <trkpt lat="47.46283" lon="6.68197">
        <ele>316.18</ele>
        <time>2015-10-03T11:35:05Z</time>
      </trkpt>
      <trkpt lat="47.46285" lon="6.68195">
        <ele>318.653</ele>
        <time>2015-10-03T11:35:06Z</time>
      </trkpt>
      <trkpt lat="47.46288" lon="6.68194">
        <ele>319.207</ele>
        <time>2015-10-03T11:35:07Z</time>
      </trkpt>
      <trkpt lat="47.46291" lon="6.68193">
        <ele>315.951</ele>
        <time>2015-10-03T11:35:08Z</time>
      </trkpt>
      <trkpt lat="47.46294" lon="6.68193">
        <ele>316.404</ele>
        <time>2015-10-03T11:35:09Z</time>
      </trkpt>
      <trkpt lat="47.46297" lon="6.68193">
        <ele>316.52</ele>
        <time>2015-10-03T11:35:10Z</time>
      </trkpt>
      <trkpt lat="47.463" lon="6.68192">
        <ele>316.792</ele>
        <time>2015-10-03T11:35:11Z</time>
      </trkpt>
      <trkpt lat="47.46304" lon="6.68191">
        <ele>317.446</ele>
        <time>2015-10-03T11:35:12Z</time>
      </trkpt>
      <trkpt lat="47.46308" lon="6.6819">
        <ele>316.477</ele>
        <time>2015-10-03T11:35:13Z</time>
      </trkpt>
      <trkpt lat="47.46312" lon="6.68188">
        <ele>315.542</ele>
        <time>2015-10-03T11:35:14Z</time>
      </trkpt>
      <trkpt lat="47.46315" lon="6.68186">
        <ele>316.926</ele>
        <time>2015-10-03T11:35:15Z</time>
      </trkpt>
      <trkpt lat="47.46319" lon="6.68183">
        <ele>318.007</ele>
        <time>2015-10-03T11:35:16Z</time>
      </trkpt>
      <trkpt lat="47.46322" lon="6.6818">
        <ele>319.568</ele>
        <time>2015-10-03T11:35:17Z</time>
      </trkpt>
      <trkpt lat="47.46325" lon="6.68178">
        <ele>319.467</ele>
        <time>2015-10-03T11:35:18Z</time>
      </trkpt>
      <trkpt lat="47.46328" lon="6.68176">
        <ele>318.145</ele>
        <time>2015-10-03T11:35:19Z</time>
      </trkpt>
      <trkpt lat="47.46331" lon="6.68174">
        <ele>318.375</ele>
        <time>2015-10-03T11:35:20Z</time>
      </trkpt>
      <trkpt lat="47.46334" lon="6.68174">
        <ele>317.461</ele>
        <time>2015-10-03T11:35:21Z</time>
      </trkpt>
      <trkpt lat="47.46336" lon="6.68174">
        <ele>317.615</ele>
        <time>2015-10-03T11:35:22Z</time>
      </trkpt>
      <trkpt lat="47.46339" lon="6.68174">
        <ele>319.125</ele>
        <time>2015-10-03T11:35:23Z</time>
      </trkpt>
      <trkpt lat="47.46341" lon="6.68175">
        <ele>320.087</ele>
        <time>2015-10-03T11:35:24Z</time>
      </trkpt>
      <trkpt lat="47.46344" lon="6.68176">
        <ele>319.809</ele>
        <time>2015-10-03T11:35:25Z</time>
      </trkpt>
      <trkpt lat="47.46347" lon="6.68176">
        <ele>319.789</ele>
        <time>2015-10-03T11:35:26Z</time>
      </trkpt>
      <trkpt lat="47.46351" lon="6.68176">
        <ele>319.06</ele>
        <time>2015-10-03T11:35:27Z</time>
      </trkpt>
      <trkpt lat="47.46355" lon="6.68175">
        <ele>319.528</ele>
        <time>2015-10-03T11:35:28Z</time>
      </trkpt>
      <trkpt lat="47.46358" lon="6.68174">
        <ele>318.366</ele>
        <time>2015-10-03T11:35:29Z</time>
      </trkpt>
      <trkpt lat="47.46361" lon="6.68173">
        <ele>320.311</ele>
        <time>2015-10-03T11:35:30Z</time>
      </trkpt>
      <trkpt lat="47.46364" lon="6.68172">
        <ele>321.566</ele>
        <time>2015-10-03T11:35:31Z</time>
      </trkpt>
      <trkpt lat="47.46367" lon="6.68171">
        <ele>318.06</ele>
        <time>2015-10-03T11:35:32Z</time>
      </trkpt>
      <trkpt lat="47.4637" lon="6.68169">
        <ele>318.671</ele>
        <time>2015-10-03T11:35:33Z</time>
      </trkpt>
      <trkpt lat="47.46373" lon="6.68169">
        <ele>320.397</ele>
        <time>2015-10-03T11:35:34Z</time>
      </trkpt>
      <trkpt lat="47.46375" lon="6.68169">
        <ele>322.842</ele>
        <time>2015-10-03T11:35:35Z</time>
      </trkpt>
      <trkpt lat="47.46377" lon="6.68169">
        <ele>322.32</ele>
        <time>2015-10-03T11:35:36Z</time>
      </trkpt>
      <trkpt lat="47.46381" lon="6.68169">
        <ele>321.087</ele>
        <time>2015-10-03T11:35:37Z</time>
      </trkpt>
      <trkpt lat="47.46384" lon="6.68169">
        <ele>318.375</ele>
        <time>2015-10-03T11:35:38Z</time>
      </trkpt>
      <trkpt lat="47.46387" lon="6.68168">
        <ele>318.03</ele>
        <time>2015-10-03T11:35:39Z</time>
      </trkpt>
      <trkpt lat="47.46391" lon="6.68168">
        <ele>317.828</ele>
        <time>2015-10-03T11:35:40Z</time>
      </trkpt>
      <trkpt lat="47.46394" lon="6.68167">
        <ele>317.54</ele>
        <time>2015-10-03T11:35:41Z</time>
      </trkpt>
      <trkpt lat="47.46396" lon="6.68167">
        <ele>318.397</ele>
        <time>2015-10-03T11:35:42Z</time>
      </trkpt>
      <trkpt lat="47.46399" lon="6.68167">
        <ele>319.17</ele>
        <time>2015-10-03T11:35:43Z</time>
      </trkpt>
      <trkpt lat="47.46402" lon="6.68167">
        <ele>320.786</ele>
        <time>2015-10-03T11:35:44Z</time>
      </trkpt>
      <trkpt lat="47.46404" lon="6.68167">
        <ele>321.306</ele>
        <time>2015-10-03T11:35:45Z</time>
      </trkpt>
      <trkpt lat="47.46407" lon="6.68168">
        <ele>321.878</ele>
        <time>2015-10-03T11:35:46Z</time>
      </trkpt>
      <trkpt lat="47.46409" lon="6.68168">
        <ele>322.706</ele>
        <time>2015-10-03T11:35:47Z</time>
      </trkpt>
      <trkpt lat="47.46412" lon="6.68169">
        <ele>323.003</ele>
        <time>2015-10-03T11:35:48Z</time>
      </trkpt>
      <trkpt lat="47.46415" lon="6.68169">
        <ele>320.851</ele>
        <time>2015-10-03T11:35:49Z</time>
      </trkpt>
      <trkpt lat="47.46418" lon="6.6817">
        <ele>319.527</ele>
        <time>2015-10-03T11:35:50Z</time>
      </trkpt>
      <trkpt lat="47.46421" lon="6.68171">
        <ele>316.114</ele>
        <time>2015-10-03T11:35:51Z</time>
      </trkpt>
      <trkpt lat="47.46424" lon="6.68172">
        <ele>318.39</ele>
        <time>2015-10-03T11:35:52Z</time>
      </trkpt>
      <trkpt lat="47.46428" lon="6.68173">
        <ele>316.848</ele>
        <time>2015-10-03T11:35:53Z</time>
      </trkpt>
      <trkpt lat="47.46431" lon="6.68174">
        <ele>317.039</ele>
        <time>2015-10-03T11:35:54Z</time>
      </trkpt>
      <trkpt lat="47.46434" lon="6.68174">
        <ele>317.253</ele>
        <time>2015-10-03T11:35:55Z</time>
      </trkpt>
      <trkpt lat="47.46436" lon="6.68175">
        <ele>317.066</ele>
        <time>2015-10-03T11:35:56Z</time>
      </trkpt>
      <trkpt lat="47.46439" lon="6.68175">
        <ele>316.131</ele>
        <time>2015-10-03T11:35:57Z</time>
      </trkpt>
      <trkpt lat="47.46441" lon="6.68176">
        <ele>317.561</ele>
        <time>2015-10-03T11:35:58Z</time>
      </trkpt>
      <trkpt lat="47.46443" lon="6.68176">
        <ele>318.724</ele>
        <time>2015-10-03T11:35:59Z</time>
      </trkpt>
      <trkpt lat="47.46446" lon="6.68177">
        <ele>316.642</ele>
        <time>2015-10-03T11:36:00Z</time>
      </trkpt>
      <trkpt lat="47.4645" lon="6.68177">
        <ele>316.865</ele>
        <time>2015-10-03T11:36:01Z</time>
      </trkpt>
      <trkpt lat="47.46453" lon="6.68178">
        <ele>316.861</ele>
        <time>2015-10-03T11:36:02Z</time>
      </trkpt>
      <trkpt lat="47.46457" lon="6.68179">
        <ele>316.064</ele>
        <time>2015-10-03T11:36:03Z</time>
      </trkpt>
      <trkpt lat="47.4646" lon="6.6818">
        <ele>313.624</ele>
        <time>2015-10-03T11:36:04Z</time>
      </trkpt>
      <trkpt lat="47.46462" lon="6.6818">
        <ele>314.343</ele>
        <time>2015-10-03T11:36:05Z</time>
      </trkpt>
      <trkpt lat="47.46465" lon="6.68182">
        <ele>314.402</ele>
        <time>2015-10-03T11:36:06Z</time>
      </trkpt>
      <trkpt lat="47.46466" lon="6.68183">
        <ele>315.927</ele>
        <time>2015-10-03T11:36:07Z</time>
      </trkpt>
      <trkpt lat="47.46468" lon="6.68183">
        <ele>316.451</ele>
        <time>2015-10-03T11:36:08Z</time>
      </trkpt>
      <trkpt lat="47.4647" lon="6.68183">
        <ele>317.458</ele>
        <time>2015-10-03T11:36:09Z</time>
      </trkpt>
      <trkpt lat="47.46472" lon="6.68183">
        <ele>318.705</ele>
        <time>2015-10-03T11:36:10Z</time>
      </trkpt>
      <trkpt lat="47.46474" lon="6.68184">
        <ele>316.639</ele>
        <time>2015-10-03T11:36:11Z</time>
      </trkpt>
      <trkpt lat="47.46476" lon="6.68184">
        <ele>316.801</ele>
        <time>2015-10-03T11:36:12Z</time>
      </trkpt>
      <trkpt lat="47.46478" lon="6.68185">
        <ele>315.95</ele>
        <time>2015-10-03T11:36:13Z</time>
      </trkpt>
      <trkpt lat="47.4648" lon="6.68187">
        <ele>316.989</ele>
        <time>2015-10-03T11:36:14Z</time>
      </trkpt>
      <trkpt lat="47.4648" lon="6.68188">
        <ele>317.337</ele>
        <time>2015-10-03T11:36:15Z</time>
      </trkpt>
      <trkpt lat="47.46482" lon="6.6819">
        <ele>317.622</ele>
        <time>2015-10-03T11:36:16Z</time>
      </trkpt>
      <trkpt lat="47.46484" lon="6.68191">
        <ele>315.566</ele>
        <time>2015-10-03T11:36:17Z</time>
      </trkpt>
      <trkpt lat="47.46486" lon="6.68191">
        <ele>315.756</ele>
        <time>2015-10-03T11:36:18Z</time>
      </trkpt>
      <trkpt lat="47.46489" lon="6.68191">
        <ele>315.85</ele>
        <time>2015-10-03T11:36:19Z</time>
      </trkpt>
      <trkpt lat="47.46491" lon="6.68191">
        <ele>317.467</ele>
        <time>2015-10-03T11:36:20Z</time>
      </trkpt>
      <trkpt lat="47.46494" lon="6.68193">
        <ele>320.243</ele>
        <time>2015-10-03T11:36:21Z</time>
      </trkpt>
      <trkpt lat="47.46497" lon="6.68195">
        <ele>323.744</ele>
        <time>2015-10-03T11:36:22Z</time>
      </trkpt>
      <trkpt lat="47.465" lon="6.68196">
        <ele>324.899</ele>
        <time>2015-10-03T11:36:23Z</time>
      </trkpt>
      <trkpt lat="47.46505" lon="6.68198">
        <ele>325.665</ele>
        <time>2015-10-03T11:36:24Z</time>
      </trkpt>
      <trkpt lat="47.4651" lon="6.68199">
        <ele>328.774</ele>
        <time>2015-10-03T11:36:25Z</time>
      </trkpt>
      <trkpt lat="47.46515" lon="6.68199">
        <ele>328.272</ele>
        <time>2015-10-03T11:36:26Z</time>
      </trkpt>
      <trkpt lat="47.4652" lon="6.682">
        <ele>328.599</ele>
        <time>2015-10-03T11:36:27Z</time>
      </trkpt>
      <trkpt lat="47.46525" lon="6.68202">
        <ele>329.642</ele>
        <time>2015-10-03T11:36:28Z</time>
      </trkpt>
      <trkpt lat="47.46531" lon="6.68205">
        <ele>330.968</ele>
        <time>2015-10-03T11:36:29Z</time>
      </trkpt>
      <trkpt lat="47.46535" lon="6.68208">
        <ele>330.821</ele>
        <time>2015-10-03T11:36:30Z</time>
      </trkpt>
      <trkpt lat="47.46545" lon="6.68213">
        <ele>330.837</ele>
        <time>2015-10-03T11:36:31Z</time>
      </trkpt>
      <trkpt lat="47.46554" lon="6.68217">
        <ele>330.167</ele>
        <time>2015-10-03T11:36:32Z</time>
      </trkpt>
      <trkpt lat="47.46563" lon="6.68222">
        <ele>329.333</ele>
        <time>2015-10-03T11:36:33Z</time>
      </trkpt>
      <trkpt lat="47.4657" lon="6.68227">
        <ele>329.184</ele>
        <time>2015-10-03T11:36:34Z</time>
      </trkpt>
      <trkpt lat="47.46578" lon="6.6823">
        <ele>327.738</ele>
        <time>2015-10-03T11:36:35Z</time>
      </trkpt>
      <trkpt lat="47.46585" lon="6.68232">
        <ele>326.144</ele>
        <time>2015-10-03T11:36:36Z</time>
      </trkpt>
      <trkpt lat="47.46592" lon="6.68232">
        <ele>324.18</ele>
        <time>2015-10-03T11:36:37Z</time>
      </trkpt>
      <trkpt lat="47.46601" lon="6.68234">
        <ele>322.913</ele>
        <time>2015-10-03T11:36:38Z</time>
      </trkpt>
      <trkpt lat="47.46609" lon="6.68236">
        <ele>321.667</ele>
        <time>2015-10-03T11:36:39Z</time>
      </trkpt>
      <trkpt lat="47.46615" lon="6.68243">
        <ele>322.517</ele>
        <time>2015-10-03T11:36:40Z</time>
      </trkpt>
      <trkpt lat="47.46621" lon="6.68247">
        <ele>322.763</ele>
        <time>2015-10-03T11:36:41Z</time>
      </trkpt>
      <trkpt lat="47.46627" lon="6.68253">
        <ele>322.616</ele>
        <time>2015-10-03T11:36:42Z</time>
      </trkpt>
      <trkpt lat="47.46633" lon="6.68257">
        <ele>322.306</ele>
        <time>2015-10-03T11:36:43Z</time>
      </trkpt>
      <trkpt lat="47.4664" lon="6.68261">
        <ele>321.942</ele>
        <time>2015-10-03T11:36:44Z</time>
      </trkpt>
      <trkpt lat="47.46646" lon="6.68266">
        <ele>321.94</ele>
        <time>2015-10-03T11:36:45Z</time>
      </trkpt>
      <trkpt lat="47.46652" lon="6.68271">
        <ele>321.488</ele>
        <time>2015-10-03T11:36:46Z</time>
      </trkpt>
      <trkpt lat="47.46658" lon="6.68273">
        <ele>319.827</ele>
        <time>2015-10-03T11:36:47Z</time>
      </trkpt>
      <trkpt lat="47.46664" lon="6.68278">
        <ele>319.667</ele>
        <time>2015-10-03T11:36:48Z</time>
      </trkpt>
      <trkpt lat="47.4667" lon="6.68282">
        <ele>318.909</ele>
        <time>2015-10-03T11:36:49Z</time>
      </trkpt>
      <trkpt lat="47.46676" lon="6.68287">
        <ele>318.34</ele>
        <time>2015-10-03T11:36:50Z</time>
      </trkpt>
      <trkpt lat="47.46682" lon="6.68292">
        <ele>317.372</ele>
        <time>2015-10-03T11:36:51Z</time>
      </trkpt>
      <trkpt lat="47.46688" lon="6.68298">
        <ele>316.595</ele>
        <time>2015-10-03T11:36:52Z</time>
      </trkpt>
      <trkpt lat="47.46694" lon="6.68304">
        <ele>315.267</ele>
        <time>2015-10-03T11:36:53Z</time>
      </trkpt>
      <trkpt lat="47.46699" lon="6.6831">
        <ele>313.831</ele>
        <time>2015-10-03T11:36:54Z</time>
      </trkpt>
      <trkpt lat="47.46705" lon="6.68316">
        <ele>313.144</ele>
        <time>2015-10-03T11:36:55Z</time>
      </trkpt>
      <trkpt lat="47.4671" lon="6.68323">
        <ele>312.518</ele>
        <time>2015-10-03T11:36:56Z</time>
      </trkpt>
      <trkpt lat="47.46716" lon="6.68329">
        <ele>312.623</ele>
        <time>2015-10-03T11:36:57Z</time>
      </trkpt>
      <trkpt lat="47.46722" lon="6.68335">
        <ele>312.353</ele>
        <time>2015-10-03T11:36:58Z</time>
      </trkpt>
      <trkpt lat="47.46728" lon="6.68342">
        <ele>312.269</ele>
        <time>2015-10-03T11:36:59Z</time>
      </trkpt>
      <trkpt lat="47.46734" lon="6.68348">
        <ele>312.192</ele>
        <time>2015-10-03T11:37:00Z</time>
      </trkpt>
      <trkpt lat="47.4674" lon="6.68353">
        <ele>311.644</ele>
        <time>2015-10-03T11:37:01Z</time>
      </trkpt>
      <trkpt lat="47.46746" lon="6.68359">
        <ele>311.598</ele>
        <time>2015-10-03T11:37:02Z</time>
      </trkpt>
      <trkpt lat="47.46752" lon="6.68366">
        <ele>311.297</ele>
        <time>2015-10-03T11:37:03Z</time>
      </trkpt>
      <trkpt lat="47.46758" lon="6.68373">
        <ele>310.904</ele>
        <time>2015-10-03T11:37:04Z</time>
      </trkpt>
      <trkpt lat="47.46764" lon="6.68379">
        <ele>310.759</ele>
        <time>2015-10-03T11:37:05Z</time>
      </trkpt>
      <trkpt lat="47.4677" lon="6.68386">
        <ele>310.5</ele>
        <time>2015-10-03T11:37:06Z</time>
      </trkpt>
      <trkpt lat="47.46776" lon="6.68392">
        <ele>310.316</ele>
        <time>2015-10-03T11:37:07Z</time>
      </trkpt>
      <trkpt lat="47.46781" lon="6.68398">
        <ele>309.953</ele>
        <time>2015-10-03T11:37:08Z</time>
      </trkpt>
      <trkpt lat="47.46787" lon="6.68405">
        <ele>309.5</ele>
        <time>2015-10-03T11:37:09Z</time>
      </trkpt>
      <trkpt lat="47.46792" lon="6.68412">
        <ele>309.276</ele>
        <time>2015-10-03T11:37:10Z</time>
      </trkpt>
      <trkpt lat="47.46797" lon="6.68417">
        <ele>309.015</ele>
        <time>2015-10-03T11:37:11Z</time>
      </trkpt>
      <trkpt lat="47.46802" lon="6.68423">
        <ele>308.235</ele>
        <time>2015-10-03T11:37:12Z</time>
      </trkpt>
      <trkpt lat="47.46807" lon="6.68428">
        <ele>307.777</ele>
        <time>2015-10-03T11:37:13Z</time>
      </trkpt>
      <trkpt lat="47.46812" lon="6.68434">
        <ele>307.573</ele>
        <time>2015-10-03T11:37:14Z</time>
      </trkpt>
      <trkpt lat="47.46816" lon="6.6844">
        <ele>307.779</ele>
        <time>2015-10-03T11:37:15Z</time>
      </trkpt>
      <trkpt lat="47.46821" lon="6.68446">
        <ele>307.767</ele>
        <time>2015-10-03T11:37:16Z</time>
      </trkpt>
      <trkpt lat="47.46826" lon="6.68452">
        <ele>307.846</ele>
        <time>2015-10-03T11:37:17Z</time>
      </trkpt>
      <trkpt lat="47.46831" lon="6.68457">
        <ele>308.129</ele>
        <time>2015-10-03T11:37:18Z</time>
      </trkpt>
      <trkpt lat="47.46835" lon="6.68461">
        <ele>308.547</ele>
        <time>2015-10-03T11:37:19Z</time>
      </trkpt>
      <trkpt lat="47.4684" lon="6.68467">
        <ele>308.912</ele>
        <time>2015-10-03T11:37:20Z</time>
      </trkpt>
      <trkpt lat="47.46844" lon="6.68473">
        <ele>309.071</ele>
        <time>2015-10-03T11:37:21Z</time>
      </trkpt>
      <trkpt lat="47.46848" lon="6.68478">
        <ele>309.036</ele>
        <time>2015-10-03T11:37:22Z</time>
      </trkpt>
      <trkpt lat="47.46853" lon="6.68483">
        <ele>308.932</ele>
        <time>2015-10-03T11:37:23Z</time>
      </trkpt>
      <trkpt lat="47.46857" lon="6.68487">
        <ele>309.062</ele>
        <time>2015-10-03T11:37:24Z</time>
      </trkpt>
      <trkpt lat="47.46861" lon="6.68492">
        <ele>309.231</ele>
        <time>2015-10-03T11:37:25Z</time>
      </trkpt>
      <trkpt lat="47.46865" lon="6.68496">
        <ele>309.431</ele>
        <time>2015-10-03T11:37:26Z</time>
      </trkpt>
      <trkpt lat="47.46868" lon="6.68499">
        <ele>310.085</ele>
        <time>2015-10-03T11:37:27Z</time>
      </trkpt>
      <trkpt lat="47.46872" lon="6.68503">
        <ele>310.017</ele>
        <time>2015-10-03T11:37:28Z</time>
      </trkpt>
      <trkpt lat="47.46875" lon="6.68506">
        <ele>309.271</ele>
        <time>2015-10-03T11:37:29Z</time>
      </trkpt>
      <trkpt lat="47.46879" lon="6.6851">
        <ele>309.045</ele>
        <time>2015-10-03T11:37:30Z</time>
      </trkpt>
      <trkpt lat="47.46882" lon="6.68513">
        <ele>308.506</ele>
        <time>2015-10-03T11:37:31Z</time>
      </trkpt>
      <trkpt lat="47.46885" lon="6.68517">
        <ele>308.753</ele>
        <time>2015-10-03T11:37:32Z</time>
      </trkpt>
      <trkpt lat="47.46888" lon="6.6852">
        <ele>309.164</ele>
        <time>2015-10-03T11:37:33Z</time>
      </trkpt>
      <trkpt lat="47.46892" lon="6.68523">
        <ele>309.2</ele>
        <time>2015-10-03T11:37:34Z</time>
      </trkpt>
      <trkpt lat="47.46897" lon="6.68526">
        <ele>309.67</ele>
        <time>2015-10-03T11:37:35Z</time>
      </trkpt>
      <trkpt lat="47.46899" lon="6.68529">
        <ele>309.888</ele>
        <time>2015-10-03T11:37:36Z</time>
      </trkpt>
      <trkpt lat="47.46903" lon="6.68533">
        <ele>310.311</ele>
        <time>2015-10-03T11:37:37Z</time>
      </trkpt>
      <trkpt lat="47.46906" lon="6.68536">
        <ele>310.595</ele>
        <time>2015-10-03T11:37:38Z</time>
      </trkpt>
      <trkpt lat="47.46909" lon="6.68539">
        <ele>310.26</ele>
        <time>2015-10-03T11:37:39Z</time>
      </trkpt>
      <trkpt lat="47.46912" lon="6.68543">
        <ele>309.459</ele>
        <time>2015-10-03T11:37:40Z</time>
      </trkpt>
      <trkpt lat="47.46915" lon="6.68546">
        <ele>309.448</ele>
        <time>2015-10-03T11:37:41Z</time>
      </trkpt>
      <trkpt lat="47.46919" lon="6.6855">
        <ele>309.866</ele>
        <time>2015-10-03T11:37:42Z</time>
      </trkpt>
      <trkpt lat="47.46921" lon="6.68551">
        <ele>310.795</ele>
        <time>2015-10-03T11:37:43Z</time>
      </trkpt>
      <trkpt lat="47.46924" lon="6.68553">
        <ele>310.386</ele>
        <time>2015-10-03T11:37:44Z</time>
      </trkpt>
      <trkpt lat="47.46928" lon="6.68556">
        <ele>310.434</ele>
        <time>2015-10-03T11:37:45Z</time>
      </trkpt>
      <trkpt lat="47.46931" lon="6.6856">
        <ele>310.295</ele>
        <time>2015-10-03T11:37:46Z</time>
      </trkpt>
      <trkpt lat="47.46935" lon="6.68564">
        <ele>309.354</ele>
        <time>2015-10-03T11:37:47Z</time>
      </trkpt>
      <trkpt lat="47.46938" lon="6.68568">
        <ele>308.494</ele>
        <time>2015-10-03T11:37:48Z</time>
      </trkpt>
      <trkpt lat="47.46942" lon="6.68574">
        <ele>309.019</ele>
        <time>2015-10-03T11:37:49Z</time>
      </trkpt>
      <trkpt lat="47.46946" lon="6.68577">
        <ele>307.749</ele>
        <time>2015-10-03T11:37:50Z</time>
      </trkpt>
      <trkpt lat="47.46949" lon="6.68583">
        <ele>307.994</ele>
        <time>2015-10-03T11:37:51Z</time>
      </trkpt>
      <trkpt lat="47.46953" lon="6.68587">
        <ele>308.289</ele>
        <time>2015-10-03T11:37:52Z</time>
      </trkpt>
      <trkpt lat="47.46956" lon="6.68592">
        <ele>308.493</ele>
        <time>2015-10-03T11:37:53Z</time>
      </trkpt>
      <trkpt lat="47.46958" lon="6.68595">
        <ele>310.225</ele>
        <time>2015-10-03T11:37:54Z</time>
      </trkpt>
      <trkpt lat="47.46961" lon="6.686">
        <ele>310.991</ele>
        <time>2015-10-03T11:37:55Z</time>
      </trkpt>
      <trkpt lat="47.46963" lon="6.68606">
        <ele>312.046</ele>
        <time>2015-10-03T11:37:56Z</time>
      </trkpt>
      <trkpt lat="47.46968" lon="6.68612">
        <ele>311.351</ele>
        <time>2015-10-03T11:37:57Z</time>
      </trkpt>
      <trkpt lat="47.46972" lon="6.68618">
        <ele>310.154</ele>
        <time>2015-10-03T11:37:58Z</time>
      </trkpt>
      <trkpt lat="47.46975" lon="6.68623">
        <ele>311.344</ele>
        <time>2015-10-03T11:37:59Z</time>
      </trkpt>
      <trkpt lat="47.46977" lon="6.68631">
        <ele>311.375</ele>
        <time>2015-10-03T11:38:00Z</time>
      </trkpt>
      <trkpt lat="47.4698" lon="6.68637">
        <ele>311.556</ele>
        <time>2015-10-03T11:38:01Z</time>
      </trkpt>
      <trkpt lat="47.46983" lon="6.68642">
        <ele>311.672</ele>
        <time>2015-10-03T11:38:02Z</time>
      </trkpt>
      <trkpt lat="47.46986" lon="6.68647">
        <ele>311.414</ele>
        <time>2015-10-03T11:38:03Z</time>
      </trkpt>
      <trkpt lat="47.46989" lon="6.68655">
        <ele>307.898</ele>
        <time>2015-10-03T11:38:04Z</time>
      </trkpt>
      <trkpt lat="47.46993" lon="6.6866">
        <ele>307.265</ele>
        <time>2015-10-03T11:38:05Z</time>
      </trkpt>
      <trkpt lat="47.46996" lon="6.68666">
        <ele>307.977</ele>
        <time>2015-10-03T11:38:06Z</time>
      </trkpt>
      <trkpt lat="47.46996" lon="6.68672">
        <ele>306.036</ele>
        <time>2015-10-03T11:38:07Z</time>
      </trkpt>
      <trkpt lat="47.47002" lon="6.68677">
        <ele>304.987</ele>
        <time>2015-10-03T11:38:08Z</time>
      </trkpt>
      <trkpt lat="47.47007" lon="6.68682">
        <ele>304.984</ele>
        <time>2015-10-03T11:38:09Z</time>
      </trkpt>
      <trkpt lat="47.4701" lon="6.68685">
        <ele>305.857</ele>
        <time>2015-10-03T11:38:10Z</time>
      </trkpt>
      <trkpt lat="47.47013" lon="6.68689">
        <ele>305.961</ele>
        <time>2015-10-03T11:38:11Z</time>
      </trkpt>
      <trkpt lat="47.47016" lon="6.68692">
        <ele>306.142</ele>
        <time>2015-10-03T11:38:12Z</time>
      </trkpt>
      <trkpt lat="47.47019" lon="6.68696">
        <ele>306.466</ele>
        <time>2015-10-03T11:38:13Z</time>
      </trkpt>
      <trkpt lat="47.47022" lon="6.687">
        <ele>306.499</ele>
        <time>2015-10-03T11:38:14Z</time>
      </trkpt>
      <trkpt lat="47.47025" lon="6.68704">
        <ele>308.385</ele>
        <time>2015-10-03T11:38:15Z</time>
      </trkpt>
      <trkpt lat="47.47028" lon="6.68708">
        <ele>309.991</ele>
        <time>2015-10-03T11:38:16Z</time>
      </trkpt>
      <trkpt lat="47.47031" lon="6.68711">
        <ele>311.014</ele>
        <time>2015-10-03T11:38:17Z</time>
      </trkpt>
      <trkpt lat="47.47035" lon="6.68713">
        <ele>311.859</ele>
        <time>2015-10-03T11:38:18Z</time>
      </trkpt>
      <trkpt lat="47.47039" lon="6.68716">
        <ele>312.319</ele>
        <time>2015-10-03T11:38:19Z</time>
      </trkpt>
      <trkpt lat="47.47041" lon="6.6872">
        <ele>314.142</ele>
        <time>2015-10-03T11:38:20Z</time>
      </trkpt>
      <trkpt lat="47.47044" lon="6.68724">
        <ele>314.065</ele>
        <time>2015-10-03T11:38:21Z</time>
      </trkpt>
      <trkpt lat="47.47047" lon="6.68728">
        <ele>312.918</ele>
        <time>2015-10-03T11:38:22Z</time>
      </trkpt>
      <trkpt lat="47.4705" lon="6.68732">
        <ele>312.454</ele>
        <time>2015-10-03T11:38:23Z</time>
      </trkpt>
      <trkpt lat="47.47053" lon="6.68736">
        <ele>311.311</ele>
        <time>2015-10-03T11:38:24Z</time>
      </trkpt>
      <trkpt lat="47.47055" lon="6.68739">
        <ele>309.999</ele>
        <time>2015-10-03T11:38:25Z</time>
      </trkpt>
      <trkpt lat="47.47057" lon="6.68743">
        <ele>311.776</ele>
        <time>2015-10-03T11:38:26Z</time>
      </trkpt>
      <trkpt lat="47.4706" lon="6.68746">
        <ele>312.015</ele>
        <time>2015-10-03T11:38:27Z</time>
      </trkpt>
      <trkpt lat="47.47061" lon="6.68749">
        <ele>312.299</ele>
        <time>2015-10-03T11:38:28Z</time>
      </trkpt>
      <trkpt lat="47.47063" lon="6.68751">
        <ele>312.947</ele>
        <time>2015-10-03T11:38:29Z</time>
      </trkpt>
      <trkpt lat="47.47065" lon="6.68752">
        <ele>312.644</ele>
        <time>2015-10-03T11:38:30Z</time>
      </trkpt>
      <trkpt lat="47.47067" lon="6.68751">
        <ele>313.447</ele>
        <time>2015-10-03T11:38:31Z</time>
      </trkpt>
      <trkpt lat="47.47069" lon="6.68749">
        <ele>313.1</ele>
        <time>2015-10-03T11:38:32Z</time>
      </trkpt>
      <trkpt lat="47.47071" lon="6.68747">
        <ele>312.579</ele>
        <time>2015-10-03T11:38:33Z</time>
      </trkpt>
      <trkpt lat="47.47073" lon="6.68745">
        <ele>311.262</ele>
        <time>2015-10-03T11:38:34Z</time>
      </trkpt>
      <trkpt lat="47.47075" lon="6.68744">
        <ele>311.3</ele>
        <time>2015-10-03T11:38:35Z</time>
      </trkpt>
      <trkpt lat="47.47078" lon="6.68743">
        <ele>310.39</ele>
        <time>2015-10-03T11:38:36Z</time>
      </trkpt>
      <trkpt lat="47.47081" lon="6.68742">
        <ele>309.601</ele>
        <time>2015-10-03T11:38:37Z</time>
      </trkpt>
      <trkpt lat="47.47084" lon="6.6874">
        <ele>309.596</ele>
        <time>2015-10-03T11:38:38Z</time>
      </trkpt>
      <trkpt lat="47.47087" lon="6.68738">
        <ele>308.518</ele>
        <time>2015-10-03T11:38:39Z</time>
      </trkpt>
      <trkpt lat="47.4709" lon="6.68737">
        <ele>308.932</ele>
        <time>2015-10-03T11:38:40Z</time>
      </trkpt>
      <trkpt lat="47.47093" lon="6.68735">
        <ele>307.368</ele>
        <time>2015-10-03T11:38:41Z</time>
      </trkpt>
      <trkpt lat="47.47097" lon="6.68734">
        <ele>306.816</ele>
        <time>2015-10-03T11:38:42Z</time>
      </trkpt>
      <trkpt lat="47.471" lon="6.68734">
        <ele>307.501</ele>
        <time>2015-10-03T11:38:43Z</time>
      </trkpt>
      <trkpt lat="47.47103" lon="6.68733">
        <ele>307.747</ele>
        <time>2015-10-03T11:38:44Z</time>
      </trkpt>
      <trkpt lat="47.47107" lon="6.68733">
        <ele>306.509</ele>
        <time>2015-10-03T11:38:45Z</time>
      </trkpt>
      <trkpt lat="47.4711" lon="6.68732">
        <ele>307.823</ele>
        <time>2015-10-03T11:38:46Z</time>
      </trkpt>
      <trkpt lat="47.47114" lon="6.68733">
        <ele>308.304</ele>
        <time>2015-10-03T11:38:47Z</time>
      </trkpt>
      <trkpt lat="47.47117" lon="6.68734">
        <ele>309.505</ele>
        <time>2015-10-03T11:38:48Z</time>
      </trkpt>
      <trkpt lat="47.4712" lon="6.68736">
        <ele>310.003</ele>
        <time>2015-10-03T11:38:49Z</time>
      </trkpt>
      <trkpt lat="47.47122" lon="6.68739">
        <ele>311.207</ele>
        <time>2015-10-03T11:38:50Z</time>
      </trkpt>
      <trkpt lat="47.47125" lon="6.68742">
        <ele>310.477</ele>
        <time>2015-10-03T11:38:51Z</time>
      </trkpt>
      <trkpt lat="47.47127" lon="6.68745">
        <ele>309.684</ele>
        <time>2015-10-03T11:38:52Z</time>
      </trkpt>
      <trkpt lat="47.47129" lon="6.68747">
        <ele>311.24</ele>
        <time>2015-10-03T11:38:53Z</time>
      </trkpt>
      <trkpt lat="47.47132" lon="6.6875">
        <ele>311.366</ele>
        <time>2015-10-03T11:38:54Z</time>
      </trkpt>
      <trkpt lat="47.47134" lon="6.68752">
        <ele>312.99</ele>
        <time>2015-10-03T11:38:55Z</time>
      </trkpt>
      <trkpt lat="47.47137" lon="6.68755">
        <ele>313.581</ele>
        <time>2015-10-03T11:38:56Z</time>
      </trkpt>
      <trkpt lat="47.47139" lon="6.68757">
        <ele>313.669</ele>
        <time>2015-10-03T11:38:57Z</time>
      </trkpt>
      <trkpt lat="47.47142" lon="6.68759">
        <ele>313.916</ele>
        <time>2015-10-03T11:38:58Z</time>
      </trkpt>
      <trkpt lat="47.47144" lon="6.68762">
        <ele>313.83</ele>
        <time>2015-10-03T11:38:59Z</time>
      </trkpt>
      <trkpt lat="47.47148" lon="6.68765">
        <ele>314.008</ele>
        <time>2015-10-03T11:39:00Z</time>
      </trkpt>
      <trkpt lat="47.47151" lon="6.68767">
        <ele>314.053</ele>
        <time>2015-10-03T11:39:01Z</time>
      </trkpt>
      <trkpt lat="47.47155" lon="6.68768">
        <ele>313.968</ele>
        <time>2015-10-03T11:39:02Z</time>
      </trkpt>
      <trkpt lat="47.47159" lon="6.6877">
        <ele>313.363</ele>
        <time>2015-10-03T11:39:03Z</time>
      </trkpt>
      <trkpt lat="47.47163" lon="6.68772">
        <ele>313.842</ele>
        <time>2015-10-03T11:39:04Z</time>
      </trkpt>
      <trkpt lat="47.47166" lon="6.68775">
        <ele>313.48</ele>
        <time>2015-10-03T11:39:05Z</time>
      </trkpt>
      <trkpt lat="47.47169" lon="6.68776">
        <ele>315.445</ele>
        <time>2015-10-03T11:39:06Z</time>
      </trkpt>
      <trkpt lat="47.47173" lon="6.68777">
        <ele>315.326</ele>
        <time>2015-10-03T11:39:07Z</time>
      </trkpt>
      <trkpt lat="47.47177" lon="6.68778">
        <ele>314.952</ele>
        <time>2015-10-03T11:39:08Z</time>
      </trkpt>
      <trkpt lat="47.47181" lon="6.68779">
        <ele>314.938</ele>
        <time>2015-10-03T11:39:09Z</time>
      </trkpt>
      <trkpt lat="47.47185" lon="6.68779">
        <ele>315.168</ele>
        <time>2015-10-03T11:39:10Z</time>
      </trkpt>
      <trkpt lat="47.47189" lon="6.68781">
        <ele>314.719</ele>
        <time>2015-10-03T11:39:11Z</time>
      </trkpt>
      <trkpt lat="47.47192" lon="6.68782">
        <ele>315.626</ele>
        <time>2015-10-03T11:39:12Z</time>
      </trkpt>
      <trkpt lat="47.47196" lon="6.68783">
        <ele>315.081</ele>
        <time>2015-10-03T11:39:13Z</time>
      </trkpt>
      <trkpt lat="47.472" lon="6.68784">
        <ele>314.776</ele>
        <time>2015-10-03T11:39:14Z</time>
      </trkpt>
      <trkpt lat="47.47203" lon="6.68785">
        <ele>315.268</ele>
        <time>2015-10-03T11:39:15Z</time>
      </trkpt>
      <trkpt lat="47.47207" lon="6.68787">
        <ele>315.396</ele>
        <time>2015-10-03T11:39:16Z</time>
      </trkpt>
      <trkpt lat="47.4721" lon="6.68788">
        <ele>314.845</ele>
        <time>2015-10-03T11:39:17Z</time>
      </trkpt>
      <trkpt lat="47.47214" lon="6.68791">
        <ele>315.512</ele>
        <time>2015-10-03T11:39:18Z</time>
      </trkpt>
      <trkpt lat="47.47218" lon="6.68794">
        <ele>316.621</ele>
        <time>2015-10-03T11:39:19Z</time>
      </trkpt>
      <trkpt lat="47.47222" lon="6.68796">
        <ele>317.937</ele>
        <time>2015-10-03T11:39:20Z</time>
      </trkpt>
      <trkpt lat="47.47225" lon="6.68798">
        <ele>318.452</ele>
        <time>2015-10-03T11:39:21Z</time>
      </trkpt>
      <trkpt lat="47.47228" lon="6.688">
        <ele>318.346</ele>
        <time>2015-10-03T11:39:22Z</time>
      </trkpt>
      <trkpt lat="47.47231" lon="6.68801">
        <ele>318.811</ele>
        <time>2015-10-03T11:39:23Z</time>
      </trkpt>
      <trkpt lat="47.47234" lon="6.68803">
        <ele>317.654</ele>
        <time>2015-10-03T11:39:24Z</time>
      </trkpt>
      <trkpt lat="47.47238" lon="6.68805">
        <ele>316.673</ele>
        <time>2015-10-03T11:39:25Z</time>
      </trkpt>
      <trkpt lat="47.47241" lon="6.68806">
        <ele>317.175</ele>
        <time>2015-10-03T11:39:26Z</time>
      </trkpt>
      <trkpt lat="47.47244" lon="6.68808">
        <ele>317.795</ele>
        <time>2015-10-03T11:39:27Z</time>
      </trkpt>
      <trkpt lat="47.47248" lon="6.6881">
        <ele>317.847</ele>
        <time>2015-10-03T11:39:28Z</time>
      </trkpt>
      <trkpt lat="47.47251" lon="6.68812">
        <ele>318.361</ele>
        <time>2015-10-03T11:39:29Z</time>
      </trkpt>
      <trkpt lat="47.47253" lon="6.68815">
        <ele>317.719</ele>
        <time>2015-10-03T11:39:30Z</time>
      </trkpt>
      <trkpt lat="47.47256" lon="6.68816">
        <ele>316.965</ele>
        <time>2015-10-03T11:39:31Z</time>
      </trkpt>
      <trkpt lat="47.4726" lon="6.68818">
        <ele>316.453</ele>
        <time>2015-10-03T11:39:32Z</time>
      </trkpt>
      <trkpt lat="47.47264" lon="6.6882">
        <ele>314.762</ele>
        <time>2015-10-03T11:39:33Z</time>
      </trkpt>
      <trkpt lat="47.47268" lon="6.68821">
        <ele>315.586</ele>
        <time>2015-10-03T11:39:34Z</time>
      </trkpt>
      <trkpt lat="47.47272" lon="6.68822">
        <ele>317.211</ele>
        <time>2015-10-03T11:39:35Z</time>
      </trkpt>
      <trkpt lat="47.47276" lon="6.68823">
        <ele>317.61</ele>
        <time>2015-10-03T11:39:36Z</time>
      </trkpt>
      <trkpt lat="47.4728" lon="6.68824">
        <ele>317.048</ele>
        <time>2015-10-03T11:39:37Z</time>
      </trkpt>
      <trkpt lat="47.47284" lon="6.68825">
        <ele>316.079</ele>
        <time>2015-10-03T11:39:38Z</time>
      </trkpt>
      <trkpt lat="47.47288" lon="6.68826">
        <ele>316.301</ele>
        <time>2015-10-03T11:39:39Z</time>
      </trkpt>
      <trkpt lat="47.47292" lon="6.68826">
        <ele>315.477</ele>
        <time>2015-10-03T11:39:40Z</time>
      </trkpt>
      <trkpt lat="47.47295" lon="6.68827">
        <ele>316.978</ele>
        <time>2015-10-03T11:39:41Z</time>
      </trkpt>
      <trkpt lat="47.47299" lon="6.68828">
        <ele>317.259</ele>
        <time>2015-10-03T11:39:42Z</time>
      </trkpt>
      <trkpt lat="47.47302" lon="6.68829">
        <ele>316.943</ele>
        <time>2015-10-03T11:39:43Z</time>
      </trkpt>
      <trkpt lat="47.47305" lon="6.68829">
        <ele>317.343</ele>
        <time>2015-10-03T11:39:44Z</time>
      </trkpt>
      <trkpt lat="47.47308" lon="6.6883">
        <ele>318.402</ele>
        <time>2015-10-03T11:39:45Z</time>
      </trkpt>
      <trkpt lat="47.47312" lon="6.6883">
        <ele>318.07</ele>
        <time>2015-10-03T11:39:46Z</time>
      </trkpt>
      <trkpt lat="47.47315" lon="6.6883">
        <ele>318.154</ele>
        <time>2015-10-03T11:39:47Z</time>
      </trkpt>
      <trkpt lat="47.47319" lon="6.6883">
        <ele>317.864</ele>
        <time>2015-10-03T11:39:48Z</time>
      </trkpt>
      <trkpt lat="47.47323" lon="6.6883">
        <ele>318.128</ele>
        <time>2015-10-03T11:39:49Z</time>
      </trkpt>
      <trkpt lat="47.47326" lon="6.68831">
        <ele>317.95</ele>
        <time>2015-10-03T11:39:50Z</time>
      </trkpt>
      <trkpt lat="47.4733" lon="6.68831">
        <ele>318.267</ele>
        <time>2015-10-03T11:39:51Z</time>
      </trkpt>
      <trkpt lat="47.47334" lon="6.68832">
        <ele>318.302</ele>
        <time>2015-10-03T11:39:52Z</time>
      </trkpt>
      <trkpt lat="47.47337" lon="6.68832">
        <ele>318.093</ele>
        <time>2015-10-03T11:39:53Z</time>
      </trkpt>
      <trkpt lat="47.47341" lon="6.68832">
        <ele>318.031</ele>
        <time>2015-10-03T11:39:54Z</time>
      </trkpt>
      <trkpt lat="47.47345" lon="6.68832">
        <ele>317.118</ele>
        <time>2015-10-03T11:39:55Z</time>
      </trkpt>
      <trkpt lat="47.47348" lon="6.68832">
        <ele>317.167</ele>
        <time>2015-10-03T11:39:56Z</time>
      </trkpt>
      <trkpt lat="47.47352" lon="6.68832">
        <ele>316.506</ele>
        <time>2015-10-03T11:39:57Z</time>
      </trkpt>
      <trkpt lat="47.47355" lon="6.68833">
        <ele>317.051</ele>
        <time>2015-10-03T11:39:58Z</time>
      </trkpt>
      <trkpt lat="47.47358" lon="6.68833">
        <ele>316.806</ele>
        <time>2015-10-03T11:39:59Z</time>
      </trkpt>
      <trkpt lat="47.47361" lon="6.68834">
        <ele>318.235</ele>
        <time>2015-10-03T11:40:00Z</time>
      </trkpt>
      <trkpt lat="47.47364" lon="6.68835">
        <ele>319.663</ele>
        <time>2015-10-03T11:40:01Z</time>
      </trkpt>
      <trkpt lat="47.47367" lon="6.68835">
        <ele>320.912</ele>
        <time>2015-10-03T11:40:02Z</time>
      </trkpt>
      <trkpt lat="47.4737" lon="6.68835">
        <ele>321.919</ele>
        <time>2015-10-03T11:40:03Z</time>
      </trkpt>
      <trkpt lat="47.47373" lon="6.68834">
        <ele>322.422</ele>
        <time>2015-10-03T11:40:04Z</time>
      </trkpt>
      <trkpt lat="47.47376" lon="6.68834">
        <ele>322.65</ele>
        <time>2015-10-03T11:40:05Z</time>
      </trkpt>
      <trkpt lat="47.4738" lon="6.68834">
        <ele>322.539</ele>
        <time>2015-10-03T11:40:06Z</time>
      </trkpt>
      <trkpt lat="47.47383" lon="6.68833">
        <ele>321.312</ele>
        <time>2015-10-03T11:40:07Z</time>
      </trkpt>
      <trkpt lat="47.47387" lon="6.68832">
        <ele>321.388</ele>
        <time>2015-10-03T11:40:08Z</time>
      </trkpt>
      <trkpt lat="47.4739" lon="6.68831">
        <ele>321.007</ele>
        <time>2015-10-03T11:40:09Z</time>
      </trkpt>
      <trkpt lat="47.47394" lon="6.6883">
        <ele>320.577</ele>
        <time>2015-10-03T11:40:10Z</time>
      </trkpt>
      <trkpt lat="47.47398" lon="6.68829">
        <ele>320.257</ele>
        <time>2015-10-03T11:40:11Z</time>
      </trkpt>
      <trkpt lat="47.47401" lon="6.68828">
        <ele>320.274</ele>
        <time>2015-10-03T11:40:12Z</time>
      </trkpt>
      <trkpt lat="47.47405" lon="6.68827">
        <ele>319.635</ele>
        <time>2015-10-03T11:40:13Z</time>
      </trkpt>
      <trkpt lat="47.47408" lon="6.68826">
        <ele>320.211</ele>
        <time>2015-10-03T11:40:14Z</time>
      </trkpt>
      <trkpt lat="47.47411" lon="6.68826">
        <ele>319.421</ele>
        <time>2015-10-03T11:40:15Z</time>
      </trkpt>
      <trkpt lat="47.47414" lon="6.68826">
        <ele>320.509</ele>
        <time>2015-10-03T11:40:16Z</time>
      </trkpt>
      <trkpt lat="47.47417" lon="6.68825">
        <ele>319.559</ele>
        <time>2015-10-03T11:40:17Z</time>
      </trkpt>
      <trkpt lat="47.4742" lon="6.68825">
        <ele>319.612</ele>
        <time>2015-10-03T11:40:18Z</time>
      </trkpt>
      <trkpt lat="47.47422" lon="6.68826">
        <ele>319.357</ele>
        <time>2015-10-03T11:40:19Z</time>
      </trkpt>
      <trkpt lat="47.47425" lon="6.68827">
        <ele>319.288</ele>
        <time>2015-10-03T11:40:20Z</time>
      </trkpt>
      <trkpt lat="47.47427" lon="6.68828">
        <ele>318.62</ele>
        <time>2015-10-03T11:40:21Z</time>
      </trkpt>
      <trkpt lat="47.4743" lon="6.68829">
        <ele>318.144</ele>
        <time>2015-10-03T11:40:22Z</time>
      </trkpt>
      <trkpt lat="47.47432" lon="6.68831">
        <ele>318.293</ele>
        <time>2015-10-03T11:40:23Z</time>
      </trkpt>
      <trkpt lat="47.47434" lon="6.68832">
        <ele>318.329</ele>
        <time>2015-10-03T11:40:24Z</time>
      </trkpt>
      <trkpt lat="47.47436" lon="6.68833">
        <ele>318.495</ele>
        <time>2015-10-03T11:40:25Z</time>
      </trkpt>
      <trkpt lat="47.47438" lon="6.68834">
        <ele>318.964</ele>
        <time>2015-10-03T11:40:26Z</time>
      </trkpt>
      <trkpt lat="47.4744" lon="6.68835">
        <ele>319.387</ele>
        <time>2015-10-03T11:40:27Z</time>
      </trkpt>
      <trkpt lat="47.47441" lon="6.68836">
        <ele>318.261</ele>
        <time>2015-10-03T11:40:28Z</time>
      </trkpt>
      <trkpt lat="47.47443" lon="6.68837">
        <ele>318.655</ele>
        <time>2015-10-03T11:40:29Z</time>
      </trkpt>
      <trkpt lat="47.47444" lon="6.68838">
        <ele>318.259</ele>
        <time>2015-10-03T11:40:30Z</time>
      </trkpt>
      <trkpt lat="47.47444" lon="6.68839">
        <ele>317.83</ele>
        <time>2015-10-03T11:40:31Z</time>
      </trkpt>
      <trkpt lat="47.47444" lon="6.68841">
        <ele>317.333</ele>
        <time>2015-10-03T11:40:35Z</time>
      </trkpt>
      <trkpt lat="47.47443" lon="6.68842">
        <ele>316.701</ele>
        <time>2015-10-03T11:40:37Z</time>
      </trkpt>
      <trkpt lat="47.47443" lon="6.68844">
        <ele>314.854</ele>
        <time>2015-10-03T11:40:44Z</time>
      </trkpt>
      <trkpt lat="47.47444" lon="6.68846">
        <ele>312.741</ele>
        <time>2015-10-03T11:40:46Z</time>
      </trkpt>
      <trkpt lat="47.47442" lon="6.68849">
        <ele>315.536</ele>
        <time>2015-10-03T11:40:57Z</time>
      </trkpt>
      <trkpt lat="47.47443" lon="6.68848">
        <ele>312.23</ele>
        <time>2015-10-03T11:40:59Z</time>
      </trkpt>
      <trkpt lat="47.47444" lon="6.68846">
        <ele>309.643</ele>
        <time>2015-10-03T11:41:05Z</time>
      </trkpt>
      <trkpt lat="47.47444" lon="6.68847">
        <ele>309.453</ele>
        <time>2015-10-03T11:41:09Z</time>
      </trkpt>
      <trkpt lat="47.47446" lon="6.68847">
        <ele>307.998</ele>
        <time>2015-10-03T11:41:12Z</time>
      </trkpt>
      <trkpt lat="47.47442" lon="6.68841">
        <ele>309.458</ele>
        <time>2015-10-03T11:41:24Z</time>
      </trkpt>
      <trkpt lat="47.47444" lon="6.68838">
        <ele>312.496</ele>
        <time>2015-10-03T11:41:35Z</time>
      </trkpt>
      <trkpt lat="47.47442" lon="6.68838">
        <ele>311.512</ele>
        <time>2015-10-03T11:41:46Z</time>
      </trkpt>
      <trkpt lat="47.47442" lon="6.68839">
        <ele>312.904</ele>
        <time>2015-10-03T11:41:48Z</time>
      </trkpt>
      <trkpt lat="47.47443" lon="6.68841">
        <ele>312.769</ele>
        <time>2015-10-03T11:41:49Z</time>
      </trkpt>
      <trkpt lat="47.47445" lon="6.68843">
        <ele>312.545</ele>
        <time>2015-10-03T11:41:50Z</time>
      </trkpt>
      <trkpt lat="47.47446" lon="6.68844">
        <ele>312.703</ele>
        <time>2015-10-03T11:41:51Z</time>
      </trkpt>
      <trkpt lat="47.47449" lon="6.68845">
        <ele>314.577</ele>
        <time>2015-10-03T11:41:52Z</time>
      </trkpt>
      <trkpt lat="47.47452" lon="6.68844">
        <ele>315.765</ele>
        <time>2015-10-03T11:41:53Z</time>
      </trkpt>
      <trkpt lat="47.47454" lon="6.68844">
        <ele>315.269</ele>
        <time>2015-10-03T11:41:54Z</time>
      </trkpt>
      <trkpt lat="47.47457" lon="6.68844">
        <ele>316.404</ele>
        <time>2015-10-03T11:41:55Z</time>
      </trkpt>
      <trkpt lat="47.47459" lon="6.68846">
        <ele>317.706</ele>
        <time>2015-10-03T11:41:56Z</time>
      </trkpt>
      <trkpt lat="47.47462" lon="6.68848">
        <ele>316.589</ele>
        <time>2015-10-03T11:41:57Z</time>
      </trkpt>
      <trkpt lat="47.47464" lon="6.6885">
        <ele>315.722</ele>
        <time>2015-10-03T11:41:58Z</time>
      </trkpt>
      <trkpt lat="47.47467" lon="6.68851">
        <ele>315.821</ele>
        <time>2015-10-03T11:41:59Z</time>
      </trkpt>
      <trkpt lat="47.47469" lon="6.68853">
        <ele>316.528</ele>
        <time>2015-10-03T11:42:00Z</time>
      </trkpt>
      <trkpt lat="47.47472" lon="6.68855">
        <ele>316.285</ele>
        <time>2015-10-03T11:42:01Z</time>
      </trkpt>
      <trkpt lat="47.47474" lon="6.68857">
        <ele>315.476</ele>
        <time>2015-10-03T11:42:02Z</time>
      </trkpt>
      <trkpt lat="47.47477" lon="6.68858">
        <ele>315.776</ele>
        <time>2015-10-03T11:42:03Z</time>
      </trkpt>
      <trkpt lat="47.4748" lon="6.68859">
        <ele>315.838</ele>
        <time>2015-10-03T11:42:04Z</time>
      </trkpt>
      <trkpt lat="47.47483" lon="6.68861">
        <ele>315.828</ele>
        <time>2015-10-03T11:42:05Z</time>
      </trkpt>
      <trkpt lat="47.47485" lon="6.68861">
        <ele>316.966</ele>
        <time>2015-10-03T11:42:06Z</time>
      </trkpt>
      <trkpt lat="47.47488" lon="6.68862">
        <ele>317.985</ele>
        <time>2015-10-03T11:42:07Z</time>
      </trkpt>
      <trkpt lat="47.4749" lon="6.68862">
        <ele>318.253</ele>
        <time>2015-10-03T11:42:08Z</time>
      </trkpt>
      <trkpt lat="47.47493" lon="6.68862">
        <ele>319.54</ele>
        <time>2015-10-03T11:42:09Z</time>
      </trkpt>
      <trkpt lat="47.47495" lon="6.68862">
        <ele>319.797</ele>
        <time>2015-10-03T11:42:10Z</time>
      </trkpt>
      <trkpt lat="47.47498" lon="6.68862">
        <ele>320.072</ele>
        <time>2015-10-03T11:42:11Z</time>
      </trkpt>
      <trkpt lat="47.47501" lon="6.68862">
        <ele>320.428</ele>
        <time>2015-10-03T11:42:12Z</time>
      </trkpt>
      <trkpt lat="47.47504" lon="6.68862">
        <ele>321.641</ele>
        <time>2015-10-03T11:42:13Z</time>
      </trkpt>
      <trkpt lat="47.47506" lon="6.68862">
        <ele>321.507</ele>
        <time>2015-10-03T11:42:14Z</time>
      </trkpt>
      <trkpt lat="47.47509" lon="6.68862">
        <ele>322.671</ele>
        <time>2015-10-03T11:42:15Z</time>
      </trkpt>
      <trkpt lat="47.47511" lon="6.68862">
        <ele>322.939</ele>
        <time>2015-10-03T11:42:16Z</time>
      </trkpt>
      <trkpt lat="47.47513" lon="6.68862">
        <ele>322.819</ele>
        <time>2015-10-03T11:42:17Z</time>
      </trkpt>
      <trkpt lat="47.47516" lon="6.68862">
        <ele>322.918</ele>
        <time>2015-10-03T11:42:18Z</time>
      </trkpt>
      <trkpt lat="47.47518" lon="6.68862">
        <ele>322.523</ele>
        <time>2015-10-03T11:42:19Z</time>
      </trkpt>
      <trkpt lat="47.4752" lon="6.68861">
        <ele>321.843</ele>
        <time>2015-10-03T11:42:20Z</time>
      </trkpt>
      <trkpt lat="47.47522" lon="6.6886">
        <ele>320.996</ele>
        <time>2015-10-03T11:42:21Z</time>
      </trkpt>
      <trkpt lat="47.47524" lon="6.68859">
        <ele>320.642</ele>
        <time>2015-10-03T11:42:22Z</time>
      </trkpt>
      <trkpt lat="47.47526" lon="6.68859">
        <ele>320.611</ele>
        <time>2015-10-03T11:42:23Z</time>
      </trkpt>
      <trkpt lat="47.47528" lon="6.68858">
        <ele>320.616</ele>
        <time>2015-10-03T11:42:24Z</time>
      </trkpt>
      <trkpt lat="47.4753" lon="6.68858">
        <ele>320.442</ele>
        <time>2015-10-03T11:42:25Z</time>
      </trkpt>
      <trkpt lat="47.47532" lon="6.68857">
        <ele>319.524</ele>
        <time>2015-10-03T11:42:26Z</time>
      </trkpt>
      <trkpt lat="47.47534" lon="6.68856">
        <ele>319.116</ele>
        <time>2015-10-03T11:42:27Z</time>
      </trkpt>
      <trkpt lat="47.47536" lon="6.68856">
        <ele>318.682</ele>
        <time>2015-10-03T11:42:28Z</time>
      </trkpt>
      <trkpt lat="47.47538" lon="6.68855">
        <ele>318.368</ele>
        <time>2015-10-03T11:42:29Z</time>
      </trkpt>
      <trkpt lat="47.47541" lon="6.68855">
        <ele>319.05</ele>
        <time>2015-10-03T11:42:30Z</time>
      </trkpt>
      <trkpt lat="47.47543" lon="6.68854">
        <ele>318.682</ele>
        <time>2015-10-03T11:42:31Z</time>
      </trkpt>
      <trkpt lat="47.47545" lon="6.68854">
        <ele>318.447</ele>
        <time>2015-10-03T11:42:32Z</time>
      </trkpt>
      <trkpt lat="47.47547" lon="6.68853">
        <ele>318.678</ele>
        <time>2015-10-03T11:42:33Z</time>
      </trkpt>
      <trkpt lat="47.47549" lon="6.68852">
        <ele>319.041</ele>
        <time>2015-10-03T11:42:34Z</time>
      </trkpt>
      <trkpt lat="47.47551" lon="6.68851">
        <ele>319.073</ele>
        <time>2015-10-03T11:42:35Z</time>
      </trkpt>
      <trkpt lat="47.47553" lon="6.6885">
        <ele>318.876</ele>
        <time>2015-10-03T11:42:36Z</time>
      </trkpt>
      <trkpt lat="47.47554" lon="6.6885">
        <ele>319.913</ele>
        <time>2015-10-03T11:42:37Z</time>
      </trkpt>
      <trkpt lat="47.47555" lon="6.6885">
        <ele>321.438</ele>
        <time>2015-10-03T11:42:38Z</time>
      </trkpt>
      <trkpt lat="47.47557" lon="6.68851">
        <ele>320.872</ele>
        <time>2015-10-03T11:42:39Z</time>
      </trkpt>
      <trkpt lat="47.4756" lon="6.68851">
        <ele>321.551</ele>
        <time>2015-10-03T11:42:40Z</time>
      </trkpt>
      <trkpt lat="47.47562" lon="6.68851">
        <ele>321.219</ele>
        <time>2015-10-03T11:42:41Z</time>
      </trkpt>
      <trkpt lat="47.47565" lon="6.68851">
        <ele>321.709</ele>
        <time>2015-10-03T11:42:42Z</time>
      </trkpt>
      <trkpt lat="47.47567" lon="6.6885">
        <ele>321.859</ele>
        <time>2015-10-03T11:42:43Z</time>
      </trkpt>
      <trkpt lat="47.47569" lon="6.68849">
        <ele>321.997</ele>
        <time>2015-10-03T11:42:44Z</time>
      </trkpt>
      <trkpt lat="47.47572" lon="6.68848">
        <ele>321.854</ele>
        <time>2015-10-03T11:42:45Z</time>
      </trkpt>
      <trkpt lat="47.47574" lon="6.68847">
        <ele>322.578</ele>
        <time>2015-10-03T11:42:46Z</time>
      </trkpt>
      <trkpt lat="47.47576" lon="6.68846">
        <ele>322.839</ele>
        <time>2015-10-03T11:42:47Z</time>
      </trkpt>
      <trkpt lat="47.47578" lon="6.68846">
        <ele>323.602</ele>
        <time>2015-10-03T11:42:48Z</time>
      </trkpt>
      <trkpt lat="47.4758" lon="6.68845">
        <ele>323.303</ele>
        <time>2015-10-03T11:42:49Z</time>
      </trkpt>
      <trkpt lat="47.47582" lon="6.68844">
        <ele>323.291</ele>
        <time>2015-10-03T11:42:50Z</time>
      </trkpt>
      <trkpt lat="47.47583" lon="6.68843">
        <ele>324.333</ele>
        <time>2015-10-03T11:42:51Z</time>
      </trkpt>
      <trkpt lat="47.47585" lon="6.68842">
        <ele>323.477</ele>
        <time>2015-10-03T11:42:52Z</time>
      </trkpt>
      <trkpt lat="47.47587" lon="6.68841">
        <ele>323.112</ele>
        <time>2015-10-03T11:42:53Z</time>
      </trkpt>
      <trkpt lat="47.47589" lon="6.6884">
        <ele>322.78</ele>
        <time>2015-10-03T11:42:54Z</time>
      </trkpt>
      <trkpt lat="47.47591" lon="6.68838">
        <ele>323.395</ele>
        <time>2015-10-03T11:42:55Z</time>
      </trkpt>
      <trkpt lat="47.47593" lon="6.68837">
        <ele>323.589</ele>
        <time>2015-10-03T11:42:56Z</time>
      </trkpt>
      <trkpt lat="47.47595" lon="6.68835">
        <ele>322.869</ele>
        <time>2015-10-03T11:42:57Z</time>
      </trkpt>
      <trkpt lat="47.47596" lon="6.68833">
        <ele>323.331</ele>
        <time>2015-10-03T11:42:58Z</time>
      </trkpt>
      <trkpt lat="47.47598" lon="6.68831">
        <ele>324.512</ele>
        <time>2015-10-03T11:42:59Z</time>
      </trkpt>
      <trkpt lat="47.476" lon="6.6883">
        <ele>324.689</ele>
        <time>2015-10-03T11:43:00Z</time>
      </trkpt>
      <trkpt lat="47.47602" lon="6.68828">
        <ele>324.846</ele>
        <time>2015-10-03T11:43:01Z</time>
      </trkpt>
      <trkpt lat="47.47603" lon="6.68827">
        <ele>325.166</ele>
        <time>2015-10-03T11:43:02Z</time>
      </trkpt>
      <trkpt lat="47.47605" lon="6.68826">
        <ele>325.242</ele>
        <time>2015-10-03T11:43:03Z</time>
      </trkpt>
      <trkpt lat="47.47607" lon="6.68825">
        <ele>325.428</ele>
        <time>2015-10-03T11:43:04Z</time>
      </trkpt>
      <trkpt lat="47.47609" lon="6.68824">
        <ele>325.062</ele>
        <time>2015-10-03T11:43:05Z</time>
      </trkpt>
      <trkpt lat="47.47611" lon="6.68823">
        <ele>325.312</ele>
        <time>2015-10-03T11:43:06Z</time>
      </trkpt>
      <trkpt lat="47.47613" lon="6.68822">
        <ele>325.267</ele>
        <time>2015-10-03T11:43:07Z</time>
      </trkpt>
      <trkpt lat="47.47615" lon="6.6882">
        <ele>324.226</ele>
        <time>2015-10-03T11:43:08Z</time>
      </trkpt>
      <trkpt lat="47.47617" lon="6.68819">
        <ele>324.432</ele>
        <time>2015-10-03T11:43:09Z</time>
      </trkpt>
      <trkpt lat="47.47619" lon="6.68818">
        <ele>323.598</ele>
        <time>2015-10-03T11:43:10Z</time>
      </trkpt>
      <trkpt lat="47.47621" lon="6.68816">
        <ele>323.366</ele>
        <time>2015-10-03T11:43:11Z</time>
      </trkpt>
      <trkpt lat="47.47623" lon="6.68815">
        <ele>324.096</ele>
        <time>2015-10-03T11:43:12Z</time>
      </trkpt>
      <trkpt lat="47.47625" lon="6.68814">
        <ele>323.474</ele>
        <time>2015-10-03T11:43:13Z</time>
      </trkpt>
      <trkpt lat="47.47627" lon="6.68812">
        <ele>323.987</ele>
        <time>2015-10-03T11:43:14Z</time>
      </trkpt>
      <trkpt lat="47.47629" lon="6.68811">
        <ele>324.274</ele>
        <time>2015-10-03T11:43:15Z</time>
      </trkpt>
      <trkpt lat="47.47631" lon="6.6881">
        <ele>324.593</ele>
        <time>2015-10-03T11:43:16Z</time>
      </trkpt>
      <trkpt lat="47.47632" lon="6.68808">
        <ele>325.1</ele>
        <time>2015-10-03T11:43:17Z</time>
      </trkpt>
      <trkpt lat="47.47634" lon="6.68806">
        <ele>325.533</ele>
        <time>2015-10-03T11:43:18Z</time>
      </trkpt>
      <trkpt lat="47.47635" lon="6.68804">
        <ele>325.107</ele>
        <time>2015-10-03T11:43:19Z</time>
      </trkpt>
      <trkpt lat="47.47636" lon="6.68802">
        <ele>323.712</ele>
        <time>2015-10-03T11:43:20Z</time>
      </trkpt>
      <trkpt lat="47.47636" lon="6.68799">
        <ele>324.134</ele>
        <time>2015-10-03T11:43:21Z</time>
      </trkpt>
      <trkpt lat="47.47636" lon="6.68796">
        <ele>322.616</ele>
        <time>2015-10-03T11:43:22Z</time>
      </trkpt>
      <trkpt lat="47.47636" lon="6.68794">
        <ele>322.736</ele>
        <time>2015-10-03T11:43:23Z</time>
      </trkpt>
      <trkpt lat="47.47636" lon="6.68791">
        <ele>324.159</ele>
        <time>2015-10-03T11:43:24Z</time>
      </trkpt>
      <trkpt lat="47.47636" lon="6.68789">
        <ele>324.598</ele>
        <time>2015-10-03T11:43:25Z</time>
      </trkpt>
      <trkpt lat="47.47636" lon="6.68786">
        <ele>325.755</ele>
        <time>2015-10-03T11:43:26Z</time>
      </trkpt>
      <trkpt lat="47.47637" lon="6.68784">
        <ele>325.524</ele>
        <time>2015-10-03T11:43:27Z</time>
      </trkpt>
      <trkpt lat="47.47637" lon="6.68782">
        <ele>325.809</ele>
        <time>2015-10-03T11:43:28Z</time>
      </trkpt>
      <trkpt lat="47.47638" lon="6.6878">
        <ele>325.565</ele>
        <time>2015-10-03T11:43:29Z</time>
      </trkpt>
      <trkpt lat="47.47638" lon="6.68778">
        <ele>325.591</ele>
        <time>2015-10-03T11:43:30Z</time>
      </trkpt>
      <trkpt lat="47.47638" lon="6.68776">
        <ele>326.027</ele>
        <time>2015-10-03T11:43:31Z</time>
      </trkpt>
      <trkpt lat="47.47639" lon="6.68775">
        <ele>326.699</ele>
        <time>2015-10-03T11:43:32Z</time>
      </trkpt>
      <trkpt lat="47.47639" lon="6.68772">
        <ele>326.945</ele>
        <time>2015-10-03T11:43:33Z</time>
      </trkpt>
      <trkpt lat="47.4764" lon="6.68769">
        <ele>326.682</ele>
        <time>2015-10-03T11:43:34Z</time>
      </trkpt>
      <trkpt lat="47.47641" lon="6.68766">
        <ele>327.038</ele>
        <time>2015-10-03T11:43:35Z</time>
      </trkpt>
      <trkpt lat="47.47641" lon="6.68763">
        <ele>328.519</ele>
        <time>2015-10-03T11:43:36Z</time>
      </trkpt>
      <trkpt lat="47.47642" lon="6.6876">
        <ele>328.857</ele>
        <time>2015-10-03T11:43:37Z</time>
      </trkpt>
      <trkpt lat="47.47642" lon="6.68758">
        <ele>328.628</ele>
        <time>2015-10-03T11:43:38Z</time>
      </trkpt>
      <trkpt lat="47.47643" lon="6.68756">
        <ele>328.974</ele>
        <time>2015-10-03T11:43:39Z</time>
      </trkpt>
      <trkpt lat="47.47644" lon="6.68753">
        <ele>329.613</ele>
        <time>2015-10-03T11:43:40Z</time>
      </trkpt>
      <trkpt lat="47.47645" lon="6.68751">
        <ele>330.129</ele>
        <time>2015-10-03T11:43:41Z</time>
      </trkpt>
      <trkpt lat="47.47646" lon="6.68748">
        <ele>329.99</ele>
        <time>2015-10-03T11:43:42Z</time>
      </trkpt>
      <trkpt lat="47.47646" lon="6.68746">
        <ele>329.777</ele>
        <time>2015-10-03T11:43:43Z</time>
      </trkpt>
      <trkpt lat="47.47646" lon="6.68743">
        <ele>330.805</ele>
        <time>2015-10-03T11:43:44Z</time>
      </trkpt>
      <trkpt lat="47.47647" lon="6.68739">
        <ele>328.573</ele>
        <time>2015-10-03T11:43:45Z</time>
      </trkpt>
      <trkpt lat="47.47647" lon="6.68736">
        <ele>328.908</ele>
        <time>2015-10-03T11:43:46Z</time>
      </trkpt>
      <trkpt lat="47.47647" lon="6.68733">
        <ele>329.335</ele>
        <time>2015-10-03T11:43:47Z</time>
      </trkpt>
      <trkpt lat="47.47648" lon="6.6873">
        <ele>329.422</ele>
        <time>2015-10-03T11:43:48Z</time>
      </trkpt>
      <trkpt lat="47.47648" lon="6.68726">
        <ele>329.693</ele>
        <time>2015-10-03T11:43:49Z</time>
      </trkpt>
      <trkpt lat="47.47648" lon="6.68723">
        <ele>330.15</ele>
        <time>2015-10-03T11:43:50Z</time>
      </trkpt>
      <trkpt lat="47.47649" lon="6.6872">
        <ele>330.563</ele>
        <time>2015-10-03T11:43:51Z</time>
      </trkpt>
      <trkpt lat="47.47649" lon="6.68717">
        <ele>331.117</ele>
        <time>2015-10-03T11:43:52Z</time>
      </trkpt>
      <trkpt lat="47.4765" lon="6.68715">
        <ele>331.881</ele>
        <time>2015-10-03T11:43:53Z</time>
      </trkpt>
      <trkpt lat="47.47651" lon="6.68712">
        <ele>332.271</ele>
        <time>2015-10-03T11:43:54Z</time>
      </trkpt>
      <trkpt lat="47.47652" lon="6.68709">
        <ele>332.793</ele>
        <time>2015-10-03T11:43:55Z</time>
      </trkpt>
      <trkpt lat="47.47653" lon="6.68707">
        <ele>333.08</ele>
        <time>2015-10-03T11:43:56Z</time>
      </trkpt>
      <trkpt lat="47.47654" lon="6.68704">
        <ele>333.921</ele>
        <time>2015-10-03T11:43:57Z</time>
      </trkpt>
      <trkpt lat="47.47654" lon="6.68702">
        <ele>333.645</ele>
        <time>2015-10-03T11:43:58Z</time>
      </trkpt>
      <trkpt lat="47.47655" lon="6.687">
        <ele>333.68</ele>
        <time>2015-10-03T11:43:59Z</time>
      </trkpt>
      <trkpt lat="47.47656" lon="6.68697">
        <ele>333.956</ele>
        <time>2015-10-03T11:44:00Z</time>
      </trkpt>
      <trkpt lat="47.47657" lon="6.68695">
        <ele>334.076</ele>
        <time>2015-10-03T11:44:01Z</time>
      </trkpt>
      <trkpt lat="47.47658" lon="6.68693">
        <ele>334.115</ele>
        <time>2015-10-03T11:44:02Z</time>
      </trkpt>
      <trkpt lat="47.47659" lon="6.68691">
        <ele>333.261</ele>
        <time>2015-10-03T11:44:03Z</time>
      </trkpt>
      <trkpt lat="47.47661" lon="6.68688">
        <ele>333.454</ele>
        <time>2015-10-03T11:44:04Z</time>
      </trkpt>
      <trkpt lat="47.47663" lon="6.68686">
        <ele>333.387</ele>
        <time>2015-10-03T11:44:05Z</time>
      </trkpt>
      <trkpt lat="47.47664" lon="6.68684">
        <ele>333.786</ele>
        <time>2015-10-03T11:44:06Z</time>
      </trkpt>
      <trkpt lat="47.47666" lon="6.68682">
        <ele>334.24</ele>
        <time>2015-10-03T11:44:07Z</time>
      </trkpt>
      <trkpt lat="47.47667" lon="6.6868">
        <ele>334.255</ele>
        <time>2015-10-03T11:44:08Z</time>
      </trkpt>
      <trkpt lat="47.47669" lon="6.68678">
        <ele>333.437</ele>
        <time>2015-10-03T11:44:09Z</time>
      </trkpt>
      <trkpt lat="47.47671" lon="6.68675">
        <ele>333.769</ele>
        <time>2015-10-03T11:44:10Z</time>
      </trkpt>
      <trkpt lat="47.47672" lon="6.68673">
        <ele>334.527</ele>
        <time>2015-10-03T11:44:11Z</time>
      </trkpt>
      <trkpt lat="47.47674" lon="6.68671">
        <ele>334.767</ele>
        <time>2015-10-03T11:44:12Z</time>
      </trkpt>
      <trkpt lat="47.47675" lon="6.68669">
        <ele>334.578</ele>
        <time>2015-10-03T11:44:13Z</time>
      </trkpt>
      <trkpt lat="47.47676" lon="6.68667">
        <ele>335.836</ele>
        <time>2015-10-03T11:44:14Z</time>
      </trkpt>
      <trkpt lat="47.47678" lon="6.68666">
        <ele>336.571</ele>
        <time>2015-10-03T11:44:15Z</time>
      </trkpt>
      <trkpt lat="47.47679" lon="6.68664">
        <ele>336.653</ele>
        <time>2015-10-03T11:44:16Z</time>
      </trkpt>
      <trkpt lat="47.4768" lon="6.68662">
        <ele>336.786</ele>
        <time>2015-10-03T11:44:17Z</time>
      </trkpt>
      <trkpt lat="47.47681" lon="6.6866">
        <ele>337.26</ele>
        <time>2015-10-03T11:44:18Z</time>
      </trkpt>
      <trkpt lat="47.47682" lon="6.68659">
        <ele>337.369</ele>
        <time>2015-10-03T11:44:19Z</time>
      </trkpt>
      <trkpt lat="47.47683" lon="6.68658">
        <ele>336.529</ele>
        <time>2015-10-03T11:44:20Z</time>
      </trkpt>
      <trkpt lat="47.47684" lon="6.68656">
        <ele>336.243</ele>
        <time>2015-10-03T11:44:21Z</time>
      </trkpt>
      <trkpt lat="47.47686" lon="6.68654">
        <ele>336.9</ele>
        <time>2015-10-03T11:44:22Z</time>
      </trkpt>
      <trkpt lat="47.47687" lon="6.68652">
        <ele>336.34</ele>
        <time>2015-10-03T11:44:23Z</time>
      </trkpt>
      <trkpt lat="47.47688" lon="6.68649">
        <ele>336.213</ele>
        <time>2015-10-03T11:44:24Z</time>
      </trkpt>
      <trkpt lat="47.47689" lon="6.68647">
        <ele>336.857</ele>
        <time>2015-10-03T11:44:25Z</time>
      </trkpt>
      <trkpt lat="47.47691" lon="6.68645">
        <ele>336.587</ele>
        <time>2015-10-03T11:44:26Z</time>
      </trkpt>
      <trkpt lat="47.47692" lon="6.68643">
        <ele>336.576</ele>
        <time>2015-10-03T11:44:27Z</time>
      </trkpt>
      <trkpt lat="47.47693" lon="6.68641">
        <ele>336.324</ele>
        <time>2015-10-03T11:44:28Z</time>
      </trkpt>
      <trkpt lat="47.47694" lon="6.68638">
        <ele>335.89</ele>
        <time>2015-10-03T11:44:29Z</time>
      </trkpt>
      <trkpt lat="47.47695" lon="6.68636">
        <ele>336.556</ele>
        <time>2015-10-03T11:44:30Z</time>
      </trkpt>
      <trkpt lat="47.47696" lon="6.68633">
        <ele>337.358</ele>
        <time>2015-10-03T11:44:31Z</time>
      </trkpt>
      <trkpt lat="47.47697" lon="6.68631">
        <ele>337.566</ele>
        <time>2015-10-03T11:44:32Z</time>
      </trkpt>
      <trkpt lat="47.47698" lon="6.68629">
        <ele>336.998</ele>
        <time>2015-10-03T11:44:33Z</time>
      </trkpt>
      <trkpt lat="47.477" lon="6.68627">
        <ele>336.654</ele>
        <time>2015-10-03T11:44:34Z</time>
      </trkpt>
      <trkpt lat="47.47701" lon="6.68626">
        <ele>336.831</ele>
        <time>2015-10-03T11:44:35Z</time>
      </trkpt>
      <trkpt lat="47.47703" lon="6.68624">
        <ele>336.486</ele>
        <time>2015-10-03T11:44:36Z</time>
      </trkpt>
      <trkpt lat="47.47704" lon="6.68622">
        <ele>337.05</ele>
        <time>2015-10-03T11:44:37Z</time>
      </trkpt>
      <trkpt lat="47.47706" lon="6.68621">
        <ele>337.034</ele>
        <time>2015-10-03T11:44:38Z</time>
      </trkpt>
      <trkpt lat="47.47707" lon="6.68619">
        <ele>336.336</ele>
        <time>2015-10-03T11:44:39Z</time>
      </trkpt>
      <trkpt lat="47.47709" lon="6.68617">
        <ele>336.716</ele>
        <time>2015-10-03T11:44:40Z</time>
      </trkpt>
      <trkpt lat="47.47711" lon="6.68615">
        <ele>336.431</ele>
        <time>2015-10-03T11:44:41Z</time>
      </trkpt>
      <trkpt lat="47.47712" lon="6.68613">
        <ele>336.206</ele>
        <time>2015-10-03T11:44:42Z</time>
      </trkpt>
      <trkpt lat="47.47714" lon="6.68611">
        <ele>336.373</ele>
        <time>2015-10-03T11:44:43Z</time>
      </trkpt>
      <trkpt lat="47.47715" lon="6.68609">
        <ele>336.069</ele>
        <time>2015-10-03T11:44:44Z</time>
      </trkpt>
      <trkpt lat="47.47717" lon="6.68607">
        <ele>335.218</ele>
        <time>2015-10-03T11:44:45Z</time>
      </trkpt>
      <trkpt lat="47.47718" lon="6.68605">
        <ele>334.754</ele>
        <time>2015-10-03T11:44:46Z</time>
      </trkpt>
      <trkpt lat="47.4772" lon="6.68603">
        <ele>333.865</ele>
        <time>2015-10-03T11:44:47Z</time>
      </trkpt>
      <trkpt lat="47.47721" lon="6.68601">
        <ele>334.275</ele>
        <time>2015-10-03T11:44:48Z</time>
      </trkpt>
      <trkpt lat="47.47723" lon="6.68598">
        <ele>334.624</ele>
        <time>2015-10-03T11:44:49Z</time>
      </trkpt>
      <trkpt lat="47.47725" lon="6.68596">
        <ele>335.151</ele>
        <time>2015-10-03T11:44:50Z</time>
      </trkpt>
      <trkpt lat="47.47726" lon="6.68595">
        <ele>336.385</ele>
        <time>2015-10-03T11:44:51Z</time>
      </trkpt>
      <trkpt lat="47.47728" lon="6.68594">
        <ele>336.258</ele>
        <time>2015-10-03T11:44:52Z</time>
      </trkpt>
      <trkpt lat="47.47729" lon="6.68592">
        <ele>335.6</ele>
        <time>2015-10-03T11:44:53Z</time>
      </trkpt>
      <trkpt lat="47.47731" lon="6.68591">
        <ele>335.585</ele>
        <time>2015-10-03T11:44:54Z</time>
      </trkpt>
      <trkpt lat="47.47732" lon="6.68589">
        <ele>335.414</ele>
        <time>2015-10-03T11:44:55Z</time>
      </trkpt>
      <trkpt lat="47.47733" lon="6.68588">
        <ele>335.587</ele>
        <time>2015-10-03T11:44:56Z</time>
      </trkpt>
      <trkpt lat="47.47735" lon="6.68586">
        <ele>335.27</ele>
        <time>2015-10-03T11:44:57Z</time>
      </trkpt>
      <trkpt lat="47.47737" lon="6.68585">
        <ele>334.472</ele>
        <time>2015-10-03T11:44:58Z</time>
      </trkpt>
      <trkpt lat="47.47739" lon="6.68584">
        <ele>334.042</ele>
        <time>2015-10-03T11:44:59Z</time>
      </trkpt>
      <trkpt lat="47.47741" lon="6.68583">
        <ele>334.492</ele>
        <time>2015-10-03T11:45:00Z</time>
      </trkpt>
      <trkpt lat="47.47742" lon="6.68582">
        <ele>334.375</ele>
        <time>2015-10-03T11:45:01Z</time>
      </trkpt>
      <trkpt lat="47.47743" lon="6.68581">
        <ele>335.337</ele>
        <time>2015-10-03T11:45:02Z</time>
      </trkpt>
      <trkpt lat="47.47745" lon="6.68581">
        <ele>335.787</ele>
        <time>2015-10-03T11:45:03Z</time>
      </trkpt>
      <trkpt lat="47.47747" lon="6.6858">
        <ele>335.745</ele>
        <time>2015-10-03T11:45:04Z</time>
      </trkpt>
      <trkpt lat="47.47749" lon="6.6858">
        <ele>336.62</ele>
        <time>2015-10-03T11:45:05Z</time>
      </trkpt>
      <trkpt lat="47.47751" lon="6.68579">
        <ele>335.321</ele>
        <time>2015-10-03T11:45:06Z</time>
      </trkpt>
      <trkpt lat="47.47753" lon="6.68578">
        <ele>335.582</ele>
        <time>2015-10-03T11:45:07Z</time>
      </trkpt>
      <trkpt lat="47.47754" lon="6.68577">
        <ele>335.294</ele>
        <time>2015-10-03T11:45:08Z</time>
      </trkpt>
      <trkpt lat="47.47756" lon="6.68577">
        <ele>335.349</ele>
        <time>2015-10-03T11:45:09Z</time>
      </trkpt>
      <trkpt lat="47.47757" lon="6.68577">
        <ele>335.909</ele>
        <time>2015-10-03T11:45:10Z</time>
      </trkpt>
      <trkpt lat="47.47759" lon="6.68576">
        <ele>335.726</ele>
        <time>2015-10-03T11:45:11Z</time>
      </trkpt>
      <trkpt lat="47.47761" lon="6.68576">
        <ele>335.449</ele>
        <time>2015-10-03T11:45:12Z</time>
      </trkpt>
      <trkpt lat="47.47763" lon="6.68575">
        <ele>336.358</ele>
        <time>2015-10-03T11:45:13Z</time>
      </trkpt>
      <trkpt lat="47.47765" lon="6.68575">
        <ele>337.425</ele>
        <time>2015-10-03T11:45:14Z</time>
      </trkpt>
      <trkpt lat="47.47766" lon="6.68574">
        <ele>337.305</ele>
        <time>2015-10-03T11:45:15Z</time>
      </trkpt>
      <trkpt lat="47.47768" lon="6.68573">
        <ele>337.854</ele>
        <time>2015-10-03T11:45:16Z</time>
      </trkpt>
      <trkpt lat="47.4777" lon="6.68573">
        <ele>337.777</ele>
        <time>2015-10-03T11:45:17Z</time>
      </trkpt>
      <trkpt lat="47.47772" lon="6.68572">
        <ele>337.804</ele>
        <time>2015-10-03T11:45:18Z</time>
      </trkpt>
      <trkpt lat="47.47774" lon="6.6857">
        <ele>338.102</ele>
        <time>2015-10-03T11:45:19Z</time>
      </trkpt>
      <trkpt lat="47.47775" lon="6.68569">
        <ele>337.602</ele>
        <time>2015-10-03T11:45:20Z</time>
      </trkpt>
      <trkpt lat="47.47777" lon="6.68567">
        <ele>339.089</ele>
        <time>2015-10-03T11:45:21Z</time>
      </trkpt>
      <trkpt lat="47.47778" lon="6.68566">
        <ele>339.907</ele>
        <time>2015-10-03T11:45:22Z</time>
      </trkpt>
      <trkpt lat="47.4778" lon="6.68564">
        <ele>339.223</ele>
        <time>2015-10-03T11:45:23Z</time>
      </trkpt>
      <trkpt lat="47.47782" lon="6.68563">
        <ele>339.402</ele>
        <time>2015-10-03T11:45:24Z</time>
      </trkpt>
      <trkpt lat="47.47784" lon="6.68562">
        <ele>339.157</ele>
        <time>2015-10-03T11:45:25Z</time>
      </trkpt>
      <trkpt lat="47.47786" lon="6.68561">
        <ele>338.172</ele>
        <time>2015-10-03T11:45:26Z</time>
      </trkpt>
      <trkpt lat="47.47788" lon="6.6856">
        <ele>338.756</ele>
        <time>2015-10-03T11:45:27Z</time>
      </trkpt>
      <trkpt lat="47.4779" lon="6.6856">
        <ele>338.489</ele>
        <time>2015-10-03T11:45:28Z</time>
      </trkpt>
      <trkpt lat="47.47792" lon="6.68559">
        <ele>337.905</ele>
        <time>2015-10-03T11:45:29Z</time>
      </trkpt>
      <trkpt lat="47.47794" lon="6.68558">
        <ele>335.637</ele>
        <time>2015-10-03T11:45:30Z</time>
      </trkpt>
      <trkpt lat="47.47796" lon="6.68558">
        <ele>335.224</ele>
        <time>2015-10-03T11:45:31Z</time>
      </trkpt>
      <trkpt lat="47.47798" lon="6.68557">
        <ele>335.51</ele>
        <time>2015-10-03T11:45:32Z</time>
      </trkpt>
      <trkpt lat="47.478" lon="6.68556">
        <ele>334.786</ele>
        <time>2015-10-03T11:45:33Z</time>
      </trkpt>
      <trkpt lat="47.47801" lon="6.68556">
        <ele>334.294</ele>
        <time>2015-10-03T11:45:34Z</time>
      </trkpt>
      <trkpt lat="47.47802" lon="6.68555">
        <ele>333.703</ele>
        <time>2015-10-03T11:45:35Z</time>
      </trkpt>
      <trkpt lat="47.47804" lon="6.68553">
        <ele>333.15</ele>
        <time>2015-10-03T11:45:36Z</time>
      </trkpt>
      <trkpt lat="47.47806" lon="6.68552">
        <ele>333.792</ele>
        <time>2015-10-03T11:45:37Z</time>
      </trkpt>
      <trkpt lat="47.47808" lon="6.6855">
        <ele>332.786</ele>
        <time>2015-10-03T11:45:38Z</time>
      </trkpt>
      <trkpt lat="47.47809" lon="6.68549">
        <ele>332.59</ele>
        <time>2015-10-03T11:45:39Z</time>
      </trkpt>
      <trkpt lat="47.47811" lon="6.68548">
        <ele>333.871</ele>
        <time>2015-10-03T11:45:40Z</time>
      </trkpt>
      <trkpt lat="47.47813" lon="6.68546">
        <ele>335.405</ele>
        <time>2015-10-03T11:45:41Z</time>
      </trkpt>
      <trkpt lat="47.47814" lon="6.68545">
        <ele>337.306</ele>
        <time>2015-10-03T11:45:42Z</time>
      </trkpt>
      <trkpt lat="47.47816" lon="6.68544">
        <ele>337.305</ele>
        <time>2015-10-03T11:45:43Z</time>
      </trkpt>
      <trkpt lat="47.47818" lon="6.68543">
        <ele>337.726</ele>
        <time>2015-10-03T11:45:44Z</time>
      </trkpt>
      <trkpt lat="47.47819" lon="6.68542">
        <ele>337.262</ele>
        <time>2015-10-03T11:45:45Z</time>
      </trkpt>
      <trkpt lat="47.47821" lon="6.6854">
        <ele>336.815</ele>
        <time>2015-10-03T11:45:46Z</time>
      </trkpt>
      <trkpt lat="47.47823" lon="6.68539">
        <ele>337.688</ele>
        <time>2015-10-03T11:45:47Z</time>
      </trkpt>
      <trkpt lat="47.47824" lon="6.68537">
        <ele>337.155</ele>
        <time>2015-10-03T11:45:48Z</time>
      </trkpt>
      <trkpt lat="47.47826" lon="6.68535">
        <ele>336.652</ele>
        <time>2015-10-03T11:45:49Z</time>
      </trkpt>
      <trkpt lat="47.47827" lon="6.68535">
        <ele>338.948</ele>
        <time>2015-10-03T11:45:51Z</time>
      </trkpt>
      <trkpt lat="47.47827" lon="6.68536">
        <ele>339.776</ele>
        <time>2015-10-03T11:45:53Z</time>
      </trkpt>
      <trkpt lat="47.47828" lon="6.68538">
        <ele>340.332</ele>
        <time>2015-10-03T11:45:55Z</time>
      </trkpt>
      <trkpt lat="47.47828" lon="6.68539">
        <ele>339.83</ele>
        <time>2015-10-03T11:45:57Z</time>
      </trkpt>
      <trkpt lat="47.47831" lon="6.68541">
        <ele>341.201</ele>
        <time>2015-10-03T11:46:03Z</time>
      </trkpt>
      <trkpt lat="47.47831" lon="6.68545">
        <ele>341.515</ele>
        <time>2015-10-03T11:46:07Z</time>
      </trkpt>
      <trkpt lat="47.4783" lon="6.68547">
        <ele>341.665</ele>
        <time>2015-10-03T11:46:14Z</time>
      </trkpt>
      <trkpt lat="47.47829" lon="6.68549">
        <ele>340.76</ele>
        <time>2015-10-03T11:46:23Z</time>
      </trkpt>
      <trkpt lat="47.47828" lon="6.68549">
        <ele>343.572</ele>
        <time>2015-10-03T11:46:29Z</time>
      </trkpt>
      <trkpt lat="47.47829" lon="6.6855">
        <ele>345.589</ele>
        <time>2015-10-03T11:46:37Z</time>
      </trkpt>
      <trkpt lat="47.47828" lon="6.6855">
        <ele>348.434</ele>
        <time>2015-10-03T11:46:54Z</time>
      </trkpt>
      <trkpt lat="47.47829" lon="6.68552">
        <ele>355.909</ele>
        <time>2015-10-03T11:47:19Z</time>
      </trkpt>
      <trkpt lat="47.4783" lon="6.68545">
        <ele>353.035</ele>
        <time>2015-10-03T11:47:36Z</time>
      </trkpt>
      <trkpt lat="47.47831" lon="6.68543">
        <ele>353.474</ele>
        <time>2015-10-03T11:47:39Z</time>
      </trkpt>
      <trkpt lat="47.47832" lon="6.68542">
        <ele>353.161</ele>
        <time>2015-10-03T11:47:40Z</time>
      </trkpt>
      <trkpt lat="47.47833" lon="6.68541">
        <ele>353.164</ele>
        <time>2015-10-03T11:47:41Z</time>
      </trkpt>
      <trkpt lat="47.47832" lon="6.68539">
        <ele>353.656</ele>
        <time>2015-10-03T11:47:48Z</time>
      </trkpt>
      <trkpt lat="47.47833" lon="6.68535">
        <ele>349.127</ele>
        <time>2015-10-03T11:47:57Z</time>
      </trkpt>
      <trkpt lat="47.47833" lon="6.68533">
        <ele>346.95</ele>
        <time>2015-10-03T11:48:00Z</time>
      </trkpt>
      <trkpt lat="47.47833" lon="6.68532">
        <ele>346.444</ele>
        <time>2015-10-03T11:48:02Z</time>
      </trkpt>
      <trkpt lat="47.47831" lon="6.68531">
        <ele>346.274</ele>
        <time>2015-10-03T11:48:07Z</time>
      </trkpt>
      <trkpt lat="47.4783" lon="6.68531">
        <ele>346.118</ele>
        <time>2015-10-03T11:48:09Z</time>
      </trkpt>
      <trkpt lat="47.47829" lon="6.6853">
        <ele>345.483</ele>
        <time>2015-10-03T11:48:11Z</time>
      </trkpt>
      <trkpt lat="47.47828" lon="6.68529">
        <ele>345.852</ele>
        <time>2015-10-03T11:48:14Z</time>
      </trkpt>
      <trkpt lat="47.47827" lon="6.6853">
        <ele>349.11</ele>
        <time>2015-10-03T11:48:19Z</time>
      </trkpt>
      <trkpt lat="47.47826" lon="6.68532">
        <ele>350.034</ele>
        <time>2015-10-03T11:48:24Z</time>
      </trkpt>
      <trkpt lat="47.47826" lon="6.68533">
        <ele>350.593</ele>
        <time>2015-10-03T11:48:26Z</time>
      </trkpt>
      <trkpt lat="47.47828" lon="6.68533">
        <ele>351.819</ele>
        <time>2015-10-03T11:48:28Z</time>
      </trkpt>
      <trkpt lat="47.47829" lon="6.68532">
        <ele>350.385</ele>
        <time>2015-10-03T11:48:30Z</time>
      </trkpt>
      <trkpt lat="47.47829" lon="6.68531">
        <ele>349.939</ele>
        <time>2015-10-03T11:48:32Z</time>
      </trkpt>
      <trkpt lat="47.47831" lon="6.68532">
        <ele>352.982</ele>
        <time>2015-10-03T11:48:37Z</time>
      </trkpt>
      <trkpt lat="47.47832" lon="6.68531">
        <ele>352.722</ele>
        <time>2015-10-03T11:48:38Z</time>
      </trkpt>
      <trkpt lat="47.47833" lon="6.68529">
        <ele>352.988</ele>
        <time>2015-10-03T11:48:39Z</time>
      </trkpt>
      <trkpt lat="47.47834" lon="6.68528">
        <ele>351.966</ele>
        <time>2015-10-03T11:48:40Z</time>
      </trkpt>
      <trkpt lat="47.47836" lon="6.68526">
        <ele>351.282</ele>
        <time>2015-10-03T11:48:41Z</time>
      </trkpt>
      <trkpt lat="47.47837" lon="6.68524">
        <ele>351.773</ele>
        <time>2015-10-03T11:48:42Z</time>
      </trkpt>
      <trkpt lat="47.47839" lon="6.68521">
        <ele>350.755</ele>
        <time>2015-10-03T11:48:43Z</time>
      </trkpt>
      <trkpt lat="47.4784" lon="6.68519">
        <ele>351.316</ele>
        <time>2015-10-03T11:48:44Z</time>
      </trkpt>
      <trkpt lat="47.47841" lon="6.68517">
        <ele>351.788</ele>
        <time>2015-10-03T11:48:45Z</time>
      </trkpt>
      <trkpt lat="47.47842" lon="6.68514">
        <ele>350.982</ele>
        <time>2015-10-03T11:48:46Z</time>
      </trkpt>
      <trkpt lat="47.47843" lon="6.6851">
        <ele>350.956</ele>
        <time>2015-10-03T11:48:47Z</time>
      </trkpt>
      <trkpt lat="47.47844" lon="6.68508">
        <ele>351.112</ele>
        <time>2015-10-03T11:48:48Z</time>
      </trkpt>
      <trkpt lat="47.47846" lon="6.68506">
        <ele>351.236</ele>
        <time>2015-10-03T11:48:49Z</time>
      </trkpt>
      <trkpt lat="47.47847" lon="6.68504">
        <ele>350.324</ele>
        <time>2015-10-03T11:48:50Z</time>
      </trkpt>
      <trkpt lat="47.47848" lon="6.68502">
        <ele>350.646</ele>
        <time>2015-10-03T11:48:51Z</time>
      </trkpt>
      <trkpt lat="47.47849" lon="6.68501">
        <ele>351</ele>
        <time>2015-10-03T11:48:52Z</time>
      </trkpt>
      <trkpt lat="47.4785" lon="6.68499">
        <ele>351.77</ele>
        <time>2015-10-03T11:48:53Z</time>
      </trkpt>
      <trkpt lat="47.47851" lon="6.68496">
        <ele>352.013</ele>
        <time>2015-10-03T11:48:54Z</time>
      </trkpt>
      <trkpt lat="47.47852" lon="6.68494">
        <ele>353.55</ele>
        <time>2015-10-03T11:48:55Z</time>
      </trkpt>
      <trkpt lat="47.47853" lon="6.68492">
        <ele>354.43</ele>
        <time>2015-10-03T11:48:56Z</time>
      </trkpt>
      <trkpt lat="47.47854" lon="6.68491">
        <ele>354.579</ele>
        <time>2015-10-03T11:48:57Z</time>
      </trkpt>
      <trkpt lat="47.47854" lon="6.6849">
        <ele>356.326</ele>
        <time>2015-10-03T11:48:58Z</time>
      </trkpt>
      <trkpt lat="47.47855" lon="6.68489">
        <ele>356.589</ele>
        <time>2015-10-03T11:48:59Z</time>
      </trkpt>
      <trkpt lat="47.47856" lon="6.68487">
        <ele>356.171</ele>
        <time>2015-10-03T11:48:59Z</time>
      </trkpt>
      <trkpt lat="47.47857" lon="6.68486">
        <ele>355.185</ele>
        <time>2015-10-03T11:49:00Z</time>
      </trkpt>
      <trkpt lat="47.47857" lon="6.68483">
        <ele>355.852</ele>
        <time>2015-10-03T11:49:01Z</time>
      </trkpt>
      <trkpt lat="47.47858" lon="6.68478">
        <ele>349.939</ele>
        <time>2015-10-03T11:49:02Z</time>
      </trkpt>
      <trkpt lat="47.47859" lon="6.68474">
        <ele>348.908</ele>
        <time>2015-10-03T11:49:03Z</time>
      </trkpt>
      <trkpt lat="47.4786" lon="6.6847">
        <ele>346.326</ele>
        <time>2015-10-03T11:49:04Z</time>
      </trkpt>
      <trkpt lat="47.47861" lon="6.68467">
        <ele>348.211</ele>
        <time>2015-10-03T11:49:05Z</time>
      </trkpt>
      <trkpt lat="47.47861" lon="6.68464">
        <ele>346.465</ele>
        <time>2015-10-03T11:49:06Z</time>
      </trkpt>
      <trkpt lat="47.47862" lon="6.68461">
        <ele>346.978</ele>
        <time>2015-10-03T11:49:07Z</time>
      </trkpt>
      <trkpt lat="47.47862" lon="6.68458">
        <ele>346.696</ele>
        <time>2015-10-03T11:49:08Z</time>
      </trkpt>
      <trkpt lat="47.47863" lon="6.68454">
        <ele>346.811</ele>
        <time>2015-10-03T11:49:09Z</time>
      </trkpt>
      <trkpt lat="47.47864" lon="6.68451">
        <ele>347.298</ele>
        <time>2015-10-03T11:49:10Z</time>
      </trkpt>
      <trkpt lat="47.47865" lon="6.68448">
        <ele>347.757</ele>
        <time>2015-10-03T11:49:11Z</time>
      </trkpt>
      <trkpt lat="47.47866" lon="6.68445">
        <ele>347.9</ele>
        <time>2015-10-03T11:49:12Z</time>
      </trkpt>
      <trkpt lat="47.47867" lon="6.68442">
        <ele>347.994</ele>
        <time>2015-10-03T11:49:13Z</time>
      </trkpt>
      <trkpt lat="47.47868" lon="6.68438">
        <ele>347.779</ele>
        <time>2015-10-03T11:49:14Z</time>
      </trkpt>
      <trkpt lat="47.47869" lon="6.68434">
        <ele>347.307</ele>
        <time>2015-10-03T11:49:15Z</time>
      </trkpt>
      <trkpt lat="47.4787" lon="6.68431">
        <ele>348.192</ele>
        <time>2015-10-03T11:49:16Z</time>
      </trkpt>
      <trkpt lat="47.47871" lon="6.68427">
        <ele>347.995</ele>
        <time>2015-10-03T11:49:17Z</time>
      </trkpt>
      <trkpt lat="47.47872" lon="6.68425">
        <ele>348.736</ele>
        <time>2015-10-03T11:49:18Z</time>
      </trkpt>
      <trkpt lat="47.47872" lon="6.68423">
        <ele>348.751</ele>
        <time>2015-10-03T11:49:19Z</time>
      </trkpt>
      <trkpt lat="47.47874" lon="6.68421">
        <ele>348.708</ele>
        <time>2015-10-03T11:49:20Z</time>
      </trkpt>
      <trkpt lat="47.47875" lon="6.68419">
        <ele>349.242</ele>
        <time>2015-10-03T11:49:21Z</time>
      </trkpt>
      <trkpt lat="47.47877" lon="6.68417">
        <ele>349.659</ele>
        <time>2015-10-03T11:49:22Z</time>
      </trkpt>
      <trkpt lat="47.47879" lon="6.68414">
        <ele>349.665</ele>
        <time>2015-10-03T11:49:23Z</time>
      </trkpt>
      <trkpt lat="47.4788" lon="6.68411">
        <ele>349.711</ele>
        <time>2015-10-03T11:49:24Z</time>
      </trkpt>
      <trkpt lat="47.47881" lon="6.6841">
        <ele>354.13</ele>
        <time>2015-10-03T11:49:25Z</time>
      </trkpt>
      <trkpt lat="47.47882" lon="6.68409">
        <ele>355.662</ele>
        <time>2015-10-03T11:49:27Z</time>
      </trkpt>
      <trkpt lat="47.47883" lon="6.68408">
        <ele>359.014</ele>
        <time>2015-10-03T11:49:28Z</time>
      </trkpt>
      <trkpt lat="47.47884" lon="6.68408">
        <ele>360.037</ele>
        <time>2015-10-03T11:49:29Z</time>
      </trkpt>
      <trkpt lat="47.47886" lon="6.68406">
        <ele>361.142</ele>
        <time>2015-10-03T11:49:30Z</time>
      </trkpt>
      <trkpt lat="47.47887" lon="6.68405">
        <ele>362.082</ele>
        <time>2015-10-03T11:49:31Z</time>
      </trkpt>
      <trkpt lat="47.47888" lon="6.68403">
        <ele>362.946</ele>
        <time>2015-10-03T11:49:32Z</time>
      </trkpt>
      <trkpt lat="47.4789" lon="6.684">
        <ele>364.918</ele>
        <time>2015-10-03T11:49:33Z</time>
      </trkpt>
      <trkpt lat="47.47892" lon="6.68397">
        <ele>365.44</ele>
        <time>2015-10-03T11:49:34Z</time>
      </trkpt>
      <trkpt lat="47.47893" lon="6.68393">
        <ele>366.339</ele>
        <time>2015-10-03T11:49:35Z</time>
      </trkpt>
      <trkpt lat="47.47894" lon="6.6839">
        <ele>367.203</ele>
        <time>2015-10-03T11:49:36Z</time>
      </trkpt>
      <trkpt lat="47.47896" lon="6.68387">
        <ele>369.051</ele>
        <time>2015-10-03T11:49:37Z</time>
      </trkpt>
      <trkpt lat="47.47897" lon="6.68384">
        <ele>368.85</ele>
        <time>2015-10-03T11:49:38Z</time>
      </trkpt>
      <trkpt lat="47.47897" lon="6.6838">
        <ele>369.371</ele>
        <time>2015-10-03T11:49:39Z</time>
      </trkpt>
      <trkpt lat="47.47897" lon="6.68377">
        <ele>369.807</ele>
        <time>2015-10-03T11:49:40Z</time>
      </trkpt>
      <trkpt lat="47.47897" lon="6.68375">
        <ele>371.203</ele>
        <time>2015-10-03T11:49:41Z</time>
      </trkpt>
      <trkpt lat="47.47897" lon="6.68373">
        <ele>371.648</ele>
        <time>2015-10-03T11:49:42Z</time>
      </trkpt>
      <trkpt lat="47.47897" lon="6.68371">
        <ele>372.446</ele>
        <time>2015-10-03T11:49:43Z</time>
      </trkpt>
      <trkpt lat="47.47898" lon="6.68368">
        <ele>373.986</ele>
        <time>2015-10-03T11:49:44Z</time>
      </trkpt>
      <trkpt lat="47.47898" lon="6.68366">
        <ele>376.889</ele>
        <time>2015-10-03T11:49:45Z</time>
      </trkpt>
      <trkpt lat="47.47899" lon="6.68364">
        <ele>377.754</ele>
        <time>2015-10-03T11:49:46Z</time>
      </trkpt>
      <trkpt lat="47.479" lon="6.68362">
        <ele>377.631</ele>
        <time>2015-10-03T11:49:47Z</time>
      </trkpt>
      <trkpt lat="47.47902" lon="6.6836">
        <ele>378.984</ele>
        <time>2015-10-03T11:49:48Z</time>
      </trkpt>
      <trkpt lat="47.47903" lon="6.68358">
        <ele>380.384</ele>
        <time>2015-10-03T11:49:49Z</time>
      </trkpt>
      <trkpt lat="47.47905" lon="6.68356">
        <ele>380.632</ele>
        <time>2015-10-03T11:49:50Z</time>
      </trkpt>
      <trkpt lat="47.47906" lon="6.68354">
        <ele>379.659</ele>
        <time>2015-10-03T11:49:51Z</time>
      </trkpt>
      <trkpt lat="47.47907" lon="6.68352">
        <ele>379.014</ele>
        <time>2015-10-03T11:49:52Z</time>
      </trkpt>
      <trkpt lat="47.47908" lon="6.68349">
        <ele>379.481</ele>
        <time>2015-10-03T11:49:53Z</time>
      </trkpt>
      <trkpt lat="47.47909" lon="6.68347">
        <ele>379.842</ele>
        <time>2015-10-03T11:49:54Z</time>
      </trkpt>
      <trkpt lat="47.4791" lon="6.68345">
        <ele>379.736</ele>
        <time>2015-10-03T11:49:55Z</time>
      </trkpt>
      <trkpt lat="47.47911" lon="6.68342">
        <ele>382.067</ele>
        <time>2015-10-03T11:49:56Z</time>
      </trkpt>
      <trkpt lat="47.47912" lon="6.68339">
        <ele>382.628</ele>
        <time>2015-10-03T11:49:57Z</time>
      </trkpt>
      <trkpt lat="47.47913" lon="6.68335">
        <ele>381.425</ele>
        <time>2015-10-03T11:49:58Z</time>
      </trkpt>
      <trkpt lat="47.47914" lon="6.68332">
        <ele>379.826</ele>
        <time>2015-10-03T11:49:59Z</time>
      </trkpt>
      <trkpt lat="47.47915" lon="6.68329">
        <ele>379.52</ele>
        <time>2015-10-03T11:50:00Z</time>
      </trkpt>
      <trkpt lat="47.47916" lon="6.68325">
        <ele>379.592</ele>
        <time>2015-10-03T11:50:01Z</time>
      </trkpt>
      <trkpt lat="47.47917" lon="6.68321">
        <ele>379.873</ele>
        <time>2015-10-03T11:50:02Z</time>
      </trkpt>
      <trkpt lat="47.47918" lon="6.68318">
        <ele>380.252</ele>
        <time>2015-10-03T11:50:03Z</time>
      </trkpt>
      <trkpt lat="47.47919" lon="6.68316">
        <ele>380.004</ele>
        <time>2015-10-03T11:50:04Z</time>
      </trkpt>
      <trkpt lat="47.47919" lon="6.68314">
        <ele>379.743</ele>
        <time>2015-10-03T11:50:05Z</time>
      </trkpt>
      <trkpt lat="47.4792" lon="6.68312">
        <ele>379.701</ele>
        <time>2015-10-03T11:50:06Z</time>
      </trkpt>
      <trkpt lat="47.4792" lon="6.6831">
        <ele>380.872</ele>
        <time>2015-10-03T11:50:07Z</time>
      </trkpt>
      <trkpt lat="47.47921" lon="6.68308">
        <ele>379.575</ele>
        <time>2015-10-03T11:50:08Z</time>
      </trkpt>
      <trkpt lat="47.47921" lon="6.68307">
        <ele>379.987</ele>
        <time>2015-10-03T11:50:09Z</time>
      </trkpt>
      <trkpt lat="47.47922" lon="6.68305">
        <ele>380.598</ele>
        <time>2015-10-03T11:50:10Z</time>
      </trkpt>
      <trkpt lat="47.47923" lon="6.68303">
        <ele>380.856</ele>
        <time>2015-10-03T11:50:11Z</time>
      </trkpt>
      <trkpt lat="47.47924" lon="6.683">
        <ele>380.499</ele>
        <time>2015-10-03T11:50:12Z</time>
      </trkpt>
      <trkpt lat="47.47925" lon="6.68297">
        <ele>379.855</ele>
        <time>2015-10-03T11:50:13Z</time>
      </trkpt>
      <trkpt lat="47.47927" lon="6.68294">
        <ele>379.201</ele>
        <time>2015-10-03T11:50:14Z</time>
      </trkpt>
      <trkpt lat="47.47928" lon="6.68291">
        <ele>379.585</ele>
        <time>2015-10-03T11:50:15Z</time>
      </trkpt>
      <trkpt lat="47.47929" lon="6.68288">
        <ele>380.972</ele>
        <time>2015-10-03T11:50:16Z</time>
      </trkpt>
      <trkpt lat="47.4793" lon="6.68285">
        <ele>380.596</ele>
        <time>2015-10-03T11:50:17Z</time>
      </trkpt>
      <trkpt lat="47.47931" lon="6.68282">
        <ele>379.886</ele>
        <time>2015-10-03T11:50:18Z</time>
      </trkpt>
      <trkpt lat="47.47932" lon="6.6828">
        <ele>380.528</ele>
        <time>2015-10-03T11:50:19Z</time>
      </trkpt>
      <trkpt lat="47.47932" lon="6.68278">
        <ele>381.036</ele>
        <time>2015-10-03T11:50:20Z</time>
      </trkpt>
      <trkpt lat="47.47933" lon="6.68276">
        <ele>381.088</ele>
        <time>2015-10-03T11:50:21Z</time>
      </trkpt>
      <trkpt lat="47.47934" lon="6.68274">
        <ele>381.112</ele>
        <time>2015-10-03T11:50:22Z</time>
      </trkpt>
      <trkpt lat="47.47934" lon="6.68271">
        <ele>378.155</ele>
        <time>2015-10-03T11:50:23Z</time>
      </trkpt>
      <trkpt lat="47.47934" lon="6.6827">
        <ele>378.517</ele>
        <time>2015-10-03T11:50:24Z</time>
      </trkpt>
      <trkpt lat="47.47934" lon="6.68267">
        <ele>379.139</ele>
        <time>2015-10-03T11:50:25Z</time>
      </trkpt>
      <trkpt lat="47.47935" lon="6.68265">
        <ele>379.016</ele>
        <time>2015-10-03T11:50:26Z</time>
      </trkpt>
      <trkpt lat="47.47936" lon="6.68264">
        <ele>378.791</ele>
        <time>2015-10-03T11:50:27Z</time>
      </trkpt>
      <trkpt lat="47.47936" lon="6.68262">
        <ele>376.338</ele>
        <time>2015-10-03T11:50:28Z</time>
      </trkpt>
      <trkpt lat="47.47937" lon="6.6826">
        <ele>380.36</ele>
        <time>2015-10-03T11:50:30Z</time>
      </trkpt>
      <trkpt lat="47.47936" lon="6.68259">
        <ele>375.686</ele>
        <time>2015-10-03T11:50:31Z</time>
      </trkpt>
      <trkpt lat="47.47935" lon="6.68256">
        <ele>375.872</ele>
        <time>2015-10-03T11:50:32Z</time>
      </trkpt>
      <trkpt lat="47.47935" lon="6.68254">
        <ele>376.8</ele>
        <time>2015-10-03T11:50:33Z</time>
      </trkpt>
      <trkpt lat="47.47935" lon="6.68252">
        <ele>376.86</ele>
        <time>2015-10-03T11:50:34Z</time>
      </trkpt>
      <trkpt lat="47.47936" lon="6.68249">
        <ele>375.379</ele>
        <time>2015-10-03T11:50:35Z</time>
      </trkpt>
      <trkpt lat="47.47938" lon="6.68245">
        <ele>373.689</ele>
        <time>2015-10-03T11:50:36Z</time>
      </trkpt>
      <trkpt lat="47.47939" lon="6.68242">
        <ele>374.04</ele>
        <time>2015-10-03T11:50:37Z</time>
      </trkpt>
      <trkpt lat="47.47941" lon="6.68239">
        <ele>374.036</ele>
        <time>2015-10-03T11:50:38Z</time>
      </trkpt>
      <trkpt lat="47.47943" lon="6.68235">
        <ele>374.193</ele>
        <time>2015-10-03T11:50:39Z</time>
      </trkpt>
      <trkpt lat="47.47945" lon="6.68233">
        <ele>374.165</ele>
        <time>2015-10-03T11:50:40Z</time>
      </trkpt>
      <trkpt lat="47.47947" lon="6.6823">
        <ele>374.955</ele>
        <time>2015-10-03T11:50:41Z</time>
      </trkpt>
      <trkpt lat="47.47949" lon="6.68227">
        <ele>374.194</ele>
        <time>2015-10-03T11:50:42Z</time>
      </trkpt>
      <trkpt lat="47.4795" lon="6.68225">
        <ele>375.09</ele>
        <time>2015-10-03T11:50:43Z</time>
      </trkpt>
      <trkpt lat="47.47951" lon="6.68223">
        <ele>375.239</ele>
        <time>2015-10-03T11:50:44Z</time>
      </trkpt>
      <trkpt lat="47.47952" lon="6.68221">
        <ele>371.815</ele>
        <time>2015-10-03T11:50:45Z</time>
      </trkpt>
      <trkpt lat="47.47953" lon="6.68218">
        <ele>372.264</ele>
        <time>2015-10-03T11:50:46Z</time>
      </trkpt>
      <trkpt lat="47.47954" lon="6.68216">
        <ele>372.414</ele>
        <time>2015-10-03T11:50:47Z</time>
      </trkpt>
      <trkpt lat="47.47955" lon="6.68214">
        <ele>373.931</ele>
        <time>2015-10-03T11:50:48Z</time>
      </trkpt>
      <trkpt lat="47.47957" lon="6.68212">
        <ele>374.518</ele>
        <time>2015-10-03T11:50:49Z</time>
      </trkpt>
      <trkpt lat="47.47958" lon="6.68211">
        <ele>376.246</ele>
        <time>2015-10-03T11:50:50Z</time>
      </trkpt>
      <trkpt lat="47.47959" lon="6.68208">
        <ele>373.912</ele>
        <time>2015-10-03T11:50:51Z</time>
      </trkpt>
      <trkpt lat="47.4796" lon="6.68207">
        <ele>376.652</ele>
        <time>2015-10-03T11:50:52Z</time>
      </trkpt>
      <trkpt lat="47.47961" lon="6.68205">
        <ele>378.098</ele>
        <time>2015-10-03T11:50:53Z</time>
      </trkpt>
      <trkpt lat="47.47962" lon="6.68204">
        <ele>379.31</ele>
        <time>2015-10-03T11:50:54Z</time>
      </trkpt>
      <trkpt lat="47.47963" lon="6.68201">
        <ele>379.152</ele>
        <time>2015-10-03T11:50:55Z</time>
      </trkpt>
      <trkpt lat="47.47964" lon="6.68198">
        <ele>379.287</ele>
        <time>2015-10-03T11:50:56Z</time>
      </trkpt>
      <trkpt lat="47.47964" lon="6.68195">
        <ele>379.875</ele>
        <time>2015-10-03T11:50:57Z</time>
      </trkpt>
      <trkpt lat="47.47965" lon="6.68192">
        <ele>380.146</ele>
        <time>2015-10-03T11:50:58Z</time>
      </trkpt>
      <trkpt lat="47.47965" lon="6.68188">
        <ele>380.404</ele>
        <time>2015-10-03T11:50:59Z</time>
      </trkpt>
      <trkpt lat="47.47965" lon="6.68184">
        <ele>376.827</ele>
        <time>2015-10-03T11:51:00Z</time>
      </trkpt>
      <trkpt lat="47.47964" lon="6.6818">
        <ele>376.382</ele>
        <time>2015-10-03T11:51:01Z</time>
      </trkpt>
      <trkpt lat="47.47964" lon="6.68177">
        <ele>377.216</ele>
        <time>2015-10-03T11:51:02Z</time>
      </trkpt>
      <trkpt lat="47.47964" lon="6.68175">
        <ele>376.507</ele>
        <time>2015-10-03T11:51:03Z</time>
      </trkpt>
      <trkpt lat="47.47965" lon="6.68172">
        <ele>377.464</ele>
        <time>2015-10-03T11:51:04Z</time>
      </trkpt>
      <trkpt lat="47.47965" lon="6.68169">
        <ele>378.383</ele>
        <time>2015-10-03T11:51:05Z</time>
      </trkpt>
      <trkpt lat="47.47966" lon="6.68166">
        <ele>378.861</ele>
        <time>2015-10-03T11:51:06Z</time>
      </trkpt>
      <trkpt lat="47.47967" lon="6.68164">
        <ele>379.443</ele>
        <time>2015-10-03T11:51:07Z</time>
      </trkpt>
      <trkpt lat="47.47967" lon="6.68162">
        <ele>380.623</ele>
        <time>2015-10-03T11:51:08Z</time>
      </trkpt>
      <trkpt lat="47.47968" lon="6.6816">
        <ele>381.35</ele>
        <time>2015-10-03T11:51:09Z</time>
      </trkpt>
      <trkpt lat="47.47969" lon="6.68157">
        <ele>382.496</ele>
        <time>2015-10-03T11:51:10Z</time>
      </trkpt>
      <trkpt lat="47.47969" lon="6.68155">
        <ele>383.744</ele>
        <time>2015-10-03T11:51:11Z</time>
      </trkpt>
      <trkpt lat="47.4797" lon="6.68153">
        <ele>385.104</ele>
        <time>2015-10-03T11:51:12Z</time>
      </trkpt>
      <trkpt lat="47.47971" lon="6.68149">
        <ele>386.552</ele>
        <time>2015-10-03T11:51:13Z</time>
      </trkpt>
      <trkpt lat="47.47971" lon="6.68147">
        <ele>386.446</ele>
        <time>2015-10-03T11:51:14Z</time>
      </trkpt>
      <trkpt lat="47.47971" lon="6.68144">
        <ele>387.899</ele>
        <time>2015-10-03T11:51:15Z</time>
      </trkpt>
      <trkpt lat="47.47972" lon="6.68141">
        <ele>387.989</ele>
        <time>2015-10-03T11:51:16Z</time>
      </trkpt>
      <trkpt lat="47.47973" lon="6.68138">
        <ele>388.893</ele>
        <time>2015-10-03T11:51:17Z</time>
      </trkpt>
      <trkpt lat="47.47974" lon="6.68135">
        <ele>389.509</ele>
        <time>2015-10-03T11:51:18Z</time>
      </trkpt>
      <trkpt lat="47.47974" lon="6.68133">
        <ele>390.589</ele>
        <time>2015-10-03T11:51:19Z</time>
      </trkpt>
      <trkpt lat="47.47974" lon="6.68131">
        <ele>391.086</ele>
        <time>2015-10-03T11:51:20Z</time>
      </trkpt>
      <trkpt lat="47.47975" lon="6.68128">
        <ele>391.865</ele>
        <time>2015-10-03T11:51:21Z</time>
      </trkpt>
      <trkpt lat="47.47975" lon="6.68125">
        <ele>391.806</ele>
        <time>2015-10-03T11:51:22Z</time>
      </trkpt>
      <trkpt lat="47.47976" lon="6.68122">
        <ele>393.63</ele>
        <time>2015-10-03T11:51:23Z</time>
      </trkpt>
      <trkpt lat="47.47976" lon="6.68119">
        <ele>394.208</ele>
        <time>2015-10-03T11:51:24Z</time>
      </trkpt>
      <trkpt lat="47.47976" lon="6.68116">
        <ele>394.607</ele>
        <time>2015-10-03T11:51:25Z</time>
      </trkpt>
      <trkpt lat="47.47977" lon="6.68113">
        <ele>395.369</ele>
        <time>2015-10-03T11:51:26Z</time>
      </trkpt>
      <trkpt lat="47.47977" lon="6.6811">
        <ele>395.68</ele>
        <time>2015-10-03T11:51:27Z</time>
      </trkpt>
      <trkpt lat="47.47977" lon="6.68107">
        <ele>396.22</ele>
        <time>2015-10-03T11:51:28Z</time>
      </trkpt>
      <trkpt lat="47.47977" lon="6.68104">
        <ele>396.44</ele>
        <time>2015-10-03T11:51:29Z</time>
      </trkpt>
      <trkpt lat="47.47977" lon="6.68101">
        <ele>397.357</ele>
        <time>2015-10-03T11:51:30Z</time>
      </trkpt>
      <trkpt lat="47.47976" lon="6.68097">
        <ele>397.062</ele>
        <time>2015-10-03T11:51:31Z</time>
      </trkpt>
      <trkpt lat="47.47976" lon="6.68094">
        <ele>397.035</ele>
        <time>2015-10-03T11:51:32Z</time>
      </trkpt>
      <trkpt lat="47.47975" lon="6.68091">
        <ele>396.6</ele>
        <time>2015-10-03T11:51:33Z</time>
      </trkpt>
      <trkpt lat="47.47974" lon="6.68088">
        <ele>397.56</ele>
        <time>2015-10-03T11:51:34Z</time>
      </trkpt>
      <trkpt lat="47.47974" lon="6.68085">
        <ele>397.738</ele>
        <time>2015-10-03T11:51:35Z</time>
      </trkpt>
      <trkpt lat="47.47973" lon="6.68082">
        <ele>396.963</ele>
        <time>2015-10-03T11:51:36Z</time>
      </trkpt>
      <trkpt lat="47.47973" lon="6.6808">
        <ele>397.966</ele>
        <time>2015-10-03T11:51:37Z</time>
      </trkpt>
      <trkpt lat="47.47973" lon="6.68078">
        <ele>395.753</ele>
        <time>2015-10-03T11:51:38Z</time>
      </trkpt>
      <trkpt lat="47.47973" lon="6.68075">
        <ele>396.09</ele>
        <time>2015-10-03T11:51:39Z</time>
      </trkpt>
      <trkpt lat="47.47973" lon="6.68072">
        <ele>396.352</ele>
        <time>2015-10-03T11:51:40Z</time>
      </trkpt>
      <trkpt lat="47.47973" lon="6.68069">
        <ele>396.85</ele>
        <time>2015-10-03T11:51:41Z</time>
      </trkpt>
      <trkpt lat="47.47973" lon="6.68066">
        <ele>395.09</ele>
        <time>2015-10-03T11:51:42Z</time>
      </trkpt>
      <trkpt lat="47.47972" lon="6.68063">
        <ele>395.121</ele>
        <time>2015-10-03T11:51:43Z</time>
      </trkpt>
      <trkpt lat="47.47972" lon="6.6806">
        <ele>395.156</ele>
        <time>2015-10-03T11:51:44Z</time>
      </trkpt>
      <trkpt lat="47.47972" lon="6.68057">
        <ele>394.876</ele>
        <time>2015-10-03T11:51:45Z</time>
      </trkpt>
      <trkpt lat="47.47972" lon="6.68053">
        <ele>393.959</ele>
        <time>2015-10-03T11:51:46Z</time>
      </trkpt>
      <trkpt lat="47.47972" lon="6.68051">
        <ele>392.452</ele>
        <time>2015-10-03T11:51:47Z</time>
      </trkpt>
      <trkpt lat="47.47972" lon="6.68048">
        <ele>393.176</ele>
        <time>2015-10-03T11:51:48Z</time>
      </trkpt>
      <trkpt lat="47.47972" lon="6.68044">
        <ele>393.109</ele>
        <time>2015-10-03T11:51:49Z</time>
      </trkpt>
      <trkpt lat="47.47971" lon="6.68041">
        <ele>393.607</ele>
        <time>2015-10-03T11:51:50Z</time>
      </trkpt>
      <trkpt lat="47.47971" lon="6.68039">
        <ele>392.989</ele>
        <time>2015-10-03T11:51:51Z</time>
      </trkpt>
      <trkpt lat="47.4797" lon="6.68035">
        <ele>389.711</ele>
        <time>2015-10-03T11:51:52Z</time>
      </trkpt>
      <trkpt lat="47.4797" lon="6.68032">
        <ele>388.1</ele>
        <time>2015-10-03T11:51:53Z</time>
      </trkpt>
      <trkpt lat="47.47969" lon="6.68029">
        <ele>386.91</ele>
        <time>2015-10-03T11:51:54Z</time>
      </trkpt>
      <trkpt lat="47.47968" lon="6.68027">
        <ele>387.809</ele>
        <time>2015-10-03T11:51:55Z</time>
      </trkpt>
      <trkpt lat="47.47968" lon="6.68024">
        <ele>388.124</ele>
        <time>2015-10-03T11:51:56Z</time>
      </trkpt>
      <trkpt lat="47.47967" lon="6.68021">
        <ele>389.52</ele>
        <time>2015-10-03T11:51:57Z</time>
      </trkpt>
      <trkpt lat="47.47968" lon="6.68019">
        <ele>390.341</ele>
        <time>2015-10-03T11:51:58Z</time>
      </trkpt>
      <trkpt lat="47.47968" lon="6.68017">
        <ele>389.887</ele>
        <time>2015-10-03T11:51:59Z</time>
      </trkpt>
      <trkpt lat="47.47969" lon="6.68014">
        <ele>387.027</ele>
        <time>2015-10-03T11:52:00Z</time>
      </trkpt>
      <trkpt lat="47.47969" lon="6.68011">
        <ele>388.946</ele>
        <time>2015-10-03T11:52:01Z</time>
      </trkpt>
      <trkpt lat="47.4797" lon="6.68008">
        <ele>388.94</ele>
        <time>2015-10-03T11:52:02Z</time>
      </trkpt>
      <trkpt lat="47.4797" lon="6.68006">
        <ele>388.731</ele>
        <time>2015-10-03T11:52:03Z</time>
      </trkpt>
      <trkpt lat="47.4797" lon="6.68003">
        <ele>388.903</ele>
        <time>2015-10-03T11:52:04Z</time>
      </trkpt>
      <trkpt lat="47.47971" lon="6.68">
        <ele>389.169</ele>
        <time>2015-10-03T11:52:05Z</time>
      </trkpt>
      <trkpt lat="47.47971" lon="6.67997">
        <ele>389.567</ele>
        <time>2015-10-03T11:52:06Z</time>
      </trkpt>
      <trkpt lat="47.47971" lon="6.67994">
        <ele>389.528</ele>
        <time>2015-10-03T11:52:07Z</time>
      </trkpt>
      <trkpt lat="47.47971" lon="6.67991">
        <ele>389.777</ele>
        <time>2015-10-03T11:52:08Z</time>
      </trkpt>
      <trkpt lat="47.47971" lon="6.67987">
        <ele>389.859</ele>
        <time>2015-10-03T11:52:09Z</time>
      </trkpt>
      <trkpt lat="47.47971" lon="6.67985">
        <ele>389.349</ele>
        <time>2015-10-03T11:52:10Z</time>
      </trkpt>
      <trkpt lat="47.47971" lon="6.67983">
        <ele>390.707</ele>
        <time>2015-10-03T11:52:11Z</time>
      </trkpt>
      <trkpt lat="47.47971" lon="6.67981">
        <ele>391.443</ele>
        <time>2015-10-03T11:52:12Z</time>
      </trkpt>
      <trkpt lat="47.47972" lon="6.67979">
        <ele>391.416</ele>
        <time>2015-10-03T11:52:13Z</time>
      </trkpt>
      <trkpt lat="47.47972" lon="6.67977">
        <ele>391.727</ele>
        <time>2015-10-03T11:52:14Z</time>
      </trkpt>
      <trkpt lat="47.47973" lon="6.67975">
        <ele>392.995</ele>
        <time>2015-10-03T11:52:15Z</time>
      </trkpt>
      <trkpt lat="47.47974" lon="6.67974">
        <ele>393.798</ele>
        <time>2015-10-03T11:52:16Z</time>
      </trkpt>
      <trkpt lat="47.47976" lon="6.67972">
        <ele>392.278</ele>
        <time>2015-10-03T11:52:17Z</time>
      </trkpt>
      <trkpt lat="47.47977" lon="6.67971">
        <ele>392.938</ele>
        <time>2015-10-03T11:52:18Z</time>
      </trkpt>
      <trkpt lat="47.47978" lon="6.67969">
        <ele>392.597</ele>
        <time>2015-10-03T11:52:19Z</time>
      </trkpt>
      <trkpt lat="47.47979" lon="6.67967">
        <ele>388.743</ele>
        <time>2015-10-03T11:52:20Z</time>
      </trkpt>
      <trkpt lat="47.47979" lon="6.67965">
        <ele>388.812</ele>
        <time>2015-10-03T11:52:21Z</time>
      </trkpt>
      <trkpt lat="47.4798" lon="6.67963">
        <ele>392.854</ele>
        <time>2015-10-03T11:52:22Z</time>
      </trkpt>
      <trkpt lat="47.47981" lon="6.67962">
        <ele>395.146</ele>
        <time>2015-10-03T11:52:24Z</time>
      </trkpt>
      <trkpt lat="47.47982" lon="6.67961">
        <ele>395.725</ele>
        <time>2015-10-03T11:52:25Z</time>
      </trkpt>
      <trkpt lat="47.47983" lon="6.6796">
        <ele>397.364</ele>
        <time>2015-10-03T11:52:26Z</time>
      </trkpt>
      <trkpt lat="47.47984" lon="6.67959">
        <ele>398.043</ele>
        <time>2015-10-03T11:52:27Z</time>
      </trkpt>
      <trkpt lat="47.47986" lon="6.67957">
        <ele>399.846</ele>
        <time>2015-10-03T11:52:28Z</time>
      </trkpt>
      <trkpt lat="47.47987" lon="6.67956">
        <ele>400.475</ele>
        <time>2015-10-03T11:52:29Z</time>
      </trkpt>
      <trkpt lat="47.47989" lon="6.67953">
        <ele>401.508</ele>
        <time>2015-10-03T11:52:30Z</time>
      </trkpt>
      <trkpt lat="47.4799" lon="6.6795">
        <ele>399.893</ele>
        <time>2015-10-03T11:52:31Z</time>
      </trkpt>
      <trkpt lat="47.4799" lon="6.67947">
        <ele>400.183</ele>
        <time>2015-10-03T11:52:32Z</time>
      </trkpt>
      <trkpt lat="47.47991" lon="6.67944">
        <ele>398.465</ele>
        <time>2015-10-03T11:52:33Z</time>
      </trkpt>
      <trkpt lat="47.47991" lon="6.67941">
        <ele>396.557</ele>
        <time>2015-10-03T11:52:34Z</time>
      </trkpt>
      <trkpt lat="47.47992" lon="6.67939">
        <ele>397.635</ele>
        <time>2015-10-03T11:52:35Z</time>
      </trkpt>
      <trkpt lat="47.47993" lon="6.67937">
        <ele>398.164</ele>
        <time>2015-10-03T11:52:36Z</time>
      </trkpt>
      <trkpt lat="47.47995" lon="6.67935">
        <ele>396.632</ele>
        <time>2015-10-03T11:52:37Z</time>
      </trkpt>
      <trkpt lat="47.47997" lon="6.67935">
        <ele>394.551</ele>
        <time>2015-10-03T11:52:38Z</time>
      </trkpt>
      <trkpt lat="47.47997" lon="6.67934">
        <ele>394.624</ele>
        <time>2015-10-03T11:52:40Z</time>
      </trkpt>
      <trkpt lat="47.47997" lon="6.67934">
        <ele>393.916</ele>
        <time>2015-10-03T11:52:41Z</time>
      </trkpt>
      <trkpt lat="47.47999" lon="6.67931">
        <ele>395.539</ele>
        <time>2015-10-03T11:52:42Z</time>
      </trkpt>
      <trkpt lat="47.48" lon="6.67928">
        <ele>395.377</ele>
        <time>2015-10-03T11:52:43Z</time>
      </trkpt>
      <trkpt lat="47.48001" lon="6.67926">
        <ele>393.598</ele>
        <time>2015-10-03T11:52:44Z</time>
      </trkpt>
      <trkpt lat="47.48001" lon="6.67924">
        <ele>391.922</ele>
        <time>2015-10-03T11:52:46Z</time>
      </trkpt>
      <trkpt lat="47.48002" lon="6.67922">
        <ele>392.843</ele>
        <time>2015-10-03T11:52:47Z</time>
      </trkpt>
      <trkpt lat="47.48003" lon="6.67921">
        <ele>393.662</ele>
        <time>2015-10-03T11:52:48Z</time>
      </trkpt>
      <trkpt lat="47.48005" lon="6.67919">
        <ele>394.331</ele>
        <time>2015-10-03T11:52:49Z</time>
      </trkpt>
      <trkpt lat="47.48007" lon="6.67916">
        <ele>391.492</ele>
        <time>2015-10-03T11:52:50Z</time>
      </trkpt>
      <trkpt lat="47.48008" lon="6.67913">
        <ele>390.946</ele>
        <time>2015-10-03T11:52:51Z</time>
      </trkpt>
      <trkpt lat="47.4801" lon="6.6791">
        <ele>390.079</ele>
        <time>2015-10-03T11:52:52Z</time>
      </trkpt>
      <trkpt lat="47.48011" lon="6.67907">
        <ele>390.421</ele>
        <time>2015-10-03T11:52:53Z</time>
      </trkpt>
      <trkpt lat="47.48013" lon="6.67905">
        <ele>390.376</ele>
        <time>2015-10-03T11:52:54Z</time>
      </trkpt>
      <trkpt lat="47.48014" lon="6.67903">
        <ele>389.254</ele>
        <time>2015-10-03T11:52:55Z</time>
      </trkpt>
      <trkpt lat="47.48016" lon="6.67901">
        <ele>389.236</ele>
        <time>2015-10-03T11:52:56Z</time>
      </trkpt>
      <trkpt lat="47.48018" lon="6.67901">
        <ele>389.227</ele>
        <time>2015-10-03T11:52:57Z</time>
      </trkpt>
      <trkpt lat="47.48019" lon="6.67899">
        <ele>389.891</ele>
        <time>2015-10-03T11:52:58Z</time>
      </trkpt>
      <trkpt lat="47.48021" lon="6.67897">
        <ele>387.717</ele>
        <time>2015-10-03T11:52:59Z</time>
      </trkpt>
      <trkpt lat="47.48022" lon="6.67896">
        <ele>388.551</ele>
        <time>2015-10-03T11:53:00Z</time>
      </trkpt>
      <trkpt lat="47.48024" lon="6.67894">
        <ele>389.42</ele>
        <time>2015-10-03T11:53:01Z</time>
      </trkpt>
      <trkpt lat="47.48027" lon="6.67893">
        <ele>389.687</ele>
        <time>2015-10-03T11:53:02Z</time>
      </trkpt>
      <trkpt lat="47.48029" lon="6.67891">
        <ele>392.467</ele>
        <time>2015-10-03T11:53:03Z</time>
      </trkpt>
      <trkpt lat="47.4803" lon="6.67891">
        <ele>393.347</ele>
        <time>2015-10-03T11:53:04Z</time>
      </trkpt>
      <trkpt lat="47.48031" lon="6.6789">
        <ele>394.028</ele>
        <time>2015-10-03T11:53:05Z</time>
      </trkpt>
      <trkpt lat="47.48032" lon="6.67889">
        <ele>394.555</ele>
        <time>2015-10-03T11:53:06Z</time>
      </trkpt>
      <trkpt lat="47.48034" lon="6.67887">
        <ele>394.269</ele>
        <time>2015-10-03T11:53:07Z</time>
      </trkpt>
      <trkpt lat="47.48035" lon="6.67885">
        <ele>395.173</ele>
        <time>2015-10-03T11:53:08Z</time>
      </trkpt>
      <trkpt lat="47.48035" lon="6.67881">
        <ele>394.938</ele>
        <time>2015-10-03T11:53:09Z</time>
      </trkpt>
      <trkpt lat="47.48036" lon="6.67879">
        <ele>394.741</ele>
        <time>2015-10-03T11:53:10Z</time>
      </trkpt>
      <trkpt lat="47.48038" lon="6.67876">
        <ele>395.665</ele>
        <time>2015-10-03T11:53:11Z</time>
      </trkpt>
      <trkpt lat="47.4804" lon="6.67873">
        <ele>395.939</ele>
        <time>2015-10-03T11:53:12Z</time>
      </trkpt>
      <trkpt lat="47.48041" lon="6.67871">
        <ele>396.591</ele>
        <time>2015-10-03T11:53:13Z</time>
      </trkpt>
      <trkpt lat="47.48043" lon="6.67868">
        <ele>396.895</ele>
        <time>2015-10-03T11:53:14Z</time>
      </trkpt>
      <trkpt lat="47.48044" lon="6.67865">
        <ele>397.935</ele>
        <time>2015-10-03T11:53:15Z</time>
      </trkpt>
      <trkpt lat="47.48045" lon="6.67863">
        <ele>397.175</ele>
        <time>2015-10-03T11:53:16Z</time>
      </trkpt>
      <trkpt lat="47.48047" lon="6.6786">
        <ele>398.365</ele>
        <time>2015-10-03T11:53:17Z</time>
      </trkpt>
      <trkpt lat="47.48049" lon="6.67856">
        <ele>398.261</ele>
        <time>2015-10-03T11:53:18Z</time>
      </trkpt>
      <trkpt lat="47.4805" lon="6.67852">
        <ele>397.414</ele>
        <time>2015-10-03T11:53:19Z</time>
      </trkpt>
      <trkpt lat="47.48052" lon="6.67848">
        <ele>397.211</ele>
        <time>2015-10-03T11:53:20Z</time>
      </trkpt>
      <trkpt lat="47.48052" lon="6.67844">
        <ele>396.55</ele>
        <time>2015-10-03T11:53:21Z</time>
      </trkpt>
      <trkpt lat="47.48053" lon="6.6784">
        <ele>395.802</ele>
        <time>2015-10-03T11:53:22Z</time>
      </trkpt>
      <trkpt lat="47.48053" lon="6.67836">
        <ele>395.184</ele>
        <time>2015-10-03T11:53:23Z</time>
      </trkpt>
      <trkpt lat="47.48053" lon="6.67833">
        <ele>395.202</ele>
        <time>2015-10-03T11:53:24Z</time>
      </trkpt>
      <trkpt lat="47.48054" lon="6.6783">
        <ele>395.017</ele>
        <time>2015-10-03T11:53:25Z</time>
      </trkpt>
      <trkpt lat="47.48057" lon="6.67827">
        <ele>395.585</ele>
        <time>2015-10-03T11:53:26Z</time>
      </trkpt>
      <trkpt lat="47.48061" lon="6.67825">
        <ele>395.887</ele>
        <time>2015-10-03T11:53:27Z</time>
      </trkpt>
      <trkpt lat="47.48066" lon="6.67824">
        <ele>395.932</ele>
        <time>2015-10-03T11:53:28Z</time>
      </trkpt>
      <trkpt lat="47.4807" lon="6.67822">
        <ele>396.648</ele>
        <time>2015-10-03T11:53:29Z</time>
      </trkpt>
      <trkpt lat="47.48073" lon="6.67819">
        <ele>397.517</ele>
        <time>2015-10-03T11:53:30Z</time>
      </trkpt>
      <trkpt lat="47.48075" lon="6.67817">
        <ele>398.515</ele>
        <time>2015-10-03T11:53:31Z</time>
      </trkpt>
      <trkpt lat="47.48076" lon="6.67814">
        <ele>400.028</ele>
        <time>2015-10-03T11:53:32Z</time>
      </trkpt>
      <trkpt lat="47.48078" lon="6.67811">
        <ele>401.474</ele>
        <time>2015-10-03T11:53:33Z</time>
      </trkpt>
      <trkpt lat="47.48079" lon="6.67807">
        <ele>403.037</ele>
        <time>2015-10-03T11:53:34Z</time>
      </trkpt>
      <trkpt lat="47.4808" lon="6.67805">
        <ele>404.652</ele>
        <time>2015-10-03T11:53:35Z</time>
      </trkpt>
      <trkpt lat="47.48081" lon="6.67802">
        <ele>405.075</ele>
        <time>2015-10-03T11:53:36Z</time>
      </trkpt>
      <trkpt lat="47.48082" lon="6.67799">
        <ele>406.246</ele>
        <time>2015-10-03T11:53:37Z</time>
      </trkpt>
      <trkpt lat="47.48083" lon="6.67797">
        <ele>407.432</ele>
        <time>2015-10-03T11:53:38Z</time>
      </trkpt>
      <trkpt lat="47.48084" lon="6.67794">
        <ele>409.363</ele>
        <time>2015-10-03T11:53:39Z</time>
      </trkpt>
      <trkpt lat="47.48085" lon="6.67791">
        <ele>411.773</ele>
        <time>2015-10-03T11:53:40Z</time>
      </trkpt>
      <trkpt lat="47.48086" lon="6.67787">
        <ele>409.214</ele>
        <time>2015-10-03T11:53:41Z</time>
      </trkpt>
      <trkpt lat="47.48087" lon="6.67783">
        <ele>408.096</ele>
        <time>2015-10-03T11:53:42Z</time>
      </trkpt>
      <trkpt lat="47.48088" lon="6.67779">
        <ele>408.394</ele>
        <time>2015-10-03T11:53:43Z</time>
      </trkpt>
      <trkpt lat="47.48089" lon="6.67775">
        <ele>409.766</ele>
        <time>2015-10-03T11:53:44Z</time>
      </trkpt>
      <trkpt lat="47.4809" lon="6.67771">
        <ele>410.178</ele>
        <time>2015-10-03T11:53:45Z</time>
      </trkpt>
      <trkpt lat="47.48091" lon="6.67767">
        <ele>410.026</ele>
        <time>2015-10-03T11:53:46Z</time>
      </trkpt>
      <trkpt lat="47.48092" lon="6.67763">
        <ele>410.391</ele>
        <time>2015-10-03T11:53:47Z</time>
      </trkpt>
      <trkpt lat="47.48093" lon="6.67759">
        <ele>412.202</ele>
        <time>2015-10-03T11:53:48Z</time>
      </trkpt>
      <trkpt lat="47.48093" lon="6.67755">
        <ele>411.331</ele>
        <time>2015-10-03T11:53:49Z</time>
      </trkpt>
      <trkpt lat="47.48093" lon="6.67752">
        <ele>410.909</ele>
        <time>2015-10-03T11:53:50Z</time>
      </trkpt>
      <trkpt lat="47.48094" lon="6.67748">
        <ele>411.807</ele>
        <time>2015-10-03T11:53:51Z</time>
      </trkpt>
      <trkpt lat="47.48094" lon="6.67745">
        <ele>411.867</ele>
        <time>2015-10-03T11:53:52Z</time>
      </trkpt>
      <trkpt lat="47.48094" lon="6.67742">
        <ele>410.55</ele>
        <time>2015-10-03T11:53:53Z</time>
      </trkpt>
      <trkpt lat="47.48095" lon="6.67738">
        <ele>410.682</ele>
        <time>2015-10-03T11:53:54Z</time>
      </trkpt>
      <trkpt lat="47.48096" lon="6.67734">
        <ele>410.355</ele>
        <time>2015-10-03T11:53:55Z</time>
      </trkpt>
      <trkpt lat="47.48096" lon="6.67731">
        <ele>410.324</ele>
        <time>2015-10-03T11:53:56Z</time>
      </trkpt>
      <trkpt lat="47.48097" lon="6.67727">
        <ele>404.839</ele>
        <time>2015-10-03T11:53:57Z</time>
      </trkpt>
      <trkpt lat="47.48096" lon="6.67724">
        <ele>402.124</ele>
        <time>2015-10-03T11:53:58Z</time>
      </trkpt>
      <trkpt lat="47.48096" lon="6.67721">
        <ele>401.571</ele>
        <time>2015-10-03T11:53:59Z</time>
      </trkpt>
      <trkpt lat="47.48096" lon="6.67718">
        <ele>401.105</ele>
        <time>2015-10-03T11:54:00Z</time>
      </trkpt>
      <trkpt lat="47.48095" lon="6.67716">
        <ele>401.534</ele>
        <time>2015-10-03T11:54:01Z</time>
      </trkpt>
      <trkpt lat="47.48095" lon="6.67714">
        <ele>401.863</ele>
        <time>2015-10-03T11:54:02Z</time>
      </trkpt>
      <trkpt lat="47.48095" lon="6.67711">
        <ele>401.808</ele>
        <time>2015-10-03T11:54:03Z</time>
      </trkpt>
      <trkpt lat="47.48095" lon="6.67707">
        <ele>400.443</ele>
        <time>2015-10-03T11:54:04Z</time>
      </trkpt>
      <trkpt lat="47.48095" lon="6.67704">
        <ele>401.115</ele>
        <time>2015-10-03T11:54:05Z</time>
      </trkpt>
      <trkpt lat="47.48096" lon="6.677">
        <ele>400.646</ele>
        <time>2015-10-03T11:54:06Z</time>
      </trkpt>
      <trkpt lat="47.48096" lon="6.67696">
        <ele>401.258</ele>
        <time>2015-10-03T11:54:07Z</time>
      </trkpt>
      <trkpt lat="47.48096" lon="6.67692">
        <ele>400.399</ele>
        <time>2015-10-03T11:54:08Z</time>
      </trkpt>
      <trkpt lat="47.48097" lon="6.67688">
        <ele>400.636</ele>
        <time>2015-10-03T11:54:09Z</time>
      </trkpt>
      <trkpt lat="47.48097" lon="6.67685">
        <ele>400.961</ele>
        <time>2015-10-03T11:54:10Z</time>
      </trkpt>
      <trkpt lat="47.48098" lon="6.67681">
        <ele>401.282</ele>
        <time>2015-10-03T11:54:11Z</time>
      </trkpt>
      <trkpt lat="47.48098" lon="6.67678">
        <ele>401.529</ele>
        <time>2015-10-03T11:54:12Z</time>
      </trkpt>
      <trkpt lat="47.48099" lon="6.67675">
        <ele>401.584</ele>
        <time>2015-10-03T11:54:13Z</time>
      </trkpt>
      <trkpt lat="47.48099" lon="6.67671">
        <ele>401.583</ele>
        <time>2015-10-03T11:54:14Z</time>
      </trkpt>
      <trkpt lat="47.481" lon="6.67668">
        <ele>401.442</ele>
        <time>2015-10-03T11:54:15Z</time>
      </trkpt>
      <trkpt lat="47.481" lon="6.67664">
        <ele>401.537</ele>
        <time>2015-10-03T11:54:16Z</time>
      </trkpt>
      <trkpt lat="47.48101" lon="6.6766">
        <ele>401.933</ele>
        <time>2015-10-03T11:54:17Z</time>
      </trkpt>
      <trkpt lat="47.48101" lon="6.67657">
        <ele>401.862</ele>
        <time>2015-10-03T11:54:18Z</time>
      </trkpt>
      <trkpt lat="47.48102" lon="6.67653">
        <ele>402.035</ele>
        <time>2015-10-03T11:54:19Z</time>
      </trkpt>
      <trkpt lat="47.48102" lon="6.6765">
        <ele>403.031</ele>
        <time>2015-10-03T11:54:20Z</time>
      </trkpt>
      <trkpt lat="47.48103" lon="6.67647">
        <ele>404.149</ele>
        <time>2015-10-03T11:54:21Z</time>
      </trkpt>
      <trkpt lat="47.48103" lon="6.67645">
        <ele>404.647</ele>
        <time>2015-10-03T11:54:22Z</time>
      </trkpt>
      <trkpt lat="47.48103" lon="6.67643">
        <ele>404.913</ele>
        <time>2015-10-03T11:54:23Z</time>
      </trkpt>
      <trkpt lat="47.48104" lon="6.6764">
        <ele>405.544</ele>
        <time>2015-10-03T11:54:24Z</time>
      </trkpt>
      <trkpt lat="47.48105" lon="6.67638">
        <ele>406.948</ele>
        <time>2015-10-03T11:54:25Z</time>
      </trkpt>
      <trkpt lat="47.48106" lon="6.67636">
        <ele>408.237</ele>
        <time>2015-10-03T11:54:26Z</time>
      </trkpt>
      <trkpt lat="47.48107" lon="6.67634">
        <ele>409.226</ele>
        <time>2015-10-03T11:54:27Z</time>
      </trkpt>
      <trkpt lat="47.48107" lon="6.67632">
        <ele>409.333</ele>
        <time>2015-10-03T11:54:28Z</time>
      </trkpt>
      <trkpt lat="47.48108" lon="6.67629">
        <ele>409.405</ele>
        <time>2015-10-03T11:54:29Z</time>
      </trkpt>
      <trkpt lat="47.48109" lon="6.67627">
        <ele>409.165</ele>
        <time>2015-10-03T11:54:30Z</time>
      </trkpt>
      <trkpt lat="47.4811" lon="6.67624">
        <ele>409.438</ele>
        <time>2015-10-03T11:54:31Z</time>
      </trkpt>
      <trkpt lat="47.4811" lon="6.67622">
        <ele>408.88</ele>
        <time>2015-10-03T11:54:32Z</time>
      </trkpt>
      <trkpt lat="47.48111" lon="6.67619">
        <ele>408.837</ele>
        <time>2015-10-03T11:54:33Z</time>
      </trkpt>
      <trkpt lat="47.48112" lon="6.67617">
        <ele>409.182</ele>
        <time>2015-10-03T11:54:34Z</time>
      </trkpt>
      <trkpt lat="47.48112" lon="6.67614">
        <ele>409.466</ele>
        <time>2015-10-03T11:54:35Z</time>
      </trkpt>
      <trkpt lat="47.48113" lon="6.67611">
        <ele>407.903</ele>
        <time>2015-10-03T11:54:36Z</time>
      </trkpt>
      <trkpt lat="47.48114" lon="6.67607">
        <ele>405.206</ele>
        <time>2015-10-03T11:54:37Z</time>
      </trkpt>
      <trkpt lat="47.48115" lon="6.67604">
        <ele>405.697</ele>
        <time>2015-10-03T11:54:38Z</time>
      </trkpt>
      <trkpt lat="47.48115" lon="6.67602">
        <ele>405.315</ele>
        <time>2015-10-03T11:54:39Z</time>
      </trkpt>
      <trkpt lat="47.48116" lon="6.676">
        <ele>406.307</ele>
        <time>2015-10-03T11:54:40Z</time>
      </trkpt>
      <trkpt lat="47.48117" lon="6.67597">
        <ele>405.05</ele>
        <time>2015-10-03T11:54:41Z</time>
      </trkpt>
      <trkpt lat="47.48118" lon="6.67594">
        <ele>405.228</ele>
        <time>2015-10-03T11:54:42Z</time>
      </trkpt>
      <trkpt lat="47.48119" lon="6.67591">
        <ele>404.981</ele>
        <time>2015-10-03T11:54:43Z</time>
      </trkpt>
      <trkpt lat="47.48119" lon="6.67587">
        <ele>402.563</ele>
        <time>2015-10-03T11:54:44Z</time>
      </trkpt>
      <trkpt lat="47.4812" lon="6.67583">
        <ele>402.233</ele>
        <time>2015-10-03T11:54:45Z</time>
      </trkpt>
      <trkpt lat="47.4812" lon="6.6758">
        <ele>402.332</ele>
        <time>2015-10-03T11:54:46Z</time>
      </trkpt>
      <trkpt lat="47.48121" lon="6.67577">
        <ele>402.709</ele>
        <time>2015-10-03T11:54:47Z</time>
      </trkpt>
      <trkpt lat="47.48121" lon="6.67574">
        <ele>402.637</ele>
        <time>2015-10-03T11:54:48Z</time>
      </trkpt>
      <trkpt lat="47.48122" lon="6.67571">
        <ele>402.198</ele>
        <time>2015-10-03T11:54:49Z</time>
      </trkpt>
      <trkpt lat="47.48123" lon="6.67567">
        <ele>401.823</ele>
        <time>2015-10-03T11:54:50Z</time>
      </trkpt>
      <trkpt lat="47.48123" lon="6.67563">
        <ele>401.075</ele>
        <time>2015-10-03T11:54:51Z</time>
      </trkpt>
      <trkpt lat="47.48124" lon="6.6756">
        <ele>401.771</ele>
        <time>2015-10-03T11:54:52Z</time>
      </trkpt>
      <trkpt lat="47.48124" lon="6.67558">
        <ele>401.631</ele>
        <time>2015-10-03T11:54:53Z</time>
      </trkpt>
      <trkpt lat="47.48124" lon="6.67555">
        <ele>402.071</ele>
        <time>2015-10-03T11:54:54Z</time>
      </trkpt>
      <trkpt lat="47.48125" lon="6.67553">
        <ele>402.174</ele>
        <time>2015-10-03T11:54:55Z</time>
      </trkpt>
      <trkpt lat="47.48126" lon="6.6755">
        <ele>402.267</ele>
        <time>2015-10-03T11:54:56Z</time>
      </trkpt>
      <trkpt lat="47.48126" lon="6.67547">
        <ele>402.165</ele>
        <time>2015-10-03T11:54:57Z</time>
      </trkpt>
      <trkpt lat="47.48127" lon="6.67543">
        <ele>402.01</ele>
        <time>2015-10-03T11:54:58Z</time>
      </trkpt>
      <trkpt lat="47.48127" lon="6.6754">
        <ele>401.394</ele>
        <time>2015-10-03T11:54:59Z</time>
      </trkpt>
      <trkpt lat="47.48128" lon="6.67537">
        <ele>401.407</ele>
        <time>2015-10-03T11:55:00Z</time>
      </trkpt>
      <trkpt lat="47.48128" lon="6.67533">
        <ele>396.279</ele>
        <time>2015-10-03T11:55:01Z</time>
      </trkpt>
      <trkpt lat="47.48128" lon="6.67528">
        <ele>396.457</ele>
        <time>2015-10-03T11:55:02Z</time>
      </trkpt>
      <trkpt lat="47.48129" lon="6.67524">
        <ele>397.122</ele>
        <time>2015-10-03T11:55:03Z</time>
      </trkpt>
      <trkpt lat="47.4813" lon="6.6752">
        <ele>396.625</ele>
        <time>2015-10-03T11:55:04Z</time>
      </trkpt>
      <trkpt lat="47.48131" lon="6.67517">
        <ele>397.163</ele>
        <time>2015-10-03T11:55:05Z</time>
      </trkpt>
      <trkpt lat="47.48131" lon="6.67514">
        <ele>398.123</ele>
        <time>2015-10-03T11:55:06Z</time>
      </trkpt>
      <trkpt lat="47.48132" lon="6.67511">
        <ele>398.96</ele>
        <time>2015-10-03T11:55:07Z</time>
      </trkpt>
      <trkpt lat="47.48133" lon="6.67507">
        <ele>400.45</ele>
        <time>2015-10-03T11:55:08Z</time>
      </trkpt>
      <trkpt lat="47.48134" lon="6.67504">
        <ele>400.636</ele>
        <time>2015-10-03T11:55:09Z</time>
      </trkpt>
      <trkpt lat="47.48135" lon="6.67502">
        <ele>399.259</ele>
        <time>2015-10-03T11:55:10Z</time>
      </trkpt>
      <trkpt lat="47.48135" lon="6.675">
        <ele>399.752</ele>
        <time>2015-10-03T11:55:11Z</time>
      </trkpt>
      <trkpt lat="47.48136" lon="6.67498">
        <ele>400.532</ele>
        <time>2015-10-03T11:55:12Z</time>
      </trkpt>
      <trkpt lat="47.48137" lon="6.67495">
        <ele>400.472</ele>
        <time>2015-10-03T11:55:13Z</time>
      </trkpt>
      <trkpt lat="47.48138" lon="6.67493">
        <ele>400.661</ele>
        <time>2015-10-03T11:55:14Z</time>
      </trkpt>
      <trkpt lat="47.48139" lon="6.67491">
        <ele>404.159</ele>
        <time>2015-10-03T11:55:15Z</time>
      </trkpt>
      <trkpt lat="47.4814" lon="6.67489">
        <ele>404.965</ele>
        <time>2015-10-03T11:55:16Z</time>
      </trkpt>
      <trkpt lat="47.48142" lon="6.67486">
        <ele>405.561</ele>
        <time>2015-10-03T11:55:17Z</time>
      </trkpt>
      <trkpt lat="47.48143" lon="6.67484">
        <ele>405.563</ele>
        <time>2015-10-03T11:55:18Z</time>
      </trkpt>
      <trkpt lat="47.48144" lon="6.67481">
        <ele>405.12</ele>
        <time>2015-10-03T11:55:19Z</time>
      </trkpt>
      <trkpt lat="47.48145" lon="6.67479">
        <ele>404.958</ele>
        <time>2015-10-03T11:55:20Z</time>
      </trkpt>
      <trkpt lat="47.48147" lon="6.67477">
        <ele>405.128</ele>
        <time>2015-10-03T11:55:21Z</time>
      </trkpt>
      <trkpt lat="47.48148" lon="6.67475">
        <ele>404.742</ele>
        <time>2015-10-03T11:55:22Z</time>
      </trkpt>
      <trkpt lat="47.48149" lon="6.67474">
        <ele>406.144</ele>
        <time>2015-10-03T11:55:23Z</time>
      </trkpt>
      <trkpt lat="47.4815" lon="6.67473">
        <ele>407.5</ele>
        <time>2015-10-03T11:55:24Z</time>
      </trkpt>
      <trkpt lat="47.48151" lon="6.6747">
        <ele>407.29</ele>
        <time>2015-10-03T11:55:25Z</time>
      </trkpt>
      <trkpt lat="47.48153" lon="6.67467">
        <ele>407.2</ele>
        <time>2015-10-03T11:55:26Z</time>
      </trkpt>
      <trkpt lat="47.48155" lon="6.67465">
        <ele>407.086</ele>
        <time>2015-10-03T11:55:27Z</time>
      </trkpt>
      <trkpt lat="47.48156" lon="6.67462">
        <ele>408.224</ele>
        <time>2015-10-03T11:55:28Z</time>
      </trkpt>
      <trkpt lat="47.48157" lon="6.6746">
        <ele>407.219</ele>
        <time>2015-10-03T11:55:29Z</time>
      </trkpt>
      <trkpt lat="47.48158" lon="6.67458">
        <ele>406.411</ele>
        <time>2015-10-03T11:55:30Z</time>
      </trkpt>
      <trkpt lat="47.4816" lon="6.67456">
        <ele>405.426</ele>
        <time>2015-10-03T11:55:31Z</time>
      </trkpt>
      <trkpt lat="47.48161" lon="6.67454">
        <ele>404.822</ele>
        <time>2015-10-03T11:55:32Z</time>
      </trkpt>
      <trkpt lat="47.48163" lon="6.67451">
        <ele>405.473</ele>
        <time>2015-10-03T11:55:33Z</time>
      </trkpt>
      <trkpt lat="47.48164" lon="6.67448">
        <ele>405.037</ele>
        <time>2015-10-03T11:55:34Z</time>
      </trkpt>
      <trkpt lat="47.48166" lon="6.67445">
        <ele>404.736</ele>
        <time>2015-10-03T11:55:35Z</time>
      </trkpt>
      <trkpt lat="47.48167" lon="6.67442">
        <ele>403.843</ele>
        <time>2015-10-03T11:55:36Z</time>
      </trkpt>
      <trkpt lat="47.48169" lon="6.67439">
        <ele>403.516</ele>
        <time>2015-10-03T11:55:37Z</time>
      </trkpt>
      <trkpt lat="47.4817" lon="6.67436">
        <ele>405.107</ele>
        <time>2015-10-03T11:55:38Z</time>
      </trkpt>
      <trkpt lat="47.48172" lon="6.67434">
        <ele>403.648</ele>
        <time>2015-10-03T11:55:39Z</time>
      </trkpt>
      <trkpt lat="47.48173" lon="6.67432">
        <ele>403.657</ele>
        <time>2015-10-03T11:55:40Z</time>
      </trkpt>
      <trkpt lat="47.48175" lon="6.67429">
        <ele>402.927</ele>
        <time>2015-10-03T11:55:41Z</time>
      </trkpt>
      <trkpt lat="47.48177" lon="6.67425">
        <ele>403.871</ele>
        <time>2015-10-03T11:55:42Z</time>
      </trkpt>
      <trkpt lat="47.48178" lon="6.67422">
        <ele>403.64</ele>
        <time>2015-10-03T11:55:43Z</time>
      </trkpt>
      <trkpt lat="47.4818" lon="6.67419">
        <ele>402.986</ele>
        <time>2015-10-03T11:55:44Z</time>
      </trkpt>
      <trkpt lat="47.48181" lon="6.67416">
        <ele>402.746</ele>
        <time>2015-10-03T11:55:45Z</time>
      </trkpt>
      <trkpt lat="47.48182" lon="6.67413">
        <ele>403.198</ele>
        <time>2015-10-03T11:55:46Z</time>
      </trkpt>
      <trkpt lat="47.48183" lon="6.6741">
        <ele>402.747</ele>
        <time>2015-10-03T11:55:47Z</time>
      </trkpt>
      <trkpt lat="47.48184" lon="6.67408">
        <ele>401.979</ele>
        <time>2015-10-03T11:55:48Z</time>
      </trkpt>
      <trkpt lat="47.48185" lon="6.67404">
        <ele>402.435</ele>
        <time>2015-10-03T11:55:49Z</time>
      </trkpt>
      <trkpt lat="47.48186" lon="6.674">
        <ele>402.144</ele>
        <time>2015-10-03T11:55:50Z</time>
      </trkpt>
      <trkpt lat="47.48188" lon="6.67397">
        <ele>401.832</ele>
        <time>2015-10-03T11:55:51Z</time>
      </trkpt>
      <trkpt lat="47.48189" lon="6.67393">
        <ele>402.235</ele>
        <time>2015-10-03T11:55:52Z</time>
      </trkpt>
      <trkpt lat="47.4819" lon="6.67389">
        <ele>402.455</ele>
        <time>2015-10-03T11:55:53Z</time>
      </trkpt>
      <trkpt lat="47.48191" lon="6.67384">
        <ele>403.152</ele>
        <time>2015-10-03T11:55:54Z</time>
      </trkpt>
      <trkpt lat="47.48191" lon="6.6738">
        <ele>402.381</ele>
        <time>2015-10-03T11:55:55Z</time>
      </trkpt>
      <trkpt lat="47.48193" lon="6.67377">
        <ele>402.675</ele>
        <time>2015-10-03T11:55:56Z</time>
      </trkpt>
      <trkpt lat="47.48194" lon="6.67374">
        <ele>403.343</ele>
        <time>2015-10-03T11:55:57Z</time>
      </trkpt>
      <trkpt lat="47.48196" lon="6.6737">
        <ele>403.932</ele>
        <time>2015-10-03T11:55:58Z</time>
      </trkpt>
      <trkpt lat="47.48197" lon="6.67367">
        <ele>403.206</ele>
        <time>2015-10-03T11:55:59Z</time>
      </trkpt>
      <trkpt lat="47.48198" lon="6.67364">
        <ele>403.14</ele>
        <time>2015-10-03T11:56:00Z</time>
      </trkpt>
      <trkpt lat="47.48199" lon="6.67361">
        <ele>402.47</ele>
        <time>2015-10-03T11:56:01Z</time>
      </trkpt>
      <trkpt lat="47.482" lon="6.6736">
        <ele>402.043</ele>
        <time>2015-10-03T11:56:02Z</time>
      </trkpt>
      <trkpt lat="47.48201" lon="6.67355">
        <ele>402.055</ele>
        <time>2015-10-03T11:56:09Z</time>
      </trkpt>
      <trkpt lat="47.48202" lon="6.67353">
        <ele>402.071</ele>
        <time>2015-10-03T11:56:11Z</time>
      </trkpt>
      <trkpt lat="47.48203" lon="6.67351">
        <ele>402.59</ele>
        <time>2015-10-03T11:56:14Z</time>
      </trkpt>
      <trkpt lat="47.48202" lon="6.67349">
        <ele>402.206</ele>
        <time>2015-10-03T11:56:18Z</time>
      </trkpt>
      <trkpt lat="47.48202" lon="6.67348">
        <ele>401.815</ele>
        <time>2015-10-03T11:56:21Z</time>
      </trkpt>
      <trkpt lat="47.48202" lon="6.67347">
        <ele>401.276</ele>
        <time>2015-10-03T11:56:22Z</time>
      </trkpt>
      <trkpt lat="47.48202" lon="6.67345">
        <ele>401.284</ele>
        <time>2015-10-03T11:56:23Z</time>
      </trkpt>
      <trkpt lat="47.48203" lon="6.67342">
        <ele>400.67</ele>
        <time>2015-10-03T11:56:24Z</time>
      </trkpt>
      <trkpt lat="47.48203" lon="6.67339">
        <ele>400.024</ele>
        <time>2015-10-03T11:56:25Z</time>
      </trkpt>
      <trkpt lat="47.48204" lon="6.67336">
        <ele>400.356</ele>
        <time>2015-10-03T11:56:26Z</time>
      </trkpt>
      <trkpt lat="47.48205" lon="6.67332">
        <ele>399.801</ele>
        <time>2015-10-03T11:56:27Z</time>
      </trkpt>
      <trkpt lat="47.48206" lon="6.67328">
        <ele>399.511</ele>
        <time>2015-10-03T11:56:28Z</time>
      </trkpt>
      <trkpt lat="47.48207" lon="6.67324">
        <ele>399.408</ele>
        <time>2015-10-03T11:56:29Z</time>
      </trkpt>
      <trkpt lat="47.48208" lon="6.6732">
        <ele>399.322</ele>
        <time>2015-10-03T11:56:30Z</time>
      </trkpt>
      <trkpt lat="47.4821" lon="6.67316">
        <ele>398.504</ele>
        <time>2015-10-03T11:56:31Z</time>
      </trkpt>
      <trkpt lat="47.48211" lon="6.67312">
        <ele>398.499</ele>
        <time>2015-10-03T11:56:32Z</time>
      </trkpt>
      <trkpt lat="47.48213" lon="6.67308">
        <ele>398.344</ele>
        <time>2015-10-03T11:56:33Z</time>
      </trkpt>
      <trkpt lat="47.48214" lon="6.67304">
        <ele>398.491</ele>
        <time>2015-10-03T11:56:34Z</time>
      </trkpt>
      <trkpt lat="47.48215" lon="6.67301">
        <ele>398.411</ele>
        <time>2015-10-03T11:56:35Z</time>
      </trkpt>
      <trkpt lat="47.48216" lon="6.67297">
        <ele>398.711</ele>
        <time>2015-10-03T11:56:36Z</time>
      </trkpt>
      <trkpt lat="47.48217" lon="6.67294">
        <ele>399.443</ele>
        <time>2015-10-03T11:56:37Z</time>
      </trkpt>
      <trkpt lat="47.48218" lon="6.67291">
        <ele>399.625</ele>
        <time>2015-10-03T11:56:38Z</time>
      </trkpt>
      <trkpt lat="47.4822" lon="6.67287">
        <ele>399.551</ele>
        <time>2015-10-03T11:56:39Z</time>
      </trkpt>
      <trkpt lat="47.48221" lon="6.67284">
        <ele>399.827</ele>
        <time>2015-10-03T11:56:40Z</time>
      </trkpt>
      <trkpt lat="47.48222" lon="6.6728">
        <ele>400.07</ele>
        <time>2015-10-03T11:56:41Z</time>
      </trkpt>
      <trkpt lat="47.48223" lon="6.67276">
        <ele>401.039</ele>
        <time>2015-10-03T11:56:42Z</time>
      </trkpt>
      <trkpt lat="47.48224" lon="6.67273">
        <ele>401.249</ele>
        <time>2015-10-03T11:56:43Z</time>
      </trkpt>
      <trkpt lat="47.48225" lon="6.6727">
        <ele>402.084</ele>
        <time>2015-10-03T11:56:44Z</time>
      </trkpt>
      <trkpt lat="47.48226" lon="6.67267">
        <ele>402.835</ele>
        <time>2015-10-03T11:56:45Z</time>
      </trkpt>
      <trkpt lat="47.48227" lon="6.67264">
        <ele>401.532</ele>
        <time>2015-10-03T11:56:46Z</time>
      </trkpt>
      <trkpt lat="47.48228" lon="6.6726">
        <ele>401.943</ele>
        <time>2015-10-03T11:56:47Z</time>
      </trkpt>
      <trkpt lat="47.4823" lon="6.67256">
        <ele>401.246</ele>
        <time>2015-10-03T11:56:48Z</time>
      </trkpt>
      <trkpt lat="47.48231" lon="6.67252">
        <ele>400.828</ele>
        <time>2015-10-03T11:56:49Z</time>
      </trkpt>
      <trkpt lat="47.48232" lon="6.67248">
        <ele>401.074</ele>
        <time>2015-10-03T11:56:50Z</time>
      </trkpt>
      <trkpt lat="47.48233" lon="6.67243">
        <ele>401.186</ele>
        <time>2015-10-03T11:56:51Z</time>
      </trkpt>
      <trkpt lat="47.48234" lon="6.67239">
        <ele>401.098</ele>
        <time>2015-10-03T11:56:52Z</time>
      </trkpt>
      <trkpt lat="47.48235" lon="6.67234">
        <ele>401.24</ele>
        <time>2015-10-03T11:56:53Z</time>
      </trkpt>
      <trkpt lat="47.48236" lon="6.6723">
        <ele>401.024</ele>
        <time>2015-10-03T11:56:54Z</time>
      </trkpt>
      <trkpt lat="47.48237" lon="6.67225">
        <ele>400.89</ele>
        <time>2015-10-03T11:56:55Z</time>
      </trkpt>
      <trkpt lat="47.48238" lon="6.67221">
        <ele>400.787</ele>
        <time>2015-10-03T11:56:56Z</time>
      </trkpt>
      <trkpt lat="47.48238" lon="6.67216">
        <ele>401.094</ele>
        <time>2015-10-03T11:56:57Z</time>
      </trkpt>
      <trkpt lat="47.48239" lon="6.67211">
        <ele>400.813</ele>
        <time>2015-10-03T11:56:58Z</time>
      </trkpt>
      <trkpt lat="47.48239" lon="6.67206">
        <ele>399.985</ele>
        <time>2015-10-03T11:56:59Z</time>
      </trkpt>
      <trkpt lat="47.4824" lon="6.67201">
        <ele>399.012</ele>
        <time>2015-10-03T11:57:00Z</time>
      </trkpt>
      <trkpt lat="47.48241" lon="6.67197">
        <ele>398.988</ele>
        <time>2015-10-03T11:57:01Z</time>
      </trkpt>
      <trkpt lat="47.48241" lon="6.67192">
        <ele>398.433</ele>
        <time>2015-10-03T11:57:02Z</time>
      </trkpt>
      <trkpt lat="47.48242" lon="6.67188">
        <ele>399.119</ele>
        <time>2015-10-03T11:57:03Z</time>
      </trkpt>
      <trkpt lat="47.48243" lon="6.67183">
        <ele>399.918</ele>
        <time>2015-10-03T11:57:04Z</time>
      </trkpt>
      <trkpt lat="47.48244" lon="6.67178">
        <ele>399.81</ele>
        <time>2015-10-03T11:57:05Z</time>
      </trkpt>
      <trkpt lat="47.48246" lon="6.67172">
        <ele>400.188</ele>
        <time>2015-10-03T11:57:06Z</time>
      </trkpt>
      <trkpt lat="47.48247" lon="6.67166">
        <ele>400.617</ele>
        <time>2015-10-03T11:57:07Z</time>
      </trkpt>
      <trkpt lat="47.48249" lon="6.6716">
        <ele>400.292</ele>
        <time>2015-10-03T11:57:08Z</time>
      </trkpt>
      <trkpt lat="47.48251" lon="6.67154">
        <ele>400.379</ele>
        <time>2015-10-03T11:57:09Z</time>
      </trkpt>
      <trkpt lat="47.48252" lon="6.67148">
        <ele>400.705</ele>
        <time>2015-10-03T11:57:10Z</time>
      </trkpt>
      <trkpt lat="47.48253" lon="6.67141">
        <ele>400.465</ele>
        <time>2015-10-03T11:57:11Z</time>
      </trkpt>
      <trkpt lat="47.48255" lon="6.67135">
        <ele>400.167</ele>
        <time>2015-10-03T11:57:12Z</time>
      </trkpt>
      <trkpt lat="47.48256" lon="6.67128">
        <ele>400.417</ele>
        <time>2015-10-03T11:57:13Z</time>
      </trkpt>
      <trkpt lat="47.48257" lon="6.67122">
        <ele>400.535</ele>
        <time>2015-10-03T11:57:14Z</time>
      </trkpt>
      <trkpt lat="47.48259" lon="6.67113">
        <ele>400.627</ele>
        <time>2015-10-03T11:57:15Z</time>
      </trkpt>
      <trkpt lat="47.4826" lon="6.67107">
        <ele>400.738</ele>
        <time>2015-10-03T11:57:16Z</time>
      </trkpt>
      <trkpt lat="47.48262" lon="6.671">
        <ele>400.87</ele>
        <time>2015-10-03T11:57:17Z</time>
      </trkpt>
      <trkpt lat="47.48262" lon="6.67094">
        <ele>401.608</ele>
        <time>2015-10-03T11:57:18Z</time>
      </trkpt>
      <trkpt lat="47.48264" lon="6.67086">
        <ele>401.066</ele>
        <time>2015-10-03T11:57:19Z</time>
      </trkpt>
      <trkpt lat="47.48264" lon="6.6708">
        <ele>401.033</ele>
        <time>2015-10-03T11:57:20Z</time>
      </trkpt>
      <trkpt lat="47.48265" lon="6.67075">
        <ele>400.941</ele>
        <time>2015-10-03T11:57:21Z</time>
      </trkpt>
      <trkpt lat="47.48266" lon="6.6707">
        <ele>400.842</ele>
        <time>2015-10-03T11:57:22Z</time>
      </trkpt>
      <trkpt lat="47.48267" lon="6.67064">
        <ele>401.194</ele>
        <time>2015-10-03T11:57:23Z</time>
      </trkpt>
      <trkpt lat="47.48268" lon="6.67058">
        <ele>400.981</ele>
        <time>2015-10-03T11:57:24Z</time>
      </trkpt>
      <trkpt lat="47.48269" lon="6.67052">
        <ele>401.972</ele>
        <time>2015-10-03T11:57:25Z</time>
      </trkpt>
      <trkpt lat="47.4827" lon="6.67046">
        <ele>402.135</ele>
        <time>2015-10-03T11:57:26Z</time>
      </trkpt>
      <trkpt lat="47.48272" lon="6.67039">
        <ele>402.692</ele>
        <time>2015-10-03T11:57:27Z</time>
      </trkpt>
      <trkpt lat="47.48273" lon="6.67032">
        <ele>402.363</ele>
        <time>2015-10-03T11:57:28Z</time>
      </trkpt>
      <trkpt lat="47.48275" lon="6.67023">
        <ele>402.104</ele>
        <time>2015-10-03T11:57:29Z</time>
      </trkpt>
      <trkpt lat="47.48276" lon="6.67017">
        <ele>401.633</ele>
        <time>2015-10-03T11:57:30Z</time>
      </trkpt>
      <trkpt lat="47.48278" lon="6.6701">
        <ele>402.046</ele>
        <time>2015-10-03T11:57:31Z</time>
      </trkpt>
      <trkpt lat="47.48279" lon="6.67003">
        <ele>402.229</ele>
        <time>2015-10-03T11:57:32Z</time>
      </trkpt>
      <trkpt lat="47.48281" lon="6.66996">
        <ele>402.45</ele>
        <time>2015-10-03T11:57:33Z</time>
      </trkpt>
      <trkpt lat="47.48283" lon="6.6699">
        <ele>403.054</ele>
        <time>2015-10-03T11:57:34Z</time>
      </trkpt>
      <trkpt lat="47.48284" lon="6.66984">
        <ele>403.445</ele>
        <time>2015-10-03T11:57:35Z</time>
      </trkpt>
      <trkpt lat="47.48286" lon="6.66978">
        <ele>403.539</ele>
        <time>2015-10-03T11:57:36Z</time>
      </trkpt>
      <trkpt lat="47.48287" lon="6.66972">
        <ele>402.529</ele>
        <time>2015-10-03T11:57:37Z</time>
      </trkpt>
      <trkpt lat="47.48289" lon="6.66966">
        <ele>402.999</ele>
        <time>2015-10-03T11:57:38Z</time>
      </trkpt>
      <trkpt lat="47.4829" lon="6.6696">
        <ele>403.735</ele>
        <time>2015-10-03T11:57:39Z</time>
      </trkpt>
      <trkpt lat="47.48292" lon="6.66954">
        <ele>404.223</ele>
        <time>2015-10-03T11:57:40Z</time>
      </trkpt>
      <trkpt lat="47.48293" lon="6.66949">
        <ele>403.772</ele>
        <time>2015-10-03T11:57:41Z</time>
      </trkpt>
      <trkpt lat="47.48295" lon="6.66943">
        <ele>403.821</ele>
        <time>2015-10-03T11:57:42Z</time>
      </trkpt>
      <trkpt lat="47.48296" lon="6.66938">
        <ele>403.022</ele>
        <time>2015-10-03T11:57:43Z</time>
      </trkpt>
      <trkpt lat="47.48297" lon="6.66933">
        <ele>402.446</ele>
        <time>2015-10-03T11:57:44Z</time>
      </trkpt>
      <trkpt lat="47.48299" lon="6.66927">
        <ele>402.011</ele>
        <time>2015-10-03T11:57:45Z</time>
      </trkpt>
      <trkpt lat="47.483" lon="6.66921">
        <ele>401.807</ele>
        <time>2015-10-03T11:57:46Z</time>
      </trkpt>
      <trkpt lat="47.48302" lon="6.66915">
        <ele>401.401</ele>
        <time>2015-10-03T11:57:47Z</time>
      </trkpt>
      <trkpt lat="47.48303" lon="6.66909">
        <ele>400.934</ele>
        <time>2015-10-03T11:57:48Z</time>
      </trkpt>
      <trkpt lat="47.48305" lon="6.66904">
        <ele>400.688</ele>
        <time>2015-10-03T11:57:49Z</time>
      </trkpt>
      <trkpt lat="47.48307" lon="6.66898">
        <ele>400.531</ele>
        <time>2015-10-03T11:57:50Z</time>
      </trkpt>
      <trkpt lat="47.48309" lon="6.66892">
        <ele>400.149</ele>
        <time>2015-10-03T11:57:51Z</time>
      </trkpt>
      <trkpt lat="47.4831" lon="6.66886">
        <ele>399.923</ele>
        <time>2015-10-03T11:57:52Z</time>
      </trkpt>
      <trkpt lat="47.48312" lon="6.6688">
        <ele>399.951</ele>
        <time>2015-10-03T11:57:53Z</time>
      </trkpt>
      <trkpt lat="47.48314" lon="6.66875">
        <ele>399.804</ele>
        <time>2015-10-03T11:57:54Z</time>
      </trkpt>
      <trkpt lat="47.48317" lon="6.66868">
        <ele>399.969</ele>
        <time>2015-10-03T11:57:55Z</time>
      </trkpt>
      <trkpt lat="47.48319" lon="6.66861">
        <ele>399.65</ele>
        <time>2015-10-03T11:57:56Z</time>
      </trkpt>
      <trkpt lat="47.48321" lon="6.66855">
        <ele>399.816</ele>
        <time>2015-10-03T11:57:57Z</time>
      </trkpt>
      <trkpt lat="47.48323" lon="6.6685">
        <ele>400.297</ele>
        <time>2015-10-03T11:57:58Z</time>
      </trkpt>
      <trkpt lat="47.48325" lon="6.66843">
        <ele>400.813</ele>
        <time>2015-10-03T11:57:59Z</time>
      </trkpt>
      <trkpt lat="47.48327" lon="6.66837">
        <ele>401.109</ele>
        <time>2015-10-03T11:58:00Z</time>
      </trkpt>
      <trkpt lat="47.48329" lon="6.66831">
        <ele>401.806</ele>
        <time>2015-10-03T11:58:01Z</time>
      </trkpt>
      <trkpt lat="47.48331" lon="6.66825">
        <ele>401.569</ele>
        <time>2015-10-03T11:58:02Z</time>
      </trkpt>
      <trkpt lat="47.48333" lon="6.6682">
        <ele>401.086</ele>
        <time>2015-10-03T11:58:03Z</time>
      </trkpt>
      <trkpt lat="47.48335" lon="6.66814">
        <ele>401.246</ele>
        <time>2015-10-03T11:58:04Z</time>
      </trkpt>
      <trkpt lat="47.48337" lon="6.66809">
        <ele>401.398</ele>
        <time>2015-10-03T11:58:05Z</time>
      </trkpt>
      <trkpt lat="47.48338" lon="6.66802">
        <ele>400.156</ele>
        <time>2015-10-03T11:58:06Z</time>
      </trkpt>
      <trkpt lat="47.4834" lon="6.66798">
        <ele>400.914</ele>
        <time>2015-10-03T11:58:07Z</time>
      </trkpt>
      <trkpt lat="47.48342" lon="6.66792">
        <ele>400.965</ele>
        <time>2015-10-03T11:58:08Z</time>
      </trkpt>
      <trkpt lat="47.48344" lon="6.66786">
        <ele>400.638</ele>
        <time>2015-10-03T11:58:09Z</time>
      </trkpt>
      <trkpt lat="47.48346" lon="6.6678">
        <ele>400.808</ele>
        <time>2015-10-03T11:58:10Z</time>
      </trkpt>
      <trkpt lat="47.48349" lon="6.66775">
        <ele>401.077</ele>
        <time>2015-10-03T11:58:11Z</time>
      </trkpt>
      <trkpt lat="47.48351" lon="6.6677">
        <ele>402.174</ele>
        <time>2015-10-03T11:58:12Z</time>
      </trkpt>
      <trkpt lat="47.48354" lon="6.66765">
        <ele>402.019</ele>
        <time>2015-10-03T11:58:13Z</time>
      </trkpt>
      <trkpt lat="47.48356" lon="6.6676">
        <ele>401.616</ele>
        <time>2015-10-03T11:58:14Z</time>
      </trkpt>
      <trkpt lat="47.48359" lon="6.66755">
        <ele>401.777</ele>
        <time>2015-10-03T11:58:15Z</time>
      </trkpt>
      <trkpt lat="47.48361" lon="6.6675">
        <ele>401.296</ele>
        <time>2015-10-03T11:58:16Z</time>
      </trkpt>
      <trkpt lat="47.48365" lon="6.66745">
        <ele>401.532</ele>
        <time>2015-10-03T11:58:17Z</time>
      </trkpt>
      <trkpt lat="47.48367" lon="6.66741">
        <ele>401.381</ele>
        <time>2015-10-03T11:58:18Z</time>
      </trkpt>
      <trkpt lat="47.48371" lon="6.66736">
        <ele>400.692</ele>
        <time>2015-10-03T11:58:19Z</time>
      </trkpt>
      <trkpt lat="47.48374" lon="6.66732">
        <ele>400.165</ele>
        <time>2015-10-03T11:58:20Z</time>
      </trkpt>
      <trkpt lat="47.48377" lon="6.66728">
        <ele>399.864</ele>
        <time>2015-10-03T11:58:21Z</time>
      </trkpt>
      <trkpt lat="47.48381" lon="6.66724">
        <ele>399.347</ele>
        <time>2015-10-03T11:58:22Z</time>
      </trkpt>
      <trkpt lat="47.48384" lon="6.66721">
        <ele>399.14</ele>
        <time>2015-10-03T11:58:23Z</time>
      </trkpt>
      <trkpt lat="47.48388" lon="6.66718">
        <ele>399.113</ele>
        <time>2015-10-03T11:58:24Z</time>
      </trkpt>
      <trkpt lat="47.48392" lon="6.66716">
        <ele>399.42</ele>
        <time>2015-10-03T11:58:25Z</time>
      </trkpt>
      <trkpt lat="47.48396" lon="6.66714">
        <ele>399.921</ele>
        <time>2015-10-03T11:58:26Z</time>
      </trkpt>
      <trkpt lat="47.484" lon="6.66712">
        <ele>399.543</ele>
        <time>2015-10-03T11:58:27Z</time>
      </trkpt>
      <trkpt lat="47.48404" lon="6.6671">
        <ele>400.033</ele>
        <time>2015-10-03T11:58:28Z</time>
      </trkpt>
      <trkpt lat="47.48408" lon="6.66708">
        <ele>400.173</ele>
        <time>2015-10-03T11:58:29Z</time>
      </trkpt>
      <trkpt lat="47.48412" lon="6.66707">
        <ele>400.917</ele>
        <time>2015-10-03T11:58:30Z</time>
      </trkpt>
      <trkpt lat="47.48416" lon="6.66705">
        <ele>400.524</ele>
        <time>2015-10-03T11:58:31Z</time>
      </trkpt>
      <trkpt lat="47.4842" lon="6.66703">
        <ele>400.332</ele>
        <time>2015-10-03T11:58:32Z</time>
      </trkpt>
      <trkpt lat="47.48425" lon="6.66702">
        <ele>400.064</ele>
        <time>2015-10-03T11:58:33Z</time>
      </trkpt>
      <trkpt lat="47.48429" lon="6.66701">
        <ele>399.82</ele>
        <time>2015-10-03T11:58:34Z</time>
      </trkpt>
      <trkpt lat="47.48434" lon="6.66701">
        <ele>399.579</ele>
        <time>2015-10-03T11:58:35Z</time>
      </trkpt>
      <trkpt lat="47.48439" lon="6.66701">
        <ele>399.666</ele>
        <time>2015-10-03T11:58:36Z</time>
      </trkpt>
      <trkpt lat="47.48443" lon="6.66701">
        <ele>399.327</ele>
        <time>2015-10-03T11:58:37Z</time>
      </trkpt>
      <trkpt lat="47.48448" lon="6.66704">
        <ele>400.936</ele>
        <time>2015-10-03T11:58:38Z</time>
      </trkpt>
      <trkpt lat="47.48451" lon="6.66707">
        <ele>402.28</ele>
        <time>2015-10-03T11:58:39Z</time>
      </trkpt>
      <trkpt lat="47.48454" lon="6.66709">
        <ele>401.525</ele>
        <time>2015-10-03T11:58:40Z</time>
      </trkpt>
      <trkpt lat="47.48459" lon="6.66711">
        <ele>401.431</ele>
        <time>2015-10-03T11:58:41Z</time>
      </trkpt>
      <trkpt lat="47.48464" lon="6.66711">
        <ele>400.595</ele>
        <time>2015-10-03T11:58:42Z</time>
      </trkpt>
      <trkpt lat="47.48468" lon="6.66712">
        <ele>400.471</ele>
        <time>2015-10-03T11:58:43Z</time>
      </trkpt>
      <trkpt lat="47.48472" lon="6.66713">
        <ele>400.876</ele>
        <time>2015-10-03T11:58:44Z</time>
      </trkpt>
      <trkpt lat="47.48477" lon="6.66714">
        <ele>401.07</ele>
        <time>2015-10-03T11:58:45Z</time>
      </trkpt>
      <trkpt lat="47.48481" lon="6.66716">
        <ele>401.393</ele>
        <time>2015-10-03T11:58:46Z</time>
      </trkpt>
      <trkpt lat="47.48485" lon="6.66718">
        <ele>401.541</ele>
        <time>2015-10-03T11:58:47Z</time>
      </trkpt>
      <trkpt lat="47.48491" lon="6.66721">
        <ele>400.878</ele>
        <time>2015-10-03T11:58:48Z</time>
      </trkpt>
      <trkpt lat="47.48495" lon="6.66723">
        <ele>401.177</ele>
        <time>2015-10-03T11:58:49Z</time>
      </trkpt>
      <trkpt lat="47.48499" lon="6.66725">
        <ele>401.358</ele>
        <time>2015-10-03T11:58:50Z</time>
      </trkpt>
      <trkpt lat="47.48504" lon="6.66727">
        <ele>401.568</ele>
        <time>2015-10-03T11:58:51Z</time>
      </trkpt>
      <trkpt lat="47.48508" lon="6.6673">
        <ele>400.572</ele>
        <time>2015-10-03T11:58:52Z</time>
      </trkpt>
      <trkpt lat="47.48512" lon="6.66733">
        <ele>400.316</ele>
        <time>2015-10-03T11:58:53Z</time>
      </trkpt>
      <trkpt lat="47.48517" lon="6.66735">
        <ele>399.871</ele>
        <time>2015-10-03T11:58:54Z</time>
      </trkpt>
      <trkpt lat="47.48521" lon="6.66736">
        <ele>400.019</ele>
        <time>2015-10-03T11:58:55Z</time>
      </trkpt>
      <trkpt lat="47.48528" lon="6.66739">
        <ele>401.94</ele>
        <time>2015-10-03T11:58:56Z</time>
      </trkpt>
      <trkpt lat="47.48533" lon="6.6674">
        <ele>402.916</ele>
        <time>2015-10-03T11:58:57Z</time>
      </trkpt>
      <trkpt lat="47.48537" lon="6.66741">
        <ele>401.749</ele>
        <time>2015-10-03T11:58:58Z</time>
      </trkpt>
      <trkpt lat="47.48541" lon="6.66741">
        <ele>401.208</ele>
        <time>2015-10-03T11:58:59Z</time>
      </trkpt>
      <trkpt lat="47.48547" lon="6.66739">
        <ele>402.323</ele>
        <time>2015-10-03T11:59:00Z</time>
      </trkpt>
      <trkpt lat="47.48552" lon="6.66735">
        <ele>401.418</ele>
        <time>2015-10-03T11:59:01Z</time>
      </trkpt>
      <trkpt lat="47.48557" lon="6.66732">
        <ele>401.199</ele>
        <time>2015-10-03T11:59:02Z</time>
      </trkpt>
      <trkpt lat="47.48562" lon="6.66728">
        <ele>401.709</ele>
        <time>2015-10-03T11:59:03Z</time>
      </trkpt>
      <trkpt lat="47.48568" lon="6.66723">
        <ele>401.583</ele>
        <time>2015-10-03T11:59:04Z</time>
      </trkpt>
      <trkpt lat="47.48573" lon="6.66718">
        <ele>401.088</ele>
        <time>2015-10-03T11:59:05Z</time>
      </trkpt>
      <trkpt lat="47.48577" lon="6.66715">
        <ele>400.384</ele>
        <time>2015-10-03T11:59:06Z</time>
      </trkpt>
      <trkpt lat="47.48583" lon="6.66709">
        <ele>400.621</ele>
        <time>2015-10-03T11:59:07Z</time>
      </trkpt>
      <trkpt lat="47.48586" lon="6.66705">
        <ele>400.656</ele>
        <time>2015-10-03T11:59:08Z</time>
      </trkpt>
      <trkpt lat="47.48591" lon="6.667">
        <ele>400.854</ele>
        <time>2015-10-03T11:59:09Z</time>
      </trkpt>
      <trkpt lat="47.48594" lon="6.66696">
        <ele>400.953</ele>
        <time>2015-10-03T11:59:10Z</time>
      </trkpt>
      <trkpt lat="47.48599" lon="6.66691">
        <ele>400.102</ele>
        <time>2015-10-03T11:59:11Z</time>
      </trkpt>
      <trkpt lat="47.48602" lon="6.66687">
        <ele>399.922</ele>
        <time>2015-10-03T11:59:12Z</time>
      </trkpt>
      <trkpt lat="47.48605" lon="6.66681">
        <ele>401.177</ele>
        <time>2015-10-03T11:59:13Z</time>
      </trkpt>
      <trkpt lat="47.48609" lon="6.66677">
        <ele>402.081</ele>
        <time>2015-10-03T11:59:14Z</time>
      </trkpt>
      <trkpt lat="47.48613" lon="6.66672">
        <ele>401.149</ele>
        <time>2015-10-03T11:59:15Z</time>
      </trkpt>
      <trkpt lat="47.48617" lon="6.66669">
        <ele>400.699</ele>
        <time>2015-10-03T11:59:16Z</time>
      </trkpt>
      <trkpt lat="47.4862" lon="6.66665">
        <ele>400.588</ele>
        <time>2015-10-03T11:59:17Z</time>
      </trkpt>
      <trkpt lat="47.48623" lon="6.66662">
        <ele>400.255</ele>
        <time>2015-10-03T11:59:18Z</time>
      </trkpt>
      <trkpt lat="47.48626" lon="6.66659">
        <ele>399.66</ele>
        <time>2015-10-03T11:59:19Z</time>
      </trkpt>
      <trkpt lat="47.48629" lon="6.66656">
        <ele>400.238</ele>
        <time>2015-10-03T11:59:20Z</time>
      </trkpt>
      <trkpt lat="47.48632" lon="6.66654">
        <ele>400.554</ele>
        <time>2015-10-03T11:59:21Z</time>
      </trkpt>
      <trkpt lat="47.48635" lon="6.66651">
        <ele>400.218</ele>
        <time>2015-10-03T11:59:22Z</time>
      </trkpt>
      <trkpt lat="47.48637" lon="6.66649">
        <ele>400.02</ele>
        <time>2015-10-03T11:59:23Z</time>
      </trkpt>
      <trkpt lat="47.4864" lon="6.66646">
        <ele>400.325</ele>
        <time>2015-10-03T11:59:24Z</time>
      </trkpt>
      <trkpt lat="47.48643" lon="6.66643">
        <ele>400.92</ele>
        <time>2015-10-03T11:59:25Z</time>
      </trkpt>
      <trkpt lat="47.48645" lon="6.6664">
        <ele>400.097</ele>
        <time>2015-10-03T11:59:26Z</time>
      </trkpt>
      <trkpt lat="47.48647" lon="6.66637">
        <ele>400.664</ele>
        <time>2015-10-03T11:59:27Z</time>
      </trkpt>
      <trkpt lat="47.4865" lon="6.66635">
        <ele>401.096</ele>
        <time>2015-10-03T11:59:28Z</time>
      </trkpt>
      <trkpt lat="47.48652" lon="6.66632">
        <ele>401.312</ele>
        <time>2015-10-03T11:59:29Z</time>
      </trkpt>
      <trkpt lat="47.48654" lon="6.6663">
        <ele>402.034</ele>
        <time>2015-10-03T11:59:30Z</time>
      </trkpt>
      <trkpt lat="47.48657" lon="6.66627">
        <ele>402.368</ele>
        <time>2015-10-03T11:59:31Z</time>
      </trkpt>
      <trkpt lat="47.48659" lon="6.66625">
        <ele>402.943</ele>
        <time>2015-10-03T11:59:32Z</time>
      </trkpt>
      <trkpt lat="47.48661" lon="6.66623">
        <ele>403.58</ele>
        <time>2015-10-03T11:59:33Z</time>
      </trkpt>
      <trkpt lat="47.48664" lon="6.6662">
        <ele>405.19</ele>
        <time>2015-10-03T11:59:34Z</time>
      </trkpt>
      <trkpt lat="47.48666" lon="6.66618">
        <ele>405.258</ele>
        <time>2015-10-03T11:59:35Z</time>
      </trkpt>
      <trkpt lat="47.48669" lon="6.66616">
        <ele>405.653</ele>
        <time>2015-10-03T11:59:36Z</time>
      </trkpt>
      <trkpt lat="47.48671" lon="6.66614">
        <ele>405.352</ele>
        <time>2015-10-03T11:59:37Z</time>
      </trkpt>
      <trkpt lat="47.48673" lon="6.66613">
        <ele>405.965</ele>
        <time>2015-10-03T11:59:38Z</time>
      </trkpt>
      <trkpt lat="47.48675" lon="6.66612">
        <ele>406.669</ele>
        <time>2015-10-03T11:59:39Z</time>
      </trkpt>
      <trkpt lat="47.48678" lon="6.6661">
        <ele>406.882</ele>
        <time>2015-10-03T11:59:40Z</time>
      </trkpt>
      <trkpt lat="47.48681" lon="6.66609">
        <ele>406.819</ele>
        <time>2015-10-03T11:59:41Z</time>
      </trkpt>
      <trkpt lat="47.48683" lon="6.66607">
        <ele>406.966</ele>
        <time>2015-10-03T11:59:42Z</time>
      </trkpt>
      <trkpt lat="47.48686" lon="6.66605">
        <ele>408.339</ele>
        <time>2015-10-03T11:59:43Z</time>
      </trkpt>
      <trkpt lat="47.48689" lon="6.66603">
        <ele>407.933</ele>
        <time>2015-10-03T11:59:44Z</time>
      </trkpt>
      <trkpt lat="47.48691" lon="6.66601">
        <ele>408.045</ele>
        <time>2015-10-03T11:59:45Z</time>
      </trkpt>
      <trkpt lat="47.48694" lon="6.66599">
        <ele>408.403</ele>
        <time>2015-10-03T11:59:46Z</time>
      </trkpt>
      <trkpt lat="47.48697" lon="6.66598">
        <ele>408.226</ele>
        <time>2015-10-03T11:59:47Z</time>
      </trkpt>
      <trkpt lat="47.487" lon="6.66596">
        <ele>407.686</ele>
        <time>2015-10-03T11:59:48Z</time>
      </trkpt>
      <trkpt lat="47.48703" lon="6.66595">
        <ele>407.758</ele>
        <time>2015-10-03T11:59:49Z</time>
      </trkpt>
      <trkpt lat="47.48705" lon="6.66593">
        <ele>408.105</ele>
        <time>2015-10-03T11:59:50Z</time>
      </trkpt>
      <trkpt lat="47.48708" lon="6.66591">
        <ele>408.992</ele>
        <time>2015-10-03T11:59:51Z</time>
      </trkpt>
      <trkpt lat="47.4871" lon="6.6659">
        <ele>409.491</ele>
        <time>2015-10-03T11:59:52Z</time>
      </trkpt>
      <trkpt lat="47.48713" lon="6.66588">
        <ele>409.19</ele>
        <time>2015-10-03T11:59:53Z</time>
      </trkpt>
      <trkpt lat="47.48715" lon="6.66586">
        <ele>409.249</ele>
        <time>2015-10-03T11:59:54Z</time>
      </trkpt>
      <trkpt lat="47.48718" lon="6.66584">
        <ele>408.735</ele>
        <time>2015-10-03T11:59:55Z</time>
      </trkpt>
      <trkpt lat="47.4872" lon="6.66582">
        <ele>408.352</ele>
        <time>2015-10-03T11:59:56Z</time>
      </trkpt>
      <trkpt lat="47.48723" lon="6.66579">
        <ele>408.256</ele>
        <time>2015-10-03T11:59:57Z</time>
      </trkpt>
      <trkpt lat="47.48725" lon="6.66576">
        <ele>408.646</ele>
        <time>2015-10-03T11:59:58Z</time>
      </trkpt>
      <trkpt lat="47.48727" lon="6.66574">
        <ele>408.462</ele>
        <time>2015-10-03T11:59:59Z</time>
      </trkpt>
      <trkpt lat="47.4873" lon="6.66572">
        <ele>407.903</ele>
        <time>2015-10-03T12:00:00Z</time>
      </trkpt>
      <trkpt lat="47.48732" lon="6.6657">
        <ele>407.544</ele>
        <time>2015-10-03T12:00:01Z</time>
      </trkpt>
      <trkpt lat="47.48735" lon="6.66568">
        <ele>407.166</ele>
        <time>2015-10-03T12:00:02Z</time>
      </trkpt>
      <trkpt lat="47.48738" lon="6.66565">
        <ele>407.865</ele>
        <time>2015-10-03T12:00:03Z</time>
      </trkpt>
      <trkpt lat="47.48741" lon="6.66563">
        <ele>407.807</ele>
        <time>2015-10-03T12:00:04Z</time>
      </trkpt>
      <trkpt lat="47.48743" lon="6.66561">
        <ele>407.709</ele>
        <time>2015-10-03T12:00:05Z</time>
      </trkpt>
      <trkpt lat="47.48745" lon="6.66559">
        <ele>407.563</ele>
        <time>2015-10-03T12:00:06Z</time>
      </trkpt>
      <trkpt lat="47.48748" lon="6.66557">
        <ele>407.528</ele>
        <time>2015-10-03T12:00:07Z</time>
      </trkpt>
      <trkpt lat="47.4875" lon="6.66555">
        <ele>407.507</ele>
        <time>2015-10-03T12:00:08Z</time>
      </trkpt>
      <trkpt lat="47.48752" lon="6.66553">
        <ele>407.106</ele>
        <time>2015-10-03T12:00:09Z</time>
      </trkpt>
      <trkpt lat="47.48754" lon="6.6655">
        <ele>407.287</ele>
        <time>2015-10-03T12:00:10Z</time>
      </trkpt>
      <trkpt lat="47.48757" lon="6.66548">
        <ele>407.54</ele>
        <time>2015-10-03T12:00:11Z</time>
      </trkpt>
      <trkpt lat="47.48759" lon="6.66545">
        <ele>409.629</ele>
        <time>2015-10-03T12:00:12Z</time>
      </trkpt>
      <trkpt lat="47.48762" lon="6.66543">
        <ele>409.29</ele>
        <time>2015-10-03T12:00:13Z</time>
      </trkpt>
      <trkpt lat="47.48764" lon="6.66541">
        <ele>408.945</ele>
        <time>2015-10-03T12:00:14Z</time>
      </trkpt>
      <trkpt lat="47.48767" lon="6.66538">
        <ele>409.448</ele>
        <time>2015-10-03T12:00:15Z</time>
      </trkpt>
      <trkpt lat="47.48769" lon="6.66536">
        <ele>409.693</ele>
        <time>2015-10-03T12:00:16Z</time>
      </trkpt>
      <trkpt lat="47.48772" lon="6.66533">
        <ele>408.997</ele>
        <time>2015-10-03T12:00:17Z</time>
      </trkpt>
      <trkpt lat="47.48774" lon="6.66531">
        <ele>408.917</ele>
        <time>2015-10-03T12:00:18Z</time>
      </trkpt>
      <trkpt lat="47.48777" lon="6.66529">
        <ele>408.96</ele>
        <time>2015-10-03T12:00:19Z</time>
      </trkpt>
      <trkpt lat="47.4878" lon="6.66527">
        <ele>407.679</ele>
        <time>2015-10-03T12:00:20Z</time>
      </trkpt>
      <trkpt lat="47.48783" lon="6.66525">
        <ele>406.563</ele>
        <time>2015-10-03T12:00:21Z</time>
      </trkpt>
      <trkpt lat="47.48786" lon="6.66522">
        <ele>406.069</ele>
        <time>2015-10-03T12:00:22Z</time>
      </trkpt>
      <trkpt lat="47.48789" lon="6.6652">
        <ele>405.662</ele>
        <time>2015-10-03T12:00:23Z</time>
      </trkpt>
      <trkpt lat="47.48792" lon="6.66517">
        <ele>405.923</ele>
        <time>2015-10-03T12:00:24Z</time>
      </trkpt>
      <trkpt lat="47.48795" lon="6.66515">
        <ele>407.016</ele>
        <time>2015-10-03T12:00:25Z</time>
      </trkpt>
      <trkpt lat="47.48798" lon="6.66512">
        <ele>406.862</ele>
        <time>2015-10-03T12:00:26Z</time>
      </trkpt>
      <trkpt lat="47.488" lon="6.66509">
        <ele>405.898</ele>
        <time>2015-10-03T12:00:27Z</time>
      </trkpt>
      <trkpt lat="47.48803" lon="6.66507">
        <ele>406.439</ele>
        <time>2015-10-03T12:00:28Z</time>
      </trkpt>
      <trkpt lat="47.48805" lon="6.66505">
        <ele>406.584</ele>
        <time>2015-10-03T12:00:29Z</time>
      </trkpt>
      <trkpt lat="47.48808" lon="6.66503">
        <ele>406.477</ele>
        <time>2015-10-03T12:00:30Z</time>
      </trkpt>
      <trkpt lat="47.48811" lon="6.66501">
        <ele>406.282</ele>
        <time>2015-10-03T12:00:31Z</time>
      </trkpt>
      <trkpt lat="47.48814" lon="6.66499">
        <ele>406.036</ele>
        <time>2015-10-03T12:00:32Z</time>
      </trkpt>
      <trkpt lat="47.48817" lon="6.66498">
        <ele>406.216</ele>
        <time>2015-10-03T12:00:33Z</time>
      </trkpt>
      <trkpt lat="47.4882" lon="6.66496">
        <ele>405.855</ele>
        <time>2015-10-03T12:00:34Z</time>
      </trkpt>
      <trkpt lat="47.48824" lon="6.66495">
        <ele>405.663</ele>
        <time>2015-10-03T12:00:35Z</time>
      </trkpt>
      <trkpt lat="47.48827" lon="6.66495">
        <ele>405.377</ele>
        <time>2015-10-03T12:00:36Z</time>
      </trkpt>
      <trkpt lat="47.4883" lon="6.66494">
        <ele>405.06</ele>
        <time>2015-10-03T12:00:37Z</time>
      </trkpt>
      <trkpt lat="47.48833" lon="6.66494">
        <ele>406.061</ele>
        <time>2015-10-03T12:00:38Z</time>
      </trkpt>
      <trkpt lat="47.48837" lon="6.66493">
        <ele>407.852</ele>
        <time>2015-10-03T12:00:39Z</time>
      </trkpt>
      <trkpt lat="47.4884" lon="6.66492">
        <ele>406.003</ele>
        <time>2015-10-03T12:00:40Z</time>
      </trkpt>
      <trkpt lat="47.48844" lon="6.66492">
        <ele>407.022</ele>
        <time>2015-10-03T12:00:41Z</time>
      </trkpt>
      <trkpt lat="47.48848" lon="6.66492">
        <ele>406.213</ele>
        <time>2015-10-03T12:00:42Z</time>
      </trkpt>
      <trkpt lat="47.48853" lon="6.66492">
        <ele>406.622</ele>
        <time>2015-10-03T12:00:43Z</time>
      </trkpt>
      <trkpt lat="47.48857" lon="6.66491">
        <ele>405.858</ele>
        <time>2015-10-03T12:00:44Z</time>
      </trkpt>
      <trkpt lat="47.48861" lon="6.6649">
        <ele>405.336</ele>
        <time>2015-10-03T12:00:45Z</time>
      </trkpt>
      <trkpt lat="47.48866" lon="6.66489">
        <ele>405.235</ele>
        <time>2015-10-03T12:00:46Z</time>
      </trkpt>
      <trkpt lat="47.4887" lon="6.66489">
        <ele>405.238</ele>
        <time>2015-10-03T12:00:47Z</time>
      </trkpt>
      <trkpt lat="47.48875" lon="6.66489">
        <ele>405.21</ele>
        <time>2015-10-03T12:00:48Z</time>
      </trkpt>
      <trkpt lat="47.4888" lon="6.66488">
        <ele>404.766</ele>
        <time>2015-10-03T12:00:49Z</time>
      </trkpt>
      <trkpt lat="47.48884" lon="6.66488">
        <ele>405.466</ele>
        <time>2015-10-03T12:00:50Z</time>
      </trkpt>
      <trkpt lat="47.48887" lon="6.66488">
        <ele>406.513</ele>
        <time>2015-10-03T12:00:51Z</time>
      </trkpt>
      <trkpt lat="47.48892" lon="6.66487">
        <ele>406.784</ele>
        <time>2015-10-03T12:00:52Z</time>
      </trkpt>
      <trkpt lat="47.48897" lon="6.66485">
        <ele>406.106</ele>
        <time>2015-10-03T12:00:53Z</time>
      </trkpt>
      <trkpt lat="47.48901" lon="6.66483">
        <ele>407.548</ele>
        <time>2015-10-03T12:00:54Z</time>
      </trkpt>
      <trkpt lat="47.48906" lon="6.66479">
        <ele>407.184</ele>
        <time>2015-10-03T12:00:55Z</time>
      </trkpt>
      <trkpt lat="47.48909" lon="6.66477">
        <ele>406.773</ele>
        <time>2015-10-03T12:00:56Z</time>
      </trkpt>
      <trkpt lat="47.48913" lon="6.66474">
        <ele>406.422</ele>
        <time>2015-10-03T12:00:57Z</time>
      </trkpt>
      <trkpt lat="47.48917" lon="6.66471">
        <ele>406.505</ele>
        <time>2015-10-03T12:00:58Z</time>
      </trkpt>
      <trkpt lat="47.48921" lon="6.66468">
        <ele>405.528</ele>
        <time>2015-10-03T12:00:59Z</time>
      </trkpt>
      <trkpt lat="47.48925" lon="6.66468">
        <ele>406.915</ele>
        <time>2015-10-03T12:01:00Z</time>
      </trkpt>
      <trkpt lat="47.4893" lon="6.66465">
        <ele>406.265</ele>
        <time>2015-10-03T12:01:01Z</time>
      </trkpt>
      <trkpt lat="47.48934" lon="6.66462">
        <ele>406.424</ele>
        <time>2015-10-03T12:01:02Z</time>
      </trkpt>
      <trkpt lat="47.48939" lon="6.66459">
        <ele>406.306</ele>
        <time>2015-10-03T12:01:03Z</time>
      </trkpt>
      <trkpt lat="47.48943" lon="6.66456">
        <ele>406.215</ele>
        <time>2015-10-03T12:01:04Z</time>
      </trkpt>
      <trkpt lat="47.48948" lon="6.66453">
        <ele>406.727</ele>
        <time>2015-10-03T12:01:05Z</time>
      </trkpt>
      <trkpt lat="47.48952" lon="6.66451">
        <ele>406.253</ele>
        <time>2015-10-03T12:01:06Z</time>
      </trkpt>
      <trkpt lat="47.48956" lon="6.6645">
        <ele>405.511</ele>
        <time>2015-10-03T12:01:07Z</time>
      </trkpt>
      <trkpt lat="47.48961" lon="6.66447">
        <ele>405.371</ele>
        <time>2015-10-03T12:01:08Z</time>
      </trkpt>
      <trkpt lat="47.48963" lon="6.66447">
        <ele>404.857</ele>
        <time>2015-10-03T12:01:09Z</time>
      </trkpt>
      <trkpt lat="47.48969" lon="6.66447">
        <ele>404.906</ele>
        <time>2015-10-03T12:01:10Z</time>
      </trkpt>
      <trkpt lat="47.48975" lon="6.66445">
        <ele>403.715</ele>
        <time>2015-10-03T12:01:11Z</time>
      </trkpt>
      <trkpt lat="47.48978" lon="6.66447">
        <ele>403.63</ele>
        <time>2015-10-03T12:01:12Z</time>
      </trkpt>
      <trkpt lat="47.4898" lon="6.6645">
        <ele>406.149</ele>
        <time>2015-10-03T12:01:13Z</time>
      </trkpt>
      <trkpt lat="47.48981" lon="6.66454">
        <ele>408.612</ele>
        <time>2015-10-03T12:01:14Z</time>
      </trkpt>
      <trkpt lat="47.48986" lon="6.66456">
        <ele>411.226</ele>
        <time>2015-10-03T12:01:15Z</time>
      </trkpt>
      <trkpt lat="47.48988" lon="6.66457">
        <ele>411.02</ele>
        <time>2015-10-03T12:01:16Z</time>
      </trkpt>
      <trkpt lat="47.48992" lon="6.66458">
        <ele>412.899</ele>
        <time>2015-10-03T12:01:17Z</time>
      </trkpt>
      <trkpt lat="47.48994" lon="6.6646">
        <ele>410.806</ele>
        <time>2015-10-03T12:01:18Z</time>
      </trkpt>
      <trkpt lat="47.48998" lon="6.66462">
        <ele>410.278</ele>
        <time>2015-10-03T12:01:19Z</time>
      </trkpt>
      <trkpt lat="47.49002" lon="6.66465">
        <ele>412.493</ele>
        <time>2015-10-03T12:01:20Z</time>
      </trkpt>
      <trkpt lat="47.49005" lon="6.66467">
        <ele>411.151</ele>
        <time>2015-10-03T12:01:21Z</time>
      </trkpt>
      <trkpt lat="47.49009" lon="6.6647">
        <ele>410.951</ele>
        <time>2015-10-03T12:01:22Z</time>
      </trkpt>
      <trkpt lat="47.49014" lon="6.66473">
        <ele>410.707</ele>
        <time>2015-10-03T12:01:23Z</time>
      </trkpt>
      <trkpt lat="47.49018" lon="6.66476">
        <ele>410.291</ele>
        <time>2015-10-03T12:01:24Z</time>
      </trkpt>
      <trkpt lat="47.49023" lon="6.66478">
        <ele>409.395</ele>
        <time>2015-10-03T12:01:25Z</time>
      </trkpt>
      <trkpt lat="47.49028" lon="6.66481">
        <ele>408.683</ele>
        <time>2015-10-03T12:01:26Z</time>
      </trkpt>
      <trkpt lat="47.49031" lon="6.66484">
        <ele>408.721</ele>
        <time>2015-10-03T12:01:27Z</time>
      </trkpt>
      <trkpt lat="47.49034" lon="6.66488">
        <ele>409.919</ele>
        <time>2015-10-03T12:01:28Z</time>
      </trkpt>
      <trkpt lat="47.49037" lon="6.66492">
        <ele>406.123</ele>
        <time>2015-10-03T12:01:29Z</time>
      </trkpt>
      <trkpt lat="47.49039" lon="6.66497">
        <ele>403.229</ele>
        <time>2015-10-03T12:01:30Z</time>
      </trkpt>
      <trkpt lat="47.49042" lon="6.66501">
        <ele>402.722</ele>
        <time>2015-10-03T12:01:31Z</time>
      </trkpt>
      <trkpt lat="47.49044" lon="6.66506">
        <ele>403.107</ele>
        <time>2015-10-03T12:01:32Z</time>
      </trkpt>
      <trkpt lat="47.49047" lon="6.6651">
        <ele>402.158</ele>
        <time>2015-10-03T12:01:33Z</time>
      </trkpt>
      <trkpt lat="47.49049" lon="6.66514">
        <ele>401.422</ele>
        <time>2015-10-03T12:01:34Z</time>
      </trkpt>
      <trkpt lat="47.49052" lon="6.66518">
        <ele>401.225</ele>
        <time>2015-10-03T12:01:35Z</time>
      </trkpt>
      <trkpt lat="47.49055" lon="6.66522">
        <ele>401.073</ele>
        <time>2015-10-03T12:01:36Z</time>
      </trkpt>
      <trkpt lat="47.49058" lon="6.66526">
        <ele>401.92</ele>
        <time>2015-10-03T12:01:37Z</time>
      </trkpt>
      <trkpt lat="47.49061" lon="6.66529">
        <ele>403.372</ele>
        <time>2015-10-03T12:01:38Z</time>
      </trkpt>
      <trkpt lat="47.49064" lon="6.66532">
        <ele>403.423</ele>
        <time>2015-10-03T12:01:39Z</time>
      </trkpt>
      <trkpt lat="47.49065" lon="6.66534">
        <ele>405.81</ele>
        <time>2015-10-03T12:01:40Z</time>
      </trkpt>
      <trkpt lat="47.49067" lon="6.66536">
        <ele>407.235</ele>
        <time>2015-10-03T12:01:42Z</time>
      </trkpt>
      <trkpt lat="47.4907" lon="6.66537">
        <ele>407.323</ele>
        <time>2015-10-03T12:01:43Z</time>
      </trkpt>
      <trkpt lat="47.49073" lon="6.66539">
        <ele>409.56</ele>
        <time>2015-10-03T12:01:44Z</time>
      </trkpt>
      <trkpt lat="47.49076" lon="6.66541">
        <ele>410.071</ele>
        <time>2015-10-03T12:01:45Z</time>
      </trkpt>
      <trkpt lat="47.4908" lon="6.66542">
        <ele>410.099</ele>
        <time>2015-10-03T12:01:46Z</time>
      </trkpt>
      <trkpt lat="47.49084" lon="6.66543">
        <ele>410.067</ele>
        <time>2015-10-03T12:01:47Z</time>
      </trkpt>
      <trkpt lat="47.49088" lon="6.66545">
        <ele>410.586</ele>
        <time>2015-10-03T12:01:48Z</time>
      </trkpt>
      <trkpt lat="47.49091" lon="6.66545">
        <ele>410.931</ele>
        <time>2015-10-03T12:01:49Z</time>
      </trkpt>
      <trkpt lat="47.49093" lon="6.66545">
        <ele>409.339</ele>
        <time>2015-10-03T12:01:50Z</time>
      </trkpt>
      <trkpt lat="47.49095" lon="6.66546">
        <ele>410.164</ele>
        <time>2015-10-03T12:01:51Z</time>
      </trkpt>
      <trkpt lat="47.49098" lon="6.66547">
        <ele>410.5</ele>
        <time>2015-10-03T12:01:52Z</time>
      </trkpt>
      <trkpt lat="47.49101" lon="6.66548">
        <ele>409.506</ele>
        <time>2015-10-03T12:01:53Z</time>
      </trkpt>
      <trkpt lat="47.49106" lon="6.66549">
        <ele>410.55</ele>
        <time>2015-10-03T12:01:54Z</time>
      </trkpt>
      <trkpt lat="47.4911" lon="6.66548">
        <ele>411.339</ele>
        <time>2015-10-03T12:01:55Z</time>
      </trkpt>
      <trkpt lat="47.49113" lon="6.66548">
        <ele>409.913</ele>
        <time>2015-10-03T12:01:56Z</time>
      </trkpt>
      <trkpt lat="47.49117" lon="6.66548">
        <ele>408.77</ele>
        <time>2015-10-03T12:01:57Z</time>
      </trkpt>
      <trkpt lat="47.4912" lon="6.66549">
        <ele>409.052</ele>
        <time>2015-10-03T12:01:58Z</time>
      </trkpt>
      <trkpt lat="47.49123" lon="6.6655">
        <ele>408.896</ele>
        <time>2015-10-03T12:01:59Z</time>
      </trkpt>
      <trkpt lat="47.49127" lon="6.66551">
        <ele>408.401</ele>
        <time>2015-10-03T12:02:00Z</time>
      </trkpt>
      <trkpt lat="47.4913" lon="6.66552">
        <ele>407.999</ele>
        <time>2015-10-03T12:02:01Z</time>
      </trkpt>
      <trkpt lat="47.49134" lon="6.66553">
        <ele>407.473</ele>
        <time>2015-10-03T12:02:02Z</time>
      </trkpt>
      <trkpt lat="47.49137" lon="6.66555">
        <ele>406.387</ele>
        <time>2015-10-03T12:02:03Z</time>
      </trkpt>
      <trkpt lat="47.4914" lon="6.66556">
        <ele>406.146</ele>
        <time>2015-10-03T12:02:04Z</time>
      </trkpt>
      <trkpt lat="47.49143" lon="6.66557">
        <ele>406.836</ele>
        <time>2015-10-03T12:02:05Z</time>
      </trkpt>
      <trkpt lat="47.49147" lon="6.66558">
        <ele>405.382</ele>
        <time>2015-10-03T12:02:06Z</time>
      </trkpt>
      <trkpt lat="47.4915" lon="6.6656">
        <ele>404.198</ele>
        <time>2015-10-03T12:02:07Z</time>
      </trkpt>
      <trkpt lat="47.49153" lon="6.66561">
        <ele>403.566</ele>
        <time>2015-10-03T12:02:08Z</time>
      </trkpt>
      <trkpt lat="47.49156" lon="6.66562">
        <ele>403.243</ele>
        <time>2015-10-03T12:02:09Z</time>
      </trkpt>
      <trkpt lat="47.4916" lon="6.66563">
        <ele>403.258</ele>
        <time>2015-10-03T12:02:10Z</time>
      </trkpt>
      <trkpt lat="47.49164" lon="6.66565">
        <ele>402.493</ele>
        <time>2015-10-03T12:02:11Z</time>
      </trkpt>
      <trkpt lat="47.49168" lon="6.66566">
        <ele>401.699</ele>
        <time>2015-10-03T12:02:12Z</time>
      </trkpt>
      <trkpt lat="47.49171" lon="6.66567">
        <ele>403.461</ele>
        <time>2015-10-03T12:02:13Z</time>
      </trkpt>
      <trkpt lat="47.49174" lon="6.66567">
        <ele>404.159</ele>
        <time>2015-10-03T12:02:14Z</time>
      </trkpt>
      <trkpt lat="47.49178" lon="6.66567">
        <ele>405.041</ele>
        <time>2015-10-03T12:02:15Z</time>
      </trkpt>
      <trkpt lat="47.49181" lon="6.66568">
        <ele>407.454</ele>
        <time>2015-10-03T12:02:16Z</time>
      </trkpt>
      <trkpt lat="47.49183" lon="6.66568">
        <ele>405.842</ele>
        <time>2015-10-03T12:02:17Z</time>
      </trkpt>
      <trkpt lat="47.49186" lon="6.66569">
        <ele>406.587</ele>
        <time>2015-10-03T12:02:18Z</time>
      </trkpt>
      <trkpt lat="47.49189" lon="6.66569">
        <ele>406.08</ele>
        <time>2015-10-03T12:02:19Z</time>
      </trkpt>
      <trkpt lat="47.49192" lon="6.6657">
        <ele>408.291</ele>
        <time>2015-10-03T12:02:20Z</time>
      </trkpt>
      <trkpt lat="47.49195" lon="6.6657">
        <ele>407.07</ele>
        <time>2015-10-03T12:02:21Z</time>
      </trkpt>
      <trkpt lat="47.49197" lon="6.66571">
        <ele>409.555</ele>
        <time>2015-10-03T12:02:22Z</time>
      </trkpt>
      <trkpt lat="47.492" lon="6.66572">
        <ele>410.997</ele>
        <time>2015-10-03T12:02:23Z</time>
      </trkpt>
      <trkpt lat="47.49203" lon="6.66571">
        <ele>413.613</ele>
        <time>2015-10-03T12:02:24Z</time>
      </trkpt>
      <trkpt lat="47.49206" lon="6.6657">
        <ele>413.967</ele>
        <time>2015-10-03T12:02:25Z</time>
      </trkpt>
      <trkpt lat="47.49209" lon="6.66568">
        <ele>415.747</ele>
        <time>2015-10-03T12:02:26Z</time>
      </trkpt>
      <trkpt lat="47.49212" lon="6.66566">
        <ele>415.438</ele>
        <time>2015-10-03T12:02:27Z</time>
      </trkpt>
      <trkpt lat="47.49215" lon="6.66564">
        <ele>416.72</ele>
        <time>2015-10-03T12:02:28Z</time>
      </trkpt>
      <trkpt lat="47.49218" lon="6.66562">
        <ele>416.772</ele>
        <time>2015-10-03T12:02:29Z</time>
      </trkpt>
      <trkpt lat="47.49222" lon="6.6656">
        <ele>417.205</ele>
        <time>2015-10-03T12:02:30Z</time>
      </trkpt>
      <trkpt lat="47.49225" lon="6.66557">
        <ele>416.723</ele>
        <time>2015-10-03T12:02:31Z</time>
      </trkpt>
      <trkpt lat="47.49228" lon="6.66556">
        <ele>416.407</ele>
        <time>2015-10-03T12:02:32Z</time>
      </trkpt>
      <trkpt lat="47.49231" lon="6.66554">
        <ele>418.137</ele>
        <time>2015-10-03T12:02:33Z</time>
      </trkpt>
      <trkpt lat="47.49235" lon="6.66553">
        <ele>418.015</ele>
        <time>2015-10-03T12:02:34Z</time>
      </trkpt>
      <trkpt lat="47.49238" lon="6.66553">
        <ele>418.152</ele>
        <time>2015-10-03T12:02:35Z</time>
      </trkpt>
      <trkpt lat="47.49241" lon="6.66554">
        <ele>417.303</ele>
        <time>2015-10-03T12:02:36Z</time>
      </trkpt>
      <trkpt lat="47.49243" lon="6.66556">
        <ele>417.238</ele>
        <time>2015-10-03T12:02:37Z</time>
      </trkpt>
      <trkpt lat="47.49245" lon="6.66559">
        <ele>415.781</ele>
        <time>2015-10-03T12:02:38Z</time>
      </trkpt>
      <trkpt lat="47.49247" lon="6.66563">
        <ele>415.373</ele>
        <time>2015-10-03T12:02:39Z</time>
      </trkpt>
      <trkpt lat="47.49249" lon="6.66567">
        <ele>414.77</ele>
        <time>2015-10-03T12:02:40Z</time>
      </trkpt>
      <trkpt lat="47.49251" lon="6.66572">
        <ele>413.159</ele>
        <time>2015-10-03T12:02:41Z</time>
      </trkpt>
      <trkpt lat="47.49253" lon="6.66576">
        <ele>413.421</ele>
        <time>2015-10-03T12:02:42Z</time>
      </trkpt>
      <trkpt lat="47.49256" lon="6.66579">
        <ele>414.036</ele>
        <time>2015-10-03T12:02:43Z</time>
      </trkpt>
      <trkpt lat="47.4926" lon="6.66581">
        <ele>414.145</ele>
        <time>2015-10-03T12:02:44Z</time>
      </trkpt>
      <trkpt lat="47.49264" lon="6.66581">
        <ele>414.486</ele>
        <time>2015-10-03T12:02:45Z</time>
      </trkpt>
      <trkpt lat="47.49268" lon="6.66581">
        <ele>414.087</ele>
        <time>2015-10-03T12:02:46Z</time>
      </trkpt>
      <trkpt lat="47.49271" lon="6.6658">
        <ele>414.145</ele>
        <time>2015-10-03T12:02:47Z</time>
      </trkpt>
      <trkpt lat="47.49275" lon="6.66578">
        <ele>415.832</ele>
        <time>2015-10-03T12:02:48Z</time>
      </trkpt>
      <trkpt lat="47.49278" lon="6.66576">
        <ele>416.395</ele>
        <time>2015-10-03T12:02:49Z</time>
      </trkpt>
      <trkpt lat="47.49282" lon="6.66576">
        <ele>417.001</ele>
        <time>2015-10-03T12:02:50Z</time>
      </trkpt>
      <trkpt lat="47.49285" lon="6.66576">
        <ele>418.217</ele>
        <time>2015-10-03T12:02:51Z</time>
      </trkpt>
      <trkpt lat="47.49288" lon="6.66577">
        <ele>418.407</ele>
        <time>2015-10-03T12:02:52Z</time>
      </trkpt>
      <trkpt lat="47.49291" lon="6.66577">
        <ele>415.627</ele>
        <time>2015-10-03T12:02:53Z</time>
      </trkpt>
      <trkpt lat="47.49294" lon="6.66577">
        <ele>415.972</ele>
        <time>2015-10-03T12:02:54Z</time>
      </trkpt>
      <trkpt lat="47.49297" lon="6.66577">
        <ele>416.214</ele>
        <time>2015-10-03T12:02:55Z</time>
      </trkpt>
      <trkpt lat="47.493" lon="6.66577">
        <ele>415.528</ele>
        <time>2015-10-03T12:02:56Z</time>
      </trkpt>
      <trkpt lat="47.49303" lon="6.66575">
        <ele>416.039</ele>
        <time>2015-10-03T12:02:57Z</time>
      </trkpt>
      <trkpt lat="47.49307" lon="6.66572">
        <ele>415.8</ele>
        <time>2015-10-03T12:02:58Z</time>
      </trkpt>
      <trkpt lat="47.49309" lon="6.6657">
        <ele>415.966</ele>
        <time>2015-10-03T12:02:59Z</time>
      </trkpt>
      <trkpt lat="47.49312" lon="6.66568">
        <ele>415.934</ele>
        <time>2015-10-03T12:03:00Z</time>
      </trkpt>
      <trkpt lat="47.49315" lon="6.66566">
        <ele>417.039</ele>
        <time>2015-10-03T12:03:01Z</time>
      </trkpt>
      <trkpt lat="47.49318" lon="6.66564">
        <ele>418.25</ele>
        <time>2015-10-03T12:03:02Z</time>
      </trkpt>
      <trkpt lat="47.49321" lon="6.66561">
        <ele>417.884</ele>
        <time>2015-10-03T12:03:03Z</time>
      </trkpt>
      <trkpt lat="47.49323" lon="6.66559">
        <ele>419.399</ele>
        <time>2015-10-03T12:03:04Z</time>
      </trkpt>
      <trkpt lat="47.49325" lon="6.66557">
        <ele>420.732</ele>
        <time>2015-10-03T12:03:05Z</time>
      </trkpt>
      <trkpt lat="47.49328" lon="6.66555">
        <ele>419.303</ele>
        <time>2015-10-03T12:03:06Z</time>
      </trkpt>
      <trkpt lat="47.49331" lon="6.66553">
        <ele>418.682</ele>
        <time>2015-10-03T12:03:07Z</time>
      </trkpt>
      <trkpt lat="47.49334" lon="6.66551">
        <ele>418.802</ele>
        <time>2015-10-03T12:03:08Z</time>
      </trkpt>
      <trkpt lat="47.49336" lon="6.6655">
        <ele>419.78</ele>
        <time>2015-10-03T12:03:09Z</time>
      </trkpt>
      <trkpt lat="47.49338" lon="6.66551">
        <ele>420.047</ele>
        <time>2015-10-03T12:03:10Z</time>
      </trkpt>
      <trkpt lat="47.4934" lon="6.66554">
        <ele>418.696</ele>
        <time>2015-10-03T12:03:11Z</time>
      </trkpt>
      <trkpt lat="47.49341" lon="6.66558">
        <ele>418.194</ele>
        <time>2015-10-03T12:03:12Z</time>
      </trkpt>
      <trkpt lat="47.49342" lon="6.66561">
        <ele>418.474</ele>
        <time>2015-10-03T12:03:13Z</time>
      </trkpt>
      <trkpt lat="47.49342" lon="6.66565">
        <ele>418.276</ele>
        <time>2015-10-03T12:03:14Z</time>
      </trkpt>
      <trkpt lat="47.49343" lon="6.66569">
        <ele>418.808</ele>
        <time>2015-10-03T12:03:15Z</time>
      </trkpt>
      <trkpt lat="47.49344" lon="6.66574">
        <ele>418.943</ele>
        <time>2015-10-03T12:03:16Z</time>
      </trkpt>
      <trkpt lat="47.49344" lon="6.66579">
        <ele>418.685</ele>
        <time>2015-10-03T12:03:17Z</time>
      </trkpt>
      <trkpt lat="47.49346" lon="6.66583">
        <ele>418.048</ele>
        <time>2015-10-03T12:03:18Z</time>
      </trkpt>
      <trkpt lat="47.49347" lon="6.66589">
        <ele>417.241</ele>
        <time>2015-10-03T12:03:19Z</time>
      </trkpt>
      <trkpt lat="47.49348" lon="6.66594">
        <ele>415.12</ele>
        <time>2015-10-03T12:03:20Z</time>
      </trkpt>
      <trkpt lat="47.49349" lon="6.66599">
        <ele>414.595</ele>
        <time>2015-10-03T12:03:21Z</time>
      </trkpt>
      <trkpt lat="47.4935" lon="6.66603">
        <ele>415.976</ele>
        <time>2015-10-03T12:03:22Z</time>
      </trkpt>
      <trkpt lat="47.49351" lon="6.66607">
        <ele>414.827</ele>
        <time>2015-10-03T12:03:23Z</time>
      </trkpt>
      <trkpt lat="47.49351" lon="6.66612">
        <ele>413.989</ele>
        <time>2015-10-03T12:03:24Z</time>
      </trkpt>
      <trkpt lat="47.4935" lon="6.66616">
        <ele>413.804</ele>
        <time>2015-10-03T12:03:25Z</time>
      </trkpt>
      <trkpt lat="47.49348" lon="6.6662">
        <ele>413.779</ele>
        <time>2015-10-03T12:03:26Z</time>
      </trkpt>
      <trkpt lat="47.49347" lon="6.66622">
        <ele>413.746</ele>
        <time>2015-10-03T12:03:27Z</time>
      </trkpt>
      <trkpt lat="47.49345" lon="6.66624">
        <ele>413.318</ele>
        <time>2015-10-03T12:03:28Z</time>
      </trkpt>
      <trkpt lat="47.49344" lon="6.66624">
        <ele>414.617</ele>
        <time>2015-10-03T12:03:29Z</time>
      </trkpt>
      <trkpt lat="47.49343" lon="6.66625">
        <ele>416.45</ele>
        <time>2015-10-03T12:03:34Z</time>
      </trkpt>
      <trkpt lat="47.49341" lon="6.66625">
        <ele>414.934</ele>
        <time>2015-10-03T12:03:36Z</time>
      </trkpt>
      <trkpt lat="47.49344" lon="6.66623">
        <ele>416.914</ele>
        <time>2015-10-03T12:03:51Z</time>
      </trkpt>
      <trkpt lat="47.49346" lon="6.66622">
        <ele>415.056</ele>
        <time>2015-10-03T12:03:53Z</time>
      </trkpt>
      <trkpt lat="47.49347" lon="6.66622">
        <ele>416.273</ele>
        <time>2015-10-03T12:03:57Z</time>
      </trkpt>
      <trkpt lat="47.49349" lon="6.66623">
        <ele>424.317</ele>
        <time>2015-10-03T12:03:59Z</time>
      </trkpt>
      <trkpt lat="47.4935" lon="6.66624">
        <ele>424.31</ele>
        <time>2015-10-03T12:04:00Z</time>
      </trkpt>
      <trkpt lat="47.4935" lon="6.66625">
        <ele>426.597</ele>
        <time>2015-10-03T12:04:03Z</time>
      </trkpt>
      <trkpt lat="47.4935" lon="6.66627">
        <ele>429.861</ele>
        <time>2015-10-03T12:04:07Z</time>
      </trkpt>
      <trkpt lat="47.49349" lon="6.66627">
        <ele>429.457</ele>
        <time>2015-10-03T12:04:11Z</time>
      </trkpt>
      <trkpt lat="47.49349" lon="6.66625">
        <ele>430.328</ele>
        <time>2015-10-03T12:04:13Z</time>
      </trkpt>
      <trkpt lat="47.49348" lon="6.66626">
        <ele>429.411</ele>
        <time>2015-10-03T12:04:30Z</time>
      </trkpt>
      <trkpt lat="47.49347" lon="6.66628">
        <ele>427.633</ele>
        <time>2015-10-03T12:04:33Z</time>
      </trkpt>
      <trkpt lat="47.49346" lon="6.66628">
        <ele>430.253</ele>
        <time>2015-10-03T12:04:35Z</time>
      </trkpt>
      <trkpt lat="47.49344" lon="6.66626">
        <ele>428.902</ele>
        <time>2015-10-03T12:04:43Z</time>
      </trkpt>
      <trkpt lat="47.49345" lon="6.66629">
        <ele>419.226</ele>
        <time>2015-10-03T12:05:47Z</time>
      </trkpt>
      <trkpt lat="47.49344" lon="6.66628">
        <ele>417.532</ele>
        <time>2015-10-03T12:05:50Z</time>
      </trkpt>
      <trkpt lat="47.49343" lon="6.66627">
        <ele>416.776</ele>
        <time>2015-10-03T12:05:52Z</time>
      </trkpt>
      <trkpt lat="47.49344" lon="6.66626">
        <ele>421.782</ele>
        <time>2015-10-03T12:05:58Z</time>
      </trkpt>
      <trkpt lat="47.49345" lon="6.66625">
        <ele>421.355</ele>
        <time>2015-10-03T12:06:00Z</time>
      </trkpt>
      <trkpt lat="47.49346" lon="6.66625">
        <ele>421.481</ele>
        <time>2015-10-03T12:06:02Z</time>
      </trkpt>
      <trkpt lat="47.49347" lon="6.66626">
        <ele>425.184</ele>
        <time>2015-10-03T12:06:05Z</time>
      </trkpt>
      <trkpt lat="47.49349" lon="6.66627">
        <ele>423.708</ele>
        <time>2015-10-03T12:06:08Z</time>
      </trkpt>
      <trkpt lat="47.49349" lon="6.66629">
        <ele>424.509</ele>
        <time>2015-10-03T12:06:10Z</time>
      </trkpt>
      <trkpt lat="47.49349" lon="6.66627">
        <ele>424.179</ele>
        <time>2015-10-03T12:06:20Z</time>
      </trkpt>
      <trkpt lat="47.4935" lon="6.66626">
        <ele>424.259</ele>
        <time>2015-10-03T12:06:26Z</time>
      </trkpt>
      <trkpt lat="47.4935" lon="6.66625">
        <ele>425.18</ele>
        <time>2015-10-03T12:06:30Z</time>
      </trkpt>
      <trkpt lat="47.49351" lon="6.66626">
        <ele>425.258</ele>
        <time>2015-10-03T12:06:33Z</time>
      </trkpt>
      <trkpt lat="47.4935" lon="6.66627">
        <ele>423.165</ele>
        <time>2015-10-03T12:06:36Z</time>
      </trkpt>
      <trkpt lat="47.49349" lon="6.66628">
        <ele>419.947</ele>
        <time>2015-10-03T12:06:38Z</time>
      </trkpt>
      <trkpt lat="47.49348" lon="6.66628">
        <ele>420.662</ele>
        <time>2015-10-03T12:06:40Z</time>
      </trkpt>
      <trkpt lat="47.49347" lon="6.66629">
        <ele>430.928</ele>
        <time>2015-10-03T12:07:01Z</time>
      </trkpt>
      <trkpt lat="47.49346" lon="6.66628">
        <ele>433.34</ele>
        <time>2015-10-03T12:07:22Z</time>
      </trkpt>
      <trkpt lat="47.49346" lon="6.66626">
        <ele>431.375</ele>
        <time>2015-10-03T12:07:28Z</time>
      </trkpt>
      <trkpt lat="47.49346" lon="6.66624">
        <ele>430.776</ele>
        <time>2015-10-03T12:11:19Z</time>
      </trkpt>
      <trkpt lat="47.49345" lon="6.66625">
        <ele>430.7</ele>
        <time>2015-10-03T12:11:27Z</time>
      </trkpt>
      <trkpt lat="47.49345" lon="6.66626">
        <ele>423.456</ele>
        <time>2015-10-03T12:11:34Z</time>
      </trkpt>
      <trkpt lat="47.49345" lon="6.66627">
        <ele>421.599</ele>
        <time>2015-10-03T12:11:41Z</time>
      </trkpt>
      <trkpt lat="47.49346" lon="6.66627">
        <ele>422.219</ele>
        <time>2015-10-03T12:11:44Z</time>
      </trkpt>
      <trkpt lat="47.49348" lon="6.66627">
        <ele>422.443</ele>
        <time>2015-10-03T12:11:46Z</time>
      </trkpt>
      <trkpt lat="47.49348" lon="6.66629">
        <ele>422.072</ele>
        <time>2015-10-03T12:12:00Z</time>
      </trkpt>
      <trkpt lat="47.49348" lon="6.66628">
        <ele>420.252</ele>
        <time>2015-10-03T12:12:10Z</time>
      </trkpt>
      <trkpt lat="47.49347" lon="6.66629">
        <ele>417.876</ele>
        <time>2015-10-03T12:12:45Z</time>
      </trkpt>
      <trkpt lat="47.49346" lon="6.6663">
        <ele>418.718</ele>
        <time>2015-10-03T12:12:46Z</time>
      </trkpt>
      <trkpt lat="47.49345" lon="6.66631">
        <ele>418.707</ele>
        <time>2015-10-03T12:12:47Z</time>
      </trkpt>
      <trkpt lat="47.49344" lon="6.66631">
        <ele>418.699</ele>
        <time>2015-10-03T12:12:48Z</time>
      </trkpt>
      <trkpt lat="47.49343" lon="6.66632">
        <ele>418.76</ele>
        <time>2015-10-03T12:12:49Z</time>
      </trkpt>
      <trkpt lat="47.4934" lon="6.66632">
        <ele>418.859</ele>
        <time>2015-10-03T12:12:52Z</time>
      </trkpt>
      <trkpt lat="47.49339" lon="6.66633">
        <ele>419.068</ele>
        <time>2015-10-03T12:12:54Z</time>
      </trkpt>
      <trkpt lat="47.49338" lon="6.66633">
        <ele>419.266</ele>
        <time>2015-10-03T12:12:56Z</time>
      </trkpt>
      <trkpt lat="47.49337" lon="6.66634">
        <ele>418.358</ele>
        <time>2015-10-03T12:12:57Z</time>
      </trkpt>
      <trkpt lat="47.49335" lon="6.66637">
        <ele>420.898</ele>
        <time>2015-10-03T12:12:58Z</time>
      </trkpt>
      <trkpt lat="47.49333" lon="6.66639">
        <ele>420.678</ele>
        <time>2015-10-03T12:12:59Z</time>
      </trkpt>
      <trkpt lat="47.4933" lon="6.66638">
        <ele>420.258</ele>
        <time>2015-10-03T12:13:00Z</time>
      </trkpt>
      <trkpt lat="47.49327" lon="6.66637">
        <ele>420.045</ele>
        <time>2015-10-03T12:13:01Z</time>
      </trkpt>
      <trkpt lat="47.49326" lon="6.66638">
        <ele>419.506</ele>
        <time>2015-10-03T12:13:02Z</time>
      </trkpt>
      <trkpt lat="47.49325" lon="6.66639">
        <ele>419.291</ele>
        <time>2015-10-03T12:13:03Z</time>
      </trkpt>
      <trkpt lat="47.49325" lon="6.66639">
        <ele>420.293</ele>
        <time>2015-10-03T12:13:04Z</time>
      </trkpt>
    </trkseg>
  </trk>
</gpx>